<?xml version='1.0' encoding='UTF-8'?><gpx version="1.1" creator="JPX - https://github.com/jenetics/jpx" xmlns="http://www.topografix.com/GPX/1/1"><trk><trkseg><trkpt lat="41.8259335" lon="12.8278286"><ele>323.0</ele><time>2026-04-02T07:15:20.83Z</time></trkpt><trkpt lat="41.826006" lon="12.8279883"><ele>323.0</ele><time>2026-04-02T07:15:22.829Z</time></trkpt><trkpt lat="41.8260473" lon="12.8280994"><ele>323.0</ele><time>2026-04-02T07:15:23.829Z</time></trkpt><trkpt lat="41.8261743" lon="12.8284966"><ele>323.0</ele><time>2026-04-02T07:15:26.831Z</time></trkpt><trkpt lat="41.8262212" lon="12.8286479"><ele>323.0</ele><time>2026-04-02T07:15:27.83Z</time></trkpt><trkpt lat="41.8262698" lon="12.8288008"><ele>323.0</ele><time>2026-04-02T07:15:28.83Z</time></trkpt><trkpt lat="41.8263196" lon="12.8289563"><ele>323.0</ele><time>2026-04-02T07:15:29.83Z</time></trkpt><trkpt lat="41.8263671" lon="12.8291174"><ele>323.0</ele><time>2026-04-02T07:15:30.829Z</time></trkpt><trkpt lat="41.8264141" lon="12.8292825"><ele>323.0</ele><time>2026-04-02T07:15:31.83Z</time></trkpt><trkpt lat="41.8264574" lon="12.8294513"><ele>323.0</ele><time>2026-04-02T07:15:32.83Z</time></trkpt><trkpt lat="41.8264931" lon="12.8296233"><ele>323.0</ele><time>2026-04-02T07:15:33.83Z</time></trkpt><trkpt lat="41.8265188" lon="12.829792"><ele>323.0</ele><time>2026-04-02T07:15:34.83Z</time></trkpt><trkpt lat="41.8265393" lon="12.8299693"><ele>323.0</ele><time>2026-04-02T07:15:35.83Z</time></trkpt><trkpt lat="41.8265565" lon="12.8301472"><ele>323.0</ele><time>2026-04-02T07:15:36.832Z</time></trkpt><trkpt lat="41.8265724" lon="12.830324"><ele>323.0</ele><time>2026-04-02T07:15:37.833Z</time></trkpt><trkpt lat="41.8265878" lon="12.8305005"><ele>323.0</ele><time>2026-04-02T07:15:38.832Z</time></trkpt><trkpt lat="41.8266039" lon="12.830677"><ele>323.0</ele><time>2026-04-02T07:15:39.831Z</time></trkpt><trkpt lat="41.82662" lon="12.8308533"><ele>323.0</ele><time>2026-04-02T07:15:40.832Z</time></trkpt><trkpt lat="41.826635" lon="12.8310317"><ele>323.0</ele><time>2026-04-02T07:15:41.832Z</time></trkpt><trkpt lat="41.8266467" lon="12.8312067"><ele>323.79999999999995</ele><time>2026-04-02T07:15:42.833Z</time></trkpt><trkpt lat="41.8266533" lon="12.8313667"><ele>324.6</ele><time>2026-04-02T07:15:43.833Z</time></trkpt><trkpt lat="41.8266567" lon="12.8315"><ele>325.4</ele><time>2026-04-02T07:15:44.833Z</time></trkpt><trkpt lat="41.8266633" lon="12.8316233"><ele>326.20000000000005</ele><time>2026-04-02T07:15:45.833Z</time></trkpt><trkpt lat="41.8266683" lon="12.8317367"><ele>327.0</ele><time>2026-04-02T07:15:46.831Z</time></trkpt><trkpt lat="41.8266717" lon="12.8318433"><ele>327.3333333333333</ele><time>2026-04-02T07:15:47.83Z</time></trkpt><trkpt lat="41.82667" lon="12.8319467"><ele>327.6666666666667</ele><time>2026-04-02T07:15:48.83Z</time></trkpt><trkpt lat="41.826665" lon="12.8320517"><ele>328.0</ele><time>2026-04-02T07:15:49.833Z</time></trkpt><trkpt lat="41.8266483" lon="12.8321533"><ele>328.33333333333337</ele><time>2026-04-02T07:15:50.832Z</time></trkpt><trkpt lat="41.82664" lon="12.83225"><ele>328.6666666666667</ele><time>2026-04-02T07:15:51.836Z</time></trkpt><trkpt lat="41.8266267" lon="12.832345"><ele>329.0</ele><time>2026-04-02T07:15:52.832Z</time></trkpt><trkpt lat="41.8266083" lon="12.83244"><ele>329.0</ele><time>2026-04-02T07:15:53.831Z</time></trkpt><trkpt lat="41.8265867" lon="12.83254"><ele>329.0</ele><time>2026-04-02T07:15:54.833Z</time></trkpt><trkpt lat="41.8265567" lon="12.8326433"><ele>329.0</ele><time>2026-04-02T07:15:55.831Z</time></trkpt><trkpt lat="41.826525" lon="12.832755"><ele>329.0</ele><time>2026-04-02T07:15:56.831Z</time></trkpt><trkpt lat="41.8264917" lon="12.8328717"><ele>329.0</ele><time>2026-04-02T07:15:57.833Z</time></trkpt><trkpt lat="41.8264583" lon="12.833"><ele>329.0</ele><time>2026-04-02T07:15:58.832Z</time></trkpt><trkpt lat="41.8264233" lon="12.833135"><ele>327.6</ele><time>2026-04-02T07:15:59.831Z</time></trkpt><trkpt lat="41.82639" lon="12.8332733"><ele>326.2</ele><time>2026-04-02T07:16:00.832Z</time></trkpt><trkpt lat="41.8263583" lon="12.83342"><ele>324.8</ele><time>2026-04-02T07:16:01.832Z</time></trkpt><trkpt lat="41.826325" lon="12.8335667"><ele>323.40000000000003</ele><time>2026-04-02T07:16:02.833Z</time></trkpt><trkpt lat="41.8262967" lon="12.8337117"><ele>322.0</ele><time>2026-04-02T07:16:03.833Z</time></trkpt><trkpt lat="41.82627" lon="12.8338517"><ele>319.8</ele><time>2026-04-02T07:16:04.83Z</time></trkpt><trkpt lat="41.8262367" lon="12.8339933"><ele>317.6</ele><time>2026-04-02T07:16:05.832Z</time></trkpt><trkpt lat="41.826205" lon="12.8341367"><ele>315.40000000000003</ele><time>2026-04-02T07:16:06.83Z</time></trkpt><trkpt lat="41.8261733" lon="12.834275"><ele>313.20000000000005</ele><time>2026-04-02T07:16:07.828Z</time></trkpt><trkpt lat="41.8261433" lon="12.834415"><ele>311.0</ele><time>2026-04-02T07:16:08.832Z</time></trkpt><trkpt lat="41.8261117" lon="12.8345533"><ele>309.0</ele><time>2026-04-02T07:16:09.831Z</time></trkpt><trkpt lat="41.8260783" lon="12.8346917"><ele>307.0</ele><time>2026-04-02T07:16:10.832Z</time></trkpt><trkpt lat="41.8260583" lon="12.834845"><ele>305.0</ele><time>2026-04-02T07:16:11.832Z</time></trkpt><trkpt lat="41.8260533" lon="12.8350033"><ele>303.0</ele><time>2026-04-02T07:16:12.832Z</time></trkpt><trkpt lat="41.8260617" lon="12.8351667"><ele>303.0</ele><time>2026-04-02T07:16:13.832Z</time></trkpt><trkpt lat="41.8260883" lon="12.83533"><ele>303.0</ele><time>2026-04-02T07:16:14.832Z</time></trkpt><trkpt lat="41.8261417" lon="12.8355033"><ele>303.0</ele><time>2026-04-02T07:16:15.832Z</time></trkpt><trkpt lat="41.826205" lon="12.835695"><ele>303.0</ele><time>2026-04-02T07:16:16.83Z</time></trkpt><trkpt lat="41.8262683" lon="12.8358933"><ele>306.75</ele><time>2026-04-02T07:16:17.83Z</time></trkpt><trkpt lat="41.826325" lon="12.836085"><ele>310.5</ele><time>2026-04-02T07:16:18.83Z</time></trkpt><trkpt lat="41.8263817" lon="12.8362617"><ele>314.25</ele><time>2026-04-02T07:16:19.83Z</time></trkpt><trkpt lat="41.8264333" lon="12.836425"><ele>318.0</ele><time>2026-04-02T07:16:20.831Z</time></trkpt><trkpt lat="41.8264833" lon="12.8365767"><ele>318.0</ele><time>2026-04-02T07:16:21.831Z</time></trkpt><trkpt lat="41.8265317" lon="12.836725"><ele>318.0</ele><time>2026-04-02T07:16:22.832Z</time></trkpt><trkpt lat="41.82658" lon="12.836865"><ele>318.0</ele><time>2026-04-02T07:16:23.83Z</time></trkpt><trkpt lat="41.8266283" lon="12.8370133"><ele>318.0</ele><time>2026-04-02T07:16:24.83Z</time></trkpt><trkpt lat="41.8266767" lon="12.8371683"><ele>319.0</ele><time>2026-04-02T07:16:25.831Z</time></trkpt><trkpt lat="41.826725" lon="12.8373233"><ele>320.0</ele><time>2026-04-02T07:16:26.83Z</time></trkpt><trkpt lat="41.8267767" lon="12.83747"><ele>321.0</ele><time>2026-04-02T07:16:27.831Z</time></trkpt><trkpt lat="41.8268317" lon="12.837605"><ele>322.0</ele><time>2026-04-02T07:16:28.83Z</time></trkpt><trkpt lat="41.826905" lon="12.83774"><ele>322.0</ele><time>2026-04-02T07:16:29.831Z</time></trkpt><trkpt lat="41.82696" lon="12.8378833"><ele>322.0</ele><time>2026-04-02T07:16:30.831Z</time></trkpt><trkpt lat="41.8270033" lon="12.8380033"><ele>322.0</ele><time>2026-04-02T07:16:31.834Z</time></trkpt><trkpt lat="41.8270383" lon="12.8381233"><ele>322.0</ele><time>2026-04-02T07:16:32.833Z</time></trkpt><trkpt lat="41.8270683" lon="12.8382033"><ele>322.0</ele><time>2026-04-02T07:16:33.834Z</time></trkpt><trkpt lat="41.8270983" lon="12.8382817"><ele>322.0</ele><time>2026-04-02T07:16:34.834Z</time></trkpt><trkpt lat="41.8271317" lon="12.8384083"><ele>321.8</ele><time>2026-04-02T07:16:36.833Z</time></trkpt><trkpt lat="41.82717" lon="12.8385167"><ele>321.6</ele><time>2026-04-02T07:16:38.83Z</time></trkpt><trkpt lat="41.8272133" lon="12.83865"><ele>321.40000000000003</ele><time>2026-04-02T07:16:40.834Z</time></trkpt><trkpt lat="41.8272467" lon="12.83883"><ele>321.20000000000005</ele><time>2026-04-02T07:16:42.833Z</time></trkpt><trkpt lat="41.827265" lon="12.83893"><ele>321.0</ele><time>2026-04-02T07:16:43.834Z</time></trkpt><trkpt lat="41.8272717" lon="12.8390267"><ele>321.0</ele><time>2026-04-02T07:16:44.831Z</time></trkpt><trkpt lat="41.8272733" lon="12.8391233"><ele>321.0</ele><time>2026-04-02T07:16:45.83Z</time></trkpt><trkpt lat="41.8272583" lon="12.83922"><ele>321.0</ele><time>2026-04-02T07:16:46.834Z</time></trkpt><trkpt lat="41.827235" lon="12.8393117"><ele>321.0</ele><time>2026-04-02T07:16:47.833Z</time></trkpt><trkpt lat="41.8272133" lon="12.839395"><ele>321.0</ele><time>2026-04-02T07:16:48.831Z</time></trkpt><trkpt lat="41.8271717" lon="12.8395433"><ele>321.0</ele><time>2026-04-02T07:16:50.83Z</time></trkpt><trkpt lat="41.8271367" lon="12.8396767"><ele>321.6</ele><time>2026-04-02T07:16:52.831Z</time></trkpt><trkpt lat="41.827125" lon="12.8397717"><ele>322.20000000000005</ele><time>2026-04-02T07:16:53.829Z</time></trkpt><trkpt lat="41.827095" lon="12.8398833"><ele>322.79999999999995</ele><time>2026-04-02T07:16:54.832Z</time></trkpt><trkpt lat="41.8270517" lon="12.840005"><ele>323.4</ele><time>2026-04-02T07:16:55.831Z</time></trkpt><trkpt lat="41.82699" lon="12.8401333"><ele>324.0</ele><time>2026-04-02T07:16:56.834Z</time></trkpt><trkpt lat="41.8269233" lon="12.8402717"><ele>325.0</ele><time>2026-04-02T07:16:57.831Z</time></trkpt><trkpt lat="41.8268667" lon="12.8404317"><ele>326.0</ele><time>2026-04-02T07:16:58.829Z</time></trkpt><trkpt lat="41.82682" lon="12.8406117"><ele>327.0</ele><time>2026-04-02T07:16:59.834Z</time></trkpt><trkpt lat="41.8267867" lon="12.8408133"><ele>328.0</ele><time>2026-04-02T07:17:00.834Z</time></trkpt><trkpt lat="41.8267533" lon="12.841035"><ele>329.3333333333333</ele><time>2026-04-02T07:17:01.833Z</time></trkpt><trkpt lat="41.826715" lon="12.8412733"><ele>330.6666666666667</ele><time>2026-04-02T07:17:02.834Z</time></trkpt><trkpt lat="41.826675" lon="12.8414883"><ele>332.0</ele><time>2026-04-02T07:17:03.834Z</time></trkpt><trkpt lat="41.8266267" lon="12.841695"><ele>333.5</ele><time>2026-04-02T07:17:04.835Z</time></trkpt><trkpt lat="41.826585" lon="12.8418733"><ele>335.0</ele><time>2026-04-02T07:17:05.833Z</time></trkpt><trkpt lat="41.826545" lon="12.8420433"><ele>336.5</ele><time>2026-04-02T07:17:06.83Z</time></trkpt><trkpt lat="41.8265067" lon="12.8422"><ele>338.0</ele><time>2026-04-02T07:17:07.832Z</time></trkpt><trkpt lat="41.8264667" lon="12.8423583"><ele>338.0</ele><time>2026-04-02T07:17:08.834Z</time></trkpt><trkpt lat="41.8264283" lon="12.84252"><ele>338.0</ele><time>2026-04-02T07:17:09.833Z</time></trkpt><trkpt lat="41.8263783" lon="12.8426867"><ele>338.0</ele><time>2026-04-02T07:17:10.834Z</time></trkpt><trkpt lat="41.8263183" lon="12.8428567"><ele>338.0</ele><time>2026-04-02T07:17:11.834Z</time></trkpt><trkpt lat="41.8262667" lon="12.8430167"><ele>339.75</ele><time>2026-04-02T07:17:12.834Z</time></trkpt><trkpt lat="41.8262117" lon="12.84317"><ele>341.5</ele><time>2026-04-02T07:17:13.835Z</time></trkpt><trkpt lat="41.8261683" lon="12.8433283"><ele>343.25</ele><time>2026-04-02T07:17:14.832Z</time></trkpt><trkpt lat="41.826125" lon="12.8434967"><ele>345.0</ele><time>2026-04-02T07:17:15.831Z</time></trkpt><trkpt lat="41.8260783" lon="12.8436633"><ele>344.5</ele><time>2026-04-02T07:17:16.831Z</time></trkpt><trkpt lat="41.8260367" lon="12.84383"><ele>344.0</ele><time>2026-04-02T07:17:17.833Z</time></trkpt><trkpt lat="41.826" lon="12.8440083"><ele>343.5</ele><time>2026-04-02T07:17:18.83Z</time></trkpt><trkpt lat="41.8259733" lon="12.8441967"><ele>343.0</ele><time>2026-04-02T07:17:19.832Z</time></trkpt><trkpt lat="41.8259583" lon="12.8443833"><ele>343.0</ele><time>2026-04-02T07:17:20.831Z</time></trkpt><trkpt lat="41.8259567" lon="12.8445633"><ele>343.0</ele><time>2026-04-02T07:17:21.831Z</time></trkpt><trkpt lat="41.8259583" lon="12.8447433"><ele>343.0</ele><time>2026-04-02T07:17:22.83Z</time></trkpt><trkpt lat="41.82597" lon="12.8449"><ele>343.0</ele><time>2026-04-02T07:17:23.836Z</time></trkpt><trkpt lat="41.8259767" lon="12.845065"><ele>345.25</ele><time>2026-04-02T07:17:24.834Z</time></trkpt><trkpt lat="41.82598" lon="12.84523"><ele>347.5</ele><time>2026-04-02T07:17:25.832Z</time></trkpt><trkpt lat="41.8259833" lon="12.845395"><ele>349.75</ele><time>2026-04-02T07:17:26.834Z</time></trkpt><trkpt lat="41.8259817" lon="12.8455667"><ele>352.0</ele><time>2026-04-02T07:17:27.834Z</time></trkpt><trkpt lat="41.8259833" lon="12.8457417"><ele>352.0</ele><time>2026-04-02T07:17:28.833Z</time></trkpt><trkpt lat="41.825985" lon="12.8459217"><ele>352.0</ele><time>2026-04-02T07:17:29.834Z</time></trkpt><trkpt lat="41.8259867" lon="12.8460983"><ele>352.0</ele><time>2026-04-02T07:17:30.834Z</time></trkpt><trkpt lat="41.8259867" lon="12.846275"><ele>352.0</ele><time>2026-04-02T07:17:31.832Z</time></trkpt><trkpt lat="41.8259867" lon="12.8464517"><ele>351.75</ele><time>2026-04-02T07:17:32.835Z</time></trkpt><trkpt lat="41.8259767" lon="12.8466317"><ele>351.5</ele><time>2026-04-02T07:17:33.833Z</time></trkpt><trkpt lat="41.825965" lon="12.846815"><ele>351.25</ele><time>2026-04-02T07:17:34.833Z</time></trkpt><trkpt lat="41.8259567" lon="12.8470083"><ele>351.0</ele><time>2026-04-02T07:17:35.832Z</time></trkpt><trkpt lat="41.8259483" lon="12.8472167"><ele>352.6666666666667</ele><time>2026-04-02T07:17:36.833Z</time></trkpt><trkpt lat="41.8259417" lon="12.8474383"><ele>354.33333333333337</ele><time>2026-04-02T07:17:37.833Z</time></trkpt><trkpt lat="41.8259433" lon="12.8476483"><ele>356.0</ele><time>2026-04-02T07:17:38.835Z</time></trkpt><trkpt lat="41.82594" lon="12.8478483"><ele>356.5</ele><time>2026-04-02T07:17:39.832Z</time></trkpt><trkpt lat="41.8259317" lon="12.848045"><ele>357.0</ele><time>2026-04-02T07:17:40.834Z</time></trkpt><trkpt lat="41.8259183" lon="12.8482417"><ele>357.5</ele><time>2026-04-02T07:17:41.833Z</time></trkpt><trkpt lat="41.8259117" lon="12.8484317"><ele>358.0</ele><time>2026-04-02T07:17:42.833Z</time></trkpt><trkpt lat="41.8259083" lon="12.8486133"><ele>358.75</ele><time>2026-04-02T07:17:43.834Z</time></trkpt><trkpt lat="41.8259067" lon="12.8487867"><ele>359.5</ele><time>2026-04-02T07:17:44.833Z</time></trkpt><trkpt lat="41.8258983" lon="12.8489667"><ele>360.25</ele><time>2026-04-02T07:17:45.834Z</time></trkpt><trkpt lat="41.8258933" lon="12.8491567"><ele>361.0</ele><time>2026-04-02T07:17:46.833Z</time></trkpt><trkpt lat="41.8258883" lon="12.849345"><ele>361.0</ele><time>2026-04-02T07:17:47.832Z</time></trkpt><trkpt lat="41.8258833" lon="12.849525"><ele>361.0</ele><time>2026-04-02T07:17:48.83Z</time></trkpt><trkpt lat="41.8258783" lon="12.8496917"><ele>361.0</ele><time>2026-04-02T07:17:49.831Z</time></trkpt><trkpt lat="41.82587" lon="12.8498567"><ele>361.0</ele><time>2026-04-02T07:17:50.831Z</time></trkpt><trkpt lat="41.8258633" lon="12.8500233"><ele>360.5</ele><time>2026-04-02T07:17:51.83Z</time></trkpt><trkpt lat="41.82586" lon="12.850205"><ele>360.0</ele><time>2026-04-02T07:17:52.831Z</time></trkpt><trkpt lat="41.825855" lon="12.85039"><ele>359.5</ele><time>2026-04-02T07:17:53.833Z</time></trkpt><trkpt lat="41.825845" lon="12.8505817"><ele>359.0</ele><time>2026-04-02T07:17:54.836Z</time></trkpt><trkpt lat="41.825835" lon="12.8507717"><ele>359.0</ele><time>2026-04-02T07:17:55.833Z</time></trkpt><trkpt lat="41.8258283" lon="12.8509617"><ele>359.0</ele><time>2026-04-02T07:17:56.834Z</time></trkpt><trkpt lat="41.82582" lon="12.8511567"><ele>359.0</ele><time>2026-04-02T07:17:57.834Z</time></trkpt><trkpt lat="41.8258117" lon="12.85135"><ele>359.0</ele><time>2026-04-02T07:17:58.833Z</time></trkpt><trkpt lat="41.8258017" lon="12.851545"><ele>359.0</ele><time>2026-04-02T07:17:59.834Z</time></trkpt><trkpt lat="41.8257917" lon="12.851735"><ele>359.0</ele><time>2026-04-02T07:18:00.833Z</time></trkpt><trkpt lat="41.8257833" lon="12.851925"><ele>359.0</ele><time>2026-04-02T07:18:01.833Z</time></trkpt><trkpt lat="41.8257733" lon="12.8521133"><ele>359.0</ele><time>2026-04-02T07:18:02.834Z</time></trkpt><trkpt lat="41.8257567" lon="12.8523017"><ele>359.5</ele><time>2026-04-02T07:18:03.834Z</time></trkpt><trkpt lat="41.8257483" lon="12.85248"><ele>360.0</ele><time>2026-04-02T07:18:04.834Z</time></trkpt><trkpt lat="41.8257417" lon="12.8526517"><ele>360.5</ele><time>2026-04-02T07:18:05.834Z</time></trkpt><trkpt lat="41.8257317" lon="12.852825"><ele>361.0</ele><time>2026-04-02T07:18:06.834Z</time></trkpt><trkpt lat="41.825715" lon="12.8530017"><ele>361.0</ele><time>2026-04-02T07:18:07.834Z</time></trkpt><trkpt lat="41.8256933" lon="12.8531783"><ele>361.0</ele><time>2026-04-02T07:18:08.834Z</time></trkpt><trkpt lat="41.8256733" lon="12.8533467"><ele>361.0</ele><time>2026-04-02T07:18:09.834Z</time></trkpt><trkpt lat="41.8256467" lon="12.8535017"><ele>361.0</ele><time>2026-04-02T07:18:10.834Z</time></trkpt><trkpt lat="41.8256167" lon="12.85365"><ele>361.0</ele><time>2026-04-02T07:18:11.833Z</time></trkpt><trkpt lat="41.8255883" lon="12.853805"><ele>361.0</ele><time>2026-04-02T07:18:12.835Z</time></trkpt><trkpt lat="41.8255617" lon="12.853965"><ele>361.0</ele><time>2026-04-02T07:18:13.833Z</time></trkpt><trkpt lat="41.8255417" lon="12.8541533"><ele>361.0</ele><time>2026-04-02T07:18:14.833Z</time></trkpt><trkpt lat="41.8255267" lon="12.8543583"><ele>361.0</ele><time>2026-04-02T07:18:15.834Z</time></trkpt><trkpt lat="41.8255017" lon="12.8545567"><ele>361.0</ele><time>2026-04-02T07:18:16.834Z</time></trkpt><trkpt lat="41.82548" lon="12.85474"><ele>361.0</ele><time>2026-04-02T07:18:17.834Z</time></trkpt><trkpt lat="41.8254717" lon="12.8549067"><ele>361.0</ele><time>2026-04-02T07:18:18.833Z</time></trkpt><trkpt lat="41.8254617" lon="12.85507"><ele>361.5</ele><time>2026-04-02T07:18:19.833Z</time></trkpt><trkpt lat="41.8254517" lon="12.855245"><ele>362.0</ele><time>2026-04-02T07:18:20.834Z</time></trkpt><trkpt lat="41.8254417" lon="12.8554267"><ele>362.5</ele><time>2026-04-02T07:18:21.833Z</time></trkpt><trkpt lat="41.8254317" lon="12.8555983"><ele>363.0</ele><time>2026-04-02T07:18:22.833Z</time></trkpt><trkpt lat="41.82542" lon="12.8557633"><ele>363.0</ele><time>2026-04-02T07:18:23.834Z</time></trkpt><trkpt lat="41.825405" lon="12.8559233"><ele>363.0</ele><time>2026-04-02T07:18:24.834Z</time></trkpt><trkpt lat="41.8254" lon="12.8560967"><ele>363.0</ele><time>2026-04-02T07:18:25.834Z</time></trkpt><trkpt lat="41.8253983" lon="12.856275"><ele>363.0</ele><time>2026-04-02T07:18:26.832Z</time></trkpt><trkpt lat="41.8253917" lon="12.8564533"><ele>363.0</ele><time>2026-04-02T07:18:27.832Z</time></trkpt><trkpt lat="41.8253883" lon="12.8566283"><ele>363.0</ele><time>2026-04-02T07:18:28.834Z</time></trkpt><trkpt lat="41.8253833" lon="12.8568"><ele>363.0</ele><time>2026-04-02T07:18:29.832Z</time></trkpt><trkpt lat="41.82538" lon="12.85698"><ele>363.0</ele><time>2026-04-02T07:18:30.834Z</time></trkpt><trkpt lat="41.8253717" lon="12.8571617"><ele>363.5</ele><time>2026-04-02T07:18:31.832Z</time></trkpt><trkpt lat="41.8253583" lon="12.8573417"><ele>364.0</ele><time>2026-04-02T07:18:32.836Z</time></trkpt><trkpt lat="41.8253467" lon="12.8575233"><ele>364.5</ele><time>2026-04-02T07:18:33.834Z</time></trkpt><trkpt lat="41.8253417" lon="12.8577033"><ele>365.0</ele><time>2026-04-02T07:18:34.831Z</time></trkpt><trkpt lat="41.8253417" lon="12.8578883"><ele>366.0</ele><time>2026-04-02T07:18:35.834Z</time></trkpt><trkpt lat="41.8253367" lon="12.8580817"><ele>367.0</ele><time>2026-04-02T07:18:36.831Z</time></trkpt><trkpt lat="41.8253367" lon="12.858275"><ele>368.0</ele><time>2026-04-02T07:18:37.832Z</time></trkpt><trkpt lat="41.825335" lon="12.8584967"><ele>368.6666666666667</ele><time>2026-04-02T07:18:38.831Z</time></trkpt><trkpt lat="41.8253283" lon="12.8587433"><ele>369.3333333333333</ele><time>2026-04-02T07:18:39.833Z</time></trkpt><trkpt lat="41.8253117" lon="12.859"><ele>370.0</ele><time>2026-04-02T07:18:40.832Z</time></trkpt><trkpt lat="41.8252967" lon="12.85925"><ele>369.5</ele><time>2026-04-02T07:18:41.832Z</time></trkpt><trkpt lat="41.82528" lon="12.8594683"><ele>369.0</ele><time>2026-04-02T07:18:42.832Z</time></trkpt><trkpt lat="41.8252633" lon="12.8596433"><ele>368.5</ele><time>2026-04-02T07:18:43.834Z</time></trkpt><trkpt lat="41.8252533" lon="12.8597683"><ele>368.0</ele><time>2026-04-02T07:18:44.834Z</time></trkpt><trkpt lat="41.8252317" lon="12.859905"><ele>368.0</ele><time>2026-04-02T07:18:46.834Z</time></trkpt><trkpt lat="41.8251833" lon="12.8600033"><ele>368.0</ele><time>2026-04-02T07:18:48.832Z</time></trkpt><trkpt lat="41.8251017" lon="12.8601317"><ele>368.0</ele><time>2026-04-02T07:18:50.83Z</time></trkpt><trkpt lat="41.8250817" lon="12.8602233"><ele>368.0</ele><time>2026-04-02T07:18:51.832Z</time></trkpt><trkpt lat="41.8250933" lon="12.8603367"><ele>368.0</ele><time>2026-04-02T07:18:52.832Z</time></trkpt><trkpt lat="41.8251267" lon="12.86046"><ele>368.25</ele><time>2026-04-02T07:18:53.832Z</time></trkpt><trkpt lat="41.825145" lon="12.8605967"><ele>368.5</ele><time>2026-04-02T07:18:54.834Z</time></trkpt><trkpt lat="41.8251433" lon="12.8607583"><ele>368.75</ele><time>2026-04-02T07:18:55.833Z</time></trkpt><trkpt lat="41.825135" lon="12.8609417"><ele>369.0</ele><time>2026-04-02T07:18:56.835Z</time></trkpt><trkpt lat="41.8251317" lon="12.8611417"><ele>369.0</ele><time>2026-04-02T07:18:57.833Z</time></trkpt><trkpt lat="41.82512" lon="12.8613383"><ele>369.0</ele><time>2026-04-02T07:18:58.833Z</time></trkpt><trkpt lat="41.82511" lon="12.8615233"><ele>369.0</ele><time>2026-04-02T07:18:59.833Z</time></trkpt><trkpt lat="41.8250933" lon="12.86171"><ele>369.0</ele><time>2026-04-02T07:19:00.834Z</time></trkpt><trkpt lat="41.825075" lon="12.8619"><ele>369.25</ele><time>2026-04-02T07:19:01.832Z</time></trkpt><trkpt lat="41.8250583" lon="12.862095"><ele>369.5</ele><time>2026-04-02T07:19:02.834Z</time></trkpt><trkpt lat="41.8250417" lon="12.86229"><ele>369.75</ele><time>2026-04-02T07:19:03.833Z</time></trkpt><trkpt lat="41.8250267" lon="12.862475"><ele>370.0</ele><time>2026-04-02T07:19:04.833Z</time></trkpt><trkpt lat="41.8250133" lon="12.8626467"><ele>370.25</ele><time>2026-04-02T07:19:05.834Z</time></trkpt><trkpt lat="41.8249967" lon="12.8628133"><ele>370.5</ele><time>2026-04-02T07:19:06.835Z</time></trkpt><trkpt lat="41.82498" lon="12.862985"><ele>370.75</ele><time>2026-04-02T07:19:07.834Z</time></trkpt><trkpt lat="41.8249633" lon="12.8631617"><ele>371.0</ele><time>2026-04-02T07:19:08.833Z</time></trkpt><trkpt lat="41.8249483" lon="12.8633417"><ele>371.5</ele><time>2026-04-02T07:19:09.832Z</time></trkpt><trkpt lat="41.8249367" lon="12.8635283"><ele>372.0</ele><time>2026-04-02T07:19:10.834Z</time></trkpt><trkpt lat="41.8249217" lon="12.86371"><ele>372.5</ele><time>2026-04-02T07:19:11.832Z</time></trkpt><trkpt lat="41.8249083" lon="12.8638817"><ele>373.0</ele><time>2026-04-02T07:19:12.833Z</time></trkpt><trkpt lat="41.824895" lon="12.8640467"><ele>373.0</ele><time>2026-04-02T07:19:13.834Z</time></trkpt><trkpt lat="41.8248783" lon="12.864215"><ele>373.0</ele><time>2026-04-02T07:19:14.833Z</time></trkpt><trkpt lat="41.824865" lon="12.86439"><ele>373.0</ele><time>2026-04-02T07:19:15.833Z</time></trkpt><trkpt lat="41.82485" lon="12.8645683"><ele>373.0</ele><time>2026-04-02T07:19:16.833Z</time></trkpt><trkpt lat="41.824835" lon="12.8647467"><ele>374.25</ele><time>2026-04-02T07:19:17.83Z</time></trkpt><trkpt lat="41.8248217" lon="12.86492"><ele>375.5</ele><time>2026-04-02T07:19:18.831Z</time></trkpt><trkpt lat="41.8248067" lon="12.8650767"><ele>376.75</ele><time>2026-04-02T07:19:19.83Z</time></trkpt><trkpt lat="41.824795" lon="12.865225"><ele>378.0</ele><time>2026-04-02T07:19:20.832Z</time></trkpt><trkpt lat="41.8247833" lon="12.86538"><ele>378.5</ele><time>2026-04-02T07:19:21.832Z</time></trkpt><trkpt lat="41.8247767" lon="12.8655483"><ele>379.0</ele><time>2026-04-02T07:19:22.828Z</time></trkpt><trkpt lat="41.8247633" lon="12.8657383"><ele>379.5</ele><time>2026-04-02T07:19:23.832Z</time></trkpt><trkpt lat="41.8247517" lon="12.8659483"><ele>380.0</ele><time>2026-04-02T07:19:24.83Z</time></trkpt><trkpt lat="41.8247317" lon="12.8661717"><ele>380.33333333333337</ele><time>2026-04-02T07:19:25.834Z</time></trkpt><trkpt lat="41.8247083" lon="12.8663867"><ele>380.6666666666667</ele><time>2026-04-02T07:19:26.831Z</time></trkpt><trkpt lat="41.8246833" lon="12.866605"><ele>381.0</ele><time>2026-04-02T07:19:27.832Z</time></trkpt><trkpt lat="41.8246567" lon="12.8668283"><ele>381.0</ele><time>2026-04-02T07:19:28.831Z</time></trkpt><trkpt lat="41.8246383" lon="12.8670517"><ele>381.0</ele><time>2026-04-02T07:19:29.831Z</time></trkpt><trkpt lat="41.8246217" lon="12.867275"><ele>381.0</ele><time>2026-04-02T07:19:30.832Z</time></trkpt><trkpt lat="41.824605" lon="12.8675017"><ele>381.0</ele><time>2026-04-02T07:19:31.83Z</time></trkpt><trkpt lat="41.8245867" lon="12.86773"><ele>381.0</ele><time>2026-04-02T07:19:32.831Z</time></trkpt><trkpt lat="41.82457" lon="12.8679633"><ele>381.0</ele><time>2026-04-02T07:19:33.83Z</time></trkpt><trkpt lat="41.824555" lon="12.8682"><ele>381.0</ele><time>2026-04-02T07:19:34.832Z</time></trkpt><trkpt lat="41.8245633" lon="12.8684067"><ele>381.0</ele><time>2026-04-02T07:19:35.83Z</time></trkpt><trkpt lat="41.8245667" lon="12.8685933"><ele>381.0</ele><time>2026-04-02T07:19:36.831Z</time></trkpt><trkpt lat="41.8245717" lon="12.86876"><ele>381.0</ele><time>2026-04-02T07:19:37.832Z</time></trkpt><trkpt lat="41.8245767" lon="12.8689067"><ele>381.6</ele><time>2026-04-02T07:19:38.831Z</time></trkpt><trkpt lat="41.824585" lon="12.8690417"><ele>382.20000000000005</ele><time>2026-04-02T07:19:39.833Z</time></trkpt><trkpt lat="41.8245983" lon="12.8691783"><ele>382.79999999999995</ele><time>2026-04-02T07:19:40.831Z</time></trkpt><trkpt lat="41.8246117" lon="12.8693183"><ele>383.4</ele><time>2026-04-02T07:19:41.832Z</time></trkpt><trkpt lat="41.8246333" lon="12.869465"><ele>384.0</ele><time>2026-04-02T07:19:42.831Z</time></trkpt><trkpt lat="41.8246533" lon="12.8696217"><ele>384.0</ele><time>2026-04-02T07:19:43.832Z</time></trkpt><trkpt lat="41.8246717" lon="12.8697867"><ele>384.0</ele><time>2026-04-02T07:19:44.83Z</time></trkpt><trkpt lat="41.82469" lon="12.8699633"><ele>384.0</ele><time>2026-04-02T07:19:45.835Z</time></trkpt><trkpt lat="41.8247133" lon="12.870155"><ele>384.0</ele><time>2026-04-02T07:19:46.832Z</time></trkpt><trkpt lat="41.8247383" lon="12.87036"><ele>384.0</ele><time>2026-04-02T07:19:47.834Z</time></trkpt><trkpt lat="41.8247617" lon="12.8705667"><ele>384.0</ele><time>2026-04-02T07:19:48.835Z</time></trkpt><trkpt lat="41.8247817" lon="12.8707717"><ele>384.0</ele><time>2026-04-02T07:19:49.834Z</time></trkpt><trkpt lat="41.8248017" lon="12.8709667"><ele>384.25</ele><time>2026-04-02T07:19:50.834Z</time></trkpt><trkpt lat="41.82482" lon="12.8711467"><ele>384.5</ele><time>2026-04-02T07:19:51.834Z</time></trkpt><trkpt lat="41.82484" lon="12.8713167"><ele>384.75</ele><time>2026-04-02T07:19:52.833Z</time></trkpt><trkpt lat="41.8248583" lon="12.87148"><ele>385.0</ele><time>2026-04-02T07:19:53.835Z</time></trkpt><trkpt lat="41.8248767" lon="12.8716433"><ele>385.0</ele><time>2026-04-02T07:19:54.834Z</time></trkpt><trkpt lat="41.8248917" lon="12.8718067"><ele>385.0</ele><time>2026-04-02T07:19:55.835Z</time></trkpt><trkpt lat="41.8249117" lon="12.8719683"><ele>385.0</ele><time>2026-04-02T07:19:56.834Z</time></trkpt><trkpt lat="41.82493" lon="12.8721167"><ele>385.0</ele><time>2026-04-02T07:19:57.834Z</time></trkpt><trkpt lat="41.8249483" lon="12.8722483"><ele>385.0</ele><time>2026-04-02T07:19:58.833Z</time></trkpt><trkpt lat="41.8249667" lon="12.87237"><ele>385.0</ele><time>2026-04-02T07:19:59.833Z</time></trkpt><trkpt lat="41.824985" lon="12.8724867"><ele>385.0</ele><time>2026-04-02T07:20:00.833Z</time></trkpt><trkpt lat="41.825005" lon="12.8726083"><ele>385.0</ele><time>2026-04-02T07:20:01.833Z</time></trkpt><trkpt lat="41.8250233" lon="12.872735"><ele>385.0</ele><time>2026-04-02T07:20:02.834Z</time></trkpt><trkpt lat="41.825045" lon="12.8728633"><ele>385.00000000000006</ele><time>2026-04-02T07:20:03.834Z</time></trkpt><trkpt lat="41.8250667" lon="12.8729867"><ele>385.0</ele><time>2026-04-02T07:20:04.833Z</time></trkpt><trkpt lat="41.825095" lon="12.8731017"><ele>385.0</ele><time>2026-04-02T07:20:05.834Z</time></trkpt><trkpt lat="41.8251233" lon="12.8732083"><ele>385.0</ele><time>2026-04-02T07:20:06.834Z</time></trkpt><trkpt lat="41.8251533" lon="12.873305"><ele>385.00000000000006</ele><time>2026-04-02T07:20:07.833Z</time></trkpt><trkpt lat="41.8251817" lon="12.8733967"><ele>385.0</ele><time>2026-04-02T07:20:08.835Z</time></trkpt><trkpt lat="41.8252083" lon="12.8734767"><ele>384.6</ele><time>2026-04-02T07:20:09.835Z</time></trkpt><trkpt lat="41.825255" lon="12.873615"><ele>384.2</ele><time>2026-04-02T07:20:11.833Z</time></trkpt><trkpt lat="41.825305" lon="12.87374"><ele>383.79999999999995</ele><time>2026-04-02T07:20:13.835Z</time></trkpt><trkpt lat="41.8253617" lon="12.8738883"><ele>383.4</ele><time>2026-04-02T07:20:15.833Z</time></trkpt><trkpt lat="41.8254" lon="12.8739767"><ele>383.0</ele><time>2026-04-02T07:20:16.833Z</time></trkpt><trkpt lat="41.82545" lon="12.8740767"><ele>383.0</ele><time>2026-04-02T07:20:17.834Z</time></trkpt><trkpt lat="41.8255083" lon="12.8741833"><ele>383.0</ele><time>2026-04-02T07:20:18.834Z</time></trkpt><trkpt lat="41.8255733" lon="12.8742867"><ele>383.0</ele><time>2026-04-02T07:20:19.832Z</time></trkpt><trkpt lat="41.8256483" lon="12.874385"><ele>383.0</ele><time>2026-04-02T07:20:20.833Z</time></trkpt><trkpt lat="41.8257333" lon="12.8744833"><ele>383.0</ele><time>2026-04-02T07:20:21.833Z</time></trkpt><trkpt lat="41.825825" lon="12.8745817"><ele>383.25</ele><time>2026-04-02T07:20:22.833Z</time></trkpt><trkpt lat="41.8259267" lon="12.87468"><ele>383.5</ele><time>2026-04-02T07:20:23.835Z</time></trkpt><trkpt lat="41.8260317" lon="12.8747717"><ele>383.75</ele><time>2026-04-02T07:20:24.835Z</time></trkpt><trkpt lat="41.82613" lon="12.87486"><ele>384.0</ele><time>2026-04-02T07:20:25.833Z</time></trkpt><trkpt lat="41.82623" lon="12.8749483"><ele>384.0</ele><time>2026-04-02T07:20:26.835Z</time></trkpt><trkpt lat="41.8263417" lon="12.8750367"><ele>384.0</ele><time>2026-04-02T07:20:27.835Z</time></trkpt><trkpt lat="41.82646" lon="12.8751333"><ele>384.0</ele><time>2026-04-02T07:20:28.833Z</time></trkpt><trkpt lat="41.826575" lon="12.8752217"><ele>384.0</ele><time>2026-04-02T07:20:29.832Z</time></trkpt><trkpt lat="41.8266817" lon="12.8752983"><ele>385.0</ele><time>2026-04-02T07:20:30.835Z</time></trkpt><trkpt lat="41.8267783" lon="12.8753767"><ele>386.0</ele><time>2026-04-02T07:20:31.834Z</time></trkpt><trkpt lat="41.82687" lon="12.8754483"><ele>387.0</ele><time>2026-04-02T07:20:32.834Z</time></trkpt><trkpt lat="41.826955" lon="12.8755133"><ele>388.0</ele><time>2026-04-02T07:20:33.834Z</time></trkpt><trkpt lat="41.8270317" lon="12.8755733"><ele>389.0</ele><time>2026-04-02T07:20:34.834Z</time></trkpt><trkpt lat="41.8271017" lon="12.87562"><ele>389.2</ele><time>2026-04-02T07:20:35.834Z</time></trkpt><trkpt lat="41.827165" lon="12.875645"><ele>389.4</ele><time>2026-04-02T07:20:36.834Z</time></trkpt><trkpt lat="41.8272667" lon="12.8756117"><ele>389.6</ele><time>2026-04-02T07:20:38.833Z</time></trkpt><trkpt lat="41.827265" lon="12.8754967"><ele>389.8</ele><time>2026-04-02T07:20:41.834Z</time></trkpt><trkpt lat="41.8272" lon="12.8754717"><ele>390.0</ele><time>2026-04-02T07:20:43.834Z</time></trkpt><trkpt lat="41.8270367" lon="12.87546"><ele>390.0</ele><time>2026-04-02T07:24:22.832Z</time></trkpt><trkpt lat="41.826965" lon="12.8754033"><ele>390.0</ele><time>2026-04-02T07:24:25.832Z</time></trkpt><trkpt lat="41.8269317" lon="12.8754883"><ele>390.0</ele><time>2026-04-02T07:24:29.834Z</time></trkpt><trkpt lat="41.8269983" lon="12.8756083"><ele>390.0</ele><time>2026-04-02T07:24:31.831Z</time></trkpt><trkpt lat="41.8270633" lon="12.8756617"><ele>390.0</ele><time>2026-04-02T07:24:32.832Z</time></trkpt><trkpt lat="41.8271317" lon="12.8757117"><ele>390.0</ele><time>2026-04-02T07:24:33.833Z</time></trkpt><trkpt lat="41.8272017" lon="12.8757633"><ele>390.0</ele><time>2026-04-02T07:24:34.833Z</time></trkpt><trkpt lat="41.827285" lon="12.875825"><ele>390.0</ele><time>2026-04-02T07:24:35.835Z</time></trkpt><trkpt lat="41.827365" lon="12.87589"><ele>390.0</ele><time>2026-04-02T07:24:36.833Z</time></trkpt><trkpt lat="41.8274433" lon="12.8759533"><ele>390.0</ele><time>2026-04-02T07:24:37.833Z</time></trkpt><trkpt lat="41.827525" lon="12.876015"><ele>390.0</ele><time>2026-04-02T07:24:38.835Z</time></trkpt><trkpt lat="41.8276083" lon="12.8760767"><ele>390.8</ele><time>2026-04-02T07:24:39.834Z</time></trkpt><trkpt lat="41.827695" lon="12.87614"><ele>391.6</ele><time>2026-04-02T07:24:40.833Z</time></trkpt><trkpt lat="41.8277833" lon="12.8762083"><ele>392.4</ele><time>2026-04-02T07:24:41.833Z</time></trkpt><trkpt lat="41.8278683" lon="12.876275"><ele>393.2</ele><time>2026-04-02T07:24:42.834Z</time></trkpt><trkpt lat="41.827955" lon="12.8763433"><ele>394.0</ele><time>2026-04-02T07:24:43.832Z</time></trkpt><trkpt lat="41.8280367" lon="12.8764183"><ele>394.0</ele><time>2026-04-02T07:24:44.832Z</time></trkpt><trkpt lat="41.8281267" lon="12.8764933"><ele>394.0</ele><time>2026-04-02T07:24:45.833Z</time></trkpt><trkpt lat="41.8282183" lon="12.876555"><ele>394.0</ele><time>2026-04-02T07:24:46.833Z</time></trkpt><trkpt lat="41.8283117" lon="12.8766267"><ele>394.0</ele><time>2026-04-02T07:24:47.833Z</time></trkpt><trkpt lat="41.8284067" lon="12.8767017"><ele>394.0</ele><time>2026-04-02T07:24:48.832Z</time></trkpt><trkpt lat="41.8285" lon="12.8767783"><ele>394.75</ele><time>2026-04-02T07:24:49.832Z</time></trkpt><trkpt lat="41.828595" lon="12.8768517"><ele>395.5</ele><time>2026-04-02T07:24:50.833Z</time></trkpt><trkpt lat="41.8286933" lon="12.8769283"><ele>396.25</ele><time>2026-04-02T07:24:51.832Z</time></trkpt><trkpt lat="41.8287967" lon="12.8770083"><ele>397.0</ele><time>2026-04-02T07:24:52.831Z</time></trkpt><trkpt lat="41.8289017" lon="12.8770917"><ele>397.0</ele><time>2026-04-02T07:24:53.833Z</time></trkpt><trkpt lat="41.8290317" lon="12.8771817"><ele>397.0</ele><time>2026-04-02T07:24:54.833Z</time></trkpt><trkpt lat="41.82915" lon="12.8772533"><ele>397.0</ele><time>2026-04-02T07:24:55.834Z</time></trkpt><trkpt lat="41.8292583" lon="12.8773483"><ele>397.0</ele><time>2026-04-02T07:24:56.834Z</time></trkpt><trkpt lat="41.82937" lon="12.8774383"><ele>397.0</ele><time>2026-04-02T07:24:57.833Z</time></trkpt><trkpt lat="41.829485" lon="12.8775233"><ele>397.0</ele><time>2026-04-02T07:24:58.833Z</time></trkpt><trkpt lat="41.829595" lon="12.87761"><ele>397.0</ele><time>2026-04-02T07:24:59.834Z</time></trkpt><trkpt lat="41.8297017" lon="12.8777"><ele>397.0</ele><time>2026-04-02T07:25:00.835Z</time></trkpt><trkpt lat="41.8298083" lon="12.8777833"><ele>397.0</ele><time>2026-04-02T07:25:01.833Z</time></trkpt><trkpt lat="41.8299117" lon="12.877875"><ele>397.0</ele><time>2026-04-02T07:25:02.832Z</time></trkpt><trkpt lat="41.8300083" lon="12.877975"><ele>397.0</ele><time>2026-04-02T07:25:03.834Z</time></trkpt><trkpt lat="41.8301" lon="12.878085"><ele>397.0</ele><time>2026-04-02T07:25:04.832Z</time></trkpt><trkpt lat="41.8301883" lon="12.878205"><ele>397.0</ele><time>2026-04-02T07:25:05.83Z</time></trkpt><trkpt lat="41.8302717" lon="12.8783367"><ele>397.0</ele><time>2026-04-02T07:25:06.833Z</time></trkpt><trkpt lat="41.8303483" lon="12.8784817"><ele>397.0</ele><time>2026-04-02T07:25:07.833Z</time></trkpt><trkpt lat="41.830425" lon="12.87863"><ele>397.0</ele><time>2026-04-02T07:25:08.834Z</time></trkpt><trkpt lat="41.8305" lon="12.878775"><ele>397.5</ele><time>2026-04-02T07:25:09.833Z</time></trkpt><trkpt lat="41.830575" lon="12.8789167"><ele>398.0</ele><time>2026-04-02T07:25:10.832Z</time></trkpt><trkpt lat="41.8306467" lon="12.879065"><ele>398.5</ele><time>2026-04-02T07:25:11.832Z</time></trkpt><trkpt lat="41.830715" lon="12.87922"><ele>399.0</ele><time>2026-04-02T07:25:12.833Z</time></trkpt><trkpt lat="41.8307733" lon="12.8793767"><ele>399.2</ele><time>2026-04-02T07:25:13.831Z</time></trkpt><trkpt lat="41.830825" lon="12.87953"><ele>399.4</ele><time>2026-04-02T07:25:14.833Z</time></trkpt><trkpt lat="41.8308767" lon="12.879665"><ele>399.6</ele><time>2026-04-02T07:25:15.832Z</time></trkpt><trkpt lat="41.830925" lon="12.8797917"><ele>399.8</ele><time>2026-04-02T07:25:16.832Z</time></trkpt><trkpt lat="41.83097" lon="12.8799083"><ele>400.0</ele><time>2026-04-02T07:25:17.833Z</time></trkpt><trkpt lat="41.8310133" lon="12.8800183"><ele>400.33333333333337</ele><time>2026-04-02T07:25:18.833Z</time></trkpt><trkpt lat="41.8310533" lon="12.8801217"><ele>400.6666666666667</ele><time>2026-04-02T07:25:19.832Z</time></trkpt><trkpt lat="41.83109" lon="12.8802167"><ele>401.0</ele><time>2026-04-02T07:25:20.833Z</time></trkpt><trkpt lat="41.8311217" lon="12.8802983"><ele>401.33333333333337</ele><time>2026-04-02T07:25:21.833Z</time></trkpt><trkpt lat="41.8311683" lon="12.8804617"><ele>401.6666666666667</ele><time>2026-04-02T07:25:23.83Z</time></trkpt><trkpt lat="41.8312" lon="12.8805633"><ele>402.0</ele><time>2026-04-02T07:25:24.835Z</time></trkpt><trkpt lat="41.831235" lon="12.880635"><ele>402.0</ele><time>2026-04-02T07:25:25.833Z</time></trkpt><trkpt lat="41.83127" lon="12.8807133"><ele>402.0</ele><time>2026-04-02T07:25:26.834Z</time></trkpt><trkpt lat="41.83133" lon="12.8808483"><ele>402.0</ele><time>2026-04-02T07:25:28.834Z</time></trkpt><trkpt lat="41.8313767" lon="12.8809667"><ele>402.0</ele><time>2026-04-02T07:25:30.833Z</time></trkpt><trkpt lat="41.8314083" lon="12.88105"><ele>402.0</ele><time>2026-04-02T07:25:33.832Z</time></trkpt><trkpt lat="41.8314333" lon="12.88114"><ele>402.0</ele><time>2026-04-02T07:25:37.835Z</time></trkpt><trkpt lat="41.8314717" lon="12.8812667"><ele>402.6</ele><time>2026-04-02T07:25:39.831Z</time></trkpt><trkpt lat="41.83152" lon="12.8813717"><ele>403.20000000000005</ele><time>2026-04-02T07:25:40.832Z</time></trkpt><trkpt lat="41.8315683" lon="12.881485"><ele>403.8</ele><time>2026-04-02T07:25:41.833Z</time></trkpt><trkpt lat="41.8316167" lon="12.8816067"><ele>404.4</ele><time>2026-04-02T07:25:42.833Z</time></trkpt><trkpt lat="41.831675" lon="12.8817417"><ele>405.0</ele><time>2026-04-02T07:25:43.833Z</time></trkpt><trkpt lat="41.8317367" lon="12.881885"><ele>405.75</ele><time>2026-04-02T07:25:44.833Z</time></trkpt><trkpt lat="41.8318" lon="12.88204"><ele>406.5</ele><time>2026-04-02T07:25:45.833Z</time></trkpt><trkpt lat="41.8318667" lon="12.8821867"><ele>407.25</ele><time>2026-04-02T07:25:46.83Z</time></trkpt><trkpt lat="41.8319367" lon="12.8823483"><ele>408.0</ele><time>2026-04-02T07:25:47.833Z</time></trkpt><trkpt lat="41.8320067" lon="12.8825117"><ele>408.75</ele><time>2026-04-02T07:25:48.833Z</time></trkpt><trkpt lat="41.8320767" lon="12.8826683"><ele>409.5</ele><time>2026-04-02T07:25:49.832Z</time></trkpt><trkpt lat="41.83214" lon="12.882825"><ele>410.25</ele><time>2026-04-02T07:25:50.832Z</time></trkpt><trkpt lat="41.8322017" lon="12.8829817"><ele>411.0</ele><time>2026-04-02T07:25:51.833Z</time></trkpt><trkpt lat="41.8322567" lon="12.883135"><ele>411.0</ele><time>2026-04-02T07:25:52.832Z</time></trkpt><trkpt lat="41.8323083" lon="12.88327"><ele>411.0</ele><time>2026-04-02T07:25:53.83Z</time></trkpt><trkpt lat="41.8323483" lon="12.8833933"><ele>411.0</ele><time>2026-04-02T07:25:54.83Z</time></trkpt><trkpt lat="41.832375" lon="12.88351"><ele>411.0</ele><time>2026-04-02T07:25:55.83Z</time></trkpt><trkpt lat="41.8324083" lon="12.883615"><ele>411.0</ele><time>2026-04-02T07:25:56.832Z</time></trkpt><trkpt lat="41.8324383" lon="12.88371"><ele>411.3333333333333</ele><time>2026-04-02T07:25:57.83Z</time></trkpt><trkpt lat="41.8324667" lon="12.8837933"><ele>411.66666666666663</ele><time>2026-04-02T07:25:58.83Z</time></trkpt><trkpt lat="41.832515" lon="12.8839433"><ele>412.0</ele><time>2026-04-02T07:26:00.832Z</time></trkpt><trkpt lat="41.8325333" lon="12.8840267"><ele>412.3333333333333</ele><time>2026-04-02T07:26:01.833Z</time></trkpt><trkpt lat="41.8325583" lon="12.884105"><ele>412.66666666666663</ele><time>2026-04-02T07:26:02.831Z</time></trkpt><trkpt lat="41.83261" lon="12.8842283"><ele>413.0</ele><time>2026-04-02T07:26:04.831Z</time></trkpt><trkpt lat="41.8326683" lon="12.88435"><ele>413.3333333333333</ele><time>2026-04-02T07:26:06.832Z</time></trkpt><trkpt lat="41.8326967" lon="12.8844267"><ele>413.66666666666663</ele><time>2026-04-02T07:26:07.832Z</time></trkpt><trkpt lat="41.8327217" lon="12.8845117"><ele>414.0</ele><time>2026-04-02T07:26:08.83Z</time></trkpt><trkpt lat="41.8327533" lon="12.8846"><ele>414.33333333333337</ele><time>2026-04-02T07:26:09.835Z</time></trkpt><trkpt lat="41.8327917" lon="12.8846967"><ele>414.6666666666667</ele><time>2026-04-02T07:26:10.831Z</time></trkpt><trkpt lat="41.83283" lon="12.8847967"><ele>415.0</ele><time>2026-04-02T07:26:11.831Z</time></trkpt><trkpt lat="41.8328683" lon="12.8848983"><ele>415.00000000000006</ele><time>2026-04-02T07:26:12.832Z</time></trkpt><trkpt lat="41.832905" lon="12.88501"><ele>415.0</ele><time>2026-04-02T07:26:13.831Z</time></trkpt><trkpt lat="41.83294" lon="12.8851217"><ele>415.0</ele><time>2026-04-02T07:26:14.831Z</time></trkpt><trkpt lat="41.8329783" lon="12.88522"><ele>415.0</ele><time>2026-04-02T07:26:15.833Z</time></trkpt><trkpt lat="41.833015" lon="12.8853117"><ele>415.00000000000006</ele><time>2026-04-02T07:26:16.833Z</time></trkpt><trkpt lat="41.8330483" lon="12.8853867"><ele>415.0</ele><time>2026-04-02T07:26:17.829Z</time></trkpt><trkpt lat="41.833085" lon="12.8854683"><ele>414.8571428571429</ele><time>2026-04-02T07:26:18.832Z</time></trkpt><trkpt lat="41.8331117" lon="12.8855617"><ele>414.7142857142857</ele><time>2026-04-02T07:26:19.832Z</time></trkpt><trkpt lat="41.83314" lon="12.8856633"><ele>414.57142857142856</ele><time>2026-04-02T07:26:20.832Z</time></trkpt><trkpt lat="41.8331683" lon="12.88576"><ele>414.42857142857144</ele><time>2026-04-02T07:26:21.832Z</time></trkpt><trkpt lat="41.8332" lon="12.8858417"><ele>414.2857142857143</ele><time>2026-04-02T07:26:22.832Z</time></trkpt><trkpt lat="41.8332267" lon="12.8859283"><ele>414.14285714285717</ele><time>2026-04-02T07:26:23.834Z</time></trkpt><trkpt lat="41.833245" lon="12.8860133"><ele>414.0</ele><time>2026-04-02T07:26:24.831Z</time></trkpt><trkpt lat="41.8332567" lon="12.8861083"><ele>414.3333333333333</ele><time>2026-04-02T07:26:25.832Z</time></trkpt><trkpt lat="41.833265" lon="12.8861933"><ele>414.66666666666663</ele><time>2026-04-02T07:26:26.834Z</time></trkpt><trkpt lat="41.8332817" lon="12.8863017"><ele>415.0</ele><time>2026-04-02T07:26:28.831Z</time></trkpt><trkpt lat="41.833295" lon="12.8863967"><ele>415.3333333333333</ele><time>2026-04-02T07:26:30.83Z</time></trkpt><trkpt lat="41.8333083" lon="12.8865217"><ele>415.66666666666663</ele><time>2026-04-02T07:26:32.832Z</time></trkpt><trkpt lat="41.833315" lon="12.8866233"><ele>416.0</ele><time>2026-04-02T07:26:34.831Z</time></trkpt><trkpt lat="41.8333167" lon="12.8867167"><ele>416.3333333333333</ele><time>2026-04-02T07:26:36.831Z</time></trkpt><trkpt lat="41.833315" lon="12.8868267"><ele>416.66666666666663</ele><time>2026-04-02T07:26:38.833Z</time></trkpt><trkpt lat="41.83334" lon="12.8869817"><ele>417.0</ele><time>2026-04-02T07:26:40.832Z</time></trkpt><trkpt lat="41.8333567" lon="12.8870633"><ele>417.33333333333337</ele><time>2026-04-02T07:26:41.833Z</time></trkpt><trkpt lat="41.83338" lon="12.8871433"><ele>417.6666666666667</ele><time>2026-04-02T07:26:42.833Z</time></trkpt><trkpt lat="41.8334033" lon="12.88723"><ele>418.0</ele><time>2026-04-02T07:26:43.832Z</time></trkpt><trkpt lat="41.8334267" lon="12.887325"><ele>418.00000000000006</ele><time>2026-04-02T07:26:44.835Z</time></trkpt><trkpt lat="41.833455" lon="12.8874117"><ele>418.0</ele><time>2026-04-02T07:26:45.834Z</time></trkpt><trkpt lat="41.8335" lon="12.88754"><ele>418.0</ele><time>2026-04-02T07:26:47.832Z</time></trkpt><trkpt lat="41.8335267" lon="12.887625"><ele>418.0</ele><time>2026-04-02T07:26:49.832Z</time></trkpt><trkpt lat="41.833545" lon="12.8877083"><ele>418.00000000000006</ele><time>2026-04-02T07:26:52.831Z</time></trkpt><trkpt lat="41.8335717" lon="12.887795"><ele>418.0</ele><time>2026-04-02T07:26:54.833Z</time></trkpt><trkpt lat="41.833635" lon="12.8878667"><ele>418.59999999999997</ele><time>2026-04-02T07:26:56.834Z</time></trkpt><trkpt lat="41.8337083" lon="12.8879283"><ele>419.2</ele><time>2026-04-02T07:26:58.832Z</time></trkpt><trkpt lat="41.8337617" lon="12.888045"><ele>419.8</ele><time>2026-04-02T07:27:00.83Z</time></trkpt><trkpt lat="41.8337917" lon="12.8882"><ele>420.4</ele><time>2026-04-02T07:27:02.831Z</time></trkpt><trkpt lat="41.8338183" lon="12.8883567"><ele>421.0</ele><time>2026-04-02T07:27:04.834Z</time></trkpt><trkpt lat="41.8338283" lon="12.8884417"><ele>421.00000000000006</ele><time>2026-04-02T07:27:05.834Z</time></trkpt><trkpt lat="41.83384" lon="12.88853"><ele>421.0</ele><time>2026-04-02T07:27:06.83Z</time></trkpt><trkpt lat="41.8338517" lon="12.8886283"><ele>421.0</ele><time>2026-04-02T07:27:07.834Z</time></trkpt><trkpt lat="41.833865" lon="12.8887333"><ele>421.0</ele><time>2026-04-02T07:27:08.832Z</time></trkpt><trkpt lat="41.8338817" lon="12.8888433"><ele>421.00000000000006</ele><time>2026-04-02T07:27:09.832Z</time></trkpt><trkpt lat="41.8338967" lon="12.88895"><ele>421.0</ele><time>2026-04-02T07:27:10.834Z</time></trkpt><trkpt lat="41.8339117" lon="12.88905"><ele>421.00000000000006</ele><time>2026-04-02T07:27:11.831Z</time></trkpt><trkpt lat="41.8339233" lon="12.8891533"><ele>421.0</ele><time>2026-04-02T07:27:12.832Z</time></trkpt><trkpt lat="41.833935" lon="12.8892633"><ele>421.0</ele><time>2026-04-02T07:27:13.833Z</time></trkpt><trkpt lat="41.8339467" lon="12.889375"><ele>421.0</ele><time>2026-04-02T07:27:14.835Z</time></trkpt><trkpt lat="41.833965" lon="12.8894883"><ele>421.00000000000006</ele><time>2026-04-02T07:27:15.831Z</time></trkpt><trkpt lat="41.8339867" lon="12.8896083"><ele>421.0</ele><time>2026-04-02T07:27:16.833Z</time></trkpt><trkpt lat="41.8340083" lon="12.88974"><ele>420.8</ele><time>2026-04-02T07:27:17.833Z</time></trkpt><trkpt lat="41.8340133" lon="12.889885"><ele>420.6</ele><time>2026-04-02T07:27:18.832Z</time></trkpt><trkpt lat="41.8340083" lon="12.890025"><ele>420.4</ele><time>2026-04-02T07:27:19.832Z</time></trkpt><trkpt lat="41.834" lon="12.8901717"><ele>420.2</ele><time>2026-04-02T07:27:20.83Z</time></trkpt><trkpt lat="41.8339917" lon="12.8903217"><ele>420.0</ele><time>2026-04-02T07:27:21.832Z</time></trkpt><trkpt lat="41.83399" lon="12.8904717"><ele>420.0</ele><time>2026-04-02T07:27:22.833Z</time></trkpt><trkpt lat="41.833995" lon="12.89063"><ele>420.0</ele><time>2026-04-02T07:27:23.832Z</time></trkpt><trkpt lat="41.834" lon="12.8907917"><ele>420.0</ele><time>2026-04-02T07:27:24.832Z</time></trkpt><trkpt lat="41.8340033" lon="12.89095"><ele>420.0</ele><time>2026-04-02T07:27:25.832Z</time></trkpt><trkpt lat="41.834005" lon="12.8911017"><ele>420.0</ele><time>2026-04-02T07:27:26.833Z</time></trkpt><trkpt lat="41.834005" lon="12.8912567"><ele>420.0</ele><time>2026-04-02T07:27:27.831Z</time></trkpt><trkpt lat="41.8339967" lon="12.8914167"><ele>420.0</ele><time>2026-04-02T07:27:28.832Z</time></trkpt><trkpt lat="41.83398" lon="12.8915783"><ele>420.0</ele><time>2026-04-02T07:27:29.832Z</time></trkpt><trkpt lat="41.8339567" lon="12.8917317"><ele>420.8</ele><time>2026-04-02T07:27:30.832Z</time></trkpt><trkpt lat="41.8339333" lon="12.89188"><ele>421.6</ele><time>2026-04-02T07:27:31.831Z</time></trkpt><trkpt lat="41.8339083" lon="12.8920217"><ele>422.4</ele><time>2026-04-02T07:27:32.832Z</time></trkpt><trkpt lat="41.833885" lon="12.892165"><ele>423.2</ele><time>2026-04-02T07:27:33.832Z</time></trkpt><trkpt lat="41.8338567" lon="12.8923033"><ele>424.0</ele><time>2026-04-02T07:27:34.841Z</time></trkpt><trkpt lat="41.8338267" lon="12.892435"><ele>424.0</ele><time>2026-04-02T07:27:35.828Z</time></trkpt><trkpt lat="41.8337967" lon="12.8925333"><ele>424.0</ele><time>2026-04-02T07:27:36.832Z</time></trkpt><trkpt lat="41.833755" lon="12.892675"><ele>424.0</ele><time>2026-04-02T07:27:38.832Z</time></trkpt><trkpt lat="41.833715" lon="12.8928183"><ele>424.0</ele><time>2026-04-02T07:27:40.832Z</time></trkpt><trkpt lat="41.8336717" lon="12.8929633"><ele>424.0</ele><time>2026-04-02T07:27:42.828Z</time></trkpt><trkpt lat="41.8336517" lon="12.8930467"><ele>425.0</ele><time>2026-04-02T07:27:43.832Z</time></trkpt><trkpt lat="41.8336333" lon="12.8931483"><ele>426.0</ele><time>2026-04-02T07:27:44.833Z</time></trkpt><trkpt lat="41.8336183" lon="12.8932617"><ele>427.0</ele><time>2026-04-02T07:27:45.832Z</time></trkpt><trkpt lat="41.8336233" lon="12.8934033"><ele>428.0</ele><time>2026-04-02T07:27:46.83Z</time></trkpt><trkpt lat="41.833625" lon="12.8935567"><ele>429.0</ele><time>2026-04-02T07:27:47.832Z</time></trkpt><trkpt lat="41.8336233" lon="12.8937117"><ele>429.0</ele><time>2026-04-02T07:27:48.829Z</time></trkpt><trkpt lat="41.8336233" lon="12.8938867"><ele>429.0</ele><time>2026-04-02T07:27:49.829Z</time></trkpt><trkpt lat="41.8336267" lon="12.8940667"><ele>429.0</ele><time>2026-04-02T07:27:50.83Z</time></trkpt><trkpt lat="41.83364" lon="12.89424"><ele>429.0</ele><time>2026-04-02T07:27:51.829Z</time></trkpt><trkpt lat="41.8336717" lon="12.8944017"><ele>428.4</ele><time>2026-04-02T07:27:52.829Z</time></trkpt><trkpt lat="41.8337083" lon="12.8945417"><ele>427.79999999999995</ele><time>2026-04-02T07:27:53.831Z</time></trkpt><trkpt lat="41.83374" lon="12.8946633"><ele>427.20000000000005</ele><time>2026-04-02T07:27:54.832Z</time></trkpt><trkpt lat="41.8337683" lon="12.8947767"><ele>426.6</ele><time>2026-04-02T07:27:55.831Z</time></trkpt><trkpt lat="41.8338" lon="12.8948833"><ele>426.0</ele><time>2026-04-02T07:27:56.831Z</time></trkpt><trkpt lat="41.8338317" lon="12.89499"><ele>424.20000000000005</ele><time>2026-04-02T07:27:57.831Z</time></trkpt><trkpt lat="41.8338667" lon="12.8951067"><ele>422.40000000000003</ele><time>2026-04-02T07:27:58.83Z</time></trkpt><trkpt lat="41.8339133" lon="12.8952233"><ele>420.6</ele><time>2026-04-02T07:27:59.831Z</time></trkpt><trkpt lat="41.8339667" lon="12.8953383"><ele>418.8</ele><time>2026-04-02T07:28:00.833Z</time></trkpt><trkpt lat="41.8340233" lon="12.8954633"><ele>417.0</ele><time>2026-04-02T07:28:01.835Z</time></trkpt><trkpt lat="41.8340817" lon="12.8955917"><ele>417.0</ele><time>2026-04-02T07:28:02.834Z</time></trkpt><trkpt lat="41.83414" lon="12.89572"><ele>417.0</ele><time>2026-04-02T07:28:03.831Z</time></trkpt><trkpt lat="41.8341883" lon="12.8958433"><ele>417.0</ele><time>2026-04-02T07:28:04.831Z</time></trkpt><trkpt lat="41.8342367" lon="12.8959633"><ele>417.0</ele><time>2026-04-02T07:28:05.834Z</time></trkpt><trkpt lat="41.8342817" lon="12.8960783"><ele>417.0</ele><time>2026-04-02T07:28:06.835Z</time></trkpt><trkpt lat="41.834325" lon="12.896195"><ele>418.6</ele><time>2026-04-02T07:28:07.834Z</time></trkpt><trkpt lat="41.83436" lon="12.896315"><ele>420.20000000000005</ele><time>2026-04-02T07:28:08.833Z</time></trkpt><trkpt lat="41.8343883" lon="12.8964483"><ele>421.8</ele><time>2026-04-02T07:28:09.832Z</time></trkpt><trkpt lat="41.834405" lon="12.896595"><ele>423.4</ele><time>2026-04-02T07:28:10.833Z</time></trkpt><trkpt lat="41.834405" lon="12.89674"><ele>425.0</ele><time>2026-04-02T07:28:11.834Z</time></trkpt><trkpt lat="41.8343867" lon="12.896875"><ele>425.0</ele><time>2026-04-02T07:28:12.833Z</time></trkpt><trkpt lat="41.8343433" lon="12.8970033"><ele>425.0</ele><time>2026-04-02T07:28:13.834Z</time></trkpt><trkpt lat="41.8342867" lon="12.897115"><ele>425.0</ele><time>2026-04-02T07:28:14.834Z</time></trkpt><trkpt lat="41.8342267" lon="12.89722"><ele>425.0</ele><time>2026-04-02T07:28:15.834Z</time></trkpt><trkpt lat="41.8341583" lon="12.8973183"><ele>425.0</ele><time>2026-04-02T07:28:16.833Z</time></trkpt><trkpt lat="41.8340667" lon="12.8973983"><ele>423.25</ele><time>2026-04-02T07:28:17.833Z</time></trkpt><trkpt lat="41.83396" lon="12.89747"><ele>421.5</ele><time>2026-04-02T07:28:18.829Z</time></trkpt><trkpt lat="41.83384" lon="12.897535"><ele>419.75</ele><time>2026-04-02T07:28:19.83Z</time></trkpt><trkpt lat="41.8337017" lon="12.8975983"><ele>418.0</ele><time>2026-04-02T07:28:20.832Z</time></trkpt><trkpt lat="41.8335567" lon="12.8976583"><ele>419.0</ele><time>2026-04-02T07:28:21.833Z</time></trkpt><trkpt lat="41.8334283" lon="12.8977117"><ele>420.0</ele><time>2026-04-02T07:28:22.832Z</time></trkpt><trkpt lat="41.8333183" lon="12.897755"><ele>421.0</ele><time>2026-04-02T07:28:23.831Z</time></trkpt><trkpt lat="41.8332217" lon="12.8977983"><ele>422.0</ele><time>2026-04-02T07:28:24.83Z</time></trkpt><trkpt lat="41.8331267" lon="12.89785"><ele>422.0</ele><time>2026-04-02T07:28:25.83Z</time></trkpt><trkpt lat="41.8330333" lon="12.8979183"><ele>422.0</ele><time>2026-04-02T07:28:26.832Z</time></trkpt><trkpt lat="41.8329417" lon="12.898"><ele>422.0</ele><time>2026-04-02T07:28:27.829Z</time></trkpt><trkpt lat="41.832855" lon="12.8980867"><ele>422.0</ele><time>2026-04-02T07:28:28.83Z</time></trkpt><trkpt lat="41.83278" lon="12.8981833"><ele>422.0</ele><time>2026-04-02T07:28:29.832Z</time></trkpt><trkpt lat="41.8327033" lon="12.8982883"><ele>421.5</ele><time>2026-04-02T07:28:30.833Z</time></trkpt><trkpt lat="41.8326283" lon="12.89841"><ele>421.0</ele><time>2026-04-02T07:28:31.833Z</time></trkpt><trkpt lat="41.8325467" lon="12.8985283"><ele>420.5</ele><time>2026-04-02T07:28:32.833Z</time></trkpt><trkpt lat="41.832465" lon="12.89865"><ele>420.0</ele><time>2026-04-02T07:28:33.834Z</time></trkpt><trkpt lat="41.83238" lon="12.8987883"><ele>422.0</ele><time>2026-04-02T07:28:34.834Z</time></trkpt><trkpt lat="41.8322767" lon="12.8989467"><ele>424.0</ele><time>2026-04-02T07:28:35.833Z</time></trkpt><trkpt lat="41.83216" lon="12.8991167"><ele>426.0</ele><time>2026-04-02T07:28:36.833Z</time></trkpt><trkpt lat="41.8320383" lon="12.89928"><ele>425.33333333333337</ele><time>2026-04-02T07:28:37.833Z</time></trkpt><trkpt lat="41.831915" lon="12.8994533"><ele>424.6666666666667</ele><time>2026-04-02T07:28:38.834Z</time></trkpt><trkpt lat="41.8317917" lon="12.8996217"><ele>424.0</ele><time>2026-04-02T07:28:39.833Z</time></trkpt><trkpt lat="41.83167" lon="12.8997733"><ele>424.0</ele><time>2026-04-02T07:28:40.834Z</time></trkpt><trkpt lat="41.831545" lon="12.8999117"><ele>424.0</ele><time>2026-04-02T07:28:41.833Z</time></trkpt><trkpt lat="41.831415" lon="12.9000433"><ele>424.0</ele><time>2026-04-02T07:28:42.83Z</time></trkpt><trkpt lat="41.83129" lon="12.90018"><ele>425.33333333333337</ele><time>2026-04-02T07:28:43.834Z</time></trkpt><trkpt lat="41.8311717" lon="12.9003183"><ele>426.66666666666663</ele><time>2026-04-02T07:28:44.833Z</time></trkpt><trkpt lat="41.8310567" lon="12.90047"><ele>428.0</ele><time>2026-04-02T07:28:45.832Z</time></trkpt><trkpt lat="41.8309467" lon="12.900635"><ele>428.0</ele><time>2026-04-02T07:28:46.834Z</time></trkpt><trkpt lat="41.8308433" lon="12.9008133"><ele>428.0</ele><time>2026-04-02T07:28:47.831Z</time></trkpt><trkpt lat="41.8307433" lon="12.9009967"><ele>428.0</ele><time>2026-04-02T07:28:48.831Z</time></trkpt><trkpt lat="41.830645" lon="12.901185"><ele>428.66666666666663</ele><time>2026-04-02T07:28:49.831Z</time></trkpt><trkpt lat="41.83054" lon="12.901375"><ele>429.33333333333337</ele><time>2026-04-02T07:28:50.831Z</time></trkpt><trkpt lat="41.83044" lon="12.9015683"><ele>430.0</ele><time>2026-04-02T07:28:51.831Z</time></trkpt><trkpt lat="41.83034" lon="12.9017683"><ele>430.33333333333337</ele><time>2026-04-02T07:28:52.832Z</time></trkpt><trkpt lat="41.83024" lon="12.90198"><ele>430.66666666666663</ele><time>2026-04-02T07:28:53.833Z</time></trkpt><trkpt lat="41.83015" lon="12.9022083"><ele>431.0</ele><time>2026-04-02T07:28:54.833Z</time></trkpt><trkpt lat="41.8300717" lon="12.9024567"><ele>428.0</ele><time>2026-04-02T07:28:55.832Z</time></trkpt><trkpt lat="41.8300183" lon="12.902715"><ele>425.0</ele><time>2026-04-02T07:28:56.831Z</time></trkpt><trkpt lat="41.8299767" lon="12.90298"><ele>422.0</ele><time>2026-04-02T07:28:57.832Z</time></trkpt><trkpt lat="41.8299317" lon="12.9032333"><ele>420.66666666666663</ele><time>2026-04-02T07:28:58.831Z</time></trkpt><trkpt lat="41.8298933" lon="12.90348"><ele>419.33333333333337</ele><time>2026-04-02T07:28:59.834Z</time></trkpt><trkpt lat="41.829865" lon="12.9037067"><ele>418.0</ele><time>2026-04-02T07:29:00.83Z</time></trkpt><trkpt lat="41.829835" lon="12.903905"><ele>418.0</ele><time>2026-04-02T07:29:01.831Z</time></trkpt><trkpt lat="41.82981" lon="12.9040817"><ele>418.0</ele><time>2026-04-02T07:29:02.83Z</time></trkpt><trkpt lat="41.8298117" lon="12.9042483"><ele>418.0</ele><time>2026-04-02T07:29:03.832Z</time></trkpt><trkpt lat="41.8298383" lon="12.904415"><ele>418.0</ele><time>2026-04-02T07:29:04.83Z</time></trkpt><trkpt lat="41.829895" lon="12.9045733"><ele>417.75</ele><time>2026-04-02T07:29:05.831Z</time></trkpt><trkpt lat="41.8299867" lon="12.9047183"><ele>417.5</ele><time>2026-04-02T07:29:06.834Z</time></trkpt><trkpt lat="41.8300867" lon="12.9048433"><ele>417.25</ele><time>2026-04-02T07:29:07.834Z</time></trkpt><trkpt lat="41.8301867" lon="12.904955"><ele>417.0</ele><time>2026-04-02T07:29:08.834Z</time></trkpt><trkpt lat="41.8302717" lon="12.9050717"><ele>417.5</ele><time>2026-04-02T07:29:09.83Z</time></trkpt><trkpt lat="41.8303417" lon="12.9051983"><ele>418.0</ele><time>2026-04-02T07:29:10.83Z</time></trkpt><trkpt lat="41.830395" lon="12.9053467"><ele>418.5</ele><time>2026-04-02T07:29:11.832Z</time></trkpt><trkpt lat="41.83043" lon="12.9055233"><ele>419.0</ele><time>2026-04-02T07:29:12.831Z</time></trkpt><trkpt lat="41.8304467" lon="12.9057167"><ele>418.75</ele><time>2026-04-02T07:29:13.833Z</time></trkpt><trkpt lat="41.8304433" lon="12.905915"><ele>418.5</ele><time>2026-04-02T07:29:14.833Z</time></trkpt><trkpt lat="41.8304233" lon="12.906115"><ele>418.25</ele><time>2026-04-02T07:29:15.834Z</time></trkpt><trkpt lat="41.83039" lon="12.906305"><ele>418.0</ele><time>2026-04-02T07:29:16.833Z</time></trkpt><trkpt lat="41.8303333" lon="12.9064817"><ele>418.0</ele><time>2026-04-02T07:29:17.831Z</time></trkpt><trkpt lat="41.8302483" lon="12.9066467"><ele>418.0</ele><time>2026-04-02T07:29:18.833Z</time></trkpt><trkpt lat="41.8301383" lon="12.9068"><ele>418.0</ele><time>2026-04-02T07:29:19.831Z</time></trkpt><trkpt lat="41.83001" lon="12.9069417"><ele>413.0</ele><time>2026-04-02T07:29:20.832Z</time></trkpt><trkpt lat="41.829865" lon="12.90708"><ele>408.0</ele><time>2026-04-02T07:29:21.832Z</time></trkpt><trkpt lat="41.8297067" lon="12.9072283"><ele>403.0</ele><time>2026-04-02T07:29:22.831Z</time></trkpt><trkpt lat="41.8295317" lon="12.9073867"><ele>403.0</ele><time>2026-04-02T07:29:23.833Z</time></trkpt><trkpt lat="41.8293533" lon="12.9075433"><ele>403.0</ele><time>2026-04-02T07:29:24.833Z</time></trkpt><trkpt lat="41.82915" lon="12.9076767"><ele>403.0</ele><time>2026-04-02T07:29:25.834Z</time></trkpt><trkpt lat="41.8289383" lon="12.9077933"><ele>407.0</ele><time>2026-04-02T07:29:26.835Z</time></trkpt><trkpt lat="41.8287433" lon="12.9079067"><ele>411.0</ele><time>2026-04-02T07:29:27.832Z</time></trkpt><trkpt lat="41.8285617" lon="12.90803"><ele>415.0</ele><time>2026-04-02T07:29:28.834Z</time></trkpt><trkpt lat="41.8283917" lon="12.9081667"><ele>415.0</ele><time>2026-04-02T07:29:29.834Z</time></trkpt><trkpt lat="41.828235" lon="12.908305"><ele>415.0</ele><time>2026-04-02T07:29:30.835Z</time></trkpt><trkpt lat="41.828095" lon="12.9084317"><ele>415.0</ele><time>2026-04-02T07:29:31.833Z</time></trkpt><trkpt lat="41.82796" lon="12.90855"><ele>416.0</ele><time>2026-04-02T07:29:32.832Z</time></trkpt><trkpt lat="41.8278283" lon="12.9086617"><ele>417.0</ele><time>2026-04-02T07:29:33.832Z</time></trkpt><trkpt lat="41.8277117" lon="12.90877"><ele>418.0</ele><time>2026-04-02T07:29:34.83Z</time></trkpt><trkpt lat="41.82761" lon="12.9088767"><ele>419.0</ele><time>2026-04-02T07:29:35.833Z</time></trkpt><trkpt lat="41.8275233" lon="12.90898"><ele>419.0</ele><time>2026-04-02T07:29:36.833Z</time></trkpt><trkpt lat="41.8274617" lon="12.9091017"><ele>419.0</ele><time>2026-04-02T07:29:37.834Z</time></trkpt><trkpt lat="41.827425" lon="12.90924"><ele>419.0</ele><time>2026-04-02T07:29:38.835Z</time></trkpt><trkpt lat="41.827405" lon="12.90939"><ele>419.0</ele><time>2026-04-02T07:29:39.834Z</time></trkpt><trkpt lat="41.8273917" lon="12.9095367"><ele>419.0</ele><time>2026-04-02T07:29:40.835Z</time></trkpt><trkpt lat="41.8273883" lon="12.909675"><ele>418.6</ele><time>2026-04-02T07:29:41.833Z</time></trkpt><trkpt lat="41.8273867" lon="12.9098183"><ele>418.2</ele><time>2026-04-02T07:29:42.834Z</time></trkpt><trkpt lat="41.8273817" lon="12.90997"><ele>417.8</ele><time>2026-04-02T07:29:43.834Z</time></trkpt><trkpt lat="41.8273767" lon="12.91012"><ele>417.40000000000003</ele><time>2026-04-02T07:29:44.833Z</time></trkpt><trkpt lat="41.8273717" lon="12.91027"><ele>417.0</ele><time>2026-04-02T07:29:45.831Z</time></trkpt><trkpt lat="41.8273633" lon="12.9104133"><ele>417.0</ele><time>2026-04-02T07:29:46.832Z</time></trkpt><trkpt lat="41.827355" lon="12.9105567"><ele>417.0</ele><time>2026-04-02T07:29:47.832Z</time></trkpt><trkpt lat="41.8273433" lon="12.9106967"><ele>417.0</ele><time>2026-04-02T07:29:48.834Z</time></trkpt><trkpt lat="41.827325" lon="12.9108433"><ele>417.0</ele><time>2026-04-02T07:29:49.833Z</time></trkpt><trkpt lat="41.827295" lon="12.9110033"><ele>417.0</ele><time>2026-04-02T07:29:50.832Z</time></trkpt><trkpt lat="41.827255" lon="12.9111783"><ele>417.5</ele><time>2026-04-02T07:29:51.831Z</time></trkpt><trkpt lat="41.8272133" lon="12.911355"><ele>418.0</ele><time>2026-04-02T07:29:52.832Z</time></trkpt><trkpt lat="41.82717" lon="12.9115233"><ele>418.5</ele><time>2026-04-02T07:29:53.831Z</time></trkpt><trkpt lat="41.8271283" lon="12.9116817"><ele>419.0</ele><time>2026-04-02T07:29:54.83Z</time></trkpt><trkpt lat="41.827095" lon="12.911825"><ele>418.0</ele><time>2026-04-02T07:29:55.833Z</time></trkpt><trkpt lat="41.8270783" lon="12.9119633"><ele>417.0</ele><time>2026-04-02T07:29:56.833Z</time></trkpt><trkpt lat="41.8270783" lon="12.9120917"><ele>416.0</ele><time>2026-04-02T07:29:57.833Z</time></trkpt><trkpt lat="41.82709" lon="12.912215"><ele>415.0</ele><time>2026-04-02T07:29:58.832Z</time></trkpt><trkpt lat="41.82713" lon="12.912325"><ele>414.0</ele><time>2026-04-02T07:29:59.833Z</time></trkpt><trkpt lat="41.82718" lon="12.9124267"><ele>414.0</ele><time>2026-04-02T07:30:00.834Z</time></trkpt><trkpt lat="41.82724" lon="12.91251"><ele>414.0</ele><time>2026-04-02T07:30:01.83Z</time></trkpt><trkpt lat="41.8273017" lon="12.9125867"><ele>414.0</ele><time>2026-04-02T07:30:02.833Z</time></trkpt><trkpt lat="41.8273617" lon="12.9126683"><ele>414.0</ele><time>2026-04-02T07:30:03.831Z</time></trkpt><trkpt lat="41.827415" lon="12.912765"><ele>414.0</ele><time>2026-04-02T07:30:04.832Z</time></trkpt><trkpt lat="41.8274567" lon="12.9128867"><ele>414.0</ele><time>2026-04-02T07:30:05.832Z</time></trkpt><trkpt lat="41.8274767" lon="12.9130217"><ele>413.6</ele><time>2026-04-02T07:30:06.833Z</time></trkpt><trkpt lat="41.8274767" lon="12.9131517"><ele>413.2</ele><time>2026-04-02T07:30:07.833Z</time></trkpt><trkpt lat="41.8274517" lon="12.9132717"><ele>412.8</ele><time>2026-04-02T07:30:08.832Z</time></trkpt><trkpt lat="41.8274" lon="12.9133733"><ele>412.40000000000003</ele><time>2026-04-02T07:30:09.833Z</time></trkpt><trkpt lat="41.827335" lon="12.9134517"><ele>412.0</ele><time>2026-04-02T07:30:10.832Z</time></trkpt><trkpt lat="41.8272433" lon="12.9135033"><ele>412.0</ele><time>2026-04-02T07:30:11.833Z</time></trkpt><trkpt lat="41.8271317" lon="12.9135267"><ele>412.0</ele><time>2026-04-02T07:30:12.834Z</time></trkpt><trkpt lat="41.8270217" lon="12.9135317"><ele>412.0</ele><time>2026-04-02T07:30:13.835Z</time></trkpt><trkpt lat="41.826915" lon="12.9135183"><ele>412.0</ele><time>2026-04-02T07:30:14.83Z</time></trkpt><trkpt lat="41.8268" lon="12.9135117"><ele>412.0</ele><time>2026-04-02T07:30:15.833Z</time></trkpt><trkpt lat="41.8266867" lon="12.9135117"><ele>412.0</ele><time>2026-04-02T07:30:16.834Z</time></trkpt><trkpt lat="41.8265733" lon="12.9135367"><ele>412.0</ele><time>2026-04-02T07:30:17.834Z</time></trkpt><trkpt lat="41.8264633" lon="12.9135683"><ele>412.0</ele><time>2026-04-02T07:30:18.835Z</time></trkpt><trkpt lat="41.82635" lon="12.9136117"><ele>412.0</ele><time>2026-04-02T07:30:19.833Z</time></trkpt><trkpt lat="41.82624" lon="12.9136733"><ele>412.0</ele><time>2026-04-02T07:30:20.834Z</time></trkpt><trkpt lat="41.8261333" lon="12.9137567"><ele>412.0</ele><time>2026-04-02T07:30:21.832Z</time></trkpt><trkpt lat="41.8260417" lon="12.9138567"><ele>412.0</ele><time>2026-04-02T07:30:22.831Z</time></trkpt><trkpt lat="41.8259517" lon="12.9139767"><ele>412.0</ele><time>2026-04-02T07:30:23.831Z</time></trkpt><trkpt lat="41.8258683" lon="12.9141133"><ele>410.25</ele><time>2026-04-02T07:30:24.832Z</time></trkpt><trkpt lat="41.82579" lon="12.91426"><ele>408.5</ele><time>2026-04-02T07:30:25.833Z</time></trkpt><trkpt lat="41.82571" lon="12.9144083"><ele>406.75</ele><time>2026-04-02T07:30:26.834Z</time></trkpt><trkpt lat="41.8256367" lon="12.9145683"><ele>405.0</ele><time>2026-04-02T07:30:27.833Z</time></trkpt><trkpt lat="41.8255533" lon="12.9147667"><ele>405.0</ele><time>2026-04-02T07:30:28.831Z</time></trkpt><trkpt lat="41.8254717" lon="12.9149983"><ele>405.0</ele><time>2026-04-02T07:30:29.832Z</time></trkpt><trkpt lat="41.8253933" lon="12.9152533"><ele>405.0</ele><time>2026-04-02T07:30:30.833Z</time></trkpt><trkpt lat="41.825315" lon="12.9155067"><ele>406.0</ele><time>2026-04-02T07:30:31.832Z</time></trkpt><trkpt lat="41.825245" lon="12.9157533"><ele>407.0</ele><time>2026-04-02T07:30:32.832Z</time></trkpt><trkpt lat="41.8251817" lon="12.915985"><ele>408.0</ele><time>2026-04-02T07:30:33.833Z</time></trkpt><trkpt lat="41.82513" lon="12.9162017"><ele>402.25</ele><time>2026-04-02T07:30:34.83Z</time></trkpt><trkpt lat="41.8250917" lon="12.9164033"><ele>396.5</ele><time>2026-04-02T07:30:35.832Z</time></trkpt><trkpt lat="41.82506" lon="12.91659"><ele>390.75</ele><time>2026-04-02T07:30:36.832Z</time></trkpt><trkpt lat="41.8250417" lon="12.9167617"><ele>385.0</ele><time>2026-04-02T07:30:37.832Z</time></trkpt><trkpt lat="41.82504" lon="12.9169217"><ele>383.25</ele><time>2026-04-02T07:30:38.833Z</time></trkpt><trkpt lat="41.8250633" lon="12.9170767"><ele>381.5</ele><time>2026-04-02T07:30:39.832Z</time></trkpt><trkpt lat="41.8251233" lon="12.91723"><ele>379.75</ele><time>2026-04-02T07:30:40.831Z</time></trkpt><trkpt lat="41.8251983" lon="12.9173783"><ele>378.0</ele><time>2026-04-02T07:30:41.83Z</time></trkpt><trkpt lat="41.825275" lon="12.917505"><ele>381.0</ele><time>2026-04-02T07:30:42.831Z</time></trkpt><trkpt lat="41.82534" lon="12.9176217"><ele>384.0</ele><time>2026-04-02T07:30:43.835Z</time></trkpt><trkpt lat="41.82538" lon="12.91774"><ele>387.0</ele><time>2026-04-02T07:30:44.83Z</time></trkpt><trkpt lat="41.825395" lon="12.917875"><ele>390.0</ele><time>2026-04-02T07:30:45.832Z</time></trkpt><trkpt lat="41.82537" lon="12.918015"><ele>393.0</ele><time>2026-04-02T07:30:46.834Z</time></trkpt><trkpt lat="41.8253083" lon="12.918155"><ele>393.0</ele><time>2026-04-02T07:30:47.831Z</time></trkpt><trkpt lat="41.825225" lon="12.918265"><ele>393.0</ele><time>2026-04-02T07:30:48.833Z</time></trkpt><trkpt lat="41.8251217" lon="12.9183317"><ele>393.0</ele><time>2026-04-02T07:30:49.834Z</time></trkpt><trkpt lat="41.82501" lon="12.9183667"><ele>393.0</ele><time>2026-04-02T07:30:50.833Z</time></trkpt><trkpt lat="41.8248967" lon="12.918385"><ele>391.0</ele><time>2026-04-02T07:30:51.833Z</time></trkpt><trkpt lat="41.82478" lon="12.9183983"><ele>389.0</ele><time>2026-04-02T07:30:52.832Z</time></trkpt><trkpt lat="41.8246633" lon="12.91841"><ele>387.0</ele><time>2026-04-02T07:30:53.829Z</time></trkpt><trkpt lat="41.8245433" lon="12.91844"><ele>385.0</ele><time>2026-04-02T07:30:54.83Z</time></trkpt><trkpt lat="41.8244233" lon="12.9184917"><ele>385.75</ele><time>2026-04-02T07:30:55.833Z</time></trkpt><trkpt lat="41.824305" lon="12.91856"><ele>386.5</ele><time>2026-04-02T07:30:56.831Z</time></trkpt><trkpt lat="41.8241983" lon="12.91868"><ele>387.25</ele><time>2026-04-02T07:30:57.833Z</time></trkpt><trkpt lat="41.8240917" lon="12.9188367"><ele>388.0</ele><time>2026-04-02T07:30:58.831Z</time></trkpt><trkpt lat="41.823975" lon="12.9190233"><ele>388.0</ele><time>2026-04-02T07:30:59.832Z</time></trkpt><trkpt lat="41.8238583" lon="12.9192133"><ele>388.0</ele><time>2026-04-02T07:31:00.833Z</time></trkpt><trkpt lat="41.8237517" lon="12.9193733"><ele>388.0</ele><time>2026-04-02T07:31:01.832Z</time></trkpt><trkpt lat="41.8236633" lon="12.91952"><ele>385.75</ele><time>2026-04-02T07:31:02.833Z</time></trkpt><trkpt lat="41.8235767" lon="12.919665"><ele>383.5</ele><time>2026-04-02T07:31:03.831Z</time></trkpt><trkpt lat="41.8234917" lon="12.9198117"><ele>381.25</ele><time>2026-04-02T07:31:04.831Z</time></trkpt><trkpt lat="41.82342" lon="12.9199983"><ele>379.0</ele><time>2026-04-02T07:31:05.831Z</time></trkpt><trkpt lat="41.823345" lon="12.920215"><ele>379.0</ele><time>2026-04-02T07:31:06.832Z</time></trkpt><trkpt lat="41.823255" lon="12.9204417"><ele>379.0</ele><time>2026-04-02T07:31:07.832Z</time></trkpt><trkpt lat="41.8231583" lon="12.920675"><ele>379.0</ele><time>2026-04-02T07:31:08.831Z</time></trkpt><trkpt lat="41.823055" lon="12.9209167"><ele>382.3333333333333</ele><time>2026-04-02T07:31:09.831Z</time></trkpt><trkpt lat="41.82296" lon="12.9211633"><ele>385.66666666666663</ele><time>2026-04-02T07:31:10.831Z</time></trkpt><trkpt lat="41.822875" lon="12.9214017"><ele>389.0</ele><time>2026-04-02T07:31:11.832Z</time></trkpt><trkpt lat="41.8227983" lon="12.921635"><ele>389.3333333333333</ele><time>2026-04-02T07:31:12.833Z</time></trkpt><trkpt lat="41.8227317" lon="12.921865"><ele>389.66666666666663</ele><time>2026-04-02T07:31:13.833Z</time></trkpt><trkpt lat="41.8226883" lon="12.9221083"><ele>390.0</ele><time>2026-04-02T07:31:14.829Z</time></trkpt><trkpt lat="41.8226683" lon="12.9223583"><ele>382.6666666666667</ele><time>2026-04-02T07:31:15.832Z</time></trkpt><trkpt lat="41.8226567" lon="12.9225917"><ele>375.33333333333337</ele><time>2026-04-02T07:31:16.832Z</time></trkpt><trkpt lat="41.822665" lon="12.9228017"><ele>368.0</ele><time>2026-04-02T07:31:17.83Z</time></trkpt><trkpt lat="41.8226883" lon="12.9229867"><ele>368.0</ele><time>2026-04-02T07:31:18.832Z</time></trkpt><trkpt lat="41.82274" lon="12.9231533"><ele>368.0</ele><time>2026-04-02T07:31:19.832Z</time></trkpt><trkpt lat="41.8228267" lon="12.9233017"><ele>368.0</ele><time>2026-04-02T07:31:20.832Z</time></trkpt><trkpt lat="41.8229433" lon="12.92342"><ele>368.0</ele><time>2026-04-02T07:31:21.831Z</time></trkpt><trkpt lat="41.8230967" lon="12.923495"><ele>360.33333333333337</ele><time>2026-04-02T07:31:22.831Z</time></trkpt><trkpt lat="41.8232767" lon="12.923535"><ele>352.6666666666667</ele><time>2026-04-02T07:31:23.833Z</time></trkpt><trkpt lat="41.82345" lon="12.9235383"><ele>345.0</ele><time>2026-04-02T07:31:24.832Z</time></trkpt><trkpt lat="41.8236083" lon="12.9235483"><ele>345.0</ele><time>2026-04-02T07:31:25.832Z</time></trkpt><trkpt lat="41.8237483" lon="12.9235883"><ele>345.0</ele><time>2026-04-02T07:31:26.831Z</time></trkpt><trkpt lat="41.8238767" lon="12.9236683"><ele>345.0</ele><time>2026-04-02T07:31:27.833Z</time></trkpt><trkpt lat="41.8240017" lon="12.9237867"><ele>345.0</ele><time>2026-04-02T07:31:28.831Z</time></trkpt><trkpt lat="41.8241283" lon="12.9238967"><ele>345.0</ele><time>2026-04-02T07:31:29.831Z</time></trkpt><trkpt lat="41.824255" lon="12.9239633"><ele>345.0</ele><time>2026-04-02T07:31:30.833Z</time></trkpt><trkpt lat="41.824375" lon="12.923995"><ele>345.0</ele><time>2026-04-02T07:31:31.831Z</time></trkpt><trkpt lat="41.8244883" lon="12.923965"><ele>345.0</ele><time>2026-04-02T07:31:32.832Z</time></trkpt><trkpt lat="41.8245933" lon="12.9238833"><ele>345.75</ele><time>2026-04-02T07:31:33.832Z</time></trkpt><trkpt lat="41.8246867" lon="12.9237983"><ele>346.5</ele><time>2026-04-02T07:31:34.833Z</time></trkpt><trkpt lat="41.8247883" lon="12.92375"><ele>347.25</ele><time>2026-04-02T07:31:35.832Z</time></trkpt><trkpt lat="41.8249117" lon="12.9237483"><ele>348.0</ele><time>2026-04-02T07:31:36.834Z</time></trkpt><trkpt lat="41.8250367" lon="12.9237933"><ele>346.75</ele><time>2026-04-02T07:31:37.832Z</time></trkpt><trkpt lat="41.8251583" lon="12.9238867"><ele>345.5</ele><time>2026-04-02T07:31:38.831Z</time></trkpt><trkpt lat="41.82527" lon="12.9240033"><ele>344.25</ele><time>2026-04-02T07:31:39.832Z</time></trkpt><trkpt lat="41.8253633" lon="12.924135"><ele>343.0</ele><time>2026-04-02T07:31:40.833Z</time></trkpt><trkpt lat="41.8254367" lon="12.9242883"><ele>337.66666666666663</ele><time>2026-04-02T07:31:41.832Z</time></trkpt><trkpt lat="41.8254783" lon="12.9244783"><ele>332.3333333333333</ele><time>2026-04-02T07:31:42.832Z</time></trkpt><trkpt lat="41.8255033" lon="12.92469"><ele>327.0</ele><time>2026-04-02T07:31:43.832Z</time></trkpt><trkpt lat="41.8255283" lon="12.924905"><ele>329.6666666666667</ele><time>2026-04-02T07:31:44.829Z</time></trkpt><trkpt lat="41.8255533" lon="12.925125"><ele>332.33333333333337</ele><time>2026-04-02T07:31:45.831Z</time></trkpt><trkpt lat="41.82558" lon="12.9253517"><ele>335.0</ele><time>2026-04-02T07:31:46.834Z</time></trkpt><trkpt lat="41.8256117" lon="12.9255817"><ele>335.0</ele><time>2026-04-02T07:31:47.834Z</time></trkpt><trkpt lat="41.8256433" lon="12.9258017"><ele>335.0</ele><time>2026-04-02T07:31:48.834Z</time></trkpt><trkpt lat="41.82567" lon="12.926005"><ele>335.0</ele><time>2026-04-02T07:31:49.832Z</time></trkpt><trkpt lat="41.8256833" lon="12.926195"><ele>340.75</ele><time>2026-04-02T07:31:50.834Z</time></trkpt><trkpt lat="41.8256733" lon="12.92637"><ele>346.5</ele><time>2026-04-02T07:31:51.834Z</time></trkpt><trkpt lat="41.825635" lon="12.9265283"><ele>352.25</ele><time>2026-04-02T07:31:52.832Z</time></trkpt><trkpt lat="41.825565" lon="12.9266667"><ele>358.0</ele><time>2026-04-02T07:31:53.834Z</time></trkpt><trkpt lat="41.8254633" lon="12.9267617"><ele>356.5</ele><time>2026-04-02T07:31:54.834Z</time></trkpt><trkpt lat="41.8253367" lon="12.9268133"><ele>355.0</ele><time>2026-04-02T07:31:55.833Z</time></trkpt><trkpt lat="41.8251933" lon="12.9268133"><ele>353.5</ele><time>2026-04-02T07:31:56.833Z</time></trkpt><trkpt lat="41.8250317" lon="12.9267733"><ele>352.0</ele><time>2026-04-02T07:31:57.833Z</time></trkpt><trkpt lat="41.8248617" lon="12.926715"><ele>352.0</ele><time>2026-04-02T07:31:58.829Z</time></trkpt><trkpt lat="41.8246733" lon="12.9266583"><ele>352.0</ele><time>2026-04-02T07:31:59.832Z</time></trkpt><trkpt lat="41.8244683" lon="12.9266083"><ele>352.0</ele><time>2026-04-02T07:32:00.832Z</time></trkpt><trkpt lat="41.8242533" lon="12.9265567"><ele>360.5</ele><time>2026-04-02T07:32:01.831Z</time></trkpt><trkpt lat="41.8240267" lon="12.9264917"><ele>369.0</ele><time>2026-04-02T07:32:02.831Z</time></trkpt><trkpt lat="41.8238017" lon="12.9264067"><ele>369.0</ele><time>2026-04-02T07:32:03.83Z</time></trkpt><trkpt lat="41.8235833" lon="12.9263"><ele>369.0</ele><time>2026-04-02T07:32:04.832Z</time></trkpt><trkpt lat="41.823355" lon="12.926195"><ele>375.0</ele><time>2026-04-02T07:32:05.832Z</time></trkpt><trkpt lat="41.8231133" lon="12.92611"><ele>381.0</ele><time>2026-04-02T07:32:06.833Z</time></trkpt><trkpt lat="41.8228633" lon="12.926035"><ele>382.0</ele><time>2026-04-02T07:32:07.831Z</time></trkpt><trkpt lat="41.82262" lon="12.9259617"><ele>383.0</ele><time>2026-04-02T07:32:08.833Z</time></trkpt><trkpt lat="41.822405" lon="12.9258967"><ele>373.0</ele><time>2026-04-02T07:32:09.832Z</time></trkpt><trkpt lat="41.8222233" lon="12.92585"><ele>363.0</ele><time>2026-04-02T07:32:10.831Z</time></trkpt><trkpt lat="41.8220617" lon="12.9258333"><ele>353.0</ele><time>2026-04-02T07:32:11.829Z</time></trkpt><trkpt lat="41.821915" lon="12.9258467"><ele>359.5</ele><time>2026-04-02T07:32:12.83Z</time></trkpt><trkpt lat="41.8217767" lon="12.925905"><ele>366.0</ele><time>2026-04-02T07:32:13.832Z</time></trkpt><trkpt lat="41.821645" lon="12.926"><ele>372.5</ele><time>2026-04-02T07:32:14.833Z</time></trkpt><trkpt lat="41.8215083" lon="12.9260833"><ele>379.0</ele><time>2026-04-02T07:32:15.834Z</time></trkpt><trkpt lat="41.8213633" lon="12.92613"><ele>379.0</ele><time>2026-04-02T07:32:16.835Z</time></trkpt><trkpt lat="41.8212133" lon="12.9261283"><ele>379.0</ele><time>2026-04-02T07:32:17.834Z</time></trkpt><trkpt lat="41.82107" lon="12.926115"><ele>379.0</ele><time>2026-04-02T07:32:18.835Z</time></trkpt><trkpt lat="41.82094" lon="12.92614"><ele>379.0</ele><time>2026-04-02T07:32:19.829Z</time></trkpt><trkpt lat="41.820805" lon="12.9262233"><ele>378.3333333333333</ele><time>2026-04-02T07:32:20.834Z</time></trkpt><trkpt lat="41.82066" lon="12.9263283"><ele>377.6666666666667</ele><time>2026-04-02T07:32:21.83Z</time></trkpt><trkpt lat="41.820515" lon="12.92643"><ele>377.0</ele><time>2026-04-02T07:32:22.831Z</time></trkpt><trkpt lat="41.8203583" lon="12.92652"><ele>377.0</ele><time>2026-04-02T07:32:23.832Z</time></trkpt><trkpt lat="41.8201967" lon="12.9266117"><ele>377.0</ele><time>2026-04-02T07:32:24.831Z</time></trkpt><trkpt lat="41.8200283" lon="12.9266883"><ele>377.0</ele><time>2026-04-02T07:32:25.831Z</time></trkpt><trkpt lat="41.8198667" lon="12.9267617"><ele>382.6666666666667</ele><time>2026-04-02T07:32:26.829Z</time></trkpt><trkpt lat="41.81971" lon="12.9268483"><ele>388.33333333333337</ele><time>2026-04-02T07:32:27.83Z</time></trkpt><trkpt lat="41.8195583" lon="12.92693"><ele>394.0</ele><time>2026-04-02T07:32:28.83Z</time></trkpt><trkpt lat="41.8194183" lon="12.927025"><ele>387.0</ele><time>2026-04-02T07:32:29.829Z</time></trkpt><trkpt lat="41.8192983" lon="12.9271333"><ele>380.0</ele><time>2026-04-02T07:32:30.829Z</time></trkpt><trkpt lat="41.819195" lon="12.9272767"><ele>373.0</ele><time>2026-04-02T07:32:31.829Z</time></trkpt><trkpt lat="41.8190783" lon="12.9274233"><ele>373.0</ele><time>2026-04-02T07:32:32.828Z</time></trkpt><trkpt lat="41.8190283" lon="12.9275517"><ele>373.0</ele><time>2026-04-02T07:32:33.828Z</time></trkpt><trkpt lat="41.8189717" lon="12.9277083"><ele>373.0</ele><time>2026-04-02T07:32:34.829Z</time></trkpt><trkpt lat="41.8189533" lon="12.9278683"><ele>373.0</ele><time>2026-04-02T07:32:35.828Z</time></trkpt><trkpt lat="41.8189367" lon="12.9280333"><ele>376.0</ele><time>2026-04-02T07:32:36.829Z</time></trkpt><trkpt lat="41.8189483" lon="12.92821"><ele>379.0</ele><time>2026-04-02T07:32:37.828Z</time></trkpt><trkpt lat="41.81897" lon="12.9283483"><ele>382.0</ele><time>2026-04-02T07:32:38.829Z</time></trkpt><trkpt lat="41.8189683" lon="12.9285083"><ele>385.0</ele><time>2026-04-02T07:32:39.828Z</time></trkpt><trkpt lat="41.81893" lon="12.9286433"><ele>386.0</ele><time>2026-04-02T07:32:40.827Z</time></trkpt><trkpt lat="41.8188833" lon="12.9287717"><ele>387.0</ele><time>2026-04-02T07:32:41.832Z</time></trkpt><trkpt lat="41.8187833" lon="12.9288817"><ele>388.0</ele><time>2026-04-02T07:32:42.83Z</time></trkpt><trkpt lat="41.8186633" lon="12.9289417"><ele>389.0</ele><time>2026-04-02T07:32:43.829Z</time></trkpt><trkpt lat="41.81849" lon="12.92894"><ele>387.0</ele><time>2026-04-02T07:32:44.83Z</time></trkpt><trkpt lat="41.8183717" lon="12.92896"><ele>385.0</ele><time>2026-04-02T07:32:45.831Z</time></trkpt><trkpt lat="41.81828" lon="12.9289917"><ele>383.0</ele><time>2026-04-02T07:32:46.831Z</time></trkpt><trkpt lat="41.8181283" lon="12.92908"><ele>381.0</ele><time>2026-04-02T07:32:47.836Z</time></trkpt><trkpt lat="41.8180083" lon="12.929145"><ele>380.4</ele><time>2026-04-02T07:32:48.831Z</time></trkpt><trkpt lat="41.8179617" lon="12.9292467"><ele>379.8</ele><time>2026-04-02T07:32:49.832Z</time></trkpt><trkpt lat="41.81792" lon="12.9294"><ele>379.2</ele><time>2026-04-02T07:32:50.834Z</time></trkpt><trkpt lat="41.81784" lon="12.9294917"><ele>378.59999999999997</ele><time>2026-04-02T07:32:51.832Z</time></trkpt><trkpt lat="41.8177333" lon="12.9295767"><ele>378.0</ele><time>2026-04-02T07:32:52.83Z</time></trkpt><trkpt lat="41.81763" lon="12.92966"><ele>378.0</ele><time>2026-04-02T07:32:53.831Z</time></trkpt><trkpt lat="41.81752" lon="12.9297483"><ele>378.0</ele><time>2026-04-02T07:32:54.831Z</time></trkpt><trkpt lat="41.8174033" lon="12.929825"><ele>378.0</ele><time>2026-04-02T07:32:55.829Z</time></trkpt><trkpt lat="41.8172967" lon="12.9299167"><ele>378.0</ele><time>2026-04-02T07:32:56.828Z</time></trkpt><trkpt lat="41.817195" lon="12.9300133"><ele>381.0</ele><time>2026-04-02T07:32:57.828Z</time></trkpt><trkpt lat="41.8171017" lon="12.930115"><ele>384.0</ele><time>2026-04-02T07:32:58.829Z</time></trkpt><trkpt lat="41.8170167" lon="12.9302067"><ele>387.0</ele><time>2026-04-02T07:32:59.83Z</time></trkpt><trkpt lat="41.8169683" lon="12.9303633"><ele>390.0</ele><time>2026-04-02T07:33:00.833Z</time></trkpt><trkpt lat="41.8169" lon="12.9305033"><ele>390.0</ele><time>2026-04-02T07:33:01.83Z</time></trkpt><trkpt lat="41.8168217" lon="12.9306517"><ele>390.0</ele><time>2026-04-02T07:33:02.829Z</time></trkpt><trkpt lat="41.816745" lon="12.9308017"><ele>390.0</ele><time>2026-04-02T07:33:03.83Z</time></trkpt><trkpt lat="41.81667" lon="12.930955"><ele>390.0</ele><time>2026-04-02T07:33:04.829Z</time></trkpt><trkpt lat="41.8165983" lon="12.9311"><ele>389.25</ele><time>2026-04-02T07:33:05.831Z</time></trkpt><trkpt lat="41.8165317" lon="12.9312367"><ele>388.5</ele><time>2026-04-02T07:33:06.83Z</time></trkpt><trkpt lat="41.8164783" lon="12.9313817"><ele>387.75</ele><time>2026-04-02T07:33:07.832Z</time></trkpt><trkpt lat="41.81645" lon="12.93153"><ele>387.0</ele><time>2026-04-02T07:33:08.829Z</time></trkpt><trkpt lat="41.816445" lon="12.931675"><ele>387.0</ele><time>2026-04-02T07:33:09.832Z</time></trkpt><trkpt lat="41.8164517" lon="12.9318267"><ele>387.0</ele><time>2026-04-02T07:33:10.832Z</time></trkpt><trkpt lat="41.8164733" lon="12.93198"><ele>387.0</ele><time>2026-04-02T07:33:11.83Z</time></trkpt><trkpt lat="41.8165017" lon="12.932145"><ele>387.0</ele><time>2026-04-02T07:33:12.833Z</time></trkpt><trkpt lat="41.8165383" lon="12.9323117"><ele>387.0</ele><time>2026-04-02T07:33:13.831Z</time></trkpt><trkpt lat="41.816575" lon="12.9324717"><ele>387.0</ele><time>2026-04-02T07:33:14.833Z</time></trkpt><trkpt lat="41.8166133" lon="12.9326217"><ele>387.0</ele><time>2026-04-02T07:33:15.833Z</time></trkpt><trkpt lat="41.81665" lon="12.9327517"><ele>387.0</ele><time>2026-04-02T07:33:16.832Z</time></trkpt><trkpt lat="41.81668" lon="12.9328567"><ele>387.0</ele><time>2026-04-02T07:33:17.833Z</time></trkpt><trkpt lat="41.8167067" lon="12.93295"><ele>387.0</ele><time>2026-04-02T07:33:18.834Z</time></trkpt><trkpt lat="41.8167283" lon="12.9330317"><ele>387.0</ele><time>2026-04-02T07:33:19.834Z</time></trkpt><trkpt lat="41.8167667" lon="12.9331167"><ele>387.0</ele><time>2026-04-02T07:33:20.833Z</time></trkpt><trkpt lat="41.816795" lon="12.9332083"><ele>387.0</ele><time>2026-04-02T07:33:21.83Z</time></trkpt><trkpt lat="41.8168467" lon="12.9332933"><ele>387.0</ele><time>2026-04-02T07:33:22.832Z</time></trkpt><trkpt lat="41.81693" lon="12.9333433"><ele>387.0</ele><time>2026-04-02T07:33:23.83Z</time></trkpt><trkpt lat="41.8170133" lon="12.9333983"><ele>386.6</ele><time>2026-04-02T07:33:24.834Z</time></trkpt><trkpt lat="41.817095" lon="12.9334467"><ele>386.20000000000005</ele><time>2026-04-02T07:33:25.831Z</time></trkpt><trkpt lat="41.8171783" lon="12.9334967"><ele>385.8</ele><time>2026-04-02T07:33:26.832Z</time></trkpt><trkpt lat="41.8172667" lon="12.933545"><ele>385.4</ele><time>2026-04-02T07:33:27.834Z</time></trkpt><trkpt lat="41.81736" lon="12.9335933"><ele>385.0</ele><time>2026-04-02T07:33:28.831Z</time></trkpt><trkpt lat="41.81745" lon="12.9336333"><ele>385.0</ele><time>2026-04-02T07:33:29.832Z</time></trkpt><trkpt lat="41.81754" lon="12.9336683"><ele>385.0</ele><time>2026-04-02T07:33:30.833Z</time></trkpt><trkpt lat="41.8176333" lon="12.9336933"><ele>385.0</ele><time>2026-04-02T07:33:31.832Z</time></trkpt><trkpt lat="41.8177317" lon="12.933715"><ele>385.0</ele><time>2026-04-02T07:33:32.831Z</time></trkpt><trkpt lat="41.8178317" lon="12.933735"><ele>385.0</ele><time>2026-04-02T07:33:33.831Z</time></trkpt><trkpt lat="41.8179233" lon="12.93376"><ele>385.42857142857144</ele><time>2026-04-02T07:33:34.831Z</time></trkpt><trkpt lat="41.818005" lon="12.9337733"><ele>385.8571428571429</ele><time>2026-04-02T07:33:35.83Z</time></trkpt><trkpt lat="41.818075" lon="12.9337717"><ele>386.2857142857143</ele><time>2026-04-02T07:33:36.832Z</time></trkpt><trkpt lat="41.8181467" lon="12.9337717"><ele>386.7142857142857</ele><time>2026-04-02T07:33:37.831Z</time></trkpt><trkpt lat="41.81822" lon="12.9337733"><ele>387.14285714285717</ele><time>2026-04-02T07:33:38.83Z</time></trkpt><trkpt lat="41.8182967" lon="12.933775"><ele>387.57142857142856</ele><time>2026-04-02T07:33:39.832Z</time></trkpt><trkpt lat="41.81837" lon="12.9337733"><ele>388.0</ele><time>2026-04-02T07:33:40.832Z</time></trkpt><trkpt lat="41.8184917" lon="12.933775"><ele>388.33333333333337</ele><time>2026-04-02T07:33:42.834Z</time></trkpt><trkpt lat="41.818605" lon="12.9337617"><ele>388.6666666666667</ele><time>2026-04-02T07:33:44.83Z</time></trkpt><trkpt lat="41.8186683" lon="12.93375"><ele>389.0</ele><time>2026-04-02T07:33:45.832Z</time></trkpt><trkpt lat="41.8187333" lon="12.9337467"><ele>389.33333333333337</ele><time>2026-04-02T07:33:46.831Z</time></trkpt><trkpt lat="41.8188017" lon="12.933755"><ele>389.6666666666667</ele><time>2026-04-02T07:33:47.829Z</time></trkpt><trkpt lat="41.8189017" lon="12.9338017"><ele>390.0</ele><time>2026-04-02T07:33:49.832Z</time></trkpt><trkpt lat="41.8189683" lon="12.9339017"><ele>390.0</ele><time>2026-04-02T07:33:51.831Z</time></trkpt><trkpt lat="41.8190633" lon="12.9339917"><ele>390.0</ele><time>2026-04-02T07:33:53.831Z</time></trkpt><trkpt lat="41.8191267" lon="12.9340667"><ele>390.0</ele><time>2026-04-02T07:33:55.833Z</time></trkpt><trkpt lat="41.8191517" lon="12.9341517"><ele>390.0</ele><time>2026-04-02T07:33:57.83Z</time></trkpt><trkpt lat="41.81917" lon="12.9342683"><ele>390.0</ele><time>2026-04-02T07:33:59.832Z</time></trkpt><trkpt lat="41.8191883" lon="12.934415"><ele>389.4</ele><time>2026-04-02T07:34:01.831Z</time></trkpt><trkpt lat="41.8192117" lon="12.93455"><ele>388.8</ele><time>2026-04-02T07:34:03.83Z</time></trkpt><trkpt lat="41.8192467" lon="12.934715"><ele>388.20000000000005</ele><time>2026-04-02T07:34:05.832Z</time></trkpt><trkpt lat="41.819265" lon="12.9348167"><ele>387.6</ele><time>2026-04-02T07:34:06.832Z</time></trkpt><trkpt lat="41.8192883" lon="12.93493"><ele>387.0</ele><time>2026-04-02T07:34:07.831Z</time></trkpt><trkpt lat="41.819315" lon="12.9350583"><ele>386.5</ele><time>2026-04-02T07:34:08.829Z</time></trkpt><trkpt lat="41.8193383" lon="12.935215"><ele>386.0</ele><time>2026-04-02T07:34:09.831Z</time></trkpt><trkpt lat="41.8193633" lon="12.9353867"><ele>385.5</ele><time>2026-04-02T07:34:10.832Z</time></trkpt><trkpt lat="41.8193917" lon="12.935575"><ele>385.0</ele><time>2026-04-02T07:34:11.834Z</time></trkpt><trkpt lat="41.8194283" lon="12.935765"><ele>382.75</ele><time>2026-04-02T07:34:12.833Z</time></trkpt><trkpt lat="41.8194783" lon="12.935945"><ele>380.5</ele><time>2026-04-02T07:34:13.834Z</time></trkpt><trkpt lat="41.8195433" lon="12.9360967"><ele>378.25</ele><time>2026-04-02T07:34:14.834Z</time></trkpt><trkpt lat="41.81962" lon="12.9362283"><ele>376.0</ele><time>2026-04-02T07:34:15.833Z</time></trkpt><trkpt lat="41.819705" lon="12.9363433"><ele>376.0</ele><time>2026-04-02T07:34:16.833Z</time></trkpt><trkpt lat="41.8198033" lon="12.9364367"><ele>376.0</ele><time>2026-04-02T07:34:17.833Z</time></trkpt><trkpt lat="41.8199117" lon="12.9365133"><ele>376.0</ele><time>2026-04-02T07:34:18.831Z</time></trkpt><trkpt lat="41.8200217" lon="12.9365767"><ele>376.0</ele><time>2026-04-02T07:34:19.832Z</time></trkpt><trkpt lat="41.8201283" lon="12.9366317"><ele>376.4</ele><time>2026-04-02T07:34:20.831Z</time></trkpt><trkpt lat="41.8202267" lon="12.936675"><ele>376.8</ele><time>2026-04-02T07:34:21.831Z</time></trkpt><trkpt lat="41.82032" lon="12.9367267"><ele>377.2</ele><time>2026-04-02T07:34:22.832Z</time></trkpt><trkpt lat="41.8204067" lon="12.9367933"><ele>377.59999999999997</ele><time>2026-04-02T07:34:23.83Z</time></trkpt><trkpt lat="41.8204817" lon="12.9368867"><ele>378.0</ele><time>2026-04-02T07:34:24.831Z</time></trkpt><trkpt lat="41.8205533" lon="12.936995"><ele>376.2</ele><time>2026-04-02T07:34:25.832Z</time></trkpt><trkpt lat="41.82062" lon="12.9371117"><ele>374.4</ele><time>2026-04-02T07:34:26.833Z</time></trkpt><trkpt lat="41.8206767" lon="12.9372267"><ele>372.59999999999997</ele><time>2026-04-02T07:34:27.832Z</time></trkpt><trkpt lat="41.8207283" lon="12.9373433"><ele>370.79999999999995</ele><time>2026-04-02T07:34:28.833Z</time></trkpt><trkpt lat="41.8207717" lon="12.9374583"><ele>369.0</ele><time>2026-04-02T07:34:29.831Z</time></trkpt><trkpt lat="41.8208067" lon="12.93758"><ele>368.0</ele><time>2026-04-02T07:34:30.832Z</time></trkpt><trkpt lat="41.820835" lon="12.937705"><ele>367.0</ele><time>2026-04-02T07:34:31.833Z</time></trkpt><trkpt lat="41.8208583" lon="12.937835"><ele>366.0</ele><time>2026-04-02T07:34:32.833Z</time></trkpt><trkpt lat="41.820875" lon="12.9379717"><ele>365.0</ele><time>2026-04-02T07:34:33.83Z</time></trkpt><trkpt lat="41.8208833" lon="12.9381133"><ele>364.0</ele><time>2026-04-02T07:34:34.831Z</time></trkpt><trkpt lat="41.820885" lon="12.9382617"><ele>365.0</ele><time>2026-04-02T07:34:35.831Z</time></trkpt><trkpt lat="41.82088" lon="12.9384117"><ele>366.0</ele><time>2026-04-02T07:34:36.833Z</time></trkpt><trkpt lat="41.8208683" lon="12.9385633"><ele>367.0</ele><time>2026-04-02T07:34:37.832Z</time></trkpt><trkpt lat="41.8208517" lon="12.9387183"><ele>368.0</ele><time>2026-04-02T07:34:38.83Z</time></trkpt><trkpt lat="41.8208367" lon="12.938875"><ele>368.0</ele><time>2026-04-02T07:34:39.83Z</time></trkpt><trkpt lat="41.8208167" lon="12.93903"><ele>368.0</ele><time>2026-04-02T07:34:40.832Z</time></trkpt><trkpt lat="41.820795" lon="12.9391833"><ele>368.0</ele><time>2026-04-02T07:34:41.835Z</time></trkpt><trkpt lat="41.82077" lon="12.9393383"><ele>368.0</ele><time>2026-04-02T07:34:42.834Z</time></trkpt><trkpt lat="41.8207317" lon="12.9394883"><ele>368.2</ele><time>2026-04-02T07:34:43.834Z</time></trkpt><trkpt lat="41.8206717" lon="12.9396217"><ele>368.4</ele><time>2026-04-02T07:34:44.833Z</time></trkpt><trkpt lat="41.820595" lon="12.9397267"><ele>368.59999999999997</ele><time>2026-04-02T07:34:45.835Z</time></trkpt><trkpt lat="41.820505" lon="12.9398117"><ele>368.79999999999995</ele><time>2026-04-02T07:34:46.834Z</time></trkpt><trkpt lat="41.820415" lon="12.9398967"><ele>369.0</ele><time>2026-04-02T07:34:47.832Z</time></trkpt><trkpt lat="41.820325" lon="12.9399867"><ele>368.75</ele><time>2026-04-02T07:34:48.832Z</time></trkpt><trkpt lat="41.8202417" lon="12.940095"><ele>368.5</ele><time>2026-04-02T07:34:49.831Z</time></trkpt><trkpt lat="41.8201617" lon="12.940225"><ele>368.25</ele><time>2026-04-02T07:34:50.832Z</time></trkpt><trkpt lat="41.8200867" lon="12.940365"><ele>368.0</ele><time>2026-04-02T07:34:51.832Z</time></trkpt><trkpt lat="41.82002" lon="12.940505"><ele>368.0</ele><time>2026-04-02T07:34:52.832Z</time></trkpt><trkpt lat="41.819965" lon="12.940635"><ele>368.0</ele><time>2026-04-02T07:34:53.832Z</time></trkpt><trkpt lat="41.8199083" lon="12.9407583"><ele>368.0</ele><time>2026-04-02T07:34:54.833Z</time></trkpt><trkpt lat="41.8198483" lon="12.9408817"><ele>368.0</ele><time>2026-04-02T07:34:55.833Z</time></trkpt><trkpt lat="41.81979" lon="12.94101"><ele>368.0</ele><time>2026-04-02T07:34:56.833Z</time></trkpt><trkpt lat="41.8197367" lon="12.9411417"><ele>370.25</ele><time>2026-04-02T07:34:57.83Z</time></trkpt><trkpt lat="41.819685" lon="12.9412783"><ele>372.5</ele><time>2026-04-02T07:34:58.833Z</time></trkpt><trkpt lat="41.8196417" lon="12.94142"><ele>374.75</ele><time>2026-04-02T07:34:59.831Z</time></trkpt><trkpt lat="41.8196033" lon="12.9415667"><ele>377.0</ele><time>2026-04-02T07:35:00.831Z</time></trkpt><trkpt lat="41.8195733" lon="12.941715"><ele>377.75</ele><time>2026-04-02T07:35:01.83Z</time></trkpt><trkpt lat="41.81955" lon="12.94187"><ele>378.5</ele><time>2026-04-02T07:35:02.834Z</time></trkpt><trkpt lat="41.81953" lon="12.9420267"><ele>379.25</ele><time>2026-04-02T07:35:03.833Z</time></trkpt><trkpt lat="41.819515" lon="12.9421867"><ele>380.0</ele><time>2026-04-02T07:35:04.831Z</time></trkpt><trkpt lat="41.8195033" lon="12.942345"><ele>380.0</ele><time>2026-04-02T07:35:05.83Z</time></trkpt><trkpt lat="41.8194967" lon="12.9425017"><ele>380.0</ele><time>2026-04-02T07:35:06.832Z</time></trkpt><trkpt lat="41.8194867" lon="12.942655"><ele>380.0</ele><time>2026-04-02T07:35:07.833Z</time></trkpt><trkpt lat="41.81948" lon="12.94281"><ele>380.0</ele><time>2026-04-02T07:35:08.831Z</time></trkpt><trkpt lat="41.8194767" lon="12.942975"><ele>380.5</ele><time>2026-04-02T07:35:09.831Z</time></trkpt><trkpt lat="41.81947" lon="12.9431567"><ele>381.0</ele><time>2026-04-02T07:35:10.833Z</time></trkpt><trkpt lat="41.8194533" lon="12.9433517"><ele>381.5</ele><time>2026-04-02T07:35:11.833Z</time></trkpt><trkpt lat="41.81943" lon="12.94356"><ele>382.0</ele><time>2026-04-02T07:35:12.833Z</time></trkpt><trkpt lat="41.8194117" lon="12.9437717"><ele>382.5</ele><time>2026-04-02T07:35:13.835Z</time></trkpt><trkpt lat="41.8193983" lon="12.9439783"><ele>383.0</ele><time>2026-04-02T07:35:14.834Z</time></trkpt><trkpt lat="41.81939" lon="12.9441767"><ele>383.5</ele><time>2026-04-02T07:35:15.833Z</time></trkpt><trkpt lat="41.81938" lon="12.9443717"><ele>384.0</ele><time>2026-04-02T07:35:16.834Z</time></trkpt><trkpt lat="41.8193717" lon="12.9445633"><ele>384.33333333333337</ele><time>2026-04-02T07:35:17.831Z</time></trkpt><trkpt lat="41.81937" lon="12.9447583"><ele>384.6666666666667</ele><time>2026-04-02T07:35:18.833Z</time></trkpt><trkpt lat="41.8193717" lon="12.9449617"><ele>385.0</ele><time>2026-04-02T07:35:19.831Z</time></trkpt><trkpt lat="41.8193783" lon="12.945185"><ele>385.0</ele><time>2026-04-02T07:35:20.831Z</time></trkpt><trkpt lat="41.819385" lon="12.9454317"><ele>385.0</ele><time>2026-04-02T07:35:21.832Z</time></trkpt><trkpt lat="41.819385" lon="12.9456933"><ele>385.0</ele><time>2026-04-02T07:35:22.829Z</time></trkpt><trkpt lat="41.819385" lon="12.9459567"><ele>385.0</ele><time>2026-04-02T07:35:23.832Z</time></trkpt><trkpt lat="41.8193933" lon="12.9462233"><ele>385.0</ele><time>2026-04-02T07:35:24.833Z</time></trkpt><trkpt lat="41.8194067" lon="12.9464983"><ele>385.0</ele><time>2026-04-02T07:35:25.833Z</time></trkpt><trkpt lat="41.8194167" lon="12.946775"><ele>384.6666666666667</ele><time>2026-04-02T07:35:26.833Z</time></trkpt><trkpt lat="41.8194267" lon="12.9470583"><ele>384.33333333333337</ele><time>2026-04-02T07:35:27.834Z</time></trkpt><trkpt lat="41.819435" lon="12.9473433"><ele>384.0</ele><time>2026-04-02T07:35:28.831Z</time></trkpt><trkpt lat="41.8194467" lon="12.94763"><ele>384.0</ele><time>2026-04-02T07:35:29.832Z</time></trkpt><trkpt lat="41.8194567" lon="12.94792"><ele>384.0</ele><time>2026-04-02T07:35:30.831Z</time></trkpt><trkpt lat="41.819465" lon="12.948225"><ele>384.0</ele><time>2026-04-02T07:35:31.831Z</time></trkpt><trkpt lat="41.81948" lon="12.9485417"><ele>384.5</ele><time>2026-04-02T07:35:32.831Z</time></trkpt><trkpt lat="41.819495" lon="12.9488567"><ele>385.0</ele><time>2026-04-02T07:35:33.831Z</time></trkpt><trkpt lat="41.8195083" lon="12.94916"><ele>384.33333333333337</ele><time>2026-04-02T07:35:34.83Z</time></trkpt><trkpt lat="41.8195183" lon="12.9494583"><ele>383.6666666666667</ele><time>2026-04-02T07:35:35.831Z</time></trkpt><trkpt lat="41.8195317" lon="12.9497517"><ele>383.0</ele><time>2026-04-02T07:35:36.831Z</time></trkpt><trkpt lat="41.819545" lon="12.950045"><ele>383.0</ele><time>2026-04-02T07:35:37.83Z</time></trkpt><trkpt lat="41.8195567" lon="12.9503383"><ele>383.0</ele><time>2026-04-02T07:35:38.833Z</time></trkpt><trkpt lat="41.81957" lon="12.9506267"><ele>383.0</ele><time>2026-04-02T07:35:39.833Z</time></trkpt><trkpt lat="41.81958" lon="12.95091"><ele>383.33333333333337</ele><time>2026-04-02T07:35:40.831Z</time></trkpt><trkpt lat="41.8195883" lon="12.951185"><ele>383.6666666666667</ele><time>2026-04-02T07:35:41.833Z</time></trkpt><trkpt lat="41.8196017" lon="12.9514517"><ele>384.0</ele><time>2026-04-02T07:35:42.831Z</time></trkpt><trkpt lat="41.8196167" lon="12.951705"><ele>383.6666666666667</ele><time>2026-04-02T07:35:43.832Z</time></trkpt><trkpt lat="41.81963" lon="12.951945"><ele>383.33333333333337</ele><time>2026-04-02T07:35:44.833Z</time></trkpt><trkpt lat="41.8196433" lon="12.9521667"><ele>383.0</ele><time>2026-04-02T07:35:45.834Z</time></trkpt><trkpt lat="41.8196533" lon="12.9523833"><ele>382.33333333333337</ele><time>2026-04-02T07:35:46.832Z</time></trkpt><trkpt lat="41.8196633" lon="12.9526017"><ele>381.6666666666667</ele><time>2026-04-02T07:35:47.833Z</time></trkpt><trkpt lat="41.8196733" lon="12.9528217"><ele>381.0</ele><time>2026-04-02T07:35:48.83Z</time></trkpt><trkpt lat="41.81968" lon="12.9530517"><ele>381.0</ele><time>2026-04-02T07:35:49.835Z</time></trkpt><trkpt lat="41.8196833" lon="12.9532867"><ele>381.0</ele><time>2026-04-02T07:35:50.832Z</time></trkpt><trkpt lat="41.8196883" lon="12.9535283"><ele>381.0</ele><time>2026-04-02T07:35:51.832Z</time></trkpt><trkpt lat="41.8196967" lon="12.9537733"><ele>380.3333333333333</ele><time>2026-04-02T07:35:52.832Z</time></trkpt><trkpt lat="41.81971" lon="12.954025"><ele>379.66666666666663</ele><time>2026-04-02T07:35:53.834Z</time></trkpt><trkpt lat="41.81972" lon="12.9542833"><ele>379.0</ele><time>2026-04-02T07:35:54.834Z</time></trkpt><trkpt lat="41.81973" lon="12.9545483"><ele>378.3333333333333</ele><time>2026-04-02T07:35:55.832Z</time></trkpt><trkpt lat="41.8197383" lon="12.954815"><ele>377.6666666666667</ele><time>2026-04-02T07:35:56.833Z</time></trkpt><trkpt lat="41.81975" lon="12.9550833"><ele>377.0</ele><time>2026-04-02T07:35:57.835Z</time></trkpt><trkpt lat="41.8197617" lon="12.9553483"><ele>376.6666666666667</ele><time>2026-04-02T07:35:58.831Z</time></trkpt><trkpt lat="41.8197717" lon="12.9556117"><ele>376.3333333333333</ele><time>2026-04-02T07:35:59.83Z</time></trkpt><trkpt lat="41.8197833" lon="12.95588"><ele>376.0</ele><time>2026-04-02T07:36:00.833Z</time></trkpt><trkpt lat="41.819795" lon="12.9561533"><ele>375.3333333333333</ele><time>2026-04-02T07:36:01.832Z</time></trkpt><trkpt lat="41.8198067" lon="12.95643"><ele>374.6666666666667</ele><time>2026-04-02T07:36:02.832Z</time></trkpt><trkpt lat="41.8198183" lon="12.95671"><ele>374.0</ele><time>2026-04-02T07:36:03.832Z</time></trkpt><trkpt lat="41.8198333" lon="12.9569867"><ele>373.6666666666667</ele><time>2026-04-02T07:36:04.832Z</time></trkpt><trkpt lat="41.8198533" lon="12.9572567"><ele>373.3333333333333</ele><time>2026-04-02T07:36:05.83Z</time></trkpt><trkpt lat="41.8198783" lon="12.9575233"><ele>373.0</ele><time>2026-04-02T07:36:06.833Z</time></trkpt><trkpt lat="41.8199117" lon="12.9577883"><ele>372.3333333333333</ele><time>2026-04-02T07:36:07.832Z</time></trkpt><trkpt lat="41.8199667" lon="12.9580583"><ele>371.6666666666667</ele><time>2026-04-02T07:36:08.831Z</time></trkpt><trkpt lat="41.82004" lon="12.9583283"><ele>371.0</ele><time>2026-04-02T07:36:09.834Z</time></trkpt><trkpt lat="41.8201183" lon="12.9585967"><ele>371.0</ele><time>2026-04-02T07:36:10.832Z</time></trkpt><trkpt lat="41.8201983" lon="12.9588633"><ele>371.0</ele><time>2026-04-02T07:36:11.834Z</time></trkpt><trkpt lat="41.820275" lon="12.9591233"><ele>371.0</ele><time>2026-04-02T07:36:12.834Z</time></trkpt><trkpt lat="41.820345" lon="12.959375"><ele>371.0</ele><time>2026-04-02T07:36:13.835Z</time></trkpt><trkpt lat="41.820405" lon="12.9596233"><ele>371.0</ele><time>2026-04-02T07:36:14.835Z</time></trkpt><trkpt lat="41.8204467" lon="12.9598817"><ele>371.0</ele><time>2026-04-02T07:36:15.833Z</time></trkpt><trkpt lat="41.8204617" lon="12.9601567"><ele>369.6666666666667</ele><time>2026-04-02T07:36:16.834Z</time></trkpt><trkpt lat="41.8204617" lon="12.9604383"><ele>368.3333333333333</ele><time>2026-04-02T07:36:17.834Z</time></trkpt><trkpt lat="41.8204633" lon="12.960715"><ele>367.0</ele><time>2026-04-02T07:36:18.834Z</time></trkpt><trkpt lat="41.82047" lon="12.9609833"><ele>366.3333333333333</ele><time>2026-04-02T07:36:19.833Z</time></trkpt><trkpt lat="41.82049" lon="12.96125"><ele>365.6666666666667</ele><time>2026-04-02T07:36:20.833Z</time></trkpt><trkpt lat="41.8205133" lon="12.9615233"><ele>365.0</ele><time>2026-04-02T07:36:21.834Z</time></trkpt><trkpt lat="41.8205417" lon="12.961795"><ele>363.6666666666667</ele><time>2026-04-02T07:36:22.834Z</time></trkpt><trkpt lat="41.8205717" lon="12.9620633"><ele>362.3333333333333</ele><time>2026-04-02T07:36:23.833Z</time></trkpt><trkpt lat="41.8206" lon="12.96233"><ele>361.0</ele><time>2026-04-02T07:36:24.834Z</time></trkpt><trkpt lat="41.8206283" lon="12.9625917"><ele>361.0</ele><time>2026-04-02T07:36:25.832Z</time></trkpt><trkpt lat="41.820645" lon="12.9628483"><ele>361.0</ele><time>2026-04-02T07:36:26.832Z</time></trkpt><trkpt lat="41.8206517" lon="12.9631083"><ele>361.0</ele><time>2026-04-02T07:36:27.833Z</time></trkpt><trkpt lat="41.8206483" lon="12.9633717"><ele>361.0</ele><time>2026-04-02T07:36:28.83Z</time></trkpt><trkpt lat="41.820635" lon="12.9636317"><ele>361.0</ele><time>2026-04-02T07:36:29.831Z</time></trkpt><trkpt lat="41.8206183" lon="12.96388"><ele>361.0</ele><time>2026-04-02T07:36:30.833Z</time></trkpt><trkpt lat="41.8206017" lon="12.9641233"><ele>360.3333333333333</ele><time>2026-04-02T07:36:31.831Z</time></trkpt><trkpt lat="41.8205883" lon="12.96436"><ele>359.6666666666667</ele><time>2026-04-02T07:36:32.831Z</time></trkpt><trkpt lat="41.8205717" lon="12.9645867"><ele>359.0</ele><time>2026-04-02T07:36:33.83Z</time></trkpt><trkpt lat="41.8205567" lon="12.9648033"><ele>359.0</ele><time>2026-04-02T07:36:34.831Z</time></trkpt><trkpt lat="41.8205433" lon="12.9650067"><ele>359.0</ele><time>2026-04-02T07:36:35.833Z</time></trkpt><trkpt lat="41.820535" lon="12.9652033"><ele>359.0</ele><time>2026-04-02T07:36:36.832Z</time></trkpt><trkpt lat="41.8205333" lon="12.9653983"><ele>359.0</ele><time>2026-04-02T07:36:37.832Z</time></trkpt><trkpt lat="41.8205467" lon="12.9655883"><ele>357.75</ele><time>2026-04-02T07:36:38.832Z</time></trkpt><trkpt lat="41.8205767" lon="12.96577"><ele>356.5</ele><time>2026-04-02T07:36:39.831Z</time></trkpt><trkpt lat="41.8206333" lon="12.9659467"><ele>355.25</ele><time>2026-04-02T07:36:40.832Z</time></trkpt><trkpt lat="41.82072" lon="12.9661183"><ele>354.0</ele><time>2026-04-02T07:36:41.832Z</time></trkpt><trkpt lat="41.8208267" lon="12.9662883"><ele>355.0</ele><time>2026-04-02T07:36:42.834Z</time></trkpt><trkpt lat="41.82095" lon="12.96647"><ele>356.0</ele><time>2026-04-02T07:36:43.833Z</time></trkpt><trkpt lat="41.8210833" lon="12.96668"><ele>357.0</ele><time>2026-04-02T07:36:44.834Z</time></trkpt><trkpt lat="41.8212183" lon="12.9669017"><ele>352.6666666666667</ele><time>2026-04-02T07:36:45.833Z</time></trkpt><trkpt lat="41.82135" lon="12.967115"><ele>348.33333333333337</ele><time>2026-04-02T07:36:46.832Z</time></trkpt><trkpt lat="41.8214767" lon="12.9673167"><ele>344.0</ele><time>2026-04-02T07:36:47.834Z</time></trkpt><trkpt lat="41.8215967" lon="12.9675133"><ele>346.6666666666667</ele><time>2026-04-02T07:36:48.834Z</time></trkpt><trkpt lat="41.821695" lon="12.967715"><ele>349.3333333333333</ele><time>2026-04-02T07:36:49.834Z</time></trkpt><trkpt lat="41.8217683" lon="12.9679417"><ele>352.0</ele><time>2026-04-02T07:36:50.832Z</time></trkpt><trkpt lat="41.82183" lon="12.96818"><ele>345.66666666666663</ele><time>2026-04-02T07:36:51.833Z</time></trkpt><trkpt lat="41.8218883" lon="12.9684117"><ele>339.3333333333333</ele><time>2026-04-02T07:36:52.835Z</time></trkpt><trkpt lat="41.821945" lon="12.9686167"><ele>333.0</ele><time>2026-04-02T07:36:53.833Z</time></trkpt><trkpt lat="41.822" lon="12.968785"><ele>333.0</ele><time>2026-04-02T07:36:54.832Z</time></trkpt><trkpt lat="41.8220617" lon="12.968935"><ele>333.0</ele><time>2026-04-02T07:36:55.833Z</time></trkpt><trkpt lat="41.822135" lon="12.9690733"><ele>333.0</ele><time>2026-04-02T07:36:56.832Z</time></trkpt><trkpt lat="41.82222" lon="12.969205"><ele>333.0</ele><time>2026-04-02T07:36:57.833Z</time></trkpt><trkpt lat="41.8222967" lon="12.969295"><ele>327.5</ele><time>2026-04-02T07:36:58.831Z</time></trkpt><trkpt lat="41.822405" lon="12.9693383"><ele>322.0</ele><time>2026-04-02T07:36:59.83Z</time></trkpt><trkpt lat="41.82253" lon="12.9693583"><ele>316.5</ele><time>2026-04-02T07:37:00.829Z</time></trkpt><trkpt lat="41.8226433" lon="12.96938"><ele>311.0</ele><time>2026-04-02T07:37:01.828Z</time></trkpt><trkpt lat="41.822765" lon="12.9693933"><ele>311.0</ele><time>2026-04-02T07:37:02.83Z</time></trkpt><trkpt lat="41.822885" lon="12.9694133"><ele>311.0</ele><time>2026-04-02T07:37:03.829Z</time></trkpt><trkpt lat="41.822995" lon="12.9694417"><ele>311.0</ele><time>2026-04-02T07:37:04.829Z</time></trkpt><trkpt lat="41.823125" lon="12.9694783"><ele>311.0</ele><time>2026-04-02T07:37:05.832Z</time></trkpt><trkpt lat="41.823305" lon="12.96953"><ele>311.0</ele><time>2026-04-02T07:37:06.829Z</time></trkpt><trkpt lat="41.82345" lon="12.96949"><ele>311.0</ele><time>2026-04-02T07:37:07.83Z</time></trkpt><trkpt lat="41.8235617" lon="12.96944"><ele>311.0</ele><time>2026-04-02T07:37:08.829Z</time></trkpt><trkpt lat="41.82369" lon="12.969395"><ele>311.0</ele><time>2026-04-02T07:37:09.829Z</time></trkpt><trkpt lat="41.82381" lon="12.9693717"><ele>310.5</ele><time>2026-04-02T07:37:10.829Z</time></trkpt><trkpt lat="41.8239367" lon="12.9693567"><ele>310.0</ele><time>2026-04-02T07:37:11.828Z</time></trkpt><trkpt lat="41.824055" lon="12.969335"><ele>309.5</ele><time>2026-04-02T07:37:12.829Z</time></trkpt><trkpt lat="41.82417" lon="12.9693333"><ele>309.0</ele><time>2026-04-02T07:37:13.829Z</time></trkpt><trkpt lat="41.8242833" lon="12.969335"><ele>309.4</ele><time>2026-04-02T07:37:14.829Z</time></trkpt><trkpt lat="41.824375" lon="12.96934"><ele>309.79999999999995</ele><time>2026-04-02T07:37:15.829Z</time></trkpt><trkpt lat="41.8244617" lon="12.9693583"><ele>310.20000000000005</ele><time>2026-04-02T07:37:16.831Z</time></trkpt><trkpt lat="41.824545" lon="12.9693733"><ele>310.6</ele><time>2026-04-02T07:37:17.828Z</time></trkpt><trkpt lat="41.8246217" lon="12.9693867"><ele>311.0</ele><time>2026-04-02T07:37:18.83Z</time></trkpt><trkpt lat="41.82473" lon="12.9693733"><ele>311.0</ele><time>2026-04-02T07:37:20.831Z</time></trkpt><trkpt lat="41.8248183" lon="12.9693733"><ele>311.0</ele><time>2026-04-02T07:37:22.829Z</time></trkpt><trkpt lat="41.8248933" lon="12.9694133"><ele>311.0</ele><time>2026-04-02T07:37:24.829Z</time></trkpt><trkpt lat="41.82498" lon="12.9694433"><ele>311.0</ele><time>2026-04-02T07:37:26.832Z</time></trkpt><trkpt lat="41.825065" lon="12.969485"><ele>311.0</ele><time>2026-04-02T07:37:28.83Z</time></trkpt><trkpt lat="41.82511" lon="12.9696233"><ele>311.0</ele><time>2026-04-02T07:37:30.833Z</time></trkpt><trkpt lat="41.825105" lon="12.9697133"><ele>311.0</ele><time>2026-04-02T07:37:31.834Z</time></trkpt><trkpt lat="41.8251683" lon="12.96984"><ele>311.0</ele><time>2026-04-02T07:37:33.832Z</time></trkpt><trkpt lat="41.8252183" lon="12.9698917"><ele>311.0</ele><time>2026-04-02T07:37:34.83Z</time></trkpt><trkpt lat="41.82532" lon="12.96999"><ele>311.0</ele><time>2026-04-02T07:37:36.832Z</time></trkpt><trkpt lat="41.825375" lon="12.9700467"><ele>311.0</ele><time>2026-04-02T07:37:37.831Z</time></trkpt><trkpt lat="41.82544" lon="12.9701217"><ele>310.8</ele><time>2026-04-02T07:37:38.832Z</time></trkpt><trkpt lat="41.825505" lon="12.9701983"><ele>310.6</ele><time>2026-04-02T07:37:39.832Z</time></trkpt><trkpt lat="41.8255767" lon="12.9702817"><ele>310.4</ele><time>2026-04-02T07:37:40.833Z</time></trkpt><trkpt lat="41.8256517" lon="12.9703667"><ele>310.2</ele><time>2026-04-02T07:37:41.834Z</time></trkpt><trkpt lat="41.8257283" lon="12.97046"><ele>310.0</ele><time>2026-04-02T07:37:42.833Z</time></trkpt><trkpt lat="41.8258067" lon="12.9705583"><ele>310.0</ele><time>2026-04-02T07:37:43.834Z</time></trkpt><trkpt lat="41.8258783" lon="12.9706633"><ele>310.0</ele><time>2026-04-02T07:37:44.829Z</time></trkpt><trkpt lat="41.8259567" lon="12.9707733"><ele>310.0</ele><time>2026-04-02T07:37:45.827Z</time></trkpt><trkpt lat="41.8260183" lon="12.9708767"><ele>310.0</ele><time>2026-04-02T07:37:46.828Z</time></trkpt><trkpt lat="41.8260983" lon="12.9709283"><ele>310.0</ele><time>2026-04-02T07:37:47.831Z</time></trkpt><trkpt lat="41.82621" lon="12.9710367"><ele>310.0</ele><time>2026-04-02T07:37:49.828Z</time></trkpt><trkpt lat="41.826275" lon="12.9710967"><ele>310.0</ele><time>2026-04-02T07:37:50.829Z</time></trkpt><trkpt lat="41.82633" lon="12.9711683"><ele>310.0</ele><time>2026-04-02T07:37:51.828Z</time></trkpt><trkpt lat="41.8263817" lon="12.9712517"><ele>310.0</ele><time>2026-04-02T07:37:52.832Z</time></trkpt><trkpt lat="41.826435" lon="12.971325"><ele>310.0</ele><time>2026-04-02T07:37:53.829Z</time></trkpt><trkpt lat="41.8264967" lon="12.9714133"><ele>310.0</ele><time>2026-04-02T07:37:54.832Z</time></trkpt><trkpt lat="41.8265433" lon="12.9714867"><ele>310.0</ele><time>2026-04-02T07:37:55.836Z</time></trkpt><trkpt lat="41.826635" lon="12.9716217"><ele>310.0</ele><time>2026-04-02T07:37:57.829Z</time></trkpt><trkpt lat="41.8267" lon="12.97169"><ele>310.0</ele><time>2026-04-02T07:37:58.828Z</time></trkpt><trkpt lat="41.826785" lon="12.97172"><ele>310.0</ele><time>2026-04-02T07:37:59.829Z</time></trkpt><trkpt lat="41.82689" lon="12.971765"><ele>310.0</ele><time>2026-04-02T07:38:00.829Z</time></trkpt><trkpt lat="41.8270233" lon="12.9718267"><ele>314.3333333333333</ele><time>2026-04-02T07:38:01.829Z</time></trkpt><trkpt lat="41.8271733" lon="12.9718883"><ele>318.6666666666667</ele><time>2026-04-02T07:38:02.829Z</time></trkpt><trkpt lat="41.8273217" lon="12.9719467"><ele>323.0</ele><time>2026-04-02T07:38:03.829Z</time></trkpt><trkpt lat="41.8274533" lon="12.9720133"><ele>323.0</ele><time>2026-04-02T07:38:04.828Z</time></trkpt><trkpt lat="41.8275633" lon="12.97207"><ele>323.0</ele><time>2026-04-02T07:38:05.832Z</time></trkpt><trkpt lat="41.8276583" lon="12.9721183"><ele>323.0</ele><time>2026-04-02T07:38:06.828Z</time></trkpt><trkpt lat="41.827745" lon="12.972155"><ele>323.0</ele><time>2026-04-02T07:38:07.828Z</time></trkpt><trkpt lat="41.8278233" lon="12.9721933"><ele>323.0</ele><time>2026-04-02T07:38:08.829Z</time></trkpt><trkpt lat="41.827895" lon="12.97223"><ele>322.6666666666667</ele><time>2026-04-02T07:38:09.828Z</time></trkpt><trkpt lat="41.8279667" lon="12.972265"><ele>322.33333333333337</ele><time>2026-04-02T07:38:10.83Z</time></trkpt><trkpt lat="41.8280433" lon="12.9723"><ele>322.0</ele><time>2026-04-02T07:38:11.83Z</time></trkpt><trkpt lat="41.8281167" lon="12.9723233"><ele>321.6666666666667</ele><time>2026-04-02T07:38:12.83Z</time></trkpt><trkpt lat="41.8282" lon="12.9723517"><ele>321.3333333333333</ele><time>2026-04-02T07:38:13.83Z</time></trkpt><trkpt lat="41.8282817" lon="12.97239"><ele>321.0</ele><time>2026-04-02T07:38:14.829Z</time></trkpt><trkpt lat="41.8283617" lon="12.9724317"><ele>321.0</ele><time>2026-04-02T07:38:15.832Z</time></trkpt><trkpt lat="41.8284417" lon="12.9724767"><ele>321.0</ele><time>2026-04-02T07:38:16.828Z</time></trkpt><trkpt lat="41.828515" lon="12.972515"><ele>321.0</ele><time>2026-04-02T07:38:17.832Z</time></trkpt><trkpt lat="41.8285883" lon="12.9725867"><ele>321.0</ele><time>2026-04-02T07:38:19.832Z</time></trkpt><trkpt lat="41.8286667" lon="12.9726167"><ele>321.0</ele><time>2026-04-02T07:38:22.83Z</time></trkpt><trkpt lat="41.82873" lon="12.9725783"><ele>321.0</ele><time>2026-04-02T07:38:24.829Z</time></trkpt><trkpt lat="41.828815" lon="12.9725183"><ele>320.6666666666667</ele><time>2026-04-02T07:38:26.837Z</time></trkpt><trkpt lat="41.8288917" lon="12.9724433"><ele>320.3333333333333</ele><time>2026-04-02T07:38:28.83Z</time></trkpt><trkpt lat="41.8289517" lon="12.972395"><ele>320.0</ele><time>2026-04-02T07:38:30.83Z</time></trkpt><trkpt lat="41.8290233" lon="12.9723783"><ele>319.66666666666663</ele><time>2026-04-02T07:38:32.83Z</time></trkpt><trkpt lat="41.829085" lon="12.9723033"><ele>319.3333333333333</ele><time>2026-04-02T07:38:34.829Z</time></trkpt><trkpt lat="41.829155" lon="12.97226"><ele>319.0</ele><time>2026-04-02T07:38:36.828Z</time></trkpt><trkpt lat="41.8291917" lon="12.9721467"><ele>319.0</ele><time>2026-04-02T07:38:38.828Z</time></trkpt><trkpt lat="41.8292717" lon="12.9721167"><ele>319.0</ele><time>2026-04-02T07:38:41.831Z</time></trkpt><trkpt lat="41.829335" lon="12.97207"><ele>319.0</ele><time>2026-04-02T07:38:44.832Z</time></trkpt><trkpt lat="41.8293017" lon="12.971995"><ele>319.0</ele><time>2026-04-02T07:39:23.829Z</time></trkpt><trkpt lat="41.82928" lon="12.9718867"><ele>319.0</ele><time>2026-04-02T07:39:25.832Z</time></trkpt><trkpt lat="41.829245" lon="12.97178"><ele>319.0</ele><time>2026-04-02T07:39:27.83Z</time></trkpt><trkpt lat="41.8291967" lon="12.9716117"><ele>317.8333333333333</ele><time>2026-04-02T07:39:29.832Z</time></trkpt><trkpt lat="41.8291817" lon="12.9715183"><ele>316.66666666666663</ele><time>2026-04-02T07:39:30.834Z</time></trkpt><trkpt lat="41.8291317" lon="12.971415"><ele>315.5</ele><time>2026-04-02T07:39:32.832Z</time></trkpt><trkpt lat="41.8290717" lon="12.9713533"><ele>314.3333333333333</ele><time>2026-04-02T07:39:34.832Z</time></trkpt><trkpt lat="41.8290017" lon="12.9713133"><ele>313.1666666666667</ele><time>2026-04-02T07:39:36.833Z</time></trkpt><trkpt lat="41.8289483" lon="12.9713783"><ele>312.0</ele><time>2026-04-02T07:39:40.833Z</time></trkpt><trkpt lat="41.828965" lon="12.9714917"><ele>312.0</ele><time>2026-04-02T07:39:42.833Z</time></trkpt><trkpt lat="41.8289583" lon="12.9715833"><ele>312.0</ele><time>2026-04-02T07:39:44.831Z</time></trkpt><trkpt lat="41.8289117" lon="12.9716583"><ele>312.0</ele><time>2026-04-02T07:39:47.831Z</time></trkpt><trkpt lat="41.8288944" lon="12.9717938"><ele>312.0</ele><time>2026-04-02T07:40:51.832Z</time></trkpt><trkpt lat="41.8288967" lon="12.9718855"><ele>312.0</ele><time>2026-04-02T07:40:54.833Z</time></trkpt><trkpt lat="41.8289542" lon="12.9719214"><ele>312.0</ele><time>2026-04-02T07:41:13.833Z</time></trkpt><trkpt lat="41.8290245" lon="12.9719106"><ele>312.0</ele><time>2026-04-02T07:41:23.832Z</time></trkpt><trkpt lat="41.8290997" lon="12.9718806"><ele>314.3333333333333</ele><time>2026-04-02T07:41:26.832Z</time></trkpt><trkpt lat="41.8291783" lon="12.9718712"><ele>316.66666666666663</ele><time>2026-04-02T07:41:29.83Z</time></trkpt><trkpt lat="41.8292455" lon="12.9718533"><ele>319.0</ele><time>2026-04-02T07:41:32.832Z</time></trkpt><trkpt lat="41.8287751" lon="12.9722133"><ele>319.0</ele><time>2026-04-02T07:43:29.83Z</time></trkpt><trkpt lat="41.8285788" lon="12.9723232"><ele>319.0</ele><time>2026-04-02T07:43:38.833Z</time></trkpt><trkpt lat="41.8286" lon="12.972095"><ele>319.0</ele><time>2026-04-02T07:45:36.832Z</time></trkpt><trkpt lat="41.8283267" lon="12.9718117"><ele>319.0</ele><time>2026-04-02T07:45:51.832Z</time></trkpt><trkpt lat="41.8283171" lon="12.9717226"><ele>319.0</ele><time>2026-04-02T07:45:57.832Z</time></trkpt><trkpt lat="41.8282576" lon="12.9716667"><ele>319.0</ele><time>2026-04-02T07:46:00.832Z</time></trkpt><trkpt lat="41.8283716" lon="12.9716961"><ele>319.0</ele><time>2026-04-02T07:46:06.832Z</time></trkpt><trkpt lat="41.8284395" lon="12.9717252"><ele>319.0</ele><time>2026-04-02T07:46:08.833Z</time></trkpt><trkpt lat="41.8285636" lon="12.9717606"><ele>319.0</ele><time>2026-04-02T07:46:13.831Z</time></trkpt><trkpt lat="41.8286749" lon="12.9717962"><ele>319.0</ele><time>2026-04-02T07:46:15.833Z</time></trkpt><trkpt lat="41.8287979" lon="12.9718272"><ele>319.0</ele><time>2026-04-02T07:46:19.833Z</time></trkpt><trkpt lat="41.8288766" lon="12.9718469"><ele>319.0</ele><time>2026-04-02T07:46:21.833Z</time></trkpt><trkpt lat="41.8289426" lon="12.9719117"><ele>319.0</ele><time>2026-04-02T07:46:25.832Z</time></trkpt><trkpt lat="41.8289489" lon="12.9718058"><ele>319.0</ele><time>2026-04-02T07:46:46.831Z</time></trkpt><trkpt lat="41.8290059" lon="12.9717221"><ele>319.0</ele><time>2026-04-02T07:50:34.83Z</time></trkpt><trkpt lat="41.8290992" lon="12.9717186"><ele>319.0</ele><time>2026-04-02T07:52:49.829Z</time></trkpt><trkpt lat="41.8290147" lon="12.9717024"><ele>319.0</ele><time>2026-04-02T07:55:28.833Z</time></trkpt><trkpt lat="41.828915" lon="12.971635"><ele>319.0</ele><time>2026-04-02T07:55:56.831Z</time></trkpt><trkpt lat="41.8289617" lon="12.9717117"><ele>319.0</ele><time>2026-04-02T07:56:01.832Z</time></trkpt><trkpt lat="41.829" lon="12.9718117"><ele>319.0</ele><time>2026-04-02T07:56:03.829Z</time></trkpt><trkpt lat="41.82901" lon="12.9718967"><ele>319.0</ele><time>2026-04-02T07:56:04.829Z</time></trkpt><trkpt lat="41.8290367" lon="12.9720017"><ele>319.0</ele><time>2026-04-02T07:56:06.828Z</time></trkpt><trkpt lat="41.8290583" lon="12.972125"><ele>319.0</ele><time>2026-04-02T07:56:08.829Z</time></trkpt><trkpt lat="41.829065" lon="12.9722517"><ele>319.0</ele><time>2026-04-02T07:56:10.829Z</time></trkpt><trkpt lat="41.8290567" lon="12.97236"><ele>319.0</ele><time>2026-04-02T07:56:12.829Z</time></trkpt><trkpt lat="41.829" lon="12.972445"><ele>319.0</ele><time>2026-04-02T07:56:14.832Z</time></trkpt><trkpt lat="41.8289083" lon="12.97246"><ele>319.0</ele><time>2026-04-02T07:56:16.831Z</time></trkpt><trkpt lat="41.828805" lon="12.9724533"><ele>319.0</ele><time>2026-04-02T07:56:18.831Z</time></trkpt><trkpt lat="41.8287333" lon="12.9724483"><ele>319.0</ele><time>2026-04-02T07:56:20.832Z</time></trkpt><trkpt lat="41.8286717" lon="12.9725217"><ele>319.0</ele><time>2026-04-02T07:56:30.834Z</time></trkpt><trkpt lat="41.8286" lon="12.9725267"><ele>319.0</ele><time>2026-04-02T07:56:32.832Z</time></trkpt><trkpt lat="41.82849" lon="12.9725083"><ele>319.2857142857143</ele><time>2026-04-02T07:56:34.834Z</time></trkpt><trkpt lat="41.82842" lon="12.9724917"><ele>319.57142857142856</ele><time>2026-04-02T07:56:35.833Z</time></trkpt><trkpt lat="41.8283517" lon="12.9724767"><ele>319.85714285714283</ele><time>2026-04-02T07:56:36.831Z</time></trkpt><trkpt lat="41.82829" lon="12.972455"><ele>320.1428571428571</ele><time>2026-04-02T07:56:37.832Z</time></trkpt><trkpt lat="41.82823" lon="12.9724267"><ele>320.42857142857144</ele><time>2026-04-02T07:56:38.831Z</time></trkpt><trkpt lat="41.8281633" lon="12.9723817"><ele>320.71428571428567</ele><time>2026-04-02T07:56:39.832Z</time></trkpt><trkpt lat="41.8280683" lon="12.9723517"><ele>321.0</ele><time>2026-04-02T07:56:41.833Z</time></trkpt><trkpt lat="41.827965" lon="12.97229"><ele>321.0</ele><time>2026-04-02T07:56:43.831Z</time></trkpt><trkpt lat="41.8279033" lon="12.972255"><ele>321.0</ele><time>2026-04-02T07:56:44.832Z</time></trkpt><trkpt lat="41.8278417" lon="12.9722167"><ele>321.0</ele><time>2026-04-02T07:56:45.831Z</time></trkpt><trkpt lat="41.8277733" lon="12.9721617"><ele>321.0</ele><time>2026-04-02T07:56:46.833Z</time></trkpt><trkpt lat="41.8277133" lon="12.972125"><ele>321.0</ele><time>2026-04-02T07:56:47.832Z</time></trkpt><trkpt lat="41.8275917" lon="12.9720633"><ele>321.0</ele><time>2026-04-02T07:56:49.832Z</time></trkpt><trkpt lat="41.8275267" lon="12.97204"><ele>321.3333333333333</ele><time>2026-04-02T07:56:50.831Z</time></trkpt><trkpt lat="41.82746" lon="12.9719983"><ele>321.6666666666667</ele><time>2026-04-02T07:56:51.833Z</time></trkpt><trkpt lat="41.827395" lon="12.97196"><ele>322.0</ele><time>2026-04-02T07:56:52.832Z</time></trkpt><trkpt lat="41.8273217" lon="12.9719233"><ele>322.33333333333337</ele><time>2026-04-02T07:56:53.834Z</time></trkpt><trkpt lat="41.8272467" lon="12.971885"><ele>322.6666666666667</ele><time>2026-04-02T07:56:54.83Z</time></trkpt><trkpt lat="41.8271717" lon="12.9718517"><ele>323.0</ele><time>2026-04-02T07:56:55.831Z</time></trkpt><trkpt lat="41.8270983" lon="12.9718133"><ele>323.0</ele><time>2026-04-02T07:56:56.831Z</time></trkpt><trkpt lat="41.827025" lon="12.97178"><ele>323.0</ele><time>2026-04-02T07:56:57.832Z</time></trkpt><trkpt lat="41.8269333" lon="12.9717033"><ele>323.0</ele><time>2026-04-02T07:56:59.831Z</time></trkpt><trkpt lat="41.8268317" lon="12.9716533"><ele>323.0</ele><time>2026-04-02T07:57:01.83Z</time></trkpt><trkpt lat="41.8267283" lon="12.971595"><ele>323.0</ele><time>2026-04-02T07:57:03.832Z</time></trkpt><trkpt lat="41.8266233" lon="12.9715367"><ele>320.83333333333337</ele><time>2026-04-02T07:57:05.833Z</time></trkpt><trkpt lat="41.8265617" lon="12.9715033"><ele>318.6666666666667</ele><time>2026-04-02T07:57:06.833Z</time></trkpt><trkpt lat="41.8265" lon="12.9714583"><ele>316.5</ele><time>2026-04-02T07:57:07.832Z</time></trkpt><trkpt lat="41.82645" lon="12.9713933"><ele>314.3333333333333</ele><time>2026-04-02T07:57:08.831Z</time></trkpt><trkpt lat="41.8263883" lon="12.9712883"><ele>312.16666666666663</ele><time>2026-04-02T07:57:09.832Z</time></trkpt><trkpt lat="41.826325" lon="12.9712233"><ele>310.0</ele><time>2026-04-02T07:57:10.831Z</time></trkpt><trkpt lat="41.8262617" lon="12.9711517"><ele>310.0</ele><time>2026-04-02T07:57:11.831Z</time></trkpt><trkpt lat="41.8261917" lon="12.9710717"><ele>310.0</ele><time>2026-04-02T07:57:12.831Z</time></trkpt><trkpt lat="41.8261317" lon="12.9709917"><ele>310.0</ele><time>2026-04-02T07:57:13.83Z</time></trkpt><trkpt lat="41.8260817" lon="12.9709217"><ele>310.0</ele><time>2026-04-02T07:57:14.83Z</time></trkpt><trkpt lat="41.82604" lon="12.9708533"><ele>310.0</ele><time>2026-04-02T07:57:15.832Z</time></trkpt><trkpt lat="41.82599" lon="12.9707883"><ele>310.0</ele><time>2026-04-02T07:57:16.832Z</time></trkpt><trkpt lat="41.8259433" lon="12.970715"><ele>310.0</ele><time>2026-04-02T07:57:17.833Z</time></trkpt><trkpt lat="41.8258533" lon="12.9706317"><ele>310.0</ele><time>2026-04-02T07:57:19.833Z</time></trkpt><trkpt lat="41.82582" lon="12.970525"><ele>310.0</ele><time>2026-04-02T07:57:21.831Z</time></trkpt><trkpt lat="41.8257567" lon="12.9704367"><ele>310.0</ele><time>2026-04-02T07:57:23.831Z</time></trkpt><trkpt lat="41.825695" lon="12.97035"><ele>310.0</ele><time>2026-04-02T07:57:25.833Z</time></trkpt><trkpt lat="41.8256833" lon="12.9702567"><ele>310.0</ele><time>2026-04-02T07:57:27.833Z</time></trkpt><trkpt lat="41.8256617" lon="12.97015"><ele>310.0</ele><time>2026-04-02T07:57:29.833Z</time></trkpt><trkpt lat="41.8256367" lon="12.9700667"><ele>310.0</ele><time>2026-04-02T07:57:31.829Z</time></trkpt><trkpt lat="41.8255717" lon="12.9700283"><ele>310.0</ele><time>2026-04-02T07:57:34.831Z</time></trkpt><trkpt lat="41.825515" lon="12.9700767"><ele>310.0</ele><time>2026-04-02T07:59:57.833Z</time></trkpt><trkpt lat="41.8254117" lon="12.969995"><ele>310.0</ele><time>2026-04-02T07:59:59.832Z</time></trkpt><trkpt lat="41.8253167" lon="12.969895"><ele>310.0</ele><time>2026-04-02T08:00:01.831Z</time></trkpt><trkpt lat="41.825225" lon="12.9697933"><ele>310.16666666666663</ele><time>2026-04-02T08:00:03.835Z</time></trkpt><trkpt lat="41.8251317" lon="12.9696833"><ele>310.3333333333333</ele><time>2026-04-02T08:00:05.831Z</time></trkpt><trkpt lat="41.8250733" lon="12.9696383"><ele>310.5</ele><time>2026-04-02T08:00:06.831Z</time></trkpt><trkpt lat="41.8250083" lon="12.9696"><ele>310.6666666666667</ele><time>2026-04-02T08:00:07.833Z</time></trkpt><trkpt lat="41.8249367" lon="12.9695717"><ele>310.83333333333337</ele><time>2026-04-02T08:00:08.831Z</time></trkpt><trkpt lat="41.8248317" lon="12.969585"><ele>311.0</ele><time>2026-04-02T08:00:09.831Z</time></trkpt><trkpt lat="41.82473" lon="12.9695933"><ele>311.0</ele><time>2026-04-02T08:00:10.831Z</time></trkpt><trkpt lat="41.824625" lon="12.9696017"><ele>311.0</ele><time>2026-04-02T08:00:11.832Z</time></trkpt><trkpt lat="41.82451" lon="12.9696267"><ele>311.0</ele><time>2026-04-02T08:00:12.833Z</time></trkpt><trkpt lat="41.824395" lon="12.96965"><ele>311.0</ele><time>2026-04-02T08:00:13.832Z</time></trkpt><trkpt lat="41.8242717" lon="12.9696867"><ele>310.5</ele><time>2026-04-02T08:00:14.833Z</time></trkpt><trkpt lat="41.8241483" lon="12.969735"><ele>310.0</ele><time>2026-04-02T08:00:15.835Z</time></trkpt><trkpt lat="41.8240267" lon="12.9698017"><ele>309.5</ele><time>2026-04-02T08:00:16.832Z</time></trkpt><trkpt lat="41.82391" lon="12.969875"><ele>309.0</ele><time>2026-04-02T08:00:17.831Z</time></trkpt><trkpt lat="41.8237967" lon="12.9699467"><ele>309.0</ele><time>2026-04-02T08:00:18.833Z</time></trkpt><trkpt lat="41.8236833" lon="12.9700167"><ele>309.0</ele><time>2026-04-02T08:00:19.833Z</time></trkpt><trkpt lat="41.82358" lon="12.97009"><ele>309.0</ele><time>2026-04-02T08:00:20.832Z</time></trkpt><trkpt lat="41.82347" lon="12.9701583"><ele>309.0</ele><time>2026-04-02T08:00:21.833Z</time></trkpt><trkpt lat="41.82336" lon="12.9702217"><ele>308.0</ele><time>2026-04-02T08:00:22.833Z</time></trkpt><trkpt lat="41.8232433" lon="12.970285"><ele>307.0</ele><time>2026-04-02T08:00:23.835Z</time></trkpt><trkpt lat="41.8231317" lon="12.9703483"><ele>306.0</ele><time>2026-04-02T08:00:24.833Z</time></trkpt><trkpt lat="41.8230317" lon="12.970415"><ele>305.0</ele><time>2026-04-02T08:00:25.832Z</time></trkpt><trkpt lat="41.8229367" lon="12.9704783"><ele>305.0</ele><time>2026-04-02T08:00:26.833Z</time></trkpt><trkpt lat="41.8228417" lon="12.9705367"><ele>305.0</ele><time>2026-04-02T08:00:27.829Z</time></trkpt><trkpt lat="41.82275" lon="12.9706017"><ele>305.0</ele><time>2026-04-02T08:00:28.831Z</time></trkpt><trkpt lat="41.8226583" lon="12.9706633"><ele>305.0</ele><time>2026-04-02T08:00:29.831Z</time></trkpt><trkpt lat="41.8225583" lon="12.9707183"><ele>305.0</ele><time>2026-04-02T08:00:30.832Z</time></trkpt><trkpt lat="41.822455" lon="12.9707767"><ele>305.25</ele><time>2026-04-02T08:00:31.831Z</time></trkpt><trkpt lat="41.8223517" lon="12.9708467"><ele>305.5</ele><time>2026-04-02T08:00:32.831Z</time></trkpt><trkpt lat="41.8222417" lon="12.9709133"><ele>305.75</ele><time>2026-04-02T08:00:33.832Z</time></trkpt><trkpt lat="41.82213" lon="12.9709833"><ele>306.0</ele><time>2026-04-02T08:00:34.833Z</time></trkpt><trkpt lat="41.82202" lon="12.9710533"><ele>305.0</ele><time>2026-04-02T08:00:35.831Z</time></trkpt><trkpt lat="41.821915" lon="12.97112"><ele>304.0</ele><time>2026-04-02T08:00:36.831Z</time></trkpt><trkpt lat="41.821815" lon="12.9711833"><ele>303.0</ele><time>2026-04-02T08:00:37.832Z</time></trkpt><trkpt lat="41.82171" lon="12.9712533"><ele>302.0</ele><time>2026-04-02T08:00:38.832Z</time></trkpt><trkpt lat="41.8216017" lon="12.97133"><ele>302.0</ele><time>2026-04-02T08:00:39.832Z</time></trkpt><trkpt lat="41.8214867" lon="12.97141"><ele>302.0</ele><time>2026-04-02T08:00:40.83Z</time></trkpt><trkpt lat="41.8213683" lon="12.9714967"><ele>302.0</ele><time>2026-04-02T08:00:41.829Z</time></trkpt><trkpt lat="41.8212433" lon="12.971585"><ele>302.0</ele><time>2026-04-02T08:00:42.832Z</time></trkpt><trkpt lat="41.8211167" lon="12.9716817"><ele>301.0</ele><time>2026-04-02T08:00:43.833Z</time></trkpt><trkpt lat="41.8209817" lon="12.97179"><ele>300.0</ele><time>2026-04-02T08:00:44.83Z</time></trkpt><trkpt lat="41.8208367" lon="12.9718883"><ele>299.0</ele><time>2026-04-02T08:00:45.831Z</time></trkpt><trkpt lat="41.820695" lon="12.9719867"><ele>299.0</ele><time>2026-04-02T08:00:46.831Z</time></trkpt><trkpt lat="41.8205567" lon="12.97208"><ele>299.0</ele><time>2026-04-02T08:00:47.83Z</time></trkpt><trkpt lat="41.8204183" lon="12.9721783"><ele>299.0</ele><time>2026-04-02T08:00:48.835Z</time></trkpt><trkpt lat="41.8202817" lon="12.9722783"><ele>299.0</ele><time>2026-04-02T08:00:49.831Z</time></trkpt><trkpt lat="41.8201417" lon="12.9723817"><ele>299.0</ele><time>2026-04-02T08:00:50.834Z</time></trkpt><trkpt lat="41.82001" lon="12.972485"><ele>299.0</ele><time>2026-04-02T08:00:51.832Z</time></trkpt><trkpt lat="41.8198817" lon="12.9725783"><ele>299.0</ele><time>2026-04-02T08:00:52.834Z</time></trkpt><trkpt lat="41.819755" lon="12.9726683"><ele>299.0</ele><time>2026-04-02T08:00:53.835Z</time></trkpt><trkpt lat="41.819625" lon="12.9727633"><ele>299.0</ele><time>2026-04-02T08:00:54.834Z</time></trkpt><trkpt lat="41.8194983" lon="12.9728567"><ele>299.0</ele><time>2026-04-02T08:00:55.834Z</time></trkpt><trkpt lat="41.8193733" lon="12.9729483"><ele>299.0</ele><time>2026-04-02T08:00:56.833Z</time></trkpt><trkpt lat="41.8192483" lon="12.973035"><ele>299.0</ele><time>2026-04-02T08:00:57.834Z</time></trkpt><trkpt lat="41.81913" lon="12.9731167"><ele>299.0</ele><time>2026-04-02T08:00:58.831Z</time></trkpt><trkpt lat="41.81902" lon="12.9732083"><ele>299.0</ele><time>2026-04-02T08:00:59.83Z</time></trkpt><trkpt lat="41.818905" lon="12.97328"><ele>299.0</ele><time>2026-04-02T08:01:00.832Z</time></trkpt><trkpt lat="41.8188083" lon="12.973355"><ele>299.0</ele><time>2026-04-02T08:01:01.834Z</time></trkpt><trkpt lat="41.8187083" lon="12.97344"><ele>299.0</ele><time>2026-04-02T08:01:02.831Z</time></trkpt><trkpt lat="41.8186117" lon="12.97353"><ele>299.0</ele><time>2026-04-02T08:01:03.83Z</time></trkpt><trkpt lat="41.8185133" lon="12.9736183"><ele>298.25</ele><time>2026-04-02T08:01:04.832Z</time></trkpt><trkpt lat="41.81843" lon="12.973715"><ele>297.5</ele><time>2026-04-02T08:01:05.831Z</time></trkpt><trkpt lat="41.81835" lon="12.9738233"><ele>296.75</ele><time>2026-04-02T08:01:06.831Z</time></trkpt><trkpt lat="41.818285" lon="12.9739533"><ele>296.0</ele><time>2026-04-02T08:01:07.832Z</time></trkpt><trkpt lat="41.81823" lon="12.9741067"><ele>296.0</ele><time>2026-04-02T08:01:08.833Z</time></trkpt><trkpt lat="41.81819" lon="12.9742817"><ele>296.0</ele><time>2026-04-02T08:01:09.833Z</time></trkpt><trkpt lat="41.8181633" lon="12.9744667"><ele>296.0</ele><time>2026-04-02T08:01:10.831Z</time></trkpt><trkpt lat="41.8181433" lon="12.9746467"><ele>296.0</ele><time>2026-04-02T08:01:11.83Z</time></trkpt><trkpt lat="41.8181267" lon="12.9748217"><ele>296.0</ele><time>2026-04-02T08:01:12.832Z</time></trkpt><trkpt lat="41.8181183" lon="12.9749983"><ele>296.0</ele><time>2026-04-02T08:01:13.831Z</time></trkpt><trkpt lat="41.818115" lon="12.9751683"><ele>296.0</ele><time>2026-04-02T08:01:14.833Z</time></trkpt><trkpt lat="41.81811" lon="12.975335"><ele>296.0</ele><time>2026-04-02T08:01:15.832Z</time></trkpt><trkpt lat="41.8181083" lon="12.9754983"><ele>295.5</ele><time>2026-04-02T08:01:16.831Z</time></trkpt><trkpt lat="41.8181117" lon="12.97566"><ele>295.0</ele><time>2026-04-02T08:01:17.831Z</time></trkpt><trkpt lat="41.8181083" lon="12.97582"><ele>294.5</ele><time>2026-04-02T08:01:18.833Z</time></trkpt><trkpt lat="41.8181067" lon="12.975975"><ele>294.0</ele><time>2026-04-02T08:01:19.832Z</time></trkpt><trkpt lat="41.8181017" lon="12.9761367"><ele>294.0</ele><time>2026-04-02T08:01:20.832Z</time></trkpt><trkpt lat="41.8181017" lon="12.9763033"><ele>294.0</ele><time>2026-04-02T08:01:21.831Z</time></trkpt><trkpt lat="41.8181033" lon="12.9764717"><ele>294.0</ele><time>2026-04-02T08:01:22.831Z</time></trkpt><trkpt lat="41.818105" lon="12.9766383"><ele>294.0</ele><time>2026-04-02T08:01:23.831Z</time></trkpt><trkpt lat="41.81811" lon="12.97681"><ele>293.75</ele><time>2026-04-02T08:01:24.837Z</time></trkpt><trkpt lat="41.8181067" lon="12.97698"><ele>293.5</ele><time>2026-04-02T08:01:25.833Z</time></trkpt><trkpt lat="41.8181033" lon="12.9771483"><ele>293.25</ele><time>2026-04-02T08:01:26.834Z</time></trkpt><trkpt lat="41.8181" lon="12.977315"><ele>293.0</ele><time>2026-04-02T08:01:27.834Z</time></trkpt><trkpt lat="41.818105" lon="12.9774867"><ele>292.33333333333337</ele><time>2026-04-02T08:01:28.83Z</time></trkpt><trkpt lat="41.8181083" lon="12.9776883"><ele>291.6666666666667</ele><time>2026-04-02T08:01:29.831Z</time></trkpt><trkpt lat="41.818115" lon="12.9779167"><ele>291.0</ele><time>2026-04-02T08:01:30.832Z</time></trkpt><trkpt lat="41.8181133" lon="12.978155"><ele>290.3333333333333</ele><time>2026-04-02T08:01:31.831Z</time></trkpt><trkpt lat="41.8181167" lon="12.9784017"><ele>289.66666666666663</ele><time>2026-04-02T08:01:32.832Z</time></trkpt><trkpt lat="41.8181167" lon="12.9786583"><ele>289.0</ele><time>2026-04-02T08:01:33.833Z</time></trkpt><trkpt lat="41.8181183" lon="12.97892"><ele>289.0</ele><time>2026-04-02T08:01:34.832Z</time></trkpt><trkpt lat="41.81811" lon="12.9791833"><ele>289.0</ele><time>2026-04-02T08:01:35.832Z</time></trkpt><trkpt lat="41.8181183" lon="12.9794417"><ele>289.0</ele><time>2026-04-02T08:01:36.833Z</time></trkpt><trkpt lat="41.8181283" lon="12.979695"><ele>289.0</ele><time>2026-04-02T08:01:37.832Z</time></trkpt><trkpt lat="41.8181367" lon="12.9799467"><ele>289.0</ele><time>2026-04-02T08:01:38.832Z</time></trkpt><trkpt lat="41.818155" lon="12.9801967"><ele>289.0</ele><time>2026-04-02T08:01:39.832Z</time></trkpt><trkpt lat="41.8181783" lon="12.9804417"><ele>288.3333333333333</ele><time>2026-04-02T08:01:40.831Z</time></trkpt><trkpt lat="41.8181983" lon="12.9806867"><ele>287.6666666666667</ele><time>2026-04-02T08:01:41.83Z</time></trkpt><trkpt lat="41.8182033" lon="12.980965"><ele>287.0</ele><time>2026-04-02T08:01:42.83Z</time></trkpt><trkpt lat="41.81822" lon="12.9812817"><ele>285.6666666666667</ele><time>2026-04-02T08:01:43.832Z</time></trkpt><trkpt lat="41.8182467" lon="12.9815733"><ele>284.3333333333333</ele><time>2026-04-02T08:01:44.831Z</time></trkpt><trkpt lat="41.818285" lon="12.9818583"><ele>283.0</ele><time>2026-04-02T08:01:45.831Z</time></trkpt><trkpt lat="41.8183117" lon="12.98214"><ele>283.0</ele><time>2026-04-02T08:01:46.832Z</time></trkpt><trkpt lat="41.8183367" lon="12.982415"><ele>283.0</ele><time>2026-04-02T08:01:47.831Z</time></trkpt><trkpt lat="41.8183617" lon="12.9826933"><ele>283.0</ele><time>2026-04-02T08:01:48.835Z</time></trkpt><trkpt lat="41.8183967" lon="12.9829567"><ele>282.66666666666663</ele><time>2026-04-02T08:01:49.834Z</time></trkpt><trkpt lat="41.8184317" lon="12.98321"><ele>282.3333333333333</ele><time>2026-04-02T08:01:50.833Z</time></trkpt><trkpt lat="41.81846" lon="12.9834483"><ele>282.0</ele><time>2026-04-02T08:01:51.834Z</time></trkpt><trkpt lat="41.8184883" lon="12.9836817"><ele>281.0</ele><time>2026-04-02T08:01:52.833Z</time></trkpt><trkpt lat="41.8185183" lon="12.9839133"><ele>280.0</ele><time>2026-04-02T08:01:53.834Z</time></trkpt><trkpt lat="41.8185517" lon="12.9841433"><ele>279.0</ele><time>2026-04-02T08:01:54.833Z</time></trkpt><trkpt lat="41.8185817" lon="12.984365"><ele>279.0</ele><time>2026-04-02T08:01:55.834Z</time></trkpt><trkpt lat="41.818625" lon="12.98458"><ele>279.0</ele><time>2026-04-02T08:01:56.835Z</time></trkpt><trkpt lat="41.8186867" lon="12.9847833"><ele>279.0</ele><time>2026-04-02T08:01:57.833Z</time></trkpt><trkpt lat="41.818745" lon="12.9849783"><ele>279.0</ele><time>2026-04-02T08:01:58.831Z</time></trkpt><trkpt lat="41.8188067" lon="12.9851633"><ele>279.0</ele><time>2026-04-02T08:01:59.83Z</time></trkpt><trkpt lat="41.81886" lon="12.9853383"><ele>279.0</ele><time>2026-04-02T08:02:00.833Z</time></trkpt><trkpt lat="41.818905" lon="12.9855167"><ele>279.0</ele><time>2026-04-02T08:02:01.832Z</time></trkpt><trkpt lat="41.8189383" lon="12.9856883"><ele>278.25</ele><time>2026-04-02T08:02:02.831Z</time></trkpt><trkpt lat="41.81897" lon="12.9858717"><ele>277.5</ele><time>2026-04-02T08:02:03.832Z</time></trkpt><trkpt lat="41.819005" lon="12.9860633"><ele>276.75</ele><time>2026-04-02T08:02:04.832Z</time></trkpt><trkpt lat="41.8190383" lon="12.9862633"><ele>276.0</ele><time>2026-04-02T08:02:05.831Z</time></trkpt><trkpt lat="41.8190767" lon="12.9864767"><ele>275.6666666666667</ele><time>2026-04-02T08:02:06.831Z</time></trkpt><trkpt lat="41.8191267" lon="12.986725"><ele>275.33333333333337</ele><time>2026-04-02T08:02:07.832Z</time></trkpt><trkpt lat="41.8191733" lon="12.9869933"><ele>275.0</ele><time>2026-04-02T08:02:08.831Z</time></trkpt><trkpt lat="41.8192133" lon="12.987275"><ele>275.0</ele><time>2026-04-02T08:02:09.831Z</time></trkpt><trkpt lat="41.819255" lon="12.98756"><ele>275.0</ele><time>2026-04-02T08:02:10.83Z</time></trkpt><trkpt lat="41.8192917" lon="12.9878467"><ele>275.0</ele><time>2026-04-02T08:02:11.829Z</time></trkpt><trkpt lat="41.8193233" lon="12.9881133"><ele>273.33333333333337</ele><time>2026-04-02T08:02:12.833Z</time></trkpt><trkpt lat="41.819355" lon="12.9883583"><ele>271.6666666666667</ele><time>2026-04-02T08:02:13.833Z</time></trkpt><trkpt lat="41.8193783" lon="12.9886117"><ele>270.0</ele><time>2026-04-02T08:02:14.831Z</time></trkpt><trkpt lat="41.819405" lon="12.9888483"><ele>270.0</ele><time>2026-04-02T08:02:15.832Z</time></trkpt><trkpt lat="41.8194333" lon="12.98909"><ele>270.0</ele><time>2026-04-02T08:02:16.83Z</time></trkpt><trkpt lat="41.8194633" lon="12.9893383"><ele>270.0</ele><time>2026-04-02T08:02:17.832Z</time></trkpt><trkpt lat="41.8194883" lon="12.989585"><ele>270.0</ele><time>2026-04-02T08:02:18.836Z</time></trkpt><trkpt lat="41.8195083" lon="12.98985"><ele>270.0</ele><time>2026-04-02T08:02:19.834Z</time></trkpt><trkpt lat="41.8195217" lon="12.9901233"><ele>270.0</ele><time>2026-04-02T08:02:20.835Z</time></trkpt><trkpt lat="41.8195367" lon="12.9904"><ele>269.6666666666667</ele><time>2026-04-02T08:02:21.831Z</time></trkpt><trkpt lat="41.819545" lon="12.990685"><ele>269.33333333333337</ele><time>2026-04-02T08:02:22.833Z</time></trkpt><trkpt lat="41.8195517" lon="12.990975"><ele>269.0</ele><time>2026-04-02T08:02:23.835Z</time></trkpt><trkpt lat="41.8195633" lon="12.9912717"><ele>268.5</ele><time>2026-04-02T08:02:24.834Z</time></trkpt><trkpt lat="41.819575" lon="12.9915767"><ele>268.0</ele><time>2026-04-02T08:02:25.833Z</time></trkpt><trkpt lat="41.819585" lon="12.9918883"><ele>266.5</ele><time>2026-04-02T08:02:26.833Z</time></trkpt><trkpt lat="41.8195917" lon="12.9922033"><ele>265.0</ele><time>2026-04-02T08:02:27.834Z</time></trkpt><trkpt lat="41.8196067" lon="12.99252"><ele>263.5</ele><time>2026-04-02T08:02:28.832Z</time></trkpt><trkpt lat="41.8196167" lon="12.9928433"><ele>262.0</ele><time>2026-04-02T08:02:29.833Z</time></trkpt><trkpt lat="41.819625" lon="12.99317"><ele>261.0</ele><time>2026-04-02T08:02:30.833Z</time></trkpt><trkpt lat="41.8196383" lon="12.9934933"><ele>260.0</ele><time>2026-04-02T08:02:31.832Z</time></trkpt><trkpt lat="41.8196467" lon="12.9938167"><ele>260.0</ele><time>2026-04-02T08:02:32.832Z</time></trkpt><trkpt lat="41.8196517" lon="12.994145"><ele>260.0</ele><time>2026-04-02T08:02:33.829Z</time></trkpt><trkpt lat="41.8196533" lon="12.994475"><ele>258.0</ele><time>2026-04-02T08:02:34.83Z</time></trkpt><trkpt lat="41.819665" lon="12.9948033"><ele>256.0</ele><time>2026-04-02T08:02:35.829Z</time></trkpt><trkpt lat="41.819675" lon="12.9951233"><ele>255.5</ele><time>2026-04-02T08:02:36.831Z</time></trkpt><trkpt lat="41.8196783" lon="12.9954317"><ele>255.0</ele><time>2026-04-02T08:02:37.831Z</time></trkpt><trkpt lat="41.819685" lon="12.99574"><ele>255.66666666666669</ele><time>2026-04-02T08:02:38.829Z</time></trkpt><trkpt lat="41.8196967" lon="12.9960333"><ele>256.33333333333337</ele><time>2026-04-02T08:02:39.831Z</time></trkpt><trkpt lat="41.819715" lon="12.9963283"><ele>257.0</ele><time>2026-04-02T08:02:40.829Z</time></trkpt><trkpt lat="41.819725" lon="12.9966217"><ele>257.0</ele><time>2026-04-02T08:02:41.83Z</time></trkpt><trkpt lat="41.8197383" lon="12.9968867"><ele>257.0</ele><time>2026-04-02T08:02:42.832Z</time></trkpt><trkpt lat="41.8197483" lon="12.9971483"><ele>257.0</ele><time>2026-04-02T08:02:43.831Z</time></trkpt><trkpt lat="41.8197567" lon="12.9974033"><ele>257.0</ele><time>2026-04-02T08:02:44.831Z</time></trkpt><trkpt lat="41.8197633" lon="12.9976567"><ele>257.0</ele><time>2026-04-02T08:02:45.83Z</time></trkpt><trkpt lat="41.8197767" lon="12.9979133"><ele>257.0</ele><time>2026-04-02T08:02:46.829Z</time></trkpt><trkpt lat="41.81979" lon="12.9981583"><ele>256.6666666666667</ele><time>2026-04-02T08:02:47.832Z</time></trkpt><trkpt lat="41.819805" lon="12.998395"><ele>256.3333333333333</ele><time>2026-04-02T08:02:48.834Z</time></trkpt><trkpt lat="41.8198333" lon="12.998615"><ele>256.0</ele><time>2026-04-02T08:02:49.833Z</time></trkpt><trkpt lat="41.8198833" lon="12.9988267"><ele>256.0</ele><time>2026-04-02T08:02:50.833Z</time></trkpt><trkpt lat="41.8199567" lon="12.99903"><ele>256.0</ele><time>2026-04-02T08:02:51.833Z</time></trkpt><trkpt lat="41.8200483" lon="12.9992283"><ele>256.0</ele><time>2026-04-02T08:02:52.833Z</time></trkpt><trkpt lat="41.8201517" lon="12.9994217"><ele>256.66666666666663</ele><time>2026-04-02T08:02:53.834Z</time></trkpt><trkpt lat="41.8202483" lon="12.99961"><ele>257.3333333333333</ele><time>2026-04-02T08:02:54.834Z</time></trkpt><trkpt lat="41.8203517" lon="12.9998067"><ele>258.0</ele><time>2026-04-02T08:02:55.834Z</time></trkpt><trkpt lat="41.8204517" lon="13.000005"><ele>258.0</ele><time>2026-04-02T08:02:56.834Z</time></trkpt><trkpt lat="41.8205533" lon="13.000205"><ele>258.0</ele><time>2026-04-02T08:02:57.834Z</time></trkpt><trkpt lat="41.82066" lon="13.0004083"><ele>258.0</ele><time>2026-04-02T08:02:58.832Z</time></trkpt><trkpt lat="41.8207633" lon="13.000605"><ele>258.0</ele><time>2026-04-02T08:02:59.833Z</time></trkpt><trkpt lat="41.82086" lon="13.0008167"><ele>258.0</ele><time>2026-04-02T08:03:00.833Z</time></trkpt><trkpt lat="41.8209517" lon="13.0010183"><ele>258.0</ele><time>2026-04-02T08:03:01.83Z</time></trkpt><trkpt lat="41.8210467" lon="13.00122"><ele>257.6666666666667</ele><time>2026-04-02T08:03:02.831Z</time></trkpt><trkpt lat="41.82114" lon="13.0014217"><ele>257.33333333333337</ele><time>2026-04-02T08:03:03.832Z</time></trkpt><trkpt lat="41.8212383" lon="13.0016283"><ele>257.0</ele><time>2026-04-02T08:03:04.831Z</time></trkpt><trkpt lat="41.821345" lon="13.0018417"><ele>256.6666666666667</ele><time>2026-04-02T08:03:05.832Z</time></trkpt><trkpt lat="41.8214567" lon="13.0020683"><ele>256.3333333333333</ele><time>2026-04-02T08:03:06.83Z</time></trkpt><trkpt lat="41.8215667" lon="13.00232"><ele>256.0</ele><time>2026-04-02T08:03:07.832Z</time></trkpt><trkpt lat="41.8216733" lon="13.0025767"><ele>255.0</ele><time>2026-04-02T08:03:08.829Z</time></trkpt><trkpt lat="41.8217767" lon="13.0028267"><ele>254.0</ele><time>2026-04-02T08:03:09.831Z</time></trkpt><trkpt lat="41.8218817" lon="13.0030717"><ele>253.0</ele><time>2026-04-02T08:03:10.832Z</time></trkpt><trkpt lat="41.8219767" lon="13.0032833"><ele>253.75</ele><time>2026-04-02T08:03:11.832Z</time></trkpt><trkpt lat="41.8220583" lon="13.0034683"><ele>254.5</ele><time>2026-04-02T08:03:12.831Z</time></trkpt><trkpt lat="41.822125" lon="13.0036367"><ele>255.25</ele><time>2026-04-02T08:03:13.829Z</time></trkpt><trkpt lat="41.82218" lon="13.00381"><ele>256.0</ele><time>2026-04-02T08:03:14.833Z</time></trkpt><trkpt lat="41.8222267" lon="13.0039933"><ele>255.25</ele><time>2026-04-02T08:03:15.831Z</time></trkpt><trkpt lat="41.82227" lon="13.004175"><ele>254.5</ele><time>2026-04-02T08:03:16.83Z</time></trkpt><trkpt lat="41.8223117" lon="13.004355"><ele>253.75</ele><time>2026-04-02T08:03:17.831Z</time></trkpt><trkpt lat="41.8223417" lon="13.0045367"><ele>253.0</ele><time>2026-04-02T08:03:18.833Z</time></trkpt><trkpt lat="41.8223683" lon="13.0047317"><ele>253.0</ele><time>2026-04-02T08:03:19.832Z</time></trkpt><trkpt lat="41.8223967" lon="13.0049417"><ele>253.0</ele><time>2026-04-02T08:03:20.832Z</time></trkpt><trkpt lat="41.8224267" lon="13.005165"><ele>253.0</ele><time>2026-04-02T08:03:21.832Z</time></trkpt><trkpt lat="41.8224617" lon="13.0054083"><ele>251.66666666666666</ele><time>2026-04-02T08:03:22.832Z</time></trkpt><trkpt lat="41.8225017" lon="13.005675"><ele>250.33333333333331</ele><time>2026-04-02T08:03:23.832Z</time></trkpt><trkpt lat="41.82254" lon="13.0059517"><ele>249.0</ele><time>2026-04-02T08:03:24.832Z</time></trkpt><trkpt lat="41.8225683" lon="13.0062283"><ele>248.33333333333331</ele><time>2026-04-02T08:03:25.832Z</time></trkpt><trkpt lat="41.82259" lon="13.00652"><ele>247.66666666666666</ele><time>2026-04-02T08:03:26.832Z</time></trkpt><trkpt lat="41.8226067" lon="13.0068133"><ele>247.0</ele><time>2026-04-02T08:03:27.832Z</time></trkpt><trkpt lat="41.8226183" lon="13.00709"><ele>247.0</ele><time>2026-04-02T08:03:28.83Z</time></trkpt><trkpt lat="41.82262" lon="13.007365"><ele>247.0</ele><time>2026-04-02T08:03:29.833Z</time></trkpt><trkpt lat="41.8226233" lon="13.0076117"><ele>247.0</ele><time>2026-04-02T08:03:30.833Z</time></trkpt><trkpt lat="41.82263" lon="13.0078367"><ele>247.0</ele><time>2026-04-02T08:03:31.833Z</time></trkpt><trkpt lat="41.8226333" lon="13.0080417"><ele>247.0</ele><time>2026-04-02T08:03:32.832Z</time></trkpt><trkpt lat="41.822635" lon="13.00823"><ele>247.0</ele><time>2026-04-02T08:03:33.831Z</time></trkpt><trkpt lat="41.8226383" lon="13.0084"><ele>247.0</ele><time>2026-04-02T08:03:34.832Z</time></trkpt><trkpt lat="41.82264" lon="13.00855"><ele>246.8</ele><time>2026-04-02T08:03:35.831Z</time></trkpt><trkpt lat="41.8226433" lon="13.0086867"><ele>246.6</ele><time>2026-04-02T08:03:36.832Z</time></trkpt><trkpt lat="41.8226467" lon="13.0088183"><ele>246.40000000000003</ele><time>2026-04-02T08:03:37.831Z</time></trkpt><trkpt lat="41.82265" lon="13.0089467"><ele>246.20000000000002</ele><time>2026-04-02T08:03:38.831Z</time></trkpt><trkpt lat="41.8226483" lon="13.0090833"><ele>246.0</ele><time>2026-04-02T08:03:39.83Z</time></trkpt><trkpt lat="41.8226433" lon="13.0092333"><ele>246.0</ele><time>2026-04-02T08:03:40.831Z</time></trkpt><trkpt lat="41.8226233" lon="13.0094"><ele>246.0</ele><time>2026-04-02T08:03:41.83Z</time></trkpt><trkpt lat="41.8225967" lon="13.0095817"><ele>246.0</ele><time>2026-04-02T08:03:42.83Z</time></trkpt><trkpt lat="41.8225533" lon="13.0097667"><ele>246.0</ele><time>2026-04-02T08:03:43.832Z</time></trkpt><trkpt lat="41.8224917" lon="13.00994"><ele>248.0</ele><time>2026-04-02T08:03:44.831Z</time></trkpt><trkpt lat="41.8224" lon="13.0100967"><ele>250.0</ele><time>2026-04-02T08:03:45.831Z</time></trkpt><trkpt lat="41.8222817" lon="13.010245"><ele>252.0</ele><time>2026-04-02T08:03:46.832Z</time></trkpt><trkpt lat="41.8221567" lon="13.0103883"><ele>252.0</ele><time>2026-04-02T08:03:47.832Z</time></trkpt><trkpt lat="41.8220267" lon="13.0105317"><ele>252.0</ele><time>2026-04-02T08:03:48.831Z</time></trkpt><trkpt lat="41.8218883" lon="13.0106767"><ele>252.0</ele><time>2026-04-02T08:03:49.829Z</time></trkpt><trkpt lat="41.8217417" lon="13.0108217"><ele>253.33333333333331</ele><time>2026-04-02T08:03:50.829Z</time></trkpt><trkpt lat="41.8215983" lon="13.01097"><ele>254.66666666666666</ele><time>2026-04-02T08:03:51.83Z</time></trkpt><trkpt lat="41.821455" lon="13.0111233"><ele>256.0</ele><time>2026-04-02T08:03:52.829Z</time></trkpt><trkpt lat="41.8213117" lon="13.01128"><ele>256.0</ele><time>2026-04-02T08:03:53.832Z</time></trkpt><trkpt lat="41.82117" lon="13.0114433"><ele>256.0</ele><time>2026-04-02T08:03:54.831Z</time></trkpt><trkpt lat="41.8210317" lon="13.0116117"><ele>256.0</ele><time>2026-04-02T08:03:55.832Z</time></trkpt><trkpt lat="41.8209083" lon="13.01178"><ele>255.66666666666666</ele><time>2026-04-02T08:03:56.832Z</time></trkpt><trkpt lat="41.8208117" lon="13.0119567"><ele>255.33333333333331</ele><time>2026-04-02T08:03:57.83Z</time></trkpt><trkpt lat="41.82073" lon="13.0121483"><ele>255.0</ele><time>2026-04-02T08:03:58.831Z</time></trkpt><trkpt lat="41.8206833" lon="13.0123717"><ele>257.0</ele><time>2026-04-02T08:03:59.829Z</time></trkpt><trkpt lat="41.8207133" lon="13.0126033"><ele>259.0</ele><time>2026-04-02T08:04:00.832Z</time></trkpt><trkpt lat="41.8207617" lon="13.0128183"><ele>261.0</ele><time>2026-04-02T08:04:01.832Z</time></trkpt><trkpt lat="41.8208383" lon="13.013015"><ele>261.0</ele><time>2026-04-02T08:04:02.831Z</time></trkpt><trkpt lat="41.820975" lon="13.013195"><ele>261.0</ele><time>2026-04-02T08:04:03.831Z</time></trkpt><trkpt lat="41.8211467" lon="13.0133417"><ele>261.0</ele><time>2026-04-02T08:04:04.831Z</time></trkpt><trkpt lat="41.821315" lon="13.0134717"><ele>263.3333333333333</ele><time>2026-04-02T08:04:05.832Z</time></trkpt><trkpt lat="41.8214617" lon="13.0135933"><ele>265.66666666666663</ele><time>2026-04-02T08:04:06.832Z</time></trkpt><trkpt lat="41.8215933" lon="13.01372"><ele>268.0</ele><time>2026-04-02T08:04:07.832Z</time></trkpt><trkpt lat="41.821705" lon="13.013855"><ele>268.0</ele><time>2026-04-02T08:04:08.83Z</time></trkpt><trkpt lat="41.82179" lon="13.0140267"><ele>268.0</ele><time>2026-04-02T08:04:09.831Z</time></trkpt><trkpt lat="41.82185" lon="13.0142233"><ele>268.0</ele><time>2026-04-02T08:04:10.831Z</time></trkpt><trkpt lat="41.8218683" lon="13.01444"><ele>267.3333333333333</ele><time>2026-04-02T08:04:11.831Z</time></trkpt><trkpt lat="41.8218433" lon="13.0146433"><ele>266.6666666666667</ele><time>2026-04-02T08:04:12.833Z</time></trkpt><trkpt lat="41.8217667" lon="13.0148367"><ele>266.0</ele><time>2026-04-02T08:04:13.83Z</time></trkpt><trkpt lat="41.8216633" lon="13.0150167"><ele>266.0</ele><time>2026-04-02T08:04:14.832Z</time></trkpt><trkpt lat="41.8215433" lon="13.0151767"><ele>266.0</ele><time>2026-04-02T08:04:15.832Z</time></trkpt><trkpt lat="41.8214183" lon="13.0153367"><ele>266.0</ele><time>2026-04-02T08:04:16.829Z</time></trkpt><trkpt lat="41.8213033" lon="13.0154967"><ele>266.0</ele><time>2026-04-02T08:04:17.831Z</time></trkpt><trkpt lat="41.821195" lon="13.0156467"><ele>266.0</ele><time>2026-04-02T08:04:18.832Z</time></trkpt><trkpt lat="41.8210917" lon="13.0157917"><ele>266.0</ele><time>2026-04-02T08:04:19.832Z</time></trkpt><trkpt lat="41.82099" lon="13.01594"><ele>267.5</ele><time>2026-04-02T08:04:20.831Z</time></trkpt><trkpt lat="41.8208967" lon="13.0160933"><ele>269.0</ele><time>2026-04-02T08:04:21.832Z</time></trkpt><trkpt lat="41.8208233" lon="13.0162483"><ele>270.5</ele><time>2026-04-02T08:04:22.832Z</time></trkpt><trkpt lat="41.8207583" lon="13.0164083"><ele>272.0</ele><time>2026-04-02T08:04:23.833Z</time></trkpt><trkpt lat="41.8207" lon="13.0165767"><ele>273.5</ele><time>2026-04-02T08:04:24.831Z</time></trkpt><trkpt lat="41.820645" lon="13.0167533"><ele>275.0</ele><time>2026-04-02T08:04:25.832Z</time></trkpt><trkpt lat="41.8205933" lon="13.0169367"><ele>276.5</ele><time>2026-04-02T08:04:26.833Z</time></trkpt><trkpt lat="41.8205383" lon="13.0171267"><ele>278.0</ele><time>2026-04-02T08:04:27.832Z</time></trkpt><trkpt lat="41.8204817" lon="13.0173283"><ele>278.0</ele><time>2026-04-02T08:04:28.832Z</time></trkpt><trkpt lat="41.8204283" lon="13.017545"><ele>278.0</ele><time>2026-04-02T08:04:29.832Z</time></trkpt><trkpt lat="41.820365" lon="13.017775"><ele>278.0</ele><time>2026-04-02T08:04:30.833Z</time></trkpt><trkpt lat="41.820305" lon="13.018005"><ele>278.0</ele><time>2026-04-02T08:04:31.832Z</time></trkpt><trkpt lat="41.8202383" lon="13.0182117"><ele>278.0</ele><time>2026-04-02T08:04:32.832Z</time></trkpt><trkpt lat="41.8201733" lon="13.0184133"><ele>278.0</ele><time>2026-04-02T08:04:33.833Z</time></trkpt><trkpt lat="41.8201167" lon="13.0186067"><ele>275.6666666666667</ele><time>2026-04-02T08:04:34.832Z</time></trkpt><trkpt lat="41.82005" lon="13.0187983"><ele>273.3333333333333</ele><time>2026-04-02T08:04:35.835Z</time></trkpt><trkpt lat="41.8199817" lon="13.0190033"><ele>271.0</ele><time>2026-04-02T08:04:36.834Z</time></trkpt><trkpt lat="41.819915" lon="13.01922"><ele>270.3333333333333</ele><time>2026-04-02T08:04:37.832Z</time></trkpt><trkpt lat="41.8198517" lon="13.01944"><ele>269.6666666666667</ele><time>2026-04-02T08:04:38.835Z</time></trkpt><trkpt lat="41.8197833" lon="13.0196633"><ele>269.0</ele><time>2026-04-02T08:04:39.833Z</time></trkpt><trkpt lat="41.8197233" lon="13.0198917"><ele>268.33333333333337</ele><time>2026-04-02T08:04:40.834Z</time></trkpt><trkpt lat="41.8196583" lon="13.0201333"><ele>267.6666666666667</ele><time>2026-04-02T08:04:41.832Z</time></trkpt><trkpt lat="41.8196133" lon="13.020395"><ele>267.0</ele><time>2026-04-02T08:04:42.832Z</time></trkpt><trkpt lat="41.819595" lon="13.0206783"><ele>265.5</ele><time>2026-04-02T08:04:43.834Z</time></trkpt><trkpt lat="41.819605" lon="13.0209767"><ele>264.0</ele><time>2026-04-02T08:04:44.835Z</time></trkpt><trkpt lat="41.8196333" lon="13.0212817"><ele>264.0</ele><time>2026-04-02T08:04:45.832Z</time></trkpt><trkpt lat="41.8196683" lon="13.0215917"><ele>264.0</ele><time>2026-04-02T08:04:46.833Z</time></trkpt><trkpt lat="41.8197117" lon="13.02191"><ele>263.0</ele><time>2026-04-02T08:04:47.833Z</time></trkpt><trkpt lat="41.81976" lon="13.0222283"><ele>262.0</ele><time>2026-04-02T08:04:48.835Z</time></trkpt><trkpt lat="41.8198117" lon="13.0225583"><ele>261.5</ele><time>2026-04-02T08:04:49.833Z</time></trkpt><trkpt lat="41.8198533" lon="13.0229067"><ele>261.0</ele><time>2026-04-02T08:04:50.833Z</time></trkpt><trkpt lat="41.81989" lon="13.0232517"><ele>260.0</ele><time>2026-04-02T08:04:51.833Z</time></trkpt><trkpt lat="41.8199183" lon="13.0235983"><ele>259.0</ele><time>2026-04-02T08:04:52.831Z</time></trkpt><trkpt lat="41.8199467" lon="13.0239383"><ele>257.0</ele><time>2026-04-02T08:04:53.833Z</time></trkpt><trkpt lat="41.8199783" lon="13.024275"><ele>255.0</ele><time>2026-04-02T08:04:54.834Z</time></trkpt><trkpt lat="41.82002" lon="13.024615"><ele>255.0</ele><time>2026-04-02T08:04:55.832Z</time></trkpt><trkpt lat="41.8200667" lon="13.0249517"><ele>255.0</ele><time>2026-04-02T08:04:56.833Z</time></trkpt><trkpt lat="41.820115" lon="13.025285"><ele>253.5</ele><time>2026-04-02T08:04:57.831Z</time></trkpt><trkpt lat="41.8201567" lon="13.0256183"><ele>252.0</ele><time>2026-04-02T08:04:58.832Z</time></trkpt><trkpt lat="41.8201917" lon="13.025955"><ele>251.5</ele><time>2026-04-02T08:04:59.833Z</time></trkpt><trkpt lat="41.8202267" lon="13.026295"><ele>251.0</ele><time>2026-04-02T08:05:00.833Z</time></trkpt><trkpt lat="41.820265" lon="13.0266383"><ele>251.0</ele><time>2026-04-02T08:05:01.832Z</time></trkpt><trkpt lat="41.8203017" lon="13.0269833"><ele>251.0</ele><time>2026-04-02T08:05:02.833Z</time></trkpt><trkpt lat="41.8203417" lon="13.0273317"><ele>252.0</ele><time>2026-04-02T08:05:03.832Z</time></trkpt><trkpt lat="41.8203817" lon="13.02768"><ele>253.0</ele><time>2026-04-02T08:05:04.833Z</time></trkpt><trkpt lat="41.82042" lon="13.0280283"><ele>256.5</ele><time>2026-04-02T08:05:05.832Z</time></trkpt><trkpt lat="41.820455" lon="13.0283733"><ele>260.0</ele><time>2026-04-02T08:05:06.832Z</time></trkpt><trkpt lat="41.8204883" lon="13.0287183"><ele>260.0</ele><time>2026-04-02T08:05:07.832Z</time></trkpt><trkpt lat="41.820515" lon="13.0290633"><ele>260.0</ele><time>2026-04-02T08:05:08.833Z</time></trkpt><trkpt lat="41.8205367" lon="13.0294083"><ele>261.5</ele><time>2026-04-02T08:05:09.832Z</time></trkpt><trkpt lat="41.82056" lon="13.0297617"><ele>263.0</ele><time>2026-04-02T08:05:10.833Z</time></trkpt><trkpt lat="41.8205833" lon="13.0301133"><ele>264.0</ele><time>2026-04-02T08:05:11.83Z</time></trkpt><trkpt lat="41.8206067" lon="13.0304683"><ele>265.0</ele><time>2026-04-02T08:05:12.833Z</time></trkpt><trkpt lat="41.8206317" lon="13.0308217"><ele>265.0</ele><time>2026-04-02T08:05:13.831Z</time></trkpt><trkpt lat="41.8206567" lon="13.0311733"><ele>265.0</ele><time>2026-04-02T08:05:14.832Z</time></trkpt><trkpt lat="41.820685" lon="13.03152"><ele>265.0</ele><time>2026-04-02T08:05:15.83Z</time></trkpt><trkpt lat="41.82071" lon="13.0318517"><ele>265.0</ele><time>2026-04-02T08:05:16.832Z</time></trkpt><trkpt lat="41.8207217" lon="13.0321717"><ele>265.5</ele><time>2026-04-02T08:05:17.832Z</time></trkpt><trkpt lat="41.8207133" lon="13.0324867"><ele>266.0</ele><time>2026-04-02T08:05:18.834Z</time></trkpt><trkpt lat="41.8206867" lon="13.0328"><ele>266.0</ele><time>2026-04-02T08:05:19.832Z</time></trkpt><trkpt lat="41.8206417" lon="13.0331083"><ele>266.0</ele><time>2026-04-02T08:05:20.832Z</time></trkpt><trkpt lat="41.8205833" lon="13.033415"><ele>266.5</ele><time>2026-04-02T08:05:21.833Z</time></trkpt><trkpt lat="41.8205183" lon="13.03372"><ele>267.0</ele><time>2026-04-02T08:05:22.831Z</time></trkpt><trkpt lat="41.8204533" lon="13.0340283"><ele>268.0</ele><time>2026-04-02T08:05:23.832Z</time></trkpt><trkpt lat="41.8203883" lon="13.0343333"><ele>269.0</ele><time>2026-04-02T08:05:24.836Z</time></trkpt><trkpt lat="41.8203233" lon="13.0346367"><ele>269.0</ele><time>2026-04-02T08:05:25.835Z</time></trkpt><trkpt lat="41.8202567" lon="13.0349417"><ele>269.0</ele><time>2026-04-02T08:05:26.834Z</time></trkpt><trkpt lat="41.820195" lon="13.03524"><ele>269.33333333333337</ele><time>2026-04-02T08:05:27.831Z</time></trkpt><trkpt lat="41.8201417" lon="13.03553"><ele>269.6666666666667</ele><time>2026-04-02T08:05:28.833Z</time></trkpt><trkpt lat="41.82011" lon="13.0358117"><ele>270.0</ele><time>2026-04-02T08:05:29.834Z</time></trkpt><trkpt lat="41.8201017" lon="13.036105"><ele>270.5</ele><time>2026-04-02T08:05:30.835Z</time></trkpt><trkpt lat="41.8201083" lon="13.036405"><ele>271.0</ele><time>2026-04-02T08:05:31.83Z</time></trkpt><trkpt lat="41.82013" lon="13.0367117"><ele>270.5</ele><time>2026-04-02T08:05:32.831Z</time></trkpt><trkpt lat="41.8201567" lon="13.0370217"><ele>270.0</ele><time>2026-04-02T08:05:33.833Z</time></trkpt><trkpt lat="41.82018" lon="13.0373383"><ele>270.0</ele><time>2026-04-02T08:05:34.833Z</time></trkpt><trkpt lat="41.8202017" lon="13.0376683"><ele>270.0</ele><time>2026-04-02T08:05:35.831Z</time></trkpt><trkpt lat="41.82022" lon="13.038005"><ele>271.5</ele><time>2026-04-02T08:05:36.831Z</time></trkpt><trkpt lat="41.8202467" lon="13.0383483"><ele>273.0</ele><time>2026-04-02T08:05:37.831Z</time></trkpt><trkpt lat="41.8202733" lon="13.0387033"><ele>273.0</ele><time>2026-04-02T08:05:38.832Z</time></trkpt><trkpt lat="41.8203" lon="13.0390567"><ele>273.0</ele><time>2026-04-02T08:05:39.831Z</time></trkpt><trkpt lat="41.8203217" lon="13.039405"><ele>272.5</ele><time>2026-04-02T08:05:40.831Z</time></trkpt><trkpt lat="41.8203417" lon="13.03975"><ele>272.0</ele><time>2026-04-02T08:05:41.833Z</time></trkpt><trkpt lat="41.8203633" lon="13.0400783"><ele>271.6666666666667</ele><time>2026-04-02T08:05:42.833Z</time></trkpt><trkpt lat="41.820385" lon="13.0403767"><ele>271.3333333333333</ele><time>2026-04-02T08:05:43.831Z</time></trkpt><trkpt lat="41.8204017" lon="13.0406533"><ele>271.0</ele><time>2026-04-02T08:05:44.831Z</time></trkpt><trkpt lat="41.8204167" lon="13.0409167"><ele>271.0</ele><time>2026-04-02T08:05:45.832Z</time></trkpt><trkpt lat="41.8204333" lon="13.0411717"><ele>271.0</ele><time>2026-04-02T08:05:46.832Z</time></trkpt><trkpt lat="41.820455" lon="13.04143"><ele>271.0</ele><time>2026-04-02T08:05:47.832Z</time></trkpt><trkpt lat="41.82048" lon="13.04169"><ele>271.3333333333333</ele><time>2026-04-02T08:05:48.833Z</time></trkpt><trkpt lat="41.8205117" lon="13.0419533"><ele>271.6666666666667</ele><time>2026-04-02T08:05:49.832Z</time></trkpt><trkpt lat="41.8205517" lon="13.0422217"><ele>272.0</ele><time>2026-04-02T08:05:50.833Z</time></trkpt><trkpt lat="41.8205967" lon="13.0424917"><ele>273.33333333333337</ele><time>2026-04-02T08:05:51.83Z</time></trkpt><trkpt lat="41.8206383" lon="13.0427667"><ele>274.6666666666667</ele><time>2026-04-02T08:05:52.831Z</time></trkpt><trkpt lat="41.8206883" lon="13.0430433"><ele>276.0</ele><time>2026-04-02T08:05:53.833Z</time></trkpt><trkpt lat="41.820735" lon="13.0433183"><ele>276.0</ele><time>2026-04-02T08:05:54.837Z</time></trkpt><trkpt lat="41.8207833" lon="13.043595"><ele>276.0</ele><time>2026-04-02T08:05:55.835Z</time></trkpt><trkpt lat="41.820825" lon="13.0438667"><ele>276.0</ele><time>2026-04-02T08:05:56.834Z</time></trkpt><trkpt lat="41.8208783" lon="13.0441233"><ele>276.0</ele><time>2026-04-02T08:05:57.834Z</time></trkpt><trkpt lat="41.820945" lon="13.0443667"><ele>276.0</ele><time>2026-04-02T08:05:58.833Z</time></trkpt><trkpt lat="41.8210283" lon="13.0446117"><ele>276.0</ele><time>2026-04-02T08:05:59.833Z</time></trkpt><trkpt lat="41.821125" lon="13.04486"><ele>276.0</ele><time>2026-04-02T08:06:00.832Z</time></trkpt><trkpt lat="41.8212283" lon="13.0451083"><ele>276.0</ele><time>2026-04-02T08:06:01.832Z</time></trkpt><trkpt lat="41.8213367" lon="13.0453583"><ele>276.0</ele><time>2026-04-02T08:06:02.831Z</time></trkpt><trkpt lat="41.821445" lon="13.04561"><ele>275.3333333333333</ele><time>2026-04-02T08:06:03.833Z</time></trkpt><trkpt lat="41.821545" lon="13.0458617"><ele>274.66666666666663</ele><time>2026-04-02T08:06:04.832Z</time></trkpt><trkpt lat="41.8216333" lon="13.0461217"><ele>274.0</ele><time>2026-04-02T08:06:05.832Z</time></trkpt><trkpt lat="41.821705" lon="13.0464017"><ele>272.5</ele><time>2026-04-02T08:06:06.831Z</time></trkpt><trkpt lat="41.8217483" lon="13.0467083"><ele>271.0</ele><time>2026-04-02T08:06:07.832Z</time></trkpt><trkpt lat="41.8217817" lon="13.0470233"><ele>272.0</ele><time>2026-04-02T08:06:08.833Z</time></trkpt><trkpt lat="41.8218167" lon="13.0473317"><ele>273.0</ele><time>2026-04-02T08:06:09.832Z</time></trkpt><trkpt lat="41.8218567" lon="13.04764"><ele>273.0</ele><time>2026-04-02T08:06:10.832Z</time></trkpt><trkpt lat="41.821895" lon="13.0479467"><ele>273.0</ele><time>2026-04-02T08:06:11.83Z</time></trkpt><trkpt lat="41.8219333" lon="13.0482533"><ele>273.5</ele><time>2026-04-02T08:06:12.831Z</time></trkpt><trkpt lat="41.821975" lon="13.04856"><ele>274.0</ele><time>2026-04-02T08:06:13.832Z</time></trkpt><trkpt lat="41.8220183" lon="13.048865"><ele>274.0</ele><time>2026-04-02T08:06:14.832Z</time></trkpt><trkpt lat="41.8220617" lon="13.0491667"><ele>274.0</ele><time>2026-04-02T08:06:15.833Z</time></trkpt><trkpt lat="41.8221" lon="13.0494617"><ele>274.0</ele><time>2026-04-02T08:06:16.831Z</time></trkpt><trkpt lat="41.82214" lon="13.0497567"><ele>274.0</ele><time>2026-04-02T08:06:17.832Z</time></trkpt><trkpt lat="41.8221783" lon="13.050055"><ele>274.0</ele><time>2026-04-02T08:06:18.837Z</time></trkpt><trkpt lat="41.822215" lon="13.0503583"><ele>272.5</ele><time>2026-04-02T08:06:19.835Z</time></trkpt><trkpt lat="41.822255" lon="13.0506667"><ele>271.0</ele><time>2026-04-02T08:06:20.833Z</time></trkpt><trkpt lat="41.8223" lon="13.0509783"><ele>270.5</ele><time>2026-04-02T08:06:21.833Z</time></trkpt><trkpt lat="41.8223483" lon="13.0512917"><ele>270.0</ele><time>2026-04-02T08:06:22.834Z</time></trkpt><trkpt lat="41.8224" lon="13.05161"><ele>270.0</ele><time>2026-04-02T08:06:23.834Z</time></trkpt><trkpt lat="41.8224583" lon="13.0519283"><ele>270.0</ele><time>2026-04-02T08:06:24.834Z</time></trkpt><trkpt lat="41.822525" lon="13.0522383"><ele>269.5</ele><time>2026-04-02T08:06:25.833Z</time></trkpt><trkpt lat="41.8226" lon="13.052545"><ele>269.0</ele><time>2026-04-02T08:06:26.834Z</time></trkpt><trkpt lat="41.8226783" lon="13.0528517"><ele>269.0</ele><time>2026-04-02T08:06:27.833Z</time></trkpt><trkpt lat="41.8227533" lon="13.0531583"><ele>269.0</ele><time>2026-04-02T08:06:28.832Z</time></trkpt><trkpt lat="41.822825" lon="13.0534567"><ele>268.5</ele><time>2026-04-02T08:06:29.832Z</time></trkpt><trkpt lat="41.822895" lon="13.05375"><ele>268.0</ele><time>2026-04-02T08:06:30.834Z</time></trkpt><trkpt lat="41.8229583" lon="13.0540383"><ele>266.66666666666663</ele><time>2026-04-02T08:06:31.829Z</time></trkpt><trkpt lat="41.8230067" lon="13.0543267"><ele>265.3333333333333</ele><time>2026-04-02T08:06:32.831Z</time></trkpt><trkpt lat="41.823035" lon="13.0546167"><ele>264.0</ele><time>2026-04-02T08:06:33.833Z</time></trkpt><trkpt lat="41.8230467" lon="13.0549117"><ele>264.6666666666667</ele><time>2026-04-02T08:06:34.833Z</time></trkpt><trkpt lat="41.8230633" lon="13.0551967"><ele>265.33333333333337</ele><time>2026-04-02T08:06:35.833Z</time></trkpt><trkpt lat="41.8230833" lon="13.05547"><ele>266.0</ele><time>2026-04-02T08:06:36.83Z</time></trkpt><trkpt lat="41.8231017" lon="13.0557417"><ele>266.0</ele><time>2026-04-02T08:06:37.833Z</time></trkpt><trkpt lat="41.8231217" lon="13.0560133"><ele>266.0</ele><time>2026-04-02T08:06:38.833Z</time></trkpt><trkpt lat="41.8231517" lon="13.056275"><ele>266.0</ele><time>2026-04-02T08:06:39.832Z</time></trkpt><trkpt lat="41.8232067" lon="13.056525"><ele>266.0</ele><time>2026-04-02T08:06:40.831Z</time></trkpt><trkpt lat="41.823295" lon="13.056765"><ele>266.0</ele><time>2026-04-02T08:06:41.833Z</time></trkpt><trkpt lat="41.8234167" lon="13.056985"><ele>266.0</ele><time>2026-04-02T08:06:42.832Z</time></trkpt><trkpt lat="41.8235633" lon="13.0571967"><ele>267.33333333333337</ele><time>2026-04-02T08:06:43.832Z</time></trkpt><trkpt lat="41.8237117" lon="13.057415"><ele>268.6666666666667</ele><time>2026-04-02T08:06:44.833Z</time></trkpt><trkpt lat="41.8238617" lon="13.057635"><ele>270.0</ele><time>2026-04-02T08:06:45.833Z</time></trkpt><trkpt lat="41.8240167" lon="13.0578567"><ele>270.0</ele><time>2026-04-02T08:06:46.831Z</time></trkpt><trkpt lat="41.824175" lon="13.0580783"><ele>270.0</ele><time>2026-04-02T08:06:47.831Z</time></trkpt><trkpt lat="41.8243367" lon="13.05831"><ele>270.0</ele><time>2026-04-02T08:06:48.833Z</time></trkpt><trkpt lat="41.8245" lon="13.0585433"><ele>270.0</ele><time>2026-04-02T08:06:49.833Z</time></trkpt><trkpt lat="41.8246617" lon="13.0587833"><ele>270.0</ele><time>2026-04-02T08:06:50.832Z</time></trkpt><trkpt lat="41.8248217" lon="13.0590267"><ele>270.0</ele><time>2026-04-02T08:06:51.832Z</time></trkpt><trkpt lat="41.824975" lon="13.0592833"><ele>269.5</ele><time>2026-04-02T08:06:52.833Z</time></trkpt><trkpt lat="41.8251117" lon="13.0595583"><ele>269.0</ele><time>2026-04-02T08:06:53.833Z</time></trkpt><trkpt lat="41.825235" lon="13.05985"><ele>270.5</ele><time>2026-04-02T08:06:54.835Z</time></trkpt><trkpt lat="41.825355" lon="13.06015"><ele>272.0</ele><time>2026-04-02T08:06:55.834Z</time></trkpt><trkpt lat="41.82548" lon="13.06045"><ele>272.0</ele><time>2026-04-02T08:06:56.834Z</time></trkpt><trkpt lat="41.82561" lon="13.06075"><ele>272.0</ele><time>2026-04-02T08:06:57.834Z</time></trkpt><trkpt lat="41.8257367" lon="13.061055"><ele>272.0</ele><time>2026-04-02T08:06:58.834Z</time></trkpt><trkpt lat="41.8258633" lon="13.0613567"><ele>272.0</ele><time>2026-04-02T08:06:59.832Z</time></trkpt><trkpt lat="41.8259867" lon="13.0616483"><ele>274.5</ele><time>2026-04-02T08:07:00.834Z</time></trkpt><trkpt lat="41.8261083" lon="13.06193"><ele>277.0</ele><time>2026-04-02T08:07:01.833Z</time></trkpt><trkpt lat="41.826225" lon="13.0622117"><ele>275.0</ele><time>2026-04-02T08:07:02.829Z</time></trkpt><trkpt lat="41.8263433" lon="13.06249"><ele>273.0</ele><time>2026-04-02T08:07:03.831Z</time></trkpt><trkpt lat="41.8264583" lon="13.062765"><ele>273.0</ele><time>2026-04-02T08:07:04.83Z</time></trkpt><trkpt lat="41.8265717" lon="13.063035"><ele>273.0</ele><time>2026-04-02T08:07:05.831Z</time></trkpt><trkpt lat="41.8266817" lon="13.0633017"><ele>274.0</ele><time>2026-04-02T08:07:06.83Z</time></trkpt><trkpt lat="41.82679" lon="13.0635667"><ele>275.0</ele><time>2026-04-02T08:07:07.831Z</time></trkpt><trkpt lat="41.8268983" lon="13.0638317"><ele>275.6666666666667</ele><time>2026-04-02T08:07:08.832Z</time></trkpt><trkpt lat="41.827005" lon="13.0640933"><ele>276.3333333333333</ele><time>2026-04-02T08:07:09.831Z</time></trkpt><trkpt lat="41.8271133" lon="13.0643517"><ele>277.0</ele><time>2026-04-02T08:07:10.833Z</time></trkpt><trkpt lat="41.8272217" lon="13.0646067"><ele>277.0</ele><time>2026-04-02T08:07:11.832Z</time></trkpt><trkpt lat="41.827335" lon="13.0648567"><ele>277.0</ele><time>2026-04-02T08:07:12.831Z</time></trkpt><trkpt lat="41.8274567" lon="13.065095"><ele>277.0</ele><time>2026-04-02T08:07:13.831Z</time></trkpt><trkpt lat="41.8275917" lon="13.0653133"><ele>277.66666666666663</ele><time>2026-04-02T08:07:14.832Z</time></trkpt><trkpt lat="41.827735" lon="13.06551"><ele>278.3333333333333</ele><time>2026-04-02T08:07:15.829Z</time></trkpt><trkpt lat="41.82787" lon="13.06571"><ele>279.0</ele><time>2026-04-02T08:07:16.832Z</time></trkpt><trkpt lat="41.82799" lon="13.0659333"><ele>279.3333333333333</ele><time>2026-04-02T08:07:17.831Z</time></trkpt><trkpt lat="41.8280833" lon="13.0661833"><ele>279.66666666666663</ele><time>2026-04-02T08:07:18.832Z</time></trkpt><trkpt lat="41.8281467" lon="13.0664533"><ele>280.0</ele><time>2026-04-02T08:07:19.831Z</time></trkpt><trkpt lat="41.8282067" lon="13.0667283"><ele>281.66666666666663</ele><time>2026-04-02T08:07:20.833Z</time></trkpt><trkpt lat="41.8282783" lon="13.0669933"><ele>283.3333333333333</ele><time>2026-04-02T08:07:21.833Z</time></trkpt><trkpt lat="41.828385" lon="13.0672483"><ele>285.0</ele><time>2026-04-02T08:07:22.831Z</time></trkpt><trkpt lat="41.8285017" lon="13.0674983"><ele>288.3333333333333</ele><time>2026-04-02T08:07:23.831Z</time></trkpt><trkpt lat="41.828625" lon="13.0677383"><ele>291.66666666666663</ele><time>2026-04-02T08:07:24.833Z</time></trkpt><trkpt lat="41.8287633" lon="13.0679667"><ele>295.0</ele><time>2026-04-02T08:07:25.834Z</time></trkpt><trkpt lat="41.8289283" lon="13.0681867"><ele>295.0</ele><time>2026-04-02T08:07:26.832Z</time></trkpt><trkpt lat="41.8290933" lon="13.068415"><ele>295.0</ele><time>2026-04-02T08:07:27.834Z</time></trkpt><trkpt lat="41.8292433" lon="13.0686467"><ele>298.3333333333333</ele><time>2026-04-02T08:07:28.834Z</time></trkpt><trkpt lat="41.8293733" lon="13.0688783"><ele>301.6666666666667</ele><time>2026-04-02T08:07:29.834Z</time></trkpt><trkpt lat="41.829495" lon="13.0691"><ele>305.0</ele><time>2026-04-02T08:07:30.834Z</time></trkpt><trkpt lat="41.8296167" lon="13.06932"><ele>305.33333333333337</ele><time>2026-04-02T08:07:31.831Z</time></trkpt><trkpt lat="41.8297383" lon="13.0695367"><ele>305.6666666666667</ele><time>2026-04-02T08:07:32.83Z</time></trkpt><trkpt lat="41.8298483" lon="13.06976"><ele>306.0</ele><time>2026-04-02T08:07:33.831Z</time></trkpt><trkpt lat="41.8299483" lon="13.0699917"><ele>305.3333333333333</ele><time>2026-04-02T08:07:34.831Z</time></trkpt><trkpt lat="41.830025" lon="13.0702383"><ele>304.66666666666663</ele><time>2026-04-02T08:07:35.831Z</time></trkpt><trkpt lat="41.8300933" lon="13.0704933"><ele>304.0</ele><time>2026-04-02T08:07:36.833Z</time></trkpt><trkpt lat="41.8301583" lon="13.0707367"><ele>310.0</ele><time>2026-04-02T08:07:37.834Z</time></trkpt><trkpt lat="41.8302217" lon="13.070955"><ele>316.0</ele><time>2026-04-02T08:07:38.829Z</time></trkpt><trkpt lat="41.8302733" lon="13.0711517"><ele>322.0</ele><time>2026-04-02T08:07:39.831Z</time></trkpt><trkpt lat="41.83032" lon="13.0713283"><ele>322.0</ele><time>2026-04-02T08:07:40.832Z</time></trkpt><trkpt lat="41.8303583" lon="13.071485"><ele>322.0</ele><time>2026-04-02T08:07:41.831Z</time></trkpt><trkpt lat="41.830395" lon="13.0716233"><ele>322.0</ele><time>2026-04-02T08:07:42.833Z</time></trkpt><trkpt lat="41.8304267" lon="13.07176"><ele>322.0</ele><time>2026-04-02T08:07:43.83Z</time></trkpt><trkpt lat="41.83046" lon="13.0718983"><ele>322.0</ele><time>2026-04-02T08:07:44.828Z</time></trkpt><trkpt lat="41.8304883" lon="13.0720433"><ele>322.0</ele><time>2026-04-02T08:07:45.832Z</time></trkpt><trkpt lat="41.830525" lon="13.072195"><ele>322.0</ele><time>2026-04-02T08:07:46.833Z</time></trkpt><trkpt lat="41.83057" lon="13.07235"><ele>322.0</ele><time>2026-04-02T08:07:47.831Z</time></trkpt><trkpt lat="41.8306233" lon="13.07251"><ele>322.0</ele><time>2026-04-02T08:07:48.834Z</time></trkpt><trkpt lat="41.83067" lon="13.0726783"><ele>322.0</ele><time>2026-04-02T08:07:49.834Z</time></trkpt><trkpt lat="41.830715" lon="13.07285"><ele>322.0</ele><time>2026-04-02T08:07:50.833Z</time></trkpt><trkpt lat="41.8307617" lon="13.07303"><ele>322.0</ele><time>2026-04-02T08:07:51.832Z</time></trkpt><trkpt lat="41.8308133" lon="13.073215"><ele>322.0</ele><time>2026-04-02T08:07:52.833Z</time></trkpt><trkpt lat="41.8308583" lon="13.073405"><ele>322.0</ele><time>2026-04-02T08:07:53.833Z</time></trkpt><trkpt lat="41.8309167" lon="13.073605"><ele>322.0</ele><time>2026-04-02T08:07:54.832Z</time></trkpt><trkpt lat="41.830975" lon="13.07381"><ele>322.0</ele><time>2026-04-02T08:07:55.833Z</time></trkpt><trkpt lat="41.8310317" lon="13.0740083"><ele>325.0</ele><time>2026-04-02T08:07:56.833Z</time></trkpt><trkpt lat="41.8310883" lon="13.07421"><ele>328.0</ele><time>2026-04-02T08:07:57.831Z</time></trkpt><trkpt lat="41.8311433" lon="13.074415"><ele>331.0</ele><time>2026-04-02T08:07:58.833Z</time></trkpt><trkpt lat="41.8311983" lon="13.0746267"><ele>331.0</ele><time>2026-04-02T08:07:59.834Z</time></trkpt><trkpt lat="41.8312517" lon="13.0748433"><ele>331.0</ele><time>2026-04-02T08:08:00.834Z</time></trkpt><trkpt lat="41.8313083" lon="13.0750617"><ele>331.0</ele><time>2026-04-02T08:08:01.831Z</time></trkpt><trkpt lat="41.8313667" lon="13.075285"><ele>331.66666666666663</ele><time>2026-04-02T08:08:02.831Z</time></trkpt><trkpt lat="41.83143" lon="13.075505"><ele>332.3333333333333</ele><time>2026-04-02T08:08:03.832Z</time></trkpt><trkpt lat="41.8314833" lon="13.075715"><ele>333.0</ele><time>2026-04-02T08:08:04.83Z</time></trkpt><trkpt lat="41.8315417" lon="13.07592"><ele>334.0</ele><time>2026-04-02T08:08:05.829Z</time></trkpt><trkpt lat="41.8316083" lon="13.0761233"><ele>335.0</ele><time>2026-04-02T08:08:06.831Z</time></trkpt><trkpt lat="41.83168" lon="13.0763283"><ele>336.0</ele><time>2026-04-02T08:08:07.832Z</time></trkpt><trkpt lat="41.83176" lon="13.07653"><ele>339.6666666666667</ele><time>2026-04-02T08:08:08.831Z</time></trkpt><trkpt lat="41.8318433" lon="13.0767317"><ele>343.33333333333337</ele><time>2026-04-02T08:08:09.829Z</time></trkpt><trkpt lat="41.8319317" lon="13.076925"><ele>347.0</ele><time>2026-04-02T08:08:10.831Z</time></trkpt><trkpt lat="41.8320233" lon="13.0771083"><ele>347.0</ele><time>2026-04-02T08:08:11.832Z</time></trkpt><trkpt lat="41.8321083" lon="13.077285"><ele>347.0</ele><time>2026-04-02T08:08:12.833Z</time></trkpt><trkpt lat="41.8321883" lon="13.0774517"><ele>347.0</ele><time>2026-04-02T08:08:13.832Z</time></trkpt><trkpt lat="41.8322583" lon="13.0776117"><ele>347.0</ele><time>2026-04-02T08:08:14.83Z</time></trkpt><trkpt lat="41.8323117" lon="13.0777683"><ele>347.25</ele><time>2026-04-02T08:08:15.83Z</time></trkpt><trkpt lat="41.8323517" lon="13.0779333"><ele>347.5</ele><time>2026-04-02T08:08:16.831Z</time></trkpt><trkpt lat="41.832375" lon="13.0781"><ele>347.75</ele><time>2026-04-02T08:08:17.831Z</time></trkpt><trkpt lat="41.8323617" lon="13.0782717"><ele>348.0</ele><time>2026-04-02T08:08:18.834Z</time></trkpt><trkpt lat="41.8323333" lon="13.0784483"><ele>348.0</ele><time>2026-04-02T08:08:19.833Z</time></trkpt><trkpt lat="41.83228" lon="13.0786133"><ele>348.0</ele><time>2026-04-02T08:08:20.832Z</time></trkpt><trkpt lat="41.832215" lon="13.0787683"><ele>348.0</ele><time>2026-04-02T08:08:21.832Z</time></trkpt><trkpt lat="41.8321467" lon="13.07892"><ele>348.0</ele><time>2026-04-02T08:08:22.833Z</time></trkpt><trkpt lat="41.832085" lon="13.0790717"><ele>349.5</ele><time>2026-04-02T08:08:23.834Z</time></trkpt><trkpt lat="41.83203" lon="13.0792367"><ele>351.0</ele><time>2026-04-02T08:08:24.833Z</time></trkpt><trkpt lat="41.83199" lon="13.0794167"><ele>352.5</ele><time>2026-04-02T08:08:25.834Z</time></trkpt><trkpt lat="41.8319617" lon="13.079605"><ele>354.0</ele><time>2026-04-02T08:08:26.834Z</time></trkpt><trkpt lat="41.831945" lon="13.0798"><ele>354.5</ele><time>2026-04-02T08:08:27.834Z</time></trkpt><trkpt lat="41.8319383" lon="13.0800017"><ele>355.0</ele><time>2026-04-02T08:08:28.833Z</time></trkpt><trkpt lat="41.8319383" lon="13.080195"><ele>355.5</ele><time>2026-04-02T08:08:29.834Z</time></trkpt><trkpt lat="41.8319467" lon="13.08038"><ele>356.0</ele><time>2026-04-02T08:08:30.832Z</time></trkpt><trkpt lat="41.8319617" lon="13.08056"><ele>356.0</ele><time>2026-04-02T08:08:31.829Z</time></trkpt><trkpt lat="41.8319917" lon="13.08074"><ele>356.0</ele><time>2026-04-02T08:08:32.832Z</time></trkpt><trkpt lat="41.8320367" lon="13.0809167"><ele>356.0</ele><time>2026-04-02T08:08:33.831Z</time></trkpt><trkpt lat="41.8320933" lon="13.0810783"><ele>356.0</ele><time>2026-04-02T08:08:34.833Z</time></trkpt><trkpt lat="41.8321567" lon="13.081225"><ele>356.75</ele><time>2026-04-02T08:08:35.832Z</time></trkpt><trkpt lat="41.8322217" lon="13.08136"><ele>357.5</ele><time>2026-04-02T08:08:36.833Z</time></trkpt><trkpt lat="41.8322917" lon="13.081485"><ele>358.25</ele><time>2026-04-02T08:08:37.83Z</time></trkpt><trkpt lat="41.8323583" lon="13.081605"><ele>359.0</ele><time>2026-04-02T08:08:38.832Z</time></trkpt><trkpt lat="41.832425" lon="13.0817233"><ele>361.0</ele><time>2026-04-02T08:08:39.83Z</time></trkpt><trkpt lat="41.8324783" lon="13.0818533"><ele>363.0</ele><time>2026-04-02T08:08:40.829Z</time></trkpt><trkpt lat="41.832515" lon="13.081995"><ele>365.0</ele><time>2026-04-02T08:08:41.831Z</time></trkpt><trkpt lat="41.8325317" lon="13.0821517"><ele>367.0</ele><time>2026-04-02T08:08:42.833Z</time></trkpt><trkpt lat="41.832535" lon="13.08232"><ele>368.25</ele><time>2026-04-02T08:08:43.833Z</time></trkpt><trkpt lat="41.832535" lon="13.0824933"><ele>369.5</ele><time>2026-04-02T08:08:44.83Z</time></trkpt><trkpt lat="41.8325317" lon="13.0826783"><ele>370.75</ele><time>2026-04-02T08:08:45.829Z</time></trkpt><trkpt lat="41.8325183" lon="13.08287"><ele>372.0</ele><time>2026-04-02T08:08:46.831Z</time></trkpt><trkpt lat="41.8324917" lon="13.083065"><ele>372.0</ele><time>2026-04-02T08:08:47.83Z</time></trkpt><trkpt lat="41.83246" lon="13.083255"><ele>372.0</ele><time>2026-04-02T08:08:48.833Z</time></trkpt><trkpt lat="41.832415" lon="13.0834433"><ele>372.0</ele><time>2026-04-02T08:08:49.833Z</time></trkpt><trkpt lat="41.8323783" lon="13.0836333"><ele>372.0</ele><time>2026-04-02T08:08:50.832Z</time></trkpt><trkpt lat="41.8323467" lon="13.08382"><ele>372.5</ele><time>2026-04-02T08:08:51.831Z</time></trkpt><trkpt lat="41.8323333" lon="13.0840067"><ele>373.0</ele><time>2026-04-02T08:08:52.832Z</time></trkpt><trkpt lat="41.832325" lon="13.0842"><ele>373.5</ele><time>2026-04-02T08:08:53.83Z</time></trkpt><trkpt lat="41.8323133" lon="13.08437"><ele>374.0</ele><time>2026-04-02T08:08:54.83Z</time></trkpt><trkpt lat="41.8323033" lon="13.08455"><ele>374.0</ele><time>2026-04-02T08:08:55.832Z</time></trkpt><trkpt lat="41.8323033" lon="13.084735"><ele>374.0</ele><time>2026-04-02T08:08:56.829Z</time></trkpt><trkpt lat="41.8323083" lon="13.0849067"><ele>374.0</ele><time>2026-04-02T08:08:57.831Z</time></trkpt><trkpt lat="41.832315" lon="13.0850667"><ele>374.0</ele><time>2026-04-02T08:08:58.831Z</time></trkpt><trkpt lat="41.8323183" lon="13.08523"><ele>374.5</ele><time>2026-04-02T08:08:59.832Z</time></trkpt><trkpt lat="41.8323283" lon="13.085395"><ele>375.0</ele><time>2026-04-02T08:09:00.833Z</time></trkpt><trkpt lat="41.8323583" lon="13.0855467"><ele>375.5</ele><time>2026-04-02T08:09:01.83Z</time></trkpt><trkpt lat="41.8324033" lon="13.0856867"><ele>376.0</ele><time>2026-04-02T08:09:02.831Z</time></trkpt><trkpt lat="41.8324683" lon="13.0858117"><ele>377.25</ele><time>2026-04-02T08:09:03.829Z</time></trkpt><trkpt lat="41.8325383" lon="13.0859217"><ele>378.5</ele><time>2026-04-02T08:09:04.832Z</time></trkpt><trkpt lat="41.83262" lon="13.0859967"><ele>379.75</ele><time>2026-04-02T08:09:05.832Z</time></trkpt><trkpt lat="41.8327233" lon="13.0860317"><ele>381.0</ele><time>2026-04-02T08:09:06.832Z</time></trkpt><trkpt lat="41.8328617" lon="13.0860067"><ele>379.5</ele><time>2026-04-02T08:09:07.832Z</time></trkpt><trkpt lat="41.832995" lon="13.0859333"><ele>378.0</ele><time>2026-04-02T08:09:08.832Z</time></trkpt><trkpt lat="41.8331033" lon="13.08586"><ele>376.5</ele><time>2026-04-02T08:09:09.833Z</time></trkpt><trkpt lat="41.8332067" lon="13.085795"><ele>375.0</ele><time>2026-04-02T08:09:10.833Z</time></trkpt><trkpt lat="41.8333133" lon="13.08573"><ele>375.0</ele><time>2026-04-02T08:09:11.834Z</time></trkpt><trkpt lat="41.8334183" lon="13.08566"><ele>375.0</ele><time>2026-04-02T08:09:12.832Z</time></trkpt><trkpt lat="41.83352" lon="13.0856"><ele>375.0</ele><time>2026-04-02T08:09:13.832Z</time></trkpt><trkpt lat="41.8336267" lon="13.0855633"><ele>375.0</ele><time>2026-04-02T08:09:14.831Z</time></trkpt><trkpt lat="41.833735" lon="13.0855783"><ele>375.0</ele><time>2026-04-02T08:09:15.833Z</time></trkpt><trkpt lat="41.83384" lon="13.0856267"><ele>375.75</ele><time>2026-04-02T08:09:16.834Z</time></trkpt><trkpt lat="41.8339367" lon="13.0856833"><ele>376.5</ele><time>2026-04-02T08:09:17.832Z</time></trkpt><trkpt lat="41.834035" lon="13.08577"><ele>377.25</ele><time>2026-04-02T08:09:18.83Z</time></trkpt><trkpt lat="41.8341333" lon="13.08586"><ele>378.0</ele><time>2026-04-02T08:09:19.83Z</time></trkpt><trkpt lat="41.8342317" lon="13.0859633"><ele>382.0</ele><time>2026-04-02T08:09:20.829Z</time></trkpt><trkpt lat="41.834335" lon="13.0860817"><ele>386.0</ele><time>2026-04-02T08:09:21.831Z</time></trkpt><trkpt lat="41.83444" lon="13.0862"><ele>390.0</ele><time>2026-04-02T08:09:22.831Z</time></trkpt><trkpt lat="41.8345517" lon="13.0863383"><ele>394.0</ele><time>2026-04-02T08:09:23.831Z</time></trkpt><trkpt lat="41.8346567" lon="13.086455"><ele>394.0</ele><time>2026-04-02T08:09:24.834Z</time></trkpt><trkpt lat="41.8347633" lon="13.0865667"><ele>394.0</ele><time>2026-04-02T08:09:25.833Z</time></trkpt><trkpt lat="41.8348633" lon="13.086675"><ele>394.0</ele><time>2026-04-02T08:09:26.833Z</time></trkpt><trkpt lat="41.83496" lon="13.08678"><ele>394.0</ele><time>2026-04-02T08:09:27.831Z</time></trkpt><trkpt lat="41.8350483" lon="13.0868817"><ele>395.4</ele><time>2026-04-02T08:09:28.829Z</time></trkpt><trkpt lat="41.835135" lon="13.0869783"><ele>396.79999999999995</ele><time>2026-04-02T08:09:29.832Z</time></trkpt><trkpt lat="41.83521" lon="13.0870833"><ele>398.20000000000005</ele><time>2026-04-02T08:09:30.83Z</time></trkpt><trkpt lat="41.8352683" lon="13.0871967"><ele>399.6</ele><time>2026-04-02T08:09:31.832Z</time></trkpt><trkpt lat="41.83532" lon="13.087315"><ele>401.0</ele><time>2026-04-02T08:09:32.832Z</time></trkpt><trkpt lat="41.8353617" lon="13.0874517"><ele>402.75</ele><time>2026-04-02T08:09:33.832Z</time></trkpt><trkpt lat="41.8353683" lon="13.0876067"><ele>404.5</ele><time>2026-04-02T08:09:34.832Z</time></trkpt><trkpt lat="41.835375" lon="13.0877667"><ele>406.25</ele><time>2026-04-02T08:09:35.83Z</time></trkpt><trkpt lat="41.8353733" lon="13.0879367"><ele>408.0</ele><time>2026-04-02T08:09:36.833Z</time></trkpt><trkpt lat="41.8353783" lon="13.0881183"><ele>409.5</ele><time>2026-04-02T08:09:37.833Z</time></trkpt><trkpt lat="41.8353817" lon="13.0883133"><ele>411.0</ele><time>2026-04-02T08:09:38.831Z</time></trkpt><trkpt lat="41.8353867" lon="13.0885117"><ele>412.5</ele><time>2026-04-02T08:09:39.831Z</time></trkpt><trkpt lat="41.8353933" lon="13.0887067"><ele>414.0</ele><time>2026-04-02T08:09:40.831Z</time></trkpt><trkpt lat="41.8353917" lon="13.0889067"><ele>415.25</ele><time>2026-04-02T08:09:41.831Z</time></trkpt><trkpt lat="41.8353883" lon="13.089115"><ele>416.5</ele><time>2026-04-02T08:09:42.832Z</time></trkpt><trkpt lat="41.8353867" lon="13.0893117"><ele>417.75</ele><time>2026-04-02T08:09:43.833Z</time></trkpt><trkpt lat="41.8353783" lon="13.0895083"><ele>419.0</ele><time>2026-04-02T08:09:44.833Z</time></trkpt><trkpt lat="41.8353683" lon="13.0896933"><ele>419.0</ele><time>2026-04-02T08:09:45.832Z</time></trkpt><trkpt lat="41.8353383" lon="13.0898733"><ele>419.0</ele><time>2026-04-02T08:09:46.834Z</time></trkpt><trkpt lat="41.8352833" lon="13.090045"><ele>419.0</ele><time>2026-04-02T08:09:47.833Z</time></trkpt><trkpt lat="41.83522" lon="13.0902"><ele>419.0</ele><time>2026-04-02T08:09:48.832Z</time></trkpt><trkpt lat="41.8351517" lon="13.090345"><ele>418.75</ele><time>2026-04-02T08:09:49.833Z</time></trkpt><trkpt lat="41.8350717" lon="13.0904767"><ele>418.5</ele><time>2026-04-02T08:09:50.832Z</time></trkpt><trkpt lat="41.8349767" lon="13.090605"><ele>418.25</ele><time>2026-04-02T08:09:51.832Z</time></trkpt><trkpt lat="41.834875" lon="13.0907317"><ele>418.0</ele><time>2026-04-02T08:09:52.832Z</time></trkpt><trkpt lat="41.8347667" lon="13.090865"><ele>418.0</ele><time>2026-04-02T08:09:53.833Z</time></trkpt><trkpt lat="41.83466" lon="13.0910033"><ele>418.0</ele><time>2026-04-02T08:09:54.833Z</time></trkpt><trkpt lat="41.8345617" lon="13.0911483"><ele>418.0</ele><time>2026-04-02T08:09:55.832Z</time></trkpt><trkpt lat="41.8344733" lon="13.0913"><ele>418.0</ele><time>2026-04-02T08:09:56.831Z</time></trkpt><trkpt lat="41.834405" lon="13.0914667"><ele>417.75</ele><time>2026-04-02T08:09:57.832Z</time></trkpt><trkpt lat="41.8343533" lon="13.0916517"><ele>417.5</ele><time>2026-04-02T08:09:58.833Z</time></trkpt><trkpt lat="41.8343083" lon="13.09184"><ele>417.25</ele><time>2026-04-02T08:09:59.832Z</time></trkpt><trkpt lat="41.83427" lon="13.0920317"><ele>417.0</ele><time>2026-04-02T08:10:00.833Z</time></trkpt><trkpt lat="41.8342417" lon="13.0922117"><ele>417.0</ele><time>2026-04-02T08:10:01.832Z</time></trkpt><trkpt lat="41.8342217" lon="13.092375"><ele>417.0</ele><time>2026-04-02T08:10:02.833Z</time></trkpt><trkpt lat="41.8342333" lon="13.0925433"><ele>417.0</ele><time>2026-04-02T08:10:03.833Z</time></trkpt><trkpt lat="41.8342867" lon="13.0927133"><ele>417.0</ele><time>2026-04-02T08:10:04.834Z</time></trkpt><trkpt lat="41.8343383" lon="13.092885"><ele>422.33333333333337</ele><time>2026-04-02T08:10:05.833Z</time></trkpt><trkpt lat="41.8344" lon="13.0930633"><ele>427.6666666666667</ele><time>2026-04-02T08:10:06.832Z</time></trkpt><trkpt lat="41.83447" lon="13.093245"><ele>433.0</ele><time>2026-04-02T08:10:07.833Z</time></trkpt><trkpt lat="41.8345383" lon="13.0934267"><ele>434.75</ele><time>2026-04-02T08:10:08.833Z</time></trkpt><trkpt lat="41.8345967" lon="13.09361"><ele>436.5</ele><time>2026-04-02T08:10:09.833Z</time></trkpt><trkpt lat="41.8346333" lon="13.0937983"><ele>438.25</ele><time>2026-04-02T08:10:10.831Z</time></trkpt><trkpt lat="41.8346517" lon="13.0939883"><ele>440.0</ele><time>2026-04-02T08:10:11.833Z</time></trkpt><trkpt lat="41.8346783" lon="13.0941767"><ele>440.75</ele><time>2026-04-02T08:10:12.833Z</time></trkpt><trkpt lat="41.8346967" lon="13.09437"><ele>441.5</ele><time>2026-04-02T08:10:13.832Z</time></trkpt><trkpt lat="41.8346983" lon="13.0945617"><ele>442.25</ele><time>2026-04-02T08:10:14.833Z</time></trkpt><trkpt lat="41.834685" lon="13.094755"><ele>443.0</ele><time>2026-04-02T08:10:15.833Z</time></trkpt><trkpt lat="41.8346583" lon="13.09495"><ele>444.0</ele><time>2026-04-02T08:10:16.832Z</time></trkpt><trkpt lat="41.8346167" lon="13.095135"><ele>445.0</ele><time>2026-04-02T08:10:17.832Z</time></trkpt><trkpt lat="41.8345617" lon="13.0953167"><ele>446.0</ele><time>2026-04-02T08:10:18.833Z</time></trkpt><trkpt lat="41.8345" lon="13.0955017"><ele>447.0</ele><time>2026-04-02T08:10:19.833Z</time></trkpt><trkpt lat="41.8344383" lon="13.0956767"><ele>446.75</ele><time>2026-04-02T08:10:20.832Z</time></trkpt><trkpt lat="41.8343717" lon="13.0958483"><ele>446.5</ele><time>2026-04-02T08:10:21.83Z</time></trkpt><trkpt lat="41.8343183" lon="13.0960317"><ele>446.25</ele><time>2026-04-02T08:10:22.832Z</time></trkpt><trkpt lat="41.8342783" lon="13.096225"><ele>446.0</ele><time>2026-04-02T08:10:23.833Z</time></trkpt><trkpt lat="41.834245" lon="13.09643"><ele>448.0</ele><time>2026-04-02T08:10:24.833Z</time></trkpt><trkpt lat="41.8342083" lon="13.0966417"><ele>450.0</ele><time>2026-04-02T08:10:25.834Z</time></trkpt><trkpt lat="41.834175" lon="13.09684"><ele>452.0</ele><time>2026-04-02T08:10:26.834Z</time></trkpt><trkpt lat="41.83415" lon="13.097015"><ele>454.0</ele><time>2026-04-02T08:10:27.833Z</time></trkpt><trkpt lat="41.83413" lon="13.0971733"><ele>454.00000000000006</ele><time>2026-04-02T08:10:28.833Z</time></trkpt><trkpt lat="41.8341183" lon="13.09731"><ele>454.0</ele><time>2026-04-02T08:10:29.835Z</time></trkpt><trkpt lat="41.8341117" lon="13.09743"><ele>454.0</ele><time>2026-04-02T08:10:30.835Z</time></trkpt><trkpt lat="41.83411" lon="13.0975317"><ele>454.0</ele><time>2026-04-02T08:10:31.832Z</time></trkpt><trkpt lat="41.83412" lon="13.0976567"><ele>454.00000000000006</ele><time>2026-04-02T08:10:33.833Z</time></trkpt><trkpt lat="41.83412" lon="13.0977517"><ele>454.0</ele><time>2026-04-02T08:10:47.831Z</time></trkpt><trkpt lat="41.8341283" lon="13.0978717"><ele>455.0</ele><time>2026-04-02T08:10:49.831Z</time></trkpt><trkpt lat="41.8341367" lon="13.0980267"><ele>456.0</ele><time>2026-04-02T08:10:51.831Z</time></trkpt><trkpt lat="41.8341317" lon="13.0981233"><ele>457.0</ele><time>2026-04-02T08:10:52.831Z</time></trkpt><trkpt lat="41.834115" lon="13.098235"><ele>458.0</ele><time>2026-04-02T08:10:53.833Z</time></trkpt><trkpt lat="41.83408" lon="13.09836"><ele>459.0</ele><time>2026-04-02T08:10:54.834Z</time></trkpt><trkpt lat="41.834035" lon="13.0984917"><ele>460.25</ele><time>2026-04-02T08:10:55.831Z</time></trkpt><trkpt lat="41.8339867" lon="13.0986233"><ele>461.5</ele><time>2026-04-02T08:10:56.833Z</time></trkpt><trkpt lat="41.833935" lon="13.0987617"><ele>462.75</ele><time>2026-04-02T08:10:57.833Z</time></trkpt><trkpt lat="41.8338833" lon="13.0989067"><ele>464.0</ele><time>2026-04-02T08:10:58.83Z</time></trkpt><trkpt lat="41.8338233" lon="13.0990533"><ele>466.0</ele><time>2026-04-02T08:10:59.832Z</time></trkpt><trkpt lat="41.8337567" lon="13.0992017"><ele>468.0</ele><time>2026-04-02T08:11:00.832Z</time></trkpt><trkpt lat="41.833685" lon="13.09935"><ele>470.0</ele><time>2026-04-02T08:11:01.832Z</time></trkpt><trkpt lat="41.83361" lon="13.0995017"><ele>472.0</ele><time>2026-04-02T08:11:02.833Z</time></trkpt><trkpt lat="41.8335317" lon="13.09964"><ele>472.0</ele><time>2026-04-02T08:11:03.832Z</time></trkpt><trkpt lat="41.8334733" lon="13.0997767"><ele>472.0</ele><time>2026-04-02T08:11:04.831Z</time></trkpt><trkpt lat="41.833435" lon="13.0999183"><ele>472.0</ele><time>2026-04-02T08:11:05.83Z</time></trkpt><trkpt lat="41.8334067" lon="13.1000683"><ele>472.0</ele><time>2026-04-02T08:11:06.831Z</time></trkpt><trkpt lat="41.8333783" lon="13.10022"><ele>471.5</ele><time>2026-04-02T08:11:07.831Z</time></trkpt><trkpt lat="41.8333517" lon="13.1003717"><ele>471.0</ele><time>2026-04-02T08:11:08.833Z</time></trkpt><trkpt lat="41.83333" lon="13.1005267"><ele>470.5</ele><time>2026-04-02T08:11:09.833Z</time></trkpt><trkpt lat="41.833305" lon="13.1006717"><ele>470.0</ele><time>2026-04-02T08:11:10.832Z</time></trkpt><trkpt lat="41.8332767" lon="13.1008167"><ele>471.6</ele><time>2026-04-02T08:11:11.829Z</time></trkpt><trkpt lat="41.83325" lon="13.1009617"><ele>473.2</ele><time>2026-04-02T08:11:12.83Z</time></trkpt><trkpt lat="41.833225" lon="13.1011083"><ele>474.79999999999995</ele><time>2026-04-02T08:11:13.833Z</time></trkpt><trkpt lat="41.8331983" lon="13.101255"><ele>476.4</ele><time>2026-04-02T08:11:14.832Z</time></trkpt><trkpt lat="41.8331667" lon="13.1013967"><ele>478.0</ele><time>2026-04-02T08:11:15.833Z</time></trkpt><trkpt lat="41.8331333" lon="13.1015367"><ele>480.0</ele><time>2026-04-02T08:11:16.832Z</time></trkpt><trkpt lat="41.8331033" lon="13.10169"><ele>482.0</ele><time>2026-04-02T08:11:17.832Z</time></trkpt><trkpt lat="41.83307" lon="13.1018583"><ele>484.0</ele><time>2026-04-02T08:11:18.833Z</time></trkpt><trkpt lat="41.83302" lon="13.1020367"><ele>486.0</ele><time>2026-04-02T08:11:19.831Z</time></trkpt><trkpt lat="41.8329567" lon="13.1022233"><ele>486.0</ele><time>2026-04-02T08:11:20.83Z</time></trkpt><trkpt lat="41.8328833" lon="13.102405"><ele>486.0</ele><time>2026-04-02T08:11:21.829Z</time></trkpt><trkpt lat="41.8328067" lon="13.10257"><ele>486.0</ele><time>2026-04-02T08:11:22.831Z</time></trkpt><trkpt lat="41.8327217" lon="13.1027217"><ele>486.0</ele><time>2026-04-02T08:11:23.831Z</time></trkpt><trkpt lat="41.832625" lon="13.102865"><ele>485.25</ele><time>2026-04-02T08:11:24.833Z</time></trkpt><trkpt lat="41.8325183" lon="13.1029933"><ele>484.5</ele><time>2026-04-02T08:11:25.833Z</time></trkpt><trkpt lat="41.8324167" lon="13.1030967"><ele>483.75</ele><time>2026-04-02T08:11:26.833Z</time></trkpt><trkpt lat="41.8323083" lon="13.103185"><ele>483.0</ele><time>2026-04-02T08:11:27.832Z</time></trkpt><trkpt lat="41.8322" lon="13.1032717"><ele>485.25</ele><time>2026-04-02T08:11:28.832Z</time></trkpt><trkpt lat="41.832085" lon="13.10336"><ele>487.5</ele><time>2026-04-02T08:11:29.833Z</time></trkpt><trkpt lat="41.8319733" lon="13.1034567"><ele>489.75</ele><time>2026-04-02T08:11:30.831Z</time></trkpt><trkpt lat="41.8318617" lon="13.1035583"><ele>492.0</ele><time>2026-04-02T08:11:31.833Z</time></trkpt><trkpt lat="41.8317517" lon="13.10367"><ele>492.0</ele><time>2026-04-02T08:11:32.833Z</time></trkpt><trkpt lat="41.8316433" lon="13.1037883"><ele>492.0</ele><time>2026-04-02T08:11:33.833Z</time></trkpt><trkpt lat="41.8315483" lon="13.1039233"><ele>492.0</ele><time>2026-04-02T08:11:34.832Z</time></trkpt><trkpt lat="41.8314767" lon="13.104075"><ele>492.0</ele><time>2026-04-02T08:11:35.831Z</time></trkpt><trkpt lat="41.83143" lon="13.104245"><ele>494.75</ele><time>2026-04-02T08:11:36.831Z</time></trkpt><trkpt lat="41.8314067" lon="13.104435"><ele>497.5</ele><time>2026-04-02T08:11:37.833Z</time></trkpt><trkpt lat="41.8314067" lon="13.1046367"><ele>500.25</ele><time>2026-04-02T08:11:38.832Z</time></trkpt><trkpt lat="41.8314283" lon="13.104835"><ele>503.0</ele><time>2026-04-02T08:11:39.832Z</time></trkpt><trkpt lat="41.8314617" lon="13.1050117"><ele>504.5</ele><time>2026-04-02T08:11:40.833Z</time></trkpt><trkpt lat="41.8314967" lon="13.1051683"><ele>506.0</ele><time>2026-04-02T08:11:41.83Z</time></trkpt><trkpt lat="41.8315283" lon="13.105315"><ele>507.5</ele><time>2026-04-02T08:11:42.833Z</time></trkpt><trkpt lat="41.83155" lon="13.1054583"><ele>509.0</ele><time>2026-04-02T08:11:43.832Z</time></trkpt><trkpt lat="41.8315583" lon="13.1056"><ele>509.0</ele><time>2026-04-02T08:11:44.831Z</time></trkpt><trkpt lat="41.831545" lon="13.1057333"><ele>509.0</ele><time>2026-04-02T08:11:45.833Z</time></trkpt><trkpt lat="41.8315067" lon="13.10586"><ele>509.0</ele><time>2026-04-02T08:11:46.832Z</time></trkpt><trkpt lat="41.8314467" lon="13.105985"><ele>509.0</ele><time>2026-04-02T08:11:47.832Z</time></trkpt><trkpt lat="41.8313783" lon="13.10611"><ele>509.0</ele><time>2026-04-02T08:11:48.837Z</time></trkpt><trkpt lat="41.8313067" lon="13.1062283"><ele>509.3333333333333</ele><time>2026-04-02T08:11:49.835Z</time></trkpt><trkpt lat="41.8312433" lon="13.1063417"><ele>509.66666666666663</ele><time>2026-04-02T08:11:50.833Z</time></trkpt><trkpt lat="41.8311867" lon="13.1064433"><ele>510.0</ele><time>2026-04-02T08:11:51.833Z</time></trkpt><trkpt lat="41.8311383" lon="13.1065383"><ele>510.33333333333337</ele><time>2026-04-02T08:11:52.834Z</time></trkpt><trkpt lat="41.8311" lon="13.1066283"><ele>510.6666666666667</ele><time>2026-04-02T08:11:53.835Z</time></trkpt><trkpt lat="41.831065" lon="13.106725"><ele>511.0</ele><time>2026-04-02T08:11:54.833Z</time></trkpt><trkpt lat="41.8310317" lon="13.1068433"><ele>510.75</ele><time>2026-04-02T08:11:55.831Z</time></trkpt><trkpt lat="41.831" lon="13.1069783"><ele>510.5</ele><time>2026-04-02T08:11:56.833Z</time></trkpt><trkpt lat="41.830965" lon="13.1071383"><ele>510.25</ele><time>2026-04-02T08:11:57.834Z</time></trkpt><trkpt lat="41.8309283" lon="13.1073083"><ele>510.0</ele><time>2026-04-02T08:11:58.832Z</time></trkpt><trkpt lat="41.8308967" lon="13.107485"><ele>510.0</ele><time>2026-04-02T08:11:59.832Z</time></trkpt><trkpt lat="41.830865" lon="13.1076717"><ele>510.0</ele><time>2026-04-02T08:12:00.832Z</time></trkpt><trkpt lat="41.8308267" lon="13.107865"><ele>510.0</ele><time>2026-04-02T08:12:01.83Z</time></trkpt><trkpt lat="41.8307867" lon="13.10807"><ele>512.0</ele><time>2026-04-02T08:12:02.832Z</time></trkpt><trkpt lat="41.8307417" lon="13.1082917"><ele>514.0</ele><time>2026-04-02T08:12:03.832Z</time></trkpt><trkpt lat="41.8306917" lon="13.108525"><ele>516.0</ele><time>2026-04-02T08:12:04.833Z</time></trkpt><trkpt lat="41.830645" lon="13.1087633"><ele>516.0</ele><time>2026-04-02T08:12:05.833Z</time></trkpt><trkpt lat="41.8305883" lon="13.109015"><ele>516.0</ele><time>2026-04-02T08:12:06.831Z</time></trkpt><trkpt lat="41.83052" lon="13.10928"><ele>516.0</ele><time>2026-04-02T08:12:07.832Z</time></trkpt><trkpt lat="41.830455" lon="13.1095433"><ele>518.6666666666666</ele><time>2026-04-02T08:12:08.832Z</time></trkpt><trkpt lat="41.8303983" lon="13.1098033"><ele>521.3333333333333</ele><time>2026-04-02T08:12:09.83Z</time></trkpt><trkpt lat="41.8303433" lon="13.1100483"><ele>524.0</ele><time>2026-04-02T08:12:10.83Z</time></trkpt><trkpt lat="41.8302933" lon="13.1102833"><ele>526.3333333333333</ele><time>2026-04-02T08:12:11.833Z</time></trkpt><trkpt lat="41.8302567" lon="13.110525"><ele>528.6666666666666</ele><time>2026-04-02T08:12:12.832Z</time></trkpt><trkpt lat="41.8302417" lon="13.1107717"><ele>531.0</ele><time>2026-04-02T08:12:13.833Z</time></trkpt><trkpt lat="41.8302483" lon="13.11102"><ele>532.0</ele><time>2026-04-02T08:12:14.832Z</time></trkpt><trkpt lat="41.830285" lon="13.1112767"><ele>533.0</ele><time>2026-04-02T08:12:15.831Z</time></trkpt><trkpt lat="41.8303433" lon="13.1115383"><ele>534.0</ele><time>2026-04-02T08:12:16.831Z</time></trkpt><trkpt lat="41.830405" lon="13.1118067"><ele>534.0</ele><time>2026-04-02T08:12:17.831Z</time></trkpt><trkpt lat="41.830465" lon="13.1120733"><ele>534.0</ele><time>2026-04-02T08:12:18.835Z</time></trkpt><trkpt lat="41.8305183" lon="13.1123233"><ele>534.0</ele><time>2026-04-02T08:12:19.834Z</time></trkpt><trkpt lat="41.8305717" lon="13.1125633"><ele>533.6666666666666</ele><time>2026-04-02T08:12:20.835Z</time></trkpt><trkpt lat="41.8306083" lon="13.11279"><ele>533.3333333333333</ele><time>2026-04-02T08:12:21.835Z</time></trkpt><trkpt lat="41.8306317" lon="13.1130067"><ele>533.0</ele><time>2026-04-02T08:12:22.832Z</time></trkpt><trkpt lat="41.8306317" lon="13.1132133"><ele>534.3333333333333</ele><time>2026-04-02T08:12:23.833Z</time></trkpt><trkpt lat="41.8306" lon="13.1134133"><ele>535.6666666666666</ele><time>2026-04-02T08:12:24.833Z</time></trkpt><trkpt lat="41.8305383" lon="13.11361"><ele>537.0</ele><time>2026-04-02T08:12:25.835Z</time></trkpt><trkpt lat="41.8304483" lon="13.113795"><ele>537.0</ele><time>2026-04-02T08:12:26.834Z</time></trkpt><trkpt lat="41.8303417" lon="13.11395"><ele>537.0</ele><time>2026-04-02T08:12:27.832Z</time></trkpt><trkpt lat="41.83022" lon="13.114075"><ele>537.0</ele><time>2026-04-02T08:12:28.834Z</time></trkpt><trkpt lat="41.8300833" lon="13.1141767"><ele>535.0</ele><time>2026-04-02T08:12:29.832Z</time></trkpt><trkpt lat="41.8299533" lon="13.1142717"><ele>533.0</ele><time>2026-04-02T08:12:30.833Z</time></trkpt><trkpt lat="41.8298467" lon="13.1143783"><ele>531.0</ele><time>2026-04-02T08:12:31.833Z</time></trkpt><trkpt lat="41.8297667" lon="13.1145033"><ele>529.0</ele><time>2026-04-02T08:12:32.831Z</time></trkpt><trkpt lat="41.8297283" lon="13.1146667"><ele>529.0</ele><time>2026-04-02T08:12:33.832Z</time></trkpt><trkpt lat="41.8297067" lon="13.1148533"><ele>529.0</ele><time>2026-04-02T08:12:34.83Z</time></trkpt><trkpt lat="41.829695" lon="13.115065"><ele>529.0</ele><time>2026-04-02T08:12:35.829Z</time></trkpt><trkpt lat="41.8296717" lon="13.1153"><ele>531.6666666666667</ele><time>2026-04-02T08:12:36.83Z</time></trkpt><trkpt lat="41.8296517" lon="13.1155433"><ele>534.3333333333334</ele><time>2026-04-02T08:12:37.83Z</time></trkpt><trkpt lat="41.8296333" lon="13.1158017"><ele>537.0</ele><time>2026-04-02T08:12:38.831Z</time></trkpt><trkpt lat="41.82961" lon="13.1160683"><ele>537.0</ele><time>2026-04-02T08:12:39.83Z</time></trkpt><trkpt lat="41.8295833" lon="13.1163383"><ele>537.0</ele><time>2026-04-02T08:12:40.83Z</time></trkpt><trkpt lat="41.8295567" lon="13.1166167"><ele>537.0</ele><time>2026-04-02T08:12:41.832Z</time></trkpt><trkpt lat="41.8295283" lon="13.116885"><ele>538.3333333333334</ele><time>2026-04-02T08:12:42.834Z</time></trkpt><trkpt lat="41.8295033" lon="13.1171317"><ele>539.6666666666667</ele><time>2026-04-02T08:12:43.833Z</time></trkpt><trkpt lat="41.8294767" lon="13.1173617"><ele>541.0</ele><time>2026-04-02T08:12:44.832Z</time></trkpt><trkpt lat="41.8294567" lon="13.1175867"><ele>542.6666666666667</ele><time>2026-04-02T08:12:45.833Z</time></trkpt><trkpt lat="41.8294367" lon="13.1178017"><ele>544.3333333333334</ele><time>2026-04-02T08:12:46.833Z</time></trkpt><trkpt lat="41.8294183" lon="13.118005"><ele>546.0</ele><time>2026-04-02T08:12:47.834Z</time></trkpt><trkpt lat="41.8294017" lon="13.1181933"><ele>547.25</ele><time>2026-04-02T08:12:48.835Z</time></trkpt><trkpt lat="41.8293817" lon="13.1183733"><ele>548.5</ele><time>2026-04-02T08:12:49.834Z</time></trkpt><trkpt lat="41.829365" lon="13.118555"><ele>549.75</ele><time>2026-04-02T08:12:50.833Z</time></trkpt><trkpt lat="41.8293517" lon="13.11873"><ele>551.0</ele><time>2026-04-02T08:12:51.834Z</time></trkpt><trkpt lat="41.8293383" lon="13.1188917"><ele>551.0</ele><time>2026-04-02T08:12:52.833Z</time></trkpt><trkpt lat="41.82932" lon="13.119045"><ele>551.0</ele><time>2026-04-02T08:12:53.835Z</time></trkpt><trkpt lat="41.8293033" lon="13.119185"><ele>551.0</ele><time>2026-04-02T08:12:54.835Z</time></trkpt><trkpt lat="41.82928" lon="13.1193217"><ele>551.0</ele><time>2026-04-02T08:12:55.832Z</time></trkpt><trkpt lat="41.8292633" lon="13.1194433"><ele>551.0</ele><time>2026-04-02T08:12:56.834Z</time></trkpt><trkpt lat="41.8292417" lon="13.1195633"><ele>550.2</ele><time>2026-04-02T08:12:57.834Z</time></trkpt><trkpt lat="41.8292133" lon="13.1196833"><ele>549.4000000000001</ele><time>2026-04-02T08:12:58.83Z</time></trkpt><trkpt lat="41.8291733" lon="13.1198033"><ele>548.6</ele><time>2026-04-02T08:12:59.832Z</time></trkpt><trkpt lat="41.8291083" lon="13.1199133"><ele>547.8000000000001</ele><time>2026-04-02T08:13:00.833Z</time></trkpt><trkpt lat="41.829025" lon="13.1200217"><ele>547.0</ele><time>2026-04-02T08:13:01.832Z</time></trkpt><trkpt lat="41.828925" lon="13.1201517"><ele>547.0</ele><time>2026-04-02T08:13:02.832Z</time></trkpt><trkpt lat="41.82882" lon="13.120295"><ele>547.0</ele><time>2026-04-02T08:13:03.833Z</time></trkpt><trkpt lat="41.8287283" lon="13.120445"><ele>547.0</ele><time>2026-04-02T08:13:04.832Z</time></trkpt><trkpt lat="41.8286533" lon="13.120605"><ele>547.0</ele><time>2026-04-02T08:13:05.831Z</time></trkpt><trkpt lat="41.828595" lon="13.1207917"><ele>549.6666666666667</ele><time>2026-04-02T08:13:06.832Z</time></trkpt><trkpt lat="41.8285567" lon="13.1210017"><ele>552.3333333333334</ele><time>2026-04-02T08:13:07.833Z</time></trkpt><trkpt lat="41.8285217" lon="13.1212233"><ele>555.0</ele><time>2026-04-02T08:13:08.833Z</time></trkpt><trkpt lat="41.8284817" lon="13.1214517"><ele>553.6666666666666</ele><time>2026-04-02T08:13:09.83Z</time></trkpt><trkpt lat="41.8284433" lon="13.1216883"><ele>552.3333333333333</ele><time>2026-04-02T08:13:10.833Z</time></trkpt><trkpt lat="41.82842" lon="13.1219167"><ele>551.0</ele><time>2026-04-02T08:13:11.832Z</time></trkpt><trkpt lat="41.8284083" lon="13.12212"><ele>551.0</ele><time>2026-04-02T08:13:12.831Z</time></trkpt><trkpt lat="41.8284183" lon="13.1223217"><ele>551.0</ele><time>2026-04-02T08:13:13.83Z</time></trkpt><trkpt lat="41.828455" lon="13.1225383"><ele>551.0</ele><time>2026-04-02T08:13:14.831Z</time></trkpt><trkpt lat="41.8285" lon="13.1227483"><ele>557.25</ele><time>2026-04-02T08:13:15.833Z</time></trkpt><trkpt lat="41.82854" lon="13.1229383"><ele>563.5</ele><time>2026-04-02T08:13:16.832Z</time></trkpt><trkpt lat="41.82857" lon="13.1231233"><ele>569.75</ele><time>2026-04-02T08:13:17.832Z</time></trkpt><trkpt lat="41.8285983" lon="13.1233083"><ele>576.0</ele><time>2026-04-02T08:13:18.829Z</time></trkpt><trkpt lat="41.828635" lon="13.12349"><ele>575.5</ele><time>2026-04-02T08:13:19.831Z</time></trkpt><trkpt lat="41.82869" lon="13.123665"><ele>575.0</ele><time>2026-04-02T08:13:20.831Z</time></trkpt><trkpt lat="41.8287633" lon="13.1238333"><ele>574.5</ele><time>2026-04-02T08:13:21.83Z</time></trkpt><trkpt lat="41.8288517" lon="13.1240033"><ele>574.0</ele><time>2026-04-02T08:13:22.831Z</time></trkpt><trkpt lat="41.8289283" lon="13.1241967"><ele>574.0</ele><time>2026-04-02T08:13:23.831Z</time></trkpt><trkpt lat="41.82899" lon="13.1244083"><ele>574.0</ele><time>2026-04-02T08:13:24.833Z</time></trkpt><trkpt lat="41.82905" lon="13.1246183"><ele>574.0</ele><time>2026-04-02T08:13:25.834Z</time></trkpt><trkpt lat="41.8290967" lon="13.1248267"><ele>572.6666666666667</ele><time>2026-04-02T08:13:26.834Z</time></trkpt><trkpt lat="41.82912" lon="13.12504"><ele>571.3333333333334</ele><time>2026-04-02T08:13:27.834Z</time></trkpt><trkpt lat="41.8291167" lon="13.12526"><ele>570.0</ele><time>2026-04-02T08:13:28.832Z</time></trkpt><trkpt lat="41.82911" lon="13.1254833"><ele>570.0</ele><time>2026-04-02T08:13:29.833Z</time></trkpt><trkpt lat="41.8291117" lon="13.1256967"><ele>570.0</ele><time>2026-04-02T08:13:30.834Z</time></trkpt><trkpt lat="41.82913" lon="13.125895"><ele>570.0</ele><time>2026-04-02T08:13:31.831Z</time></trkpt><trkpt lat="41.8291683" lon="13.1260933"><ele>570.6666666666666</ele><time>2026-04-02T08:13:32.83Z</time></trkpt><trkpt lat="41.829225" lon="13.12629"><ele>571.3333333333333</ele><time>2026-04-02T08:13:33.83Z</time></trkpt><trkpt lat="41.8293033" lon="13.1264883"><ele>572.0</ele><time>2026-04-02T08:13:34.831Z</time></trkpt><trkpt lat="41.829395" lon="13.1266867"><ele>576.6666666666666</ele><time>2026-04-02T08:13:35.832Z</time></trkpt><trkpt lat="41.8294833" lon="13.1268883"><ele>581.3333333333334</ele><time>2026-04-02T08:13:36.833Z</time></trkpt><trkpt lat="41.8295567" lon="13.1271"><ele>586.0</ele><time>2026-04-02T08:13:37.831Z</time></trkpt><trkpt lat="41.8296067" lon="13.127335"><ele>585.6666666666667</ele><time>2026-04-02T08:13:38.832Z</time></trkpt><trkpt lat="41.829645" lon="13.1275867"><ele>585.3333333333334</ele><time>2026-04-02T08:13:39.831Z</time></trkpt><trkpt lat="41.8296833" lon="13.127835"><ele>585.0</ele><time>2026-04-02T08:13:40.831Z</time></trkpt><trkpt lat="41.8297233" lon="13.1280617"><ele>586.0</ele><time>2026-04-02T08:13:41.829Z</time></trkpt><trkpt lat="41.8297583" lon="13.1282717"><ele>587.0</ele><time>2026-04-02T08:13:42.833Z</time></trkpt><trkpt lat="41.8298083" lon="13.1284767"><ele>588.0</ele><time>2026-04-02T08:13:43.831Z</time></trkpt><trkpt lat="41.8298633" lon="13.1286867"><ele>588.0</ele><time>2026-04-02T08:13:44.833Z</time></trkpt><trkpt lat="41.8299067" lon="13.1289"><ele>588.0</ele><time>2026-04-02T08:13:45.832Z</time></trkpt><trkpt lat="41.8299217" lon="13.1291017"><ele>588.0</ele><time>2026-04-02T08:13:46.832Z</time></trkpt><trkpt lat="41.8299183" lon="13.1292733"><ele>588.0</ele><time>2026-04-02T08:13:47.831Z</time></trkpt><trkpt lat="41.8299033" lon="13.12943"><ele>588.0</ele><time>2026-04-02T08:13:48.834Z</time></trkpt><trkpt lat="41.8298667" lon="13.1295883"><ele>588.0</ele><time>2026-04-02T08:13:49.834Z</time></trkpt><trkpt lat="41.8298283" lon="13.129755"><ele>588.0</ele><time>2026-04-02T08:13:50.834Z</time></trkpt><trkpt lat="41.8297917" lon="13.1299233"><ele>588.0</ele><time>2026-04-02T08:13:51.833Z</time></trkpt><trkpt lat="41.82977" lon="13.1300767"><ele>588.8333333333334</ele><time>2026-04-02T08:13:52.834Z</time></trkpt><trkpt lat="41.8297633" lon="13.1302033"><ele>589.6666666666666</ele><time>2026-04-02T08:13:53.834Z</time></trkpt><trkpt lat="41.8297633" lon="13.1303033"><ele>590.5</ele><time>2026-04-02T08:13:54.834Z</time></trkpt><trkpt lat="41.82976" lon="13.1303983"><ele>591.3333333333333</ele><time>2026-04-02T08:13:56.833Z</time></trkpt><trkpt lat="41.8297283" lon="13.1304767"><ele>592.1666666666666</ele><time>2026-04-02T08:14:05.832Z</time></trkpt><trkpt lat="41.8297317" lon="13.1305833"><ele>593.0</ele><time>2026-04-02T08:14:06.833Z</time></trkpt><trkpt lat="41.8297333" lon="13.130695"><ele>594.0</ele><time>2026-04-02T08:14:07.832Z</time></trkpt><trkpt lat="41.8297333" lon="13.130825"><ele>595.0</ele><time>2026-04-02T08:14:08.832Z</time></trkpt><trkpt lat="41.82974" lon="13.1310083"><ele>596.0</ele><time>2026-04-02T08:14:09.832Z</time></trkpt><trkpt lat="41.8297417" lon="13.13121"><ele>597.0</ele><time>2026-04-02T08:14:10.831Z</time></trkpt><trkpt lat="41.8297317" lon="13.1314417"><ele>599.6666666666666</ele><time>2026-04-02T08:14:11.831Z</time></trkpt><trkpt lat="41.829725" lon="13.1316933"><ele>602.3333333333333</ele><time>2026-04-02T08:14:12.833Z</time></trkpt><trkpt lat="41.8297133" lon="13.13194"><ele>605.0</ele><time>2026-04-02T08:14:13.83Z</time></trkpt><trkpt lat="41.829695" lon="13.1321717"><ele>605.0</ele><time>2026-04-02T08:14:14.832Z</time></trkpt><trkpt lat="41.8296867" lon="13.1323867"><ele>605.0</ele><time>2026-04-02T08:14:15.832Z</time></trkpt><trkpt lat="41.82968" lon="13.13259"><ele>605.0</ele><time>2026-04-02T08:14:16.83Z</time></trkpt><trkpt lat="41.82969" lon="13.1327867"><ele>607.75</ele><time>2026-04-02T08:14:17.832Z</time></trkpt><trkpt lat="41.8297117" lon="13.13299"><ele>610.5</ele><time>2026-04-02T08:14:18.832Z</time></trkpt><trkpt lat="41.82973" lon="13.13317"><ele>613.25</ele><time>2026-04-02T08:14:19.833Z</time></trkpt><trkpt lat="41.8297283" lon="13.1333317"><ele>616.0</ele><time>2026-04-02T08:14:20.833Z</time></trkpt><trkpt lat="41.8297083" lon="13.1334783"><ele>617.25</ele><time>2026-04-02T08:14:21.831Z</time></trkpt><trkpt lat="41.8296633" lon="13.133615"><ele>618.5</ele><time>2026-04-02T08:14:22.832Z</time></trkpt><trkpt lat="41.8295917" lon="13.1337367"><ele>619.75</ele><time>2026-04-02T08:14:23.832Z</time></trkpt><trkpt lat="41.8295067" lon="13.1338517"><ele>621.0</ele><time>2026-04-02T08:14:24.832Z</time></trkpt><trkpt lat="41.8294183" lon="13.1339667"><ele>618.2</ele><time>2026-04-02T08:14:25.832Z</time></trkpt><trkpt lat="41.8293283" lon="13.134075"><ele>615.4000000000001</ele><time>2026-04-02T08:14:26.835Z</time></trkpt><trkpt lat="41.829255" lon="13.134175"><ele>612.6</ele><time>2026-04-02T08:14:27.831Z</time></trkpt><trkpt lat="41.829205" lon="13.1342583"><ele>609.8000000000001</ele><time>2026-04-02T08:14:28.836Z</time></trkpt><trkpt lat="41.8291517" lon="13.1343633"><ele>607.0</ele><time>2026-04-02T08:14:30.833Z</time></trkpt><trkpt lat="41.829145" lon="13.1345017"><ele>607.0</ele><time>2026-04-02T08:14:33.832Z</time></trkpt><trkpt lat="41.8291467" lon="13.1346467"><ele>607.0</ele><time>2026-04-02T08:14:35.831Z</time></trkpt><trkpt lat="41.8291267" lon="13.1347317"><ele>607.0</ele><time>2026-04-02T08:14:37.832Z</time></trkpt><trkpt lat="41.8291333" lon="13.13485"><ele>607.0</ele><time>2026-04-02T08:14:49.836Z</time></trkpt><trkpt lat="41.829085" lon="13.13502"><ele>607.0</ele><time>2026-04-02T08:14:51.833Z</time></trkpt><trkpt lat="41.829045" lon="13.1351267"><ele>609.5</ele><time>2026-04-02T08:14:52.835Z</time></trkpt><trkpt lat="41.8290017" lon="13.1352383"><ele>612.0</ele><time>2026-04-02T08:14:53.834Z</time></trkpt><trkpt lat="41.8289533" lon="13.1353733"><ele>614.5</ele><time>2026-04-02T08:14:54.834Z</time></trkpt><trkpt lat="41.82891" lon="13.1355267"><ele>617.0</ele><time>2026-04-02T08:14:55.835Z</time></trkpt><trkpt lat="41.8288817" lon="13.1356967"><ele>619.75</ele><time>2026-04-02T08:14:56.834Z</time></trkpt><trkpt lat="41.8288633" lon="13.1358767"><ele>622.5</ele><time>2026-04-02T08:14:57.835Z</time></trkpt><trkpt lat="41.82886" lon="13.1360717"><ele>625.25</ele><time>2026-04-02T08:14:58.833Z</time></trkpt><trkpt lat="41.82886" lon="13.1362767"><ele>628.0</ele><time>2026-04-02T08:14:59.834Z</time></trkpt><trkpt lat="41.828875" lon="13.1364917"><ele>630.0</ele><time>2026-04-02T08:15:00.835Z</time></trkpt><trkpt lat="41.8289017" lon="13.13671"><ele>632.0</ele><time>2026-04-02T08:15:01.833Z</time></trkpt><trkpt lat="41.828925" lon="13.136925"><ele>634.0</ele><time>2026-04-02T08:15:02.833Z</time></trkpt><trkpt lat="41.8289533" lon="13.137145"><ele>634.0</ele><time>2026-04-02T08:15:03.833Z</time></trkpt><trkpt lat="41.8289767" lon="13.1373667"><ele>634.0</ele><time>2026-04-02T08:15:04.832Z</time></trkpt><trkpt lat="41.8290033" lon="13.13759"><ele>634.0</ele><time>2026-04-02T08:15:05.832Z</time></trkpt><trkpt lat="41.8290383" lon="13.1378133"><ele>634.0</ele><time>2026-04-02T08:15:06.833Z</time></trkpt><trkpt lat="41.82909" lon="13.1380383"><ele>634.0</ele><time>2026-04-02T08:15:07.833Z</time></trkpt><trkpt lat="41.8291433" lon="13.13826"><ele>634.0</ele><time>2026-04-02T08:15:08.833Z</time></trkpt><trkpt lat="41.8291917" lon="13.138465"><ele>633.0</ele><time>2026-04-02T08:15:09.831Z</time></trkpt><trkpt lat="41.8292383" lon="13.1386483"><ele>632.0</ele><time>2026-04-02T08:15:10.832Z</time></trkpt><trkpt lat="41.82928" lon="13.1388117"><ele>631.0</ele><time>2026-04-02T08:15:11.833Z</time></trkpt><trkpt lat="41.8293167" lon="13.1389633"><ele>630.0</ele><time>2026-04-02T08:15:12.833Z</time></trkpt><trkpt lat="41.829345" lon="13.1391233"><ele>641.75</ele><time>2026-04-02T08:15:13.833Z</time></trkpt><trkpt lat="41.8293783" lon="13.13929"><ele>653.5</ele><time>2026-04-02T08:15:14.831Z</time></trkpt><trkpt lat="41.8294083" lon="13.1394583"><ele>665.25</ele><time>2026-04-02T08:15:15.831Z</time></trkpt><trkpt lat="41.8294433" lon="13.1396367"><ele>677.0</ele><time>2026-04-02T08:15:16.832Z</time></trkpt><trkpt lat="41.8294783" lon="13.1398233"><ele>674.3333333333333</ele><time>2026-04-02T08:15:17.833Z</time></trkpt><trkpt lat="41.829515" lon="13.1400133"><ele>671.6666666666666</ele><time>2026-04-02T08:15:18.835Z</time></trkpt><trkpt lat="41.8295517" lon="13.1402117"><ele>669.0</ele><time>2026-04-02T08:15:19.833Z</time></trkpt><trkpt lat="41.8295917" lon="13.140415"><ele>669.0</ele><time>2026-04-02T08:15:20.833Z</time></trkpt><trkpt lat="41.82963" lon="13.1406183"><ele>669.0</ele><time>2026-04-02T08:15:21.832Z</time></trkpt><trkpt lat="41.8296717" lon="13.1408083"><ele>669.0</ele><time>2026-04-02T08:15:22.832Z</time></trkpt><trkpt lat="41.8297083" lon="13.140985"><ele>669.0</ele><time>2026-04-02T08:15:23.831Z</time></trkpt><trkpt lat="41.8297383" lon="13.14115"><ele>668.0</ele><time>2026-04-02T08:15:24.831Z</time></trkpt><trkpt lat="41.8297717" lon="13.141315"><ele>667.0</ele><time>2026-04-02T08:15:25.832Z</time></trkpt><trkpt lat="41.8298083" lon="13.1414783"><ele>666.0</ele><time>2026-04-02T08:15:26.833Z</time></trkpt><trkpt lat="41.829855" lon="13.1416433"><ele>665.0</ele><time>2026-04-02T08:15:27.834Z</time></trkpt><trkpt lat="41.8299033" lon="13.14182"><ele>663.5</ele><time>2026-04-02T08:15:28.833Z</time></trkpt><trkpt lat="41.829965" lon="13.142005"><ele>662.0</ele><time>2026-04-02T08:15:29.837Z</time></trkpt><trkpt lat="41.8300183" lon="13.1421767"><ele>660.5</ele><time>2026-04-02T08:15:30.834Z</time></trkpt><trkpt lat="41.830075" lon="13.14233"><ele>659.0</ele><time>2026-04-02T08:15:31.83Z</time></trkpt><trkpt lat="41.8301367" lon="13.1424817"><ele>669.0</ele><time>2026-04-02T08:15:32.832Z</time></trkpt><trkpt lat="41.8302017" lon="13.142635"><ele>679.0</ele><time>2026-04-02T08:15:33.832Z</time></trkpt><trkpt lat="41.8302767" lon="13.1427883"><ele>689.0</ele><time>2026-04-02T08:15:34.831Z</time></trkpt><trkpt lat="41.83036" lon="13.142945"><ele>699.0</ele><time>2026-04-02T08:15:35.832Z</time></trkpt><trkpt lat="41.83045" lon="13.1430967"><ele>694.5</ele><time>2026-04-02T08:15:36.832Z</time></trkpt><trkpt lat="41.8305417" lon="13.1432467"><ele>690.0</ele><time>2026-04-02T08:15:37.832Z</time></trkpt><trkpt lat="41.8306367" lon="13.1433917"><ele>685.5</ele><time>2026-04-02T08:15:38.834Z</time></trkpt><trkpt lat="41.8307367" lon="13.1435217"><ele>681.0</ele><time>2026-04-02T08:15:39.833Z</time></trkpt><trkpt lat="41.8308383" lon="13.1436417"><ele>681.0</ele><time>2026-04-02T08:15:40.833Z</time></trkpt><trkpt lat="41.8309367" lon="13.143755"><ele>681.0</ele><time>2026-04-02T08:15:41.831Z</time></trkpt><trkpt lat="41.8310267" lon="13.1438767"><ele>681.0</ele><time>2026-04-02T08:15:42.832Z</time></trkpt><trkpt lat="41.8311067" lon="13.1440167"><ele>681.0</ele><time>2026-04-02T08:15:43.83Z</time></trkpt><trkpt lat="41.831185" lon="13.1441633"><ele>684.75</ele><time>2026-04-02T08:15:44.834Z</time></trkpt><trkpt lat="41.8312583" lon="13.1443167"><ele>688.5</ele><time>2026-04-02T08:15:45.833Z</time></trkpt><trkpt lat="41.83132" lon="13.1444717"><ele>692.25</ele><time>2026-04-02T08:15:46.831Z</time></trkpt><trkpt lat="41.8313667" lon="13.1446267"><ele>696.0</ele><time>2026-04-02T08:15:47.832Z</time></trkpt><trkpt lat="41.8313967" lon="13.1447733"><ele>695.0</ele><time>2026-04-02T08:15:48.834Z</time></trkpt><trkpt lat="41.831415" lon="13.14491"><ele>694.0</ele><time>2026-04-02T08:15:49.833Z</time></trkpt><trkpt lat="41.8314133" lon="13.1450383"><ele>693.0</ele><time>2026-04-02T08:15:50.833Z</time></trkpt><trkpt lat="41.831395" lon="13.1451617"><ele>692.0</ele><time>2026-04-02T08:15:51.833Z</time></trkpt><trkpt lat="41.8313567" lon="13.14527"><ele>691.0</ele><time>2026-04-02T08:15:52.832Z</time></trkpt><trkpt lat="41.8313033" lon="13.1453683"><ele>691.0</ele><time>2026-04-02T08:15:53.833Z</time></trkpt><trkpt lat="41.8312217" lon="13.1454483"><ele>691.0</ele><time>2026-04-02T08:15:54.831Z</time></trkpt><trkpt lat="41.8311217" lon="13.1455117"><ele>691.0</ele><time>2026-04-02T08:15:55.834Z</time></trkpt><trkpt lat="41.8310117" lon="13.1455617"><ele>691.0</ele><time>2026-04-02T08:15:56.834Z</time></trkpt><trkpt lat="41.8309033" lon="13.1456017"><ele>691.0</ele><time>2026-04-02T08:15:57.833Z</time></trkpt><trkpt lat="41.8307967" lon="13.145635"><ele>688.0</ele><time>2026-04-02T08:15:58.833Z</time></trkpt><trkpt lat="41.8306833" lon="13.1456617"><ele>685.0</ele><time>2026-04-02T08:15:59.834Z</time></trkpt><trkpt lat="41.8305683" lon="13.14568"><ele>682.0</ele><time>2026-04-02T08:16:00.835Z</time></trkpt><trkpt lat="41.83046" lon="13.145685"><ele>679.0</ele><time>2026-04-02T08:16:01.831Z</time></trkpt><trkpt lat="41.830365" lon="13.1456783"><ele>676.0</ele><time>2026-04-02T08:16:02.834Z</time></trkpt><trkpt lat="41.8302867" lon="13.1456633"><ele>676.0</ele><time>2026-04-02T08:16:03.832Z</time></trkpt><trkpt lat="41.8301783" lon="13.1456267"><ele>676.0</ele><time>2026-04-02T08:16:05.833Z</time></trkpt><trkpt lat="41.8301067" lon="13.1456"><ele>676.0</ele><time>2026-04-02T08:16:07.832Z</time></trkpt><trkpt lat="41.83008" lon="13.1456817"><ele>676.0</ele><time>2026-04-02T08:16:50.833Z</time></trkpt><trkpt lat="41.830105" lon="13.145785"><ele>676.0</ele><time>2026-04-02T08:16:53.832Z</time></trkpt><trkpt lat="41.8302367" lon="13.1458317"><ele>680.25</ele><time>2026-04-02T08:16:55.833Z</time></trkpt><trkpt lat="41.83037" lon="13.1458317"><ele>684.5</ele><time>2026-04-02T08:16:56.83Z</time></trkpt><trkpt lat="41.8304917" lon="13.1458467"><ele>688.75</ele><time>2026-04-02T08:16:57.834Z</time></trkpt><trkpt lat="41.8306133" lon="13.1458633"><ele>693.0</ele><time>2026-04-02T08:16:58.833Z</time></trkpt><trkpt lat="41.8307517" lon="13.1458917"><ele>693.0</ele><time>2026-04-02T08:16:59.836Z</time></trkpt><trkpt lat="41.8308917" lon="13.1459233"><ele>693.0</ele><time>2026-04-02T08:17:00.834Z</time></trkpt><trkpt lat="41.831025" lon="13.1459567"><ele>693.0</ele><time>2026-04-02T08:17:01.83Z</time></trkpt><trkpt lat="41.8311583" lon="13.1459983"><ele>693.0</ele><time>2026-04-02T08:17:02.833Z</time></trkpt><trkpt lat="41.8312883" lon="13.14604"><ele>695.0</ele><time>2026-04-02T08:17:03.832Z</time></trkpt><trkpt lat="41.83141" lon="13.1460717"><ele>697.0</ele><time>2026-04-02T08:17:04.832Z</time></trkpt><trkpt lat="41.8315367" lon="13.1460717"><ele>699.0</ele><time>2026-04-02T08:17:05.83Z</time></trkpt><trkpt lat="41.8316617" lon="13.146015"><ele>701.0</ele><time>2026-04-02T08:17:06.832Z</time></trkpt><trkpt lat="41.8317667" lon="13.1459283"><ele>707.75</ele><time>2026-04-02T08:17:07.833Z</time></trkpt><trkpt lat="41.83185" lon="13.1458133"><ele>714.5</ele><time>2026-04-02T08:17:08.833Z</time></trkpt><trkpt lat="41.831915" lon="13.1456533"><ele>721.25</ele><time>2026-04-02T08:17:09.833Z</time></trkpt><trkpt lat="41.8319517" lon="13.145465"><ele>728.0</ele><time>2026-04-02T08:17:10.831Z</time></trkpt><trkpt lat="41.8319667" lon="13.1452617"><ele>728.0</ele><time>2026-04-02T08:17:11.833Z</time></trkpt><trkpt lat="41.8319883" lon="13.1450817"><ele>728.0</ele><time>2026-04-02T08:17:12.833Z</time></trkpt><trkpt lat="41.83201" lon="13.144895"><ele>728.0</ele><time>2026-04-02T08:17:13.833Z</time></trkpt><trkpt lat="41.8320483" lon="13.144695"><ele>728.0</ele><time>2026-04-02T08:17:14.833Z</time></trkpt><trkpt lat="41.8320733" lon="13.1444967"><ele>728.0</ele><time>2026-04-02T08:17:15.832Z</time></trkpt><trkpt lat="41.832095" lon="13.144315"><ele>728.0</ele><time>2026-04-02T08:17:16.834Z</time></trkpt><trkpt lat="41.8320883" lon="13.1441317"><ele>728.0</ele><time>2026-04-02T08:17:17.833Z</time></trkpt><trkpt lat="41.8320467" lon="13.1439433"><ele>728.0</ele><time>2026-04-02T08:17:18.833Z</time></trkpt><trkpt lat="41.8319833" lon="13.14376"><ele>726.4</ele><time>2026-04-02T08:17:19.833Z</time></trkpt><trkpt lat="41.8319167" lon="13.1436"><ele>724.8</ele><time>2026-04-02T08:17:20.834Z</time></trkpt><trkpt lat="41.83186" lon="13.1434983"><ele>723.2</ele><time>2026-04-02T08:17:21.833Z</time></trkpt><trkpt lat="41.8318167" lon="13.1434333"><ele>721.6</ele><time>2026-04-02T08:17:22.833Z</time></trkpt><trkpt lat="41.83171" lon="13.1433483"><ele>720.0</ele><time>2026-04-02T08:17:24.833Z</time></trkpt><trkpt lat="41.8316467" lon="13.1433033"><ele>720.0</ele><time>2026-04-02T08:17:25.833Z</time></trkpt><trkpt lat="41.831575" lon="13.143255"><ele>720.0</ele><time>2026-04-02T08:17:26.831Z</time></trkpt><trkpt lat="41.8314833" lon="13.1431983"><ele>720.0</ele><time>2026-04-02T08:17:27.832Z</time></trkpt><trkpt lat="41.83141" lon="13.1431167"><ele>720.0</ele><time>2026-04-02T08:17:28.833Z</time></trkpt><trkpt lat="41.8313333" lon="13.143025"><ele>720.0</ele><time>2026-04-02T08:17:29.831Z</time></trkpt><trkpt lat="41.831265" lon="13.1429"><ele>726.0</ele><time>2026-04-02T08:17:30.833Z</time></trkpt><trkpt lat="41.8311883" lon="13.1427633"><ele>732.0</ele><time>2026-04-02T08:17:31.833Z</time></trkpt><trkpt lat="41.8311183" lon="13.1426233"><ele>738.0</ele><time>2026-04-02T08:17:32.831Z</time></trkpt><trkpt lat="41.8310583" lon="13.1424817"><ele>744.0</ele><time>2026-04-02T08:17:33.832Z</time></trkpt><trkpt lat="41.8310233" lon="13.1423267"><ele>747.0</ele><time>2026-04-02T08:17:34.831Z</time></trkpt><trkpt lat="41.83101" lon="13.1421467"><ele>750.0</ele><time>2026-04-02T08:17:35.831Z</time></trkpt><trkpt lat="41.8309883" lon="13.1419567"><ele>753.0</ele><time>2026-04-02T08:17:36.833Z</time></trkpt><trkpt lat="41.8309683" lon="13.141755"><ele>756.0</ele><time>2026-04-02T08:17:37.833Z</time></trkpt><trkpt lat="41.8309417" lon="13.14154"><ele>743.3333333333334</ele><time>2026-04-02T08:17:38.831Z</time></trkpt><trkpt lat="41.8309183" lon="13.1413233"><ele>730.6666666666667</ele><time>2026-04-02T08:17:39.833Z</time></trkpt><trkpt lat="41.8309" lon="13.1411133"><ele>718.0</ele><time>2026-04-02T08:17:40.832Z</time></trkpt><trkpt lat="41.8309017" lon="13.1408967"><ele>720.0</ele><time>2026-04-02T08:17:41.833Z</time></trkpt><trkpt lat="41.8309067" lon="13.140675"><ele>722.0</ele><time>2026-04-02T08:17:42.832Z</time></trkpt><trkpt lat="41.83088" lon="13.1404567"><ele>724.0</ele><time>2026-04-02T08:17:43.832Z</time></trkpt><trkpt lat="41.8308233" lon="13.1402417"><ele>724.0</ele><time>2026-04-02T08:17:44.832Z</time></trkpt><trkpt lat="41.830765" lon="13.1400367"><ele>724.0</ele><time>2026-04-02T08:17:45.833Z</time></trkpt><trkpt lat="41.8307317" lon="13.1398433"><ele>724.0</ele><time>2026-04-02T08:17:46.831Z</time></trkpt><trkpt lat="41.8307317" lon="13.139655"><ele>726.3333333333334</ele><time>2026-04-02T08:17:47.832Z</time></trkpt><trkpt lat="41.8307483" lon="13.139445"><ele>728.6666666666666</ele><time>2026-04-02T08:17:48.832Z</time></trkpt><trkpt lat="41.8307533" lon="13.1392167"><ele>731.0</ele><time>2026-04-02T08:17:49.832Z</time></trkpt><trkpt lat="41.830735" lon="13.1389767"><ele>732.0</ele><time>2026-04-02T08:17:50.833Z</time></trkpt><trkpt lat="41.8307117" lon="13.1387267"><ele>733.0</ele><time>2026-04-02T08:17:51.832Z</time></trkpt><trkpt lat="41.8307" lon="13.1384917"><ele>734.0</ele><time>2026-04-02T08:17:52.833Z</time></trkpt><trkpt lat="41.8307" lon="13.1382783"><ele>732.25</ele><time>2026-04-02T08:17:53.831Z</time></trkpt><trkpt lat="41.8307067" lon="13.138095"><ele>730.5</ele><time>2026-04-02T08:17:54.837Z</time></trkpt><trkpt lat="41.830725" lon="13.1379383"><ele>728.75</ele><time>2026-04-02T08:17:55.834Z</time></trkpt><trkpt lat="41.8307633" lon="13.1378067"><ele>727.0</ele><time>2026-04-02T08:17:56.834Z</time></trkpt><trkpt lat="41.83083" lon="13.1377183"><ele>727.0</ele><time>2026-04-02T08:17:57.833Z</time></trkpt><trkpt lat="41.8309117" lon="13.1376783"><ele>727.0</ele><time>2026-04-02T08:17:58.831Z</time></trkpt><trkpt lat="41.8309867" lon="13.1376917"><ele>727.0</ele><time>2026-04-02T08:17:59.834Z</time></trkpt><trkpt lat="41.8310533" lon="13.1377567"><ele>727.0</ele><time>2026-04-02T08:18:00.834Z</time></trkpt><trkpt lat="41.83111" lon="13.1378617"><ele>727.0</ele><time>2026-04-02T08:18:01.832Z</time></trkpt><trkpt lat="41.83118" lon="13.138035"><ele>728.6666666666667</ele><time>2026-04-02T08:18:02.833Z</time></trkpt><trkpt lat="41.8312667" lon="13.138205"><ele>730.3333333333334</ele><time>2026-04-02T08:18:03.833Z</time></trkpt><trkpt lat="41.831365" lon="13.1383617"><ele>732.0</ele><time>2026-04-02T08:18:04.831Z</time></trkpt><trkpt lat="41.831475" lon="13.1385117"><ele>735.0</ele><time>2026-04-02T08:18:05.832Z</time></trkpt><trkpt lat="41.8315917" lon="13.1386717"><ele>738.0</ele><time>2026-04-02T08:18:06.832Z</time></trkpt><trkpt lat="41.8317083" lon="13.1388467"><ele>741.0</ele><time>2026-04-02T08:18:07.831Z</time></trkpt><trkpt lat="41.8318233" lon="13.1390433"><ele>743.6666666666666</ele><time>2026-04-02T08:18:08.831Z</time></trkpt><trkpt lat="41.831935" lon="13.139265"><ele>746.3333333333333</ele><time>2026-04-02T08:18:09.831Z</time></trkpt><trkpt lat="41.83205" lon="13.1394967"><ele>749.0</ele><time>2026-04-02T08:18:10.829Z</time></trkpt><trkpt lat="41.832155" lon="13.13972"><ele>752.3333333333333</ele><time>2026-04-02T08:18:11.831Z</time></trkpt><trkpt lat="41.8322383" lon="13.1399283"><ele>755.6666666666666</ele><time>2026-04-02T08:18:12.831Z</time></trkpt><trkpt lat="41.8323083" lon="13.140115"><ele>759.0</ele><time>2026-04-02T08:18:13.833Z</time></trkpt><trkpt lat="41.8323817" lon="13.1402733"><ele>759.0</ele><time>2026-04-02T08:18:14.832Z</time></trkpt><trkpt lat="41.8324683" lon="13.1404017"><ele>759.0</ele><time>2026-04-02T08:18:15.832Z</time></trkpt><trkpt lat="41.8325683" lon="13.1404883"><ele>759.0</ele><time>2026-04-02T08:18:16.832Z</time></trkpt><trkpt lat="41.832695" lon="13.1405383"><ele>759.0</ele><time>2026-04-02T08:18:17.833Z</time></trkpt><trkpt lat="41.8328317" lon="13.1405633"><ele>760.0</ele><time>2026-04-02T08:18:18.835Z</time></trkpt><trkpt lat="41.8329717" lon="13.1405867"><ele>761.0</ele><time>2026-04-02T08:18:19.834Z</time></trkpt><trkpt lat="41.833115" lon="13.1406217"><ele>762.0</ele><time>2026-04-02T08:18:20.834Z</time></trkpt><trkpt lat="41.8332433" lon="13.1406567"><ele>763.0</ele><time>2026-04-02T08:18:21.831Z</time></trkpt><trkpt lat="41.83334" lon="13.14071"><ele>764.2</ele><time>2026-04-02T08:18:22.833Z</time></trkpt><trkpt lat="41.8334" lon="13.1407917"><ele>765.4</ele><time>2026-04-02T08:18:23.834Z</time></trkpt><trkpt lat="41.8334333" lon="13.1409017"><ele>766.6</ele><time>2026-04-02T08:18:24.833Z</time></trkpt><trkpt lat="41.8334333" lon="13.1410333"><ele>767.8000000000001</ele><time>2026-04-02T08:18:25.834Z</time></trkpt><trkpt lat="41.83338" lon="13.14119"><ele>769.0</ele><time>2026-04-02T08:18:26.833Z</time></trkpt><trkpt lat="41.83332" lon="13.1413683"><ele>771.25</ele><time>2026-04-02T08:18:27.834Z</time></trkpt><trkpt lat="41.83327" lon="13.1415517"><ele>773.5</ele><time>2026-04-02T08:18:28.832Z</time></trkpt><trkpt lat="41.8332283" lon="13.1417367"><ele>775.75</ele><time>2026-04-02T08:18:29.832Z</time></trkpt><trkpt lat="41.83321" lon="13.1419383"><ele>778.0</ele><time>2026-04-02T08:18:30.835Z</time></trkpt><trkpt lat="41.8331983" lon="13.1421567"><ele>778.0</ele><time>2026-04-02T08:18:31.831Z</time></trkpt><trkpt lat="41.8332" lon="13.1423917"><ele>778.0</ele><time>2026-04-02T08:18:32.832Z</time></trkpt><trkpt lat="41.8332083" lon="13.1426233"><ele>778.0</ele><time>2026-04-02T08:18:33.831Z</time></trkpt><trkpt lat="41.8332267" lon="13.1428333"><ele>778.0</ele><time>2026-04-02T08:18:34.832Z</time></trkpt><trkpt lat="41.8332683" lon="13.1430183"><ele>778.0</ele><time>2026-04-02T08:18:35.832Z</time></trkpt><trkpt lat="41.83334" lon="13.1431783"><ele>778.0</ele><time>2026-04-02T08:18:36.831Z</time></trkpt><trkpt lat="41.8334417" lon="13.143315"><ele>778.0</ele><time>2026-04-02T08:18:37.832Z</time></trkpt><trkpt lat="41.8335583" lon="13.1434383"><ele>783.0</ele><time>2026-04-02T08:18:38.83Z</time></trkpt><trkpt lat="41.8336917" lon="13.1435433"><ele>788.0</ele><time>2026-04-02T08:18:39.832Z</time></trkpt><trkpt lat="41.8338317" lon="13.143645"><ele>793.0</ele><time>2026-04-02T08:18:40.832Z</time></trkpt><trkpt lat="41.8339617" lon="13.143755"><ele>793.0</ele><time>2026-04-02T08:18:41.832Z</time></trkpt><trkpt lat="41.83407" lon="13.1438817"><ele>793.0</ele><time>2026-04-02T08:18:42.832Z</time></trkpt><trkpt lat="41.83415" lon="13.1440383"><ele>793.0</ele><time>2026-04-02T08:18:43.83Z</time></trkpt><trkpt lat="41.8342117" lon="13.1442267"><ele>793.0</ele><time>2026-04-02T08:18:44.832Z</time></trkpt><trkpt lat="41.8342583" lon="13.1444233"><ele>791.75</ele><time>2026-04-02T08:18:45.831Z</time></trkpt><trkpt lat="41.834285" lon="13.1446233"><ele>790.5</ele><time>2026-04-02T08:18:46.831Z</time></trkpt><trkpt lat="41.83428" lon="13.1448217"><ele>789.25</ele><time>2026-04-02T08:18:47.83Z</time></trkpt><trkpt lat="41.8342467" lon="13.145005"><ele>788.0</ele><time>2026-04-02T08:18:48.832Z</time></trkpt><trkpt lat="41.8341717" lon="13.1451783"><ele>788.0</ele><time>2026-04-02T08:18:49.833Z</time></trkpt><trkpt lat="41.8340783" lon="13.1453433"><ele>788.0</ele><time>2026-04-02T08:18:50.833Z</time></trkpt><trkpt lat="41.8340017" lon="13.14552"><ele>788.0</ele><time>2026-04-02T08:18:51.831Z</time></trkpt><trkpt lat="41.83395" lon="13.14573"><ele>792.6666666666667</ele><time>2026-04-02T08:18:52.832Z</time></trkpt><trkpt lat="41.8339133" lon="13.1459683"><ele>797.3333333333333</ele><time>2026-04-02T08:18:53.832Z</time></trkpt><trkpt lat="41.8338717" lon="13.1462083"><ele>802.0</ele><time>2026-04-02T08:18:54.836Z</time></trkpt><trkpt lat="41.833815" lon="13.1464267"><ele>807.3333333333333</ele><time>2026-04-02T08:18:55.832Z</time></trkpt><trkpt lat="41.83375" lon="13.14662"><ele>812.6666666666667</ele><time>2026-04-02T08:18:56.835Z</time></trkpt><trkpt lat="41.8336683" lon="13.1467917"><ele>818.0</ele><time>2026-04-02T08:18:57.833Z</time></trkpt><trkpt lat="41.8335617" lon="13.146945"><ele>813.0</ele><time>2026-04-02T08:18:58.834Z</time></trkpt><trkpt lat="41.833455" lon="13.1470883"><ele>808.0</ele><time>2026-04-02T08:18:59.832Z</time></trkpt><trkpt lat="41.8333667" lon="13.14722"><ele>803.0</ele><time>2026-04-02T08:19:00.835Z</time></trkpt><trkpt lat="41.8333067" lon="13.1473583"><ele>798.0</ele><time>2026-04-02T08:19:01.831Z</time></trkpt><trkpt lat="41.833285" lon="13.14749"><ele>798.0</ele><time>2026-04-02T08:19:02.832Z</time></trkpt><trkpt lat="41.8333" lon="13.1476067"><ele>798.0</ele><time>2026-04-02T08:19:03.832Z</time></trkpt><trkpt lat="41.8333467" lon="13.1477133"><ele>798.0</ele><time>2026-04-02T08:19:04.833Z</time></trkpt><trkpt lat="41.8334333" lon="13.147805"><ele>798.0</ele><time>2026-04-02T08:19:05.833Z</time></trkpt><trkpt lat="41.8335483" lon="13.1479183"><ele>798.0</ele><time>2026-04-02T08:19:06.832Z</time></trkpt><trkpt lat="41.83364" lon="13.1480667"><ele>810.6666666666667</ele><time>2026-04-02T08:19:07.83Z</time></trkpt><trkpt lat="41.833715" lon="13.148255"><ele>823.3333333333334</ele><time>2026-04-02T08:19:08.831Z</time></trkpt><trkpt lat="41.8337633" lon="13.148475"><ele>836.0</ele><time>2026-04-02T08:19:09.831Z</time></trkpt><trkpt lat="41.8338017" lon="13.14871"><ele>836.0</ele><time>2026-04-02T08:19:10.832Z</time></trkpt><trkpt lat="41.8338383" lon="13.1489433"><ele>836.0</ele><time>2026-04-02T08:19:11.829Z</time></trkpt><trkpt lat="41.8338733" lon="13.1491583"><ele>836.0</ele><time>2026-04-02T08:19:12.832Z</time></trkpt><trkpt lat="41.833905" lon="13.1493483"><ele>835.4</ele><time>2026-04-02T08:19:13.832Z</time></trkpt><trkpt lat="41.8339233" lon="13.149505"><ele>834.8</ele><time>2026-04-02T08:19:14.832Z</time></trkpt><trkpt lat="41.8339167" lon="13.1496317"><ele>834.1999999999999</ele><time>2026-04-02T08:19:15.833Z</time></trkpt><trkpt lat="41.8338817" lon="13.14974"><ele>833.5999999999999</ele><time>2026-04-02T08:19:16.831Z</time></trkpt><trkpt lat="41.833815" lon="13.14982"><ele>833.0</ele><time>2026-04-02T08:19:17.832Z</time></trkpt><trkpt lat="41.8337283" lon="13.1498617"><ele>833.0</ele><time>2026-04-02T08:19:18.833Z</time></trkpt><trkpt lat="41.8336033" lon="13.149845"><ele>833.0</ele><time>2026-04-02T08:19:19.833Z</time></trkpt><trkpt lat="41.8334633" lon="13.1498"><ele>833.0</ele><time>2026-04-02T08:19:20.83Z</time></trkpt><trkpt lat="41.8333083" lon="13.1497483"><ele>833.0</ele><time>2026-04-02T08:19:21.833Z</time></trkpt><trkpt lat="41.83316" lon="13.1496983"><ele>833.5</ele><time>2026-04-02T08:19:22.831Z</time></trkpt><trkpt lat="41.8330183" lon="13.1496783"><ele>834.0</ele><time>2026-04-02T08:19:23.832Z</time></trkpt><trkpt lat="41.832895" lon="13.149695"><ele>834.5</ele><time>2026-04-02T08:19:24.836Z</time></trkpt><trkpt lat="41.8327833" lon="13.1497633"><ele>835.0</ele><time>2026-04-02T08:19:25.834Z</time></trkpt><trkpt lat="41.8326833" lon="13.1499"><ele>833.4</ele><time>2026-04-02T08:19:26.834Z</time></trkpt><trkpt lat="41.83259" lon="13.1500367"><ele>831.8</ele><time>2026-04-02T08:19:27.834Z</time></trkpt><trkpt lat="41.8325067" lon="13.1501417"><ele>830.2</ele><time>2026-04-02T08:19:28.834Z</time></trkpt><trkpt lat="41.8324233" lon="13.1502"><ele>828.6</ele><time>2026-04-02T08:19:29.834Z</time></trkpt><trkpt lat="41.8323433" lon="13.15024"><ele>827.0</ele><time>2026-04-02T08:19:30.833Z</time></trkpt><trkpt lat="41.8322533" lon="13.1502367"><ele>827.0</ele><time>2026-04-02T08:19:31.832Z</time></trkpt><trkpt lat="41.8321583" lon="13.15021"><ele>827.0</ele><time>2026-04-02T08:19:32.831Z</time></trkpt><trkpt lat="41.832055" lon="13.15019"><ele>827.0</ele><time>2026-04-02T08:19:33.833Z</time></trkpt><trkpt lat="41.8319283" lon="13.150095"><ele>827.0</ele><time>2026-04-02T08:19:34.832Z</time></trkpt><trkpt lat="41.8318067" lon="13.1500083"><ele>823.75</ele><time>2026-04-02T08:19:35.833Z</time></trkpt><trkpt lat="41.8316483" lon="13.1499033"><ele>820.5</ele><time>2026-04-02T08:19:36.831Z</time></trkpt><trkpt lat="41.8315167" lon="13.1498283"><ele>817.25</ele><time>2026-04-02T08:19:37.833Z</time></trkpt><trkpt lat="41.8314" lon="13.149755"><ele>814.0</ele><time>2026-04-02T08:19:38.835Z</time></trkpt><trkpt lat="41.831285" lon="13.14977"><ele>814.0</ele><time>2026-04-02T08:19:39.829Z</time></trkpt><trkpt lat="41.8311483" lon="13.1498167"><ele>814.0</ele><time>2026-04-02T08:19:40.832Z</time></trkpt><trkpt lat="41.8310083" lon="13.1498817"><ele>814.0</ele><time>2026-04-02T08:19:41.83Z</time></trkpt><trkpt lat="41.8308583" lon="13.14997"><ele>820.3333333333333</ele><time>2026-04-02T08:19:42.831Z</time></trkpt><trkpt lat="41.8307217" lon="13.1500683"><ele>826.6666666666667</ele><time>2026-04-02T08:19:43.83Z</time></trkpt><trkpt lat="41.8305883" lon="13.1501733"><ele>833.0</ele><time>2026-04-02T08:19:44.832Z</time></trkpt><trkpt lat="41.8304767" lon="13.1503083"><ele>833.0</ele><time>2026-04-02T08:19:45.833Z</time></trkpt><trkpt lat="41.8304017" lon="13.1504983"><ele>833.0</ele><time>2026-04-02T08:19:46.83Z</time></trkpt><trkpt lat="41.8303717" lon="13.15073"><ele>833.0</ele><time>2026-04-02T08:19:47.832Z</time></trkpt><trkpt lat="41.8303467" lon="13.1509767"><ele>840.6666666666667</ele><time>2026-04-02T08:19:48.834Z</time></trkpt><trkpt lat="41.8303117" lon="13.1512367"><ele>848.3333333333333</ele><time>2026-04-02T08:19:49.834Z</time></trkpt><trkpt lat="41.8302567" lon="13.1514983"><ele>856.0</ele><time>2026-04-02T08:19:50.834Z</time></trkpt><trkpt lat="41.8301767" lon="13.1517317"><ele>854.25</ele><time>2026-04-02T08:19:51.834Z</time></trkpt><trkpt lat="41.830085" lon="13.1519267"><ele>852.5</ele><time>2026-04-02T08:19:52.833Z</time></trkpt><trkpt lat="41.8299967" lon="13.1520833"><ele>850.75</ele><time>2026-04-02T08:19:53.834Z</time></trkpt><trkpt lat="41.8299317" lon="13.1522317"><ele>849.0</ele><time>2026-04-02T08:19:54.834Z</time></trkpt><trkpt lat="41.82991" lon="13.1524033"><ele>849.0</ele><time>2026-04-02T08:19:55.835Z</time></trkpt><trkpt lat="41.8299217" lon="13.1525983"><ele>849.0</ele><time>2026-04-02T08:19:56.834Z</time></trkpt><trkpt lat="41.829945" lon="13.152815"><ele>849.0</ele><time>2026-04-02T08:19:57.835Z</time></trkpt><trkpt lat="41.8299617" lon="13.153055"><ele>851.0</ele><time>2026-04-02T08:19:58.835Z</time></trkpt><trkpt lat="41.8299633" lon="13.1533233"><ele>853.0</ele><time>2026-04-02T08:19:59.835Z</time></trkpt><trkpt lat="41.8299467" lon="13.1536217"><ele>855.0</ele><time>2026-04-02T08:20:00.832Z</time></trkpt><trkpt lat="41.8299217" lon="13.153935"><ele>857.5</ele><time>2026-04-02T08:20:01.836Z</time></trkpt><trkpt lat="41.8298917" lon="13.1542567"><ele>860.0</ele><time>2026-04-02T08:20:02.831Z</time></trkpt><trkpt lat="41.8298617" lon="13.1545933"><ele>865.5</ele><time>2026-04-02T08:20:03.834Z</time></trkpt><trkpt lat="41.8298267" lon="13.1549183"><ele>871.0</ele><time>2026-04-02T08:20:04.833Z</time></trkpt><trkpt lat="41.82978" lon="13.1552117"><ele>871.0</ele><time>2026-04-02T08:20:05.83Z</time></trkpt><trkpt lat="41.82971" lon="13.1554717"><ele>871.0</ele><time>2026-04-02T08:20:06.834Z</time></trkpt><trkpt lat="41.8296167" lon="13.1557017"><ele>871.0</ele><time>2026-04-02T08:20:07.832Z</time></trkpt><trkpt lat="41.8295267" lon="13.1559217"><ele>877.3333333333333</ele><time>2026-04-02T08:20:08.831Z</time></trkpt><trkpt lat="41.8294483" lon="13.1561483"><ele>883.6666666666667</ele><time>2026-04-02T08:20:09.832Z</time></trkpt><trkpt lat="41.8293917" lon="13.1563933"><ele>890.0</ele><time>2026-04-02T08:20:10.833Z</time></trkpt><trkpt lat="41.82934" lon="13.1566533"><ele>884.6666666666667</ele><time>2026-04-02T08:20:11.832Z</time></trkpt><trkpt lat="41.8292867" lon="13.1569183"><ele>879.3333333333333</ele><time>2026-04-02T08:20:12.834Z</time></trkpt><trkpt lat="41.8292383" lon="13.1571967"><ele>874.0</ele><time>2026-04-02T08:20:13.832Z</time></trkpt><trkpt lat="41.8292167" lon="13.1574967"><ele>874.0</ele><time>2026-04-02T08:20:14.832Z</time></trkpt><trkpt lat="41.8292117" lon="13.1578217"><ele>874.0</ele><time>2026-04-02T08:20:15.83Z</time></trkpt><trkpt lat="41.8292067" lon="13.1581667"><ele>875.0</ele><time>2026-04-02T08:20:16.832Z</time></trkpt><trkpt lat="41.8292017" lon="13.15853"><ele>876.0</ele><time>2026-04-02T08:20:17.831Z</time></trkpt><trkpt lat="41.829195" lon="13.1588967"><ele>877.0</ele><time>2026-04-02T08:20:18.834Z</time></trkpt><trkpt lat="41.8291917" lon="13.15927"><ele>878.0</ele><time>2026-04-02T08:20:19.835Z</time></trkpt><trkpt lat="41.8291883" lon="13.1596533"><ele>877.0</ele><time>2026-04-02T08:20:20.835Z</time></trkpt><trkpt lat="41.8291783" lon="13.1600333"><ele>876.0</ele><time>2026-04-02T08:20:21.834Z</time></trkpt><trkpt lat="41.8291567" lon="13.1604017"><ele>877.0</ele><time>2026-04-02T08:20:22.835Z</time></trkpt><trkpt lat="41.829125" lon="13.1607483"><ele>878.0</ele><time>2026-04-02T08:20:23.834Z</time></trkpt><trkpt lat="41.8291" lon="13.1610833"><ele>878.0</ele><time>2026-04-02T08:20:24.834Z</time></trkpt><trkpt lat="41.829085" lon="13.161425"><ele>878.0</ele><time>2026-04-02T08:20:25.834Z</time></trkpt><trkpt lat="41.8290683" lon="13.161775"><ele>880.0</ele><time>2026-04-02T08:20:26.833Z</time></trkpt><trkpt lat="41.8290333" lon="13.162135"><ele>882.0</ele><time>2026-04-02T08:20:27.834Z</time></trkpt><trkpt lat="41.8289867" lon="13.162505"><ele>885.5</ele><time>2026-04-02T08:20:28.833Z</time></trkpt><trkpt lat="41.8289417" lon="13.16287"><ele>889.0</ele><time>2026-04-02T08:20:29.834Z</time></trkpt><trkpt lat="41.8288967" lon="13.1632083"><ele>894.5</ele><time>2026-04-02T08:20:30.834Z</time></trkpt><trkpt lat="41.8288517" lon="13.1635367"><ele>900.0</ele><time>2026-04-02T08:20:31.831Z</time></trkpt><trkpt lat="41.8288183" lon="13.1638667"><ele>902.5</ele><time>2026-04-02T08:20:32.834Z</time></trkpt><trkpt lat="41.8287967" lon="13.1641933"><ele>905.0</ele><time>2026-04-02T08:20:33.832Z</time></trkpt><trkpt lat="41.8287817" lon="13.1645083"><ele>905.0</ele><time>2026-04-02T08:20:34.831Z</time></trkpt><trkpt lat="41.82877" lon="13.1648017"><ele>905.0</ele><time>2026-04-02T08:20:35.831Z</time></trkpt><trkpt lat="41.82877" lon="13.16506"><ele>905.0</ele><time>2026-04-02T08:20:36.833Z</time></trkpt><trkpt lat="41.8287917" lon="13.1652933"><ele>904.3333333333334</ele><time>2026-04-02T08:20:37.832Z</time></trkpt><trkpt lat="41.82883" lon="13.1655083"><ele>903.6666666666667</ele><time>2026-04-02T08:20:38.833Z</time></trkpt><trkpt lat="41.828875" lon="13.1657083"><ele>903.0</ele><time>2026-04-02T08:20:39.833Z</time></trkpt><trkpt lat="41.8289033" lon="13.1658967"><ele>901.5</ele><time>2026-04-02T08:20:40.829Z</time></trkpt><trkpt lat="41.8289083" lon="13.1660767"><ele>900.0</ele><time>2026-04-02T08:20:41.832Z</time></trkpt><trkpt lat="41.82888" lon="13.1662367"><ele>898.5</ele><time>2026-04-02T08:20:42.833Z</time></trkpt><trkpt lat="41.8288217" lon="13.1663933"><ele>897.0</ele><time>2026-04-02T08:20:43.833Z</time></trkpt><trkpt lat="41.82874" lon="13.16656"><ele>897.0</ele><time>2026-04-02T08:20:44.833Z</time></trkpt><trkpt lat="41.8286533" lon="13.1667517"><ele>897.0</ele><time>2026-04-02T08:20:45.833Z</time></trkpt><trkpt lat="41.8285633" lon="13.1669633"><ele>897.0</ele><time>2026-04-02T08:20:46.833Z</time></trkpt><trkpt lat="41.8284817" lon="13.167195"><ele>896.3333333333333</ele><time>2026-04-02T08:20:47.833Z</time></trkpt><trkpt lat="41.8284183" lon="13.1674517"><ele>895.6666666666666</ele><time>2026-04-02T08:20:48.834Z</time></trkpt><trkpt lat="41.8283667" lon="13.1677233"><ele>895.0</ele><time>2026-04-02T08:20:49.834Z</time></trkpt><trkpt lat="41.8283133" lon="13.1679967"><ele>895.3333333333333</ele><time>2026-04-02T08:20:50.834Z</time></trkpt><trkpt lat="41.8282683" lon="13.1682533"><ele>895.6666666666667</ele><time>2026-04-02T08:20:51.834Z</time></trkpt><trkpt lat="41.82823" lon="13.1684917"><ele>896.0</ele><time>2026-04-02T08:20:52.834Z</time></trkpt><trkpt lat="41.8282117" lon="13.1687267"><ele>896.0</ele><time>2026-04-02T08:20:53.834Z</time></trkpt><trkpt lat="41.8282067" lon="13.1689717"><ele>896.0</ele><time>2026-04-02T08:20:54.835Z</time></trkpt><trkpt lat="41.8282183" lon="13.169225"><ele>896.0</ele><time>2026-04-02T08:20:55.834Z</time></trkpt><trkpt lat="41.82823" lon="13.1694683"><ele>896.6666666666667</ele><time>2026-04-02T08:20:56.834Z</time></trkpt><trkpt lat="41.8282433" lon="13.1697"><ele>897.3333333333333</ele><time>2026-04-02T08:20:57.835Z</time></trkpt><trkpt lat="41.8282533" lon="13.1699283"><ele>898.0</ele><time>2026-04-02T08:20:58.835Z</time></trkpt><trkpt lat="41.8282633" lon="13.170155"><ele>898.3333333333333</ele><time>2026-04-02T08:20:59.832Z</time></trkpt><trkpt lat="41.8282983" lon="13.1703617"><ele>898.6666666666667</ele><time>2026-04-02T08:21:00.832Z</time></trkpt><trkpt lat="41.828335" lon="13.1705583"><ele>899.0</ele><time>2026-04-02T08:21:01.83Z</time></trkpt><trkpt lat="41.8284" lon="13.1707533"><ele>901.75</ele><time>2026-04-02T08:21:02.832Z</time></trkpt><trkpt lat="41.8284767" lon="13.1709367"><ele>904.5</ele><time>2026-04-02T08:21:03.833Z</time></trkpt><trkpt lat="41.828565" lon="13.1710933"><ele>907.25</ele><time>2026-04-02T08:21:04.83Z</time></trkpt><trkpt lat="41.8286567" lon="13.1712117"><ele>910.0</ele><time>2026-04-02T08:21:05.832Z</time></trkpt><trkpt lat="41.8287467" lon="13.1713033"><ele>910.0</ele><time>2026-04-02T08:21:06.831Z</time></trkpt><trkpt lat="41.828835" lon="13.1713617"><ele>910.0</ele><time>2026-04-02T08:21:07.833Z</time></trkpt><trkpt lat="41.828915" lon="13.1714"><ele>910.0</ele><time>2026-04-02T08:21:08.833Z</time></trkpt><trkpt lat="41.8289867" lon="13.171435"><ele>910.0</ele><time>2026-04-02T08:21:09.833Z</time></trkpt><trkpt lat="41.8290933" lon="13.1714933"><ele>910.0</ele><time>2026-04-02T08:21:11.832Z</time></trkpt><trkpt lat="41.8291617" lon="13.1715517"><ele>911.0</ele><time>2026-04-02T08:21:13.832Z</time></trkpt><trkpt lat="41.8292333" lon="13.1716183"><ele>912.0</ele><time>2026-04-02T08:21:16.833Z</time></trkpt><trkpt lat="41.82932" lon="13.1716417"><ele>913.0</ele><time>2026-04-02T08:21:28.834Z</time></trkpt><trkpt lat="41.8294417" lon="13.1716783"><ele>914.0</ele><time>2026-04-02T08:21:30.833Z</time></trkpt><trkpt lat="41.82952" lon="13.1717333"><ele>915.0</ele><time>2026-04-02T08:21:31.831Z</time></trkpt><trkpt lat="41.8295883" lon="13.1718117"><ele>915.0</ele><time>2026-04-02T08:21:32.832Z</time></trkpt><trkpt lat="41.8296367" lon="13.1719"><ele>915.0</ele><time>2026-04-02T08:21:33.833Z</time></trkpt><trkpt lat="41.8296517" lon="13.1720033"><ele>915.0</ele><time>2026-04-02T08:21:34.832Z</time></trkpt><trkpt lat="41.8296217" lon="13.1720967"><ele>915.0</ele><time>2026-04-02T08:21:35.83Z</time></trkpt><trkpt lat="41.8295683" lon="13.1721717"><ele>915.0</ele><time>2026-04-02T08:21:36.833Z</time></trkpt><trkpt lat="41.8294883" lon="13.17223"><ele>915.0</ele><time>2026-04-02T08:21:37.833Z</time></trkpt><trkpt lat="41.8294033" lon="13.1722833"><ele>915.0</ele><time>2026-04-02T08:21:38.832Z</time></trkpt><trkpt lat="41.8293133" lon="13.1723467"><ele>915.0</ele><time>2026-04-02T08:21:39.833Z</time></trkpt><trkpt lat="41.829245" lon="13.172435"><ele>915.0</ele><time>2026-04-02T08:21:40.833Z</time></trkpt><trkpt lat="41.8291933" lon="13.1725517"><ele>915.0</ele><time>2026-04-02T08:21:41.833Z</time></trkpt><trkpt lat="41.82917" lon="13.17269"><ele>915.0</ele><time>2026-04-02T08:21:42.832Z</time></trkpt><trkpt lat="41.8291767" lon="13.17286"><ele>915.0</ele><time>2026-04-02T08:21:43.833Z</time></trkpt><trkpt lat="41.8292183" lon="13.1730617"><ele>915.0</ele><time>2026-04-02T08:21:44.832Z</time></trkpt><trkpt lat="41.82928" lon="13.1732683"><ele>915.0</ele><time>2026-04-02T08:21:45.831Z</time></trkpt><trkpt lat="41.8293483" lon="13.1734717"><ele>917.6666666666667</ele><time>2026-04-02T08:21:46.831Z</time></trkpt><trkpt lat="41.829415" lon="13.1736617"><ele>920.3333333333334</ele><time>2026-04-02T08:21:47.833Z</time></trkpt><trkpt lat="41.82948" lon="13.1738433"><ele>923.0</ele><time>2026-04-02T08:21:48.833Z</time></trkpt><trkpt lat="41.8295383" lon="13.1740333"><ele>925.3333333333334</ele><time>2026-04-02T08:21:49.831Z</time></trkpt><trkpt lat="41.829585" lon="13.1742417"><ele>927.6666666666667</ele><time>2026-04-02T08:21:50.833Z</time></trkpt><trkpt lat="41.8296317" lon="13.174455"><ele>930.0</ele><time>2026-04-02T08:21:51.831Z</time></trkpt><trkpt lat="41.82968" lon="13.1746467"><ele>930.0</ele><time>2026-04-02T08:21:52.832Z</time></trkpt><trkpt lat="41.829735" lon="13.1748017"><ele>930.0</ele><time>2026-04-02T08:21:53.833Z</time></trkpt><trkpt lat="41.8297983" lon="13.1749333"><ele>930.0</ele><time>2026-04-02T08:21:54.835Z</time></trkpt><trkpt lat="41.8298533" lon="13.1750567"><ele>930.0</ele><time>2026-04-02T08:21:55.835Z</time></trkpt><trkpt lat="41.829885" lon="13.1751833"><ele>930.1666666666666</ele><time>2026-04-02T08:21:56.832Z</time></trkpt><trkpt lat="41.82989" lon="13.1753083"><ele>930.3333333333333</ele><time>2026-04-02T08:21:57.834Z</time></trkpt><trkpt lat="41.8298533" lon="13.17539"><ele>930.5</ele><time>2026-04-02T08:21:58.831Z</time></trkpt><trkpt lat="41.82979" lon="13.1754317"><ele>930.6666666666666</ele><time>2026-04-02T08:21:59.832Z</time></trkpt><trkpt lat="41.8297067" lon="13.17545"><ele>930.8333333333333</ele><time>2026-04-02T08:22:00.833Z</time></trkpt><trkpt lat="41.8296117" lon="13.175475"><ele>931.0</ele><time>2026-04-02T08:22:01.831Z</time></trkpt><trkpt lat="41.8295183" lon="13.175525"><ele>931.0</ele><time>2026-04-02T08:22:02.832Z</time></trkpt><trkpt lat="41.8294417" lon="13.17567"><ele>931.0</ele><time>2026-04-02T08:22:03.832Z</time></trkpt><trkpt lat="41.8293867" lon="13.1758483"><ele>931.0</ele><time>2026-04-02T08:22:04.833Z</time></trkpt><trkpt lat="41.8293583" lon="13.1760467"><ele>931.0</ele><time>2026-04-02T08:22:05.833Z</time></trkpt><trkpt lat="41.8293533" lon="13.176255"><ele>933.6666666666666</ele><time>2026-04-02T08:22:06.832Z</time></trkpt><trkpt lat="41.8293367" lon="13.1764717"><ele>936.3333333333333</ele><time>2026-04-02T08:22:07.833Z</time></trkpt><trkpt lat="41.82931" lon="13.1766983"><ele>939.0</ele><time>2026-04-02T08:22:08.833Z</time></trkpt><trkpt lat="41.829285" lon="13.1769217"><ele>939.0</ele><time>2026-04-02T08:22:09.831Z</time></trkpt><trkpt lat="41.8292683" lon="13.1771283"><ele>939.0</ele><time>2026-04-02T08:22:10.833Z</time></trkpt><trkpt lat="41.829275" lon="13.1773283"><ele>939.0</ele><time>2026-04-02T08:22:11.83Z</time></trkpt><trkpt lat="41.8293133" lon="13.1775333"><ele>941.0</ele><time>2026-04-02T08:22:12.833Z</time></trkpt><trkpt lat="41.8293667" lon="13.17773"><ele>943.0</ele><time>2026-04-02T08:22:13.829Z</time></trkpt><trkpt lat="41.8294367" lon="13.1779033"><ele>945.0</ele><time>2026-04-02T08:22:14.831Z</time></trkpt><trkpt lat="41.8295283" lon="13.178065"><ele>943.6666666666667</ele><time>2026-04-02T08:22:15.833Z</time></trkpt><trkpt lat="41.8296467" lon="13.178205"><ele>942.3333333333334</ele><time>2026-04-02T08:22:16.83Z</time></trkpt><trkpt lat="41.8297767" lon="13.1783417"><ele>941.0</ele><time>2026-04-02T08:22:17.829Z</time></trkpt><trkpt lat="41.829895" lon="13.1784767"><ele>941.0</ele><time>2026-04-02T08:22:18.831Z</time></trkpt><trkpt lat="41.8300067" lon="13.1786133"><ele>941.0</ele><time>2026-04-02T08:22:19.83Z</time></trkpt><trkpt lat="41.8301167" lon="13.1787533"><ele>941.0</ele><time>2026-04-02T08:22:20.832Z</time></trkpt><trkpt lat="41.8302133" lon="13.1789167"><ele>942.6666666666667</ele><time>2026-04-02T08:22:21.831Z</time></trkpt><trkpt lat="41.8302967" lon="13.1791167"><ele>944.3333333333333</ele><time>2026-04-02T08:22:22.833Z</time></trkpt><trkpt lat="41.830375" lon="13.179335"><ele>946.0</ele><time>2026-04-02T08:22:23.832Z</time></trkpt><trkpt lat="41.8304617" lon="13.1795483"><ele>946.0</ele><time>2026-04-02T08:22:24.836Z</time></trkpt><trkpt lat="41.8305467" lon="13.1797467"><ele>946.0</ele><time>2026-04-02T08:22:25.834Z</time></trkpt><trkpt lat="41.8306267" lon="13.1799367"><ele>946.0</ele><time>2026-04-02T08:22:26.833Z</time></trkpt><trkpt lat="41.830705" lon="13.1801167"><ele>945.75</ele><time>2026-04-02T08:22:27.833Z</time></trkpt><trkpt lat="41.83078" lon="13.18027"><ele>945.5</ele><time>2026-04-02T08:22:28.832Z</time></trkpt><trkpt lat="41.83087" lon="13.180385"><ele>945.25</ele><time>2026-04-02T08:22:29.834Z</time></trkpt><trkpt lat="41.8309867" lon="13.1804733"><ele>945.0</ele><time>2026-04-02T08:22:30.834Z</time></trkpt><trkpt lat="41.8311333" lon="13.1805417"><ele>945.0</ele><time>2026-04-02T08:22:31.832Z</time></trkpt><trkpt lat="41.8312867" lon="13.1805983"><ele>945.0</ele><time>2026-04-02T08:22:32.832Z</time></trkpt><trkpt lat="41.831435" lon="13.1806717"><ele>945.0</ele><time>2026-04-02T08:22:33.833Z</time></trkpt><trkpt lat="41.83157" lon="13.1807817"><ele>944.0</ele><time>2026-04-02T08:22:34.832Z</time></trkpt><trkpt lat="41.8316967" lon="13.1809017"><ele>943.0</ele><time>2026-04-02T08:22:35.832Z</time></trkpt><trkpt lat="41.8318283" lon="13.1810083"><ele>942.0</ele><time>2026-04-02T08:22:36.834Z</time></trkpt><trkpt lat="41.8319767" lon="13.181075"><ele>941.6666666666667</ele><time>2026-04-02T08:22:37.832Z</time></trkpt><trkpt lat="41.8321417" lon="13.1810867"><ele>941.3333333333334</ele><time>2026-04-02T08:22:38.832Z</time></trkpt><trkpt lat="41.8323133" lon="13.1810767"><ele>941.0</ele><time>2026-04-02T08:22:39.831Z</time></trkpt><trkpt lat="41.8324933" lon="13.1810367"><ele>939.3333333333334</ele><time>2026-04-02T08:22:40.831Z</time></trkpt><trkpt lat="41.83267" lon="13.1809533"><ele>937.6666666666667</ele><time>2026-04-02T08:22:41.832Z</time></trkpt><trkpt lat="41.8328467" lon="13.1808867"><ele>936.0</ele><time>2026-04-02T08:22:42.833Z</time></trkpt><trkpt lat="41.83302" lon="13.18085"><ele>936.0</ele><time>2026-04-02T08:22:43.833Z</time></trkpt><trkpt lat="41.83318" lon="13.18084"><ele>936.0</ele><time>2026-04-02T08:22:44.832Z</time></trkpt><trkpt lat="41.833345" lon="13.1808783"><ele>936.0</ele><time>2026-04-02T08:22:45.833Z</time></trkpt><trkpt lat="41.8335033" lon="13.1809417"><ele>934.25</ele><time>2026-04-02T08:22:46.831Z</time></trkpt><trkpt lat="41.8336467" lon="13.1809933"><ele>932.5</ele><time>2026-04-02T08:22:47.832Z</time></trkpt><trkpt lat="41.83377" lon="13.1810017"><ele>930.75</ele><time>2026-04-02T08:22:48.836Z</time></trkpt><trkpt lat="41.83388" lon="13.18096"><ele>929.0</ele><time>2026-04-02T08:22:49.832Z</time></trkpt><trkpt lat="41.8339767" lon="13.18086"><ele>929.0</ele><time>2026-04-02T08:22:50.831Z</time></trkpt><trkpt lat="41.834075" lon="13.18072"><ele>929.0</ele><time>2026-04-02T08:22:51.831Z</time></trkpt><trkpt lat="41.8341833" lon="13.18056"><ele>929.0</ele><time>2026-04-02T08:22:52.831Z</time></trkpt><trkpt lat="41.8343017" lon="13.1804017"><ele>926.3333333333334</ele><time>2026-04-02T08:22:53.832Z</time></trkpt><trkpt lat="41.83441" lon="13.1802467"><ele>923.6666666666667</ele><time>2026-04-02T08:22:54.835Z</time></trkpt><trkpt lat="41.8345033" lon="13.1800817"><ele>921.0</ele><time>2026-04-02T08:22:55.834Z</time></trkpt><trkpt lat="41.83458" lon="13.1799067"><ele>923.0</ele><time>2026-04-02T08:22:56.832Z</time></trkpt><trkpt lat="41.8346333" lon="13.1797417"><ele>925.0</ele><time>2026-04-02T08:22:57.834Z</time></trkpt><trkpt lat="41.834695" lon="13.1796067"><ele>927.0</ele><time>2026-04-02T08:22:58.832Z</time></trkpt><trkpt lat="41.83477" lon="13.1795083"><ele>929.0</ele><time>2026-04-02T08:22:59.832Z</time></trkpt><trkpt lat="41.8348717" lon="13.179465"><ele>929.0</ele><time>2026-04-02T08:23:00.832Z</time></trkpt><trkpt lat="41.834995" lon="13.1794767"><ele>929.0</ele><time>2026-04-02T08:23:01.83Z</time></trkpt><trkpt lat="41.8351383" lon="13.179525"><ele>929.0</ele><time>2026-04-02T08:23:02.83Z</time></trkpt><trkpt lat="41.8353017" lon="13.1795783"><ele>929.0</ele><time>2026-04-02T08:23:03.83Z</time></trkpt><trkpt lat="41.8354783" lon="13.179635"><ele>928.0</ele><time>2026-04-02T08:23:04.831Z</time></trkpt><trkpt lat="41.83566" lon="13.1797217"><ele>927.0</ele><time>2026-04-02T08:23:05.83Z</time></trkpt><trkpt lat="41.83584" lon="13.179825"><ele>926.0</ele><time>2026-04-02T08:23:06.833Z</time></trkpt><trkpt lat="41.8360117" lon="13.17993"><ele>926.0</ele><time>2026-04-02T08:23:07.833Z</time></trkpt><trkpt lat="41.8361733" lon="13.180015"><ele>926.0</ele><time>2026-04-02T08:23:08.833Z</time></trkpt><trkpt lat="41.8363283" lon="13.180085"><ele>926.0</ele><time>2026-04-02T08:23:09.831Z</time></trkpt><trkpt lat="41.8364733" lon="13.1801433"><ele>926.0</ele><time>2026-04-02T08:23:10.833Z</time></trkpt><trkpt lat="41.8366317" lon="13.1801717"><ele>926.0</ele><time>2026-04-02T08:23:11.832Z</time></trkpt><trkpt lat="41.8367983" lon="13.180165"><ele>926.0</ele><time>2026-04-02T08:23:12.831Z</time></trkpt><trkpt lat="41.8369683" lon="13.180145"><ele>923.3333333333334</ele><time>2026-04-02T08:23:13.832Z</time></trkpt><trkpt lat="41.837135" lon="13.1801033"><ele>920.6666666666667</ele><time>2026-04-02T08:23:14.834Z</time></trkpt><trkpt lat="41.8372933" lon="13.1800467"><ele>918.0</ele><time>2026-04-02T08:23:15.833Z</time></trkpt><trkpt lat="41.837445" lon="13.179955"><ele>919.6666666666667</ele><time>2026-04-02T08:23:16.83Z</time></trkpt><trkpt lat="41.8375783" lon="13.1798167"><ele>921.3333333333334</ele><time>2026-04-02T08:23:17.833Z</time></trkpt><trkpt lat="41.8377" lon="13.17962"><ele>923.0</ele><time>2026-04-02T08:23:18.832Z</time></trkpt><trkpt lat="41.837815" lon="13.1794183"><ele>919.3333333333334</ele><time>2026-04-02T08:23:19.832Z</time></trkpt><trkpt lat="41.8379267" lon="13.1792217"><ele>915.6666666666667</ele><time>2026-04-02T08:23:20.833Z</time></trkpt><trkpt lat="41.8380483" lon="13.1790533"><ele>912.0</ele><time>2026-04-02T08:23:21.832Z</time></trkpt><trkpt lat="41.838195" lon="13.178905"><ele>912.0</ele><time>2026-04-02T08:23:22.832Z</time></trkpt><trkpt lat="41.8383567" lon="13.178755"><ele>912.0</ele><time>2026-04-02T08:23:23.833Z</time></trkpt><trkpt lat="41.8385217" lon="13.1786033"><ele>912.0</ele><time>2026-04-02T08:23:24.835Z</time></trkpt><trkpt lat="41.8386933" lon="13.1784567"><ele>908.6666666666667</ele><time>2026-04-02T08:23:25.834Z</time></trkpt><trkpt lat="41.8388667" lon="13.1783217"><ele>905.3333333333334</ele><time>2026-04-02T08:23:26.835Z</time></trkpt><trkpt lat="41.8390283" lon="13.1781917"><ele>902.0</ele><time>2026-04-02T08:23:27.834Z</time></trkpt><trkpt lat="41.8391833" lon="13.17809"><ele>897.6666666666667</ele><time>2026-04-02T08:23:28.834Z</time></trkpt><trkpt lat="41.839345" lon="13.1780117"><ele>893.3333333333333</ele><time>2026-04-02T08:23:29.835Z</time></trkpt><trkpt lat="41.839525" lon="13.177975"><ele>889.0</ele><time>2026-04-02T08:23:30.836Z</time></trkpt><trkpt lat="41.8397117" lon="13.177965"><ele>889.0</ele><time>2026-04-02T08:23:31.833Z</time></trkpt><trkpt lat="41.8399067" lon="13.1779533"><ele>889.0</ele><time>2026-04-02T08:23:32.83Z</time></trkpt><trkpt lat="41.8400983" lon="13.1779267"><ele>889.0</ele><time>2026-04-02T08:23:33.832Z</time></trkpt><trkpt lat="41.840275" lon="13.1778933"><ele>884.6666666666666</ele><time>2026-04-02T08:23:34.831Z</time></trkpt><trkpt lat="41.8404483" lon="13.17789"><ele>880.3333333333333</ele><time>2026-04-02T08:23:35.832Z</time></trkpt><trkpt lat="41.8406267" lon="13.17792"><ele>876.0</ele><time>2026-04-02T08:23:36.833Z</time></trkpt><trkpt lat="41.8408033" lon="13.1779833"><ele>876.3333333333333</ele><time>2026-04-02T08:23:37.832Z</time></trkpt><trkpt lat="41.84097" lon="13.17807"><ele>876.6666666666666</ele><time>2026-04-02T08:23:38.831Z</time></trkpt><trkpt lat="41.8411283" lon="13.1781833"><ele>877.0</ele><time>2026-04-02T08:23:39.831Z</time></trkpt><trkpt lat="41.84128" lon="13.1783233"><ele>877.0</ele><time>2026-04-02T08:23:40.831Z</time></trkpt><trkpt lat="41.84142" lon="13.1784833"><ele>877.0</ele><time>2026-04-02T08:23:41.832Z</time></trkpt><trkpt lat="41.8415383" lon="13.17866"><ele>877.0</ele><time>2026-04-02T08:23:42.831Z</time></trkpt><trkpt lat="41.8416533" lon="13.17883"><ele>876.6666666666666</ele><time>2026-04-02T08:23:43.833Z</time></trkpt><trkpt lat="41.841745" lon="13.1790217"><ele>876.3333333333333</ele><time>2026-04-02T08:23:44.83Z</time></trkpt><trkpt lat="41.84183" lon="13.179225"><ele>876.0</ele><time>2026-04-02T08:23:45.833Z</time></trkpt><trkpt lat="41.8419267" lon="13.1794233"><ele>875.0</ele><time>2026-04-02T08:23:46.832Z</time></trkpt><trkpt lat="41.8420367" lon="13.1796083"><ele>874.0</ele><time>2026-04-02T08:23:47.831Z</time></trkpt><trkpt lat="41.842145" lon="13.1797767"><ele>873.0</ele><time>2026-04-02T08:23:48.834Z</time></trkpt><trkpt lat="41.842235" lon="13.1799667"><ele>872.0</ele><time>2026-04-02T08:23:49.83Z</time></trkpt><trkpt lat="41.84232" lon="13.1801917"><ele>871.0</ele><time>2026-04-02T08:23:50.834Z</time></trkpt><trkpt lat="41.8424117" lon="13.1804433"><ele>870.0</ele><time>2026-04-02T08:23:51.832Z</time></trkpt><trkpt lat="41.8425" lon="13.180705"><ele>870.0</ele><time>2026-04-02T08:23:52.834Z</time></trkpt><trkpt lat="41.8425883" lon="13.180975"><ele>870.0</ele><time>2026-04-02T08:23:53.834Z</time></trkpt><trkpt lat="41.842655" lon="13.18123"><ele>870.0</ele><time>2026-04-02T08:23:54.833Z</time></trkpt><trkpt lat="41.8427167" lon="13.1814833"><ele>870.3333333333333</ele><time>2026-04-02T08:23:55.835Z</time></trkpt><trkpt lat="41.842765" lon="13.181745"><ele>870.6666666666666</ele><time>2026-04-02T08:23:56.832Z</time></trkpt><trkpt lat="41.8428033" lon="13.1819933"><ele>871.0</ele><time>2026-04-02T08:23:57.834Z</time></trkpt><trkpt lat="41.8428383" lon="13.1822167"><ele>870.3333333333333</ele><time>2026-04-02T08:23:58.833Z</time></trkpt><trkpt lat="41.842865" lon="13.1824217"><ele>869.6666666666667</ele><time>2026-04-02T08:23:59.832Z</time></trkpt><trkpt lat="41.8429017" lon="13.182615"><ele>869.0</ele><time>2026-04-02T08:24:00.834Z</time></trkpt><trkpt lat="41.8429667" lon="13.1828067"><ele>869.0</ele><time>2026-04-02T08:24:01.83Z</time></trkpt><trkpt lat="41.8430483" lon="13.1830033"><ele>869.0</ele><time>2026-04-02T08:24:02.832Z</time></trkpt><trkpt lat="41.84313" lon="13.1831983"><ele>869.0</ele><time>2026-04-02T08:24:03.831Z</time></trkpt><trkpt lat="41.8432" lon="13.1833983"><ele>867.0</ele><time>2026-04-02T08:24:04.831Z</time></trkpt><trkpt lat="41.8432567" lon="13.1836067"><ele>865.0</ele><time>2026-04-02T08:24:05.831Z</time></trkpt><trkpt lat="41.84332" lon="13.18382"><ele>863.0</ele><time>2026-04-02T08:24:06.831Z</time></trkpt><trkpt lat="41.8434017" lon="13.1840283"><ele>860.0</ele><time>2026-04-02T08:24:07.832Z</time></trkpt><trkpt lat="41.8435167" lon="13.1842367"><ele>857.0</ele><time>2026-04-02T08:24:08.832Z</time></trkpt><trkpt lat="41.843655" lon="13.1844517"><ele>854.0</ele><time>2026-04-02T08:24:09.832Z</time></trkpt><trkpt lat="41.8437933" lon="13.1846633"><ele>854.6666666666667</ele><time>2026-04-02T08:24:10.831Z</time></trkpt><trkpt lat="41.8439267" lon="13.184865"><ele>855.3333333333333</ele><time>2026-04-02T08:24:11.832Z</time></trkpt><trkpt lat="41.84405" lon="13.185045"><ele>856.0</ele><time>2026-04-02T08:24:12.833Z</time></trkpt><trkpt lat="41.84416" lon="13.1852067"><ele>856.0</ele><time>2026-04-02T08:24:13.831Z</time></trkpt><trkpt lat="41.8442483" lon="13.18536"><ele>856.0</ele><time>2026-04-02T08:24:14.833Z</time></trkpt><trkpt lat="41.8443117" lon="13.1855167"><ele>856.0</ele><time>2026-04-02T08:24:15.833Z</time></trkpt><trkpt lat="41.8443383" lon="13.1856833"><ele>856.0</ele><time>2026-04-02T08:24:16.833Z</time></trkpt><trkpt lat="41.8443333" lon="13.1858617"><ele>855.75</ele><time>2026-04-02T08:24:17.833Z</time></trkpt><trkpt lat="41.8442983" lon="13.186055"><ele>855.5</ele><time>2026-04-02T08:24:18.832Z</time></trkpt><trkpt lat="41.8442633" lon="13.1862483"><ele>855.25</ele><time>2026-04-02T08:24:19.833Z</time></trkpt><trkpt lat="41.8442567" lon="13.1864167"><ele>855.0</ele><time>2026-04-02T08:24:20.836Z</time></trkpt><trkpt lat="41.8442717" lon="13.186555"><ele>853.6</ele><time>2026-04-02T08:24:21.834Z</time></trkpt><trkpt lat="41.8443267" lon="13.1866667"><ele>852.2</ele><time>2026-04-02T08:24:22.835Z</time></trkpt><trkpt lat="41.8444067" lon="13.1867583"><ele>850.8</ele><time>2026-04-02T08:24:23.835Z</time></trkpt><trkpt lat="41.8445017" lon="13.1868083"><ele>849.4</ele><time>2026-04-02T08:24:24.832Z</time></trkpt><trkpt lat="41.844595" lon="13.1868217"><ele>848.0</ele><time>2026-04-02T08:24:25.835Z</time></trkpt><trkpt lat="41.8446933" lon="13.186755"><ele>848.0</ele><time>2026-04-02T08:24:26.836Z</time></trkpt><trkpt lat="41.84478" lon="13.1866383"><ele>848.0</ele><time>2026-04-02T08:24:27.833Z</time></trkpt><trkpt lat="41.8448667" lon="13.1864833"><ele>848.0</ele><time>2026-04-02T08:24:28.834Z</time></trkpt><trkpt lat="41.8449667" lon="13.1863167"><ele>848.0</ele><time>2026-04-02T08:24:29.837Z</time></trkpt><trkpt lat="41.8450817" lon="13.1861383"><ele>848.3333333333334</ele><time>2026-04-02T08:24:30.835Z</time></trkpt><trkpt lat="41.8452117" lon="13.1859567"><ele>848.6666666666667</ele><time>2026-04-02T08:24:31.833Z</time></trkpt><trkpt lat="41.845345" lon="13.1857883"><ele>849.0</ele><time>2026-04-02T08:24:32.833Z</time></trkpt><trkpt lat="41.8454733" lon="13.18564"><ele>848.3333333333333</ele><time>2026-04-02T08:24:33.834Z</time></trkpt><trkpt lat="41.8456033" lon="13.185525"><ele>847.6666666666666</ele><time>2026-04-02T08:24:34.832Z</time></trkpt><trkpt lat="41.8457483" lon="13.1854533"><ele>847.0</ele><time>2026-04-02T08:24:35.833Z</time></trkpt><trkpt lat="41.8458983" lon="13.1854117"><ele>847.75</ele><time>2026-04-02T08:24:36.831Z</time></trkpt><trkpt lat="41.846045" lon="13.1854183"><ele>848.5</ele><time>2026-04-02T08:24:37.831Z</time></trkpt><trkpt lat="41.846175" lon="13.1854533"><ele>849.25</ele><time>2026-04-02T08:24:38.833Z</time></trkpt><trkpt lat="41.84629" lon="13.1855217"><ele>850.0</ele><time>2026-04-02T08:24:39.831Z</time></trkpt><trkpt lat="41.8464117" lon="13.1856333"><ele>850.3333333333333</ele><time>2026-04-02T08:24:40.833Z</time></trkpt><trkpt lat="41.8465433" lon="13.18578"><ele>850.6666666666667</ele><time>2026-04-02T08:24:41.833Z</time></trkpt><trkpt lat="41.846685" lon="13.1859617"><ele>851.0</ele><time>2026-04-02T08:24:42.833Z</time></trkpt><trkpt lat="41.8468367" lon="13.1861583"><ele>851.0</ele><time>2026-04-02T08:24:43.833Z</time></trkpt><trkpt lat="41.8469917" lon="13.1863583"><ele>851.0</ele><time>2026-04-02T08:24:44.831Z</time></trkpt><trkpt lat="41.8471383" lon="13.1865517"><ele>851.0</ele><time>2026-04-02T08:24:45.833Z</time></trkpt><trkpt lat="41.8472817" lon="13.1867333"><ele>851.3333333333334</ele><time>2026-04-02T08:24:46.832Z</time></trkpt><trkpt lat="41.8474267" lon="13.186905"><ele>851.6666666666667</ele><time>2026-04-02T08:24:47.832Z</time></trkpt><trkpt lat="41.8475767" lon="13.1870783"><ele>852.0</ele><time>2026-04-02T08:24:48.833Z</time></trkpt><trkpt lat="41.8477233" lon="13.1872517"><ele>850.3333333333333</ele><time>2026-04-02T08:24:49.833Z</time></trkpt><trkpt lat="41.84786" lon="13.187425"><ele>848.6666666666666</ele><time>2026-04-02T08:24:50.833Z</time></trkpt><trkpt lat="41.8479867" lon="13.1875833"><ele>847.0</ele><time>2026-04-02T08:24:51.833Z</time></trkpt><trkpt lat="41.8481" lon="13.18774"><ele>847.0</ele><time>2026-04-02T08:24:52.835Z</time></trkpt><trkpt lat="41.8481883" lon="13.187925"><ele>847.0</ele><time>2026-04-02T08:24:53.835Z</time></trkpt><trkpt lat="41.8482717" lon="13.18812"><ele>847.0</ele><time>2026-04-02T08:24:54.83Z</time></trkpt><trkpt lat="41.84834" lon="13.18832"><ele>847.3333333333333</ele><time>2026-04-02T08:24:55.833Z</time></trkpt><trkpt lat="41.8484183" lon="13.188525"><ele>847.6666666666667</ele><time>2026-04-02T08:24:56.833Z</time></trkpt><trkpt lat="41.8485083" lon="13.188715"><ele>848.0</ele><time>2026-04-02T08:24:57.834Z</time></trkpt><trkpt lat="41.8486033" lon="13.188895"><ele>847.3333333333334</ele><time>2026-04-02T08:24:58.835Z</time></trkpt><trkpt lat="41.8487233" lon="13.1890533"><ele>846.6666666666667</ele><time>2026-04-02T08:24:59.834Z</time></trkpt><trkpt lat="41.84886" lon="13.1891767"><ele>846.0</ele><time>2026-04-02T08:25:00.832Z</time></trkpt><trkpt lat="41.8489917" lon="13.1892917"><ele>846.0</ele><time>2026-04-02T08:25:01.832Z</time></trkpt><trkpt lat="41.8491117" lon="13.1894183"><ele>846.0</ele><time>2026-04-02T08:25:02.833Z</time></trkpt><trkpt lat="41.84922" lon="13.1895467"><ele>846.0</ele><time>2026-04-02T08:25:03.832Z</time></trkpt><trkpt lat="41.8493117" lon="13.1896733"><ele>846.0</ele><time>2026-04-02T08:25:04.831Z</time></trkpt><trkpt lat="41.849395" lon="13.1897967"><ele>846.1999999999999</ele><time>2026-04-02T08:25:05.833Z</time></trkpt><trkpt lat="41.84947" lon="13.1899033"><ele>846.4</ele><time>2026-04-02T08:25:06.833Z</time></trkpt><trkpt lat="41.84953" lon="13.1899983"><ele>846.6</ele><time>2026-04-02T08:25:07.834Z</time></trkpt><trkpt lat="41.84958" lon="13.19008"><ele>846.8</ele><time>2026-04-02T08:25:08.832Z</time></trkpt><trkpt lat="41.8496467" lon="13.1901933"><ele>847.0</ele><time>2026-04-02T08:25:10.833Z</time></trkpt><trkpt lat="41.8497133" lon="13.1902783"><ele>846.9999999999999</ele><time>2026-04-02T08:25:13.828Z</time></trkpt><trkpt lat="41.8497317" lon="13.1904033"><ele>847.0</ele><time>2026-04-02T08:25:15.829Z</time></trkpt><trkpt lat="41.849725" lon="13.1904933"><ele>847.0</ele><time>2026-04-02T08:25:16.83Z</time></trkpt><trkpt lat="41.84971" lon="13.1905933"><ele>847.0</ele><time>2026-04-02T08:25:17.831Z</time></trkpt><trkpt lat="41.8496933" lon="13.190705"><ele>846.9999999999999</ele><time>2026-04-02T08:25:18.831Z</time></trkpt><trkpt lat="41.8496817" lon="13.190825"><ele>847.0</ele><time>2026-04-02T08:25:19.829Z</time></trkpt><trkpt lat="41.8496633" lon="13.19095"><ele>847.2</ele><time>2026-04-02T08:25:20.83Z</time></trkpt><trkpt lat="41.8496467" lon="13.1910817"><ele>847.4000000000001</ele><time>2026-04-02T08:25:21.831Z</time></trkpt><trkpt lat="41.8496333" lon="13.1912133"><ele>847.5999999999999</ele><time>2026-04-02T08:25:22.829Z</time></trkpt><trkpt lat="41.84961" lon="13.1913517"><ele>847.8</ele><time>2026-04-02T08:25:23.832Z</time></trkpt><trkpt lat="41.8495933" lon="13.1914833"><ele>848.0</ele><time>2026-04-02T08:25:24.831Z</time></trkpt><trkpt lat="41.8495767" lon="13.1916083"><ele>848.0000000000001</ele><time>2026-04-02T08:25:25.829Z</time></trkpt><trkpt lat="41.8495617" lon="13.1917133"><ele>848.0</ele><time>2026-04-02T08:25:26.829Z</time></trkpt><trkpt lat="41.849545" lon="13.1918083"><ele>848.0</ele><time>2026-04-02T08:25:27.829Z</time></trkpt><trkpt lat="41.84953" lon="13.1918933"><ele>848.0</ele><time>2026-04-02T08:25:28.828Z</time></trkpt><trkpt lat="41.8495017" lon="13.192045"><ele>848.0000000000001</ele><time>2026-04-02T08:25:30.831Z</time></trkpt><trkpt lat="41.84948" lon="13.1921833"><ele>848.0</ele><time>2026-04-02T08:25:32.83Z</time></trkpt><trkpt lat="41.849465" lon="13.192305"><ele>848.4</ele><time>2026-04-02T08:25:34.829Z</time></trkpt><trkpt lat="41.84945" lon="13.19243"><ele>848.8</ele><time>2026-04-02T08:25:36.831Z</time></trkpt><trkpt lat="41.84943" lon="13.1925517"><ele>849.2</ele><time>2026-04-02T08:25:38.833Z</time></trkpt><trkpt lat="41.8494083" lon="13.1926783"><ele>849.6</ele><time>2026-04-02T08:25:40.831Z</time></trkpt><trkpt lat="41.8493867" lon="13.1928333"><ele>850.0</ele><time>2026-04-02T08:25:42.834Z</time></trkpt><trkpt lat="41.8493483" lon="13.193005"><ele>850.0</ele><time>2026-04-02T08:25:44.832Z</time></trkpt><trkpt lat="41.84934" lon="13.1931533"><ele>850.0</ele><time>2026-04-02T08:25:46.833Z</time></trkpt><trkpt lat="41.8493967" lon="13.1932733"><ele>850.0</ele><time>2026-04-02T08:25:48.835Z</time></trkpt><trkpt lat="41.849475" lon="13.19342"><ele>850.0</ele><time>2026-04-02T08:25:50.834Z</time></trkpt><trkpt lat="41.8495167" lon="13.1935017"><ele>850.0</ele><time>2026-04-02T08:25:51.832Z</time></trkpt><trkpt lat="41.8495633" lon="13.19359"><ele>849.75</ele><time>2026-04-02T08:25:52.833Z</time></trkpt><trkpt lat="41.8496233" lon="13.1937133"><ele>849.5</ele><time>2026-04-02T08:25:53.832Z</time></trkpt><trkpt lat="41.8496817" lon="13.1938883"><ele>849.25</ele><time>2026-04-02T08:25:54.832Z</time></trkpt><trkpt lat="41.8497467" lon="13.1940767"><ele>849.0</ele><time>2026-04-02T08:25:55.835Z</time></trkpt><trkpt lat="41.8498183" lon="13.1942667"><ele>849.0</ele><time>2026-04-02T08:25:56.834Z</time></trkpt><trkpt lat="41.849895" lon="13.1944617"><ele>849.0</ele><time>2026-04-02T08:25:57.834Z</time></trkpt><trkpt lat="41.8499583" lon="13.1946667"><ele>849.0</ele><time>2026-04-02T08:25:58.832Z</time></trkpt><trkpt lat="41.8500083" lon="13.1948583"><ele>849.0</ele><time>2026-04-02T08:25:59.834Z</time></trkpt><trkpt lat="41.8500483" lon="13.1950167"><ele>849.0</ele><time>2026-04-02T08:26:00.833Z</time></trkpt><trkpt lat="41.8500917" lon="13.1951583"><ele>849.0</ele><time>2026-04-02T08:26:01.831Z</time></trkpt><trkpt lat="41.85016" lon="13.19529"><ele>849.0</ele><time>2026-04-02T08:26:02.832Z</time></trkpt><trkpt lat="41.85026" lon="13.1954133"><ele>851.0</ele><time>2026-04-02T08:26:03.833Z</time></trkpt><trkpt lat="41.8503767" lon="13.1955217"><ele>853.0</ele><time>2026-04-02T08:26:04.832Z</time></trkpt><trkpt lat="41.850485" lon="13.1956183"><ele>855.0</ele><time>2026-04-02T08:26:05.83Z</time></trkpt><trkpt lat="41.85059" lon="13.19572"><ele>857.0</ele><time>2026-04-02T08:26:06.832Z</time></trkpt><trkpt lat="41.8506867" lon="13.1958467"><ele>857.0</ele><time>2026-04-02T08:26:07.831Z</time></trkpt><trkpt lat="41.8507733" lon="13.1959917"><ele>857.0</ele><time>2026-04-02T08:26:08.832Z</time></trkpt><trkpt lat="41.850835" lon="13.1961517"><ele>857.0</ele><time>2026-04-02T08:26:09.831Z</time></trkpt><trkpt lat="41.85087" lon="13.1963233"><ele>857.0</ele><time>2026-04-02T08:26:10.831Z</time></trkpt><trkpt lat="41.8508967" lon="13.196505"><ele>857.5</ele><time>2026-04-02T08:26:11.833Z</time></trkpt><trkpt lat="41.8509267" lon="13.196675"><ele>858.0</ele><time>2026-04-02T08:26:12.831Z</time></trkpt><trkpt lat="41.850975" lon="13.1968183"><ele>858.5</ele><time>2026-04-02T08:26:13.831Z</time></trkpt><trkpt lat="41.85104" lon="13.19693"><ele>859.0</ele><time>2026-04-02T08:26:14.832Z</time></trkpt><trkpt lat="41.8511433" lon="13.1969883"><ele>860.5</ele><time>2026-04-02T08:26:15.832Z</time></trkpt><trkpt lat="41.8512667" lon="13.197005"><ele>862.0</ele><time>2026-04-02T08:26:16.832Z</time></trkpt><trkpt lat="41.851395" lon="13.197"><ele>863.5</ele><time>2026-04-02T08:26:17.833Z</time></trkpt><trkpt lat="41.8515217" lon="13.19701"><ele>865.0</ele><time>2026-04-02T08:26:18.833Z</time></trkpt><trkpt lat="41.8516317" lon="13.1970433"><ele>865.0</ele><time>2026-04-02T08:26:19.83Z</time></trkpt><trkpt lat="41.851725" lon="13.1971117"><ele>865.0</ele><time>2026-04-02T08:26:20.836Z</time></trkpt><trkpt lat="41.8517917" lon="13.1972217"><ele>865.0</ele><time>2026-04-02T08:26:21.83Z</time></trkpt><trkpt lat="41.8518417" lon="13.197365"><ele>865.0</ele><time>2026-04-02T08:26:22.834Z</time></trkpt><trkpt lat="41.8518917" lon="13.197515"><ele>865.5</ele><time>2026-04-02T08:26:23.834Z</time></trkpt><trkpt lat="41.8519517" lon="13.19767"><ele>866.0</ele><time>2026-04-02T08:26:24.834Z</time></trkpt><trkpt lat="41.8520267" lon="13.1978367"><ele>866.5</ele><time>2026-04-02T08:26:25.833Z</time></trkpt><trkpt lat="41.852115" lon="13.198015"><ele>867.0</ele><time>2026-04-02T08:26:26.833Z</time></trkpt><trkpt lat="41.8522017" lon="13.1981983"><ele>867.0</ele><time>2026-04-02T08:26:27.833Z</time></trkpt><trkpt lat="41.8522883" lon="13.1983967"><ele>867.0</ele><time>2026-04-02T08:26:28.833Z</time></trkpt><trkpt lat="41.85237" lon="13.1986217"><ele>867.0</ele><time>2026-04-02T08:26:29.833Z</time></trkpt><trkpt lat="41.852445" lon="13.1988333"><ele>866.75</ele><time>2026-04-02T08:26:30.834Z</time></trkpt><trkpt lat="41.8525117" lon="13.19903"><ele>866.5</ele><time>2026-04-02T08:26:31.831Z</time></trkpt><trkpt lat="41.85257" lon="13.1992133"><ele>866.25</ele><time>2026-04-02T08:26:32.831Z</time></trkpt><trkpt lat="41.8526083" lon="13.1993917"><ele>866.0</ele><time>2026-04-02T08:26:33.833Z</time></trkpt><trkpt lat="41.852625" lon="13.1995683"><ele>866.5</ele><time>2026-04-02T08:26:34.831Z</time></trkpt><trkpt lat="41.8526333" lon="13.1997517"><ele>867.0</ele><time>2026-04-02T08:26:35.832Z</time></trkpt><trkpt lat="41.8526533" lon="13.1999383"><ele>867.5</ele><time>2026-04-02T08:26:36.834Z</time></trkpt><trkpt lat="41.8526833" lon="13.2001083"><ele>868.0</ele><time>2026-04-02T08:26:37.83Z</time></trkpt><trkpt lat="41.8527283" lon="13.200255"><ele>865.4</ele><time>2026-04-02T08:26:38.829Z</time></trkpt><trkpt lat="41.8527867" lon="13.2003767"><ele>862.8</ele><time>2026-04-02T08:26:39.83Z</time></trkpt><trkpt lat="41.852855" lon="13.20048"><ele>860.2</ele><time>2026-04-02T08:26:40.83Z</time></trkpt><trkpt lat="41.85292" lon="13.2005733"><ele>857.6</ele><time>2026-04-02T08:26:41.832Z</time></trkpt><trkpt lat="41.8529833" lon="13.2006717"><ele>855.0</ele><time>2026-04-02T08:26:42.833Z</time></trkpt><trkpt lat="41.8530333" lon="13.2007883"><ele>853.5</ele><time>2026-04-02T08:26:43.831Z</time></trkpt><trkpt lat="41.8530667" lon="13.2009317"><ele>852.0</ele><time>2026-04-02T08:26:44.832Z</time></trkpt><trkpt lat="41.8530867" lon="13.2010967"><ele>850.5</ele><time>2026-04-02T08:26:45.833Z</time></trkpt><trkpt lat="41.8531117" lon="13.2012783"><ele>849.0</ele><time>2026-04-02T08:26:46.833Z</time></trkpt><trkpt lat="41.8531383" lon="13.201475"><ele>850.0</ele><time>2026-04-02T08:26:47.832Z</time></trkpt><trkpt lat="41.853165" lon="13.2016833"><ele>851.0</ele><time>2026-04-02T08:26:48.836Z</time></trkpt><trkpt lat="41.8532" lon="13.2018833"><ele>852.0</ele><time>2026-04-02T08:26:49.834Z</time></trkpt><trkpt lat="41.85326" lon="13.202055"><ele>852.0</ele><time>2026-04-02T08:26:50.834Z</time></trkpt><trkpt lat="41.853345" lon="13.2021983"><ele>852.0</ele><time>2026-04-02T08:26:51.834Z</time></trkpt><trkpt lat="41.85343" lon="13.2023167"><ele>852.0</ele><time>2026-04-02T08:26:52.834Z</time></trkpt><trkpt lat="41.853495" lon="13.2024367"><ele>852.0</ele><time>2026-04-02T08:26:53.833Z</time></trkpt><trkpt lat="41.8535167" lon="13.2025883"><ele>844.25</ele><time>2026-04-02T08:26:54.834Z</time></trkpt><trkpt lat="41.8535067" lon="13.2027483"><ele>836.5</ele><time>2026-04-02T08:26:55.833Z</time></trkpt><trkpt lat="41.8535067" lon="13.202905"><ele>828.75</ele><time>2026-04-02T08:26:56.834Z</time></trkpt><trkpt lat="41.8535483" lon="13.2030567"><ele>821.0</ele><time>2026-04-02T08:26:57.833Z</time></trkpt><trkpt lat="41.8536117" lon="13.20321"><ele>820.75</ele><time>2026-04-02T08:26:58.835Z</time></trkpt><trkpt lat="41.8536667" lon="13.203365"><ele>820.5</ele><time>2026-04-02T08:26:59.833Z</time></trkpt><trkpt lat="41.8536817" lon="13.20354"><ele>820.25</ele><time>2026-04-02T08:27:00.834Z</time></trkpt><trkpt lat="41.85366" lon="13.203725"><ele>820.0</ele><time>2026-04-02T08:27:01.832Z</time></trkpt><trkpt lat="41.8536133" lon="13.2038983"><ele>817.75</ele><time>2026-04-02T08:27:02.833Z</time></trkpt><trkpt lat="41.85354" lon="13.2040533"><ele>815.5</ele><time>2026-04-02T08:27:03.833Z</time></trkpt><trkpt lat="41.8534517" lon="13.2041883"><ele>813.25</ele><time>2026-04-02T08:27:04.832Z</time></trkpt><trkpt lat="41.8533517" lon="13.2043017"><ele>811.0</ele><time>2026-04-02T08:27:05.833Z</time></trkpt><trkpt lat="41.8532467" lon="13.20439"><ele>817.5999999999999</ele><time>2026-04-02T08:27:06.832Z</time></trkpt><trkpt lat="41.8531367" lon="13.20445"><ele>824.2</ele><time>2026-04-02T08:27:07.833Z</time></trkpt><trkpt lat="41.8530333" lon="13.2044917"><ele>830.8</ele><time>2026-04-02T08:27:08.833Z</time></trkpt><trkpt lat="41.8529333" lon="13.2045267"><ele>837.4000000000001</ele><time>2026-04-02T08:27:09.832Z</time></trkpt><trkpt lat="41.85284" lon="13.2045583"><ele>844.0</ele><time>2026-04-02T08:27:10.831Z</time></trkpt><trkpt lat="41.8527517" lon="13.2046"><ele>844.0</ele><time>2026-04-02T08:27:11.832Z</time></trkpt><trkpt lat="41.85267" lon="13.20465"><ele>844.0</ele><time>2026-04-02T08:27:12.833Z</time></trkpt><trkpt lat="41.8525983" lon="13.20472"><ele>844.0</ele><time>2026-04-02T08:27:13.832Z</time></trkpt><trkpt lat="41.8525367" lon="13.2048117"><ele>844.0</ele><time>2026-04-02T08:27:14.832Z</time></trkpt><trkpt lat="41.8524967" lon="13.2049483"><ele>844.0</ele><time>2026-04-02T08:27:15.832Z</time></trkpt><trkpt lat="41.852485" lon="13.2051133"><ele>843.4000000000001</ele><time>2026-04-02T08:27:16.831Z</time></trkpt><trkpt lat="41.8524833" lon="13.20528"><ele>842.8</ele><time>2026-04-02T08:27:17.833Z</time></trkpt><trkpt lat="41.8524833" lon="13.2054283"><ele>842.2</ele><time>2026-04-02T08:27:18.832Z</time></trkpt><trkpt lat="41.8524867" lon="13.205555"><ele>841.5999999999999</ele><time>2026-04-02T08:27:19.829Z</time></trkpt><trkpt lat="41.8525033" lon="13.2056783"><ele>841.0</ele><time>2026-04-02T08:27:20.831Z</time></trkpt><trkpt lat="41.85256" lon="13.20582"><ele>825.0</ele><time>2026-04-02T08:27:21.831Z</time></trkpt><trkpt lat="41.8526433" lon="13.2059833"><ele>809.0</ele><time>2026-04-02T08:27:22.831Z</time></trkpt><trkpt lat="41.8527283" lon="13.2061567"><ele>793.0</ele><time>2026-04-02T08:27:23.833Z</time></trkpt><trkpt lat="41.8528117" lon="13.2063267"><ele>793.0</ele><time>2026-04-02T08:27:24.833Z</time></trkpt><trkpt lat="41.8528883" lon="13.20649"><ele>793.0</ele><time>2026-04-02T08:27:25.833Z</time></trkpt><trkpt lat="41.85295" lon="13.2066617"><ele>793.0</ele><time>2026-04-02T08:27:26.832Z</time></trkpt><trkpt lat="41.8529933" lon="13.2068567"><ele>793.0</ele><time>2026-04-02T08:27:27.83Z</time></trkpt><trkpt lat="41.853015" lon="13.207075"><ele>795.6666666666666</ele><time>2026-04-02T08:27:28.832Z</time></trkpt><trkpt lat="41.8530167" lon="13.2072933"><ele>798.3333333333333</ele><time>2026-04-02T08:27:29.835Z</time></trkpt><trkpt lat="41.8529933" lon="13.207495"><ele>801.0</ele><time>2026-04-02T08:27:30.833Z</time></trkpt><trkpt lat="41.8529417" lon="13.2076917"><ele>801.0</ele><time>2026-04-02T08:27:31.832Z</time></trkpt><trkpt lat="41.8528867" lon="13.2078917"><ele>801.0</ele><time>2026-04-02T08:27:32.833Z</time></trkpt><trkpt lat="41.8528567" lon="13.208095"><ele>801.0</ele><time>2026-04-02T08:27:33.833Z</time></trkpt><trkpt lat="41.8528683" lon="13.2083133"><ele>800.0</ele><time>2026-04-02T08:27:34.83Z</time></trkpt><trkpt lat="41.8529117" lon="13.2085417"><ele>799.0</ele><time>2026-04-02T08:27:35.83Z</time></trkpt><trkpt lat="41.8529617" lon="13.2087883"><ele>798.0</ele><time>2026-04-02T08:27:36.831Z</time></trkpt><trkpt lat="41.8530067" lon="13.209045"><ele>798.0</ele><time>2026-04-02T08:27:37.833Z</time></trkpt><trkpt lat="41.8530383" lon="13.2093017"><ele>798.0</ele><time>2026-04-02T08:27:38.833Z</time></trkpt><trkpt lat="41.8530533" lon="13.2095483"><ele>798.0</ele><time>2026-04-02T08:27:39.833Z</time></trkpt><trkpt lat="41.8530733" lon="13.20978"><ele>799.6666666666667</ele><time>2026-04-02T08:27:40.832Z</time></trkpt><trkpt lat="41.8531267" lon="13.210005"><ele>801.3333333333334</ele><time>2026-04-02T08:27:41.832Z</time></trkpt><trkpt lat="41.8531917" lon="13.2102233"><ele>803.0</ele><time>2026-04-02T08:27:42.832Z</time></trkpt><trkpt lat="41.8532517" lon="13.2104483"><ele>805.6666666666667</ele><time>2026-04-02T08:27:43.831Z</time></trkpt><trkpt lat="41.8533067" lon="13.2106967"><ele>808.3333333333333</ele><time>2026-04-02T08:27:44.832Z</time></trkpt><trkpt lat="41.8533433" lon="13.21096"><ele>811.0</ele><time>2026-04-02T08:27:45.831Z</time></trkpt><trkpt lat="41.85337" lon="13.2112117"><ele>811.0</ele><time>2026-04-02T08:27:46.83Z</time></trkpt><trkpt lat="41.85339" lon="13.21145"><ele>811.0</ele><time>2026-04-02T08:27:47.832Z</time></trkpt><trkpt lat="41.853395" lon="13.211695"><ele>811.0</ele><time>2026-04-02T08:27:48.832Z</time></trkpt><trkpt lat="41.85338" lon="13.2119583"><ele>811.6666666666666</ele><time>2026-04-02T08:27:49.831Z</time></trkpt><trkpt lat="41.853365" lon="13.212225"><ele>812.3333333333333</ele><time>2026-04-02T08:27:50.831Z</time></trkpt><trkpt lat="41.8533533" lon="13.2124767"><ele>813.0</ele><time>2026-04-02T08:27:51.831Z</time></trkpt><trkpt lat="41.8533483" lon="13.21271"><ele>810.6666666666667</ele><time>2026-04-02T08:27:52.831Z</time></trkpt><trkpt lat="41.8533383" lon="13.2129333"><ele>808.3333333333334</ele><time>2026-04-02T08:27:53.832Z</time></trkpt><trkpt lat="41.8533183" lon="13.2131533"><ele>806.0</ele><time>2026-04-02T08:27:54.832Z</time></trkpt><trkpt lat="41.8532767" lon="13.213375"><ele>802.3333333333334</ele><time>2026-04-02T08:27:55.833Z</time></trkpt><trkpt lat="41.8532083" lon="13.2135983"><ele>798.6666666666667</ele><time>2026-04-02T08:27:56.831Z</time></trkpt><trkpt lat="41.853125" lon="13.2138267"><ele>795.0</ele><time>2026-04-02T08:27:57.833Z</time></trkpt><trkpt lat="41.8530383" lon="13.2140517"><ele>788.3333333333333</ele><time>2026-04-02T08:27:58.833Z</time></trkpt><trkpt lat="41.8529533" lon="13.214255"><ele>781.6666666666666</ele><time>2026-04-02T08:27:59.833Z</time></trkpt><trkpt lat="41.8528783" lon="13.2144333"><ele>775.0</ele><time>2026-04-02T08:28:00.833Z</time></trkpt><trkpt lat="41.8528017" lon="13.2145883"><ele>775.0</ele><time>2026-04-02T08:28:01.83Z</time></trkpt><trkpt lat="41.85273" lon="13.2147283"><ele>775.0</ele><time>2026-04-02T08:28:02.831Z</time></trkpt><trkpt lat="41.8526417" lon="13.21484"><ele>775.0</ele><time>2026-04-02T08:28:03.832Z</time></trkpt><trkpt lat="41.85254" lon="13.2149317"><ele>775.0</ele><time>2026-04-02T08:28:04.832Z</time></trkpt><trkpt lat="41.852445" lon="13.2150083"><ele>777.8</ele><time>2026-04-02T08:28:05.831Z</time></trkpt><trkpt lat="41.8523733" lon="13.2150867"><ele>780.6</ele><time>2026-04-02T08:28:06.833Z</time></trkpt><trkpt lat="41.8523167" lon="13.215175"><ele>783.4000000000001</ele><time>2026-04-02T08:28:07.833Z</time></trkpt><trkpt lat="41.8522783" lon="13.2152767"><ele>786.2</ele><time>2026-04-02T08:28:08.83Z</time></trkpt><trkpt lat="41.8522917" lon="13.2154"><ele>789.0</ele><time>2026-04-02T08:28:09.831Z</time></trkpt><trkpt lat="41.85229" lon="13.2155333"><ele>785.75</ele><time>2026-04-02T08:28:10.831Z</time></trkpt><trkpt lat="41.85228" lon="13.2156817"><ele>782.5</ele><time>2026-04-02T08:28:11.831Z</time></trkpt><trkpt lat="41.8522517" lon="13.2158383"><ele>779.25</ele><time>2026-04-02T08:28:12.836Z</time></trkpt><trkpt lat="41.8521917" lon="13.2159917"><ele>776.0</ele><time>2026-04-02T08:28:13.832Z</time></trkpt><trkpt lat="41.8521233" lon="13.216145"><ele>776.0</ele><time>2026-04-02T08:28:14.832Z</time></trkpt><trkpt lat="41.8520667" lon="13.21629"><ele>776.0</ele><time>2026-04-02T08:28:15.832Z</time></trkpt><trkpt lat="41.85204" lon="13.2164167"><ele>776.0</ele><time>2026-04-02T08:28:16.831Z</time></trkpt><trkpt lat="41.85203" lon="13.2165233"><ele>776.0</ele><time>2026-04-02T08:28:17.832Z</time></trkpt><trkpt lat="41.8520583" lon="13.21662"><ele>776.0</ele><time>2026-04-02T08:28:18.833Z</time></trkpt><trkpt lat="41.85209" lon="13.21671"><ele>776.0</ele><time>2026-04-02T08:28:19.832Z</time></trkpt><trkpt lat="41.8521483" lon="13.2168033"><ele>776.0</ele><time>2026-04-02T08:28:20.832Z</time></trkpt><trkpt lat="41.852265" lon="13.21688"><ele>776.0</ele><time>2026-04-02T08:28:21.83Z</time></trkpt><trkpt lat="41.8524083" lon="13.2169617"><ele>776.0</ele><time>2026-04-02T08:28:22.833Z</time></trkpt><trkpt lat="41.85257" lon="13.2170617"><ele>766.3333333333334</ele><time>2026-04-02T08:28:23.832Z</time></trkpt><trkpt lat="41.8526967" lon="13.217185"><ele>756.6666666666667</ele><time>2026-04-02T08:28:24.83Z</time></trkpt><trkpt lat="41.852815" lon="13.2173367"><ele>747.0</ele><time>2026-04-02T08:28:25.832Z</time></trkpt><trkpt lat="41.8529017" lon="13.2175067"><ele>747.0</ele><time>2026-04-02T08:28:26.832Z</time></trkpt><trkpt lat="41.8529633" lon="13.2176917"><ele>747.0</ele><time>2026-04-02T08:28:27.831Z</time></trkpt><trkpt lat="41.8530033" lon="13.217875"><ele>747.0</ele><time>2026-04-02T08:28:28.832Z</time></trkpt><trkpt lat="41.8530183" lon="13.2180483"><ele>747.0</ele><time>2026-04-02T08:28:29.834Z</time></trkpt><trkpt lat="41.8530033" lon="13.21822"><ele>747.25</ele><time>2026-04-02T08:28:30.833Z</time></trkpt><trkpt lat="41.8529683" lon="13.2184033"><ele>747.5</ele><time>2026-04-02T08:28:31.831Z</time></trkpt><trkpt lat="41.85291" lon="13.2185883"><ele>747.75</ele><time>2026-04-02T08:28:32.833Z</time></trkpt><trkpt lat="41.85286" lon="13.218765"><ele>748.0</ele><time>2026-04-02T08:28:33.831Z</time></trkpt><trkpt lat="41.8528317" lon="13.2189283"><ele>748.5</ele><time>2026-04-02T08:28:34.833Z</time></trkpt><trkpt lat="41.8528517" lon="13.2190783"><ele>749.0</ele><time>2026-04-02T08:28:35.833Z</time></trkpt><trkpt lat="41.852895" lon="13.219205"><ele>749.5</ele><time>2026-04-02T08:28:36.832Z</time></trkpt><trkpt lat="41.8529783" lon="13.2193133"><ele>750.0</ele><time>2026-04-02T08:28:37.835Z</time></trkpt><trkpt lat="41.8530967" lon="13.219405"><ele>750.0</ele><time>2026-04-02T08:28:38.834Z</time></trkpt><trkpt lat="41.853265" lon="13.219475"><ele>750.0</ele><time>2026-04-02T08:28:39.832Z</time></trkpt><trkpt lat="41.8534183" lon="13.2195367"><ele>750.0</ele><time>2026-04-02T08:28:40.835Z</time></trkpt><trkpt lat="41.8535617" lon="13.2195883"><ele>746.0</ele><time>2026-04-02T08:28:41.834Z</time></trkpt><trkpt lat="41.853685" lon="13.2196517"><ele>742.0</ele><time>2026-04-02T08:28:42.832Z</time></trkpt><trkpt lat="41.8537767" lon="13.2197333"><ele>738.0</ele><time>2026-04-02T08:28:43.832Z</time></trkpt><trkpt lat="41.8538367" lon="13.2198667"><ele>734.0</ele><time>2026-04-02T08:28:44.834Z</time></trkpt><trkpt lat="41.853895" lon="13.2200367"><ele>734.0</ele><time>2026-04-02T08:28:45.832Z</time></trkpt><trkpt lat="41.8539483" lon="13.2202333"><ele>734.0</ele><time>2026-04-02T08:28:46.834Z</time></trkpt><trkpt lat="41.8539917" lon="13.2204483"><ele>734.0</ele><time>2026-04-02T08:28:47.832Z</time></trkpt><trkpt lat="41.8540133" lon="13.220665"><ele>736.0</ele><time>2026-04-02T08:28:48.833Z</time></trkpt><trkpt lat="41.8540167" lon="13.2208917"><ele>738.0</ele><time>2026-04-02T08:28:49.832Z</time></trkpt><trkpt lat="41.8539983" lon="13.22111"><ele>740.0</ele><time>2026-04-02T08:28:50.831Z</time></trkpt><trkpt lat="41.8539717" lon="13.2213183"><ele>737.0</ele><time>2026-04-02T08:28:51.833Z</time></trkpt><trkpt lat="41.8539367" lon="13.2215133"><ele>734.0</ele><time>2026-04-02T08:28:52.832Z</time></trkpt><trkpt lat="41.85389" lon="13.2216983"><ele>731.0</ele><time>2026-04-02T08:28:53.832Z</time></trkpt><trkpt lat="41.8538267" lon="13.2218767"><ele>728.0</ele><time>2026-04-02T08:28:54.833Z</time></trkpt><trkpt lat="41.8537517" lon="13.2220467"><ele>728.0</ele><time>2026-04-02T08:28:55.833Z</time></trkpt><trkpt lat="41.85366" lon="13.2222017"><ele>728.0</ele><time>2026-04-02T08:28:56.832Z</time></trkpt><trkpt lat="41.853565" lon="13.2223417"><ele>728.0</ele><time>2026-04-02T08:28:57.832Z</time></trkpt><trkpt lat="41.8534617" lon="13.2224567"><ele>728.0</ele><time>2026-04-02T08:28:58.833Z</time></trkpt><trkpt lat="41.8533383" lon="13.222545"><ele>731.0</ele><time>2026-04-02T08:28:59.835Z</time></trkpt><trkpt lat="41.8532017" lon="13.2226167"><ele>734.0</ele><time>2026-04-02T08:29:00.833Z</time></trkpt><trkpt lat="41.8530733" lon="13.2226833"><ele>737.0</ele><time>2026-04-02T08:29:01.833Z</time></trkpt><trkpt lat="41.8529683" lon="13.2227617"><ele>740.0</ele><time>2026-04-02T08:29:02.834Z</time></trkpt><trkpt lat="41.85289" lon="13.222865"><ele>740.0</ele><time>2026-04-02T08:29:03.832Z</time></trkpt><trkpt lat="41.8528383" lon="13.2229883"><ele>740.0</ele><time>2026-04-02T08:29:04.832Z</time></trkpt><trkpt lat="41.8528267" lon="13.2231417"><ele>740.0</ele><time>2026-04-02T08:29:05.833Z</time></trkpt><trkpt lat="41.8528383" lon="13.2233467"><ele>740.0</ele><time>2026-04-02T08:29:06.832Z</time></trkpt><trkpt lat="41.8528283" lon="13.2235867"><ele>732.6666666666666</ele><time>2026-04-02T08:29:07.832Z</time></trkpt><trkpt lat="41.852805" lon="13.2238483"><ele>725.3333333333334</ele><time>2026-04-02T08:29:08.834Z</time></trkpt><trkpt lat="41.852775" lon="13.2240983"><ele>718.0</ele><time>2026-04-02T08:29:09.832Z</time></trkpt><trkpt lat="41.852745" lon="13.2243183"><ele>714.5</ele><time>2026-04-02T08:29:10.833Z</time></trkpt><trkpt lat="41.852725" lon="13.224515"><ele>711.0</ele><time>2026-04-02T08:29:11.833Z</time></trkpt><trkpt lat="41.852705" lon="13.2246983"><ele>707.5</ele><time>2026-04-02T08:29:12.832Z</time></trkpt><trkpt lat="41.8526733" lon="13.224865"><ele>704.0</ele><time>2026-04-02T08:29:13.833Z</time></trkpt><trkpt lat="41.8526367" lon="13.2250067"><ele>702.6666666666666</ele><time>2026-04-02T08:29:14.832Z</time></trkpt><trkpt lat="41.8526067" lon="13.225125"><ele>701.3333333333333</ele><time>2026-04-02T08:29:15.832Z</time></trkpt><trkpt lat="41.8525917" lon="13.225225"><ele>700.0</ele><time>2026-04-02T08:29:16.83Z</time></trkpt><trkpt lat="41.8525983" lon="13.2253133"><ele>698.6666666666666</ele><time>2026-04-02T08:29:17.833Z</time></trkpt><trkpt lat="41.8526867" lon="13.225385"><ele>697.3333333333334</ele><time>2026-04-02T08:29:19.831Z</time></trkpt><trkpt lat="41.852755" lon="13.2253283"><ele>696.0</ele><time>2026-04-02T08:29:20.833Z</time></trkpt><trkpt lat="41.8528117" lon="13.22513"><ele>696.0</ele><time>2026-04-02T08:29:21.833Z</time></trkpt><trkpt lat="41.852855" lon="13.2249483"><ele>696.0</ele><time>2026-04-02T08:29:22.832Z</time></trkpt><trkpt lat="41.852905" lon="13.22475"><ele>696.0</ele><time>2026-04-02T08:29:23.832Z</time></trkpt><trkpt lat="41.8529617" lon="13.22455"><ele>698.6666666666666</ele><time>2026-04-02T08:29:24.835Z</time></trkpt><trkpt lat="41.8530417" lon="13.224355"><ele>701.3333333333333</ele><time>2026-04-02T08:29:25.835Z</time></trkpt><trkpt lat="41.853155" lon="13.2241733"><ele>704.0</ele><time>2026-04-02T08:29:26.833Z</time></trkpt><trkpt lat="41.85327" lon="13.2239933"><ele>707.5</ele><time>2026-04-02T08:29:27.834Z</time></trkpt><trkpt lat="41.8533767" lon="13.2238383"><ele>711.0</ele><time>2026-04-02T08:29:28.834Z</time></trkpt><trkpt lat="41.8534517" lon="13.2236983"><ele>714.5</ele><time>2026-04-02T08:29:29.834Z</time></trkpt><trkpt lat="41.853505" lon="13.22356"><ele>718.0</ele><time>2026-04-02T08:29:30.834Z</time></trkpt><trkpt lat="41.853535" lon="13.2234267"><ele>713.0</ele><time>2026-04-02T08:29:31.834Z</time></trkpt><trkpt lat="41.8535633" lon="13.2233217"><ele>708.0</ele><time>2026-04-02T08:29:32.833Z</time></trkpt><trkpt lat="41.8535967" lon="13.22325"><ele>703.0</ele><time>2026-04-02T08:29:33.831Z</time></trkpt><trkpt lat="41.85368" lon="13.2232533"><ele>698.0</ele><time>2026-04-02T08:29:35.83Z</time></trkpt><trkpt lat="41.8537083" lon="13.2233467"><ele>693.0</ele><time>2026-04-02T08:29:36.834Z</time></trkpt><trkpt lat="41.8537267" lon="13.22347"><ele>688.0</ele><time>2026-04-02T08:29:37.831Z</time></trkpt><trkpt lat="41.8537283" lon="13.22363"><ele>688.0</ele><time>2026-04-02T08:29:38.831Z</time></trkpt><trkpt lat="41.8537067" lon="13.2238267"><ele>688.0</ele><time>2026-04-02T08:29:39.831Z</time></trkpt><trkpt lat="41.8536767" lon="13.2240033"><ele>688.0</ele><time>2026-04-02T08:29:40.832Z</time></trkpt><trkpt lat="41.8536117" lon="13.224165"><ele>688.0</ele><time>2026-04-02T08:29:41.833Z</time></trkpt><trkpt lat="41.853515" lon="13.22431"><ele>690.0</ele><time>2026-04-02T08:29:42.832Z</time></trkpt><trkpt lat="41.8534267" lon="13.224445"><ele>692.0</ele><time>2026-04-02T08:29:43.833Z</time></trkpt><trkpt lat="41.8533633" lon="13.2245833"><ele>694.0</ele><time>2026-04-02T08:29:44.832Z</time></trkpt><trkpt lat="41.85334" lon="13.2247367"><ele>696.0</ele><time>2026-04-02T08:29:45.831Z</time></trkpt><trkpt lat="41.8533617" lon="13.2249167"><ele>696.0</ele><time>2026-04-02T08:29:46.831Z</time></trkpt><trkpt lat="41.853395" lon="13.2251167"><ele>696.0</ele><time>2026-04-02T08:29:47.833Z</time></trkpt><trkpt lat="41.8534267" lon="13.2253333"><ele>696.0</ele><time>2026-04-02T08:29:48.833Z</time></trkpt><trkpt lat="41.853445" lon="13.225545"><ele>693.5</ele><time>2026-04-02T08:29:49.832Z</time></trkpt><trkpt lat="41.8534567" lon="13.225745"><ele>691.0</ele><time>2026-04-02T08:29:50.831Z</time></trkpt><trkpt lat="41.8534683" lon="13.2259283"><ele>688.5</ele><time>2026-04-02T08:29:51.832Z</time></trkpt><trkpt lat="41.8534683" lon="13.2260967"><ele>686.0</ele><time>2026-04-02T08:29:52.831Z</time></trkpt><trkpt lat="41.8534417" lon="13.2262583"><ele>686.0</ele><time>2026-04-02T08:29:53.833Z</time></trkpt><trkpt lat="41.8533933" lon="13.22641"><ele>686.0</ele><time>2026-04-02T08:29:54.834Z</time></trkpt><trkpt lat="41.8533383" lon="13.2265467"><ele>686.0</ele><time>2026-04-02T08:29:55.833Z</time></trkpt><trkpt lat="41.8532933" lon="13.2266583"><ele>686.0</ele><time>2026-04-02T08:29:56.834Z</time></trkpt><trkpt lat="41.8532633" lon="13.2267517"><ele>686.0</ele><time>2026-04-02T08:29:57.833Z</time></trkpt><trkpt lat="41.8532567" lon="13.22684"><ele>684.4</ele><time>2026-04-02T08:29:58.832Z</time></trkpt><trkpt lat="41.8533217" lon="13.2269483"><ele>682.8</ele><time>2026-04-02T08:30:00.834Z</time></trkpt><trkpt lat="41.8533967" lon="13.22693"><ele>681.1999999999999</ele><time>2026-04-02T08:30:01.832Z</time></trkpt><trkpt lat="41.8534817" lon="13.2268417"><ele>679.5999999999999</ele><time>2026-04-02T08:30:02.833Z</time></trkpt><trkpt lat="41.8535783" lon="13.2267067"><ele>678.0</ele><time>2026-04-02T08:30:03.833Z</time></trkpt><trkpt lat="41.8536667" lon="13.2265867"><ele>675.25</ele><time>2026-04-02T08:30:04.83Z</time></trkpt><trkpt lat="41.853745" lon="13.2264633"><ele>672.5</ele><time>2026-04-02T08:30:05.833Z</time></trkpt><trkpt lat="41.8538083" lon="13.226335"><ele>669.75</ele><time>2026-04-02T08:30:06.832Z</time></trkpt><trkpt lat="41.853865" lon="13.2262"><ele>667.0</ele><time>2026-04-02T08:30:07.83Z</time></trkpt><trkpt lat="41.8539267" lon="13.2260667"><ele>667.0</ele><time>2026-04-02T08:30:08.832Z</time></trkpt><trkpt lat="41.8539917" lon="13.225925"><ele>667.0</ele><time>2026-04-02T08:30:09.831Z</time></trkpt><trkpt lat="41.8540633" lon="13.2257817"><ele>667.0</ele><time>2026-04-02T08:30:10.833Z</time></trkpt><trkpt lat="41.8541433" lon="13.2256417"><ele>667.0</ele><time>2026-04-02T08:30:11.833Z</time></trkpt><trkpt lat="41.85422" lon="13.225505"><ele>664.8</ele><time>2026-04-02T08:30:12.833Z</time></trkpt><trkpt lat="41.8542917" lon="13.2253733"><ele>662.6</ele><time>2026-04-02T08:30:13.834Z</time></trkpt><trkpt lat="41.8543617" lon="13.2252467"><ele>660.4</ele><time>2026-04-02T08:30:14.835Z</time></trkpt><trkpt lat="41.8544267" lon="13.2251283"><ele>658.1999999999999</ele><time>2026-04-02T08:30:15.832Z</time></trkpt><trkpt lat="41.8544817" lon="13.2250183"><ele>656.0</ele><time>2026-04-02T08:30:16.833Z</time></trkpt><trkpt lat="41.85454" lon="13.2249217"><ele>656.0</ele><time>2026-04-02T08:30:17.831Z</time></trkpt><trkpt lat="41.8546033" lon="13.2248333"><ele>656.0</ele><time>2026-04-02T08:30:18.836Z</time></trkpt><trkpt lat="41.85467" lon="13.2247483"><ele>656.0</ele><time>2026-04-02T08:30:19.834Z</time></trkpt><trkpt lat="41.85474" lon="13.2246717"><ele>656.0</ele><time>2026-04-02T08:30:20.833Z</time></trkpt><trkpt lat="41.8548083" lon="13.2245983"><ele>656.0</ele><time>2026-04-02T08:30:21.834Z</time></trkpt><trkpt lat="41.8548783" lon="13.2245317"><ele>656.0</ele><time>2026-04-02T08:30:22.834Z</time></trkpt><trkpt lat="41.8549467" lon="13.224465"><ele>656.5</ele><time>2026-04-02T08:30:23.833Z</time></trkpt><trkpt lat="41.8550133" lon="13.2243917"><ele>657.0</ele><time>2026-04-02T08:30:24.834Z</time></trkpt><trkpt lat="41.8550767" lon="13.2243117"><ele>657.5</ele><time>2026-04-02T08:30:25.831Z</time></trkpt><trkpt lat="41.8551433" lon="13.2242317"><ele>658.0</ele><time>2026-04-02T08:30:26.833Z</time></trkpt><trkpt lat="41.85521" lon="13.224155"><ele>658.5</ele><time>2026-04-02T08:30:27.834Z</time></trkpt><trkpt lat="41.855275" lon="13.2240767"><ele>659.0</ele><time>2026-04-02T08:30:28.832Z</time></trkpt><trkpt lat="41.8553417" lon="13.224"><ele>657.0</ele><time>2026-04-02T08:30:29.831Z</time></trkpt><trkpt lat="41.8554067" lon="13.2239233"><ele>655.0</ele><time>2026-04-02T08:30:30.833Z</time></trkpt><trkpt lat="41.8554683" lon="13.2238483"><ele>653.0</ele><time>2026-04-02T08:30:31.833Z</time></trkpt><trkpt lat="41.8555317" lon="13.22378"><ele>651.0</ele><time>2026-04-02T08:30:32.833Z</time></trkpt><trkpt lat="41.8555983" lon="13.2237183"><ele>649.0</ele><time>2026-04-02T08:30:33.833Z</time></trkpt><trkpt lat="41.85567" lon="13.223665"><ele>647.0</ele><time>2026-04-02T08:30:34.83Z</time></trkpt><trkpt lat="41.85575" lon="13.223635"><ele>647.0</ele><time>2026-04-02T08:30:35.832Z</time></trkpt><trkpt lat="41.85583" lon="13.2236283"><ele>647.0</ele><time>2026-04-02T08:30:36.833Z</time></trkpt><trkpt lat="41.85591" lon="13.2236383"><ele>647.0</ele><time>2026-04-02T08:30:37.832Z</time></trkpt><trkpt lat="41.8559867" lon="13.2236567"><ele>647.0</ele><time>2026-04-02T08:30:38.832Z</time></trkpt><trkpt lat="41.8560617" lon="13.22367"><ele>647.0</ele><time>2026-04-02T08:30:39.832Z</time></trkpt><trkpt lat="41.8561317" lon="13.2236933"><ele>647.0</ele><time>2026-04-02T08:30:40.832Z</time></trkpt><trkpt lat="41.8561917" lon="13.2237367"><ele>646.0</ele><time>2026-04-02T08:30:41.832Z</time></trkpt><trkpt lat="41.8562383" lon="13.2237983"><ele>645.0</ele><time>2026-04-02T08:30:42.833Z</time></trkpt><trkpt lat="41.8562717" lon="13.2238733"><ele>644.0</ele><time>2026-04-02T08:30:43.835Z</time></trkpt><trkpt lat="41.8562967" lon="13.2240317"><ele>643.0</ele><time>2026-04-02T08:30:45.832Z</time></trkpt><trkpt lat="41.8563083" lon="13.2242083"><ele>642.0</ele><time>2026-04-02T08:30:47.831Z</time></trkpt><trkpt lat="41.85631" lon="13.224325"><ele>642.0</ele><time>2026-04-02T08:30:48.833Z</time></trkpt><trkpt lat="41.85631" lon="13.2244667"><ele>642.0</ele><time>2026-04-02T08:30:49.83Z</time></trkpt><trkpt lat="41.8563033" lon="13.2246183"><ele>642.0</ele><time>2026-04-02T08:30:50.831Z</time></trkpt><trkpt lat="41.85629" lon="13.224765"><ele>642.0</ele><time>2026-04-02T08:30:51.831Z</time></trkpt><trkpt lat="41.8562817" lon="13.2249033"><ele>642.0</ele><time>2026-04-02T08:30:52.829Z</time></trkpt><trkpt lat="41.85628" lon="13.2250417"><ele>640.5</ele><time>2026-04-02T08:30:53.831Z</time></trkpt><trkpt lat="41.85629" lon="13.2251833"><ele>639.0</ele><time>2026-04-02T08:30:54.833Z</time></trkpt><trkpt lat="41.8563283" lon="13.225335"><ele>637.5</ele><time>2026-04-02T08:30:55.833Z</time></trkpt><trkpt lat="41.8563967" lon="13.2254967"><ele>636.0</ele><time>2026-04-02T08:30:56.834Z</time></trkpt><trkpt lat="41.8564833" lon="13.225655"><ele>635.8</ele><time>2026-04-02T08:30:57.834Z</time></trkpt><trkpt lat="41.8565683" lon="13.22578"><ele>635.6</ele><time>2026-04-02T08:30:58.833Z</time></trkpt><trkpt lat="41.8566567" lon="13.2258617"><ele>635.4</ele><time>2026-04-02T08:30:59.831Z</time></trkpt><trkpt lat="41.8567483" lon="13.2259"><ele>635.2</ele><time>2026-04-02T08:31:00.832Z</time></trkpt><trkpt lat="41.8568533" lon="13.2258783"><ele>635.0</ele><time>2026-04-02T08:31:01.831Z</time></trkpt><trkpt lat="41.8569717" lon="13.225825"><ele>635.4</ele><time>2026-04-02T08:31:02.832Z</time></trkpt><trkpt lat="41.8570883" lon="13.225765"><ele>635.8</ele><time>2026-04-02T08:31:03.832Z</time></trkpt><trkpt lat="41.85719" lon="13.225715"><ele>636.2</ele><time>2026-04-02T08:31:04.832Z</time></trkpt><trkpt lat="41.8572767" lon="13.2256883"><ele>636.6</ele><time>2026-04-02T08:31:05.831Z</time></trkpt><trkpt lat="41.857355" lon="13.2256883"><ele>637.0</ele><time>2026-04-02T08:31:06.833Z</time></trkpt><trkpt lat="41.857435" lon="13.2257433"><ele>637.0</ele><time>2026-04-02T08:31:07.829Z</time></trkpt><trkpt lat="41.85751" lon="13.2258583"><ele>637.0</ele><time>2026-04-02T08:31:08.832Z</time></trkpt><trkpt lat="41.8575833" lon="13.2259983"><ele>637.0</ele><time>2026-04-02T08:31:09.831Z</time></trkpt><trkpt lat="41.8576517" lon="13.226155"><ele>637.0</ele><time>2026-04-02T08:31:10.832Z</time></trkpt><trkpt lat="41.8577217" lon="13.2263183"><ele>641.0</ele><time>2026-04-02T08:31:11.832Z</time></trkpt><trkpt lat="41.857785" lon="13.2264983"><ele>645.0</ele><time>2026-04-02T08:31:12.832Z</time></trkpt><trkpt lat="41.857835" lon="13.2266917"><ele>649.0</ele><time>2026-04-02T08:31:13.831Z</time></trkpt><trkpt lat="41.8578667" lon="13.226885"><ele>653.0</ele><time>2026-04-02T08:31:14.833Z</time></trkpt><trkpt lat="41.8578833" lon="13.2270817"><ele>653.0</ele><time>2026-04-02T08:31:15.834Z</time></trkpt><trkpt lat="41.857905" lon="13.2272783"><ele>653.0</ele><time>2026-04-02T08:31:16.834Z</time></trkpt><trkpt lat="41.8579317" lon="13.227475"><ele>653.0</ele><time>2026-04-02T08:31:17.832Z</time></trkpt><trkpt lat="41.8579767" lon="13.2276617"><ele>653.0</ele><time>2026-04-02T08:31:18.831Z</time></trkpt><trkpt lat="41.85801" lon="13.2278317"><ele>652.0</ele><time>2026-04-02T08:31:19.833Z</time></trkpt><trkpt lat="41.858045" lon="13.22799"><ele>651.0</ele><time>2026-04-02T08:31:20.832Z</time></trkpt><trkpt lat="41.85809" lon="13.2281283"><ele>650.0</ele><time>2026-04-02T08:31:21.832Z</time></trkpt><trkpt lat="41.85816" lon="13.2282383"><ele>649.0</ele><time>2026-04-02T08:31:22.832Z</time></trkpt><trkpt lat="41.8582517" lon="13.2283183"><ele>649.75</ele><time>2026-04-02T08:31:23.83Z</time></trkpt><trkpt lat="41.85837" lon="13.2283683"><ele>650.5</ele><time>2026-04-02T08:31:24.835Z</time></trkpt><trkpt lat="41.8585" lon="13.2283967"><ele>651.25</ele><time>2026-04-02T08:31:25.833Z</time></trkpt><trkpt lat="41.8586367" lon="13.2283967"><ele>652.0</ele><time>2026-04-02T08:31:26.833Z</time></trkpt><trkpt lat="41.85877" lon="13.2283467"><ele>652.0</ele><time>2026-04-02T08:31:27.832Z</time></trkpt><trkpt lat="41.8589" lon="13.2282417"><ele>652.0</ele><time>2026-04-02T08:31:28.834Z</time></trkpt><trkpt lat="41.8590233" lon="13.2281367"><ele>652.0</ele><time>2026-04-02T08:31:29.832Z</time></trkpt><trkpt lat="41.8591467" lon="13.22806"><ele>652.0</ele><time>2026-04-02T08:31:30.83Z</time></trkpt><trkpt lat="41.8592883" lon="13.2280117"><ele>655.75</ele><time>2026-04-02T08:31:31.83Z</time></trkpt><trkpt lat="41.8594367" lon="13.22798"><ele>659.5</ele><time>2026-04-02T08:31:32.828Z</time></trkpt><trkpt lat="41.8595767" lon="13.2279517"><ele>663.25</ele><time>2026-04-02T08:31:33.832Z</time></trkpt><trkpt lat="41.8597" lon="13.227925"><ele>667.0</ele><time>2026-04-02T08:31:34.829Z</time></trkpt><trkpt lat="41.8597867" lon="13.22788"><ele>667.0</ele><time>2026-04-02T08:31:35.832Z</time></trkpt><trkpt lat="41.859845" lon="13.2278117"><ele>667.0</ele><time>2026-04-02T08:31:36.832Z</time></trkpt><trkpt lat="41.85988" lon="13.2277183"><ele>667.0</ele><time>2026-04-02T08:31:37.829Z</time></trkpt><trkpt lat="41.8598733" lon="13.227565"><ele>667.0</ele><time>2026-04-02T08:31:38.83Z</time></trkpt><trkpt lat="41.8598683" lon="13.227395"><ele>667.0</ele><time>2026-04-02T08:31:39.828Z</time></trkpt><trkpt lat="41.8598683" lon="13.2272383"><ele>667.2</ele><time>2026-04-02T08:31:40.83Z</time></trkpt><trkpt lat="41.8598767" lon="13.227115"><ele>667.4000000000001</ele><time>2026-04-02T08:31:41.829Z</time></trkpt><trkpt lat="41.85988" lon="13.2270217"><ele>667.5999999999999</ele><time>2026-04-02T08:31:42.831Z</time></trkpt><trkpt lat="41.8598883" lon="13.2269067"><ele>667.8</ele><time>2026-04-02T08:31:44.832Z</time></trkpt><trkpt lat="41.8598417" lon="13.2267933"><ele>668.0</ele><time>2026-04-02T08:32:03.83Z</time></trkpt><trkpt lat="41.8597333" lon="13.226735"><ele>668.0</ele><time>2026-04-02T08:32:05.831Z</time></trkpt><trkpt lat="41.8596467" lon="13.2267467"><ele>668.0</ele><time>2026-04-02T08:32:06.833Z</time></trkpt><trkpt lat="41.859565" lon="13.2268117"><ele>668.0</ele><time>2026-04-02T08:32:07.831Z</time></trkpt><trkpt lat="41.8594867" lon="13.226935"><ele>668.0</ele><time>2026-04-02T08:32:08.833Z</time></trkpt><trkpt lat="41.8594233" lon="13.22709"><ele>668.0</ele><time>2026-04-02T08:32:09.832Z</time></trkpt><trkpt lat="41.8593583" lon="13.22724"><ele>667.0</ele><time>2026-04-02T08:32:10.835Z</time></trkpt><trkpt lat="41.8592817" lon="13.2273767"><ele>666.0</ele><time>2026-04-02T08:32:11.831Z</time></trkpt><trkpt lat="41.859185" lon="13.22749"><ele>665.0</ele><time>2026-04-02T08:32:12.834Z</time></trkpt><trkpt lat="41.8590833" lon="13.22757"><ele>664.0</ele><time>2026-04-02T08:32:13.833Z</time></trkpt><trkpt lat="41.8589717" lon="13.2276033"><ele>664.0</ele><time>2026-04-02T08:32:14.831Z</time></trkpt><trkpt lat="41.85886" lon="13.2276067"><ele>664.0</ele><time>2026-04-02T08:32:15.835Z</time></trkpt><trkpt lat="41.8587567" lon="13.22757"><ele>664.0</ele><time>2026-04-02T08:32:16.829Z</time></trkpt><trkpt lat="41.8586817" lon="13.227495"><ele>664.0</ele><time>2026-04-02T08:32:17.832Z</time></trkpt><trkpt lat="41.8586317" lon="13.2273983"><ele>664.0</ele><time>2026-04-02T08:32:18.834Z</time></trkpt><trkpt lat="41.858615" lon="13.227265"><ele>667.0</ele><time>2026-04-02T08:32:19.833Z</time></trkpt><trkpt lat="41.8586233" lon="13.2271033"><ele>670.0</ele><time>2026-04-02T08:32:20.834Z</time></trkpt><trkpt lat="41.858635" lon="13.2269267"><ele>673.0</ele><time>2026-04-02T08:32:21.833Z</time></trkpt><trkpt lat="41.8586417" lon="13.2267383"><ele>676.0</ele><time>2026-04-02T08:32:22.831Z</time></trkpt><trkpt lat="41.8586183" lon="13.22655"><ele>677.6666666666667</ele><time>2026-04-02T08:32:23.834Z</time></trkpt><trkpt lat="41.85856" lon="13.2263633"><ele>679.3333333333334</ele><time>2026-04-02T08:32:24.833Z</time></trkpt><trkpt lat="41.8584783" lon="13.2261733"><ele>681.0</ele><time>2026-04-02T08:32:25.833Z</time></trkpt><trkpt lat="41.8584" lon="13.22599"><ele>676.5</ele><time>2026-04-02T08:32:26.835Z</time></trkpt><trkpt lat="41.8583417" lon="13.22581"><ele>672.0</ele><time>2026-04-02T08:32:27.833Z</time></trkpt><trkpt lat="41.8583" lon="13.2256233"><ele>667.5</ele><time>2026-04-02T08:32:28.834Z</time></trkpt><trkpt lat="41.858275" lon="13.22544"><ele>663.0</ele><time>2026-04-02T08:32:29.833Z</time></trkpt><trkpt lat="41.8582617" lon="13.2252783"><ele>663.0</ele><time>2026-04-02T08:32:30.834Z</time></trkpt><trkpt lat="41.85826" lon="13.2251333"><ele>663.0</ele><time>2026-04-02T08:32:31.829Z</time></trkpt><trkpt lat="41.8582783" lon="13.2249867"><ele>663.0</ele><time>2026-04-02T08:32:32.833Z</time></trkpt><trkpt lat="41.8583267" lon="13.2248417"><ele>663.0</ele><time>2026-04-02T08:32:33.831Z</time></trkpt><trkpt lat="41.8584033" lon="13.2246867"><ele>667.6666666666666</ele><time>2026-04-02T08:32:34.83Z</time></trkpt><trkpt lat="41.8584983" lon="13.2245167"><ele>672.3333333333333</ele><time>2026-04-02T08:32:35.832Z</time></trkpt><trkpt lat="41.8586017" lon="13.22433"><ele>677.0</ele><time>2026-04-02T08:32:36.832Z</time></trkpt><trkpt lat="41.8586967" lon="13.22414"><ele>675.25</ele><time>2026-04-02T08:32:37.834Z</time></trkpt><trkpt lat="41.85877" lon="13.2239567"><ele>673.5</ele><time>2026-04-02T08:32:38.831Z</time></trkpt><trkpt lat="41.8588083" lon="13.2237717"><ele>671.75</ele><time>2026-04-02T08:32:39.832Z</time></trkpt><trkpt lat="41.8588067" lon="13.223575"><ele>670.0</ele><time>2026-04-02T08:32:40.834Z</time></trkpt><trkpt lat="41.8587767" lon="13.22336"><ele>668.0</ele><time>2026-04-02T08:32:41.83Z</time></trkpt><trkpt lat="41.8587333" lon="13.2231267"><ele>666.0</ele><time>2026-04-02T08:32:42.829Z</time></trkpt><trkpt lat="41.8586833" lon="13.2228583"><ele>664.0</ele><time>2026-04-02T08:32:43.832Z</time></trkpt><trkpt lat="41.8586317" lon="13.22257"><ele>662.6666666666667</ele><time>2026-04-02T08:32:44.831Z</time></trkpt><trkpt lat="41.8585817" lon="13.2222933"><ele>661.3333333333334</ele><time>2026-04-02T08:32:45.83Z</time></trkpt><trkpt lat="41.8585433" lon="13.2220333"><ele>660.0</ele><time>2026-04-02T08:32:46.832Z</time></trkpt><trkpt lat="41.858525" lon="13.2218"><ele>660.0</ele><time>2026-04-02T08:32:47.833Z</time></trkpt><trkpt lat="41.8585233" lon="13.2215867"><ele>660.0</ele><time>2026-04-02T08:32:48.835Z</time></trkpt><trkpt lat="41.8585533" lon="13.2213667"><ele>660.0</ele><time>2026-04-02T08:32:49.832Z</time></trkpt><trkpt lat="41.8586017" lon="13.2211233"><ele>657.3333333333334</ele><time>2026-04-02T08:32:50.834Z</time></trkpt><trkpt lat="41.8586417" lon="13.2208383"><ele>654.6666666666667</ele><time>2026-04-02T08:32:51.832Z</time></trkpt><trkpt lat="41.858665" lon="13.22053"><ele>652.0</ele><time>2026-04-02T08:32:52.834Z</time></trkpt><trkpt lat="41.8586867" lon="13.2202233"><ele>650.3333333333334</ele><time>2026-04-02T08:32:53.833Z</time></trkpt><trkpt lat="41.8587233" lon="13.21993"><ele>648.6666666666666</ele><time>2026-04-02T08:32:54.831Z</time></trkpt><trkpt lat="41.8587767" lon="13.2196417"><ele>647.0</ele><time>2026-04-02T08:32:55.833Z</time></trkpt><trkpt lat="41.8588367" lon="13.2193633"><ele>646.6666666666666</ele><time>2026-04-02T08:32:56.831Z</time></trkpt><trkpt lat="41.8588817" lon="13.2190933"><ele>646.3333333333334</ele><time>2026-04-02T08:32:57.834Z</time></trkpt><trkpt lat="41.8589067" lon="13.2188133"><ele>646.0</ele><time>2026-04-02T08:32:58.833Z</time></trkpt><trkpt lat="41.8588983" lon="13.2185133"><ele>644.0</ele><time>2026-04-02T08:32:59.835Z</time></trkpt><trkpt lat="41.858875" lon="13.2181783"><ele>642.0</ele><time>2026-04-02T08:33:00.834Z</time></trkpt><trkpt lat="41.8588517" lon="13.217825"><ele>640.0</ele><time>2026-04-02T08:33:01.831Z</time></trkpt><trkpt lat="41.85883" lon="13.2174833"><ele>638.0</ele><time>2026-04-02T08:33:02.833Z</time></trkpt><trkpt lat="41.8588067" lon="13.2171533"><ele>637.0</ele><time>2026-04-02T08:33:03.831Z</time></trkpt><trkpt lat="41.858785" lon="13.2168333"><ele>636.0</ele><time>2026-04-02T08:33:04.831Z</time></trkpt><trkpt lat="41.8587683" lon="13.2165267"><ele>634.5</ele><time>2026-04-02T08:33:05.833Z</time></trkpt><trkpt lat="41.8587567" lon="13.2162233"><ele>633.0</ele><time>2026-04-02T08:33:06.832Z</time></trkpt><trkpt lat="41.8587517" lon="13.2159233"><ele>632.0</ele><time>2026-04-02T08:33:07.832Z</time></trkpt><trkpt lat="41.8587533" lon="13.215635"><ele>631.0</ele><time>2026-04-02T08:33:08.834Z</time></trkpt><trkpt lat="41.8587683" lon="13.21536"><ele>630.0</ele><time>2026-04-02T08:33:09.832Z</time></trkpt><trkpt lat="41.8588" lon="13.21509"><ele>629.6666666666666</ele><time>2026-04-02T08:33:10.831Z</time></trkpt><trkpt lat="41.8588633" lon="13.2148183"><ele>629.3333333333333</ele><time>2026-04-02T08:33:11.832Z</time></trkpt><trkpt lat="41.85894" lon="13.2145367"><ele>629.0</ele><time>2026-04-02T08:33:12.832Z</time></trkpt><trkpt lat="41.8590117" lon="13.21424"><ele>629.3333333333333</ele><time>2026-04-02T08:33:13.834Z</time></trkpt><trkpt lat="41.8590733" lon="13.2139483"><ele>629.6666666666666</ele><time>2026-04-02T08:33:14.833Z</time></trkpt><trkpt lat="41.859125" lon="13.213675"><ele>630.0</ele><time>2026-04-02T08:33:15.833Z</time></trkpt><trkpt lat="41.8591667" lon="13.21342"><ele>630.0</ele><time>2026-04-02T08:33:16.832Z</time></trkpt><trkpt lat="41.8592033" lon="13.2131717"><ele>630.0</ele><time>2026-04-02T08:33:17.832Z</time></trkpt><trkpt lat="41.8592217" lon="13.2129067"><ele>630.0</ele><time>2026-04-02T08:33:18.837Z</time></trkpt><trkpt lat="41.85922" lon="13.2126483"><ele>629.6666666666666</ele><time>2026-04-02T08:33:19.833Z</time></trkpt><trkpt lat="41.8592217" lon="13.212425"><ele>629.3333333333333</ele><time>2026-04-02T08:33:20.834Z</time></trkpt><trkpt lat="41.8592433" lon="13.212215"><ele>629.0</ele><time>2026-04-02T08:33:21.835Z</time></trkpt><trkpt lat="41.8592783" lon="13.212"><ele>628.75</ele><time>2026-04-02T08:33:22.835Z</time></trkpt><trkpt lat="41.8593117" lon="13.2117933"><ele>628.5</ele><time>2026-04-02T08:33:23.834Z</time></trkpt><trkpt lat="41.8593417" lon="13.2116117"><ele>628.25</ele><time>2026-04-02T08:33:24.835Z</time></trkpt><trkpt lat="41.8593683" lon="13.211455"><ele>628.0</ele><time>2026-04-02T08:33:25.834Z</time></trkpt><trkpt lat="41.8593983" lon="13.21131"><ele>627.0</ele><time>2026-04-02T08:33:26.835Z</time></trkpt><trkpt lat="41.8594183" lon="13.211155"><ele>626.0</ele><time>2026-04-02T08:33:27.835Z</time></trkpt><trkpt lat="41.85941" lon="13.2109817"><ele>625.0</ele><time>2026-04-02T08:33:28.834Z</time></trkpt><trkpt lat="41.8593783" lon="13.21078"><ele>624.0</ele><time>2026-04-02T08:33:29.834Z</time></trkpt><trkpt lat="41.859345" lon="13.2105517"><ele>624.0</ele><time>2026-04-02T08:33:30.835Z</time></trkpt><trkpt lat="41.8593117" lon="13.2103117"><ele>624.0</ele><time>2026-04-02T08:33:31.833Z</time></trkpt><trkpt lat="41.85927" lon="13.21006"><ele>624.0</ele><time>2026-04-02T08:33:32.833Z</time></trkpt><trkpt lat="41.8592283" lon="13.2098117"><ele>618.6666666666666</ele><time>2026-04-02T08:33:33.832Z</time></trkpt><trkpt lat="41.8591917" lon="13.209585"><ele>613.3333333333333</ele><time>2026-04-02T08:33:34.832Z</time></trkpt><trkpt lat="41.859155" lon="13.2093767"><ele>608.0</ele><time>2026-04-02T08:33:35.833Z</time></trkpt><trkpt lat="41.8591217" lon="13.2091833"><ele>608.0</ele><time>2026-04-02T08:33:36.831Z</time></trkpt><trkpt lat="41.8590983" lon="13.20901"><ele>608.0</ele><time>2026-04-02T08:33:37.833Z</time></trkpt><trkpt lat="41.85909" lon="13.20886"><ele>608.0</ele><time>2026-04-02T08:33:38.831Z</time></trkpt><trkpt lat="41.8591033" lon="13.2087117"><ele>608.0</ele><time>2026-04-02T08:33:39.831Z</time></trkpt><trkpt lat="41.859145" lon="13.2085517"><ele>606.3333333333333</ele><time>2026-04-02T08:33:40.83Z</time></trkpt><trkpt lat="41.8592083" lon="13.2083783"><ele>604.6666666666666</ele><time>2026-04-02T08:33:41.832Z</time></trkpt><trkpt lat="41.859285" lon="13.2081833"><ele>603.0</ele><time>2026-04-02T08:33:42.834Z</time></trkpt><trkpt lat="41.859365" lon="13.2079633"><ele>603.0</ele><time>2026-04-02T08:33:43.834Z</time></trkpt><trkpt lat="41.8594283" lon="13.2077283"><ele>603.0</ele><time>2026-04-02T08:33:44.834Z</time></trkpt><trkpt lat="41.8594733" lon="13.2075033"><ele>603.0</ele><time>2026-04-02T08:33:45.832Z</time></trkpt><trkpt lat="41.8595183" lon="13.2073033"><ele>599.3333333333334</ele><time>2026-04-02T08:33:46.833Z</time></trkpt><trkpt lat="41.859575" lon="13.2071217"><ele>595.6666666666667</ele><time>2026-04-02T08:33:47.832Z</time></trkpt><trkpt lat="41.8596483" lon="13.206935"><ele>592.0</ele><time>2026-04-02T08:33:48.83Z</time></trkpt><trkpt lat="41.85973" lon="13.206745"><ele>592.0</ele><time>2026-04-02T08:33:49.831Z</time></trkpt><trkpt lat="41.859815" lon="13.2065633"><ele>592.0</ele><time>2026-04-02T08:33:50.831Z</time></trkpt><trkpt lat="41.8599" lon="13.2063917"><ele>592.0</ele><time>2026-04-02T08:33:51.831Z</time></trkpt><trkpt lat="41.8599733" lon="13.2062283"><ele>592.0</ele><time>2026-04-02T08:33:52.83Z</time></trkpt><trkpt lat="41.860025" lon="13.2060617"><ele>592.0</ele><time>2026-04-02T08:33:53.832Z</time></trkpt><trkpt lat="41.86005" lon="13.2058767"><ele>592.0</ele><time>2026-04-02T08:33:54.836Z</time></trkpt><trkpt lat="41.860055" lon="13.2056817"><ele>592.0</ele><time>2026-04-02T08:33:55.835Z</time></trkpt><trkpt lat="41.8600483" lon="13.2055017"><ele>592.0</ele><time>2026-04-02T08:33:56.834Z</time></trkpt><trkpt lat="41.86002" lon="13.205345"><ele>592.0</ele><time>2026-04-02T08:33:57.834Z</time></trkpt><trkpt lat="41.8599683" lon="13.2052"><ele>592.0</ele><time>2026-04-02T08:33:58.834Z</time></trkpt><trkpt lat="41.8599" lon="13.2050667"><ele>592.0</ele><time>2026-04-02T08:33:59.834Z</time></trkpt><trkpt lat="41.85983" lon="13.204935"><ele>594.25</ele><time>2026-04-02T08:34:00.834Z</time></trkpt><trkpt lat="41.859775" lon="13.2047933"><ele>596.5</ele><time>2026-04-02T08:34:01.832Z</time></trkpt><trkpt lat="41.8597383" lon="13.2046283"><ele>598.75</ele><time>2026-04-02T08:34:02.831Z</time></trkpt><trkpt lat="41.8597117" lon="13.2044517"><ele>601.0</ele><time>2026-04-02T08:34:03.832Z</time></trkpt><trkpt lat="41.8596733" lon="13.20428"><ele>601.0</ele><time>2026-04-02T08:34:04.834Z</time></trkpt><trkpt lat="41.8596217" lon="13.2041183"><ele>601.0</ele><time>2026-04-02T08:34:05.832Z</time></trkpt><trkpt lat="41.8595517" lon="13.2039767"><ele>601.0</ele><time>2026-04-02T08:34:06.834Z</time></trkpt><trkpt lat="41.8594667" lon="13.2038617"><ele>601.0</ele><time>2026-04-02T08:34:07.831Z</time></trkpt><trkpt lat="41.8593867" lon="13.2037567"><ele>601.4</ele><time>2026-04-02T08:34:08.832Z</time></trkpt><trkpt lat="41.859335" lon="13.2036533"><ele>601.8</ele><time>2026-04-02T08:34:09.829Z</time></trkpt><trkpt lat="41.85931" lon="13.2035417"><ele>602.1999999999999</ele><time>2026-04-02T08:34:10.834Z</time></trkpt><trkpt lat="41.859305" lon="13.20342"><ele>602.6</ele><time>2026-04-02T08:34:11.833Z</time></trkpt><trkpt lat="41.85933" lon="13.2032933"><ele>603.0</ele><time>2026-04-02T08:34:12.834Z</time></trkpt><trkpt lat="41.85938" lon="13.20316"><ele>598.0</ele><time>2026-04-02T08:34:13.834Z</time></trkpt><trkpt lat="41.8594517" lon="13.20303"><ele>593.0</ele><time>2026-04-02T08:34:14.832Z</time></trkpt><trkpt lat="41.8595317" lon="13.202915"><ele>588.0</ele><time>2026-04-02T08:34:15.833Z</time></trkpt><trkpt lat="41.85962" lon="13.2028283"><ele>583.0</ele><time>2026-04-02T08:34:16.834Z</time></trkpt><trkpt lat="41.8597317" lon="13.202765"><ele>583.0</ele><time>2026-04-02T08:34:17.833Z</time></trkpt><trkpt lat="41.859855" lon="13.2027133"><ele>583.0</ele><time>2026-04-02T08:34:18.833Z</time></trkpt><trkpt lat="41.8599867" lon="13.2026533"><ele>583.0</ele><time>2026-04-02T08:34:19.832Z</time></trkpt><trkpt lat="41.8601133" lon="13.2025583"><ele>583.0</ele><time>2026-04-02T08:34:20.833Z</time></trkpt><trkpt lat="41.8602333" lon="13.202435"><ele>581.3333333333334</ele><time>2026-04-02T08:34:21.831Z</time></trkpt><trkpt lat="41.86036" lon="13.2022983"><ele>579.6666666666666</ele><time>2026-04-02T08:34:22.832Z</time></trkpt><trkpt lat="41.8604933" lon="13.2021283"><ele>578.0</ele><time>2026-04-02T08:34:23.831Z</time></trkpt><trkpt lat="41.8606267" lon="13.201935"><ele>578.0</ele><time>2026-04-02T08:34:24.834Z</time></trkpt><trkpt lat="41.860745" lon="13.201735"><ele>578.0</ele><time>2026-04-02T08:34:25.834Z</time></trkpt><trkpt lat="41.8608617" lon="13.2015733"><ele>578.0</ele><time>2026-04-02T08:34:26.833Z</time></trkpt><trkpt lat="41.860985" lon="13.2014217"><ele>576.6666666666666</ele><time>2026-04-02T08:34:27.833Z</time></trkpt><trkpt lat="41.8611233" lon="13.2012683"><ele>575.3333333333334</ele><time>2026-04-02T08:34:28.832Z</time></trkpt><trkpt lat="41.86127" lon="13.2011117"><ele>574.0</ele><time>2026-04-02T08:34:29.832Z</time></trkpt><trkpt lat="41.861405" lon="13.2009633"><ele>574.0</ele><time>2026-04-02T08:34:30.832Z</time></trkpt><trkpt lat="41.861515" lon="13.2008383"><ele>574.0</ele><time>2026-04-02T08:34:31.831Z</time></trkpt><trkpt lat="41.86161" lon="13.20074"><ele>574.0</ele><time>2026-04-02T08:34:32.831Z</time></trkpt><trkpt lat="41.8616933" lon="13.2006433"><ele>574.0</ele><time>2026-04-02T08:34:33.832Z</time></trkpt><trkpt lat="41.8617583" lon="13.20053"><ele>576.75</ele><time>2026-04-02T08:34:34.832Z</time></trkpt><trkpt lat="41.8618033" lon="13.2004033"><ele>579.5</ele><time>2026-04-02T08:34:35.831Z</time></trkpt><trkpt lat="41.8618233" lon="13.20025"><ele>582.25</ele><time>2026-04-02T08:34:36.832Z</time></trkpt><trkpt lat="41.8618417" lon="13.20009"><ele>585.0</ele><time>2026-04-02T08:34:37.832Z</time></trkpt><trkpt lat="41.86187" lon="13.1999417"><ele>581.8</ele><time>2026-04-02T08:34:38.83Z</time></trkpt><trkpt lat="41.861915" lon="13.19981"><ele>578.6</ele><time>2026-04-02T08:34:39.83Z</time></trkpt><trkpt lat="41.8619833" lon="13.1997067"><ele>575.4</ele><time>2026-04-02T08:34:40.831Z</time></trkpt><trkpt lat="41.86207" lon="13.1996367"><ele>572.2</ele><time>2026-04-02T08:34:41.831Z</time></trkpt><trkpt lat="41.862175" lon="13.199585"><ele>569.0</ele><time>2026-04-02T08:34:42.833Z</time></trkpt><trkpt lat="41.8622967" lon="13.1995417"><ele>569.0</ele><time>2026-04-02T08:34:43.831Z</time></trkpt><trkpt lat="41.8624367" lon="13.1995"><ele>569.0</ele><time>2026-04-02T08:34:44.83Z</time></trkpt><trkpt lat="41.8625833" lon="13.1994617"><ele>569.0</ele><time>2026-04-02T08:34:45.833Z</time></trkpt><trkpt lat="41.8627283" lon="13.1994367"><ele>569.0</ele><time>2026-04-02T08:34:46.83Z</time></trkpt><trkpt lat="41.8628733" lon="13.19941"><ele>569.6666666666666</ele><time>2026-04-02T08:34:47.83Z</time></trkpt><trkpt lat="41.8630217" lon="13.1993867"><ele>570.3333333333334</ele><time>2026-04-02T08:34:48.832Z</time></trkpt><trkpt lat="41.86317" lon="13.1993633"><ele>571.0</ele><time>2026-04-02T08:34:49.831Z</time></trkpt><trkpt lat="41.8633233" lon="13.199335"><ele>573.6666666666667</ele><time>2026-04-02T08:34:50.832Z</time></trkpt><trkpt lat="41.8634817" lon="13.1992817"><ele>576.3333333333334</ele><time>2026-04-02T08:34:51.829Z</time></trkpt><trkpt lat="41.86364" lon="13.1992083"><ele>579.0</ele><time>2026-04-02T08:34:52.829Z</time></trkpt><trkpt lat="41.8637883" lon="13.1991267"><ele>579.0</ele><time>2026-04-02T08:34:53.832Z</time></trkpt><trkpt lat="41.86392" lon="13.1990567"><ele>579.0</ele><time>2026-04-02T08:34:54.831Z</time></trkpt><trkpt lat="41.864045" lon="13.1989833"><ele>579.0</ele><time>2026-04-02T08:34:55.832Z</time></trkpt><trkpt lat="41.8641583" lon="13.1988933"><ele>579.0</ele><time>2026-04-02T08:34:56.831Z</time></trkpt><trkpt lat="41.86426" lon="13.198775"><ele>578.0</ele><time>2026-04-02T08:34:57.832Z</time></trkpt><trkpt lat="41.86435" lon="13.19864"><ele>577.0</ele><time>2026-04-02T08:34:58.831Z</time></trkpt><trkpt lat="41.864425" lon="13.1984833"><ele>576.0</ele><time>2026-04-02T08:34:59.829Z</time></trkpt><trkpt lat="41.8644817" lon="13.1983283"><ele>575.0</ele><time>2026-04-02T08:35:00.831Z</time></trkpt><trkpt lat="41.8645317" lon="13.1981867"><ele>573.6</ele><time>2026-04-02T08:35:01.832Z</time></trkpt><trkpt lat="41.8645917" lon="13.1980517"><ele>572.2</ele><time>2026-04-02T08:35:02.83Z</time></trkpt><trkpt lat="41.864635" lon="13.1979017"><ele>570.8</ele><time>2026-04-02T08:35:03.83Z</time></trkpt><trkpt lat="41.864645" lon="13.1977567"><ele>569.4</ele><time>2026-04-02T08:35:04.829Z</time></trkpt><trkpt lat="41.8646417" lon="13.19762"><ele>568.0</ele><time>2026-04-02T08:35:05.831Z</time></trkpt><trkpt lat="41.8645983" lon="13.19748"><ele>568.0</ele><time>2026-04-02T08:35:06.83Z</time></trkpt><trkpt lat="41.8645333" lon="13.1973417"><ele>568.0</ele><time>2026-04-02T08:35:07.831Z</time></trkpt><trkpt lat="41.86446" lon="13.1972067"><ele>568.0</ele><time>2026-04-02T08:35:08.831Z</time></trkpt><trkpt lat="41.86439" lon="13.1970683"><ele>568.0</ele><time>2026-04-02T08:35:09.832Z</time></trkpt><trkpt lat="41.86435" lon="13.1969467"><ele>568.5</ele><time>2026-04-02T08:35:10.833Z</time></trkpt><trkpt lat="41.8643167" lon="13.196795"><ele>569.0</ele><time>2026-04-02T08:35:11.83Z</time></trkpt><trkpt lat="41.8642817" lon="13.1966217"><ele>569.5</ele><time>2026-04-02T08:35:12.831Z</time></trkpt><trkpt lat="41.8642467" lon="13.1964517"><ele>570.0</ele><time>2026-04-02T08:35:13.832Z</time></trkpt><trkpt lat="41.86422" lon="13.1963033"><ele>572.25</ele><time>2026-04-02T08:35:14.83Z</time></trkpt><trkpt lat="41.86419" lon="13.1961567"><ele>574.5</ele><time>2026-04-02T08:35:15.832Z</time></trkpt><trkpt lat="41.864165" lon="13.1960117"><ele>576.75</ele><time>2026-04-02T08:35:16.83Z</time></trkpt><trkpt lat="41.864145" lon="13.195855"><ele>579.0</ele><time>2026-04-02T08:35:17.831Z</time></trkpt><trkpt lat="41.864135" lon="13.1956917"><ele>579.25</ele><time>2026-04-02T08:35:18.831Z</time></trkpt><trkpt lat="41.86414" lon="13.1955283"><ele>579.5</ele><time>2026-04-02T08:35:19.831Z</time></trkpt><trkpt lat="41.8641667" lon="13.1953633"><ele>579.75</ele><time>2026-04-02T08:35:20.829Z</time></trkpt><trkpt lat="41.864205" lon="13.1951917"><ele>580.0</ele><time>2026-04-02T08:35:21.831Z</time></trkpt><trkpt lat="41.8642483" lon="13.1950383"><ele>576.75</ele><time>2026-04-02T08:35:22.833Z</time></trkpt><trkpt lat="41.8642983" lon="13.1948983"><ele>573.5</ele><time>2026-04-02T08:35:23.832Z</time></trkpt><trkpt lat="41.86435" lon="13.1947567"><ele>570.25</ele><time>2026-04-02T08:35:24.834Z</time></trkpt><trkpt lat="41.8644117" lon="13.1946167"><ele>567.0</ele><time>2026-04-02T08:35:25.831Z</time></trkpt><trkpt lat="41.8644817" lon="13.1944733"><ele>566.5</ele><time>2026-04-02T08:35:26.833Z</time></trkpt><trkpt lat="41.8645633" lon="13.194325"><ele>566.0</ele><time>2026-04-02T08:35:27.833Z</time></trkpt><trkpt lat="41.8646483" lon="13.19417"><ele>565.5</ele><time>2026-04-02T08:35:28.832Z</time></trkpt><trkpt lat="41.8647317" lon="13.194"><ele>565.0</ele><time>2026-04-02T08:35:29.833Z</time></trkpt><trkpt lat="41.864815" lon="13.19383"><ele>565.75</ele><time>2026-04-02T08:35:30.834Z</time></trkpt><trkpt lat="41.8648967" lon="13.1936717"><ele>566.5</ele><time>2026-04-02T08:35:31.834Z</time></trkpt><trkpt lat="41.86498" lon="13.19353"><ele>567.25</ele><time>2026-04-02T08:35:32.834Z</time></trkpt><trkpt lat="41.8650567" lon="13.1934017"><ele>568.0</ele><time>2026-04-02T08:35:33.834Z</time></trkpt><trkpt lat="41.865145" lon="13.19329"><ele>568.0</ele><time>2026-04-02T08:35:34.833Z</time></trkpt><trkpt lat="41.8652317" lon="13.1931767"><ele>568.0</ele><time>2026-04-02T08:35:35.834Z</time></trkpt><trkpt lat="41.8653233" lon="13.193075"><ele>568.0</ele><time>2026-04-02T08:35:36.832Z</time></trkpt><trkpt lat="41.8654133" lon="13.1929867"><ele>568.0</ele><time>2026-04-02T08:35:37.833Z</time></trkpt><trkpt lat="41.8655167" lon="13.1929183"><ele>570.5</ele><time>2026-04-02T08:35:38.831Z</time></trkpt><trkpt lat="41.8656283" lon="13.1928667"><ele>573.0</ele><time>2026-04-02T08:35:39.833Z</time></trkpt><trkpt lat="41.86575" lon="13.1928433"><ele>575.5</ele><time>2026-04-02T08:35:40.83Z</time></trkpt><trkpt lat="41.8658833" lon="13.192825"><ele>578.0</ele><time>2026-04-02T08:35:41.83Z</time></trkpt><trkpt lat="41.8660283" lon="13.1927933"><ele>578.0</ele><time>2026-04-02T08:35:42.832Z</time></trkpt><trkpt lat="41.86618" lon="13.1927467"><ele>578.0</ele><time>2026-04-02T08:35:43.832Z</time></trkpt><trkpt lat="41.8663317" lon="13.1926883"><ele>578.0</ele><time>2026-04-02T08:35:44.832Z</time></trkpt><trkpt lat="41.8664833" lon="13.1926217"><ele>578.0</ele><time>2026-04-02T08:35:45.832Z</time></trkpt><trkpt lat="41.8666367" lon="13.1925383"><ele>578.0</ele><time>2026-04-02T08:35:46.832Z</time></trkpt><trkpt lat="41.866785" lon="13.1924517"><ele>578.0</ele><time>2026-04-02T08:35:47.832Z</time></trkpt><trkpt lat="41.8669283" lon="13.192365"><ele>580.25</ele><time>2026-04-02T08:35:48.835Z</time></trkpt><trkpt lat="41.8670683" lon="13.1923067"><ele>582.5</ele><time>2026-04-02T08:35:49.833Z</time></trkpt><trkpt lat="41.8671983" lon="13.1922733"><ele>584.75</ele><time>2026-04-02T08:35:50.831Z</time></trkpt><trkpt lat="41.8673183" lon="13.192255"><ele>587.0</ele><time>2026-04-02T08:35:51.833Z</time></trkpt><trkpt lat="41.8674233" lon="13.192265"><ele>587.0</ele><time>2026-04-02T08:35:52.833Z</time></trkpt><trkpt lat="41.8675183" lon="13.1923133"><ele>587.0</ele><time>2026-04-02T08:35:53.834Z</time></trkpt><trkpt lat="41.867615" lon="13.1923967"><ele>587.0</ele><time>2026-04-02T08:35:54.832Z</time></trkpt><trkpt lat="41.8677117" lon="13.1924783"><ele>587.0</ele><time>2026-04-02T08:35:55.834Z</time></trkpt><trkpt lat="41.8678083" lon="13.19254"><ele>587.0</ele><time>2026-04-02T08:35:56.832Z</time></trkpt><trkpt lat="41.8679017" lon="13.192565"><ele>582.4</ele><time>2026-04-02T08:35:57.831Z</time></trkpt><trkpt lat="41.86799" lon="13.1925683"><ele>577.8000000000001</ele><time>2026-04-02T08:35:58.83Z</time></trkpt><trkpt lat="41.86807" lon="13.1925317"><ele>573.2</ele><time>2026-04-02T08:35:59.834Z</time></trkpt><trkpt lat="41.8681467" lon="13.1924383"><ele>568.6</ele><time>2026-04-02T08:36:00.834Z</time></trkpt><trkpt lat="41.8682233" lon="13.1922867"><ele>564.0</ele><time>2026-04-02T08:36:01.835Z</time></trkpt><trkpt lat="41.8683117" lon="13.192175"><ele>564.0</ele><time>2026-04-02T08:36:02.834Z</time></trkpt><trkpt lat="41.8684" lon="13.1920883"><ele>564.0</ele><time>2026-04-02T08:36:03.832Z</time></trkpt><trkpt lat="41.8684767" lon="13.1920183"><ele>564.0</ele><time>2026-04-02T08:36:04.832Z</time></trkpt><trkpt lat="41.86855" lon="13.1919733"><ele>564.0</ele><time>2026-04-02T08:36:05.831Z</time></trkpt><trkpt lat="41.8686117" lon="13.1919517"><ele>564.0</ele><time>2026-04-02T08:36:06.834Z</time></trkpt><trkpt lat="41.8687017" lon="13.191975"><ele>564.0</ele><time>2026-04-02T08:36:08.832Z</time></trkpt><trkpt lat="41.86876" lon="13.1921067"><ele>566.4</ele><time>2026-04-02T08:36:10.833Z</time></trkpt><trkpt lat="41.868785" lon="13.1921867"><ele>568.8</ele><time>2026-04-02T08:36:11.833Z</time></trkpt><trkpt lat="41.8688167" lon="13.1923333"><ele>571.2</ele><time>2026-04-02T08:36:13.834Z</time></trkpt><trkpt lat="41.8688383" lon="13.1924433"><ele>573.6</ele><time>2026-04-02T08:36:15.834Z</time></trkpt><trkpt lat="41.868855" lon="13.1925667"><ele>576.0</ele><time>2026-04-02T08:37:41.83Z</time></trkpt><trkpt lat="41.868955" lon="13.1925817"><ele>576.0</ele><time>2026-04-02T08:39:07.83Z</time></trkpt><trkpt lat="41.86889" lon="13.1926033"><ele>576.0</ele><time>2026-04-02T08:39:13.831Z</time></trkpt><trkpt lat="41.868945" lon="13.1926967"><ele>576.0</ele><time>2026-04-02T08:40:05.834Z</time></trkpt><trkpt lat="41.8688533" lon="13.1926233"><ele>576.0</ele><time>2026-04-02T08:40:29.83Z</time></trkpt><trkpt lat="41.8688733" lon="13.1927833"><ele>576.0</ele><time>2026-04-02T08:41:35.831Z</time></trkpt><trkpt lat="41.8688333" lon="13.192925"><ele>576.0</ele><time>2026-04-02T08:41:47.831Z</time></trkpt><trkpt lat="41.8687867" lon="13.1929833"><ele>576.0</ele><time>2026-04-02T08:41:53.83Z</time></trkpt><trkpt lat="41.868767" lon="13.1930985"><ele>576.0</ele><time>2026-04-02T08:42:07.833Z</time></trkpt><trkpt lat="41.8687274" lon="13.1931826"><ele>576.0</ele><time>2026-04-02T08:42:11.832Z</time></trkpt><trkpt lat="41.8686439" lon="13.1932571"><ele>576.0</ele><time>2026-04-02T08:42:30.831Z</time></trkpt><trkpt lat="41.8685752" lon="13.1931882"><ele>576.0</ele><time>2026-04-02T08:42:52.833Z</time></trkpt><trkpt lat="41.8684713" lon="13.1930893"><ele>573.3333333333334</ele><time>2026-04-02T08:43:29.833Z</time></trkpt><trkpt lat="41.8683548" lon="13.1930904"><ele>570.6666666666666</ele><time>2026-04-02T08:43:49.83Z</time></trkpt><trkpt lat="41.8682759" lon="13.193092"><ele>568.0</ele><time>2026-04-02T08:43:53.828Z</time></trkpt><trkpt lat="41.8682117" lon="13.1930904"><ele>565.3333333333333</ele><time>2026-04-02T08:44:38.833Z</time></trkpt><trkpt lat="41.8681248" lon="13.1930867"><ele>562.6666666666666</ele><time>2026-04-02T08:44:46.832Z</time></trkpt><trkpt lat="41.8680463" lon="13.1930943"><ele>560.0</ele><time>2026-04-02T08:44:49.834Z</time></trkpt><trkpt lat="41.8679815" lon="13.1931102"><ele>560.0</ele><time>2026-04-02T08:44:54.83Z</time></trkpt><trkpt lat="41.8678919" lon="13.1931253"><ele>560.0</ele><time>2026-04-02T08:45:09.831Z</time></trkpt><trkpt lat="41.8678055" lon="13.1931531"><ele>560.0</ele><time>2026-04-02T08:45:20.831Z</time></trkpt><trkpt lat="41.8677222" lon="13.1931365"><ele>560.0</ele><time>2026-04-02T08:45:36.83Z</time></trkpt><trkpt lat="41.8676737" lon="13.193037"><ele>560.0</ele><time>2026-04-02T08:45:44.832Z</time></trkpt><trkpt lat="41.8675994" lon="13.1930144"><ele>560.0</ele><time>2026-04-02T08:45:48.831Z</time></trkpt><trkpt lat="41.8675331" lon="13.1930327"><ele>561.5</ele><time>2026-04-02T08:45:59.832Z</time></trkpt><trkpt lat="41.8674515" lon="13.1930405"><ele>563.0</ele><time>2026-04-02T08:46:08.833Z</time></trkpt><trkpt lat="41.8673872" lon="13.1930603"><ele>564.5</ele><time>2026-04-02T08:46:12.832Z</time></trkpt><trkpt lat="41.8672839" lon="13.1931148"><ele>566.0</ele><time>2026-04-02T08:46:39.828Z</time></trkpt><trkpt lat="41.8672183" lon="13.1931248"><ele>567.5</ele><time>2026-04-02T08:46:42.83Z</time></trkpt><trkpt lat="41.8671496" lon="13.1931077"><ele>569.0</ele><time>2026-04-02T08:46:48.828Z</time></trkpt><trkpt lat="41.8670744" lon="13.1930731"><ele>569.0</ele><time>2026-04-02T08:46:51.829Z</time></trkpt><trkpt lat="41.8670097" lon="13.193045"><ele>569.0</ele><time>2026-04-02T08:47:00.829Z</time></trkpt><trkpt lat="41.8669476" lon="13.1931087"><ele>569.0</ele><time>2026-04-02T08:47:13.829Z</time></trkpt><trkpt lat="41.8668447" lon="13.1931153"><ele>569.0</ele><time>2026-04-02T08:47:23.829Z</time></trkpt><trkpt lat="41.86678" lon="13.1931031"><ele>569.0</ele><time>2026-04-02T08:47:27.828Z</time></trkpt><trkpt lat="41.8667171" lon="13.193153"><ele>569.0</ele><time>2026-04-02T08:47:33.829Z</time></trkpt><trkpt lat="41.8666426" lon="13.1931782"><ele>568.8333333333333</ele><time>2026-04-02T08:47:47.829Z</time></trkpt><trkpt lat="41.8665756" lon="13.1932497"><ele>568.6666666666666</ele><time>2026-04-02T08:48:04.829Z</time></trkpt><trkpt lat="41.866518" lon="13.1933083"><ele>568.5</ele><time>2026-04-02T08:48:11.829Z</time></trkpt><trkpt lat="41.8664278" lon="13.19322"><ele>568.3333333333334</ele><time>2026-04-02T08:48:46.829Z</time></trkpt><trkpt lat="41.8663717" lon="13.1932635"><ele>568.1666666666667</ele><time>2026-04-02T08:50:57.833Z</time></trkpt><trkpt lat="41.8664582" lon="13.1933175"><ele>568.0</ele><time>2026-04-02T08:52:10.83Z</time></trkpt><trkpt lat="41.8665254" lon="13.1933094"><ele>568.0</ele><time>2026-04-02T08:52:28.83Z</time></trkpt><trkpt lat="41.8666218" lon="13.1932327"><ele>568.0</ele><time>2026-04-02T08:55:45.83Z</time></trkpt><trkpt lat="41.8667408" lon="13.1931978"><ele>568.0</ele><time>2026-04-02T08:55:58.83Z</time></trkpt><trkpt lat="41.8668513" lon="13.1931556"><ele>568.0</ele><time>2026-04-02T08:56:09.831Z</time></trkpt><trkpt lat="41.8669651" lon="13.1931266"><ele>568.1666666666667</ele><time>2026-04-02T08:56:24.832Z</time></trkpt><trkpt lat="41.8670217" lon="13.1930812"><ele>568.3333333333334</ele><time>2026-04-02T08:56:28.83Z</time></trkpt><trkpt lat="41.8671162" lon="13.1930717"><ele>568.5</ele><time>2026-04-02T08:56:40.83Z</time></trkpt><trkpt lat="41.8672011" lon="13.1930849"><ele>568.6666666666666</ele><time>2026-04-02T08:56:47.829Z</time></trkpt><trkpt lat="41.8672634" lon="13.1931155"><ele>568.8333333333333</ele><time>2026-04-02T08:56:55.828Z</time></trkpt><trkpt lat="41.8673393" lon="13.1931001"><ele>569.0</ele><time>2026-04-02T08:57:05.832Z</time></trkpt><trkpt lat="41.8674172" lon="13.1930431"><ele>569.0</ele><time>2026-04-02T08:57:12.83Z</time></trkpt><trkpt lat="41.8674785" lon="13.193015"><ele>569.0</ele><time>2026-04-02T08:57:16.83Z</time></trkpt><trkpt lat="41.8675515" lon="13.1930317"><ele>569.0</ele><time>2026-04-02T08:57:36.829Z</time></trkpt><trkpt lat="41.8676513" lon="13.1930584"><ele>569.0</ele><time>2026-04-02T08:57:43.831Z</time></trkpt><trkpt lat="41.8677868" lon="13.1931457"><ele>569.0</ele><time>2026-04-02T08:57:59.829Z</time></trkpt><trkpt lat="41.8678566" lon="13.1931273"><ele>567.5</ele><time>2026-04-02T08:59:50.83Z</time></trkpt><trkpt lat="41.867945" lon="13.1931446"><ele>566.0</ele><time>2026-04-02T09:00:29.83Z</time></trkpt><trkpt lat="41.8680657" lon="13.1931357"><ele>564.5</ele><time>2026-04-02T09:00:45.83Z</time></trkpt><trkpt lat="41.8681449" lon="13.1931119"><ele>563.0</ele><time>2026-04-02T09:00:50.833Z</time></trkpt><trkpt lat="41.8682075" lon="13.1930889"><ele>561.5</ele><time>2026-04-02T09:00:52.828Z</time></trkpt><trkpt lat="41.8682747" lon="13.1930833"><ele>560.0</ele><time>2026-04-02T09:01:01.833Z</time></trkpt><trkpt lat="41.868346" lon="13.1931164"><ele>561.6666666666666</ele><time>2026-04-02T09:01:07.831Z</time></trkpt><trkpt lat="41.8684511" lon="13.1930861"><ele>563.3333333333333</ele><time>2026-04-02T09:01:21.833Z</time></trkpt><trkpt lat="41.86852" lon="13.1931458"><ele>565.0</ele><time>2026-04-02T09:01:33.833Z</time></trkpt><trkpt lat="41.8685734" lon="13.1932242"><ele>566.6666666666666</ele><time>2026-04-02T09:01:44.835Z</time></trkpt><trkpt lat="41.8686611" lon="13.1932627"><ele>568.3333333333334</ele><time>2026-04-02T09:02:16.83Z</time></trkpt><trkpt lat="41.8687235" lon="13.1932222"><ele>570.0</ele><time>2026-04-02T09:02:20.831Z</time></trkpt><trkpt lat="41.8687463" lon="13.1931279"><ele>571.0</ele><time>2026-04-02T09:02:25.833Z</time></trkpt><trkpt lat="41.8687969" lon="13.1930515"><ele>572.0</ele><time>2026-04-02T09:02:29.829Z</time></trkpt><trkpt lat="41.8688161" lon="13.1929697"><ele>573.0</ele><time>2026-04-02T09:02:33.831Z</time></trkpt><trkpt lat="41.8688149" lon="13.1928731"><ele>574.0</ele><time>2026-04-02T09:02:50.833Z</time></trkpt><trkpt lat="41.8688667" lon="13.1927487"><ele>575.0</ele><time>2026-04-02T09:03:25.833Z</time></trkpt><trkpt lat="41.8688681" lon="13.1926309"><ele>576.0</ele><time>2026-04-02T09:04:12.834Z</time></trkpt><trkpt lat="41.8688742" lon="13.1925415"><ele>576.0</ele><time>2026-04-02T09:05:22.831Z</time></trkpt><trkpt lat="41.8689398" lon="13.1925393"><ele>576.0</ele><time>2026-04-02T09:05:25.832Z</time></trkpt><trkpt lat="41.8689537" lon="13.1926306"><ele>576.0</ele><time>2026-04-02T09:05:42.83Z</time></trkpt><trkpt lat="41.868975" lon="13.1928483"><ele>576.0</ele><time>2026-04-02T09:07:21.832Z</time></trkpt><trkpt lat="41.86902" lon="13.192945"><ele>576.0</ele><time>2026-04-02T09:07:23.83Z</time></trkpt><trkpt lat="41.86908" lon="13.1930867"><ele>574.8</ele><time>2026-04-02T09:07:25.834Z</time></trkpt><trkpt lat="41.869105" lon="13.193195"><ele>573.6</ele><time>2026-04-02T09:07:26.833Z</time></trkpt><trkpt lat="41.8691333" lon="13.1933167"><ele>572.4</ele><time>2026-04-02T09:07:27.834Z</time></trkpt><trkpt lat="41.8691617" lon="13.1934517"><ele>571.2</ele><time>2026-04-02T09:07:28.832Z</time></trkpt><trkpt lat="41.8691833" lon="13.1935933"><ele>570.0</ele><time>2026-04-02T09:07:29.834Z</time></trkpt><trkpt lat="41.8691867" lon="13.19374"><ele>570.0</ele><time>2026-04-02T09:07:30.834Z</time></trkpt><trkpt lat="41.86917" lon="13.1939"><ele>570.0</ele><time>2026-04-02T09:07:31.834Z</time></trkpt><trkpt lat="41.8691383" lon="13.1940583"><ele>570.0</ele><time>2026-04-02T09:07:32.834Z</time></trkpt><trkpt lat="41.8691067" lon="13.1942033"><ele>570.0</ele><time>2026-04-02T09:07:33.834Z</time></trkpt><trkpt lat="41.869075" lon="13.1943267"><ele>569.8</ele><time>2026-04-02T09:07:34.83Z</time></trkpt><trkpt lat="41.86903" lon="13.1944633"><ele>569.6</ele><time>2026-04-02T09:07:35.834Z</time></trkpt><trkpt lat="41.8689733" lon="13.1945833"><ele>569.4</ele><time>2026-04-02T09:07:36.831Z</time></trkpt><trkpt lat="41.868925" lon="13.1947117"><ele>569.2</ele><time>2026-04-02T09:07:37.832Z</time></trkpt><trkpt lat="41.868895" lon="13.1948483"><ele>569.0</ele><time>2026-04-02T09:07:38.832Z</time></trkpt><trkpt lat="41.86888" lon="13.1949817"><ele>570.4</ele><time>2026-04-02T09:07:39.83Z</time></trkpt><trkpt lat="41.8689" lon="13.195105"><ele>571.8</ele><time>2026-04-02T09:07:40.834Z</time></trkpt><trkpt lat="41.8689583" lon="13.1952117"><ele>573.2</ele><time>2026-04-02T09:07:41.833Z</time></trkpt><trkpt lat="41.8690383" lon="13.195295"><ele>574.6</ele><time>2026-04-02T09:07:42.833Z</time></trkpt><trkpt lat="41.869145" lon="13.19535"><ele>576.0</ele><time>2026-04-02T09:07:43.831Z</time></trkpt><trkpt lat="41.8692617" lon="13.1954017"><ele>579.25</ele><time>2026-04-02T09:07:44.831Z</time></trkpt><trkpt lat="41.869385" lon="13.1954567"><ele>582.5</ele><time>2026-04-02T09:07:45.831Z</time></trkpt><trkpt lat="41.86951" lon="13.1955167"><ele>585.75</ele><time>2026-04-02T09:07:46.831Z</time></trkpt><trkpt lat="41.8696283" lon="13.1955933"><ele>589.0</ele><time>2026-04-02T09:07:47.833Z</time></trkpt><trkpt lat="41.8697467" lon="13.1956783"><ele>589.0</ele><time>2026-04-02T09:07:48.832Z</time></trkpt><trkpt lat="41.8698567" lon="13.1957733"><ele>589.0</ele><time>2026-04-02T09:07:49.832Z</time></trkpt><trkpt lat="41.8699517" lon="13.1958833"><ele>589.0</ele><time>2026-04-02T09:07:50.832Z</time></trkpt><trkpt lat="41.870025" lon="13.196"><ele>589.0</ele><time>2026-04-02T09:07:51.83Z</time></trkpt><trkpt lat="41.870075" lon="13.19612"><ele>589.0</ele><time>2026-04-02T09:07:52.832Z</time></trkpt><trkpt lat="41.8701017" lon="13.1962467"><ele>589.0</ele><time>2026-04-02T09:07:53.831Z</time></trkpt><trkpt lat="41.8701133" lon="13.196375"><ele>589.0</ele><time>2026-04-02T09:07:54.832Z</time></trkpt><trkpt lat="41.8701067" lon="13.19651"><ele>589.0</ele><time>2026-04-02T09:07:55.831Z</time></trkpt><trkpt lat="41.870095" lon="13.1966483"><ele>589.0</ele><time>2026-04-02T09:07:56.832Z</time></trkpt><trkpt lat="41.870055" lon="13.1967983"><ele>589.25</ele><time>2026-04-02T09:07:57.831Z</time></trkpt><trkpt lat="41.8700033" lon="13.196955"><ele>589.5</ele><time>2026-04-02T09:07:58.832Z</time></trkpt><trkpt lat="41.8699483" lon="13.197105"><ele>589.75</ele><time>2026-04-02T09:07:59.833Z</time></trkpt><trkpt lat="41.869895" lon="13.1972517"><ele>590.0</ele><time>2026-04-02T09:08:00.831Z</time></trkpt><trkpt lat="41.8698633" lon="13.1974"><ele>590.0</ele><time>2026-04-02T09:08:01.833Z</time></trkpt><trkpt lat="41.86986" lon="13.1975333"><ele>590.0</ele><time>2026-04-02T09:08:02.833Z</time></trkpt><trkpt lat="41.86989" lon="13.1976467"><ele>590.0</ele><time>2026-04-02T09:08:03.834Z</time></trkpt><trkpt lat="41.8699183" lon="13.1977633"><ele>590.0</ele><time>2026-04-02T09:08:04.833Z</time></trkpt><trkpt lat="41.8699817" lon="13.1978417"><ele>590.0</ele><time>2026-04-02T09:08:05.834Z</time></trkpt><trkpt lat="41.8700483" lon="13.1979283"><ele>597.5</ele><time>2026-04-02T09:08:06.833Z</time></trkpt><trkpt lat="41.870125" lon="13.1980183"><ele>605.0</ele><time>2026-04-02T09:08:07.834Z</time></trkpt><trkpt lat="41.8702033" lon="13.198145"><ele>612.5</ele><time>2026-04-02T09:08:08.834Z</time></trkpt><trkpt lat="41.8702717" lon="13.1982917"><ele>620.0</ele><time>2026-04-02T09:08:09.833Z</time></trkpt><trkpt lat="41.8703183" lon="13.1984533"><ele>620.0</ele><time>2026-04-02T09:08:10.832Z</time></trkpt><trkpt lat="41.870355" lon="13.1986217"><ele>620.0</ele><time>2026-04-02T09:08:11.834Z</time></trkpt><trkpt lat="41.8703833" lon="13.1987833"><ele>620.0</ele><time>2026-04-02T09:08:12.833Z</time></trkpt><trkpt lat="41.8704133" lon="13.19893"><ele>620.0</ele><time>2026-04-02T09:08:13.834Z</time></trkpt><trkpt lat="41.8704633" lon="13.19906"><ele>615.6</ele><time>2026-04-02T09:08:14.832Z</time></trkpt><trkpt lat="41.8705167" lon="13.199175"><ele>611.2</ele><time>2026-04-02T09:08:15.831Z</time></trkpt><trkpt lat="41.8705483" lon="13.1992783"><ele>606.8</ele><time>2026-04-02T09:08:16.832Z</time></trkpt><trkpt lat="41.87059" lon="13.1993717"><ele>602.4</ele><time>2026-04-02T09:08:17.832Z</time></trkpt><trkpt lat="41.8706233" lon="13.1994917"><ele>598.0</ele><time>2026-04-02T09:08:18.831Z</time></trkpt><trkpt lat="41.87064" lon="13.1996383"><ele>598.0</ele><time>2026-04-02T09:08:19.833Z</time></trkpt><trkpt lat="41.870655" lon="13.1997783"><ele>598.0</ele><time>2026-04-02T09:08:20.833Z</time></trkpt><trkpt lat="41.8706683" lon="13.1999067"><ele>598.0</ele><time>2026-04-02T09:08:21.832Z</time></trkpt><trkpt lat="41.8706833" lon="13.2000267"><ele>598.0</ele><time>2026-04-02T09:08:22.833Z</time></trkpt><trkpt lat="41.8707283" lon="13.2001333"><ele>598.0</ele><time>2026-04-02T09:08:23.833Z</time></trkpt><trkpt lat="41.8708067" lon="13.2002133"><ele>593.75</ele><time>2026-04-02T09:08:24.833Z</time></trkpt><trkpt lat="41.87091" lon="13.2002767"><ele>589.5</ele><time>2026-04-02T09:08:25.831Z</time></trkpt><trkpt lat="41.8710233" lon="13.200355"><ele>585.25</ele><time>2026-04-02T09:08:26.832Z</time></trkpt><trkpt lat="41.8711567" lon="13.20042"><ele>581.0</ele><time>2026-04-02T09:08:27.832Z</time></trkpt><trkpt lat="41.8712733" lon="13.2004967"><ele>582.5</ele><time>2026-04-02T09:08:28.83Z</time></trkpt><trkpt lat="41.8713767" lon="13.2005783"><ele>584.0</ele><time>2026-04-02T09:08:29.833Z</time></trkpt><trkpt lat="41.87147" lon="13.20069"><ele>585.5</ele><time>2026-04-02T09:08:30.833Z</time></trkpt><trkpt lat="41.8715683" lon="13.2008217"><ele>587.0</ele><time>2026-04-02T09:08:31.831Z</time></trkpt><trkpt lat="41.8716583" lon="13.2009717"><ele>587.0</ele><time>2026-04-02T09:08:32.832Z</time></trkpt><trkpt lat="41.871745" lon="13.2011283"><ele>587.0</ele><time>2026-04-02T09:08:33.831Z</time></trkpt><trkpt lat="41.8718283" lon="13.201275"><ele>587.0</ele><time>2026-04-02T09:08:34.831Z</time></trkpt><trkpt lat="41.8719067" lon="13.2014183"><ele>587.0</ele><time>2026-04-02T09:08:35.831Z</time></trkpt><trkpt lat="41.8719767" lon="13.2015533"><ele>591.75</ele><time>2026-04-02T09:08:36.833Z</time></trkpt><trkpt lat="41.8720617" lon="13.20168"><ele>596.5</ele><time>2026-04-02T09:08:37.83Z</time></trkpt><trkpt lat="41.8721483" lon="13.2018133"><ele>601.25</ele><time>2026-04-02T09:08:38.834Z</time></trkpt><trkpt lat="41.8722217" lon="13.2019633"><ele>606.0</ele><time>2026-04-02T09:08:39.834Z</time></trkpt><trkpt lat="41.8722783" lon="13.202105"><ele>606.0</ele><time>2026-04-02T09:08:40.832Z</time></trkpt><trkpt lat="41.8723467" lon="13.2022383"><ele>606.0</ele><time>2026-04-02T09:08:41.834Z</time></trkpt><trkpt lat="41.8724417" lon="13.20235"><ele>606.0</ele><time>2026-04-02T09:08:42.833Z</time></trkpt><trkpt lat="41.8725417" lon="13.20245"><ele>606.0</ele><time>2026-04-02T09:08:43.833Z</time></trkpt><trkpt lat="41.87265" lon="13.2025633"><ele>608.5</ele><time>2026-04-02T09:08:44.834Z</time></trkpt><trkpt lat="41.8727583" lon="13.2027067"><ele>611.0</ele><time>2026-04-02T09:08:45.831Z</time></trkpt><trkpt lat="41.8728483" lon="13.2028433"><ele>613.5</ele><time>2026-04-02T09:08:46.83Z</time></trkpt><trkpt lat="41.8729183" lon="13.202995"><ele>616.0</ele><time>2026-04-02T09:08:47.831Z</time></trkpt><trkpt lat="41.87296" lon="13.203155"><ele>611.8</ele><time>2026-04-02T09:08:48.832Z</time></trkpt><trkpt lat="41.87299" lon="13.2033"><ele>607.6</ele><time>2026-04-02T09:08:49.829Z</time></trkpt><trkpt lat="41.8730067" lon="13.2034417"><ele>603.4</ele><time>2026-04-02T09:08:50.831Z</time></trkpt><trkpt lat="41.873025" lon="13.2035717"><ele>599.2</ele><time>2026-04-02T09:08:51.834Z</time></trkpt><trkpt lat="41.87302" lon="13.2037"><ele>595.0</ele><time>2026-04-02T09:08:52.834Z</time></trkpt><trkpt lat="41.8730283" lon="13.2038233"><ele>595.0</ele><time>2026-04-02T09:08:53.83Z</time></trkpt><trkpt lat="41.8730617" lon="13.20392"><ele>595.0</ele><time>2026-04-02T09:08:54.834Z</time></trkpt><trkpt lat="41.8731" lon="13.2040067"><ele>595.0</ele><time>2026-04-02T09:08:55.831Z</time></trkpt><trkpt lat="41.873175" lon="13.2040633"><ele>595.0</ele><time>2026-04-02T09:08:56.833Z</time></trkpt><trkpt lat="41.8732417" lon="13.20414"><ele>595.0</ele><time>2026-04-02T09:08:57.832Z</time></trkpt><trkpt lat="41.87333" lon="13.20418"><ele>595.0</ele><time>2026-04-02T09:08:58.832Z</time></trkpt><trkpt lat="41.87341" lon="13.2042233"><ele>598.8</ele><time>2026-04-02T09:08:59.832Z</time></trkpt><trkpt lat="41.873515" lon="13.20425"><ele>602.6</ele><time>2026-04-02T09:09:00.83Z</time></trkpt><trkpt lat="41.8735717" lon="13.20429"><ele>606.4</ele><time>2026-04-02T09:09:01.83Z</time></trkpt><trkpt lat="41.8736583" lon="13.20436"><ele>610.2</ele><time>2026-04-02T09:09:02.83Z</time></trkpt><trkpt lat="41.8737133" lon="13.20445"><ele>614.0</ele><time>2026-04-02T09:09:03.831Z</time></trkpt><trkpt lat="41.8737717" lon="13.20456"><ele>614.0</ele><time>2026-04-02T09:09:04.833Z</time></trkpt><trkpt lat="41.8738017" lon="13.2046717"><ele>614.0</ele><time>2026-04-02T09:09:05.832Z</time></trkpt><trkpt lat="41.8738367" lon="13.20477"><ele>614.0</ele><time>2026-04-02T09:09:06.834Z</time></trkpt><trkpt lat="41.8738333" lon="13.2049283"><ele>614.0</ele><time>2026-04-02T09:09:07.832Z</time></trkpt><trkpt lat="41.873795" lon="13.205095"><ele>614.0</ele><time>2026-04-02T09:09:08.835Z</time></trkpt><trkpt lat="41.873765" lon="13.2052183"><ele>611.0</ele><time>2026-04-02T09:09:09.834Z</time></trkpt><trkpt lat="41.8737183" lon="13.2053333"><ele>608.0</ele><time>2026-04-02T09:09:10.83Z</time></trkpt><trkpt lat="41.8737017" lon="13.20543"><ele>605.0</ele><time>2026-04-02T09:09:11.831Z</time></trkpt><trkpt lat="41.8737067" lon="13.2055267"><ele>602.0</ele><time>2026-04-02T09:09:12.831Z</time></trkpt><trkpt lat="41.87374" lon="13.2056333"><ele>599.0</ele><time>2026-04-02T09:09:15.832Z</time></trkpt><trkpt lat="41.873855" lon="13.205685"><ele>601.0</ele><time>2026-04-02T09:09:16.832Z</time></trkpt><trkpt lat="41.8740167" lon="13.20574"><ele>603.0</ele><time>2026-04-02T09:09:17.831Z</time></trkpt><trkpt lat="41.8741117" lon="13.2057817"><ele>605.0</ele><time>2026-04-02T09:09:18.831Z</time></trkpt><trkpt lat="41.8742133" lon="13.2057667"><ele>607.0</ele><time>2026-04-02T09:09:19.83Z</time></trkpt><trkpt lat="41.8743283" lon="13.2057933"><ele>607.0</ele><time>2026-04-02T09:09:20.833Z</time></trkpt><trkpt lat="41.8744433" lon="13.205805"><ele>607.0</ele><time>2026-04-02T09:09:21.833Z</time></trkpt><trkpt lat="41.8745567" lon="13.2058633"><ele>607.0</ele><time>2026-04-02T09:09:22.83Z</time></trkpt><trkpt lat="41.8746583" lon="13.2059167"><ele>607.0</ele><time>2026-04-02T09:09:23.834Z</time></trkpt><trkpt lat="41.8747583" lon="13.2059767"><ele>607.0</ele><time>2026-04-02T09:09:24.83Z</time></trkpt><trkpt lat="41.874855" lon="13.2060383"><ele>607.0</ele><time>2026-04-02T09:09:25.833Z</time></trkpt><trkpt lat="41.8749417" lon="13.2061183"><ele>607.0</ele><time>2026-04-02T09:09:26.829Z</time></trkpt><trkpt lat="41.8750267" lon="13.20621"><ele>607.0</ele><time>2026-04-02T09:09:27.83Z</time></trkpt><trkpt lat="41.8751033" lon="13.2063033"><ele>607.0</ele><time>2026-04-02T09:09:28.831Z</time></trkpt><trkpt lat="41.8751683" lon="13.2063933"><ele>609.8571428571428</ele><time>2026-04-02T09:09:29.831Z</time></trkpt><trkpt lat="41.8752183" lon="13.2064767"><ele>612.7142857142857</ele><time>2026-04-02T09:09:30.832Z</time></trkpt><trkpt lat="41.8752567" lon="13.20656"><ele>615.5714285714286</ele><time>2026-04-02T09:09:31.834Z</time></trkpt><trkpt lat="41.8752917" lon="13.2066367"><ele>618.4285714285713</ele><time>2026-04-02T09:09:32.833Z</time></trkpt><trkpt lat="41.8753367" lon="13.2067433"><ele>621.2857142857142</ele><time>2026-04-02T09:09:34.834Z</time></trkpt><trkpt lat="41.875365" lon="13.206825"><ele>624.1428571428571</ele><time>2026-04-02T09:09:37.834Z</time></trkpt><trkpt lat="41.87538" lon="13.2069133"><ele>627.0</ele><time>2026-04-02T09:09:40.832Z</time></trkpt><trkpt lat="41.8754417" lon="13.2068383"><ele>627.0</ele><time>2026-04-02T09:09:45.834Z</time></trkpt><trkpt lat="41.8754133" lon="13.20674"><ele>627.0</ele><time>2026-04-02T09:09:46.833Z</time></trkpt><trkpt lat="41.8753783" lon="13.20661"><ele>627.0</ele><time>2026-04-02T09:09:47.832Z</time></trkpt><trkpt lat="41.8753483" lon="13.206475"><ele>627.0</ele><time>2026-04-02T09:09:48.832Z</time></trkpt><trkpt lat="41.8753033" lon="13.206295"><ele>627.0</ele><time>2026-04-02T09:09:49.831Z</time></trkpt><trkpt lat="41.875245" lon="13.2061083"><ele>628.3333333333334</ele><time>2026-04-02T09:09:50.832Z</time></trkpt><trkpt lat="41.8751517" lon="13.205945"><ele>629.6666666666667</ele><time>2026-04-02T09:09:51.831Z</time></trkpt><trkpt lat="41.8750417" lon="13.2057783"><ele>631.0</ele><time>2026-04-02T09:09:52.832Z</time></trkpt><trkpt lat="41.87492" lon="13.2056183"><ele>631.0</ele><time>2026-04-02T09:09:53.829Z</time></trkpt><trkpt lat="41.8747783" lon="13.20549"><ele>631.0</ele><time>2026-04-02T09:09:54.835Z</time></trkpt><trkpt lat="41.87464" lon="13.205375"><ele>631.0</ele><time>2026-04-02T09:09:55.832Z</time></trkpt><trkpt lat="41.8744983" lon="13.20526"><ele>631.0</ele><time>2026-04-02T09:09:56.833Z</time></trkpt><trkpt lat="41.8743817" lon="13.2051367"><ele>631.0</ele><time>2026-04-02T09:09:57.834Z</time></trkpt><trkpt lat="41.87429" lon="13.2049967"><ele>631.0</ele><time>2026-04-02T09:09:58.834Z</time></trkpt><trkpt lat="41.8742233" lon="13.204815"><ele>631.0</ele><time>2026-04-02T09:09:59.834Z</time></trkpt><trkpt lat="41.87416" lon="13.2045983"><ele>633.6666666666667</ele><time>2026-04-02T09:10:00.831Z</time></trkpt><trkpt lat="41.8741" lon="13.2043633"><ele>636.3333333333334</ele><time>2026-04-02T09:10:01.833Z</time></trkpt><trkpt lat="41.8740467" lon="13.2041133"><ele>639.0</ele><time>2026-04-02T09:10:02.833Z</time></trkpt><trkpt lat="41.8739917" lon="13.2038717"><ele>639.0</ele><time>2026-04-02T09:10:03.834Z</time></trkpt><trkpt lat="41.8739317" lon="13.203645"><ele>639.0</ele><time>2026-04-02T09:10:04.834Z</time></trkpt><trkpt lat="41.8738717" lon="13.2034217"><ele>639.0</ele><time>2026-04-02T09:10:05.833Z</time></trkpt><trkpt lat="41.8738083" lon="13.2032167"><ele>644.75</ele><time>2026-04-02T09:10:06.833Z</time></trkpt><trkpt lat="41.873745" lon="13.20303"><ele>650.5</ele><time>2026-04-02T09:10:07.832Z</time></trkpt><trkpt lat="41.8736833" lon="13.2028517"><ele>656.25</ele><time>2026-04-02T09:10:08.833Z</time></trkpt><trkpt lat="41.873615" lon="13.20268"><ele>662.0</ele><time>2026-04-02T09:10:09.833Z</time></trkpt><trkpt lat="41.873535" lon="13.2025167"><ele>662.0</ele><time>2026-04-02T09:10:10.833Z</time></trkpt><trkpt lat="41.8734433" lon="13.2023483"><ele>662.0</ele><time>2026-04-02T09:10:11.834Z</time></trkpt><trkpt lat="41.87333" lon="13.202165"><ele>662.0</ele><time>2026-04-02T09:10:12.834Z</time></trkpt><trkpt lat="41.8732" lon="13.2019717"><ele>658.6666666666666</ele><time>2026-04-02T09:10:13.833Z</time></trkpt><trkpt lat="41.8730767" lon="13.20178"><ele>655.3333333333334</ele><time>2026-04-02T09:10:14.833Z</time></trkpt><trkpt lat="41.8729783" lon="13.2016167"><ele>652.0</ele><time>2026-04-02T09:10:15.833Z</time></trkpt><trkpt lat="41.87291" lon="13.2014683"><ele>658.0</ele><time>2026-04-02T09:10:16.833Z</time></trkpt><trkpt lat="41.872865" lon="13.2013133"><ele>664.0</ele><time>2026-04-02T09:10:17.829Z</time></trkpt><trkpt lat="41.8728217" lon="13.2011567"><ele>670.0</ele><time>2026-04-02T09:10:18.832Z</time></trkpt><trkpt lat="41.872765" lon="13.2010183"><ele>676.0</ele><time>2026-04-02T09:10:19.831Z</time></trkpt><trkpt lat="41.87269" lon="13.2009083"><ele>673.0</ele><time>2026-04-02T09:10:20.832Z</time></trkpt><trkpt lat="41.8726" lon="13.20083"><ele>670.0</ele><time>2026-04-02T09:10:21.833Z</time></trkpt><trkpt lat="41.8725117" lon="13.20075"><ele>667.0</ele><time>2026-04-02T09:10:22.83Z</time></trkpt><trkpt lat="41.8724267" lon="13.20064"><ele>664.0</ele><time>2026-04-02T09:10:23.832Z</time></trkpt><trkpt lat="41.87234" lon="13.2004967"><ele>664.0</ele><time>2026-04-02T09:10:24.833Z</time></trkpt><trkpt lat="41.872245" lon="13.200315"><ele>664.0</ele><time>2026-04-02T09:10:25.834Z</time></trkpt><trkpt lat="41.87213" lon="13.2001133"><ele>664.0</ele><time>2026-04-02T09:10:26.833Z</time></trkpt><trkpt lat="41.8720117" lon="13.199925"><ele>659.6666666666667</ele><time>2026-04-02T09:10:27.832Z</time></trkpt><trkpt lat="41.8718917" lon="13.1997517"><ele>655.3333333333334</ele><time>2026-04-02T09:10:28.832Z</time></trkpt><trkpt lat="41.8717833" lon="13.1996167"><ele>651.0</ele><time>2026-04-02T09:10:29.833Z</time></trkpt><trkpt lat="41.871675" lon="13.1994883"><ele>651.0</ele><time>2026-04-02T09:10:30.834Z</time></trkpt><trkpt lat="41.871575" lon="13.1993567"><ele>651.0</ele><time>2026-04-02T09:10:31.833Z</time></trkpt><trkpt lat="41.8714917" lon="13.19921"><ele>651.0</ele><time>2026-04-02T09:10:32.833Z</time></trkpt><trkpt lat="41.87142" lon="13.1990367"><ele>651.0</ele><time>2026-04-02T09:10:33.833Z</time></trkpt><trkpt lat="41.871345" lon="13.1988517"><ele>659.0</ele><time>2026-04-02T09:10:34.833Z</time></trkpt><trkpt lat="41.87126" lon="13.1986583"><ele>667.0</ele><time>2026-04-02T09:10:35.834Z</time></trkpt><trkpt lat="41.871175" lon="13.1984683"><ele>675.0</ele><time>2026-04-02T09:10:36.834Z</time></trkpt><trkpt lat="41.8710883" lon="13.198305"><ele>684.5</ele><time>2026-04-02T09:10:37.833Z</time></trkpt><trkpt lat="41.870775" lon="13.198155"><ele>694.0</ele><time>2026-04-02T09:10:39.262Z</time></trkpt><trkpt lat="41.8710117" lon="13.1979633"><ele>676.0</ele><time>2026-04-02T09:10:40.181Z</time></trkpt><trkpt lat="41.8709233" lon="13.1978233"><ele>658.0</ele><time>2026-04-02T09:10:41.33Z</time></trkpt><trkpt lat="41.8708617" lon="13.197555"><ele>640.0</ele><time>2026-04-02T09:10:42.832Z</time></trkpt><trkpt lat="41.8708517" lon="13.1973417"><ele>640.6666666666667</ele><time>2026-04-02T09:10:43.83Z</time></trkpt><trkpt lat="41.8708633" lon="13.1971017"><ele>641.3333333333334</ele><time>2026-04-02T09:10:44.831Z</time></trkpt><trkpt lat="41.8708883" lon="13.1968567"><ele>642.0</ele><time>2026-04-02T09:10:45.83Z</time></trkpt><trkpt lat="41.8709067" lon="13.1966167"><ele>644.0</ele><time>2026-04-02T09:10:46.83Z</time></trkpt><trkpt lat="41.8709133" lon="13.1963933"><ele>646.0</ele><time>2026-04-02T09:10:47.831Z</time></trkpt><trkpt lat="41.8709067" lon="13.1961733"><ele>648.0</ele><time>2026-04-02T09:10:48.831Z</time></trkpt><trkpt lat="41.870885" lon="13.1959417"><ele>648.0</ele><time>2026-04-02T09:10:49.832Z</time></trkpt><trkpt lat="41.8708383" lon="13.1957"><ele>648.0</ele><time>2026-04-02T09:10:50.83Z</time></trkpt><trkpt lat="41.87078" lon="13.19545"><ele>648.0</ele><time>2026-04-02T09:10:51.834Z</time></trkpt><trkpt lat="41.8707133" lon="13.1952117"><ele>653.6666666666666</ele><time>2026-04-02T09:10:52.832Z</time></trkpt><trkpt lat="41.8706517" lon="13.1949933"><ele>659.3333333333333</ele><time>2026-04-02T09:10:53.831Z</time></trkpt><trkpt lat="41.8706017" lon="13.19479"><ele>665.0</ele><time>2026-04-02T09:10:54.832Z</time></trkpt><trkpt lat="41.8705717" lon="13.194585"><ele>664.3333333333333</ele><time>2026-04-02T09:10:55.831Z</time></trkpt><trkpt lat="41.8705583" lon="13.19438"><ele>663.6666666666666</ele><time>2026-04-02T09:10:56.831Z</time></trkpt><trkpt lat="41.8705617" lon="13.1941617"><ele>663.0</ele><time>2026-04-02T09:10:57.832Z</time></trkpt><trkpt lat="41.8705767" lon="13.1939333"><ele>663.0</ele><time>2026-04-02T09:10:58.831Z</time></trkpt><trkpt lat="41.8705967" lon="13.1937033"><ele>663.0</ele><time>2026-04-02T09:10:59.831Z</time></trkpt><trkpt lat="41.8706233" lon="13.193485"><ele>663.0</ele><time>2026-04-02T09:11:00.835Z</time></trkpt><trkpt lat="41.8706667" lon="13.193295"><ele>660.0</ele><time>2026-04-02T09:11:01.831Z</time></trkpt><trkpt lat="41.8707333" lon="13.1931283"><ele>657.0</ele><time>2026-04-02T09:11:02.831Z</time></trkpt><trkpt lat="41.87081" lon="13.1929633"><ele>654.0</ele><time>2026-04-02T09:11:03.831Z</time></trkpt><trkpt lat="41.8708917" lon="13.1927833"><ele>651.0</ele><time>2026-04-02T09:11:04.832Z</time></trkpt><trkpt lat="41.8709967" lon="13.1926033"><ele>657.6666666666666</ele><time>2026-04-02T09:11:05.83Z</time></trkpt><trkpt lat="41.8711233" lon="13.1924217"><ele>664.3333333333333</ele><time>2026-04-02T09:11:06.83Z</time></trkpt><trkpt lat="41.8712583" lon="13.1922233"><ele>671.0</ele><time>2026-04-02T09:11:07.832Z</time></trkpt><trkpt lat="41.8713983" lon="13.1920217"><ele>671.0</ele><time>2026-04-02T09:11:08.832Z</time></trkpt><trkpt lat="41.8715417" lon="13.191825"><ele>671.0</ele><time>2026-04-02T09:11:09.831Z</time></trkpt><trkpt lat="41.87168" lon="13.1916383"><ele>671.0</ele><time>2026-04-02T09:11:10.828Z</time></trkpt><trkpt lat="41.8718167" lon="13.1914617"><ele>678.3333333333333</ele><time>2026-04-02T09:11:11.83Z</time></trkpt><trkpt lat="41.871925" lon="13.191265"><ele>685.6666666666666</ele><time>2026-04-02T09:11:12.832Z</time></trkpt><trkpt lat="41.87203" lon="13.1910483"><ele>693.0</ele><time>2026-04-02T09:11:13.831Z</time></trkpt><trkpt lat="41.872145" lon="13.1908167"><ele>686.0</ele><time>2026-04-02T09:11:14.832Z</time></trkpt><trkpt lat="41.8722667" lon="13.190585"><ele>679.0</ele><time>2026-04-02T09:11:15.832Z</time></trkpt><trkpt lat="41.8723933" lon="13.1903583"><ele>672.0</ele><time>2026-04-02T09:11:16.83Z</time></trkpt><trkpt lat="41.872515" lon="13.190125"><ele>682.0</ele><time>2026-04-02T09:11:17.83Z</time></trkpt><trkpt lat="41.872615" lon="13.1899033"><ele>692.0</ele><time>2026-04-02T09:11:18.831Z</time></trkpt><trkpt lat="41.8727083" lon="13.1897017"><ele>702.0</ele><time>2026-04-02T09:11:19.831Z</time></trkpt><trkpt lat="41.8727883" lon="13.189525"><ele>702.0</ele><time>2026-04-02T09:11:20.83Z</time></trkpt><trkpt lat="41.8728733" lon="13.1893717"><ele>702.0</ele><time>2026-04-02T09:11:21.831Z</time></trkpt><trkpt lat="41.8729717" lon="13.18924"><ele>702.0</ele><time>2026-04-02T09:11:22.83Z</time></trkpt><trkpt lat="41.87308" lon="13.1891233"><ele>702.0</ele><time>2026-04-02T09:11:23.832Z</time></trkpt><trkpt lat="41.8732017" lon="13.189"><ele>695.3333333333334</ele><time>2026-04-02T09:11:24.831Z</time></trkpt><trkpt lat="41.8733333" lon="13.18887"><ele>688.6666666666667</ele><time>2026-04-02T09:11:25.832Z</time></trkpt><trkpt lat="41.8734617" lon="13.1887517"><ele>682.0</ele><time>2026-04-02T09:11:26.832Z</time></trkpt><trkpt lat="41.8735517" lon="13.1886083"><ele>692.75</ele><time>2026-04-02T09:11:27.83Z</time></trkpt><trkpt lat="41.8736267" lon="13.18846"><ele>703.5</ele><time>2026-04-02T09:11:28.83Z</time></trkpt><trkpt lat="41.8736817" lon="13.188305"><ele>714.25</ele><time>2026-04-02T09:11:29.832Z</time></trkpt><trkpt lat="41.873685" lon="13.1881317"><ele>725.0</ele><time>2026-04-02T09:11:30.831Z</time></trkpt><trkpt lat="41.8736583" lon="13.1879717"><ele>725.0</ele><time>2026-04-02T09:11:31.832Z</time></trkpt><trkpt lat="41.8736383" lon="13.1878283"><ele>725.0</ele><time>2026-04-02T09:11:32.831Z</time></trkpt><trkpt lat="41.87364" lon="13.1876933"><ele>725.0</ele><time>2026-04-02T09:11:33.832Z</time></trkpt><trkpt lat="41.87367" lon="13.1875583"><ele>725.0</ele><time>2026-04-02T09:11:34.831Z</time></trkpt><trkpt lat="41.873735" lon="13.187415"><ele>725.0</ele><time>2026-04-02T09:11:35.831Z</time></trkpt><trkpt lat="41.8738117" lon="13.1872483"><ele>723.25</ele><time>2026-04-02T09:11:36.831Z</time></trkpt><trkpt lat="41.8738833" lon="13.1870717"><ele>721.5</ele><time>2026-04-02T09:11:37.832Z</time></trkpt><trkpt lat="41.873925" lon="13.18689"><ele>719.75</ele><time>2026-04-02T09:11:38.832Z</time></trkpt><trkpt lat="41.8739483" lon="13.18672"><ele>718.0</ele><time>2026-04-02T09:11:39.832Z</time></trkpt><trkpt lat="41.8739833" lon="13.18656"><ele>714.0</ele><time>2026-04-02T09:11:40.832Z</time></trkpt><trkpt lat="41.8740483" lon="13.186405"><ele>710.0</ele><time>2026-04-02T09:11:41.83Z</time></trkpt><trkpt lat="41.874135" lon="13.1862417"><ele>706.0</ele><time>2026-04-02T09:11:42.834Z</time></trkpt><trkpt lat="41.8742267" lon="13.1860583"><ele>702.0</ele><time>2026-04-02T09:11:43.833Z</time></trkpt><trkpt lat="41.8742967" lon="13.1858667"><ele>723.0</ele><time>2026-04-02T09:11:44.834Z</time></trkpt><trkpt lat="41.8743483" lon="13.1856767"><ele>744.0</ele><time>2026-04-02T09:11:45.834Z</time></trkpt><trkpt lat="41.87438" lon="13.185475"><ele>765.0</ele><time>2026-04-02T09:11:46.832Z</time></trkpt><trkpt lat="41.8743933" lon="13.18526"><ele>765.0</ele><time>2026-04-02T09:11:47.834Z</time></trkpt><trkpt lat="41.8743833" lon="13.1850483"><ele>765.0</ele><time>2026-04-02T09:11:48.835Z</time></trkpt><trkpt lat="41.87434" lon="13.1848467"><ele>765.0</ele><time>2026-04-02T09:11:49.835Z</time></trkpt><trkpt lat="41.8742967" lon="13.1846567"><ele>763.0</ele><time>2026-04-02T09:11:50.836Z</time></trkpt><trkpt lat="41.8742767" lon="13.18449"><ele>761.0</ele><time>2026-04-02T09:11:51.832Z</time></trkpt><trkpt lat="41.8742867" lon="13.1843367"><ele>759.0</ele><time>2026-04-02T09:11:52.835Z</time></trkpt><trkpt lat="41.8743317" lon="13.1841867"><ele>757.0</ele><time>2026-04-02T09:11:53.834Z</time></trkpt><trkpt lat="41.8743933" lon="13.1840233"><ele>753.3333333333334</ele><time>2026-04-02T09:11:54.833Z</time></trkpt><trkpt lat="41.8744633" lon="13.18383"><ele>749.6666666666666</ele><time>2026-04-02T09:11:55.834Z</time></trkpt><trkpt lat="41.87454" lon="13.1835983"><ele>746.0</ele><time>2026-04-02T09:11:56.833Z</time></trkpt><trkpt lat="41.8746283" lon="13.1833383"><ele>740.0</ele><time>2026-04-02T09:11:57.835Z</time></trkpt><trkpt lat="41.874725" lon="13.183065"><ele>734.0</ele><time>2026-04-02T09:11:58.832Z</time></trkpt><trkpt lat="41.8748333" lon="13.1827833"><ele>734.0</ele><time>2026-04-02T09:11:59.831Z</time></trkpt><trkpt lat="41.8749467" lon="13.1825167"><ele>734.0</ele><time>2026-04-02T09:12:00.832Z</time></trkpt><trkpt lat="41.875045" lon="13.1822767"><ele>734.0</ele><time>2026-04-02T09:12:01.832Z</time></trkpt><trkpt lat="41.8751167" lon="13.1820633"><ele>748.3333333333333</ele><time>2026-04-02T09:12:02.83Z</time></trkpt><trkpt lat="41.875145" lon="13.18183"><ele>762.6666666666666</ele><time>2026-04-02T09:12:03.832Z</time></trkpt><trkpt lat="41.8751533" lon="13.181575"><ele>777.0</ele><time>2026-04-02T09:12:04.833Z</time></trkpt><trkpt lat="41.8751517" lon="13.181305"><ele>777.0</ele><time>2026-04-02T09:12:05.832Z</time></trkpt><trkpt lat="41.8751583" lon="13.1810367"><ele>777.0</ele><time>2026-04-02T09:12:06.833Z</time></trkpt><trkpt lat="41.8751833" lon="13.180775"><ele>777.0</ele><time>2026-04-02T09:12:07.83Z</time></trkpt><trkpt lat="41.875215" lon="13.1805467"><ele>773.3333333333334</ele><time>2026-04-02T09:12:08.833Z</time></trkpt><trkpt lat="41.8752633" lon="13.1803367"><ele>769.6666666666667</ele><time>2026-04-02T09:12:09.832Z</time></trkpt><trkpt lat="41.87534" lon="13.1801267"><ele>766.0</ele><time>2026-04-02T09:12:10.831Z</time></trkpt><trkpt lat="41.875425" lon="13.1799117"><ele>760.3333333333334</ele><time>2026-04-02T09:12:11.83Z</time></trkpt><trkpt lat="41.8755217" lon="13.179675"><ele>754.6666666666666</ele><time>2026-04-02T09:12:12.833Z</time></trkpt><trkpt lat="41.8756317" lon="13.1794283"><ele>749.0</ele><time>2026-04-02T09:12:13.831Z</time></trkpt><trkpt lat="41.8757433" lon="13.1791583"><ele>739.5</ele><time>2026-04-02T09:12:14.833Z</time></trkpt><trkpt lat="41.8758617" lon="13.17887"><ele>730.0</ele><time>2026-04-02T09:12:15.831Z</time></trkpt><trkpt lat="41.875985" lon="13.1785767"><ele>748.5</ele><time>2026-04-02T09:12:16.833Z</time></trkpt><trkpt lat="41.8761033" lon="13.17829"><ele>767.0</ele><time>2026-04-02T09:12:17.833Z</time></trkpt><trkpt lat="41.8762167" lon="13.1780183"><ele>767.0</ele><time>2026-04-02T09:12:18.832Z</time></trkpt><trkpt lat="41.87632" lon="13.1777783"><ele>767.0</ele><time>2026-04-02T09:12:19.833Z</time></trkpt><trkpt lat="41.8764033" lon="13.177565"><ele>767.0</ele><time>2026-04-02T09:12:20.833Z</time></trkpt><trkpt lat="41.8764883" lon="13.1773833"><ele>774.3333333333333</ele><time>2026-04-02T09:12:21.831Z</time></trkpt><trkpt lat="41.8765933" lon="13.1772283"><ele>781.6666666666666</ele><time>2026-04-02T09:12:22.831Z</time></trkpt><trkpt lat="41.8767233" lon="13.1770967"><ele>789.0</ele><time>2026-04-02T09:12:23.835Z</time></trkpt><trkpt lat="41.8768583" lon="13.1769817"><ele>789.0</ele><time>2026-04-02T09:12:24.835Z</time></trkpt><trkpt lat="41.8769817" lon="13.1768483"><ele>789.0</ele><time>2026-04-02T09:12:25.835Z</time></trkpt><trkpt lat="41.8770733" lon="13.1766667"><ele>789.0</ele><time>2026-04-02T09:12:26.834Z</time></trkpt><trkpt lat="41.8771583" lon="13.176485"><ele>775.6666666666666</ele><time>2026-04-02T09:12:27.834Z</time></trkpt><trkpt lat="41.87726" lon="13.1763333"><ele>762.3333333333333</ele><time>2026-04-02T09:12:28.834Z</time></trkpt><trkpt lat="41.8773767" lon="13.1761733"><ele>749.0</ele><time>2026-04-02T09:12:29.832Z</time></trkpt><trkpt lat="41.8774883" lon="13.1759817"><ele>749.0</ele><time>2026-04-02T09:12:30.834Z</time></trkpt><trkpt lat="41.8775933" lon="13.1757867"><ele>749.0</ele><time>2026-04-02T09:12:31.834Z</time></trkpt><trkpt lat="41.8777167" lon="13.1755983"><ele>749.0</ele><time>2026-04-02T09:12:32.835Z</time></trkpt><trkpt lat="41.87786" lon="13.1754117"><ele>756.0</ele><time>2026-04-02T09:12:33.835Z</time></trkpt><trkpt lat="41.8780017" lon="13.1752283"><ele>763.0</ele><time>2026-04-02T09:12:34.831Z</time></trkpt><trkpt lat="41.87814" lon="13.1750533"><ele>770.0</ele><time>2026-04-02T09:12:35.833Z</time></trkpt><trkpt lat="41.8782883" lon="13.174925"><ele>762.3333333333334</ele><time>2026-04-02T09:12:36.832Z</time></trkpt><trkpt lat="41.8784433" lon="13.1748"><ele>754.6666666666667</ele><time>2026-04-02T09:12:37.832Z</time></trkpt><trkpt lat="41.878605" lon="13.1747017"><ele>747.0</ele><time>2026-04-02T09:12:38.833Z</time></trkpt><trkpt lat="41.8787633" lon="13.1746417"><ele>747.0</ele><time>2026-04-02T09:12:39.833Z</time></trkpt><trkpt lat="41.87892" lon="13.174645"><ele>747.0</ele><time>2026-04-02T09:12:40.835Z</time></trkpt><trkpt lat="41.8790683" lon="13.1746967"><ele>747.0</ele><time>2026-04-02T09:12:41.833Z</time></trkpt><trkpt lat="41.8792017" lon="13.1747917"><ele>759.25</ele><time>2026-04-02T09:12:42.834Z</time></trkpt><trkpt lat="41.8793367" lon="13.1749067"><ele>771.5</ele><time>2026-04-02T09:12:43.833Z</time></trkpt><trkpt lat="41.87947" lon="13.175015"><ele>783.75</ele><time>2026-04-02T09:12:44.834Z</time></trkpt><trkpt lat="41.8795867" lon="13.1751"><ele>796.0</ele><time>2026-04-02T09:12:45.833Z</time></trkpt><trkpt lat="41.879695" lon="13.1751383"><ele>796.0</ele><time>2026-04-02T09:12:46.835Z</time></trkpt><trkpt lat="41.8797883" lon="13.1751367"><ele>796.0</ele><time>2026-04-02T09:12:47.833Z</time></trkpt><trkpt lat="41.8798683" lon="13.1751183"><ele>796.0</ele><time>2026-04-02T09:12:48.835Z</time></trkpt><trkpt lat="41.87994" lon="13.1750733"><ele>796.0</ele><time>2026-04-02T09:12:49.834Z</time></trkpt><trkpt lat="41.8799883" lon="13.1749533"><ele>796.0</ele><time>2026-04-02T09:12:50.833Z</time></trkpt><trkpt lat="41.8800483" lon="13.1748383"><ele>798.25</ele><time>2026-04-02T09:12:51.833Z</time></trkpt><trkpt lat="41.8801133" lon="13.1746783"><ele>800.5</ele><time>2026-04-02T09:12:52.834Z</time></trkpt><trkpt lat="41.8802033" lon="13.1745417"><ele>802.75</ele><time>2026-04-02T09:12:53.835Z</time></trkpt><trkpt lat="41.8803233" lon="13.17443"><ele>805.0</ele><time>2026-04-02T09:12:54.834Z</time></trkpt><trkpt lat="41.8804483" lon="13.174315"><ele>805.0</ele><time>2026-04-02T09:12:55.834Z</time></trkpt><trkpt lat="41.8805483" lon="13.17415"><ele>805.0</ele><time>2026-04-02T09:12:56.833Z</time></trkpt><trkpt lat="41.8806433" lon="13.1739333"><ele>805.0</ele><time>2026-04-02T09:12:57.835Z</time></trkpt><trkpt lat="41.8807417" lon="13.1736933"><ele>804.3333333333333</ele><time>2026-04-02T09:12:58.833Z</time></trkpt><trkpt lat="41.880835" lon="13.173445"><ele>803.6666666666667</ele><time>2026-04-02T09:12:59.834Z</time></trkpt><trkpt lat="41.88092" lon="13.1732333"><ele>803.0</ele><time>2026-04-02T09:13:00.835Z</time></trkpt><trkpt lat="41.881" lon="13.173075"><ele>803.0</ele><time>2026-04-02T09:13:01.834Z</time></trkpt><trkpt lat="41.881085" lon="13.1729583"><ele>803.0</ele><time>2026-04-02T09:13:02.833Z</time></trkpt><trkpt lat="41.8811933" lon="13.17287"><ele>803.0</ele><time>2026-04-02T09:13:03.833Z</time></trkpt><trkpt lat="41.8813083" lon="13.17277"><ele>803.0</ele><time>2026-04-02T09:13:04.833Z</time></trkpt><trkpt lat="41.8814183" lon="13.1726333"><ele>803.0</ele><time>2026-04-02T09:13:05.833Z</time></trkpt><trkpt lat="41.8815" lon="13.1724567"><ele>803.0</ele><time>2026-04-02T09:13:06.832Z</time></trkpt><trkpt lat="41.8815767" lon="13.1722967"><ele>803.0</ele><time>2026-04-02T09:13:07.832Z</time></trkpt><trkpt lat="41.8816567" lon="13.172175"><ele>803.0</ele><time>2026-04-02T09:13:08.833Z</time></trkpt><trkpt lat="41.8817433" lon="13.1720967"><ele>798.0</ele><time>2026-04-02T09:13:09.834Z</time></trkpt><trkpt lat="41.8818333" lon="13.1720583"><ele>793.0</ele><time>2026-04-02T09:13:10.831Z</time></trkpt><trkpt lat="41.8819417" lon="13.17207"><ele>788.0</ele><time>2026-04-02T09:13:11.833Z</time></trkpt><trkpt lat="41.8820683" lon="13.1721033"><ele>783.0</ele><time>2026-04-02T09:13:12.835Z</time></trkpt><trkpt lat="41.88221" lon="13.172135"><ele>783.0</ele><time>2026-04-02T09:13:13.834Z</time></trkpt><trkpt lat="41.8823717" lon="13.1721733"><ele>783.0</ele><time>2026-04-02T09:13:14.833Z</time></trkpt><trkpt lat="41.8825517" lon="13.1722183"><ele>783.0</ele><time>2026-04-02T09:13:15.833Z</time></trkpt><trkpt lat="41.8827383" lon="13.1722667"><ele>780.6666666666667</ele><time>2026-04-02T09:13:16.833Z</time></trkpt><trkpt lat="41.8829233" lon="13.1723017"><ele>778.3333333333334</ele><time>2026-04-02T09:13:17.832Z</time></trkpt><trkpt lat="41.8830967" lon="13.17233"><ele>776.0</ele><time>2026-04-02T09:13:18.833Z</time></trkpt><trkpt lat="41.8832417" lon="13.1723633"><ele>770.8</ele><time>2026-04-02T09:13:19.83Z</time></trkpt><trkpt lat="41.8833617" lon="13.1724117"><ele>765.5999999999999</ele><time>2026-04-02T09:13:20.831Z</time></trkpt><trkpt lat="41.8834533" lon="13.1724817"><ele>760.4</ele><time>2026-04-02T09:13:21.834Z</time></trkpt><trkpt lat="41.8835133" lon="13.1725783"><ele>755.2</ele><time>2026-04-02T09:13:22.835Z</time></trkpt><trkpt lat="41.8835567" lon="13.1727"><ele>750.0</ele><time>2026-04-02T09:13:23.834Z</time></trkpt><trkpt lat="41.8835617" lon="13.1728483"><ele>750.0</ele><time>2026-04-02T09:13:24.835Z</time></trkpt><trkpt lat="41.8835317" lon="13.173025"><ele>750.0</ele><time>2026-04-02T09:13:25.833Z</time></trkpt><trkpt lat="41.8834717" lon="13.1732283"><ele>750.0</ele><time>2026-04-02T09:13:26.834Z</time></trkpt><trkpt lat="41.8834233" lon="13.17344"><ele>774.0</ele><time>2026-04-02T09:13:27.834Z</time></trkpt><trkpt lat="41.8833767" lon="13.1736683"><ele>798.0</ele><time>2026-04-02T09:13:28.83Z</time></trkpt><trkpt lat="41.8833233" lon="13.1739"><ele>822.0</ele><time>2026-04-02T09:13:29.83Z</time></trkpt><trkpt lat="41.8832517" lon="13.1741333"><ele>822.0</ele><time>2026-04-02T09:13:30.833Z</time></trkpt><trkpt lat="41.8831667" lon="13.1743717"><ele>822.0</ele><time>2026-04-02T09:13:31.831Z</time></trkpt><trkpt lat="41.8830783" lon="13.1746117"><ele>822.0</ele><time>2026-04-02T09:13:32.831Z</time></trkpt><trkpt lat="41.8829917" lon="13.1748567"><ele>816.0</ele><time>2026-04-02T09:13:33.832Z</time></trkpt><trkpt lat="41.8829017" lon="13.17511"><ele>810.0</ele><time>2026-04-02T09:13:34.83Z</time></trkpt><trkpt lat="41.8828117" lon="13.1753733"><ele>804.0</ele><time>2026-04-02T09:13:35.832Z</time></trkpt><trkpt lat="41.8827317" lon="13.1756433"><ele>796.0</ele><time>2026-04-02T09:13:36.831Z</time></trkpt><trkpt lat="41.8826667" lon="13.1759"><ele>788.0</ele><time>2026-04-02T09:13:37.831Z</time></trkpt><trkpt lat="41.8825967" lon="13.1761317"><ele>780.0</ele><time>2026-04-02T09:13:38.831Z</time></trkpt><trkpt lat="41.88252" lon="13.1763533"><ele>795.3333333333333</ele><time>2026-04-02T09:13:39.83Z</time></trkpt><trkpt lat="41.8824267" lon="13.1765667"><ele>810.6666666666666</ele><time>2026-04-02T09:13:40.831Z</time></trkpt><trkpt lat="41.8823317" lon="13.1767867"><ele>826.0</ele><time>2026-04-02T09:13:41.834Z</time></trkpt><trkpt lat="41.88225" lon="13.177025"><ele>826.0</ele><time>2026-04-02T09:13:42.834Z</time></trkpt><trkpt lat="41.8821867" lon="13.1772683"><ele>826.0</ele><time>2026-04-02T09:13:43.833Z</time></trkpt><trkpt lat="41.88213" lon="13.1775033"><ele>826.0</ele><time>2026-04-02T09:13:44.834Z</time></trkpt><trkpt lat="41.8820717" lon="13.1777017"><ele>823.25</ele><time>2026-04-02T09:13:45.834Z</time></trkpt><trkpt lat="41.88201" lon="13.1778667"><ele>820.5</ele><time>2026-04-02T09:13:46.833Z</time></trkpt><trkpt lat="41.8819433" lon="13.1780033"><ele>817.75</ele><time>2026-04-02T09:13:47.834Z</time></trkpt><trkpt lat="41.88188" lon="13.1781233"><ele>815.0</ele><time>2026-04-02T09:13:48.834Z</time></trkpt><trkpt lat="41.881835" lon="13.1782483"><ele>815.0</ele><time>2026-04-02T09:13:49.834Z</time></trkpt><trkpt lat="41.8818217" lon="13.1783717"><ele>815.0</ele><time>2026-04-02T09:13:50.833Z</time></trkpt><trkpt lat="41.8818167" lon="13.1784883"><ele>815.0</ele><time>2026-04-02T09:13:51.834Z</time></trkpt><trkpt lat="41.8818417" lon="13.1786017"><ele>815.0</ele><time>2026-04-02T09:13:52.833Z</time></trkpt><trkpt lat="41.88191" lon="13.1786967"><ele>815.0</ele><time>2026-04-02T09:13:53.835Z</time></trkpt><trkpt lat="41.8820233" lon="13.1787617"><ele>815.0</ele><time>2026-04-02T09:13:54.835Z</time></trkpt><trkpt lat="41.882155" lon="13.178825"><ele>815.0</ele><time>2026-04-02T09:13:55.831Z</time></trkpt><trkpt lat="41.8822633" lon="13.1789133"><ele>815.0</ele><time>2026-04-02T09:13:56.831Z</time></trkpt><trkpt lat="41.882345" lon="13.179015"><ele>815.0</ele><time>2026-04-02T09:13:57.835Z</time></trkpt><trkpt lat="41.8824167" lon="13.1791383"><ele>819.0</ele><time>2026-04-02T09:13:58.831Z</time></trkpt><trkpt lat="41.8824733" lon="13.1792717"><ele>823.0</ele><time>2026-04-02T09:13:59.832Z</time></trkpt><trkpt lat="41.8825083" lon="13.1794117"><ele>827.0</ele><time>2026-04-02T09:14:00.831Z</time></trkpt><trkpt lat="41.882515" lon="13.1795633"><ele>831.0</ele><time>2026-04-02T09:14:01.83Z</time></trkpt><trkpt lat="41.8824933" lon="13.1797233"><ele>831.3333333333333</ele><time>2026-04-02T09:14:02.833Z</time></trkpt><trkpt lat="41.8824483" lon="13.1799033"><ele>831.6666666666666</ele><time>2026-04-02T09:14:03.832Z</time></trkpt><trkpt lat="41.8823983" lon="13.1801083"><ele>832.0</ele><time>2026-04-02T09:14:04.831Z</time></trkpt><trkpt lat="41.88234" lon="13.180305"><ele>832.0</ele><time>2026-04-02T09:14:05.832Z</time></trkpt><trkpt lat="41.882275" lon="13.1804667"><ele>832.0</ele><time>2026-04-02T09:14:06.834Z</time></trkpt><trkpt lat="41.8821983" lon="13.18059"><ele>832.0</ele><time>2026-04-02T09:14:07.831Z</time></trkpt><trkpt lat="41.8820967" lon="13.1806983"><ele>832.0</ele><time>2026-04-02T09:14:08.833Z</time></trkpt><trkpt lat="41.8819783" lon="13.1807883"><ele>832.4000000000001</ele><time>2026-04-02T09:14:09.833Z</time></trkpt><trkpt lat="41.8818633" lon="13.18086"><ele>832.8000000000001</ele><time>2026-04-02T09:14:10.832Z</time></trkpt><trkpt lat="41.8817617" lon="13.18093"><ele>833.2</ele><time>2026-04-02T09:14:11.831Z</time></trkpt><trkpt lat="41.8816683" lon="13.1810017"><ele>833.6</ele><time>2026-04-02T09:14:12.835Z</time></trkpt><trkpt lat="41.8816167" lon="13.1811133"><ele>834.0</ele><time>2026-04-02T09:14:13.834Z</time></trkpt><trkpt lat="41.8815783" lon="13.18125"><ele>834.0</ele><time>2026-04-02T09:14:14.834Z</time></trkpt><trkpt lat="41.88158" lon="13.181425"><ele>834.0</ele><time>2026-04-02T09:14:15.833Z</time></trkpt><trkpt lat="41.8815783" lon="13.1816"><ele>834.0</ele><time>2026-04-02T09:14:16.833Z</time></trkpt><trkpt lat="41.8815783" lon="13.1817717"><ele>834.0</ele><time>2026-04-02T09:14:17.835Z</time></trkpt><trkpt lat="41.8815883" lon="13.1819283"><ele>832.8333333333334</ele><time>2026-04-02T09:14:18.833Z</time></trkpt><trkpt lat="41.8815983" lon="13.182065"><ele>831.6666666666667</ele><time>2026-04-02T09:14:19.834Z</time></trkpt><trkpt lat="41.8816267" lon="13.1821733"><ele>830.5</ele><time>2026-04-02T09:14:20.835Z</time></trkpt><trkpt lat="41.8816717" lon="13.182265"><ele>829.3333333333334</ele><time>2026-04-02T09:14:21.834Z</time></trkpt><trkpt lat="41.8817283" lon="13.182325"><ele>828.1666666666667</ele><time>2026-04-02T09:14:22.834Z</time></trkpt><trkpt lat="41.8818183" lon="13.182335"><ele>827.0</ele><time>2026-04-02T09:14:23.834Z</time></trkpt><trkpt lat="41.8819533" lon="13.1822733"><ele>820.3333333333334</ele><time>2026-04-02T09:14:24.834Z</time></trkpt><trkpt lat="41.8820933" lon="13.1822267"><ele>813.6666666666667</ele><time>2026-04-02T09:14:25.833Z</time></trkpt><trkpt lat="41.8822467" lon="13.1821667"><ele>807.0</ele><time>2026-04-02T09:14:26.831Z</time></trkpt><trkpt lat="41.8824033" lon="13.1821117"><ele>807.0</ele><time>2026-04-02T09:14:27.833Z</time></trkpt><trkpt lat="41.8825683" lon="13.1820533"><ele>807.0</ele><time>2026-04-02T09:14:28.831Z</time></trkpt><trkpt lat="41.8827383" lon="13.1819967"><ele>807.0</ele><time>2026-04-02T09:14:29.831Z</time></trkpt><trkpt lat="41.8829083" lon="13.181935"><ele>806.0</ele><time>2026-04-02T09:14:30.834Z</time></trkpt><trkpt lat="41.8830617" lon="13.181865"><ele>805.0</ele><time>2026-04-02T09:14:31.834Z</time></trkpt><trkpt lat="41.8831917" lon="13.18179"><ele>804.0</ele><time>2026-04-02T09:14:32.834Z</time></trkpt><trkpt lat="41.8833017" lon="13.18172"><ele>803.0</ele><time>2026-04-02T09:14:33.834Z</time></trkpt><trkpt lat="41.8834" lon="13.1816667"><ele>800.2</ele><time>2026-04-02T09:14:34.833Z</time></trkpt><trkpt lat="41.8834917" lon="13.1816433"><ele>797.4</ele><time>2026-04-02T09:14:35.832Z</time></trkpt><trkpt lat="41.883585" lon="13.181665"><ele>794.6</ele><time>2026-04-02T09:14:36.832Z</time></trkpt><trkpt lat="41.8836783" lon="13.181735"><ele>791.8000000000001</ele><time>2026-04-02T09:14:37.831Z</time></trkpt><trkpt lat="41.8837783" lon="13.1818433"><ele>789.0</ele><time>2026-04-02T09:14:38.832Z</time></trkpt><trkpt lat="41.883885" lon="13.181965"><ele>789.0</ele><time>2026-04-02T09:14:39.833Z</time></trkpt><trkpt lat="41.8839867" lon="13.1820833"><ele>789.0</ele><time>2026-04-02T09:14:40.834Z</time></trkpt><trkpt lat="41.8840733" lon="13.1821883"><ele>789.0</ele><time>2026-04-02T09:14:41.833Z</time></trkpt><trkpt lat="41.884135" lon="13.1823183"><ele>789.0</ele><time>2026-04-02T09:14:42.834Z</time></trkpt><trkpt lat="41.8841733" lon="13.1824633"><ele>791.75</ele><time>2026-04-02T09:14:43.835Z</time></trkpt><trkpt lat="41.8841833" lon="13.1826333"><ele>794.5</ele><time>2026-04-02T09:14:44.834Z</time></trkpt><trkpt lat="41.8841533" lon="13.182825"><ele>797.25</ele><time>2026-04-02T09:14:45.832Z</time></trkpt><trkpt lat="41.8841133" lon="13.18301"><ele>800.0</ele><time>2026-04-02T09:14:46.833Z</time></trkpt><trkpt lat="41.88407" lon="13.183185"><ele>800.5</ele><time>2026-04-02T09:14:47.834Z</time></trkpt><trkpt lat="41.8840333" lon="13.1833517"><ele>801.0</ele><time>2026-04-02T09:14:48.834Z</time></trkpt><trkpt lat="41.884" lon="13.183515"><ele>801.5</ele><time>2026-04-02T09:14:49.833Z</time></trkpt><trkpt lat="41.8839667" lon="13.1836617"><ele>802.0</ele><time>2026-04-02T09:14:50.835Z</time></trkpt><trkpt lat="41.883925" lon="13.1837983"><ele>801.9999999999999</ele><time>2026-04-02T09:14:51.832Z</time></trkpt><trkpt lat="41.8839" lon="13.1839217"><ele>802.0</ele><time>2026-04-02T09:14:52.834Z</time></trkpt><trkpt lat="41.8838967" lon="13.1840383"><ele>802.0</ele><time>2026-04-02T09:14:53.834Z</time></trkpt><trkpt lat="41.8839033" lon="13.184145"><ele>802.0</ele><time>2026-04-02T09:14:54.833Z</time></trkpt><trkpt lat="41.88396" lon="13.1842367"><ele>801.9999999999999</ele><time>2026-04-02T09:14:55.833Z</time></trkpt><trkpt lat="41.8840167" lon="13.184325"><ele>802.0</ele><time>2026-04-02T09:14:56.833Z</time></trkpt><trkpt lat="41.8841133" lon="13.1843933"><ele>802.0</ele><time>2026-04-02T09:14:57.834Z</time></trkpt><trkpt lat="41.8842083" lon="13.18441"><ele>802.0</ele><time>2026-04-02T09:14:58.829Z</time></trkpt><trkpt lat="41.8843283" lon="13.1842733"><ele>802.0</ele><time>2026-04-02T09:14:59.83Z</time></trkpt><trkpt lat="41.8843983" lon="13.18395"><ele>803.0</ele><time>2026-04-02T09:15:00.833Z</time></trkpt><trkpt lat="41.8844717" lon="13.1837583"><ele>804.0</ele><time>2026-04-02T09:15:01.83Z</time></trkpt><trkpt lat="41.8845533" lon="13.1835633"><ele>805.0</ele><time>2026-04-02T09:15:02.833Z</time></trkpt><trkpt lat="41.884635" lon="13.18337"><ele>800.3333333333333</ele><time>2026-04-02T09:15:03.833Z</time></trkpt><trkpt lat="41.8847167" lon="13.1831633"><ele>795.6666666666667</ele><time>2026-04-02T09:15:04.832Z</time></trkpt><trkpt lat="41.8847983" lon="13.1829533"><ele>791.0</ele><time>2026-04-02T09:15:05.833Z</time></trkpt><trkpt lat="41.88487" lon="13.1827667"><ele>791.0</ele><time>2026-04-02T09:15:06.833Z</time></trkpt><trkpt lat="41.8849367" lon="13.1826167"><ele>791.0</ele><time>2026-04-02T09:15:07.834Z</time></trkpt><trkpt lat="41.8850067" lon="13.1825067"><ele>791.0</ele><time>2026-04-02T09:15:08.83Z</time></trkpt><trkpt lat="41.885095" lon="13.1824417"><ele>791.0</ele><time>2026-04-02T09:15:09.835Z</time></trkpt><trkpt lat="41.8851917" lon="13.1824167"><ele>791.0</ele><time>2026-04-02T09:15:10.832Z</time></trkpt><trkpt lat="41.8852833" lon="13.18244"><ele>792.0</ele><time>2026-04-02T09:15:11.834Z</time></trkpt><trkpt lat="41.8853883" lon="13.182515"><ele>793.0</ele><time>2026-04-02T09:15:12.831Z</time></trkpt><trkpt lat="41.885505" lon="13.1826067"><ele>794.0</ele><time>2026-04-02T09:15:13.833Z</time></trkpt><trkpt lat="41.8856317" lon="13.1827133"><ele>795.0</ele><time>2026-04-02T09:15:14.83Z</time></trkpt><trkpt lat="41.8857567" lon="13.1828383"><ele>795.0</ele><time>2026-04-02T09:15:15.834Z</time></trkpt><trkpt lat="41.8858667" lon="13.1829933"><ele>795.0</ele><time>2026-04-02T09:15:16.833Z</time></trkpt><trkpt lat="41.8859617" lon="13.1831667"><ele>795.0</ele><time>2026-04-02T09:15:17.834Z</time></trkpt><trkpt lat="41.8860467" lon="13.18332"><ele>795.8</ele><time>2026-04-02T09:15:18.829Z</time></trkpt><trkpt lat="41.88613" lon="13.1834433"><ele>796.6</ele><time>2026-04-02T09:15:19.832Z</time></trkpt><trkpt lat="41.8862117" lon="13.1835333"><ele>797.4000000000001</ele><time>2026-04-02T09:15:20.832Z</time></trkpt><trkpt lat="41.8862967" lon="13.183585"><ele>798.2</ele><time>2026-04-02T09:15:21.834Z</time></trkpt><trkpt lat="41.8863817" lon="13.183605"><ele>799.0</ele><time>2026-04-02T09:15:22.834Z</time></trkpt><trkpt lat="41.88647" lon="13.183585"><ele>799.0</ele><time>2026-04-02T09:15:23.834Z</time></trkpt><trkpt lat="41.886555" lon="13.1834883"><ele>799.0</ele><time>2026-04-02T09:15:24.835Z</time></trkpt><trkpt lat="41.88663" lon="13.18336"><ele>799.0</ele><time>2026-04-02T09:15:25.834Z</time></trkpt><trkpt lat="41.8867017" lon="13.183225"><ele>799.0</ele><time>2026-04-02T09:15:26.833Z</time></trkpt><trkpt lat="41.8867583" lon="13.1830833"><ele>800.2</ele><time>2026-04-02T09:15:27.83Z</time></trkpt><trkpt lat="41.8867917" lon="13.1829517"><ele>801.4000000000001</ele><time>2026-04-02T09:15:28.831Z</time></trkpt><trkpt lat="41.8867783" lon="13.1828033"><ele>802.6</ele><time>2026-04-02T09:15:29.831Z</time></trkpt><trkpt lat="41.886735" lon="13.18267"><ele>803.8</ele><time>2026-04-02T09:15:30.832Z</time></trkpt><trkpt lat="41.8866433" lon="13.1825583"><ele>805.0</ele><time>2026-04-02T09:15:31.833Z</time></trkpt><trkpt lat="41.8865333" lon="13.1824567"><ele>805.0</ele><time>2026-04-02T09:15:32.833Z</time></trkpt><trkpt lat="41.886405" lon="13.18235"><ele>805.0</ele><time>2026-04-02T09:15:33.832Z</time></trkpt><trkpt lat="41.8862767" lon="13.1822317"><ele>805.0</ele><time>2026-04-02T09:15:34.834Z</time></trkpt><trkpt lat="41.88616" lon="13.1820983"><ele>805.0</ele><time>2026-04-02T09:15:35.833Z</time></trkpt><trkpt lat="41.8860533" lon="13.1819417"><ele>805.0</ele><time>2026-04-02T09:15:36.833Z</time></trkpt><trkpt lat="41.8859517" lon="13.1817883"><ele>805.0</ele><time>2026-04-02T09:15:37.833Z</time></trkpt><trkpt lat="41.88587" lon="13.1816233"><ele>809.3333333333333</ele><time>2026-04-02T09:15:38.834Z</time></trkpt><trkpt lat="41.885815" lon="13.1814383"><ele>813.6666666666667</ele><time>2026-04-02T09:15:39.833Z</time></trkpt><trkpt lat="41.8857717" lon="13.1812333"><ele>818.0</ele><time>2026-04-02T09:15:40.834Z</time></trkpt><trkpt lat="41.88572" lon="13.1810283"><ele>818.0</ele><time>2026-04-02T09:15:41.834Z</time></trkpt><trkpt lat="41.88567" lon="13.1808233"><ele>818.0</ele><time>2026-04-02T09:15:42.832Z</time></trkpt><trkpt lat="41.8856383" lon="13.18061"><ele>818.0</ele><time>2026-04-02T09:15:43.834Z</time></trkpt><trkpt lat="41.8856317" lon="13.18038"><ele>820.0</ele><time>2026-04-02T09:15:44.834Z</time></trkpt><trkpt lat="41.885635" lon="13.180135"><ele>822.0</ele><time>2026-04-02T09:15:45.834Z</time></trkpt><trkpt lat="41.88565" lon="13.179875"><ele>824.0</ele><time>2026-04-02T09:15:46.83Z</time></trkpt><trkpt lat="41.8856733" lon="13.1796133"><ele>825.0</ele><time>2026-04-02T09:15:47.832Z</time></trkpt><trkpt lat="41.8857" lon="13.179355"><ele>826.0</ele><time>2026-04-02T09:15:48.832Z</time></trkpt><trkpt lat="41.8857233" lon="13.1790983"><ele>827.0</ele><time>2026-04-02T09:15:49.833Z</time></trkpt><trkpt lat="41.88574" lon="13.1788417"><ele>827.6666666666667</ele><time>2026-04-02T09:15:50.831Z</time></trkpt><trkpt lat="41.885735" lon="13.1785817"><ele>828.3333333333333</ele><time>2026-04-02T09:15:51.832Z</time></trkpt><trkpt lat="41.885715" lon="13.1783433"><ele>829.0</ele><time>2026-04-02T09:15:52.832Z</time></trkpt><trkpt lat="41.8856983" lon="13.178135"><ele>829.5</ele><time>2026-04-02T09:15:53.833Z</time></trkpt><trkpt lat="41.885695" lon="13.1779583"><ele>830.0</ele><time>2026-04-02T09:15:54.832Z</time></trkpt><trkpt lat="41.8857183" lon="13.1778083"><ele>830.5</ele><time>2026-04-02T09:15:55.833Z</time></trkpt><trkpt lat="41.8857733" lon="13.17767"><ele>831.0</ele><time>2026-04-02T09:15:56.831Z</time></trkpt><trkpt lat="41.88585" lon="13.1775433"><ele>832.5</ele><time>2026-04-02T09:15:57.831Z</time></trkpt><trkpt lat="41.88596" lon="13.177445"><ele>834.0</ele><time>2026-04-02T09:15:58.831Z</time></trkpt><trkpt lat="41.8861" lon="13.1773783"><ele>835.5</ele><time>2026-04-02T09:15:59.833Z</time></trkpt><trkpt lat="41.8862583" lon="13.1773517"><ele>837.0</ele><time>2026-04-02T09:16:00.831Z</time></trkpt><trkpt lat="41.8864183" lon="13.177355"><ele>837.0</ele><time>2026-04-02T09:16:01.833Z</time></trkpt><trkpt lat="41.8865567" lon="13.1773533"><ele>837.0</ele><time>2026-04-02T09:16:02.831Z</time></trkpt><trkpt lat="41.8866783" lon="13.1773217"><ele>837.0</ele><time>2026-04-02T09:16:03.832Z</time></trkpt><trkpt lat="41.8867833" lon="13.17724"><ele>837.0</ele><time>2026-04-02T09:16:04.83Z</time></trkpt><trkpt lat="41.8868583" lon="13.1771033"><ele>844.6666666666667</ele><time>2026-04-02T09:16:05.834Z</time></trkpt><trkpt lat="41.8869133" lon="13.1769267"><ele>852.3333333333334</ele><time>2026-04-02T09:16:06.833Z</time></trkpt><trkpt lat="41.8869533" lon="13.1767167"><ele>860.0</ele><time>2026-04-02T09:16:07.834Z</time></trkpt><trkpt lat="41.88699" lon="13.17649"><ele>860.0</ele><time>2026-04-02T09:16:08.832Z</time></trkpt><trkpt lat="41.887015" lon="13.1762783"><ele>860.0</ele><time>2026-04-02T09:16:09.834Z</time></trkpt><trkpt lat="41.887035" lon="13.1760833"><ele>860.0</ele><time>2026-04-02T09:16:10.829Z</time></trkpt><trkpt lat="41.8870483" lon="13.175905"><ele>860.0</ele><time>2026-04-02T09:16:11.831Z</time></trkpt><trkpt lat="41.8870767" lon="13.175745"><ele>857.25</ele><time>2026-04-02T09:16:12.831Z</time></trkpt><trkpt lat="41.8871317" lon="13.1756117"><ele>854.5</ele><time>2026-04-02T09:16:13.833Z</time></trkpt><trkpt lat="41.887215" lon="13.1755083"><ele>851.75</ele><time>2026-04-02T09:16:14.831Z</time></trkpt><trkpt lat="41.8873267" lon="13.175435"><ele>849.0</ele><time>2026-04-02T09:16:15.833Z</time></trkpt><trkpt lat="41.8874417" lon="13.1753533"><ele>849.0</ele><time>2026-04-02T09:16:16.832Z</time></trkpt><trkpt lat="41.88755" lon="13.17523"><ele>849.0</ele><time>2026-04-02T09:16:17.834Z</time></trkpt><trkpt lat="41.887645" lon="13.1750633"><ele>849.0</ele><time>2026-04-02T09:16:18.831Z</time></trkpt><trkpt lat="41.8877217" lon="13.1748683"><ele>852.3333333333333</ele><time>2026-04-02T09:16:19.831Z</time></trkpt><trkpt lat="41.887785" lon="13.174665"><ele>855.6666666666666</ele><time>2026-04-02T09:16:20.831Z</time></trkpt><trkpt lat="41.8878467" lon="13.1744767"><ele>859.0</ele><time>2026-04-02T09:16:21.832Z</time></trkpt><trkpt lat="41.8879133" lon="13.1743067"><ele>859.0</ele><time>2026-04-02T09:16:22.831Z</time></trkpt><trkpt lat="41.8879917" lon="13.174155"><ele>859.0</ele><time>2026-04-02T09:16:23.83Z</time></trkpt><trkpt lat="41.88808" lon="13.1740167"><ele>859.0</ele><time>2026-04-02T09:16:24.832Z</time></trkpt><trkpt lat="41.88818" lon="13.1739"><ele>859.0</ele><time>2026-04-02T09:16:25.83Z</time></trkpt><trkpt lat="41.8882983" lon="13.1738067"><ele>859.5</ele><time>2026-04-02T09:16:26.832Z</time></trkpt><trkpt lat="41.8884283" lon="13.1737317"><ele>860.0</ele><time>2026-04-02T09:16:27.832Z</time></trkpt><trkpt lat="41.8885733" lon="13.17367"><ele>860.5</ele><time>2026-04-02T09:16:28.831Z</time></trkpt><trkpt lat="41.888715" lon="13.173605"><ele>861.0</ele><time>2026-04-02T09:16:29.832Z</time></trkpt><trkpt lat="41.8888417" lon="13.1735417"><ele>861.0</ele><time>2026-04-02T09:16:30.831Z</time></trkpt><trkpt lat="41.88896" lon="13.1734817"><ele>860.9999999999999</ele><time>2026-04-02T09:16:31.831Z</time></trkpt><trkpt lat="41.8890617" lon="13.17341"><ele>860.9999999999999</ele><time>2026-04-02T09:16:32.833Z</time></trkpt><trkpt lat="41.8891433" lon="13.173325"><ele>861.0</ele><time>2026-04-02T09:16:33.831Z</time></trkpt><trkpt lat="41.889195" lon="13.1732217"><ele>861.0</ele><time>2026-04-02T09:16:34.831Z</time></trkpt><trkpt lat="41.8892217" lon="13.173115"><ele>862.1999999999999</ele><time>2026-04-02T09:16:35.834Z</time></trkpt><trkpt lat="41.889215" lon="13.1730183"><ele>863.3999999999999</ele><time>2026-04-02T09:16:36.834Z</time></trkpt><trkpt lat="41.88913" lon="13.172915"><ele>864.6</ele><time>2026-04-02T09:16:37.834Z</time></trkpt><trkpt lat="41.88904" lon="13.1728167"><ele>865.8</ele><time>2026-04-02T09:16:38.834Z</time></trkpt><trkpt lat="41.888945" lon="13.1727217"><ele>867.0</ele><time>2026-04-02T09:16:39.834Z</time></trkpt><trkpt lat="41.88885" lon="13.1726333"><ele>867.0</ele><time>2026-04-02T09:16:40.832Z</time></trkpt><trkpt lat="41.8887583" lon="13.17255"><ele>867.0</ele><time>2026-04-02T09:16:41.832Z</time></trkpt><trkpt lat="41.88866" lon="13.17246"><ele>867.0</ele><time>2026-04-02T09:16:42.833Z</time></trkpt><trkpt lat="41.8885583" lon="13.1723567"><ele>867.0</ele><time>2026-04-02T09:16:43.835Z</time></trkpt><trkpt lat="41.8884583" lon="13.1722383"><ele>865.0</ele><time>2026-04-02T09:16:44.833Z</time></trkpt><trkpt lat="41.8883733" lon="13.1720983"><ele>863.0</ele><time>2026-04-02T09:16:45.831Z</time></trkpt><trkpt lat="41.8882983" lon="13.171965"><ele>861.0</ele><time>2026-04-02T09:16:46.832Z</time></trkpt><trkpt lat="41.8882267" lon="13.1718383"><ele>859.0</ele><time>2026-04-02T09:16:47.832Z</time></trkpt><trkpt lat="41.88816" lon="13.1717167"><ele>859.0</ele><time>2026-04-02T09:16:48.832Z</time></trkpt><trkpt lat="41.8881" lon="13.1715967"><ele>859.0000000000001</ele><time>2026-04-02T09:16:49.832Z</time></trkpt><trkpt lat="41.8880533" lon="13.17147"><ele>859.0000000000001</ele><time>2026-04-02T09:16:50.832Z</time></trkpt><trkpt lat="41.88802" lon="13.171335"><ele>859.0</ele><time>2026-04-02T09:16:51.833Z</time></trkpt><trkpt lat="41.8880033" lon="13.17119"><ele>859.0</ele><time>2026-04-02T09:16:52.833Z</time></trkpt><trkpt lat="41.888" lon="13.171035"><ele>859.2</ele><time>2026-04-02T09:16:53.834Z</time></trkpt><trkpt lat="41.88801" lon="13.1708833"><ele>859.4000000000001</ele><time>2026-04-02T09:16:54.832Z</time></trkpt><trkpt lat="41.8880233" lon="13.17075"><ele>859.6</ele><time>2026-04-02T09:16:55.832Z</time></trkpt><trkpt lat="41.8880367" lon="13.170645"><ele>859.8</ele><time>2026-04-02T09:16:56.834Z</time></trkpt><trkpt lat="41.8880467" lon="13.170515"><ele>860.0</ele><time>2026-04-02T09:16:58.832Z</time></trkpt><trkpt lat="41.8881067" lon="13.1704633"><ele>860.0000000000001</ele><time>2026-04-02T09:17:01.833Z</time></trkpt><trkpt lat="41.8881783" lon="13.17053"><ele>860.0</ele><time>2026-04-02T09:17:03.832Z</time></trkpt><trkpt lat="41.8882283" lon="13.1705883"><ele>860.0</ele><time>2026-04-02T09:17:04.833Z</time></trkpt><trkpt lat="41.8882717" lon="13.1706617"><ele>860.0</ele><time>2026-04-02T09:17:05.832Z</time></trkpt><trkpt lat="41.8883333" lon="13.1707317"><ele>860.0000000000001</ele><time>2026-04-02T09:17:06.83Z</time></trkpt><trkpt lat="41.8884017" lon="13.1708117"><ele>860.0</ele><time>2026-04-02T09:17:07.833Z</time></trkpt><trkpt lat="41.8884917" lon="13.1708933"><ele>864.25</ele><time>2026-04-02T09:17:08.832Z</time></trkpt><trkpt lat="41.8885833" lon="13.1709967"><ele>868.5</ele><time>2026-04-02T09:17:09.829Z</time></trkpt><trkpt lat="41.8886733" lon="13.1711"><ele>872.75</ele><time>2026-04-02T09:17:10.832Z</time></trkpt><trkpt lat="41.888775" lon="13.1712133"><ele>877.0</ele><time>2026-04-02T09:17:11.83Z</time></trkpt><trkpt lat="41.8888767" lon="13.171325"><ele>877.0</ele><time>2026-04-02T09:17:12.832Z</time></trkpt><trkpt lat="41.8889767" lon="13.1714267"><ele>877.0</ele><time>2026-04-02T09:17:13.831Z</time></trkpt><trkpt lat="41.8890667" lon="13.1715233"><ele>877.0</ele><time>2026-04-02T09:17:14.832Z</time></trkpt><trkpt lat="41.8891433" lon="13.1716017"><ele>877.0</ele><time>2026-04-02T09:17:15.829Z</time></trkpt><trkpt lat="41.8892233" lon="13.17167"><ele>877.0</ele><time>2026-04-02T09:17:16.832Z</time></trkpt><trkpt lat="41.8893017" lon="13.17172"><ele>879.8333333333333</ele><time>2026-04-02T09:17:17.831Z</time></trkpt><trkpt lat="41.8893883" lon="13.1717467"><ele>882.6666666666666</ele><time>2026-04-02T09:17:18.835Z</time></trkpt><trkpt lat="41.8894833" lon="13.17173"><ele>885.5</ele><time>2026-04-02T09:17:19.834Z</time></trkpt><trkpt lat="41.8895733" lon="13.171715"><ele>888.3333333333333</ele><time>2026-04-02T09:17:20.835Z</time></trkpt><trkpt lat="41.8896633" lon="13.17171"><ele>891.1666666666666</ele><time>2026-04-02T09:17:21.833Z</time></trkpt><trkpt lat="41.88974" lon="13.17173"><ele>894.0</ele><time>2026-04-02T09:17:22.833Z</time></trkpt><trkpt lat="41.8898167" lon="13.1717633"><ele>894.0</ele><time>2026-04-02T09:17:23.833Z</time></trkpt><trkpt lat="41.8898717" lon="13.1718283"><ele>894.0000000000001</ele><time>2026-04-02T09:17:24.834Z</time></trkpt><trkpt lat="41.8899217" lon="13.1719083"><ele>894.0000000000001</ele><time>2026-04-02T09:17:25.833Z</time></trkpt><trkpt lat="41.8899533" lon="13.1720333"><ele>894.0</ele><time>2026-04-02T09:17:26.833Z</time></trkpt><trkpt lat="41.8899883" lon="13.1721717"><ele>894.0</ele><time>2026-04-02T09:17:27.83Z</time></trkpt><trkpt lat="41.8900167" lon="13.17233"><ele>893.25</ele><time>2026-04-02T09:17:28.832Z</time></trkpt><trkpt lat="41.89006" lon="13.1724667"><ele>892.5</ele><time>2026-04-02T09:17:29.831Z</time></trkpt><trkpt lat="41.8901167" lon="13.1726067"><ele>891.75</ele><time>2026-04-02T09:17:30.829Z</time></trkpt><trkpt lat="41.8901767" lon="13.17276"><ele>891.0</ele><time>2026-04-02T09:17:31.83Z</time></trkpt><trkpt lat="41.8902383" lon="13.172925"><ele>899.0</ele><time>2026-04-02T09:17:32.833Z</time></trkpt><trkpt lat="41.89031" lon="13.1731167"><ele>907.0</ele><time>2026-04-02T09:17:33.832Z</time></trkpt><trkpt lat="41.89038" lon="13.1733267"><ele>915.0</ele><time>2026-04-02T09:17:34.833Z</time></trkpt><trkpt lat="41.8904433" lon="13.173535"><ele>915.6666666666667</ele><time>2026-04-02T09:17:35.832Z</time></trkpt><trkpt lat="41.8905117" lon="13.1737367"><ele>916.3333333333334</ele><time>2026-04-02T09:17:36.832Z</time></trkpt><trkpt lat="41.890575" lon="13.1739467"><ele>917.0</ele><time>2026-04-02T09:17:37.832Z</time></trkpt><trkpt lat="41.8906383" lon="13.1741367"><ele>917.25</ele><time>2026-04-02T09:17:38.834Z</time></trkpt><trkpt lat="41.8907" lon="13.1743083"><ele>917.5</ele><time>2026-04-02T09:17:39.832Z</time></trkpt><trkpt lat="41.8907617" lon="13.1744667"><ele>917.75</ele><time>2026-04-02T09:17:40.833Z</time></trkpt><trkpt lat="41.8908233" lon="13.174595"><ele>918.0</ele><time>2026-04-02T09:17:41.833Z</time></trkpt><trkpt lat="41.8908967" lon="13.1746867"><ele>922.0</ele><time>2026-04-02T09:17:42.832Z</time></trkpt><trkpt lat="41.8909833" lon="13.1747433"><ele>926.0</ele><time>2026-04-02T09:17:43.834Z</time></trkpt><trkpt lat="41.8910833" lon="13.1747733"><ele>930.0</ele><time>2026-04-02T09:17:44.833Z</time></trkpt><trkpt lat="41.8911933" lon="13.1747933"><ele>934.0</ele><time>2026-04-02T09:17:45.833Z</time></trkpt><trkpt lat="41.89131" lon="13.1748117"><ele>938.0</ele><time>2026-04-02T09:17:46.834Z</time></trkpt><trkpt lat="41.89143" lon="13.1748333"><ele>938.0000000000001</ele><time>2026-04-02T09:17:47.832Z</time></trkpt><trkpt lat="41.8915417" lon="13.174845"><ele>938.0</ele><time>2026-04-02T09:17:48.833Z</time></trkpt><trkpt lat="41.891635" lon="13.1748533"><ele>938.0</ele><time>2026-04-02T09:17:49.831Z</time></trkpt><trkpt lat="41.8917167" lon="13.1748483"><ele>938.0</ele><time>2026-04-02T09:17:50.833Z</time></trkpt><trkpt lat="41.8917917" lon="13.1748417"><ele>938.0000000000001</ele><time>2026-04-02T09:17:51.832Z</time></trkpt><trkpt lat="41.8918583" lon="13.17484"><ele>938.0</ele><time>2026-04-02T09:17:52.833Z</time></trkpt><trkpt lat="41.8919233" lon="13.1748083"><ele>934.5</ele><time>2026-04-02T09:17:53.832Z</time></trkpt><trkpt lat="41.8919933" lon="13.17472"><ele>931.0</ele><time>2026-04-02T09:17:54.835Z</time></trkpt><trkpt lat="41.8920583" lon="13.1745867"><ele>927.5</ele><time>2026-04-02T09:17:55.832Z</time></trkpt><trkpt lat="41.8920817" lon="13.1743983"><ele>924.0</ele><time>2026-04-02T09:17:56.831Z</time></trkpt><trkpt lat="41.8920933" lon="13.1742167"><ele>924.0</ele><time>2026-04-02T09:17:57.833Z</time></trkpt><trkpt lat="41.8921" lon="13.17403"><ele>924.0</ele><time>2026-04-02T09:17:58.831Z</time></trkpt><trkpt lat="41.892105" lon="13.1738517"><ele>924.0</ele><time>2026-04-02T09:17:59.831Z</time></trkpt><trkpt lat="41.8920967" lon="13.1736833"><ele>924.0</ele><time>2026-04-02T09:18:00.833Z</time></trkpt><trkpt lat="41.8920817" lon="13.1735183"><ele>924.75</ele><time>2026-04-02T09:18:01.833Z</time></trkpt><trkpt lat="41.8920733" lon="13.17334"><ele>925.5</ele><time>2026-04-02T09:18:02.834Z</time></trkpt><trkpt lat="41.8920883" lon="13.1731517"><ele>926.25</ele><time>2026-04-02T09:18:03.833Z</time></trkpt><trkpt lat="41.892125" lon="13.172945"><ele>927.0</ele><time>2026-04-02T09:18:04.833Z</time></trkpt><trkpt lat="41.8921733" lon="13.1727367"><ele>928.3333333333333</ele><time>2026-04-02T09:18:05.832Z</time></trkpt><trkpt lat="41.8922333" lon="13.1725433"><ele>929.6666666666666</ele><time>2026-04-02T09:18:06.831Z</time></trkpt><trkpt lat="41.8923167" lon="13.172365"><ele>931.0</ele><time>2026-04-02T09:18:07.832Z</time></trkpt><trkpt lat="41.8924283" lon="13.172215"><ele>933.25</ele><time>2026-04-02T09:18:08.831Z</time></trkpt><trkpt lat="41.8925467" lon="13.1720817"><ele>935.5</ele><time>2026-04-02T09:18:09.835Z</time></trkpt><trkpt lat="41.8926583" lon="13.1719567"><ele>937.75</ele><time>2026-04-02T09:18:10.834Z</time></trkpt><trkpt lat="41.8927483" lon="13.1718267"><ele>940.0</ele><time>2026-04-02T09:18:11.834Z</time></trkpt><trkpt lat="41.8928183" lon="13.1716817"><ele>935.6666666666666</ele><time>2026-04-02T09:18:12.834Z</time></trkpt><trkpt lat="41.8928767" lon="13.1715117"><ele>931.3333333333333</ele><time>2026-04-02T09:18:13.834Z</time></trkpt><trkpt lat="41.8929317" lon="13.1713233"><ele>927.0</ele><time>2026-04-02T09:18:14.835Z</time></trkpt><trkpt lat="41.8929733" lon="13.171115"><ele>927.0</ele><time>2026-04-02T09:18:15.835Z</time></trkpt><trkpt lat="41.8930017" lon="13.1709017"><ele>927.0</ele><time>2026-04-02T09:18:16.831Z</time></trkpt><trkpt lat="41.8930217" lon="13.1706967"><ele>927.0</ele><time>2026-04-02T09:18:17.831Z</time></trkpt><trkpt lat="41.8930517" lon="13.1705167"><ele>929.5</ele><time>2026-04-02T09:18:18.835Z</time></trkpt><trkpt lat="41.8931" lon="13.170355"><ele>932.0</ele><time>2026-04-02T09:18:19.835Z</time></trkpt><trkpt lat="41.8931667" lon="13.170215"><ele>934.5</ele><time>2026-04-02T09:18:20.834Z</time></trkpt><trkpt lat="41.8932483" lon="13.1701083"><ele>937.0</ele><time>2026-04-02T09:18:21.829Z</time></trkpt><trkpt lat="41.893335" lon="13.170035"><ele>933.2</ele><time>2026-04-02T09:18:22.83Z</time></trkpt><trkpt lat="41.8934317" lon="13.1699917"><ele>929.4000000000001</ele><time>2026-04-02T09:18:23.832Z</time></trkpt><trkpt lat="41.893535" lon="13.1699683"><ele>925.5999999999999</ele><time>2026-04-02T09:18:24.831Z</time></trkpt><trkpt lat="41.893645" lon="13.1699583"><ele>921.8</ele><time>2026-04-02T09:18:25.834Z</time></trkpt><trkpt lat="41.8937517" lon="13.1699567"><ele>918.0</ele><time>2026-04-02T09:18:26.831Z</time></trkpt><trkpt lat="41.89385" lon="13.1699833"><ele>918.0</ele><time>2026-04-02T09:18:27.832Z</time></trkpt><trkpt lat="41.8939467" lon="13.1700433"><ele>918.0</ele><time>2026-04-02T09:18:28.831Z</time></trkpt><trkpt lat="41.89404" lon="13.17013"><ele>918.0</ele><time>2026-04-02T09:18:29.835Z</time></trkpt><trkpt lat="41.894135" lon="13.1702417"><ele>918.0</ele><time>2026-04-02T09:18:30.832Z</time></trkpt><trkpt lat="41.89423" lon="13.170355"><ele>913.5</ele><time>2026-04-02T09:18:31.832Z</time></trkpt><trkpt lat="41.894325" lon="13.17047"><ele>909.0</ele><time>2026-04-02T09:18:32.83Z</time></trkpt><trkpt lat="41.8944183" lon="13.170565"><ele>904.5</ele><time>2026-04-02T09:18:33.833Z</time></trkpt><trkpt lat="41.8945083" lon="13.1706333"><ele>900.0</ele><time>2026-04-02T09:18:34.829Z</time></trkpt><trkpt lat="41.8946033" lon="13.1706833"><ele>906.5</ele><time>2026-04-02T09:18:35.83Z</time></trkpt><trkpt lat="41.8947083" lon="13.17073"><ele>913.0</ele><time>2026-04-02T09:18:36.833Z</time></trkpt><trkpt lat="41.8948267" lon="13.1707733"><ele>919.5</ele><time>2026-04-02T09:18:37.829Z</time></trkpt><trkpt lat="41.89496" lon="13.1708167"><ele>926.0</ele><time>2026-04-02T09:18:38.83Z</time></trkpt><trkpt lat="41.8951017" lon="13.1708517"><ele>928.0</ele><time>2026-04-02T09:18:39.83Z</time></trkpt><trkpt lat="41.89525" lon="13.170865"><ele>930.0</ele><time>2026-04-02T09:18:40.83Z</time></trkpt><trkpt lat="41.8954033" lon="13.1708567"><ele>932.0</ele><time>2026-04-02T09:18:41.832Z</time></trkpt><trkpt lat="41.8955533" lon="13.1708317"><ele>932.0</ele><time>2026-04-02T09:18:42.833Z</time></trkpt><trkpt lat="41.89569" lon="13.1708167"><ele>932.0</ele><time>2026-04-02T09:18:43.834Z</time></trkpt><trkpt lat="41.8958167" lon="13.1708333"><ele>932.0</ele><time>2026-04-02T09:18:44.833Z</time></trkpt><trkpt lat="41.895935" lon="13.1708883"><ele>932.0</ele><time>2026-04-02T09:18:45.833Z</time></trkpt><trkpt lat="41.8960533" lon="13.1709633"><ele>933.25</ele><time>2026-04-02T09:18:46.833Z</time></trkpt><trkpt lat="41.8961833" lon="13.1710283"><ele>934.5</ele><time>2026-04-02T09:18:47.833Z</time></trkpt><trkpt lat="41.8963317" lon="13.17108"><ele>935.75</ele><time>2026-04-02T09:18:48.832Z</time></trkpt><trkpt lat="41.896485" lon="13.1711283"><ele>937.0</ele><time>2026-04-02T09:18:49.833Z</time></trkpt><trkpt lat="41.8966283" lon="13.17117"><ele>945.5</ele><time>2026-04-02T09:18:50.833Z</time></trkpt><trkpt lat="41.89676" lon="13.1712033"><ele>954.0</ele><time>2026-04-02T09:18:51.831Z</time></trkpt><trkpt lat="41.8968817" lon="13.1712267"><ele>962.5</ele><time>2026-04-02T09:18:52.833Z</time></trkpt><trkpt lat="41.8969883" lon="13.1712367"><ele>971.0</ele><time>2026-04-02T09:18:53.832Z</time></trkpt><trkpt lat="41.8970833" lon="13.1712267"><ele>971.0</ele><time>2026-04-02T09:18:54.829Z</time></trkpt><trkpt lat="41.8971667" lon="13.1712033"><ele>970.9999999999999</ele><time>2026-04-02T09:18:55.833Z</time></trkpt><trkpt lat="41.89724" lon="13.1711667"><ele>970.9999999999999</ele><time>2026-04-02T09:18:56.834Z</time></trkpt><trkpt lat="41.8973017" lon="13.1711367"><ele>971.0</ele><time>2026-04-02T09:18:57.833Z</time></trkpt><trkpt lat="41.8973033" lon="13.1709667"><ele>971.0</ele><time>2026-04-02T09:18:59.829Z</time></trkpt><trkpt lat="41.8972433" lon="13.1708517"><ele>971.0</ele><time>2026-04-02T09:19:00.831Z</time></trkpt><trkpt lat="41.897185" lon="13.1707033"><ele>970.9999999999999</ele><time>2026-04-02T09:19:01.833Z</time></trkpt><trkpt lat="41.8971333" lon="13.17054"><ele>970.9999999999999</ele><time>2026-04-02T09:19:02.831Z</time></trkpt><trkpt lat="41.8971" lon="13.170415"><ele>971.0</ele><time>2026-04-02T09:19:03.834Z</time></trkpt><trkpt lat="41.8970767" lon="13.17031"><ele>971.0</ele><time>2026-04-02T09:19:04.833Z</time></trkpt><trkpt lat="41.89708" lon="13.1701783"><ele>972.1999999999999</ele><time>2026-04-02T09:19:06.834Z</time></trkpt><trkpt lat="41.897165" lon="13.1702233"><ele>973.3999999999999</ele><time>2026-04-02T09:19:08.832Z</time></trkpt><trkpt lat="41.8971967" lon="13.1702967"><ele>974.6</ele><time>2026-04-02T09:19:09.83Z</time></trkpt><trkpt lat="41.8972217" lon="13.1703983"><ele>975.8</ele><time>2026-04-02T09:19:10.834Z</time></trkpt><trkpt lat="41.897265" lon="13.1705183"><ele>977.0</ele><time>2026-04-02T09:19:11.832Z</time></trkpt><trkpt lat="41.897335" lon="13.1706733"><ele>975.8</ele><time>2026-04-02T09:19:12.83Z</time></trkpt><trkpt lat="41.89741" lon="13.1708167"><ele>974.6</ele><time>2026-04-02T09:19:13.834Z</time></trkpt><trkpt lat="41.8974833" lon="13.170945"><ele>973.3999999999999</ele><time>2026-04-02T09:19:14.832Z</time></trkpt><trkpt lat="41.8975483" lon="13.171055"><ele>972.1999999999999</ele><time>2026-04-02T09:19:15.834Z</time></trkpt><trkpt lat="41.8976" lon="13.1711483"><ele>971.0</ele><time>2026-04-02T09:19:16.831Z</time></trkpt><trkpt lat="41.8976283" lon="13.1712433"><ele>971.0000000000001</ele><time>2026-04-02T09:19:17.832Z</time></trkpt><trkpt lat="41.8976233" lon="13.17134"><ele>971.0</ele><time>2026-04-02T09:19:18.831Z</time></trkpt><trkpt lat="41.8975967" lon="13.1714283"><ele>971.0</ele><time>2026-04-02T09:19:19.832Z</time></trkpt><trkpt lat="41.8975567" lon="13.1715"><ele>971.0</ele><time>2026-04-02T09:19:20.833Z</time></trkpt><trkpt lat="41.89748" lon="13.1715467"><ele>971.0000000000001</ele><time>2026-04-02T09:19:21.833Z</time></trkpt><trkpt lat="41.8973783" lon="13.1715783"><ele>971.0</ele><time>2026-04-02T09:19:22.833Z</time></trkpt><trkpt lat="41.8972433" lon="13.1715933"><ele>973.6666666666667</ele><time>2026-04-02T09:19:23.833Z</time></trkpt><trkpt lat="41.8970683" lon="13.171585"><ele>976.3333333333333</ele><time>2026-04-02T09:19:24.835Z</time></trkpt><trkpt lat="41.89692" lon="13.171585"><ele>979.0</ele><time>2026-04-02T09:19:25.835Z</time></trkpt><trkpt lat="41.896755" lon="13.171575"><ele>977.0</ele><time>2026-04-02T09:19:26.834Z</time></trkpt><trkpt lat="41.896605" lon="13.1715733"><ele>975.0</ele><time>2026-04-02T09:19:27.832Z</time></trkpt><trkpt lat="41.896465" lon="13.171565"><ele>973.0</ele><time>2026-04-02T09:19:28.83Z</time></trkpt><trkpt lat="41.8963367" lon="13.1715483"><ele>971.0</ele><time>2026-04-02T09:19:29.831Z</time></trkpt><trkpt lat="41.8962317" lon="13.171565"><ele>971.0</ele><time>2026-04-02T09:19:30.832Z</time></trkpt><trkpt lat="41.8961417" lon="13.1716117"><ele>970.9999999999999</ele><time>2026-04-02T09:19:31.832Z</time></trkpt><trkpt lat="41.89607" lon="13.17169"><ele>970.9999999999999</ele><time>2026-04-02T09:19:32.833Z</time></trkpt><trkpt lat="41.8960233" lon="13.171815"><ele>971.0</ele><time>2026-04-02T09:19:33.835Z</time></trkpt><trkpt lat="41.8960133" lon="13.17197"><ele>971.0</ele><time>2026-04-02T09:19:34.831Z</time></trkpt><trkpt lat="41.8960117" lon="13.172135"><ele>971.0</ele><time>2026-04-02T09:19:35.834Z</time></trkpt><trkpt lat="41.89603" lon="13.17231"><ele>971.0</ele><time>2026-04-02T09:19:36.834Z</time></trkpt><trkpt lat="41.896065" lon="13.17249"><ele>971.0</ele><time>2026-04-02T09:19:37.833Z</time></trkpt><trkpt lat="41.8961067" lon="13.1726383"><ele>971.0</ele><time>2026-04-02T09:19:38.833Z</time></trkpt><trkpt lat="41.89613" lon="13.1727633"><ele>975.5999999999999</ele><time>2026-04-02T09:19:39.833Z</time></trkpt><trkpt lat="41.8961433" lon="13.1728767"><ele>980.1999999999999</ele><time>2026-04-02T09:19:40.834Z</time></trkpt><trkpt lat="41.89613" lon="13.1729933"><ele>984.8000000000001</ele><time>2026-04-02T09:19:41.833Z</time></trkpt><trkpt lat="41.8960983" lon="13.173115"><ele>989.4000000000001</ele><time>2026-04-02T09:19:42.834Z</time></trkpt><trkpt lat="41.8960867" lon="13.173245"><ele>994.0</ele><time>2026-04-02T09:19:43.833Z</time></trkpt><trkpt lat="41.8960983" lon="13.1733683"><ele>994.8000000000001</ele><time>2026-04-02T09:19:44.834Z</time></trkpt><trkpt lat="41.89615" lon="13.17349"><ele>995.6000000000001</ele><time>2026-04-02T09:19:45.83Z</time></trkpt><trkpt lat="41.896225" lon="13.173605"><ele>996.4</ele><time>2026-04-02T09:19:46.834Z</time></trkpt><trkpt lat="41.8963067" lon="13.1737233"><ele>997.2</ele><time>2026-04-02T09:19:47.833Z</time></trkpt><trkpt lat="41.8963683" lon="13.1738383"><ele>998.0</ele><time>2026-04-02T09:19:48.833Z</time></trkpt><trkpt lat="41.8964033" lon="13.1739567"><ele>999.0</ele><time>2026-04-02T09:19:49.832Z</time></trkpt><trkpt lat="41.8964083" lon="13.1740767"><ele>1000.0</ele><time>2026-04-02T09:19:50.834Z</time></trkpt><trkpt lat="41.8963917" lon="13.1741983"><ele>1001.0</ele><time>2026-04-02T09:19:51.832Z</time></trkpt><trkpt lat="41.8963467" lon="13.1743283"><ele>1002.0</ele><time>2026-04-02T09:19:52.833Z</time></trkpt><trkpt lat="41.8962933" lon="13.1744667"><ele>1003.0</ele><time>2026-04-02T09:19:53.831Z</time></trkpt><trkpt lat="41.8962367" lon="13.174605"><ele>1003.0</ele><time>2026-04-02T09:19:54.833Z</time></trkpt><trkpt lat="41.896175" lon="13.1747467"><ele>1003.0</ele><time>2026-04-02T09:19:55.831Z</time></trkpt><trkpt lat="41.8961233" lon="13.17491"><ele>1003.0</ele><time>2026-04-02T09:19:56.832Z</time></trkpt><trkpt lat="41.8960833" lon="13.1751033"><ele>1003.0</ele><time>2026-04-02T09:19:57.833Z</time></trkpt><trkpt lat="41.89605" lon="13.1752983"><ele>1007.5</ele><time>2026-04-02T09:19:58.831Z</time></trkpt><trkpt lat="41.8960317" lon="13.1754933"><ele>1012.0</ele><time>2026-04-02T09:19:59.83Z</time></trkpt><trkpt lat="41.8960333" lon="13.17569"><ele>1016.5</ele><time>2026-04-02T09:20:00.833Z</time></trkpt><trkpt lat="41.8960333" lon="13.1758783"><ele>1021.0</ele><time>2026-04-02T09:20:01.834Z</time></trkpt><trkpt lat="41.8960117" lon="13.1760517"><ele>1023.5</ele><time>2026-04-02T09:20:02.829Z</time></trkpt><trkpt lat="41.895965" lon="13.17622"><ele>1026.0</ele><time>2026-04-02T09:20:03.828Z</time></trkpt><trkpt lat="41.8959083" lon="13.176395"><ele>1028.5</ele><time>2026-04-02T09:20:04.832Z</time></trkpt><trkpt lat="41.8958583" lon="13.1765817"><ele>1031.0</ele><time>2026-04-02T09:20:05.832Z</time></trkpt><trkpt lat="41.8958167" lon="13.176775"><ele>1026.75</ele><time>2026-04-02T09:20:06.834Z</time></trkpt><trkpt lat="41.89579" lon="13.1769617"><ele>1022.5</ele><time>2026-04-02T09:20:07.833Z</time></trkpt><trkpt lat="41.8957917" lon="13.177155"><ele>1018.25</ele><time>2026-04-02T09:20:08.832Z</time></trkpt><trkpt lat="41.8958067" lon="13.1773517"><ele>1014.0</ele><time>2026-04-02T09:20:09.834Z</time></trkpt><trkpt lat="41.8958067" lon="13.17754"><ele>1014.0</ele><time>2026-04-02T09:20:10.834Z</time></trkpt><trkpt lat="41.89579" lon="13.17771"><ele>1014.0</ele><time>2026-04-02T09:20:11.831Z</time></trkpt><trkpt lat="41.8957433" lon="13.17785"><ele>1014.0</ele><time>2026-04-02T09:20:12.834Z</time></trkpt><trkpt lat="41.8956717" lon="13.1779683"><ele>1014.0</ele><time>2026-04-02T09:20:13.834Z</time></trkpt><trkpt lat="41.8955867" lon="13.1780867"><ele>1018.25</ele><time>2026-04-02T09:20:14.832Z</time></trkpt><trkpt lat="41.895515" lon="13.1782183"><ele>1022.5</ele><time>2026-04-02T09:20:15.833Z</time></trkpt><trkpt lat="41.8954667" lon="13.1783683"><ele>1026.75</ele><time>2026-04-02T09:20:16.833Z</time></trkpt><trkpt lat="41.8954417" lon="13.17853"><ele>1031.0</ele><time>2026-04-02T09:20:17.831Z</time></trkpt><trkpt lat="41.8954333" lon="13.1787067"><ele>1031.0</ele><time>2026-04-02T09:20:18.835Z</time></trkpt><trkpt lat="41.8954367" lon="13.1788983"><ele>1031.0</ele><time>2026-04-02T09:20:19.833Z</time></trkpt><trkpt lat="41.89543" lon="13.1790933"><ele>1031.0</ele><time>2026-04-02T09:20:20.835Z</time></trkpt><trkpt lat="41.8954017" lon="13.17929"><ele>1031.0</ele><time>2026-04-02T09:20:21.829Z</time></trkpt><trkpt lat="41.8953583" lon="13.1794983"><ele>1034.6666666666667</ele><time>2026-04-02T09:20:22.834Z</time></trkpt><trkpt lat="41.89532" lon="13.1797333"><ele>1038.3333333333333</ele><time>2026-04-02T09:20:23.832Z</time></trkpt><trkpt lat="41.8952917" lon="13.1799683"><ele>1042.0</ele><time>2026-04-02T09:20:24.83Z</time></trkpt><trkpt lat="41.8952783" lon="13.1802033"><ele>1045.6666666666665</ele><time>2026-04-02T09:20:25.831Z</time></trkpt><trkpt lat="41.8952783" lon="13.18044"><ele>1049.3333333333333</ele><time>2026-04-02T09:20:26.832Z</time></trkpt><trkpt lat="41.8952967" lon="13.1806717"><ele>1053.0</ele><time>2026-04-02T09:20:27.832Z</time></trkpt><trkpt lat="41.8953383" lon="13.1808817"><ele>1053.75</ele><time>2026-04-02T09:20:28.833Z</time></trkpt><trkpt lat="41.8953783" lon="13.1810717"><ele>1054.5</ele><time>2026-04-02T09:20:29.83Z</time></trkpt><trkpt lat="41.895395" lon="13.18125"><ele>1055.25</ele><time>2026-04-02T09:20:30.83Z</time></trkpt><trkpt lat="41.8953817" lon="13.1814267"><ele>1056.0</ele><time>2026-04-02T09:20:31.831Z</time></trkpt><trkpt lat="41.895355" lon="13.1816133"><ele>1058.25</ele><time>2026-04-02T09:20:32.834Z</time></trkpt><trkpt lat="41.89534" lon="13.18181"><ele>1060.5</ele><time>2026-04-02T09:20:33.833Z</time></trkpt><trkpt lat="41.8953417" lon="13.1820117"><ele>1062.75</ele><time>2026-04-02T09:20:34.832Z</time></trkpt><trkpt lat="41.89536" lon="13.1822017"><ele>1065.0</ele><time>2026-04-02T09:20:35.833Z</time></trkpt><trkpt lat="41.8953783" lon="13.182365"><ele>1066.2</ele><time>2026-04-02T09:20:36.832Z</time></trkpt><trkpt lat="41.89537" lon="13.1825083"><ele>1067.4</ele><time>2026-04-02T09:20:37.834Z</time></trkpt><trkpt lat="41.89534" lon="13.18264"><ele>1068.6</ele><time>2026-04-02T09:20:38.834Z</time></trkpt><trkpt lat="41.8952817" lon="13.1827667"><ele>1069.8</ele><time>2026-04-02T09:20:39.832Z</time></trkpt><trkpt lat="41.89521" lon="13.1828933"><ele>1071.0</ele><time>2026-04-02T09:20:40.833Z</time></trkpt><trkpt lat="41.8951367" lon="13.1830317"><ele>1063.5</ele><time>2026-04-02T09:20:41.831Z</time></trkpt><trkpt lat="41.8950683" lon="13.1831833"><ele>1056.0</ele><time>2026-04-02T09:20:42.833Z</time></trkpt><trkpt lat="41.8950083" lon="13.1833433"><ele>1048.5</ele><time>2026-04-02T09:20:43.834Z</time></trkpt><trkpt lat="41.89497" lon="13.1835167"><ele>1041.0</ele><time>2026-04-02T09:20:44.834Z</time></trkpt><trkpt lat="41.8949583" lon="13.1837033"><ele>1041.0</ele><time>2026-04-02T09:20:45.831Z</time></trkpt><trkpt lat="41.8949567" lon="13.18389"><ele>1041.0</ele><time>2026-04-02T09:20:46.833Z</time></trkpt><trkpt lat="41.8949483" lon="13.184075"><ele>1041.0</ele><time>2026-04-02T09:20:47.834Z</time></trkpt><trkpt lat="41.89493" lon="13.184265"><ele>1041.0</ele><time>2026-04-02T09:20:48.829Z</time></trkpt><trkpt lat="41.89491" lon="13.1844683"><ele>1044.3333333333333</ele><time>2026-04-02T09:20:49.832Z</time></trkpt><trkpt lat="41.894895" lon="13.1846833"><ele>1047.6666666666665</ele><time>2026-04-02T09:20:50.832Z</time></trkpt><trkpt lat="41.8948883" lon="13.1849017"><ele>1051.0</ele><time>2026-04-02T09:20:51.835Z</time></trkpt><trkpt lat="41.8948983" lon="13.18512"><ele>1052.0</ele><time>2026-04-02T09:20:52.833Z</time></trkpt><trkpt lat="41.8949217" lon="13.185325"><ele>1053.0</ele><time>2026-04-02T09:20:53.832Z</time></trkpt><trkpt lat="41.8949633" lon="13.1855083"><ele>1054.0</ele><time>2026-04-02T09:20:54.833Z</time></trkpt><trkpt lat="41.8950283" lon="13.185675"><ele>1055.0</ele><time>2026-04-02T09:20:55.83Z</time></trkpt><trkpt lat="41.8951167" lon="13.1858333"><ele>1066.3333333333335</ele><time>2026-04-02T09:20:56.832Z</time></trkpt><trkpt lat="41.8952183" lon="13.1859917"><ele>1077.6666666666667</ele><time>2026-04-02T09:20:57.83Z</time></trkpt><trkpt lat="41.8953117" lon="13.18616"><ele>1089.0</ele><time>2026-04-02T09:20:58.832Z</time></trkpt><trkpt lat="41.8953833" lon="13.186345"><ele>1084.5</ele><time>2026-04-02T09:20:59.829Z</time></trkpt><trkpt lat="41.8954433" lon="13.186525"><ele>1080.0</ele><time>2026-04-02T09:21:00.832Z</time></trkpt><trkpt lat="41.895495" lon="13.1866917"><ele>1075.5</ele><time>2026-04-02T09:21:01.832Z</time></trkpt><trkpt lat="41.895555" lon="13.1868217"><ele>1071.0</ele><time>2026-04-02T09:21:02.833Z</time></trkpt><trkpt lat="41.895635" lon="13.1869167"><ele>1071.0</ele><time>2026-04-02T09:21:03.832Z</time></trkpt><trkpt lat="41.8957367" lon="13.1869933"><ele>1071.0</ele><time>2026-04-02T09:21:04.832Z</time></trkpt><trkpt lat="41.8958533" lon="13.1870567"><ele>1071.0</ele><time>2026-04-02T09:21:05.833Z</time></trkpt><trkpt lat="41.8959933" lon="13.18713"><ele>1071.0</ele><time>2026-04-02T09:21:06.833Z</time></trkpt><trkpt lat="41.896125" lon="13.1872283"><ele>1072.3333333333333</ele><time>2026-04-02T09:21:07.834Z</time></trkpt><trkpt lat="41.8962533" lon="13.18734"><ele>1073.6666666666665</ele><time>2026-04-02T09:21:08.834Z</time></trkpt><trkpt lat="41.896375" lon="13.1874733"><ele>1075.0</ele><time>2026-04-02T09:21:09.831Z</time></trkpt><trkpt lat="41.89649" lon="13.1876017"><ele>1075.0</ele><time>2026-04-02T09:21:10.836Z</time></trkpt><trkpt lat="41.8966067" lon="13.187715"><ele>1075.0</ele><time>2026-04-02T09:21:11.832Z</time></trkpt><trkpt lat="41.8967283" lon="13.1877983"><ele>1075.0</ele><time>2026-04-02T09:21:12.833Z</time></trkpt><trkpt lat="41.896835" lon="13.1878483"><ele>1075.0</ele><time>2026-04-02T09:21:13.832Z</time></trkpt><trkpt lat="41.89692" lon="13.18788"><ele>1080.2</ele><time>2026-04-02T09:21:14.834Z</time></trkpt><trkpt lat="41.8969867" lon="13.18791"><ele>1085.4</ele><time>2026-04-02T09:21:15.835Z</time></trkpt><trkpt lat="41.8970567" lon="13.188005"><ele>1090.6</ele><time>2026-04-02T09:21:17.833Z</time></trkpt><trkpt lat="41.897055" lon="13.1881517"><ele>1095.8</ele><time>2026-04-02T09:21:19.835Z</time></trkpt><trkpt lat="41.897005" lon="13.1882333"><ele>1101.0</ele><time>2026-04-02T09:21:20.834Z</time></trkpt><trkpt lat="41.8969083" lon="13.18832"><ele>1101.0</ele><time>2026-04-02T09:21:21.833Z</time></trkpt><trkpt lat="41.8967833" lon="13.1884133"><ele>1101.0</ele><time>2026-04-02T09:21:22.832Z</time></trkpt><trkpt lat="41.89667" lon="13.1885133"><ele>1101.0</ele><time>2026-04-02T09:21:23.835Z</time></trkpt><trkpt lat="41.8965483" lon="13.18861"><ele>1101.0</ele><time>2026-04-02T09:21:24.835Z</time></trkpt><trkpt lat="41.89643" lon="13.1887017"><ele>1090.6666666666667</ele><time>2026-04-02T09:21:25.834Z</time></trkpt><trkpt lat="41.8963017" lon="13.1887933"><ele>1080.3333333333335</ele><time>2026-04-02T09:21:26.834Z</time></trkpt><trkpt lat="41.8961617" lon="13.188885"><ele>1070.0</ele><time>2026-04-02T09:21:27.835Z</time></trkpt><trkpt lat="41.8960133" lon="13.1889867"><ele>1072.0</ele><time>2026-04-02T09:21:28.834Z</time></trkpt><trkpt lat="41.89587" lon="13.1890883"><ele>1074.0</ele><time>2026-04-02T09:21:29.833Z</time></trkpt><trkpt lat="41.8957383" lon="13.1892"><ele>1076.0</ele><time>2026-04-02T09:21:30.833Z</time></trkpt><trkpt lat="41.8956267" lon="13.1893167"><ele>1076.0</ele><time>2026-04-02T09:21:31.834Z</time></trkpt><trkpt lat="41.89553" lon="13.1894433"><ele>1076.0</ele><time>2026-04-02T09:21:32.835Z</time></trkpt><trkpt lat="41.895465" lon="13.1895933"><ele>1076.0</ele><time>2026-04-02T09:21:33.833Z</time></trkpt><trkpt lat="41.89542" lon="13.1897667"><ele>1076.0</ele><time>2026-04-02T09:21:34.832Z</time></trkpt><trkpt lat="41.8953917" lon="13.189965"><ele>1081.25</ele><time>2026-04-02T09:21:35.834Z</time></trkpt><trkpt lat="41.895375" lon="13.190165"><ele>1086.5</ele><time>2026-04-02T09:21:36.833Z</time></trkpt><trkpt lat="41.89537" lon="13.1903567"><ele>1091.75</ele><time>2026-04-02T09:21:37.832Z</time></trkpt><trkpt lat="41.8953833" lon="13.19055"><ele>1097.0</ele><time>2026-04-02T09:21:38.834Z</time></trkpt><trkpt lat="41.8954233" lon="13.190745"><ele>1098.3333333333335</ele><time>2026-04-02T09:21:39.834Z</time></trkpt><trkpt lat="41.8954917" lon="13.19094"><ele>1099.6666666666667</ele><time>2026-04-02T09:21:40.834Z</time></trkpt><trkpt lat="41.8955817" lon="13.19113"><ele>1101.0</ele><time>2026-04-02T09:21:41.833Z</time></trkpt><trkpt lat="41.89569" lon="13.191325"><ele>1096.6666666666667</ele><time>2026-04-02T09:21:42.832Z</time></trkpt><trkpt lat="41.8958083" lon="13.1915283"><ele>1092.3333333333335</ele><time>2026-04-02T09:21:43.831Z</time></trkpt><trkpt lat="41.8959217" lon="13.1917217"><ele>1088.0</ele><time>2026-04-02T09:21:44.832Z</time></trkpt><trkpt lat="41.8960267" lon="13.1919083"><ele>1095.0</ele><time>2026-04-02T09:21:45.834Z</time></trkpt><trkpt lat="41.8961183" lon="13.192095"><ele>1102.0</ele><time>2026-04-02T09:21:46.833Z</time></trkpt><trkpt lat="41.8962" lon="13.1922667"><ele>1109.0</ele><time>2026-04-02T09:21:47.831Z</time></trkpt><trkpt lat="41.89626" lon="13.1924167"><ele>1116.0</ele><time>2026-04-02T09:21:48.833Z</time></trkpt><trkpt lat="41.8962883" lon="13.1925483"><ele>1116.0</ele><time>2026-04-02T09:21:49.831Z</time></trkpt><trkpt lat="41.8962883" lon="13.1926767"><ele>1116.0</ele><time>2026-04-02T09:21:50.832Z</time></trkpt><trkpt lat="41.8962567" lon="13.1928017"><ele>1116.0</ele><time>2026-04-02T09:21:51.83Z</time></trkpt><trkpt lat="41.8962" lon="13.1929133"><ele>1116.0</ele><time>2026-04-02T09:21:52.833Z</time></trkpt><trkpt lat="41.8961133" lon="13.19301"><ele>1116.0</ele><time>2026-04-02T09:21:53.833Z</time></trkpt><trkpt lat="41.8960067" lon="13.193105"><ele>1111.3333333333333</ele><time>2026-04-02T09:21:54.835Z</time></trkpt><trkpt lat="41.8958867" lon="13.19321"><ele>1106.6666666666665</ele><time>2026-04-02T09:21:55.835Z</time></trkpt><trkpt lat="41.8957567" lon="13.19333"><ele>1102.0</ele><time>2026-04-02T09:21:56.834Z</time></trkpt><trkpt lat="41.8956167" lon="13.1934483"><ele>1102.0</ele><time>2026-04-02T09:21:57.834Z</time></trkpt><trkpt lat="41.89548" lon="13.1935533"><ele>1102.0</ele><time>2026-04-02T09:21:58.834Z</time></trkpt><trkpt lat="41.8953633" lon="13.1936483"><ele>1102.0</ele><time>2026-04-02T09:21:59.832Z</time></trkpt><trkpt lat="41.8952683" lon="13.19375"><ele>1102.0</ele><time>2026-04-02T09:22:00.833Z</time></trkpt><trkpt lat="41.8952033" lon="13.19388"><ele>1108.5</ele><time>2026-04-02T09:22:01.833Z</time></trkpt><trkpt lat="41.895155" lon="13.1940367"><ele>1115.0</ele><time>2026-04-02T09:22:02.834Z</time></trkpt><trkpt lat="41.8951383" lon="13.194225"><ele>1121.5</ele><time>2026-04-02T09:22:03.834Z</time></trkpt><trkpt lat="41.8951367" lon="13.1944333"><ele>1128.0</ele><time>2026-04-02T09:22:04.834Z</time></trkpt><trkpt lat="41.895155" lon="13.19466"><ele>1129.0</ele><time>2026-04-02T09:22:05.833Z</time></trkpt><trkpt lat="41.8951917" lon="13.19489"><ele>1130.0</ele><time>2026-04-02T09:22:06.836Z</time></trkpt><trkpt lat="41.895235" lon="13.1951067"><ele>1131.0</ele><time>2026-04-02T09:22:07.834Z</time></trkpt><trkpt lat="41.8952817" lon="13.1952933"><ele>1131.0</ele><time>2026-04-02T09:22:08.833Z</time></trkpt><trkpt lat="41.8953433" lon="13.1954583"><ele>1131.0</ele><time>2026-04-02T09:22:09.834Z</time></trkpt><trkpt lat="41.8954317" lon="13.195615"><ele>1131.0</ele><time>2026-04-02T09:22:10.832Z</time></trkpt><trkpt lat="41.8955617" lon="13.1957417"><ele>1131.0</ele><time>2026-04-02T09:22:11.832Z</time></trkpt><trkpt lat="41.895685" lon="13.195855"><ele>1128.6</ele><time>2026-04-02T09:22:12.832Z</time></trkpt><trkpt lat="41.8957817" lon="13.19596"><ele>1126.1999999999998</ele><time>2026-04-02T09:22:13.833Z</time></trkpt><trkpt lat="41.895845" lon="13.19606"><ele>1123.8000000000002</ele><time>2026-04-02T09:22:14.833Z</time></trkpt><trkpt lat="41.8958767" lon="13.196165"><ele>1121.4</ele><time>2026-04-02T09:22:15.834Z</time></trkpt><trkpt lat="41.8958867" lon="13.1962817"><ele>1119.0</ele><time>2026-04-02T09:22:16.834Z</time></trkpt><trkpt lat="41.8958617" lon="13.19642"><ele>1117.75</ele><time>2026-04-02T09:22:17.831Z</time></trkpt><trkpt lat="41.8958167" lon="13.196595"><ele>1116.5</ele><time>2026-04-02T09:22:18.832Z</time></trkpt><trkpt lat="41.8957833" lon="13.1967833"><ele>1115.25</ele><time>2026-04-02T09:22:19.831Z</time></trkpt><trkpt lat="41.89576" lon="13.1969583"><ele>1114.0</ele><time>2026-04-02T09:22:20.832Z</time></trkpt><trkpt lat="41.8957567" lon="13.197105"><ele>1114.0</ele><time>2026-04-02T09:22:21.83Z</time></trkpt><trkpt lat="41.8957817" lon="13.19723"><ele>1114.0</ele><time>2026-04-02T09:22:22.833Z</time></trkpt><trkpt lat="41.895825" lon="13.197335"><ele>1114.0</ele><time>2026-04-02T09:22:23.832Z</time></trkpt><trkpt lat="41.8958883" lon="13.197405"><ele>1114.0</ele><time>2026-04-02T09:22:24.833Z</time></trkpt><trkpt lat="41.8959483" lon="13.1974617"><ele>1114.0</ele><time>2026-04-02T09:22:25.833Z</time></trkpt><trkpt lat="41.8960783" lon="13.19746"><ele>1115.5</ele><time>2026-04-02T09:22:26.833Z</time></trkpt><trkpt lat="41.896205" lon="13.1974833"><ele>1117.0</ele><time>2026-04-02T09:22:27.835Z</time></trkpt><trkpt lat="41.89634" lon="13.19751"><ele>1118.5</ele><time>2026-04-02T09:22:28.834Z</time></trkpt><trkpt lat="41.89647" lon="13.1975233"><ele>1120.0</ele><time>2026-04-02T09:22:29.834Z</time></trkpt><trkpt lat="41.8965933" lon="13.1975117"><ele>1120.0</ele><time>2026-04-02T09:22:30.835Z</time></trkpt><trkpt lat="41.8967117" lon="13.1974583"><ele>1120.0</ele><time>2026-04-02T09:22:31.833Z</time></trkpt><trkpt lat="41.896815" lon="13.1973467"><ele>1120.0</ele><time>2026-04-02T09:22:32.834Z</time></trkpt><trkpt lat="41.8969133" lon="13.197205"><ele>1120.0</ele><time>2026-04-02T09:22:33.834Z</time></trkpt><trkpt lat="41.8970233" lon="13.19705"><ele>1123.6666666666665</ele><time>2026-04-02T09:22:34.833Z</time></trkpt><trkpt lat="41.8971433" lon="13.1968817"><ele>1127.3333333333333</ele><time>2026-04-02T09:22:35.831Z</time></trkpt><trkpt lat="41.89727" lon="13.1967067"><ele>1131.0</ele><time>2026-04-02T09:22:36.834Z</time></trkpt><trkpt lat="41.897395" lon="13.19653"><ele>1133.3333333333333</ele><time>2026-04-02T09:22:37.834Z</time></trkpt><trkpt lat="41.89752" lon="13.196355"><ele>1135.6666666666665</ele><time>2026-04-02T09:22:38.835Z</time></trkpt><trkpt lat="41.897655" lon="13.196185"><ele>1138.0</ele><time>2026-04-02T09:22:39.834Z</time></trkpt><trkpt lat="41.8978017" lon="13.196025"><ele>1138.0</ele><time>2026-04-02T09:22:40.834Z</time></trkpt><trkpt lat="41.897955" lon="13.1958567"><ele>1138.0</ele><time>2026-04-02T09:22:41.833Z</time></trkpt><trkpt lat="41.8981083" lon="13.1956733"><ele>1138.0</ele><time>2026-04-02T09:22:42.833Z</time></trkpt><trkpt lat="41.898255" lon="13.1954833"><ele>1142.6666666666665</ele><time>2026-04-02T09:22:43.83Z</time></trkpt><trkpt lat="41.8983967" lon="13.1953067"><ele>1147.3333333333333</ele><time>2026-04-02T09:22:44.834Z</time></trkpt><trkpt lat="41.89852" lon="13.1951433"><ele>1152.0</ele><time>2026-04-02T09:22:45.832Z</time></trkpt><trkpt lat="41.8986183" lon="13.1949817"><ele>1155.6666666666667</ele><time>2026-04-02T09:22:46.831Z</time></trkpt><trkpt lat="41.898695" lon="13.1948117"><ele>1159.3333333333335</ele><time>2026-04-02T09:22:47.834Z</time></trkpt><trkpt lat="41.8987617" lon="13.1946283"><ele>1163.0</ele><time>2026-04-02T09:22:48.834Z</time></trkpt><trkpt lat="41.8988317" lon="13.1944383"><ele>1163.0</ele><time>2026-04-02T09:22:49.834Z</time></trkpt><trkpt lat="41.8989217" lon="13.194255"><ele>1163.0</ele><time>2026-04-02T09:22:50.832Z</time></trkpt><trkpt lat="41.89902" lon="13.194085"><ele>1163.0</ele><time>2026-04-02T09:22:51.833Z</time></trkpt><trkpt lat="41.89913" lon="13.1939317"><ele>1167.3333333333335</ele><time>2026-04-02T09:22:52.832Z</time></trkpt><trkpt lat="41.89925" lon="13.1937933"><ele>1171.6666666666667</ele><time>2026-04-02T09:22:53.834Z</time></trkpt><trkpt lat="41.8993783" lon="13.1936683"><ele>1176.0</ele><time>2026-04-02T09:22:54.835Z</time></trkpt><trkpt lat="41.8995067" lon="13.1935583"><ele>1176.0</ele><time>2026-04-02T09:22:55.834Z</time></trkpt><trkpt lat="41.8996283" lon="13.1934667"><ele>1176.0</ele><time>2026-04-02T09:22:56.831Z</time></trkpt><trkpt lat="41.8997517" lon="13.1933967"><ele>1176.0</ele><time>2026-04-02T09:22:57.833Z</time></trkpt><trkpt lat="41.8998817" lon="13.193345"><ele>1176.0</ele><time>2026-04-02T09:22:58.833Z</time></trkpt><trkpt lat="41.9000183" lon="13.193315"><ele>1180.0</ele><time>2026-04-02T09:22:59.834Z</time></trkpt><trkpt lat="41.900165" lon="13.1932933"><ele>1184.0</ele><time>2026-04-02T09:23:00.834Z</time></trkpt><trkpt lat="41.900315" lon="13.193265"><ele>1188.0</ele><time>2026-04-02T09:23:01.832Z</time></trkpt><trkpt lat="41.9004717" lon="13.1932183"><ele>1191.25</ele><time>2026-04-02T09:23:02.835Z</time></trkpt><trkpt lat="41.9006183" lon="13.1931683"><ele>1194.5</ele><time>2026-04-02T09:23:03.833Z</time></trkpt><trkpt lat="41.9007533" lon="13.19313"><ele>1197.75</ele><time>2026-04-02T09:23:04.835Z</time></trkpt><trkpt lat="41.9008783" lon="13.1931"><ele>1201.0</ele><time>2026-04-02T09:23:05.832Z</time></trkpt><trkpt lat="41.9010017" lon="13.1930767"><ele>1200.5</ele><time>2026-04-02T09:23:06.833Z</time></trkpt><trkpt lat="41.90111" lon="13.193055"><ele>1200.0</ele><time>2026-04-02T09:23:07.833Z</time></trkpt><trkpt lat="41.901205" lon="13.1930467"><ele>1199.5</ele><time>2026-04-02T09:23:08.835Z</time></trkpt><trkpt lat="41.901285" lon="13.1930467"><ele>1199.0</ele><time>2026-04-02T09:23:09.832Z</time></trkpt><trkpt lat="41.9013467" lon="13.1930683"><ele>1198.5</ele><time>2026-04-02T09:23:10.831Z</time></trkpt><trkpt lat="41.901405" lon="13.193175"><ele>1198.0</ele><time>2026-04-02T09:23:12.831Z</time></trkpt><trkpt lat="41.9013633" lon="13.1933367"><ele>1198.0</ele><time>2026-04-02T09:23:14.834Z</time></trkpt><trkpt lat="41.9013267" lon="13.193415"><ele>1198.0</ele><time>2026-04-02T09:23:15.834Z</time></trkpt><trkpt lat="41.9012667" lon="13.1934933"><ele>1198.0</ele><time>2026-04-02T09:23:16.833Z</time></trkpt><trkpt lat="41.901185" lon="13.1935883"><ele>1198.0</ele><time>2026-04-02T09:23:17.833Z</time></trkpt><trkpt lat="41.9010767" lon="13.1936733"><ele>1198.0</ele><time>2026-04-02T09:23:18.833Z</time></trkpt><trkpt lat="41.900935" lon="13.19378"><ele>1199.4</ele><time>2026-04-02T09:23:19.832Z</time></trkpt><trkpt lat="41.900845" lon="13.19387"><ele>1200.8</ele><time>2026-04-02T09:23:20.835Z</time></trkpt><trkpt lat="41.9007533" lon="13.1939433"><ele>1202.2</ele><time>2026-04-02T09:23:21.833Z</time></trkpt><trkpt lat="41.9006683" lon="13.1940217"><ele>1203.6</ele><time>2026-04-02T09:23:22.831Z</time></trkpt><trkpt lat="41.9005767" lon="13.19411"><ele>1205.0</ele><time>2026-04-02T09:23:23.831Z</time></trkpt><trkpt lat="41.90049" lon="13.194205"><ele>1205.0</ele><time>2026-04-02T09:23:24.835Z</time></trkpt><trkpt lat="41.9003933" lon="13.1942933"><ele>1205.0</ele><time>2026-04-02T09:23:25.833Z</time></trkpt><trkpt lat="41.900295" lon="13.19439"><ele>1205.0</ele><time>2026-04-02T09:23:26.833Z</time></trkpt><trkpt lat="41.90021" lon="13.1945167"><ele>1205.0</ele><time>2026-04-02T09:23:27.833Z</time></trkpt><trkpt lat="41.9001333" lon="13.1946533"><ele>1200.75</ele><time>2026-04-02T09:23:28.833Z</time></trkpt><trkpt lat="41.9000683" lon="13.1948067"><ele>1196.5</ele><time>2026-04-02T09:23:29.833Z</time></trkpt><trkpt lat="41.9000233" lon="13.1949767"><ele>1192.25</ele><time>2026-04-02T09:23:30.835Z</time></trkpt><trkpt lat="41.8999883" lon="13.1951717"><ele>1188.0</ele><time>2026-04-02T09:23:31.834Z</time></trkpt><trkpt lat="41.899955" lon="13.1953917"><ele>1188.0</ele><time>2026-04-02T09:23:32.833Z</time></trkpt><trkpt lat="41.8999217" lon="13.1956333"><ele>1188.0</ele><time>2026-04-02T09:23:33.833Z</time></trkpt><trkpt lat="41.89988" lon="13.1958817"><ele>1188.0</ele><time>2026-04-02T09:23:34.833Z</time></trkpt><trkpt lat="41.8998317" lon="13.1961167"><ele>1192.0</ele><time>2026-04-02T09:23:35.834Z</time></trkpt><trkpt lat="41.899775" lon="13.1963533"><ele>1196.0</ele><time>2026-04-02T09:23:36.833Z</time></trkpt><trkpt lat="41.89971" lon="13.1965967"><ele>1200.0</ele><time>2026-04-02T09:23:37.831Z</time></trkpt><trkpt lat="41.8996433" lon="13.1968467"><ele>1205.6666666666667</ele><time>2026-04-02T09:23:38.833Z</time></trkpt><trkpt lat="41.8995783" lon="13.197085"><ele>1211.3333333333335</ele><time>2026-04-02T09:23:39.832Z</time></trkpt><trkpt lat="41.8995217" lon="13.197305"><ele>1217.0</ele><time>2026-04-02T09:23:40.831Z</time></trkpt><trkpt lat="41.8994733" lon="13.197505"><ele>1219.5</ele><time>2026-04-02T09:23:41.833Z</time></trkpt><trkpt lat="41.89944" lon="13.19768"><ele>1222.0</ele><time>2026-04-02T09:23:42.834Z</time></trkpt><trkpt lat="41.899435" lon="13.1978317"><ele>1224.5</ele><time>2026-04-02T09:23:43.834Z</time></trkpt><trkpt lat="41.8994617" lon="13.19797"><ele>1227.0</ele><time>2026-04-02T09:23:44.834Z</time></trkpt><trkpt lat="41.89953" lon="13.19811"><ele>1224.3333333333333</ele><time>2026-04-02T09:23:45.834Z</time></trkpt><trkpt lat="41.8996283" lon="13.1982417"><ele>1221.6666666666665</ele><time>2026-04-02T09:23:46.833Z</time></trkpt><trkpt lat="41.8997383" lon="13.1983833"><ele>1219.0</ele><time>2026-04-02T09:23:47.833Z</time></trkpt><trkpt lat="41.89986" lon="13.1985317"><ele>1219.0</ele><time>2026-04-02T09:23:48.833Z</time></trkpt><trkpt lat="41.8999933" lon="13.19867"><ele>1219.0</ele><time>2026-04-02T09:23:49.834Z</time></trkpt><trkpt lat="41.900135" lon="13.1987983"><ele>1219.0</ele><time>2026-04-02T09:23:50.834Z</time></trkpt><trkpt lat="41.9002783" lon="13.1989167"><ele>1220.0</ele><time>2026-04-02T09:23:51.833Z</time></trkpt><trkpt lat="41.9004267" lon="13.1990317"><ele>1221.0</ele><time>2026-04-02T09:23:52.833Z</time></trkpt><trkpt lat="41.9005767" lon="13.1991433"><ele>1222.0</ele><time>2026-04-02T09:23:53.833Z</time></trkpt><trkpt lat="41.9007217" lon="13.1992383"><ele>1222.0</ele><time>2026-04-02T09:23:54.833Z</time></trkpt><trkpt lat="41.9008567" lon="13.1993117"><ele>1222.0</ele><time>2026-04-02T09:23:55.834Z</time></trkpt><trkpt lat="41.900995" lon="13.19936"><ele>1222.0</ele><time>2026-04-02T09:23:56.833Z</time></trkpt><trkpt lat="41.9011383" lon="13.1994017"><ele>1222.0</ele><time>2026-04-02T09:23:57.834Z</time></trkpt><trkpt lat="41.9012667" lon="13.1994467"><ele>1226.2</ele><time>2026-04-02T09:23:58.833Z</time></trkpt><trkpt lat="41.90138" lon="13.199485"><ele>1230.4</ele><time>2026-04-02T09:23:59.833Z</time></trkpt><trkpt lat="41.901465" lon="13.19952"><ele>1234.6</ele><time>2026-04-02T09:24:00.834Z</time></trkpt><trkpt lat="41.9015367" lon="13.199535"><ele>1238.8</ele><time>2026-04-02T09:24:01.834Z</time></trkpt><trkpt lat="41.9016283" lon="13.19949"><ele>1243.0</ele><time>2026-04-02T09:24:03.834Z</time></trkpt><trkpt lat="41.9016" lon="13.1993667"><ele>1243.0</ele><time>2026-04-02T09:24:05.831Z</time></trkpt><trkpt lat="41.90151" lon="13.1992983"><ele>1243.0</ele><time>2026-04-02T09:24:06.832Z</time></trkpt><trkpt lat="41.9014" lon="13.1992333"><ele>1243.0</ele><time>2026-04-02T09:24:07.83Z</time></trkpt><trkpt lat="41.9012667" lon="13.1991733"><ele>1243.0</ele><time>2026-04-02T09:24:08.832Z</time></trkpt><trkpt lat="41.90111" lon="13.1991017"><ele>1243.0</ele><time>2026-04-02T09:24:09.832Z</time></trkpt><trkpt lat="41.90097" lon="13.1990133"><ele>1243.0</ele><time>2026-04-02T09:24:10.831Z</time></trkpt><trkpt lat="41.90083" lon="13.1989033"><ele>1243.0</ele><time>2026-04-02T09:24:11.835Z</time></trkpt><trkpt lat="41.9006933" lon="13.198745"><ele>1245.0</ele><time>2026-04-02T09:24:12.833Z</time></trkpt><trkpt lat="41.900565" lon="13.19858"><ele>1247.0</ele><time>2026-04-02T09:24:13.831Z</time></trkpt><trkpt lat="41.9004517" lon="13.1984183"><ele>1249.0</ele><time>2026-04-02T09:24:14.831Z</time></trkpt><trkpt lat="41.90036" lon="13.1982367"><ele>1253.75</ele><time>2026-04-02T09:24:15.832Z</time></trkpt><trkpt lat="41.900285" lon="13.1980633"><ele>1258.5</ele><time>2026-04-02T09:24:16.832Z</time></trkpt><trkpt lat="41.9002333" lon="13.1979133"><ele>1263.25</ele><time>2026-04-02T09:24:17.831Z</time></trkpt><trkpt lat="41.9002067" lon="13.197765"><ele>1268.0</ele><time>2026-04-02T09:24:18.83Z</time></trkpt><trkpt lat="41.9002117" lon="13.1976083"><ele>1268.0</ele><time>2026-04-02T09:24:19.834Z</time></trkpt><trkpt lat="41.9002417" lon="13.19744"><ele>1268.0</ele><time>2026-04-02T09:24:20.834Z</time></trkpt><trkpt lat="41.900305" lon="13.1972617"><ele>1268.0</ele><time>2026-04-02T09:24:21.834Z</time></trkpt><trkpt lat="41.9003833" lon="13.1970617"><ele>1268.0</ele><time>2026-04-02T09:24:22.834Z</time></trkpt><trkpt lat="41.9004717" lon="13.1968583"><ele>1266.0</ele><time>2026-04-02T09:24:23.832Z</time></trkpt><trkpt lat="41.90056" lon="13.1966617"><ele>1264.0</ele><time>2026-04-02T09:24:24.835Z</time></trkpt><trkpt lat="41.90065" lon="13.1964517"><ele>1262.0</ele><time>2026-04-02T09:24:25.834Z</time></trkpt><trkpt lat="41.900735" lon="13.1962283"><ele>1257.3333333333335</ele><time>2026-04-02T09:24:26.834Z</time></trkpt><trkpt lat="41.9008083" lon="13.19602"><ele>1252.6666666666667</ele><time>2026-04-02T09:24:27.834Z</time></trkpt><trkpt lat="41.900885" lon="13.1958383"><ele>1248.0</ele><time>2026-04-02T09:24:28.831Z</time></trkpt><trkpt lat="41.900975" lon="13.1956817"><ele>1251.0</ele><time>2026-04-02T09:24:29.831Z</time></trkpt><trkpt lat="41.9010817" lon="13.1955483"><ele>1254.0</ele><time>2026-04-02T09:24:30.832Z</time></trkpt><trkpt lat="41.9012033" lon="13.195435"><ele>1257.0</ele><time>2026-04-02T09:24:31.83Z</time></trkpt><trkpt lat="41.90134" lon="13.1953317"><ele>1257.0</ele><time>2026-04-02T09:24:32.831Z</time></trkpt><trkpt lat="41.9014817" lon="13.1952267"><ele>1257.0</ele><time>2026-04-02T09:24:33.83Z</time></trkpt><trkpt lat="41.9016167" lon="13.195115"><ele>1257.0</ele><time>2026-04-02T09:24:34.829Z</time></trkpt><trkpt lat="41.901745" lon="13.195015"><ele>1251.75</ele><time>2026-04-02T09:24:35.833Z</time></trkpt><trkpt lat="41.901875" lon="13.1949367"><ele>1246.5</ele><time>2026-04-02T09:24:36.831Z</time></trkpt><trkpt lat="41.9020133" lon="13.1948817"><ele>1241.25</ele><time>2026-04-02T09:24:37.831Z</time></trkpt><trkpt lat="41.90216" lon="13.1948417"><ele>1236.0</ele><time>2026-04-02T09:24:38.832Z</time></trkpt><trkpt lat="41.902315" lon="13.1948233"><ele>1236.0</ele><time>2026-04-02T09:24:39.83Z</time></trkpt><trkpt lat="41.9024633" lon="13.19483"><ele>1236.0</ele><time>2026-04-02T09:24:40.831Z</time></trkpt><trkpt lat="41.9025967" lon="13.1948667"><ele>1236.0</ele><time>2026-04-02T09:24:41.832Z</time></trkpt><trkpt lat="41.9027233" lon="13.1949433"><ele>1236.0</ele><time>2026-04-02T09:24:42.832Z</time></trkpt><trkpt lat="41.902845" lon="13.19505"><ele>1244.6666666666667</ele><time>2026-04-02T09:24:43.831Z</time></trkpt><trkpt lat="41.902965" lon="13.195175"><ele>1253.3333333333335</ele><time>2026-04-02T09:24:44.832Z</time></trkpt><trkpt lat="41.9030933" lon="13.195315"><ele>1262.0</ele><time>2026-04-02T09:24:45.834Z</time></trkpt><trkpt lat="41.9032317" lon="13.1954667"><ele>1262.0</ele><time>2026-04-02T09:24:46.832Z</time></trkpt><trkpt lat="41.9033883" lon="13.1956133"><ele>1262.0</ele><time>2026-04-02T09:24:47.834Z</time></trkpt><trkpt lat="41.9035567" lon="13.1957667"><ele>1262.0</ele><time>2026-04-02T09:24:48.833Z</time></trkpt><trkpt lat="41.9037267" lon="13.195925"><ele>1267.6666666666667</ele><time>2026-04-02T09:24:49.833Z</time></trkpt><trkpt lat="41.903885" lon="13.1960833"><ele>1273.3333333333333</ele><time>2026-04-02T09:24:50.832Z</time></trkpt><trkpt lat="41.9040317" lon="13.1962"><ele>1279.0</ele><time>2026-04-02T09:24:51.833Z</time></trkpt><trkpt lat="41.9041683" lon="13.1963067"><ele>1276.6666666666665</ele><time>2026-04-02T09:24:52.831Z</time></trkpt><trkpt lat="41.9043167" lon="13.1963883"><ele>1274.3333333333333</ele><time>2026-04-02T09:24:53.833Z</time></trkpt><trkpt lat="41.9044767" lon="13.1964533"><ele>1272.0</ele><time>2026-04-02T09:24:54.832Z</time></trkpt><trkpt lat="41.9046417" lon="13.196515"><ele>1283.0</ele><time>2026-04-02T09:24:55.832Z</time></trkpt><trkpt lat="41.9048167" lon="13.1965733"><ele>1294.0</ele><time>2026-04-02T09:24:56.83Z</time></trkpt><trkpt lat="41.905" lon="13.196615"><ele>1305.0</ele><time>2026-04-02T09:24:57.831Z</time></trkpt><trkpt lat="41.9051883" lon="13.1966483"><ele>1306.3333333333333</ele><time>2026-04-02T09:24:58.832Z</time></trkpt><trkpt lat="41.905375" lon="13.1966733"><ele>1307.6666666666665</ele><time>2026-04-02T09:24:59.83Z</time></trkpt><trkpt lat="41.9055433" lon="13.196705"><ele>1309.0</ele><time>2026-04-02T09:25:00.831Z</time></trkpt><trkpt lat="41.9057" lon="13.1967317"><ele>1309.0</ele><time>2026-04-02T09:25:01.831Z</time></trkpt><trkpt lat="41.9058483" lon="13.1967417"><ele>1309.0</ele><time>2026-04-02T09:25:02.831Z</time></trkpt><trkpt lat="41.9059883" lon="13.19674"><ele>1309.0</ele><time>2026-04-02T09:25:03.832Z</time></trkpt><trkpt lat="41.90612" lon="13.1967133"><ele>1309.0</ele><time>2026-04-02T09:25:04.834Z</time></trkpt><trkpt lat="41.9062483" lon="13.196665"><ele>1309.25</ele><time>2026-04-02T09:25:05.829Z</time></trkpt><trkpt lat="41.9063767" lon="13.196605"><ele>1309.5</ele><time>2026-04-02T09:25:06.834Z</time></trkpt><trkpt lat="41.9065067" lon="13.1965333"><ele>1309.75</ele><time>2026-04-02T09:25:07.834Z</time></trkpt><trkpt lat="41.90664" lon="13.196465"><ele>1310.0</ele><time>2026-04-02T09:25:08.834Z</time></trkpt><trkpt lat="41.9067817" lon="13.1964033"><ele>1310.0</ele><time>2026-04-02T09:25:09.833Z</time></trkpt><trkpt lat="41.906935" lon="13.1963517"><ele>1310.0</ele><time>2026-04-02T09:25:10.833Z</time></trkpt><trkpt lat="41.9071033" lon="13.1963033"><ele>1310.0</ele><time>2026-04-02T09:25:11.834Z</time></trkpt><trkpt lat="41.9072717" lon="13.19627"><ele>1310.0</ele><time>2026-04-02T09:25:12.834Z</time></trkpt><trkpt lat="41.9074233" lon="13.1962517"><ele>1310.0</ele><time>2026-04-02T09:25:13.833Z</time></trkpt><trkpt lat="41.9075617" lon="13.196255"><ele>1310.0</ele><time>2026-04-02T09:25:14.833Z</time></trkpt><trkpt lat="41.907685" lon="13.1962833"><ele>1310.0</ele><time>2026-04-02T09:25:15.831Z</time></trkpt><trkpt lat="41.9078083" lon="13.1963533"><ele>1312.2</ele><time>2026-04-02T09:25:16.831Z</time></trkpt><trkpt lat="41.9079267" lon="13.1964367"><ele>1314.4</ele><time>2026-04-02T09:25:17.832Z</time></trkpt><trkpt lat="41.9080333" lon="13.19652"><ele>1316.6</ele><time>2026-04-02T09:25:18.833Z</time></trkpt><trkpt lat="41.9081283" lon="13.1965767"><ele>1318.8</ele><time>2026-04-02T09:25:19.833Z</time></trkpt><trkpt lat="41.9082067" lon="13.196595"><ele>1321.0</ele><time>2026-04-02T09:25:20.832Z</time></trkpt><trkpt lat="41.9082783" lon="13.1966017"><ele>1321.0</ele><time>2026-04-02T09:25:21.832Z</time></trkpt><trkpt lat="41.90838" lon="13.1965017"><ele>1321.0</ele><time>2026-04-02T09:25:23.831Z</time></trkpt><trkpt lat="41.90842" lon="13.19637"><ele>1321.0</ele><time>2026-04-02T09:25:24.837Z</time></trkpt><trkpt lat="41.9084683" lon="13.1962217"><ele>1321.0</ele><time>2026-04-02T09:25:25.833Z</time></trkpt><trkpt lat="41.9085283" lon="13.1960817"><ele>1324.5</ele><time>2026-04-02T09:25:26.833Z</time></trkpt><trkpt lat="41.908615" lon="13.1959717"><ele>1328.0</ele><time>2026-04-02T09:25:27.835Z</time></trkpt><trkpt lat="41.9087233" lon="13.1958917"><ele>1331.5</ele><time>2026-04-02T09:25:28.833Z</time></trkpt><trkpt lat="41.9088383" lon="13.1958517"><ele>1335.0</ele><time>2026-04-02T09:25:29.834Z</time></trkpt><trkpt lat="41.9089417" lon="13.19585"><ele>1335.0</ele><time>2026-04-02T09:25:30.835Z</time></trkpt><trkpt lat="41.9090333" lon="13.1958967"><ele>1335.0</ele><time>2026-04-02T09:25:31.833Z</time></trkpt><trkpt lat="41.909115" lon="13.1959767"><ele>1335.0</ele><time>2026-04-02T09:25:32.836Z</time></trkpt><trkpt lat="41.90919" lon="13.1960767"><ele>1335.0</ele><time>2026-04-02T09:25:33.834Z</time></trkpt><trkpt lat="41.909265" lon="13.1961717"><ele>1335.0</ele><time>2026-04-02T09:25:34.835Z</time></trkpt><trkpt lat="41.9093383" lon="13.1962433"><ele>1337.3333333333333</ele><time>2026-04-02T09:25:35.834Z</time></trkpt><trkpt lat="41.90941" lon="13.1962883"><ele>1339.6666666666667</ele><time>2026-04-02T09:25:36.833Z</time></trkpt><trkpt lat="41.9094767" lon="13.1963117"><ele>1342.0</ele><time>2026-04-02T09:25:37.833Z</time></trkpt><trkpt lat="41.909535" lon="13.1962717"><ele>1344.3333333333335</ele><time>2026-04-02T09:25:38.834Z</time></trkpt><trkpt lat="41.9095833" lon="13.1961883"><ele>1346.6666666666667</ele><time>2026-04-02T09:25:39.833Z</time></trkpt><trkpt lat="41.909625" lon="13.196055"><ele>1349.0</ele><time>2026-04-02T09:25:40.834Z</time></trkpt><trkpt lat="41.909685" lon="13.1959167"><ele>1349.0</ele><time>2026-04-02T09:25:41.831Z</time></trkpt><trkpt lat="41.9097717" lon="13.1958117"><ele>1349.0</ele><time>2026-04-02T09:25:42.836Z</time></trkpt><trkpt lat="41.9098667" lon="13.1957467"><ele>1349.0</ele><time>2026-04-02T09:25:43.833Z</time></trkpt><trkpt lat="41.9099817" lon="13.195725"><ele>1349.0</ele><time>2026-04-02T09:25:44.833Z</time></trkpt><trkpt lat="41.91011" lon="13.1957117"><ele>1349.3333333333335</ele><time>2026-04-02T09:25:45.833Z</time></trkpt><trkpt lat="41.9102533" lon="13.1956833"><ele>1349.6666666666667</ele><time>2026-04-02T09:25:46.833Z</time></trkpt><trkpt lat="41.910405" lon="13.1956383"><ele>1350.0</ele><time>2026-04-02T09:25:47.833Z</time></trkpt><trkpt lat="41.91056" lon="13.1955783"><ele>1350.0</ele><time>2026-04-02T09:25:48.832Z</time></trkpt><trkpt lat="41.910705" lon="13.1955033"><ele>1350.0</ele><time>2026-04-02T09:25:49.835Z</time></trkpt><trkpt lat="41.9108383" lon="13.19543"><ele>1350.0</ele><time>2026-04-02T09:25:50.835Z</time></trkpt><trkpt lat="41.9109533" lon="13.195335"><ele>1350.0</ele><time>2026-04-02T09:25:51.834Z</time></trkpt><trkpt lat="41.91106" lon="13.1952283"><ele>1350.5</ele><time>2026-04-02T09:25:52.834Z</time></trkpt><trkpt lat="41.9111667" lon="13.1951217"><ele>1351.0</ele><time>2026-04-02T09:25:53.834Z</time></trkpt><trkpt lat="41.9112733" lon="13.1950083"><ele>1351.5</ele><time>2026-04-02T09:25:54.834Z</time></trkpt><trkpt lat="41.9113883" lon="13.1949033"><ele>1352.0</ele><time>2026-04-02T09:25:55.835Z</time></trkpt><trkpt lat="41.9115133" lon="13.1947917"><ele>1352.0</ele><time>2026-04-02T09:25:56.834Z</time></trkpt><trkpt lat="41.9116517" lon="13.194665"><ele>1352.0</ele><time>2026-04-02T09:25:57.833Z</time></trkpt><trkpt lat="41.9117833" lon="13.1945333"><ele>1352.0</ele><time>2026-04-02T09:25:58.835Z</time></trkpt><trkpt lat="41.911905" lon="13.1944033"><ele>1357.3333333333335</ele><time>2026-04-02T09:25:59.835Z</time></trkpt><trkpt lat="41.91203" lon="13.1942867"><ele>1362.6666666666667</ele><time>2026-04-02T09:26:00.833Z</time></trkpt><trkpt lat="41.9121633" lon="13.1941817"><ele>1368.0</ele><time>2026-04-02T09:26:01.834Z</time></trkpt><trkpt lat="41.9123033" lon="13.1941033"><ele>1368.0</ele><time>2026-04-02T09:26:02.834Z</time></trkpt><trkpt lat="41.912455" lon="13.1940533"><ele>1368.0</ele><time>2026-04-02T09:26:03.834Z</time></trkpt><trkpt lat="41.9126017" lon="13.1940283"><ele>1368.0</ele><time>2026-04-02T09:26:04.833Z</time></trkpt><trkpt lat="41.9127283" lon="13.1939983"><ele>1368.0</ele><time>2026-04-02T09:26:05.835Z</time></trkpt><trkpt lat="41.9128317" lon="13.19396"><ele>1371.0</ele><time>2026-04-02T09:26:06.833Z</time></trkpt><trkpt lat="41.91291" lon="13.19389"><ele>1374.0</ele><time>2026-04-02T09:26:07.831Z</time></trkpt><trkpt lat="41.912965" lon="13.1937883"><ele>1377.0</ele><time>2026-04-02T09:26:08.832Z</time></trkpt><trkpt lat="41.913" lon="13.1936683"><ele>1380.0</ele><time>2026-04-02T09:26:09.834Z</time></trkpt><trkpt lat="41.9130167" lon="13.1935333"><ele>1383.0</ele><time>2026-04-02T09:26:10.834Z</time></trkpt><trkpt lat="41.9130233" lon="13.1933883"><ele>1383.0</ele><time>2026-04-02T09:26:11.833Z</time></trkpt><trkpt lat="41.9130333" lon="13.1932483"><ele>1383.0</ele><time>2026-04-02T09:26:12.834Z</time></trkpt><trkpt lat="41.9130467" lon="13.1931"><ele>1383.0</ele><time>2026-04-02T09:26:13.833Z</time></trkpt><trkpt lat="41.91307" lon="13.19295"><ele>1383.0</ele><time>2026-04-02T09:26:14.833Z</time></trkpt><trkpt lat="41.91312" lon="13.1928067"><ele>1383.0</ele><time>2026-04-02T09:26:15.835Z</time></trkpt><trkpt lat="41.9131983" lon="13.1926717"><ele>1381.0</ele><time>2026-04-02T09:26:16.831Z</time></trkpt><trkpt lat="41.9132817" lon="13.1925383"><ele>1379.0</ele><time>2026-04-02T09:26:17.833Z</time></trkpt><trkpt lat="41.91336" lon="13.1923833"><ele>1377.0</ele><time>2026-04-02T09:26:18.829Z</time></trkpt><trkpt lat="41.913435" lon="13.1922167"><ele>1375.0</ele><time>2026-04-02T09:26:19.834Z</time></trkpt><trkpt lat="41.9135117" lon="13.1920583"><ele>1379.25</ele><time>2026-04-02T09:26:20.833Z</time></trkpt><trkpt lat="41.9135983" lon="13.19192"><ele>1383.5</ele><time>2026-04-02T09:26:21.833Z</time></trkpt><trkpt lat="41.9137033" lon="13.1918183"><ele>1387.75</ele><time>2026-04-02T09:26:22.834Z</time></trkpt><trkpt lat="41.9138217" lon="13.19175"><ele>1392.0</ele><time>2026-04-02T09:26:23.834Z</time></trkpt><trkpt lat="41.9139533" lon="13.19171"><ele>1392.0</ele><time>2026-04-02T09:26:24.833Z</time></trkpt><trkpt lat="41.9141" lon="13.19168"><ele>1392.0</ele><time>2026-04-02T09:26:25.833Z</time></trkpt><trkpt lat="41.9142433" lon="13.1916517"><ele>1392.0</ele><time>2026-04-02T09:26:26.834Z</time></trkpt><trkpt lat="41.9143683" lon="13.1916233"><ele>1392.0</ele><time>2026-04-02T09:26:27.833Z</time></trkpt><trkpt lat="41.9144733" lon="13.1915967"><ele>1393.0</ele><time>2026-04-02T09:26:28.833Z</time></trkpt><trkpt lat="41.91455" lon="13.1915717"><ele>1394.0</ele><time>2026-04-02T09:26:29.833Z</time></trkpt><trkpt lat="41.9146133" lon="13.1915417"><ele>1395.0</ele><time>2026-04-02T09:26:30.833Z</time></trkpt><trkpt lat="41.9146867" lon="13.1914417"><ele>1396.0</ele><time>2026-04-02T09:26:32.834Z</time></trkpt><trkpt lat="41.9146517" lon="13.191285"><ele>1397.0</ele><time>2026-04-02T09:26:34.832Z</time></trkpt><trkpt lat="41.9145733" lon="13.1911983"><ele>1397.0</ele><time>2026-04-02T09:26:35.83Z</time></trkpt><trkpt lat="41.914515" lon="13.1911083"><ele>1397.0</ele><time>2026-04-02T09:26:36.831Z</time></trkpt><trkpt lat="41.91442" lon="13.1910133"><ele>1397.0</ele><time>2026-04-02T09:26:37.835Z</time></trkpt><trkpt lat="41.9143167" lon="13.1909"><ele>1397.0</ele><time>2026-04-02T09:26:38.83Z</time></trkpt><trkpt lat="41.9142083" lon="13.1908383"><ele>1396.8</ele><time>2026-04-02T09:26:39.833Z</time></trkpt><trkpt lat="41.9141433" lon="13.19078"><ele>1396.6</ele><time>2026-04-02T09:26:40.833Z</time></trkpt><trkpt lat="41.9141167" lon="13.1906717"><ele>1396.3999999999999</ele><time>2026-04-02T09:26:42.835Z</time></trkpt><trkpt lat="41.9142133" lon="13.1906317"><ele>1396.1999999999998</ele><time>2026-04-02T09:26:44.831Z</time></trkpt><trkpt lat="41.9143517" lon="13.19059"><ele>1396.0</ele><time>2026-04-02T09:26:46.833Z</time></trkpt><trkpt lat="41.9144483" lon="13.1905783"><ele>1396.0</ele><time>2026-04-02T09:26:47.831Z</time></trkpt><trkpt lat="41.9146033" lon="13.1906433"><ele>1396.0</ele><time>2026-04-02T09:26:48.83Z</time></trkpt><trkpt lat="41.9147433" lon="13.1906967"><ele>1396.0</ele><time>2026-04-02T09:26:49.829Z</time></trkpt><trkpt lat="41.91488" lon="13.1907283"><ele>1396.0</ele><time>2026-04-02T09:26:50.832Z</time></trkpt><trkpt lat="41.915" lon="13.19075"><ele>1400.5</ele><time>2026-04-02T09:26:51.832Z</time></trkpt><trkpt lat="41.9151283" lon="13.1907383"><ele>1405.0</ele><time>2026-04-02T09:26:52.834Z</time></trkpt><trkpt lat="41.9152417" lon="13.19069"><ele>1409.5</ele><time>2026-04-02T09:26:53.831Z</time></trkpt><trkpt lat="41.9153367" lon="13.1905717"><ele>1414.0</ele><time>2026-04-02T09:26:54.833Z</time></trkpt><trkpt lat="41.9153933" lon="13.190435"><ele>1414.0</ele><time>2026-04-02T09:26:55.832Z</time></trkpt><trkpt lat="41.9154417" lon="13.1902417"><ele>1414.0</ele><time>2026-04-02T09:26:56.831Z</time></trkpt><trkpt lat="41.9154533" lon="13.1900783"><ele>1414.0</ele><time>2026-04-02T09:26:57.834Z</time></trkpt><trkpt lat="41.9154483" lon="13.189915"><ele>1414.0</ele><time>2026-04-02T09:26:58.833Z</time></trkpt><trkpt lat="41.9154567" lon="13.18976"><ele>1413.25</ele><time>2026-04-02T09:26:59.833Z</time></trkpt><trkpt lat="41.9154817" lon="13.1895967"><ele>1412.5</ele><time>2026-04-02T09:27:00.833Z</time></trkpt><trkpt lat="41.9155217" lon="13.1894183"><ele>1411.75</ele><time>2026-04-02T09:27:01.834Z</time></trkpt><trkpt lat="41.9155717" lon="13.18924"><ele>1411.0</ele><time>2026-04-02T09:27:02.831Z</time></trkpt><trkpt lat="41.9156367" lon="13.189045"><ele>1408.6666666666665</ele><time>2026-04-02T09:27:03.835Z</time></trkpt><trkpt lat="41.915715" lon="13.188835"><ele>1406.3333333333333</ele><time>2026-04-02T09:27:04.833Z</time></trkpt><trkpt lat="41.9158017" lon="13.1886283"><ele>1404.0</ele><time>2026-04-02T09:27:05.833Z</time></trkpt><trkpt lat="41.9158917" lon="13.1884067"><ele>1410.0</ele><time>2026-04-02T09:27:06.833Z</time></trkpt><trkpt lat="41.9159833" lon="13.1881867"><ele>1416.0</ele><time>2026-04-02T09:27:07.834Z</time></trkpt><trkpt lat="41.916075" lon="13.1879783"><ele>1422.0</ele><time>2026-04-02T09:27:08.833Z</time></trkpt><trkpt lat="41.9161617" lon="13.1877883"><ele>1422.0</ele><time>2026-04-02T09:27:09.834Z</time></trkpt><trkpt lat="41.9162333" lon="13.1875967"><ele>1422.0</ele><time>2026-04-02T09:27:10.834Z</time></trkpt><trkpt lat="41.9162983" lon="13.187395"><ele>1422.0</ele><time>2026-04-02T09:27:11.832Z</time></trkpt><trkpt lat="41.9163533" lon="13.1872"><ele>1420.5</ele><time>2026-04-02T09:27:12.832Z</time></trkpt><trkpt lat="41.916405" lon="13.18701"><ele>1419.0</ele><time>2026-04-02T09:27:13.834Z</time></trkpt><trkpt lat="41.9164517" lon="13.1868467"><ele>1417.5</ele><time>2026-04-02T09:27:14.834Z</time></trkpt><trkpt lat="41.91648" lon="13.18671"><ele>1416.0</ele><time>2026-04-02T09:27:15.834Z</time></trkpt><trkpt lat="41.9164833" lon="13.1865817"><ele>1415.8</ele><time>2026-04-02T09:27:16.832Z</time></trkpt><trkpt lat="41.9164467" lon="13.1864517"><ele>1415.6</ele><time>2026-04-02T09:27:17.829Z</time></trkpt><trkpt lat="41.916395" lon="13.1863267"><ele>1415.4</ele><time>2026-04-02T09:27:18.832Z</time></trkpt><trkpt lat="41.916355" lon="13.186195"><ele>1415.2</ele><time>2026-04-02T09:27:19.832Z</time></trkpt><trkpt lat="41.9163317" lon="13.1860617"><ele>1415.0</ele><time>2026-04-02T09:27:20.829Z</time></trkpt><trkpt lat="41.9163283" lon="13.1859367"><ele>1415.0</ele><time>2026-04-02T09:27:21.83Z</time></trkpt><trkpt lat="41.9163383" lon="13.185825"><ele>1415.0</ele><time>2026-04-02T09:27:22.831Z</time></trkpt><trkpt lat="41.9163583" lon="13.1857283"><ele>1415.0</ele><time>2026-04-02T09:27:23.831Z</time></trkpt><trkpt lat="41.9163983" lon="13.1856517"><ele>1415.0</ele><time>2026-04-02T09:27:24.832Z</time></trkpt><trkpt lat="41.9164633" lon="13.1855933"><ele>1415.0</ele><time>2026-04-02T09:27:25.83Z</time></trkpt><trkpt lat="41.9165367" lon="13.1855333"><ele>1415.0</ele><time>2026-04-02T09:27:26.83Z</time></trkpt><trkpt lat="41.916625" lon="13.1854567"><ele>1415.5</ele><time>2026-04-02T09:27:27.83Z</time></trkpt><trkpt lat="41.9167117" lon="13.1853533"><ele>1416.0</ele><time>2026-04-02T09:27:28.83Z</time></trkpt><trkpt lat="41.9167867" lon="13.1852267"><ele>1416.5</ele><time>2026-04-02T09:27:29.834Z</time></trkpt><trkpt lat="41.9168633" lon="13.1850983"><ele>1417.0</ele><time>2026-04-02T09:27:30.832Z</time></trkpt><trkpt lat="41.9169517" lon="13.18497"><ele>1416.25</ele><time>2026-04-02T09:27:31.832Z</time></trkpt><trkpt lat="41.9170517" lon="13.1848517"><ele>1415.5</ele><time>2026-04-02T09:27:32.834Z</time></trkpt><trkpt lat="41.9171617" lon="13.1847267"><ele>1414.75</ele><time>2026-04-02T09:27:33.832Z</time></trkpt><trkpt lat="41.917255" lon="13.1846"><ele>1414.0</ele><time>2026-04-02T09:27:34.832Z</time></trkpt><trkpt lat="41.9173383" lon="13.1844617"><ele>1414.0</ele><time>2026-04-02T09:27:35.834Z</time></trkpt><trkpt lat="41.9173967" lon="13.1843017"><ele>1414.0</ele><time>2026-04-02T09:27:36.833Z</time></trkpt><trkpt lat="41.9174433" lon="13.1841183"><ele>1414.0</ele><time>2026-04-02T09:27:37.833Z</time></trkpt><trkpt lat="41.9174917" lon="13.1839233"><ele>1414.0</ele><time>2026-04-02T09:27:38.834Z</time></trkpt><trkpt lat="41.917555" lon="13.1837333"><ele>1413.3333333333333</ele><time>2026-04-02T09:27:39.833Z</time></trkpt><trkpt lat="41.9176333" lon="13.183535"><ele>1412.6666666666667</ele><time>2026-04-02T09:27:40.834Z</time></trkpt><trkpt lat="41.917705" lon="13.1833233"><ele>1412.0</ele><time>2026-04-02T09:27:41.833Z</time></trkpt><trkpt lat="41.91778" lon="13.183115"><ele>1412.0</ele><time>2026-04-02T09:27:42.834Z</time></trkpt><trkpt lat="41.9178467" lon="13.18291"><ele>1412.0</ele><time>2026-04-02T09:27:43.834Z</time></trkpt><trkpt lat="41.9179217" lon="13.1827067"><ele>1412.0</ele><time>2026-04-02T09:27:44.832Z</time></trkpt><trkpt lat="41.918005" lon="13.182505"><ele>1414.3333333333335</ele><time>2026-04-02T09:27:45.834Z</time></trkpt><trkpt lat="41.9180917" lon="13.182305"><ele>1416.6666666666667</ele><time>2026-04-02T09:27:46.833Z</time></trkpt><trkpt lat="41.918175" lon="13.182115"><ele>1419.0</ele><time>2026-04-02T09:27:47.833Z</time></trkpt><trkpt lat="41.91826" lon="13.1819267"><ele>1419.0</ele><time>2026-04-02T09:27:48.829Z</time></trkpt><trkpt lat="41.918335" lon="13.1817383"><ele>1419.0</ele><time>2026-04-02T09:27:49.832Z</time></trkpt><trkpt lat="41.9184067" lon="13.1815583"><ele>1419.0</ele><time>2026-04-02T09:27:50.832Z</time></trkpt><trkpt lat="41.9184867" lon="13.1813933"><ele>1418.5</ele><time>2026-04-02T09:27:51.83Z</time></trkpt><trkpt lat="41.9185733" lon="13.181245"><ele>1418.0</ele><time>2026-04-02T09:27:52.832Z</time></trkpt><trkpt lat="41.9186683" lon="13.1811017"><ele>1417.5</ele><time>2026-04-02T09:27:53.831Z</time></trkpt><trkpt lat="41.9187917" lon="13.1809667"><ele>1417.0</ele><time>2026-04-02T09:27:54.832Z</time></trkpt><trkpt lat="41.91893" lon="13.1808317"><ele>1417.0</ele><time>2026-04-02T09:27:55.831Z</time></trkpt><trkpt lat="41.9190683" lon="13.1806917"><ele>1417.0</ele><time>2026-04-02T09:27:56.831Z</time></trkpt><trkpt lat="41.9191967" lon="13.180545"><ele>1417.0</ele><time>2026-04-02T09:27:57.831Z</time></trkpt><trkpt lat="41.9193217" lon="13.18041"><ele>1415.6666666666665</ele><time>2026-04-02T09:27:58.831Z</time></trkpt><trkpt lat="41.9194417" lon="13.1802733"><ele>1414.3333333333333</ele><time>2026-04-02T09:27:59.834Z</time></trkpt><trkpt lat="41.9195617" lon="13.1801417"><ele>1413.0</ele><time>2026-04-02T09:28:00.832Z</time></trkpt><trkpt lat="41.9196733" lon="13.180025"><ele>1413.0</ele><time>2026-04-02T09:28:01.835Z</time></trkpt><trkpt lat="41.9197717" lon="13.1799267"><ele>1413.0</ele><time>2026-04-02T09:28:02.832Z</time></trkpt><trkpt lat="41.919855" lon="13.1798417"><ele>1413.0</ele><time>2026-04-02T09:28:03.833Z</time></trkpt><trkpt lat="41.919935" lon="13.1797633"><ele>1413.0</ele><time>2026-04-02T09:28:04.834Z</time></trkpt><trkpt lat="41.9200167" lon="13.1796983"><ele>1413.0</ele><time>2026-04-02T09:28:05.833Z</time></trkpt><trkpt lat="41.920095" lon="13.1796367"><ele>1410.8333333333333</ele><time>2026-04-02T09:28:06.833Z</time></trkpt><trkpt lat="41.9201717" lon="13.1795867"><ele>1408.6666666666667</ele><time>2026-04-02T09:28:07.834Z</time></trkpt><trkpt lat="41.9202383" lon="13.1795433"><ele>1406.5</ele><time>2026-04-02T09:28:08.834Z</time></trkpt><trkpt lat="41.9202933" lon="13.1795017"><ele>1404.3333333333335</ele><time>2026-04-02T09:28:09.833Z</time></trkpt><trkpt lat="41.9203717" lon="13.179445"><ele>1402.1666666666667</ele><time>2026-04-02T09:28:11.832Z</time></trkpt><trkpt lat="41.92041" lon="13.179335"><ele>1400.0</ele><time>2026-04-02T09:28:15.831Z</time></trkpt><trkpt lat="41.920425" lon="13.1792217"><ele>1400.0</ele><time>2026-04-02T09:28:17.831Z</time></trkpt><trkpt lat="41.9204267" lon="13.1790967"><ele>1400.0</ele><time>2026-04-02T09:28:19.832Z</time></trkpt><trkpt lat="41.9204183" lon="13.17896"><ele>1400.0</ele><time>2026-04-02T09:28:21.832Z</time></trkpt><trkpt lat="41.9204233" lon="13.1788633"><ele>1400.0</ele><time>2026-04-02T09:28:23.832Z</time></trkpt><trkpt lat="41.9204483" lon="13.1787833"><ele>1400.0</ele><time>2026-04-02T09:28:25.83Z</time></trkpt><trkpt lat="41.9204967" lon="13.178695"><ele>1400.0</ele><time>2026-04-02T09:28:27.83Z</time></trkpt><trkpt lat="41.9205483" lon="13.1785983"><ele>1400.4285714285713</ele><time>2026-04-02T09:28:29.834Z</time></trkpt><trkpt lat="41.92059" lon="13.1785183"><ele>1400.857142857143</ele><time>2026-04-02T09:28:31.834Z</time></trkpt><trkpt lat="41.9206417" lon="13.1784633"><ele>1401.2857142857142</ele><time>2026-04-02T09:28:47.829Z</time></trkpt><trkpt lat="41.9206633" lon="13.1783717"><ele>1401.7142857142858</ele><time>2026-04-02T09:30:12.832Z</time></trkpt><trkpt lat="41.9206967" lon="13.178285"><ele>1402.142857142857</ele><time>2026-04-02T09:30:14.833Z</time></trkpt><trkpt lat="41.9207267" lon="13.1782"><ele>1402.5714285714284</ele><time>2026-04-02T09:30:17.832Z</time></trkpt><trkpt lat="41.9207633" lon="13.178115"><ele>1403.0</ele><time>2026-04-02T09:30:20.833Z</time></trkpt><trkpt lat="41.92074" lon="13.1782217"><ele>1403.1666666666667</ele><time>2026-04-02T09:30:33.83Z</time></trkpt><trkpt lat="41.9207283" lon="13.1783183"><ele>1403.3333333333335</ele><time>2026-04-02T09:30:35.832Z</time></trkpt><trkpt lat="41.9206883" lon="13.178415"><ele>1403.5</ele><time>2026-04-02T09:30:37.833Z</time></trkpt><trkpt lat="41.92064" lon="13.1785167"><ele>1403.6666666666667</ele><time>2026-04-02T09:30:39.829Z</time></trkpt><trkpt lat="41.9205983" lon="13.1785933"><ele>1403.8333333333333</ele><time>2026-04-02T09:30:41.831Z</time></trkpt><trkpt lat="41.920555" lon="13.1786617"><ele>1404.0</ele><time>2026-04-02T09:30:43.832Z</time></trkpt><trkpt lat="41.920495" lon="13.1787283"><ele>1404.0</ele><time>2026-04-02T09:30:45.83Z</time></trkpt><trkpt lat="41.9204383" lon="13.1788033"><ele>1404.0</ele><time>2026-04-02T09:30:47.83Z</time></trkpt><trkpt lat="41.9204217" lon="13.178895"><ele>1404.0</ele><time>2026-04-02T09:30:49.832Z</time></trkpt><trkpt lat="41.92042" lon="13.17903"><ele>1404.0</ele><time>2026-04-02T09:30:51.829Z</time></trkpt><trkpt lat="41.9204217" lon="13.1791233"><ele>1404.0</ele><time>2026-04-02T09:30:52.831Z</time></trkpt><trkpt lat="41.9204217" lon="13.1792083"><ele>1404.0</ele><time>2026-04-02T09:30:53.831Z</time></trkpt><trkpt lat="41.9204217" lon="13.1793317"><ele>1403.3333333333333</ele><time>2026-04-02T09:30:55.831Z</time></trkpt><trkpt lat="41.9204633" lon="13.1794217"><ele>1402.6666666666667</ele><time>2026-04-02T09:30:58.83Z</time></trkpt><trkpt lat="41.92054" lon="13.1794283"><ele>1402.0</ele><time>2026-04-02T09:31:00.831Z</time></trkpt><trkpt lat="41.92063" lon="13.1794"><ele>1401.3333333333335</ele><time>2026-04-02T09:31:02.833Z</time></trkpt><trkpt lat="41.920695" lon="13.1793633"><ele>1400.6666666666667</ele><time>2026-04-02T09:31:04.833Z</time></trkpt><trkpt lat="41.9207567" lon="13.1793017"><ele>1400.0</ele><time>2026-04-02T09:32:43.833Z</time></trkpt><trkpt lat="41.9208283" lon="13.1791983"><ele>1400.0</ele><time>2026-04-02T09:32:46.832Z</time></trkpt><trkpt lat="41.9209133" lon="13.17913"><ele>1400.0</ele><time>2026-04-02T09:32:48.831Z</time></trkpt><trkpt lat="41.9209783" lon="13.1790917"><ele>1400.0</ele><time>2026-04-02T09:32:49.832Z</time></trkpt><trkpt lat="41.9210433" lon="13.179055"><ele>1400.0</ele><time>2026-04-02T09:32:50.832Z</time></trkpt><trkpt lat="41.921105" lon="13.17901"><ele>1400.0</ele><time>2026-04-02T09:32:51.832Z</time></trkpt><trkpt lat="41.9211767" lon="13.1789617"><ele>1400.0</ele><time>2026-04-02T09:32:52.832Z</time></trkpt><trkpt lat="41.9212633" lon="13.1789067"><ele>1400.0</ele><time>2026-04-02T09:32:53.831Z</time></trkpt><trkpt lat="41.9213567" lon="13.1788517"><ele>1400.0</ele><time>2026-04-02T09:32:54.832Z</time></trkpt><trkpt lat="41.92145" lon="13.1787967"><ele>1400.0</ele><time>2026-04-02T09:32:55.833Z</time></trkpt><trkpt lat="41.92155" lon="13.178735"><ele>1400.0</ele><time>2026-04-02T09:32:56.833Z</time></trkpt><trkpt lat="41.92166" lon="13.1786683"><ele>1400.0</ele><time>2026-04-02T09:32:57.832Z</time></trkpt><trkpt lat="41.921775" lon="13.1785983"><ele>1399.75</ele><time>2026-04-02T09:32:58.833Z</time></trkpt><trkpt lat="41.9218967" lon="13.1785267"><ele>1399.5</ele><time>2026-04-02T09:32:59.833Z</time></trkpt><trkpt lat="41.922015" lon="13.1784533"><ele>1399.25</ele><time>2026-04-02T09:33:00.832Z</time></trkpt><trkpt lat="41.922135" lon="13.178385"><ele>1399.0</ele><time>2026-04-02T09:33:01.834Z</time></trkpt><trkpt lat="41.9222567" lon="13.17831"><ele>1399.0</ele><time>2026-04-02T09:33:02.833Z</time></trkpt><trkpt lat="41.9223867" lon="13.1782333"><ele>1399.0</ele><time>2026-04-02T09:33:03.833Z</time></trkpt><trkpt lat="41.92252" lon="13.1781533"><ele>1399.0</ele><time>2026-04-02T09:33:04.832Z</time></trkpt><trkpt lat="41.9226583" lon="13.1780667"><ele>1399.0</ele><time>2026-04-02T09:33:05.833Z</time></trkpt><trkpt lat="41.9227983" lon="13.1779783"><ele>1398.0</ele><time>2026-04-02T09:33:06.832Z</time></trkpt><trkpt lat="41.92294" lon="13.1778917"><ele>1397.0</ele><time>2026-04-02T09:33:07.833Z</time></trkpt><trkpt lat="41.9230833" lon="13.1778083"><ele>1396.0</ele><time>2026-04-02T09:33:08.833Z</time></trkpt><trkpt lat="41.9232283" lon="13.17772"><ele>1396.0</ele><time>2026-04-02T09:33:09.832Z</time></trkpt><trkpt lat="41.9233667" lon="13.1776333"><ele>1396.0</ele><time>2026-04-02T09:33:10.831Z</time></trkpt><trkpt lat="41.9234983" lon="13.1775483"><ele>1396.0</ele><time>2026-04-02T09:33:11.833Z</time></trkpt><trkpt lat="41.9236283" lon="13.1774617"><ele>1396.0</ele><time>2026-04-02T09:33:12.833Z</time></trkpt><trkpt lat="41.92376" lon="13.1773733"><ele>1398.0</ele><time>2026-04-02T09:33:13.832Z</time></trkpt><trkpt lat="41.9238967" lon="13.177285"><ele>1400.0</ele><time>2026-04-02T09:33:14.833Z</time></trkpt><trkpt lat="41.924035" lon="13.1771967"><ele>1402.0</ele><time>2026-04-02T09:33:15.832Z</time></trkpt><trkpt lat="41.9241767" lon="13.17711"><ele>1403.6666666666665</ele><time>2026-04-02T09:33:16.835Z</time></trkpt><trkpt lat="41.9243183" lon="13.1770233"><ele>1405.3333333333333</ele><time>2026-04-02T09:33:17.833Z</time></trkpt><trkpt lat="41.9244617" lon="13.1769333"><ele>1407.0</ele><time>2026-04-02T09:33:18.833Z</time></trkpt><trkpt lat="41.924605" lon="13.176845"><ele>1407.0</ele><time>2026-04-02T09:33:19.832Z</time></trkpt><trkpt lat="41.9247533" lon="13.176755"><ele>1407.0</ele><time>2026-04-02T09:33:20.834Z</time></trkpt><trkpt lat="41.9249017" lon="13.176665"><ele>1407.0</ele><time>2026-04-02T09:33:21.834Z</time></trkpt><trkpt lat="41.9250433" lon="13.1765783"><ele>1407.5</ele><time>2026-04-02T09:33:22.832Z</time></trkpt><trkpt lat="41.9251717" lon="13.1765017"><ele>1408.0</ele><time>2026-04-02T09:33:23.832Z</time></trkpt><trkpt lat="41.9252883" lon="13.17644"><ele>1408.5</ele><time>2026-04-02T09:33:24.833Z</time></trkpt><trkpt lat="41.9254067" lon="13.1763983"><ele>1409.0</ele><time>2026-04-02T09:33:25.833Z</time></trkpt><trkpt lat="41.92553" lon="13.1763817"><ele>1409.0</ele><time>2026-04-02T09:33:26.833Z</time></trkpt><trkpt lat="41.9256533" lon="13.1763833"><ele>1409.0</ele><time>2026-04-02T09:33:27.831Z</time></trkpt><trkpt lat="41.9257867" lon="13.1763783"><ele>1409.0</ele><time>2026-04-02T09:33:28.833Z</time></trkpt><trkpt lat="41.9259217" lon="13.176365"><ele>1409.0</ele><time>2026-04-02T09:33:29.829Z</time></trkpt><trkpt lat="41.9260383" lon="13.1763283"><ele>1413.0</ele><time>2026-04-02T09:33:30.832Z</time></trkpt><trkpt lat="41.926145" lon="13.176275"><ele>1417.0</ele><time>2026-04-02T09:33:31.833Z</time></trkpt><trkpt lat="41.9262433" lon="13.1761917"><ele>1421.0</ele><time>2026-04-02T09:33:32.831Z</time></trkpt><trkpt lat="41.9263167" lon="13.1760683"><ele>1425.0</ele><time>2026-04-02T09:33:33.831Z</time></trkpt><trkpt lat="41.9263833" lon="13.175925"><ele>1425.0</ele><time>2026-04-02T09:33:34.832Z</time></trkpt><trkpt lat="41.9264433" lon="13.175775"><ele>1425.0</ele><time>2026-04-02T09:33:35.832Z</time></trkpt><trkpt lat="41.9265" lon="13.1756117"><ele>1425.0</ele><time>2026-04-02T09:33:36.833Z</time></trkpt><trkpt lat="41.9265517" lon="13.1754483"><ele>1425.0</ele><time>2026-04-02T09:33:37.832Z</time></trkpt><trkpt lat="41.9265833" lon="13.1752933"><ele>1423.4</ele><time>2026-04-02T09:33:38.832Z</time></trkpt><trkpt lat="41.9265917" lon="13.1751383"><ele>1421.8</ele><time>2026-04-02T09:33:39.831Z</time></trkpt><trkpt lat="41.9265917" lon="13.1749883"><ele>1420.1999999999998</ele><time>2026-04-02T09:33:40.832Z</time></trkpt><trkpt lat="41.9265983" lon="13.1748383"><ele>1418.6</ele><time>2026-04-02T09:33:41.834Z</time></trkpt><trkpt lat="41.9266333" lon="13.1747"><ele>1417.0</ele><time>2026-04-02T09:33:42.833Z</time></trkpt><trkpt lat="41.926695" lon="13.174595"><ele>1418.3999999999999</ele><time>2026-04-02T09:33:43.832Z</time></trkpt><trkpt lat="41.926775" lon="13.1745333"><ele>1419.8</ele><time>2026-04-02T09:33:44.831Z</time></trkpt><trkpt lat="41.9268617" lon="13.1745133"><ele>1421.2</ele><time>2026-04-02T09:33:45.832Z</time></trkpt><trkpt lat="41.926955" lon="13.174515"><ele>1422.6</ele><time>2026-04-02T09:33:46.833Z</time></trkpt><trkpt lat="41.9270567" lon="13.174515"><ele>1424.0</ele><time>2026-04-02T09:33:47.832Z</time></trkpt><trkpt lat="41.9271567" lon="13.1745017"><ele>1424.0</ele><time>2026-04-02T09:33:48.83Z</time></trkpt><trkpt lat="41.927265" lon="13.1744417"><ele>1424.0</ele><time>2026-04-02T09:33:49.831Z</time></trkpt><trkpt lat="41.92737" lon="13.174335"><ele>1424.0</ele><time>2026-04-02T09:33:50.831Z</time></trkpt><trkpt lat="41.927465" lon="13.174185"><ele>1424.0</ele><time>2026-04-02T09:33:51.829Z</time></trkpt><trkpt lat="41.9275367" lon="13.174"><ele>1428.3333333333335</ele><time>2026-04-02T09:33:52.829Z</time></trkpt><trkpt lat="41.92759" lon="13.1738"><ele>1432.6666666666667</ele><time>2026-04-02T09:33:53.83Z</time></trkpt><trkpt lat="41.9276467" lon="13.1736017"><ele>1437.0</ele><time>2026-04-02T09:33:54.832Z</time></trkpt><trkpt lat="41.9277" lon="13.173395"><ele>1437.0</ele><time>2026-04-02T09:33:55.833Z</time></trkpt><trkpt lat="41.9277433" lon="13.17319"><ele>1437.0</ele><time>2026-04-02T09:33:56.834Z</time></trkpt><trkpt lat="41.9277967" lon="13.1729983"><ele>1437.0</ele><time>2026-04-02T09:33:57.834Z</time></trkpt><trkpt lat="41.9278517" lon="13.1728267"><ele>1435.0</ele><time>2026-04-02T09:33:58.833Z</time></trkpt><trkpt lat="41.9279117" lon="13.1726733"><ele>1433.0</ele><time>2026-04-02T09:33:59.834Z</time></trkpt><trkpt lat="41.9279933" lon="13.1725517"><ele>1431.0</ele><time>2026-04-02T09:34:00.835Z</time></trkpt><trkpt lat="41.9280917" lon="13.1724433"><ele>1429.0</ele><time>2026-04-02T09:34:01.832Z</time></trkpt><trkpt lat="41.9282" lon="13.172345"><ele>1427.4</ele><time>2026-04-02T09:34:02.832Z</time></trkpt><trkpt lat="41.928305" lon="13.1722467"><ele>1425.8000000000002</ele><time>2026-04-02T09:34:03.834Z</time></trkpt><trkpt lat="41.9283917" lon="13.17214"><ele>1424.1999999999998</ele><time>2026-04-02T09:34:04.833Z</time></trkpt><trkpt lat="41.9284533" lon="13.1720283"><ele>1422.6</ele><time>2026-04-02T09:34:05.834Z</time></trkpt><trkpt lat="41.92849" lon="13.171905"><ele>1421.0</ele><time>2026-04-02T09:34:06.832Z</time></trkpt><trkpt lat="41.928495" lon="13.1717583"><ele>1425.25</ele><time>2026-04-02T09:34:07.83Z</time></trkpt><trkpt lat="41.9284683" lon="13.1716133"><ele>1429.5</ele><time>2026-04-02T09:34:08.835Z</time></trkpt><trkpt lat="41.9284433" lon="13.17147"><ele>1433.75</ele><time>2026-04-02T09:34:09.834Z</time></trkpt><trkpt lat="41.92843" lon="13.171315"><ele>1438.0</ele><time>2026-04-02T09:34:10.834Z</time></trkpt><trkpt lat="41.9284283" lon="13.1711483"><ele>1438.0</ele><time>2026-04-02T09:34:11.832Z</time></trkpt><trkpt lat="41.9284517" lon="13.1709833"><ele>1438.0</ele><time>2026-04-02T09:34:12.835Z</time></trkpt><trkpt lat="41.92849" lon="13.1708317"><ele>1438.0</ele><time>2026-04-02T09:34:13.833Z</time></trkpt><trkpt lat="41.9285467" lon="13.1707"><ele>1438.0</ele><time>2026-04-02T09:34:14.833Z</time></trkpt><trkpt lat="41.9286217" lon="13.170585"><ele>1433.75</ele><time>2026-04-02T09:34:15.834Z</time></trkpt><trkpt lat="41.9287167" lon="13.1704867"><ele>1429.5</ele><time>2026-04-02T09:34:16.834Z</time></trkpt><trkpt lat="41.9288283" lon="13.1703983"><ele>1425.25</ele><time>2026-04-02T09:34:17.833Z</time></trkpt><trkpt lat="41.92895" lon="13.1703133"><ele>1421.0</ele><time>2026-04-02T09:34:18.831Z</time></trkpt><trkpt lat="41.9290767" lon="13.170235"><ele>1421.0</ele><time>2026-04-02T09:34:19.831Z</time></trkpt><trkpt lat="41.9292083" lon="13.17018"><ele>1421.0</ele><time>2026-04-02T09:34:20.832Z</time></trkpt><trkpt lat="41.9293383" lon="13.170145"><ele>1421.0</ele><time>2026-04-02T09:34:21.832Z</time></trkpt><trkpt lat="41.92946" lon="13.1701283"><ele>1421.0</ele><time>2026-04-02T09:34:22.831Z</time></trkpt><trkpt lat="41.92957" lon="13.170125"><ele>1423.8333333333335</ele><time>2026-04-02T09:34:23.829Z</time></trkpt><trkpt lat="41.9296583" lon="13.170135"><ele>1426.6666666666667</ele><time>2026-04-02T09:34:24.834Z</time></trkpt><trkpt lat="41.9297333" lon="13.170125"><ele>1429.5</ele><time>2026-04-02T09:34:25.831Z</time></trkpt><trkpt lat="41.9298133" lon="13.1700283"><ele>1432.3333333333333</ele><time>2026-04-02T09:34:27.831Z</time></trkpt><trkpt lat="41.9298333" lon="13.1699467"><ele>1435.1666666666665</ele><time>2026-04-02T09:34:28.834Z</time></trkpt><trkpt lat="41.9298167" lon="13.1698633"><ele>1438.0</ele><time>2026-04-02T09:34:29.831Z</time></trkpt><trkpt lat="41.92974" lon="13.1697817"><ele>1441.25</ele><time>2026-04-02T09:34:30.835Z</time></trkpt><trkpt lat="41.9296417" lon="13.1697133"><ele>1444.5</ele><time>2026-04-02T09:34:31.831Z</time></trkpt><trkpt lat="41.92955" lon="13.16963"><ele>1447.75</ele><time>2026-04-02T09:34:32.833Z</time></trkpt><trkpt lat="41.929435" lon="13.169535"><ele>1451.0</ele><time>2026-04-02T09:34:33.831Z</time></trkpt><trkpt lat="41.929335" lon="13.1694483"><ele>1451.0</ele><time>2026-04-02T09:34:34.831Z</time></trkpt><trkpt lat="41.9292333" lon="13.16936"><ele>1451.0</ele><time>2026-04-02T09:34:35.834Z</time></trkpt><trkpt lat="41.9291233" lon="13.169265"><ele>1451.0</ele><time>2026-04-02T09:34:36.834Z</time></trkpt><trkpt lat="41.929015" lon="13.1691567"><ele>1451.0</ele><time>2026-04-02T09:34:37.833Z</time></trkpt><trkpt lat="41.928905" lon="13.1690517"><ele>1447.25</ele><time>2026-04-02T09:34:38.834Z</time></trkpt><trkpt lat="41.9288017" lon="13.1689383"><ele>1443.5</ele><time>2026-04-02T09:34:39.834Z</time></trkpt><trkpt lat="41.9287367" lon="13.168815"><ele>1439.75</ele><time>2026-04-02T09:34:40.833Z</time></trkpt><trkpt lat="41.9287067" lon="13.16868"><ele>1436.0</ele><time>2026-04-02T09:34:41.833Z</time></trkpt><trkpt lat="41.9287117" lon="13.1685367"><ele>1436.0</ele><time>2026-04-02T09:34:42.833Z</time></trkpt><trkpt lat="41.9287417" lon="13.1683867"><ele>1436.0</ele><time>2026-04-02T09:34:43.832Z</time></trkpt><trkpt lat="41.92879" lon="13.168235"><ele>1436.0</ele><time>2026-04-02T09:34:44.832Z</time></trkpt><trkpt lat="41.9288417" lon="13.1680667"><ele>1436.0</ele><time>2026-04-02T09:34:45.834Z</time></trkpt><trkpt lat="41.9288967" lon="13.1678867"><ele>1435.0</ele><time>2026-04-02T09:34:46.833Z</time></trkpt><trkpt lat="41.9289567" lon="13.1676933"><ele>1434.0</ele><time>2026-04-02T09:34:47.831Z</time></trkpt><trkpt lat="41.92901" lon="13.1674933"><ele>1433.0</ele><time>2026-04-02T09:34:48.831Z</time></trkpt><trkpt lat="41.9290567" lon="13.1672917"><ele>1430.3333333333335</ele><time>2026-04-02T09:34:49.829Z</time></trkpt><trkpt lat="41.9291033" lon="13.1670867"><ele>1427.6666666666667</ele><time>2026-04-02T09:34:50.831Z</time></trkpt><trkpt lat="41.9291533" lon="13.1668867"><ele>1425.0</ele><time>2026-04-02T09:34:51.833Z</time></trkpt><trkpt lat="41.9292017" lon="13.1667133"><ele>1427.4</ele><time>2026-04-02T09:34:52.831Z</time></trkpt><trkpt lat="41.9292533" lon="13.16658"><ele>1429.8</ele><time>2026-04-02T09:34:53.83Z</time></trkpt><trkpt lat="41.9293083" lon="13.166495"><ele>1432.1999999999998</ele><time>2026-04-02T09:34:54.834Z</time></trkpt><trkpt lat="41.9293683" lon="13.1664383"><ele>1434.6</ele><time>2026-04-02T09:34:55.832Z</time></trkpt><trkpt lat="41.9294883" lon="13.1664283"><ele>1437.0</ele><time>2026-04-02T09:34:57.833Z</time></trkpt><trkpt lat="41.929555" lon="13.166445"><ele>1437.0</ele><time>2026-04-02T09:34:58.834Z</time></trkpt><trkpt lat="41.9296283" lon="13.1664817"><ele>1437.0</ele><time>2026-04-02T09:34:59.833Z</time></trkpt><trkpt lat="41.9297067" lon="13.1665417"><ele>1437.0</ele><time>2026-04-02T09:35:00.834Z</time></trkpt><trkpt lat="41.9298117" lon="13.1666633"><ele>1437.0</ele><time>2026-04-02T09:35:01.833Z</time></trkpt><trkpt lat="41.92992" lon="13.1667667"><ele>1437.0</ele><time>2026-04-02T09:35:02.83Z</time></trkpt><trkpt lat="41.9300217" lon="13.1668583"><ele>1442.0</ele><time>2026-04-02T09:35:03.83Z</time></trkpt><trkpt lat="41.930115" lon="13.1669267"><ele>1447.0</ele><time>2026-04-02T09:35:04.829Z</time></trkpt><trkpt lat="41.9301983" lon="13.16697"><ele>1452.0</ele><time>2026-04-02T09:35:05.833Z</time></trkpt><trkpt lat="41.930265" lon="13.1670083"><ele>1457.0</ele><time>2026-04-02T09:35:06.83Z</time></trkpt><trkpt lat="41.9303717" lon="13.1670483"><ele>1462.0</ele><time>2026-04-02T09:35:08.83Z</time></trkpt><trkpt lat="41.9304183" lon="13.1669083"><ele>1462.0</ele><time>2026-04-02T09:35:10.831Z</time></trkpt><trkpt lat="41.9304117" lon="13.1667833"><ele>1462.0</ele><time>2026-04-02T09:35:11.832Z</time></trkpt><trkpt lat="41.9303833" lon="13.16661"><ele>1462.0</ele><time>2026-04-02T09:35:12.832Z</time></trkpt><trkpt lat="41.9303617" lon="13.166435"><ele>1462.0</ele><time>2026-04-02T09:35:13.83Z</time></trkpt><trkpt lat="41.930315" lon="13.166225"><ele>1461.6666666666665</ele><time>2026-04-02T09:35:14.833Z</time></trkpt><trkpt lat="41.93027" lon="13.1660233"><ele>1461.3333333333333</ele><time>2026-04-02T09:35:15.834Z</time></trkpt><trkpt lat="41.9302283" lon="13.16582"><ele>1461.0</ele><time>2026-04-02T09:35:16.834Z</time></trkpt><trkpt lat="41.930185" lon="13.16561"><ele>1461.0</ele><time>2026-04-02T09:35:17.831Z</time></trkpt><trkpt lat="41.9301533" lon="13.165415"><ele>1461.0</ele><time>2026-04-02T09:35:18.83Z</time></trkpt><trkpt lat="41.9301217" lon="13.1652117"><ele>1461.0</ele><time>2026-04-02T09:35:19.831Z</time></trkpt><trkpt lat="41.9301" lon="13.1650117"><ele>1460.25</ele><time>2026-04-02T09:35:20.83Z</time></trkpt><trkpt lat="41.930075" lon="13.1648283"><ele>1459.5</ele><time>2026-04-02T09:35:21.833Z</time></trkpt><trkpt lat="41.9300583" lon="13.1646583"><ele>1458.75</ele><time>2026-04-02T09:35:22.831Z</time></trkpt><trkpt lat="41.9300517" lon="13.1645017"><ele>1458.0</ele><time>2026-04-02T09:35:23.832Z</time></trkpt><trkpt lat="41.930065" lon="13.16436"><ele>1458.0</ele><time>2026-04-02T09:35:24.833Z</time></trkpt><trkpt lat="41.9301033" lon="13.16425"><ele>1458.0</ele><time>2026-04-02T09:35:25.83Z</time></trkpt><trkpt lat="41.9301633" lon="13.1641633"><ele>1458.0</ele><time>2026-04-02T09:35:26.834Z</time></trkpt><trkpt lat="41.9302417" lon="13.1640817"><ele>1458.0</ele><time>2026-04-02T09:35:27.833Z</time></trkpt><trkpt lat="41.9303267" lon="13.16399"><ele>1458.0</ele><time>2026-04-02T09:35:28.832Z</time></trkpt><trkpt lat="41.9304" lon="13.1638783"><ele>1456.2</ele><time>2026-04-02T09:35:29.831Z</time></trkpt><trkpt lat="41.9304617" lon="13.1637633"><ele>1454.4</ele><time>2026-04-02T09:35:30.833Z</time></trkpt><trkpt lat="41.9305233" lon="13.1636583"><ele>1452.6000000000001</ele><time>2026-04-02T09:35:31.832Z</time></trkpt><trkpt lat="41.93059" lon="13.1635667"><ele>1450.8000000000002</ele><time>2026-04-02T09:35:32.834Z</time></trkpt><trkpt lat="41.9306633" lon="13.163495"><ele>1449.0</ele><time>2026-04-02T09:35:33.833Z</time></trkpt><trkpt lat="41.9307483" lon="13.1634533"><ele>1449.0</ele><time>2026-04-02T09:35:34.834Z</time></trkpt><trkpt lat="41.9308317" lon="13.1634567"><ele>1449.0</ele><time>2026-04-02T09:35:35.833Z</time></trkpt><trkpt lat="41.93092" lon="13.1634867"><ele>1449.0</ele><time>2026-04-02T09:35:36.833Z</time></trkpt><trkpt lat="41.9310217" lon="13.1635233"><ele>1449.0</ele><time>2026-04-02T09:35:37.833Z</time></trkpt><trkpt lat="41.931135" lon="13.1635433"><ele>1449.0</ele><time>2026-04-02T09:35:38.832Z</time></trkpt><trkpt lat="41.9312533" lon="13.163545"><ele>1448.8000000000002</ele><time>2026-04-02T09:35:39.833Z</time></trkpt><trkpt lat="41.931375" lon="13.1635383"><ele>1448.6000000000001</ele><time>2026-04-02T09:35:40.833Z</time></trkpt><trkpt lat="41.931485" lon="13.1635217"><ele>1448.4</ele><time>2026-04-02T09:35:41.834Z</time></trkpt><trkpt lat="41.93157" lon="13.163515"><ele>1448.2</ele><time>2026-04-02T09:35:42.833Z</time></trkpt><trkpt lat="41.9316417" lon="13.1635267"><ele>1448.0</ele><time>2026-04-02T09:35:43.833Z</time></trkpt><trkpt lat="41.9317017" lon="13.1635617"><ele>1448.4</ele><time>2026-04-02T09:35:44.832Z</time></trkpt><trkpt lat="41.9317467" lon="13.1636233"><ele>1448.8000000000002</ele><time>2026-04-02T09:35:45.833Z</time></trkpt><trkpt lat="41.9317717" lon="13.163715"><ele>1449.2</ele><time>2026-04-02T09:35:46.833Z</time></trkpt><trkpt lat="41.9317767" lon="13.163845"><ele>1449.6</ele><time>2026-04-02T09:35:47.833Z</time></trkpt><trkpt lat="41.9317633" lon="13.164005"><ele>1450.0</ele><time>2026-04-02T09:35:48.832Z</time></trkpt><trkpt lat="41.9317533" lon="13.16416"><ele>1450.0</ele><time>2026-04-02T09:35:49.833Z</time></trkpt><trkpt lat="41.93175" lon="13.16432"><ele>1450.0</ele><time>2026-04-02T09:35:50.834Z</time></trkpt><trkpt lat="41.9317583" lon="13.1644483"><ele>1450.0</ele><time>2026-04-02T09:35:51.832Z</time></trkpt><trkpt lat="41.93178" lon="13.1645533"><ele>1450.0</ele><time>2026-04-02T09:35:52.834Z</time></trkpt><trkpt lat="41.93181" lon="13.1646367"><ele>1450.0</ele><time>2026-04-02T09:35:53.831Z</time></trkpt><trkpt lat="41.93189" lon="13.164695"><ele>1450.0</ele><time>2026-04-02T09:35:55.832Z</time></trkpt><trkpt lat="41.9319517" lon="13.164665"><ele>1450.0</ele><time>2026-04-02T09:35:56.834Z</time></trkpt><trkpt lat="41.9320917" lon="13.1646083"><ele>1450.0</ele><time>2026-04-02T09:35:58.834Z</time></trkpt><trkpt lat="41.9322" lon="13.1645433"><ele>1450.0</ele><time>2026-04-02T09:35:59.831Z</time></trkpt><trkpt lat="41.9323133" lon="13.16445"><ele>1450.0</ele><time>2026-04-02T09:36:00.832Z</time></trkpt><trkpt lat="41.932425" lon="13.1643517"><ele>1450.0</ele><time>2026-04-02T09:36:01.831Z</time></trkpt><trkpt lat="41.93254" lon="13.1642233"><ele>1450.0</ele><time>2026-04-02T09:36:02.834Z</time></trkpt><trkpt lat="41.932645" lon="13.1641267"><ele>1450.0</ele><time>2026-04-02T09:36:03.834Z</time></trkpt><trkpt lat="41.9327517" lon="13.16402"><ele>1448.5</ele><time>2026-04-02T09:36:04.833Z</time></trkpt><trkpt lat="41.9328617" lon="13.16394"><ele>1447.0</ele><time>2026-04-02T09:36:05.834Z</time></trkpt><trkpt lat="41.9329883" lon="13.1638883"><ele>1445.5</ele><time>2026-04-02T09:36:06.833Z</time></trkpt><trkpt lat="41.93311" lon="13.1638533"><ele>1444.0</ele><time>2026-04-02T09:36:07.832Z</time></trkpt><trkpt lat="41.9332117" lon="13.1638233"><ele>1444.0</ele><time>2026-04-02T09:36:08.834Z</time></trkpt><trkpt lat="41.9333033" lon="13.163785"><ele>1444.0</ele><time>2026-04-02T09:36:09.834Z</time></trkpt><trkpt lat="41.93338" lon="13.1637333"><ele>1444.0</ele><time>2026-04-02T09:36:10.834Z</time></trkpt><trkpt lat="41.933445" lon="13.1636867"><ele>1444.0</ele><time>2026-04-02T09:36:11.833Z</time></trkpt><trkpt lat="41.9334917" lon="13.1636083"><ele>1444.0</ele><time>2026-04-02T09:36:12.833Z</time></trkpt><trkpt lat="41.93352" lon="13.1634967"><ele>1444.0</ele><time>2026-04-02T09:36:13.834Z</time></trkpt><trkpt lat="41.9335333" lon="13.1633317"><ele>1444.2</ele><time>2026-04-02T09:36:14.834Z</time></trkpt><trkpt lat="41.9335983" lon="13.1632117"><ele>1444.4</ele><time>2026-04-02T09:36:15.834Z</time></trkpt><trkpt lat="41.93367" lon="13.1631017"><ele>1444.6</ele><time>2026-04-02T09:36:16.833Z</time></trkpt><trkpt lat="41.9337483" lon="13.1630233"><ele>1444.8</ele><time>2026-04-02T09:36:17.833Z</time></trkpt><trkpt lat="41.93383" lon="13.1630083"><ele>1445.0</ele><time>2026-04-02T09:36:18.834Z</time></trkpt><trkpt lat="41.9339233" lon="13.1630317"><ele>1445.0</ele><time>2026-04-02T09:36:19.834Z</time></trkpt><trkpt lat="41.93402" lon="13.1630933"><ele>1445.0</ele><time>2026-04-02T09:36:20.833Z</time></trkpt><trkpt lat="41.9341067" lon="13.163185"><ele>1445.0</ele><time>2026-04-02T09:36:21.834Z</time></trkpt><trkpt lat="41.9341833" lon="13.1632917"><ele>1445.0</ele><time>2026-04-02T09:36:22.834Z</time></trkpt><trkpt lat="41.93426" lon="13.1633733"><ele>1445.0</ele><time>2026-04-02T09:36:23.832Z</time></trkpt><trkpt lat="41.93434" lon="13.1634167"><ele>1445.9999999999998</ele><time>2026-04-02T09:36:24.834Z</time></trkpt><trkpt lat="41.93441" lon="13.163415"><ele>1447.0</ele><time>2026-04-02T09:36:25.834Z</time></trkpt><trkpt lat="41.93447" lon="13.1633783"><ele>1448.0</ele><time>2026-04-02T09:36:26.833Z</time></trkpt><trkpt lat="41.93451" lon="13.1632917"><ele>1449.0</ele><time>2026-04-02T09:36:27.834Z</time></trkpt><trkpt lat="41.9345517" lon="13.1632017"><ele>1450.0</ele><time>2026-04-02T09:36:28.832Z</time></trkpt><trkpt lat="41.93459" lon="13.163115"><ele>1450.9999999999998</ele><time>2026-04-02T09:36:29.833Z</time></trkpt><trkpt lat="41.9346083" lon="13.1630133"><ele>1452.0</ele><time>2026-04-02T09:36:30.834Z</time></trkpt><trkpt lat="41.9345833" lon="13.16288"><ele>1452.25</ele><time>2026-04-02T09:36:31.833Z</time></trkpt><trkpt lat="41.934555" lon="13.1627617"><ele>1452.5</ele><time>2026-04-02T09:36:32.83Z</time></trkpt><trkpt lat="41.9344683" lon="13.162635"><ele>1452.75</ele><time>2026-04-02T09:36:33.83Z</time></trkpt><trkpt lat="41.9343717" lon="13.1625117"><ele>1453.0</ele><time>2026-04-02T09:36:34.831Z</time></trkpt><trkpt lat="41.9342883" lon="13.1623783"><ele>1451.6000000000001</ele><time>2026-04-02T09:36:35.834Z</time></trkpt><trkpt lat="41.9342233" lon="13.1622433"><ele>1450.2</ele><time>2026-04-02T09:36:36.831Z</time></trkpt><trkpt lat="41.93418" lon="13.1620933"><ele>1448.8</ele><time>2026-04-02T09:36:37.832Z</time></trkpt><trkpt lat="41.9341667" lon="13.1619533"><ele>1447.4</ele><time>2026-04-02T09:36:38.834Z</time></trkpt><trkpt lat="41.93418" lon="13.1618167"><ele>1446.0</ele><time>2026-04-02T09:36:39.833Z</time></trkpt><trkpt lat="41.9342233" lon="13.1616933"><ele>1446.0</ele><time>2026-04-02T09:36:40.833Z</time></trkpt><trkpt lat="41.93429" lon="13.1615833"><ele>1446.0</ele><time>2026-04-02T09:36:41.832Z</time></trkpt><trkpt lat="41.934375" lon="13.161465"><ele>1446.0</ele><time>2026-04-02T09:36:42.833Z</time></trkpt><trkpt lat="41.9344683" lon="13.1613433"><ele>1446.0</ele><time>2026-04-02T09:36:43.833Z</time></trkpt><trkpt lat="41.93457" lon="13.16122"><ele>1441.25</ele><time>2026-04-02T09:36:44.833Z</time></trkpt><trkpt lat="41.93468" lon="13.1611017"><ele>1436.5</ele><time>2026-04-02T09:36:45.833Z</time></trkpt><trkpt lat="41.9347767" lon="13.16097"><ele>1431.75</ele><time>2026-04-02T09:36:46.833Z</time></trkpt><trkpt lat="41.9348667" lon="13.1608233"><ele>1427.0</ele><time>2026-04-02T09:36:47.834Z</time></trkpt><trkpt lat="41.9349583" lon="13.160665"><ele>1425.5</ele><time>2026-04-02T09:36:48.831Z</time></trkpt><trkpt lat="41.9350567" lon="13.1605183"><ele>1424.0</ele><time>2026-04-02T09:36:49.833Z</time></trkpt><trkpt lat="41.9351583" lon="13.160375"><ele>1422.5</ele><time>2026-04-02T09:36:50.834Z</time></trkpt><trkpt lat="41.9352767" lon="13.160255"><ele>1421.0</ele><time>2026-04-02T09:36:51.833Z</time></trkpt><trkpt lat="41.9353917" lon="13.1601267"><ele>1421.0</ele><time>2026-04-02T09:36:52.833Z</time></trkpt><trkpt lat="41.9355117" lon="13.1600067"><ele>1421.0</ele><time>2026-04-02T09:36:53.831Z</time></trkpt><trkpt lat="41.9356233" lon="13.159885"><ele>1421.0</ele><time>2026-04-02T09:36:54.835Z</time></trkpt><trkpt lat="41.9357317" lon="13.1597633"><ele>1421.0</ele><time>2026-04-02T09:36:55.833Z</time></trkpt><trkpt lat="41.9358367" lon="13.159645"><ele>1419.0</ele><time>2026-04-02T09:36:56.832Z</time></trkpt><trkpt lat="41.935935" lon="13.1595267"><ele>1417.0</ele><time>2026-04-02T09:36:57.834Z</time></trkpt><trkpt lat="41.936025" lon="13.1594117"><ele>1415.0</ele><time>2026-04-02T09:36:58.829Z</time></trkpt><trkpt lat="41.9361117" lon="13.1592967"><ele>1413.0</ele><time>2026-04-02T09:36:59.831Z</time></trkpt><trkpt lat="41.936195" lon="13.1591767"><ele>1413.0</ele><time>2026-04-02T09:37:00.83Z</time></trkpt><trkpt lat="41.936265" lon="13.1590533"><ele>1413.0</ele><time>2026-04-02T09:37:01.83Z</time></trkpt><trkpt lat="41.93633" lon="13.15893"><ele>1413.0</ele><time>2026-04-02T09:37:02.83Z</time></trkpt><trkpt lat="41.93638" lon="13.1588033"><ele>1413.0</ele><time>2026-04-02T09:37:03.832Z</time></trkpt><trkpt lat="41.9364133" lon="13.1586683"><ele>1413.0</ele><time>2026-04-02T09:37:04.831Z</time></trkpt><trkpt lat="41.936435" lon="13.1585383"><ele>1412.2</ele><time>2026-04-02T09:37:05.831Z</time></trkpt><trkpt lat="41.936435" lon="13.1584083"><ele>1411.4</ele><time>2026-04-02T09:37:06.83Z</time></trkpt><trkpt lat="41.93642" lon="13.158285"><ele>1410.6000000000001</ele><time>2026-04-02T09:37:07.829Z</time></trkpt><trkpt lat="41.9364117" lon="13.1581567"><ele>1409.8000000000002</ele><time>2026-04-02T09:37:08.832Z</time></trkpt><trkpt lat="41.9363883" lon="13.15803"><ele>1409.0</ele><time>2026-04-02T09:37:09.831Z</time></trkpt><trkpt lat="41.9363483" lon="13.1578967"><ele>1407.5</ele><time>2026-04-02T09:37:10.831Z</time></trkpt><trkpt lat="41.9362983" lon="13.15775"><ele>1406.0</ele><time>2026-04-02T09:37:11.831Z</time></trkpt><trkpt lat="41.936245" lon="13.15759"><ele>1404.5</ele><time>2026-04-02T09:37:12.831Z</time></trkpt><trkpt lat="41.936185" lon="13.157405"><ele>1403.0</ele><time>2026-04-02T09:37:13.832Z</time></trkpt><trkpt lat="41.93612" lon="13.1572083"><ele>1401.3333333333335</ele><time>2026-04-02T09:37:14.832Z</time></trkpt><trkpt lat="41.9360517" lon="13.15701"><ele>1399.6666666666667</ele><time>2026-04-02T09:37:15.833Z</time></trkpt><trkpt lat="41.935985" lon="13.156805"><ele>1398.0</ele><time>2026-04-02T09:37:16.833Z</time></trkpt><trkpt lat="41.93592" lon="13.1565917"><ele>1394.3333333333333</ele><time>2026-04-02T09:37:17.829Z</time></trkpt><trkpt lat="41.9358533" lon="13.15639"><ele>1390.6666666666665</ele><time>2026-04-02T09:37:18.832Z</time></trkpt><trkpt lat="41.9357967" lon="13.156195"><ele>1387.0</ele><time>2026-04-02T09:37:19.832Z</time></trkpt><trkpt lat="41.9357433" lon="13.15601"><ele>1387.0</ele><time>2026-04-02T09:37:20.83Z</time></trkpt><trkpt lat="41.93569" lon="13.15583"><ele>1387.0</ele><time>2026-04-02T09:37:21.832Z</time></trkpt><trkpt lat="41.935635" lon="13.1556583"><ele>1387.0</ele><time>2026-04-02T09:37:22.83Z</time></trkpt><trkpt lat="41.9355833" lon="13.1554933"><ele>1387.0</ele><time>2026-04-02T09:37:23.831Z</time></trkpt><trkpt lat="41.93554" lon="13.1553267"><ele>1386.25</ele><time>2026-04-02T09:37:24.833Z</time></trkpt><trkpt lat="41.93551" lon="13.15516"><ele>1385.5</ele><time>2026-04-02T09:37:25.833Z</time></trkpt><trkpt lat="41.9355083" lon="13.1549933"><ele>1384.75</ele><time>2026-04-02T09:37:26.834Z</time></trkpt><trkpt lat="41.9355317" lon="13.15483"><ele>1384.0</ele><time>2026-04-02T09:37:27.831Z</time></trkpt><trkpt lat="41.93558" lon="13.1546733"><ele>1384.0</ele><time>2026-04-02T09:37:28.833Z</time></trkpt><trkpt lat="41.9356483" lon="13.1545267"><ele>1384.0</ele><time>2026-04-02T09:37:29.832Z</time></trkpt><trkpt lat="41.9357367" lon="13.1543883"><ele>1384.0</ele><time>2026-04-02T09:37:30.833Z</time></trkpt><trkpt lat="41.9358383" lon="13.1542533"><ele>1384.0</ele><time>2026-04-02T09:37:31.833Z</time></trkpt><trkpt lat="41.9359417" lon="13.1541283"><ele>1381.25</ele><time>2026-04-02T09:37:32.834Z</time></trkpt><trkpt lat="41.93605" lon="13.154005"><ele>1378.5</ele><time>2026-04-02T09:37:33.833Z</time></trkpt><trkpt lat="41.9361617" lon="13.153875"><ele>1375.75</ele><time>2026-04-02T09:37:34.834Z</time></trkpt><trkpt lat="41.9362767" lon="13.1537367"><ele>1373.0</ele><time>2026-04-02T09:37:35.831Z</time></trkpt><trkpt lat="41.9363883" lon="13.153605"><ele>1373.0</ele><time>2026-04-02T09:37:36.832Z</time></trkpt><trkpt lat="41.9364933" lon="13.1534833"><ele>1373.0</ele><time>2026-04-02T09:37:37.832Z</time></trkpt><trkpt lat="41.9365933" lon="13.153365"><ele>1373.0</ele><time>2026-04-02T09:37:38.834Z</time></trkpt><trkpt lat="41.9366867" lon="13.15324"><ele>1373.0</ele><time>2026-04-02T09:37:39.833Z</time></trkpt><trkpt lat="41.93678" lon="13.1531167"><ele>1373.25</ele><time>2026-04-02T09:37:40.831Z</time></trkpt><trkpt lat="41.9368633" lon="13.15298"><ele>1373.5</ele><time>2026-04-02T09:37:41.833Z</time></trkpt><trkpt lat="41.9369483" lon="13.1528517"><ele>1373.75</ele><time>2026-04-02T09:37:42.832Z</time></trkpt><trkpt lat="41.9370233" lon="13.1527283"><ele>1374.0</ele><time>2026-04-02T09:37:43.833Z</time></trkpt><trkpt lat="41.9370917" lon="13.1525967"><ele>1374.0</ele><time>2026-04-02T09:37:44.832Z</time></trkpt><trkpt lat="41.937155" lon="13.15246"><ele>1374.0</ele><time>2026-04-02T09:37:45.833Z</time></trkpt><trkpt lat="41.93722" lon="13.152325"><ele>1374.0</ele><time>2026-04-02T09:37:46.831Z</time></trkpt><trkpt lat="41.9372867" lon="13.152195"><ele>1374.0</ele><time>2026-04-02T09:37:47.833Z</time></trkpt><trkpt lat="41.937355" lon="13.1520717"><ele>1372.5</ele><time>2026-04-02T09:37:48.833Z</time></trkpt><trkpt lat="41.9374233" lon="13.1519483"><ele>1371.0</ele><time>2026-04-02T09:37:49.833Z</time></trkpt><trkpt lat="41.9374883" lon="13.151825"><ele>1369.5</ele><time>2026-04-02T09:37:50.834Z</time></trkpt><trkpt lat="41.937555" lon="13.1516967"><ele>1368.0</ele><time>2026-04-02T09:37:51.834Z</time></trkpt><trkpt lat="41.9376217" lon="13.1515733"><ele>1365.4</ele><time>2026-04-02T09:37:52.829Z</time></trkpt><trkpt lat="41.937685" lon="13.151455"><ele>1362.8000000000002</ele><time>2026-04-02T09:37:53.833Z</time></trkpt><trkpt lat="41.937745" lon="13.151335"><ele>1360.2</ele><time>2026-04-02T09:37:54.83Z</time></trkpt><trkpt lat="41.937805" lon="13.15122"><ele>1357.6</ele><time>2026-04-02T09:37:55.83Z</time></trkpt><trkpt lat="41.9378633" lon="13.151105"><ele>1355.0</ele><time>2026-04-02T09:37:56.831Z</time></trkpt><trkpt lat="41.93792" lon="13.15099"><ele>1355.0</ele><time>2026-04-02T09:37:57.833Z</time></trkpt><trkpt lat="41.9379767" lon="13.1508767"><ele>1355.0</ele><time>2026-04-02T09:37:58.835Z</time></trkpt><trkpt lat="41.9380333" lon="13.15077"><ele>1355.0</ele><time>2026-04-02T09:37:59.835Z</time></trkpt><trkpt lat="41.938085" lon="13.1506683"><ele>1355.0</ele><time>2026-04-02T09:38:00.833Z</time></trkpt><trkpt lat="41.9381333" lon="13.150565"><ele>1355.0</ele><time>2026-04-02T09:38:01.834Z</time></trkpt><trkpt lat="41.93818" lon="13.150465"><ele>1352.0</ele><time>2026-04-02T09:38:02.833Z</time></trkpt><trkpt lat="41.9382233" lon="13.150375"><ele>1352.0</ele><time>2026-04-02T09:38:03.834Z</time></trkpt><trkpt lat="41.9382633" lon="13.1502983"><ele>1352.0</ele><time>2026-04-02T09:38:04.833Z</time></trkpt><trkpt lat="41.9383217" lon="13.1502167"><ele>1352.0</ele><time>2026-04-02T09:38:06.831Z</time></trkpt><trkpt lat="41.93839" lon="13.150215"><ele>1354.0</ele><time>2026-04-02T09:38:10.834Z</time></trkpt><trkpt lat="41.9383767" lon="13.1501"><ele>1352.0</ele><time>2026-04-02T09:40:14.832Z</time></trkpt></trkseg><trkseg><trkpt lat="41.9384583" lon="13.1502717"><ele>1354.0</ele><time>2026-04-02T10:21:57.833Z</time></trkpt><trkpt lat="41.9383917" lon="13.1503"><ele>1354.0</ele><time>2026-04-02T10:22:05.832Z</time></trkpt><trkpt lat="41.9384067" lon="13.150385"><ele>1354.0</ele><time>2026-04-02T10:22:18.832Z</time></trkpt><trkpt lat="41.938485" lon="13.15031"><ele>1354.0</ele><time>2026-04-02T10:22:27.832Z</time></trkpt><trkpt lat="41.93857" lon="13.1503"><ele>1354.0</ele><time>2026-04-02T10:22:44.831Z</time></trkpt><trkpt lat="41.9386333" lon="13.150395"><ele>1354.0</ele><time>2026-04-02T10:23:50.83Z</time></trkpt><trkpt lat="41.9386167" lon="13.1502367"><ele>1354.0</ele><time>2026-04-02T10:24:42.829Z</time></trkpt><trkpt lat="41.93852" lon="13.1502383"><ele>1354.0</ele><time>2026-04-02T10:27:23.833Z</time></trkpt><trkpt lat="41.9384767" lon="13.1503017"><ele>1354.0</ele><time>2026-04-02T10:28:00.832Z</time></trkpt><trkpt lat="41.9384167" lon="13.15023"><ele>1354.0</ele><time>2026-04-02T10:28:16.832Z</time></trkpt><trkpt lat="41.9383867" lon="13.1501067"><ele>1354.0</ele><time>2026-04-02T10:30:34.833Z</time></trkpt><trkpt lat="41.93829" lon="13.1501667"><ele>1354.0</ele><time>2026-04-02T10:33:41.832Z</time></trkpt><trkpt lat="41.9383567" lon="13.1501467"><ele>1353.9999999999998</ele><time>2026-04-02T10:33:56.833Z</time></trkpt><trkpt lat="41.938425" lon="13.15013"><ele>1354.0</ele><time>2026-04-02T10:34:38.834Z</time></trkpt><trkpt lat="41.9384317" lon="13.1500217"><ele>1354.0</ele><time>2026-04-02T10:36:39.83Z</time></trkpt><trkpt lat="41.9384567" lon="13.1499383"><ele>1354.0</ele><time>2026-04-02T10:36:40.835Z</time></trkpt><trkpt lat="41.9384817" lon="13.14986"><ele>1354.0</ele><time>2026-04-02T10:36:41.834Z</time></trkpt><trkpt lat="41.9385083" lon="13.149775"><ele>1353.9999999999998</ele><time>2026-04-02T10:36:42.834Z</time></trkpt><trkpt lat="41.938545" lon="13.1496833"><ele>1354.0</ele><time>2026-04-02T10:36:43.835Z</time></trkpt><trkpt lat="41.93858" lon="13.14958"><ele>1352.8000000000002</ele><time>2026-04-02T10:36:44.835Z</time></trkpt><trkpt lat="41.9386133" lon="13.149465"><ele>1351.6000000000001</ele><time>2026-04-02T10:36:45.834Z</time></trkpt><trkpt lat="41.9386417" lon="13.1493467"><ele>1350.4</ele><time>2026-04-02T10:36:46.834Z</time></trkpt><trkpt lat="41.9386667" lon="13.1492233"><ele>1349.2</ele><time>2026-04-02T10:36:47.832Z</time></trkpt><trkpt lat="41.9386883" lon="13.149095"><ele>1348.0</ele><time>2026-04-02T10:36:48.832Z</time></trkpt><trkpt lat="41.9387067" lon="13.14895"><ele>1346.5</ele><time>2026-04-02T10:36:49.831Z</time></trkpt><trkpt lat="41.93872" lon="13.1487967"><ele>1345.0</ele><time>2026-04-02T10:36:50.833Z</time></trkpt><trkpt lat="41.9387267" lon="13.148645"><ele>1343.5</ele><time>2026-04-02T10:36:51.833Z</time></trkpt><trkpt lat="41.9387267" lon="13.1484933"><ele>1342.0</ele><time>2026-04-02T10:36:52.832Z</time></trkpt><trkpt lat="41.9387233" lon="13.148335"><ele>1342.0</ele><time>2026-04-02T10:36:53.832Z</time></trkpt><trkpt lat="41.9387167" lon="13.1481683"><ele>1342.0</ele><time>2026-04-02T10:36:54.833Z</time></trkpt><trkpt lat="41.9387083" lon="13.1480017"><ele>1342.0</ele><time>2026-04-02T10:36:55.834Z</time></trkpt><trkpt lat="41.9387033" lon="13.14783"><ele>1342.0</ele><time>2026-04-02T10:36:56.834Z</time></trkpt><trkpt lat="41.938705" lon="13.1476517"><ele>1342.0</ele><time>2026-04-02T10:36:57.833Z</time></trkpt><trkpt lat="41.938705" lon="13.1474633"><ele>1342.0</ele><time>2026-04-02T10:36:58.834Z</time></trkpt><trkpt lat="41.9387083" lon="13.147275"><ele>1342.0</ele><time>2026-04-02T10:36:59.834Z</time></trkpt><trkpt lat="41.938715" lon="13.1470783"><ele>1342.0</ele><time>2026-04-02T10:37:00.834Z</time></trkpt><trkpt lat="41.938725" lon="13.14688"><ele>1341.6666666666665</ele><time>2026-04-02T10:37:01.833Z</time></trkpt><trkpt lat="41.9387317" lon="13.1466767"><ele>1341.3333333333333</ele><time>2026-04-02T10:37:02.834Z</time></trkpt><trkpt lat="41.9387367" lon="13.1464717"><ele>1341.0</ele><time>2026-04-02T10:37:03.834Z</time></trkpt><trkpt lat="41.93874" lon="13.14626"><ele>1341.0</ele><time>2026-04-02T10:37:04.834Z</time></trkpt><trkpt lat="41.9387433" lon="13.14604"><ele>1341.0</ele><time>2026-04-02T10:37:05.833Z</time></trkpt><trkpt lat="41.9387483" lon="13.145815"><ele>1341.0</ele><time>2026-04-02T10:37:06.833Z</time></trkpt><trkpt lat="41.9387567" lon="13.145585"><ele>1343.0</ele><time>2026-04-02T10:37:07.833Z</time></trkpt><trkpt lat="41.9387617" lon="13.1453517"><ele>1345.0</ele><time>2026-04-02T10:37:08.834Z</time></trkpt><trkpt lat="41.938765" lon="13.1451217"><ele>1347.0</ele><time>2026-04-02T10:37:09.834Z</time></trkpt><trkpt lat="41.9387483" lon="13.1449067"><ele>1349.0</ele><time>2026-04-02T10:37:10.833Z</time></trkpt><trkpt lat="41.9387167" lon="13.1447083"><ele>1351.0</ele><time>2026-04-02T10:37:11.835Z</time></trkpt><trkpt lat="41.9386633" lon="13.144515"><ele>1353.0</ele><time>2026-04-02T10:37:12.833Z</time></trkpt><trkpt lat="41.9386033" lon="13.1443217"><ele>1353.0</ele><time>2026-04-02T10:37:13.833Z</time></trkpt><trkpt lat="41.9385383" lon="13.14412"><ele>1353.0</ele><time>2026-04-02T10:37:14.834Z</time></trkpt><trkpt lat="41.9384667" lon="13.1439117"><ele>1353.0</ele><time>2026-04-02T10:37:15.834Z</time></trkpt><trkpt lat="41.9384" lon="13.143695"><ele>1351.0</ele><time>2026-04-02T10:37:16.834Z</time></trkpt><trkpt lat="41.9383367" lon="13.143465"><ele>1349.0</ele><time>2026-04-02T10:37:17.833Z</time></trkpt><trkpt lat="41.93827" lon="13.1432317"><ele>1347.0</ele><time>2026-04-02T10:37:18.832Z</time></trkpt><trkpt lat="41.9381983" lon="13.142995"><ele>1347.0</ele><time>2026-04-02T10:37:19.831Z</time></trkpt><trkpt lat="41.9381283" lon="13.14276"><ele>1347.0</ele><time>2026-04-02T10:37:20.833Z</time></trkpt><trkpt lat="41.938065" lon="13.1425317"><ele>1347.0</ele><time>2026-04-02T10:37:21.833Z</time></trkpt><trkpt lat="41.9380167" lon="13.14231"><ele>1347.3333333333333</ele><time>2026-04-02T10:37:22.833Z</time></trkpt><trkpt lat="41.9379867" lon="13.142085"><ele>1347.6666666666665</ele><time>2026-04-02T10:37:23.833Z</time></trkpt><trkpt lat="41.9379733" lon="13.1418617"><ele>1348.0</ele><time>2026-04-02T10:37:24.836Z</time></trkpt><trkpt lat="41.937975" lon="13.141635"><ele>1345.3333333333333</ele><time>2026-04-02T10:37:25.834Z</time></trkpt><trkpt lat="41.9379883" lon="13.1413917"><ele>1342.6666666666667</ele><time>2026-04-02T10:37:26.833Z</time></trkpt><trkpt lat="41.9380183" lon="13.141135"><ele>1340.0</ele><time>2026-04-02T10:37:27.834Z</time></trkpt><trkpt lat="41.93805" lon="13.14087"><ele>1338.3333333333335</ele><time>2026-04-02T10:37:28.834Z</time></trkpt><trkpt lat="41.9380767" lon="13.1406"><ele>1336.6666666666667</ele><time>2026-04-02T10:37:29.834Z</time></trkpt><trkpt lat="41.9380983" lon="13.1403283"><ele>1335.0</ele><time>2026-04-02T10:37:30.835Z</time></trkpt><trkpt lat="41.9381233" lon="13.1400567"><ele>1335.6666666666667</ele><time>2026-04-02T10:37:31.834Z</time></trkpt><trkpt lat="41.9381467" lon="13.1397817"><ele>1336.3333333333335</ele><time>2026-04-02T10:37:32.835Z</time></trkpt><trkpt lat="41.9381717" lon="13.1395067"><ele>1337.0</ele><time>2026-04-02T10:37:33.834Z</time></trkpt><trkpt lat="41.9381917" lon="13.1392383"><ele>1335.3333333333335</ele><time>2026-04-02T10:37:34.834Z</time></trkpt><trkpt lat="41.9382083" lon="13.1389733"><ele>1333.6666666666667</ele><time>2026-04-02T10:37:35.833Z</time></trkpt><trkpt lat="41.9382217" lon="13.1387183"><ele>1332.0</ele><time>2026-04-02T10:37:36.833Z</time></trkpt><trkpt lat="41.9382467" lon="13.138475"><ele>1332.0</ele><time>2026-04-02T10:37:37.829Z</time></trkpt><trkpt lat="41.9382683" lon="13.138235"><ele>1332.0</ele><time>2026-04-02T10:37:38.831Z</time></trkpt><trkpt lat="41.9382917" lon="13.138"><ele>1332.0</ele><time>2026-04-02T10:37:39.833Z</time></trkpt><trkpt lat="41.938325" lon="13.1377667"><ele>1332.6666666666667</ele><time>2026-04-02T10:37:40.832Z</time></trkpt><trkpt lat="41.9383667" lon="13.1375383"><ele>1333.3333333333335</ele><time>2026-04-02T10:37:41.835Z</time></trkpt><trkpt lat="41.938425" lon="13.1373183"><ele>1334.0</ele><time>2026-04-02T10:37:42.835Z</time></trkpt><trkpt lat="41.9385033" lon="13.1371017"><ele>1330.0</ele><time>2026-04-02T10:37:43.833Z</time></trkpt><trkpt lat="41.9385867" lon="13.1368817"><ele>1326.0</ele><time>2026-04-02T10:37:44.835Z</time></trkpt><trkpt lat="41.9386683" lon="13.136655"><ele>1322.0</ele><time>2026-04-02T10:37:45.834Z</time></trkpt><trkpt lat="41.9387433" lon="13.1364217"><ele>1321.6666666666667</ele><time>2026-04-02T10:37:46.834Z</time></trkpt><trkpt lat="41.9388217" lon="13.1362"><ele>1321.3333333333333</ele><time>2026-04-02T10:37:47.833Z</time></trkpt><trkpt lat="41.9388967" lon="13.135975"><ele>1321.0</ele><time>2026-04-02T10:37:48.831Z</time></trkpt><trkpt lat="41.9389917" lon="13.135755"><ele>1322.0</ele><time>2026-04-02T10:37:49.832Z</time></trkpt><trkpt lat="41.939105" lon="13.1355483"><ele>1323.0</ele><time>2026-04-02T10:37:50.835Z</time></trkpt><trkpt lat="41.9392067" lon="13.1353183"><ele>1324.0</ele><time>2026-04-02T10:37:51.833Z</time></trkpt><trkpt lat="41.9393183" lon="13.13509"><ele>1321.3333333333333</ele><time>2026-04-02T10:37:52.834Z</time></trkpt><trkpt lat="41.9394383" lon="13.1348583"><ele>1318.6666666666667</ele><time>2026-04-02T10:37:53.832Z</time></trkpt><trkpt lat="41.9395583" lon="13.134625"><ele>1316.0</ele><time>2026-04-02T10:37:54.831Z</time></trkpt><trkpt lat="41.9396833" lon="13.1343967"><ele>1316.0</ele><time>2026-04-02T10:37:55.833Z</time></trkpt><trkpt lat="41.9398067" lon="13.1341733"><ele>1316.0</ele><time>2026-04-02T10:37:56.835Z</time></trkpt><trkpt lat="41.9399267" lon="13.1339533"><ele>1316.0</ele><time>2026-04-02T10:37:57.834Z</time></trkpt><trkpt lat="41.9400517" lon="13.13373"><ele>1314.3333333333335</ele><time>2026-04-02T10:37:58.829Z</time></trkpt><trkpt lat="41.9401817" lon="13.133505"><ele>1312.6666666666667</ele><time>2026-04-02T10:37:59.835Z</time></trkpt><trkpt lat="41.9403133" lon="13.133275"><ele>1311.0</ele><time>2026-04-02T10:38:00.834Z</time></trkpt><trkpt lat="41.9404317" lon="13.133035"><ele>1310.6666666666667</ele><time>2026-04-02T10:38:01.835Z</time></trkpt><trkpt lat="41.9405567" lon="13.1327983"><ele>1310.3333333333335</ele><time>2026-04-02T10:38:02.831Z</time></trkpt><trkpt lat="41.9406833" lon="13.1325667"><ele>1310.0</ele><time>2026-04-02T10:38:03.832Z</time></trkpt><trkpt lat="41.9408" lon="13.1323417"><ele>1302.6666666666667</ele><time>2026-04-02T10:38:04.83Z</time></trkpt><trkpt lat="41.9409033" lon="13.1321167"><ele>1295.3333333333333</ele><time>2026-04-02T10:38:05.831Z</time></trkpt><trkpt lat="41.9409983" lon="13.13189"><ele>1288.0</ele><time>2026-04-02T10:38:06.832Z</time></trkpt><trkpt lat="41.94108" lon="13.1316617"><ele>1287.3333333333333</ele><time>2026-04-02T10:38:07.834Z</time></trkpt><trkpt lat="41.9411483" lon="13.13143"><ele>1286.6666666666667</ele><time>2026-04-02T10:38:08.835Z</time></trkpt><trkpt lat="41.9412267" lon="13.13121"><ele>1286.0</ele><time>2026-04-02T10:38:09.83Z</time></trkpt><trkpt lat="41.9413317" lon="13.1310167"><ele>1286.0</ele><time>2026-04-02T10:38:10.832Z</time></trkpt><trkpt lat="41.9414417" lon="13.13085"><ele>1286.0</ele><time>2026-04-02T10:38:11.833Z</time></trkpt><trkpt lat="41.9415467" lon="13.1306967"><ele>1286.0</ele><time>2026-04-02T10:38:12.834Z</time></trkpt><trkpt lat="41.941655" lon="13.1305417"><ele>1277.5</ele><time>2026-04-02T10:38:13.832Z</time></trkpt><trkpt lat="41.941755" lon="13.1303783"><ele>1269.0</ele><time>2026-04-02T10:38:14.835Z</time></trkpt><trkpt lat="41.941845" lon="13.13022"><ele>1260.5</ele><time>2026-04-02T10:38:15.833Z</time></trkpt><trkpt lat="41.94192" lon="13.1300667"><ele>1252.0</ele><time>2026-04-02T10:38:16.834Z</time></trkpt><trkpt lat="41.9419733" lon="13.1299217"><ele>1251.6666666666665</ele><time>2026-04-02T10:38:17.832Z</time></trkpt><trkpt lat="41.9420117" lon="13.1297867"><ele>1251.3333333333333</ele><time>2026-04-02T10:38:18.834Z</time></trkpt><trkpt lat="41.94203" lon="13.12968"><ele>1251.0</ele><time>2026-04-02T10:38:19.833Z</time></trkpt><trkpt lat="41.9420317" lon="13.1295883"><ele>1250.6666666666667</ele><time>2026-04-02T10:38:20.835Z</time></trkpt><trkpt lat="41.9419867" lon="13.1294433"><ele>1250.3333333333335</ele><time>2026-04-02T10:38:22.833Z</time></trkpt><trkpt lat="41.941925" lon="13.1294083"><ele>1250.0</ele><time>2026-04-02T10:38:23.834Z</time></trkpt><trkpt lat="41.94184" lon="13.1294033"><ele>1250.0</ele><time>2026-04-02T10:38:24.833Z</time></trkpt><trkpt lat="41.9417367" lon="13.1294133"><ele>1250.0</ele><time>2026-04-02T10:38:25.834Z</time></trkpt><trkpt lat="41.94162" lon="13.1294317"><ele>1250.0</ele><time>2026-04-02T10:38:26.833Z</time></trkpt><trkpt lat="41.9414967" lon="13.1294567"><ele>1250.0</ele><time>2026-04-02T10:38:27.834Z</time></trkpt><trkpt lat="41.941365" lon="13.1294733"><ele>1253.3333333333335</ele><time>2026-04-02T10:38:28.833Z</time></trkpt><trkpt lat="41.9412167" lon="13.1294883"><ele>1256.6666666666667</ele><time>2026-04-02T10:38:29.831Z</time></trkpt><trkpt lat="41.9410617" lon="13.1295033"><ele>1260.0</ele><time>2026-04-02T10:38:30.833Z</time></trkpt><trkpt lat="41.9408933" lon="13.12952"><ele>1257.3333333333333</ele><time>2026-04-02T10:38:31.832Z</time></trkpt><trkpt lat="41.94072" lon="13.12954"><ele>1254.6666666666665</ele><time>2026-04-02T10:38:32.833Z</time></trkpt><trkpt lat="41.9405417" lon="13.129555"><ele>1252.0</ele><time>2026-04-02T10:38:33.832Z</time></trkpt><trkpt lat="41.940365" lon="13.12958"><ele>1252.0</ele><time>2026-04-02T10:38:34.832Z</time></trkpt><trkpt lat="41.9402" lon="13.1296"><ele>1252.0</ele><time>2026-04-02T10:38:35.832Z</time></trkpt><trkpt lat="41.9400467" lon="13.12963"><ele>1252.0</ele><time>2026-04-02T10:38:36.831Z</time></trkpt><trkpt lat="41.9399183" lon="13.129635"><ele>1252.0</ele><time>2026-04-02T10:38:37.831Z</time></trkpt><trkpt lat="41.9398067" lon="13.1295983"><ele>1250.75</ele><time>2026-04-02T10:38:38.833Z</time></trkpt><trkpt lat="41.9397067" lon="13.1295433"><ele>1249.5</ele><time>2026-04-02T10:38:39.83Z</time></trkpt><trkpt lat="41.93962" lon="13.1294467"><ele>1248.25</ele><time>2026-04-02T10:38:40.832Z</time></trkpt><trkpt lat="41.9395417" lon="13.1293283"><ele>1247.0</ele><time>2026-04-02T10:38:41.831Z</time></trkpt><trkpt lat="41.9394567" lon="13.1292033"><ele>1247.0</ele><time>2026-04-02T10:38:42.831Z</time></trkpt><trkpt lat="41.9393683" lon="13.12907"><ele>1247.0</ele><time>2026-04-02T10:38:43.832Z</time></trkpt><trkpt lat="41.9392717" lon="13.1289517"><ele>1247.0</ele><time>2026-04-02T10:38:44.834Z</time></trkpt><trkpt lat="41.9391683" lon="13.128865"><ele>1247.0</ele><time>2026-04-02T10:38:45.834Z</time></trkpt><trkpt lat="41.9390433" lon="13.1288133"><ele>1244.5</ele><time>2026-04-02T10:38:46.831Z</time></trkpt><trkpt lat="41.9389083" lon="13.128775"><ele>1242.0</ele><time>2026-04-02T10:38:47.833Z</time></trkpt><trkpt lat="41.938765" lon="13.1287417"><ele>1239.5</ele><time>2026-04-02T10:38:48.83Z</time></trkpt><trkpt lat="41.93863" lon="13.128725"><ele>1237.0</ele><time>2026-04-02T10:38:49.833Z</time></trkpt><trkpt lat="41.9385" lon="13.1287183"><ele>1237.0</ele><time>2026-04-02T10:38:50.833Z</time></trkpt><trkpt lat="41.9383883" lon="13.1287467"><ele>1237.0</ele><time>2026-04-02T10:38:51.832Z</time></trkpt><trkpt lat="41.93829" lon="13.1288067"><ele>1237.0</ele><time>2026-04-02T10:38:52.833Z</time></trkpt><trkpt lat="41.9382067" lon="13.1289033"><ele>1237.0</ele><time>2026-04-02T10:38:53.834Z</time></trkpt><trkpt lat="41.93813" lon="13.1289967"><ele>1237.0</ele><time>2026-04-02T10:38:54.832Z</time></trkpt><trkpt lat="41.93803" lon="13.1290533"><ele>1239.0</ele><time>2026-04-02T10:38:55.834Z</time></trkpt><trkpt lat="41.9379233" lon="13.129065"><ele>1241.0</ele><time>2026-04-02T10:38:56.835Z</time></trkpt><trkpt lat="41.937805" lon="13.1290383"><ele>1243.0</ele><time>2026-04-02T10:38:57.832Z</time></trkpt><trkpt lat="41.937685" lon="13.1289967"><ele>1245.0</ele><time>2026-04-02T10:38:58.832Z</time></trkpt><trkpt lat="41.9375633" lon="13.128975"><ele>1246.5</ele><time>2026-04-02T10:38:59.834Z</time></trkpt><trkpt lat="41.9374433" lon="13.12898"><ele>1248.0</ele><time>2026-04-02T10:39:00.834Z</time></trkpt><trkpt lat="41.93733" lon="13.1290183"><ele>1249.5</ele><time>2026-04-02T10:39:01.833Z</time></trkpt><trkpt lat="41.9372233" lon="13.1290833"><ele>1251.0</ele><time>2026-04-02T10:39:02.835Z</time></trkpt><trkpt lat="41.9371267" lon="13.1291833"><ele>1251.0</ele><time>2026-04-02T10:39:03.834Z</time></trkpt><trkpt lat="41.937035" lon="13.1292967"><ele>1251.0</ele><time>2026-04-02T10:39:04.832Z</time></trkpt><trkpt lat="41.93694" lon="13.1294183"><ele>1251.0</ele><time>2026-04-02T10:39:05.831Z</time></trkpt><trkpt lat="41.9368383" lon="13.1295533"><ele>1251.0</ele><time>2026-04-02T10:39:06.834Z</time></trkpt><trkpt lat="41.9367417" lon="13.1296917"><ele>1248.75</ele><time>2026-04-02T10:39:07.834Z</time></trkpt><trkpt lat="41.936645" lon="13.129815"><ele>1246.5</ele><time>2026-04-02T10:39:08.832Z</time></trkpt><trkpt lat="41.936565" lon="13.1299283"><ele>1244.25</ele><time>2026-04-02T10:39:09.833Z</time></trkpt><trkpt lat="41.9365017" lon="13.1300417"><ele>1242.0</ele><time>2026-04-02T10:39:10.834Z</time></trkpt><trkpt lat="41.9364567" lon="13.13017"><ele>1242.0</ele><time>2026-04-02T10:39:11.832Z</time></trkpt><trkpt lat="41.936455" lon="13.1303183"><ele>1242.0</ele><time>2026-04-02T10:39:12.83Z</time></trkpt><trkpt lat="41.936485" lon="13.130475"><ele>1242.0</ele><time>2026-04-02T10:39:13.834Z</time></trkpt><trkpt lat="41.936515" lon="13.1306633"><ele>1242.0</ele><time>2026-04-02T10:39:14.834Z</time></trkpt><trkpt lat="41.936555" lon="13.1308533"><ele>1241.75</ele><time>2026-04-02T10:39:15.833Z</time></trkpt><trkpt lat="41.9366133" lon="13.131045"><ele>1241.5</ele><time>2026-04-02T10:39:16.834Z</time></trkpt><trkpt lat="41.9366533" lon="13.1312283"><ele>1241.25</ele><time>2026-04-02T10:39:17.833Z</time></trkpt><trkpt lat="41.9366767" lon="13.1313933"><ele>1241.0</ele><time>2026-04-02T10:39:18.83Z</time></trkpt><trkpt lat="41.9366983" lon="13.1315383"><ele>1241.1666666666667</ele><time>2026-04-02T10:39:19.832Z</time></trkpt><trkpt lat="41.9367117" lon="13.131665"><ele>1241.3333333333335</ele><time>2026-04-02T10:39:20.833Z</time></trkpt><trkpt lat="41.9367233" lon="13.1317717"><ele>1241.5</ele><time>2026-04-02T10:39:21.83Z</time></trkpt><trkpt lat="41.9367267" lon="13.13186"><ele>1241.6666666666667</ele><time>2026-04-02T10:39:22.831Z</time></trkpt><trkpt lat="41.9367067" lon="13.131995"><ele>1241.8333333333333</ele><time>2026-04-02T10:39:24.832Z</time></trkpt><trkpt lat="41.93665" lon="13.1319217"><ele>1242.0</ele><time>2026-04-02T10:39:25.831Z</time></trkpt><trkpt lat="41.9366167" lon="13.13183"><ele>1242.0</ele><time>2026-04-02T10:39:26.832Z</time></trkpt><trkpt lat="41.9365833" lon="13.1316967"><ele>1242.0</ele><time>2026-04-02T10:39:27.831Z</time></trkpt><trkpt lat="41.9365583" lon="13.1315317"><ele>1242.0</ele><time>2026-04-02T10:39:28.832Z</time></trkpt><trkpt lat="41.9365317" lon="13.1313583"><ele>1242.0</ele><time>2026-04-02T10:39:29.832Z</time></trkpt><trkpt lat="41.9364933" lon="13.13118"><ele>1242.0</ele><time>2026-04-02T10:39:30.832Z</time></trkpt><trkpt lat="41.9364367" lon="13.131"><ele>1242.0</ele><time>2026-04-02T10:39:31.831Z</time></trkpt><trkpt lat="41.936355" lon="13.1308467"><ele>1242.0</ele><time>2026-04-02T10:39:32.832Z</time></trkpt><trkpt lat="41.9362533" lon="13.1307133"><ele>1242.0</ele><time>2026-04-02T10:39:33.833Z</time></trkpt><trkpt lat="41.93614" lon="13.130605"><ele>1242.0</ele><time>2026-04-02T10:39:34.831Z</time></trkpt><trkpt lat="41.9360183" lon="13.13053"><ele>1242.0</ele><time>2026-04-02T10:39:35.83Z</time></trkpt><trkpt lat="41.935915" lon="13.13047"><ele>1242.0</ele><time>2026-04-02T10:39:36.832Z</time></trkpt><trkpt lat="41.9358417" lon="13.130405"><ele>1242.0</ele><time>2026-04-02T10:39:37.832Z</time></trkpt><trkpt lat="41.9357867" lon="13.1303333"><ele>1242.0</ele><time>2026-04-02T10:39:38.832Z</time></trkpt><trkpt lat="41.9357867" lon="13.1301717"><ele>1238.75</ele><time>2026-04-02T10:39:40.832Z</time></trkpt><trkpt lat="41.9358317" lon="13.13006"><ele>1235.5</ele><time>2026-04-02T10:39:41.832Z</time></trkpt><trkpt lat="41.9358817" lon="13.1299183"><ele>1232.25</ele><time>2026-04-02T10:39:42.833Z</time></trkpt><trkpt lat="41.9359183" lon="13.129755"><ele>1229.0</ele><time>2026-04-02T10:39:43.833Z</time></trkpt><trkpt lat="41.9359667" lon="13.129585"><ele>1229.0</ele><time>2026-04-02T10:39:44.832Z</time></trkpt><trkpt lat="41.93603" lon="13.1294167"><ele>1229.0</ele><time>2026-04-02T10:39:45.832Z</time></trkpt><trkpt lat="41.93612" lon="13.1292517"><ele>1229.0</ele><time>2026-04-02T10:39:46.833Z</time></trkpt><trkpt lat="41.9362233" lon="13.1290967"><ele>1229.0</ele><time>2026-04-02T10:39:47.831Z</time></trkpt><trkpt lat="41.9363217" lon="13.1289533"><ele>1223.5</ele><time>2026-04-02T10:39:48.831Z</time></trkpt><trkpt lat="41.936405" lon="13.1288067"><ele>1218.0</ele><time>2026-04-02T10:39:49.832Z</time></trkpt><trkpt lat="41.93647" lon="13.1286667"><ele>1212.5</ele><time>2026-04-02T10:39:50.831Z</time></trkpt><trkpt lat="41.9365317" lon="13.1285517"><ele>1207.0</ele><time>2026-04-02T10:39:51.833Z</time></trkpt><trkpt lat="41.9366067" lon="13.12847"><ele>1207.0</ele><time>2026-04-02T10:39:52.829Z</time></trkpt><trkpt lat="41.9367017" lon="13.1284133"><ele>1207.0</ele><time>2026-04-02T10:39:53.83Z</time></trkpt><trkpt lat="41.93681" lon="13.1283617"><ele>1207.0</ele><time>2026-04-02T10:39:54.832Z</time></trkpt><trkpt lat="41.9369117" lon="13.1282933"><ele>1207.0</ele><time>2026-04-02T10:39:55.832Z</time></trkpt><trkpt lat="41.9369917" lon="13.1282033"><ele>1207.0</ele><time>2026-04-02T10:39:56.833Z</time></trkpt><trkpt lat="41.9370417" lon="13.1280967"><ele>1210.2</ele><time>2026-04-02T10:39:57.832Z</time></trkpt><trkpt lat="41.9370733" lon="13.12799"><ele>1213.4</ele><time>2026-04-02T10:39:58.83Z</time></trkpt><trkpt lat="41.937085" lon="13.12788"><ele>1216.6</ele><time>2026-04-02T10:39:59.832Z</time></trkpt><trkpt lat="41.9370683" lon="13.1277583"><ele>1219.8</ele><time>2026-04-02T10:40:00.833Z</time></trkpt><trkpt lat="41.9370483" lon="13.1276067"><ele>1223.0</ele><time>2026-04-02T10:40:01.834Z</time></trkpt><trkpt lat="41.9370517" lon="13.1274483"><ele>1218.25</ele><time>2026-04-02T10:40:02.834Z</time></trkpt><trkpt lat="41.9370633" lon="13.1272733"><ele>1213.5</ele><time>2026-04-02T10:40:03.834Z</time></trkpt><trkpt lat="41.9370867" lon="13.12708"><ele>1208.75</ele><time>2026-04-02T10:40:04.834Z</time></trkpt><trkpt lat="41.93711" lon="13.12688"><ele>1204.0</ele><time>2026-04-02T10:40:05.835Z</time></trkpt><trkpt lat="41.9371433" lon="13.12669"><ele>1196.75</ele><time>2026-04-02T10:40:06.832Z</time></trkpt><trkpt lat="41.9371867" lon="13.1265183"><ele>1189.5</ele><time>2026-04-02T10:40:07.834Z</time></trkpt><trkpt lat="41.9372517" lon="13.1263683"><ele>1182.25</ele><time>2026-04-02T10:40:08.834Z</time></trkpt><trkpt lat="41.9373333" lon="13.1262417"><ele>1175.0</ele><time>2026-04-02T10:40:09.832Z</time></trkpt><trkpt lat="41.9374183" lon="13.126145"><ele>1175.0</ele><time>2026-04-02T10:40:10.832Z</time></trkpt><trkpt lat="41.9375133" lon="13.1260867"><ele>1175.0</ele><time>2026-04-02T10:40:11.832Z</time></trkpt><trkpt lat="41.93762" lon="13.1260767"><ele>1175.0</ele><time>2026-04-02T10:40:12.833Z</time></trkpt><trkpt lat="41.937745" lon="13.12609"><ele>1175.0</ele><time>2026-04-02T10:40:13.833Z</time></trkpt><trkpt lat="41.937875" lon="13.12611"><ele>1172.5</ele><time>2026-04-02T10:40:14.835Z</time></trkpt><trkpt lat="41.9379933" lon="13.126145"><ele>1170.0</ele><time>2026-04-02T10:40:15.833Z</time></trkpt><trkpt lat="41.93809" lon="13.1262083"><ele>1167.5</ele><time>2026-04-02T10:40:16.832Z</time></trkpt><trkpt lat="41.938185" lon="13.1263183"><ele>1165.0</ele><time>2026-04-02T10:40:17.833Z</time></trkpt><trkpt lat="41.9382633" lon="13.1264783"><ele>1158.0</ele><time>2026-04-02T10:40:18.833Z</time></trkpt><trkpt lat="41.938345" lon="13.1266717"><ele>1151.0</ele><time>2026-04-02T10:40:19.833Z</time></trkpt><trkpt lat="41.9384333" lon="13.126875"><ele>1144.0</ele><time>2026-04-02T10:40:20.832Z</time></trkpt><trkpt lat="41.9385283" lon="13.1270617"><ele>1144.0</ele><time>2026-04-02T10:40:21.831Z</time></trkpt><trkpt lat="41.93863" lon="13.1272167"><ele>1144.0</ele><time>2026-04-02T10:40:22.833Z</time></trkpt><trkpt lat="41.93873" lon="13.1273333"><ele>1144.0</ele><time>2026-04-02T10:40:23.833Z</time></trkpt><trkpt lat="41.9388367" lon="13.1274133"><ele>1144.0</ele><time>2026-04-02T10:40:24.833Z</time></trkpt><trkpt lat="41.93896" lon="13.1274467"><ele>1150.0</ele><time>2026-04-02T10:40:25.833Z</time></trkpt><trkpt lat="41.9390967" lon="13.1274533"><ele>1156.0</ele><time>2026-04-02T10:40:26.833Z</time></trkpt><trkpt lat="41.93924" lon="13.1274567"><ele>1162.0</ele><time>2026-04-02T10:40:27.831Z</time></trkpt><trkpt lat="41.9393767" lon="13.1274767"><ele>1168.0</ele><time>2026-04-02T10:40:28.832Z</time></trkpt><trkpt lat="41.9395017" lon="13.1275183"><ele>1168.0</ele><time>2026-04-02T10:40:29.834Z</time></trkpt><trkpt lat="41.93962" lon="13.12757"><ele>1168.0</ele><time>2026-04-02T10:40:30.835Z</time></trkpt><trkpt lat="41.9397383" lon="13.12766"><ele>1168.0</ele><time>2026-04-02T10:40:31.834Z</time></trkpt><trkpt lat="41.9398583" lon="13.1277533"><ele>1168.0</ele><time>2026-04-02T10:40:32.835Z</time></trkpt><trkpt lat="41.9399733" lon="13.1278533"><ele>1164.0</ele><time>2026-04-02T10:40:33.835Z</time></trkpt><trkpt lat="41.94009" lon="13.1279267"><ele>1160.0</ele><time>2026-04-02T10:40:34.834Z</time></trkpt><trkpt lat="41.9402233" lon="13.127955"><ele>1156.0</ele><time>2026-04-02T10:40:35.834Z</time></trkpt><trkpt lat="41.9403717" lon="13.1279367"><ele>1152.0</ele><time>2026-04-02T10:40:36.835Z</time></trkpt><trkpt lat="41.9405267" lon="13.1278983"><ele>1152.0</ele><time>2026-04-02T10:40:37.834Z</time></trkpt><trkpt lat="41.94068" lon="13.12784"><ele>1152.0</ele><time>2026-04-02T10:40:38.835Z</time></trkpt><trkpt lat="41.9408317" lon="13.12776"><ele>1152.0</ele><time>2026-04-02T10:40:39.833Z</time></trkpt><trkpt lat="41.9409933" lon="13.12767"><ele>1158.0</ele><time>2026-04-02T10:40:40.835Z</time></trkpt><trkpt lat="41.9411567" lon="13.127575"><ele>1164.0</ele><time>2026-04-02T10:40:41.835Z</time></trkpt><trkpt lat="41.9413117" lon="13.1274767"><ele>1170.0</ele><time>2026-04-02T10:40:42.834Z</time></trkpt><trkpt lat="41.9414717" lon="13.1273933"><ele>1166.5</ele><time>2026-04-02T10:40:43.833Z</time></trkpt><trkpt lat="41.94163" lon="13.1273283"><ele>1163.0</ele><time>2026-04-02T10:40:44.835Z</time></trkpt><trkpt lat="41.9417767" lon="13.1272833"><ele>1159.5</ele><time>2026-04-02T10:40:45.834Z</time></trkpt><trkpt lat="41.9419" lon="13.1272267"><ele>1156.0</ele><time>2026-04-02T10:40:46.835Z</time></trkpt><trkpt lat="41.9420067" lon="13.1271367"><ele>1156.0</ele><time>2026-04-02T10:40:47.831Z</time></trkpt><trkpt lat="41.9421033" lon="13.1270117"><ele>1156.0</ele><time>2026-04-02T10:40:48.832Z</time></trkpt><trkpt lat="41.9422033" lon="13.12686"><ele>1156.0</ele><time>2026-04-02T10:40:49.831Z</time></trkpt><trkpt lat="41.942315" lon="13.1267133"><ele>1156.0</ele><time>2026-04-02T10:40:50.833Z</time></trkpt><trkpt lat="41.942425" lon="13.12658"><ele>1147.25</ele><time>2026-04-02T10:40:51.833Z</time></trkpt><trkpt lat="41.9425417" lon="13.1264783"><ele>1138.5</ele><time>2026-04-02T10:40:52.832Z</time></trkpt><trkpt lat="41.9426617" lon="13.1264067"><ele>1129.75</ele><time>2026-04-02T10:40:53.831Z</time></trkpt><trkpt lat="41.942785" lon="13.1263717"><ele>1121.0</ele><time>2026-04-02T10:40:54.833Z</time></trkpt><trkpt lat="41.9429133" lon="13.1263633"><ele>1119.75</ele><time>2026-04-02T10:40:55.832Z</time></trkpt><trkpt lat="41.9430467" lon="13.1263883"><ele>1118.5</ele><time>2026-04-02T10:40:56.833Z</time></trkpt><trkpt lat="41.9431917" lon="13.12643"><ele>1117.25</ele><time>2026-04-02T10:40:57.831Z</time></trkpt><trkpt lat="41.9433283" lon="13.1264783"><ele>1116.0</ele><time>2026-04-02T10:40:58.833Z</time></trkpt><trkpt lat="41.943445" lon="13.12653"><ele>1115.0</ele><time>2026-04-02T10:40:59.834Z</time></trkpt><trkpt lat="41.943545" lon="13.1265817"><ele>1114.0</ele><time>2026-04-02T10:41:00.833Z</time></trkpt><trkpt lat="41.9436183" lon="13.126655"><ele>1113.0</ele><time>2026-04-02T10:41:01.832Z</time></trkpt><trkpt lat="41.9436783" lon="13.12675"><ele>1112.0</ele><time>2026-04-02T10:41:02.833Z</time></trkpt><trkpt lat="41.9437267" lon="13.126895"><ele>1111.0</ele><time>2026-04-02T10:41:03.834Z</time></trkpt><trkpt lat="41.9437767" lon="13.1270717"><ele>1111.0</ele><time>2026-04-02T10:41:04.834Z</time></trkpt><trkpt lat="41.9438483" lon="13.1272733"><ele>1111.0</ele><time>2026-04-02T10:41:05.833Z</time></trkpt><trkpt lat="41.9439183" lon="13.1274717"><ele>1111.0</ele><time>2026-04-02T10:41:06.834Z</time></trkpt><trkpt lat="41.9439783" lon="13.127665"><ele>1116.0</ele><time>2026-04-02T10:41:07.833Z</time></trkpt><trkpt lat="41.9440217" lon="13.1278367"><ele>1121.0</ele><time>2026-04-02T10:41:08.834Z</time></trkpt><trkpt lat="41.944045" lon="13.1280083"><ele>1126.0</ele><time>2026-04-02T10:41:09.831Z</time></trkpt><trkpt lat="41.9440617" lon="13.1281783"><ele>1131.0</ele><time>2026-04-02T10:41:10.835Z</time></trkpt><trkpt lat="41.9440833" lon="13.1283317"><ele>1132.8333333333333</ele><time>2026-04-02T10:41:11.834Z</time></trkpt><trkpt lat="41.9441017" lon="13.1284683"><ele>1134.6666666666667</ele><time>2026-04-02T10:41:12.833Z</time></trkpt><trkpt lat="41.9441333" lon="13.12858"><ele>1136.5</ele><time>2026-04-02T10:41:13.835Z</time></trkpt><trkpt lat="41.94417" lon="13.12868"><ele>1138.3333333333335</ele><time>2026-04-02T10:41:14.831Z</time></trkpt><trkpt lat="41.9442167" lon="13.1287583"><ele>1140.1666666666667</ele><time>2026-04-02T10:41:15.832Z</time></trkpt><trkpt lat="41.9442833" lon="13.1288067"><ele>1142.0</ele><time>2026-04-02T10:41:16.832Z</time></trkpt><trkpt lat="41.9443567" lon="13.1288167"><ele>1142.0</ele><time>2026-04-02T10:41:17.831Z</time></trkpt><trkpt lat="41.9444233" lon="13.1287983"><ele>1142.0</ele><time>2026-04-02T10:41:18.831Z</time></trkpt><trkpt lat="41.9445383" lon="13.12873"><ele>1142.0</ele><time>2026-04-02T10:41:19.832Z</time></trkpt><trkpt lat="41.9446817" lon="13.1286317"><ele>1142.0</ele><time>2026-04-02T10:41:20.833Z</time></trkpt><trkpt lat="41.9448467" lon="13.1284567"><ele>1142.0</ele><time>2026-04-02T10:41:21.832Z</time></trkpt><trkpt lat="41.9449783" lon="13.128285"><ele>1142.0</ele><time>2026-04-02T10:41:22.833Z</time></trkpt><trkpt lat="41.9451017" lon="13.1280933"><ele>1142.0</ele><time>2026-04-02T10:41:23.833Z</time></trkpt><trkpt lat="41.9452183" lon="13.1278983"><ele>1141.3333333333335</ele><time>2026-04-02T10:41:24.835Z</time></trkpt><trkpt lat="41.9453467" lon="13.1277033"><ele>1140.6666666666667</ele><time>2026-04-02T10:41:25.833Z</time></trkpt><trkpt lat="41.94548" lon="13.1275267"><ele>1140.0</ele><time>2026-04-02T10:41:26.833Z</time></trkpt><trkpt lat="41.9456233" lon="13.1273633"><ele>1138.6666666666667</ele><time>2026-04-02T10:41:27.834Z</time></trkpt><trkpt lat="41.94578" lon="13.127215"><ele>1137.3333333333335</ele><time>2026-04-02T10:41:28.834Z</time></trkpt><trkpt lat="41.9459433" lon="13.12708"><ele>1136.0</ele><time>2026-04-02T10:41:29.834Z</time></trkpt><trkpt lat="41.9460933" lon="13.1269267"><ele>1136.0</ele><time>2026-04-02T10:41:30.833Z</time></trkpt><trkpt lat="41.9462333" lon="13.1267567"><ele>1136.0</ele><time>2026-04-02T10:41:31.834Z</time></trkpt><trkpt lat="41.9463717" lon="13.1265883"><ele>1136.0</ele><time>2026-04-02T10:41:32.834Z</time></trkpt><trkpt lat="41.9465067" lon="13.126415"><ele>1139.0</ele><time>2026-04-02T10:41:33.833Z</time></trkpt><trkpt lat="41.94664" lon="13.1262333"><ele>1142.0</ele><time>2026-04-02T10:41:34.833Z</time></trkpt><trkpt lat="41.9467667" lon="13.1260467"><ele>1145.0</ele><time>2026-04-02T10:41:35.832Z</time></trkpt><trkpt lat="41.9468867" lon="13.12586"><ele>1135.3333333333335</ele><time>2026-04-02T10:41:36.834Z</time></trkpt><trkpt lat="41.94699" lon="13.1256683"><ele>1125.6666666666667</ele><time>2026-04-02T10:41:37.833Z</time></trkpt><trkpt lat="41.947085" lon="13.125485"><ele>1116.0</ele><time>2026-04-02T10:41:38.834Z</time></trkpt><trkpt lat="41.94717" lon="13.125305"><ele>1116.0</ele><time>2026-04-02T10:41:39.833Z</time></trkpt><trkpt lat="41.94724" lon="13.12513"><ele>1116.0</ele><time>2026-04-02T10:41:40.834Z</time></trkpt><trkpt lat="41.9473033" lon="13.1249617"><ele>1116.0</ele><time>2026-04-02T10:41:41.834Z</time></trkpt><trkpt lat="41.9473717" lon="13.1247983"><ele>1116.0</ele><time>2026-04-02T10:41:42.833Z</time></trkpt><trkpt lat="41.9474583" lon="13.12464"><ele>1118.5</ele><time>2026-04-02T10:41:43.835Z</time></trkpt><trkpt lat="41.9475483" lon="13.1244833"><ele>1121.0</ele><time>2026-04-02T10:41:44.835Z</time></trkpt><trkpt lat="41.94764" lon="13.124325"><ele>1123.5</ele><time>2026-04-02T10:41:45.834Z</time></trkpt><trkpt lat="41.94771" lon="13.124165"><ele>1126.0</ele><time>2026-04-02T10:41:46.834Z</time></trkpt><trkpt lat="41.9477717" lon="13.1240067"><ele>1126.0</ele><time>2026-04-02T10:41:47.831Z</time></trkpt><trkpt lat="41.9478167" lon="13.1238367"><ele>1126.0</ele><time>2026-04-02T10:41:48.832Z</time></trkpt><trkpt lat="41.9478383" lon="13.1236483"><ele>1126.0</ele><time>2026-04-02T10:41:49.832Z</time></trkpt><trkpt lat="41.947845" lon="13.123445"><ele>1126.0</ele><time>2026-04-02T10:41:50.832Z</time></trkpt><trkpt lat="41.9478417" lon="13.1232367"><ele>1123.0</ele><time>2026-04-02T10:41:51.831Z</time></trkpt><trkpt lat="41.9478283" lon="13.123035"><ele>1120.0</ele><time>2026-04-02T10:41:52.831Z</time></trkpt><trkpt lat="41.9478017" lon="13.122835"><ele>1117.0</ele><time>2026-04-02T10:41:53.832Z</time></trkpt><trkpt lat="41.9477617" lon="13.12264"><ele>1117.0</ele><time>2026-04-02T10:41:54.835Z</time></trkpt><trkpt lat="41.947715" lon="13.1224483"><ele>1117.0</ele><time>2026-04-02T10:41:55.831Z</time></trkpt><trkpt lat="41.947675" lon="13.12225"><ele>1117.0</ele><time>2026-04-02T10:41:56.833Z</time></trkpt><trkpt lat="41.9476433" lon="13.1220483"><ele>1112.5</ele><time>2026-04-02T10:41:57.834Z</time></trkpt><trkpt lat="41.947615" lon="13.1218583"><ele>1108.0</ele><time>2026-04-02T10:41:58.833Z</time></trkpt><trkpt lat="41.9475917" lon="13.1216883"><ele>1103.5</ele><time>2026-04-02T10:41:59.834Z</time></trkpt><trkpt lat="41.9475733" lon="13.121535"><ele>1099.0</ele><time>2026-04-02T10:42:00.832Z</time></trkpt><trkpt lat="41.947565" lon="13.121395"><ele>1091.2</ele><time>2026-04-02T10:42:01.834Z</time></trkpt><trkpt lat="41.9475867" lon="13.12127"><ele>1083.4</ele><time>2026-04-02T10:42:02.834Z</time></trkpt><trkpt lat="41.9476267" lon="13.1211783"><ele>1075.6</ele><time>2026-04-02T10:42:03.834Z</time></trkpt><trkpt lat="41.947675" lon="13.1211183"><ele>1067.8</ele><time>2026-04-02T10:42:04.835Z</time></trkpt><trkpt lat="41.9477933" lon="13.1211233"><ele>1060.0</ele><time>2026-04-02T10:42:06.834Z</time></trkpt><trkpt lat="41.9478933" lon="13.121185"><ele>1060.0</ele><time>2026-04-02T10:42:07.833Z</time></trkpt><trkpt lat="41.9480233" lon="13.12127"><ele>1060.0</ele><time>2026-04-02T10:42:08.835Z</time></trkpt><trkpt lat="41.9481717" lon="13.12136"><ele>1060.0</ele><time>2026-04-02T10:42:09.835Z</time></trkpt><trkpt lat="41.9483117" lon="13.1214333"><ele>1054.3333333333333</ele><time>2026-04-02T10:42:10.834Z</time></trkpt><trkpt lat="41.9484667" lon="13.1215"><ele>1048.6666666666667</ele><time>2026-04-02T10:42:11.834Z</time></trkpt><trkpt lat="41.94863" lon="13.121545"><ele>1043.0</ele><time>2026-04-02T10:42:12.832Z</time></trkpt><trkpt lat="41.9488033" lon="13.1215733"><ele>1050.0</ele><time>2026-04-02T10:42:13.833Z</time></trkpt><trkpt lat="41.94898" lon="13.1215833"><ele>1057.0</ele><time>2026-04-02T10:42:14.832Z</time></trkpt><trkpt lat="41.9491533" lon="13.12158"><ele>1064.0</ele><time>2026-04-02T10:42:15.835Z</time></trkpt><trkpt lat="41.949325" lon="13.12159"><ele>1064.0</ele><time>2026-04-02T10:42:16.833Z</time></trkpt><trkpt lat="41.9494817" lon="13.1216067"><ele>1064.0</ele><time>2026-04-02T10:42:17.833Z</time></trkpt><trkpt lat="41.9496167" lon="13.1216433"><ele>1064.0</ele><time>2026-04-02T10:42:18.834Z</time></trkpt><trkpt lat="41.9497517" lon="13.12171"><ele>1064.0</ele><time>2026-04-02T10:42:19.831Z</time></trkpt><trkpt lat="41.949885" lon="13.1218133"><ele>1064.0</ele><time>2026-04-02T10:42:20.831Z</time></trkpt><trkpt lat="41.9500167" lon="13.121945"><ele>1064.0</ele><time>2026-04-02T10:42:21.833Z</time></trkpt><trkpt lat="41.9501367" lon="13.1220867"><ele>1064.0</ele><time>2026-04-02T10:42:22.83Z</time></trkpt><trkpt lat="41.9502467" lon="13.1222283"><ele>1060.5</ele><time>2026-04-02T10:42:23.834Z</time></trkpt><trkpt lat="41.9503467" lon="13.122375"><ele>1057.0</ele><time>2026-04-02T10:42:24.831Z</time></trkpt><trkpt lat="41.9504317" lon="13.12253"><ele>1053.5</ele><time>2026-04-02T10:42:25.832Z</time></trkpt><trkpt lat="41.9504967" lon="13.1226917"><ele>1050.0</ele><time>2026-04-02T10:42:26.833Z</time></trkpt><trkpt lat="41.95055" lon="13.122855"><ele>1050.0</ele><time>2026-04-02T10:42:27.834Z</time></trkpt><trkpt lat="41.950595" lon="13.123025"><ele>1050.0</ele><time>2026-04-02T10:42:28.833Z</time></trkpt><trkpt lat="41.9506317" lon="13.123195"><ele>1050.0</ele><time>2026-04-02T10:42:29.833Z</time></trkpt><trkpt lat="41.950665" lon="13.1233517"><ele>1050.0</ele><time>2026-04-02T10:42:30.831Z</time></trkpt><trkpt lat="41.9506967" lon="13.123495"><ele>1053.0</ele><time>2026-04-02T10:42:31.833Z</time></trkpt><trkpt lat="41.9507267" lon="13.1236283"><ele>1056.0</ele><time>2026-04-02T10:42:32.834Z</time></trkpt><trkpt lat="41.9507567" lon="13.123745"><ele>1059.0</ele><time>2026-04-02T10:42:33.833Z</time></trkpt><trkpt lat="41.9507767" lon="13.12384"><ele>1062.0</ele><time>2026-04-02T10:42:34.832Z</time></trkpt><trkpt lat="41.9508133" lon="13.1239833"><ele>1065.0</ele><time>2026-04-02T10:42:36.832Z</time></trkpt><trkpt lat="41.95087" lon="13.1240567"><ele>1065.0</ele><time>2026-04-02T10:42:38.833Z</time></trkpt><trkpt lat="41.95092" lon="13.1239767"><ele>1065.0</ele><time>2026-04-02T10:42:40.832Z</time></trkpt><trkpt lat="41.95094" lon="13.123855"><ele>1065.0</ele><time>2026-04-02T10:42:41.833Z</time></trkpt><trkpt lat="41.95092" lon="13.12368"><ele>1065.0</ele><time>2026-04-02T10:42:42.832Z</time></trkpt><trkpt lat="41.9508867" lon="13.123495"><ele>1065.0</ele><time>2026-04-02T10:42:43.832Z</time></trkpt><trkpt lat="41.9508333" lon="13.123275"><ele>1060.0</ele><time>2026-04-02T10:42:44.831Z</time></trkpt><trkpt lat="41.9507917" lon="13.1230617"><ele>1055.0</ele><time>2026-04-02T10:42:45.832Z</time></trkpt><trkpt lat="41.95075" lon="13.1228583"><ele>1050.0</ele><time>2026-04-02T10:42:46.832Z</time></trkpt><trkpt lat="41.950705" lon="13.122655"><ele>1050.0</ele><time>2026-04-02T10:42:47.832Z</time></trkpt><trkpt lat="41.95065" lon="13.12245"><ele>1050.0</ele><time>2026-04-02T10:42:48.832Z</time></trkpt><trkpt lat="41.9505833" lon="13.122245"><ele>1050.0</ele><time>2026-04-02T10:42:49.832Z</time></trkpt><trkpt lat="41.950495" lon="13.12205"><ele>1042.6666666666667</ele><time>2026-04-02T10:42:50.832Z</time></trkpt><trkpt lat="41.9503933" lon="13.1218717"><ele>1035.3333333333335</ele><time>2026-04-02T10:42:51.832Z</time></trkpt><trkpt lat="41.9502933" lon="13.1217"><ele>1028.0</ele><time>2026-04-02T10:42:52.831Z</time></trkpt><trkpt lat="41.9501883" lon="13.1215433"><ele>1028.0</ele><time>2026-04-02T10:42:53.832Z</time></trkpt><trkpt lat="41.9500783" lon="13.1214017"><ele>1028.0</ele><time>2026-04-02T10:42:54.835Z</time></trkpt><trkpt lat="41.9499633" lon="13.12127"><ele>1028.0</ele><time>2026-04-02T10:42:55.834Z</time></trkpt><trkpt lat="41.9498367" lon="13.1211583"><ele>1028.0</ele><time>2026-04-02T10:42:56.83Z</time></trkpt><trkpt lat="41.9496883" lon="13.121065"><ele>1028.0</ele><time>2026-04-02T10:42:57.833Z</time></trkpt><trkpt lat="41.949525" lon="13.1209817"><ele>1028.0</ele><time>2026-04-02T10:42:58.83Z</time></trkpt><trkpt lat="41.9493583" lon="13.1209083"><ele>1033.0</ele><time>2026-04-02T10:42:59.832Z</time></trkpt><trkpt lat="41.9491933" lon="13.120845"><ele>1038.0</ele><time>2026-04-02T10:43:00.833Z</time></trkpt><trkpt lat="41.9490333" lon="13.1207833"><ele>1043.0</ele><time>2026-04-02T10:43:01.833Z</time></trkpt><trkpt lat="41.94888" lon="13.1207233"><ele>1029.6666666666667</ele><time>2026-04-02T10:43:02.831Z</time></trkpt><trkpt lat="41.9487383" lon="13.120655"><ele>1016.3333333333333</ele><time>2026-04-02T10:43:03.832Z</time></trkpt><trkpt lat="41.9485967" lon="13.1205783"><ele>1003.0</ele><time>2026-04-02T10:43:04.833Z</time></trkpt><trkpt lat="41.94846" lon="13.1204817"><ele>1009.3333333333333</ele><time>2026-04-02T10:43:05.834Z</time></trkpt><trkpt lat="41.9483167" lon="13.1203767"><ele>1015.6666666666667</ele><time>2026-04-02T10:43:06.832Z</time></trkpt><trkpt lat="41.9481717" lon="13.1202767"><ele>1022.0</ele><time>2026-04-02T10:43:07.833Z</time></trkpt><trkpt lat="41.9480317" lon="13.120175"><ele>1022.0</ele><time>2026-04-02T10:43:08.831Z</time></trkpt><trkpt lat="41.947895" lon="13.120075"><ele>1022.0</ele><time>2026-04-02T10:43:09.832Z</time></trkpt><trkpt lat="41.947765" lon="13.119975"><ele>1022.0</ele><time>2026-04-02T10:43:10.83Z</time></trkpt><trkpt lat="41.9476333" lon="13.11987"><ele>1017.0</ele><time>2026-04-02T10:43:11.835Z</time></trkpt><trkpt lat="41.9475133" lon="13.1197383"><ele>1012.0</ele><time>2026-04-02T10:43:12.831Z</time></trkpt><trkpt lat="41.9474017" lon="13.119575"><ele>1007.0</ele><time>2026-04-02T10:43:13.832Z</time></trkpt><trkpt lat="41.9472917" lon="13.11941"><ele>1007.0</ele><time>2026-04-02T10:43:14.833Z</time></trkpt><trkpt lat="41.947185" lon="13.11926"><ele>1007.0</ele><time>2026-04-02T10:43:15.831Z</time></trkpt><trkpt lat="41.9470917" lon="13.1191383"><ele>1007.0</ele><time>2026-04-02T10:43:16.831Z</time></trkpt><trkpt lat="41.9470067" lon="13.1190333"><ele>1007.0</ele><time>2026-04-02T10:43:17.831Z</time></trkpt><trkpt lat="41.946925" lon="13.1189533"><ele>1008.5000000000001</ele><time>2026-04-02T10:43:18.832Z</time></trkpt><trkpt lat="41.946855" lon="13.1189"><ele>1010.0</ele><time>2026-04-02T10:43:19.831Z</time></trkpt><trkpt lat="41.94678" lon="13.118875"><ele>1011.5</ele><time>2026-04-02T10:43:20.832Z</time></trkpt><trkpt lat="41.9467067" lon="13.1188967"><ele>1013.0</ele><time>2026-04-02T10:43:21.833Z</time></trkpt><trkpt lat="41.9466417" lon="13.1189817"><ele>1014.5000000000001</ele><time>2026-04-02T10:43:22.831Z</time></trkpt><trkpt lat="41.9466033" lon="13.1191333"><ele>1016.0</ele><time>2026-04-02T10:43:23.832Z</time></trkpt><trkpt lat="41.94657" lon="13.1193033"><ele>1016.0</ele><time>2026-04-02T10:43:24.834Z</time></trkpt><trkpt lat="41.9465417" lon="13.1194683"><ele>1016.0</ele><time>2026-04-02T10:43:25.834Z</time></trkpt><trkpt lat="41.9465267" lon="13.11965"><ele>1016.0</ele><time>2026-04-02T10:43:26.834Z</time></trkpt><trkpt lat="41.94652" lon="13.119855"><ele>1016.0</ele><time>2026-04-02T10:43:27.834Z</time></trkpt><trkpt lat="41.94651" lon="13.120065"><ele>1018.6666666666667</ele><time>2026-04-02T10:43:28.833Z</time></trkpt><trkpt lat="41.946495" lon="13.1202767"><ele>1021.3333333333333</ele><time>2026-04-02T10:43:29.834Z</time></trkpt><trkpt lat="41.9464767" lon="13.1205"><ele>1024.0</ele><time>2026-04-02T10:43:30.833Z</time></trkpt><trkpt lat="41.946455" lon="13.12073"><ele>1024.0</ele><time>2026-04-02T10:43:31.834Z</time></trkpt><trkpt lat="41.946435" lon="13.1209633"><ele>1024.0</ele><time>2026-04-02T10:43:32.834Z</time></trkpt><trkpt lat="41.946415" lon="13.12119"><ele>1024.0</ele><time>2026-04-02T10:43:33.834Z</time></trkpt><trkpt lat="41.9463967" lon="13.1214067"><ele>1025.6666666666665</ele><time>2026-04-02T10:43:34.832Z</time></trkpt><trkpt lat="41.9463783" lon="13.1216167"><ele>1027.3333333333333</ele><time>2026-04-02T10:43:35.833Z</time></trkpt><trkpt lat="41.9463617" lon="13.1218167"><ele>1029.0</ele><time>2026-04-02T10:43:36.834Z</time></trkpt><trkpt lat="41.9463517" lon="13.12201"><ele>1029.0</ele><time>2026-04-02T10:43:37.833Z</time></trkpt><trkpt lat="41.9463367" lon="13.1222017"><ele>1029.0</ele><time>2026-04-02T10:43:38.834Z</time></trkpt><trkpt lat="41.94632" lon="13.1223983"><ele>1029.0</ele><time>2026-04-02T10:43:39.834Z</time></trkpt><trkpt lat="41.9463017" lon="13.1225933"><ele>1029.0</ele><time>2026-04-02T10:43:40.834Z</time></trkpt><trkpt lat="41.9462767" lon="13.1227783"><ele>1029.5</ele><time>2026-04-02T10:43:41.834Z</time></trkpt><trkpt lat="41.9462467" lon="13.122955"><ele>1030.0</ele><time>2026-04-02T10:43:42.834Z</time></trkpt><trkpt lat="41.946205" lon="13.1231217"><ele>1030.5</ele><time>2026-04-02T10:43:43.834Z</time></trkpt><trkpt lat="41.9461483" lon="13.1232717"><ele>1031.0</ele><time>2026-04-02T10:43:44.833Z</time></trkpt><trkpt lat="41.9460867" lon="13.1234117"><ele>1031.6</ele><time>2026-04-02T10:43:45.833Z</time></trkpt><trkpt lat="41.9460217" lon="13.123545"><ele>1032.1999999999998</ele><time>2026-04-02T10:43:46.833Z</time></trkpt><trkpt lat="41.9459633" lon="13.1236717"><ele>1032.8000000000002</ele><time>2026-04-02T10:43:47.833Z</time></trkpt><trkpt lat="41.9459133" lon="13.1237883"><ele>1033.4</ele><time>2026-04-02T10:43:48.834Z</time></trkpt><trkpt lat="41.94587" lon="13.1238883"><ele>1034.0</ele><time>2026-04-02T10:43:49.832Z</time></trkpt><trkpt lat="41.94583" lon="13.1239633"><ele>1034.0</ele><time>2026-04-02T10:43:50.833Z</time></trkpt><trkpt lat="41.94576" lon="13.1240183"><ele>1034.0</ele><time>2026-04-02T10:43:52.833Z</time></trkpt><trkpt lat="41.9457033" lon="13.1239433"><ele>1034.0</ele><time>2026-04-02T10:43:54.834Z</time></trkpt><trkpt lat="41.9457783" lon="13.1237383"><ele>1034.0</ele><time>2026-04-02T10:43:56.834Z</time></trkpt><trkpt lat="41.94585" lon="13.123615"><ele>1034.0</ele><time>2026-04-02T10:43:57.833Z</time></trkpt><trkpt lat="41.9459183" lon="13.1234717"><ele>1034.0</ele><time>2026-04-02T10:43:58.833Z</time></trkpt><trkpt lat="41.9459783" lon="13.1233183"><ele>1034.0</ele><time>2026-04-02T10:43:59.834Z</time></trkpt><trkpt lat="41.9460283" lon="13.1231483"><ele>1034.0</ele><time>2026-04-02T10:44:00.833Z</time></trkpt><trkpt lat="41.946055" lon="13.1229583"><ele>1034.0</ele><time>2026-04-02T10:44:01.831Z</time></trkpt><trkpt lat="41.9460583" lon="13.122745"><ele>1033.0</ele><time>2026-04-02T10:44:02.833Z</time></trkpt><trkpt lat="41.9460517" lon="13.1225233"><ele>1032.0</ele><time>2026-04-02T10:44:03.833Z</time></trkpt><trkpt lat="41.946045" lon="13.1223133"><ele>1031.0</ele><time>2026-04-02T10:44:04.833Z</time></trkpt><trkpt lat="41.9460383" lon="13.12212"><ele>1030.5</ele><time>2026-04-02T10:44:05.834Z</time></trkpt><trkpt lat="41.9460333" lon="13.1219367"><ele>1030.0</ele><time>2026-04-02T10:44:06.832Z</time></trkpt><trkpt lat="41.9460283" lon="13.1217567"><ele>1029.5</ele><time>2026-04-02T10:44:07.833Z</time></trkpt><trkpt lat="41.9460233" lon="13.1215733"><ele>1029.0</ele><time>2026-04-02T10:44:08.833Z</time></trkpt><trkpt lat="41.94602" lon="13.12138"><ele>1027.3333333333333</ele><time>2026-04-02T10:44:09.834Z</time></trkpt><trkpt lat="41.9460167" lon="13.1211767"><ele>1025.6666666666665</ele><time>2026-04-02T10:44:10.834Z</time></trkpt><trkpt lat="41.946015" lon="13.1209633"><ele>1024.0</ele><time>2026-04-02T10:44:11.833Z</time></trkpt><trkpt lat="41.946015" lon="13.1207517"><ele>1024.0</ele><time>2026-04-02T10:44:12.832Z</time></trkpt><trkpt lat="41.946015" lon="13.120545"><ele>1024.0</ele><time>2026-04-02T10:44:13.831Z</time></trkpt><trkpt lat="41.9460133" lon="13.1203383"><ele>1024.0</ele><time>2026-04-02T10:44:14.833Z</time></trkpt><trkpt lat="41.9460083" lon="13.1201383"><ele>1024.0</ele><time>2026-04-02T10:44:15.831Z</time></trkpt><trkpt lat="41.946" lon="13.1199417"><ele>1024.0</ele><time>2026-04-02T10:44:16.831Z</time></trkpt><trkpt lat="41.94599" lon="13.1197433"><ele>1024.0</ele><time>2026-04-02T10:44:17.831Z</time></trkpt><trkpt lat="41.9459817" lon="13.11954"><ele>1024.0</ele><time>2026-04-02T10:44:18.835Z</time></trkpt><trkpt lat="41.9459733" lon="13.11933"><ele>1021.3333333333333</ele><time>2026-04-02T10:44:19.832Z</time></trkpt><trkpt lat="41.9459733" lon="13.1191183"><ele>1018.6666666666667</ele><time>2026-04-02T10:44:20.835Z</time></trkpt><trkpt lat="41.9459717" lon="13.1189067"><ele>1016.0</ele><time>2026-04-02T10:44:21.834Z</time></trkpt><trkpt lat="41.9459667" lon="13.1187017"><ele>1010.75</ele><time>2026-04-02T10:44:22.833Z</time></trkpt><trkpt lat="41.9459583" lon="13.1185067"><ele>1005.5</ele><time>2026-04-02T10:44:23.834Z</time></trkpt><trkpt lat="41.94595" lon="13.1183267"><ele>1000.25</ele><time>2026-04-02T10:44:24.834Z</time></trkpt><trkpt lat="41.945955" lon="13.1181617"><ele>995.0</ele><time>2026-04-02T10:44:25.832Z</time></trkpt><trkpt lat="41.94598" lon="13.1180167"><ele>988.6666666666667</ele><time>2026-04-02T10:44:26.834Z</time></trkpt><trkpt lat="41.946025" lon="13.1179"><ele>982.3333333333334</ele><time>2026-04-02T10:44:27.833Z</time></trkpt><trkpt lat="41.9460833" lon="13.1178017"><ele>976.0</ele><time>2026-04-02T10:44:28.834Z</time></trkpt><trkpt lat="41.9461467" lon="13.1177167"><ele>969.6666666666667</ele><time>2026-04-02T10:44:29.832Z</time></trkpt><trkpt lat="41.9461983" lon="13.117645"><ele>963.3333333333334</ele><time>2026-04-02T10:44:30.834Z</time></trkpt><trkpt lat="41.946235" lon="13.1175733"><ele>957.0</ele><time>2026-04-02T10:44:31.833Z</time></trkpt><trkpt lat="41.9462517" lon="13.1174217"><ele>957.0</ele><time>2026-04-02T10:44:33.834Z</time></trkpt><trkpt lat="41.94619" lon="13.117355"><ele>957.0</ele><time>2026-04-02T10:44:35.832Z</time></trkpt><trkpt lat="41.946095" lon="13.11745"><ele>957.0</ele><time>2026-04-02T10:44:36.832Z</time></trkpt><trkpt lat="41.94602" lon="13.11755"><ele>957.0</ele><time>2026-04-02T10:44:37.833Z</time></trkpt><trkpt lat="41.9459467" lon="13.1176833"><ele>957.0</ele><time>2026-04-02T10:44:38.835Z</time></trkpt><trkpt lat="41.94589" lon="13.1178367"><ele>957.75</ele><time>2026-04-02T10:44:39.834Z</time></trkpt><trkpt lat="41.9458433" lon="13.1180067"><ele>958.5</ele><time>2026-04-02T10:44:40.834Z</time></trkpt><trkpt lat="41.9458083" lon="13.1181917"><ele>959.25</ele><time>2026-04-02T10:44:41.835Z</time></trkpt><trkpt lat="41.9457833" lon="13.1183783"><ele>960.0</ele><time>2026-04-02T10:44:42.832Z</time></trkpt><trkpt lat="41.9457633" lon="13.1185783"><ele>960.0</ele><time>2026-04-02T10:44:43.832Z</time></trkpt><trkpt lat="41.9457417" lon="13.1187917"><ele>960.0</ele><time>2026-04-02T10:44:44.832Z</time></trkpt><trkpt lat="41.9457083" lon="13.1190167"><ele>960.0</ele><time>2026-04-02T10:44:45.833Z</time></trkpt><trkpt lat="41.9456683" lon="13.1192533"><ele>963.0</ele><time>2026-04-02T10:44:46.832Z</time></trkpt><trkpt lat="41.9456283" lon="13.1194933"><ele>966.0</ele><time>2026-04-02T10:44:47.833Z</time></trkpt><trkpt lat="41.9455883" lon="13.1197267"><ele>969.0</ele><time>2026-04-02T10:44:48.834Z</time></trkpt><trkpt lat="41.9455517" lon="13.1199433"><ele>970.0</ele><time>2026-04-02T10:44:49.833Z</time></trkpt><trkpt lat="41.9455117" lon="13.1201467"><ele>971.0</ele><time>2026-04-02T10:44:50.832Z</time></trkpt><trkpt lat="41.94547" lon="13.1203417"><ele>972.0</ele><time>2026-04-02T10:44:51.833Z</time></trkpt><trkpt lat="41.945425" lon="13.1205317"><ele>972.0</ele><time>2026-04-02T10:44:52.833Z</time></trkpt><trkpt lat="41.9453783" lon="13.1207183"><ele>972.0</ele><time>2026-04-02T10:44:53.835Z</time></trkpt><trkpt lat="41.9453333" lon="13.1209017"><ele>972.0</ele><time>2026-04-02T10:44:54.831Z</time></trkpt><trkpt lat="41.9452883" lon="13.1210817"><ele>972.0</ele><time>2026-04-02T10:44:55.835Z</time></trkpt><trkpt lat="41.9452467" lon="13.1212533"><ele>973.0</ele><time>2026-04-02T10:44:56.835Z</time></trkpt><trkpt lat="41.9452133" lon="13.121415"><ele>974.0</ele><time>2026-04-02T10:44:57.833Z</time></trkpt><trkpt lat="41.9451867" lon="13.1215633"><ele>975.0</ele><time>2026-04-02T10:44:58.834Z</time></trkpt><trkpt lat="41.9451683" lon="13.12169"><ele>976.0</ele><time>2026-04-02T10:44:59.833Z</time></trkpt><trkpt lat="41.94516" lon="13.1217917"><ele>977.0</ele><time>2026-04-02T10:45:00.835Z</time></trkpt><trkpt lat="41.94515" lon="13.1218767"><ele>977.6</ele><time>2026-04-02T10:45:01.835Z</time></trkpt><trkpt lat="41.9451133" lon="13.1219767"><ele>978.2</ele><time>2026-04-02T10:45:03.833Z</time></trkpt><trkpt lat="41.94504" lon="13.1219683"><ele>978.8</ele><time>2026-04-02T10:45:05.834Z</time></trkpt><trkpt lat="41.9449967" lon="13.12181"><ele>979.4</ele><time>2026-04-02T10:45:07.835Z</time></trkpt><trkpt lat="41.94501" lon="13.121635"><ele>980.0</ele><time>2026-04-02T10:45:08.833Z</time></trkpt><trkpt lat="41.9450417" lon="13.1214483"><ele>979.0</ele><time>2026-04-02T10:45:09.835Z</time></trkpt><trkpt lat="41.9450633" lon="13.1212583"><ele>978.0</ele><time>2026-04-02T10:45:10.833Z</time></trkpt><trkpt lat="41.9450833" lon="13.1210467"><ele>977.0</ele><time>2026-04-02T10:45:11.833Z</time></trkpt><trkpt lat="41.945095" lon="13.1208267"><ele>975.3333333333334</ele><time>2026-04-02T10:45:12.835Z</time></trkpt><trkpt lat="41.945105" lon="13.120605"><ele>973.6666666666667</ele><time>2026-04-02T10:45:13.831Z</time></trkpt><trkpt lat="41.945115" lon="13.12037"><ele>972.0</ele><time>2026-04-02T10:45:14.834Z</time></trkpt><trkpt lat="41.9451217" lon="13.1201267"><ele>971.0</ele><time>2026-04-02T10:45:15.835Z</time></trkpt><trkpt lat="41.9451217" lon="13.1198867"><ele>970.0</ele><time>2026-04-02T10:45:16.835Z</time></trkpt><trkpt lat="41.9451133" lon="13.119655"><ele>969.0</ele><time>2026-04-02T10:45:17.834Z</time></trkpt><trkpt lat="41.9451067" lon="13.1194317"><ele>969.0</ele><time>2026-04-02T10:45:18.832Z</time></trkpt><trkpt lat="41.945105" lon="13.1192217"><ele>969.0</ele><time>2026-04-02T10:45:19.831Z</time></trkpt><trkpt lat="41.9451067" lon="13.119015"><ele>969.0</ele><time>2026-04-02T10:45:20.832Z</time></trkpt><trkpt lat="41.94511" lon="13.1188117"><ele>966.75</ele><time>2026-04-02T10:45:21.835Z</time></trkpt><trkpt lat="41.945115" lon="13.1186133"><ele>964.5</ele><time>2026-04-02T10:45:22.834Z</time></trkpt><trkpt lat="41.9451183" lon="13.11842"><ele>962.25</ele><time>2026-04-02T10:45:23.834Z</time></trkpt><trkpt lat="41.94512" lon="13.11823"><ele>960.0</ele><time>2026-04-02T10:45:24.834Z</time></trkpt><trkpt lat="41.9451217" lon="13.118045"><ele>956.75</ele><time>2026-04-02T10:45:25.83Z</time></trkpt><trkpt lat="41.94513" lon="13.117865"><ele>953.5</ele><time>2026-04-02T10:45:26.834Z</time></trkpt><trkpt lat="41.94515" lon="13.117685"><ele>950.25</ele><time>2026-04-02T10:45:27.832Z</time></trkpt><trkpt lat="41.9451733" lon="13.1175017"><ele>947.0</ele><time>2026-04-02T10:45:28.832Z</time></trkpt><trkpt lat="41.9452117" lon="13.1173083"><ele>939.6666666666667</ele><time>2026-04-02T10:45:29.833Z</time></trkpt><trkpt lat="41.9452667" lon="13.1171167"><ele>932.3333333333333</ele><time>2026-04-02T10:45:30.833Z</time></trkpt><trkpt lat="41.94534" lon="13.1169317"><ele>925.0</ele><time>2026-04-02T10:45:31.832Z</time></trkpt><trkpt lat="41.9454217" lon="13.1167517"><ele>920.25</ele><time>2026-04-02T10:45:32.832Z</time></trkpt><trkpt lat="41.945485" lon="13.1165667"><ele>915.5</ele><time>2026-04-02T10:45:33.832Z</time></trkpt><trkpt lat="41.9455183" lon="13.1163767"><ele>910.75</ele><time>2026-04-02T10:45:34.833Z</time></trkpt><trkpt lat="41.945535" lon="13.1161917"><ele>906.0</ele><time>2026-04-02T10:45:35.832Z</time></trkpt><trkpt lat="41.9455417" lon="13.1160117"><ele>906.0</ele><time>2026-04-02T10:45:36.833Z</time></trkpt><trkpt lat="41.945545" lon="13.115835"><ele>906.0</ele><time>2026-04-02T10:45:37.832Z</time></trkpt><trkpt lat="41.9455433" lon="13.1156617"><ele>906.0</ele><time>2026-04-02T10:45:38.832Z</time></trkpt><trkpt lat="41.9455433" lon="13.1154917"><ele>906.0</ele><time>2026-04-02T10:45:39.833Z</time></trkpt><trkpt lat="41.94555" lon="13.1153283"><ele>902.5999999999999</ele><time>2026-04-02T10:45:40.833Z</time></trkpt><trkpt lat="41.94557" lon="13.1151767"><ele>899.1999999999999</ele><time>2026-04-02T10:45:41.832Z</time></trkpt><trkpt lat="41.945595" lon="13.1150433"><ele>895.8000000000001</ele><time>2026-04-02T10:45:42.83Z</time></trkpt><trkpt lat="41.945615" lon="13.11494"><ele>892.4000000000001</ele><time>2026-04-02T10:45:43.833Z</time></trkpt><trkpt lat="41.94562" lon="13.1148167"><ele>889.0</ele><time>2026-04-02T10:45:45.833Z</time></trkpt><trkpt lat="41.9455783" lon="13.1147367"><ele>889.0</ele><time>2026-04-02T10:45:48.832Z</time></trkpt><trkpt lat="41.9455083" lon="13.1147267"><ele>889.0000000000001</ele><time>2026-04-02T10:46:04.834Z</time></trkpt><trkpt lat="41.9454583" lon="13.1148683"><ele>889.0000000000001</ele><time>2026-04-02T10:46:06.835Z</time></trkpt><trkpt lat="41.9454333" lon="13.1149817"><ele>889.0</ele><time>2026-04-02T10:46:07.835Z</time></trkpt><trkpt lat="41.9454183" lon="13.115125"><ele>889.0</ele><time>2026-04-02T10:46:08.834Z</time></trkpt><trkpt lat="41.9454067" lon="13.11531"><ele>889.0</ele><time>2026-04-02T10:46:09.833Z</time></trkpt><trkpt lat="41.9453867" lon="13.1154817"><ele>889.0</ele><time>2026-04-02T10:46:10.834Z</time></trkpt><trkpt lat="41.94536" lon="13.11567"><ele>889.0</ele><time>2026-04-02T10:46:11.835Z</time></trkpt><trkpt lat="41.9453317" lon="13.1158767"><ele>889.0</ele><time>2026-04-02T10:46:12.834Z</time></trkpt><trkpt lat="41.9453033" lon="13.1160833"><ele>888.0</ele><time>2026-04-02T10:46:13.834Z</time></trkpt><trkpt lat="41.9452633" lon="13.116275"><ele>887.0</ele><time>2026-04-02T10:46:14.832Z</time></trkpt><trkpt lat="41.9452117" lon="13.1164467"><ele>886.0</ele><time>2026-04-02T10:46:15.834Z</time></trkpt><trkpt lat="41.945135" lon="13.1165933"><ele>885.0</ele><time>2026-04-02T10:46:16.834Z</time></trkpt><trkpt lat="41.9450317" lon="13.1167333"><ele>885.0</ele><time>2026-04-02T10:46:17.833Z</time></trkpt><trkpt lat="41.9449233" lon="13.1168767"><ele>885.0</ele><time>2026-04-02T10:46:18.833Z</time></trkpt><trkpt lat="41.9448167" lon="13.1170367"><ele>885.0</ele><time>2026-04-02T10:46:19.833Z</time></trkpt><trkpt lat="41.94472" lon="13.117215"><ele>885.0</ele><time>2026-04-02T10:46:20.832Z</time></trkpt><trkpt lat="41.944635" lon="13.1174"><ele>885.0</ele><time>2026-04-02T10:46:21.833Z</time></trkpt><trkpt lat="41.9445733" lon="13.117585"><ele>885.0</ele><time>2026-04-02T10:46:22.831Z</time></trkpt><trkpt lat="41.94453" lon="13.1177533"><ele>885.0</ele><time>2026-04-02T10:46:23.833Z</time></trkpt><trkpt lat="41.9444967" lon="13.1179033"><ele>888.4</ele><time>2026-04-02T10:46:24.834Z</time></trkpt><trkpt lat="41.944475" lon="13.1180283"><ele>891.8</ele><time>2026-04-02T10:46:25.833Z</time></trkpt><trkpt lat="41.9444533" lon="13.1181217"><ele>895.2</ele><time>2026-04-02T10:46:26.835Z</time></trkpt><trkpt lat="41.9443817" lon="13.1181667"><ele>898.6</ele><time>2026-04-02T10:46:28.834Z</time></trkpt><trkpt lat="41.9443217" lon="13.118055"><ele>902.0</ele><time>2026-04-02T10:46:30.834Z</time></trkpt><trkpt lat="41.9443517" lon="13.1179133"><ele>902.0</ele><time>2026-04-02T10:46:31.835Z</time></trkpt><trkpt lat="41.944395" lon="13.1177517"><ele>902.0</ele><time>2026-04-02T10:46:32.833Z</time></trkpt><trkpt lat="41.94442" lon="13.1175733"><ele>902.0</ele><time>2026-04-02T10:46:33.834Z</time></trkpt><trkpt lat="41.9444333" lon="13.117365"><ele>902.0</ele><time>2026-04-02T10:46:34.834Z</time></trkpt><trkpt lat="41.9444433" lon="13.1171517"><ele>897.75</ele><time>2026-04-02T10:46:35.834Z</time></trkpt><trkpt lat="41.9444683" lon="13.116955"><ele>893.5</ele><time>2026-04-02T10:46:36.834Z</time></trkpt><trkpt lat="41.9445283" lon="13.1167883"><ele>889.25</ele><time>2026-04-02T10:46:37.835Z</time></trkpt><trkpt lat="41.9446033" lon="13.1166383"><ele>885.0</ele><time>2026-04-02T10:46:38.835Z</time></trkpt><trkpt lat="41.9446783" lon="13.116485"><ele>881.75</ele><time>2026-04-02T10:46:39.832Z</time></trkpt><trkpt lat="41.94474" lon="13.1163167"><ele>878.5</ele><time>2026-04-02T10:46:40.833Z</time></trkpt><trkpt lat="41.9447633" lon="13.1161317"><ele>875.25</ele><time>2026-04-02T10:46:41.833Z</time></trkpt><trkpt lat="41.9447483" lon="13.1159283"><ele>872.0</ele><time>2026-04-02T10:46:42.834Z</time></trkpt><trkpt lat="41.94471" lon="13.1156967"><ele>870.3333333333334</ele><time>2026-04-02T10:46:43.834Z</time></trkpt><trkpt lat="41.94468" lon="13.11546"><ele>868.6666666666667</ele><time>2026-04-02T10:46:44.835Z</time></trkpt><trkpt lat="41.94465" lon="13.1152283"><ele>867.0</ele><time>2026-04-02T10:46:45.834Z</time></trkpt><trkpt lat="41.9446183" lon="13.115015"><ele>863.3333333333333</ele><time>2026-04-02T10:46:46.833Z</time></trkpt><trkpt lat="41.9445867" lon="13.1148167"><ele>859.6666666666666</ele><time>2026-04-02T10:46:47.831Z</time></trkpt><trkpt lat="41.9445783" lon="13.1146083"><ele>856.0</ele><time>2026-04-02T10:46:48.834Z</time></trkpt><trkpt lat="41.9445933" lon="13.1144017"><ele>856.0</ele><time>2026-04-02T10:46:49.833Z</time></trkpt><trkpt lat="41.9446217" lon="13.1141817"><ele>856.0</ele><time>2026-04-02T10:46:50.832Z</time></trkpt><trkpt lat="41.944655" lon="13.1139683"><ele>856.0</ele><time>2026-04-02T10:46:51.831Z</time></trkpt><trkpt lat="41.944695" lon="13.1137783"><ele>849.25</ele><time>2026-04-02T10:46:52.834Z</time></trkpt><trkpt lat="41.9447417" lon="13.1136133"><ele>842.5</ele><time>2026-04-02T10:46:53.832Z</time></trkpt><trkpt lat="41.9447967" lon="13.1134667"><ele>835.75</ele><time>2026-04-02T10:46:54.835Z</time></trkpt><trkpt lat="41.944875" lon="13.1133467"><ele>829.0</ele><time>2026-04-02T10:46:55.834Z</time></trkpt><trkpt lat="41.9449683" lon="13.113275"><ele>825.0</ele><time>2026-04-02T10:46:56.834Z</time></trkpt><trkpt lat="41.9450567" lon="13.1132517"><ele>821.0</ele><time>2026-04-02T10:46:57.834Z</time></trkpt><trkpt lat="41.945145" lon="13.1132817"><ele>817.0</ele><time>2026-04-02T10:46:58.834Z</time></trkpt><trkpt lat="41.94524" lon="13.1133633"><ele>813.0</ele><time>2026-04-02T10:46:59.834Z</time></trkpt><trkpt lat="41.945355" lon="13.1134717"><ele>809.0</ele><time>2026-04-02T10:47:00.833Z</time></trkpt><trkpt lat="41.9454933" lon="13.1135783"><ele>809.0</ele><time>2026-04-02T10:47:01.834Z</time></trkpt><trkpt lat="41.9456367" lon="13.113685"><ele>809.0</ele><time>2026-04-02T10:47:02.835Z</time></trkpt><trkpt lat="41.9457633" lon="13.11381"><ele>809.0</ele><time>2026-04-02T10:47:03.832Z</time></trkpt><trkpt lat="41.94588" lon="13.1139367"><ele>811.0</ele><time>2026-04-02T10:47:04.834Z</time></trkpt><trkpt lat="41.946005" lon="13.1140283"><ele>813.0</ele><time>2026-04-02T10:47:05.834Z</time></trkpt><trkpt lat="41.94615" lon="13.1140867"><ele>815.0</ele><time>2026-04-02T10:47:06.834Z</time></trkpt><trkpt lat="41.9463033" lon="13.11413"><ele>815.0</ele><time>2026-04-02T10:47:07.833Z</time></trkpt><trkpt lat="41.9464533" lon="13.1141667"><ele>815.0</ele><time>2026-04-02T10:47:08.834Z</time></trkpt><trkpt lat="41.9465833" lon="13.114205"><ele>815.0</ele><time>2026-04-02T10:47:09.833Z</time></trkpt><trkpt lat="41.9466983" lon="13.114255"><ele>815.0</ele><time>2026-04-02T10:47:10.833Z</time></trkpt><trkpt lat="41.9468017" lon="13.11434"><ele>812.25</ele><time>2026-04-02T10:47:11.832Z</time></trkpt><trkpt lat="41.9468967" lon="13.1144733"><ele>809.5</ele><time>2026-04-02T10:47:12.83Z</time></trkpt><trkpt lat="41.946985" lon="13.114625"><ele>806.75</ele><time>2026-04-02T10:47:13.834Z</time></trkpt><trkpt lat="41.9470733" lon="13.1147633"><ele>804.0</ele><time>2026-04-02T10:47:14.834Z</time></trkpt><trkpt lat="41.94716" lon="13.11488"><ele>807.8000000000001</ele><time>2026-04-02T10:47:15.834Z</time></trkpt><trkpt lat="41.947245" lon="13.1149767"><ele>811.6</ele><time>2026-04-02T10:47:16.833Z</time></trkpt><trkpt lat="41.947335" lon="13.1150517"><ele>815.4</ele><time>2026-04-02T10:47:17.831Z</time></trkpt><trkpt lat="41.9474317" lon="13.115085"><ele>819.2</ele><time>2026-04-02T10:47:18.832Z</time></trkpt><trkpt lat="41.94753" lon="13.115065"><ele>823.0</ele><time>2026-04-02T10:47:19.834Z</time></trkpt><trkpt lat="41.94763" lon="13.1149967"><ele>823.0</ele><time>2026-04-02T10:47:20.831Z</time></trkpt><trkpt lat="41.9477083" lon="13.1148817"><ele>823.0</ele><time>2026-04-02T10:47:21.832Z</time></trkpt><trkpt lat="41.9477583" lon="13.1147467"><ele>823.0</ele><time>2026-04-02T10:47:22.832Z</time></trkpt><trkpt lat="41.947775" lon="13.114615"><ele>823.0</ele><time>2026-04-02T10:47:23.833Z</time></trkpt><trkpt lat="41.9477583" lon="13.1144817"><ele>823.0</ele><time>2026-04-02T10:47:24.834Z</time></trkpt><trkpt lat="41.947705" lon="13.114375"><ele>823.0</ele><time>2026-04-02T10:47:25.832Z</time></trkpt><trkpt lat="41.9476083" lon="13.114305"><ele>823.0</ele><time>2026-04-02T10:47:26.835Z</time></trkpt><trkpt lat="41.9474633" lon="13.11427"><ele>823.0</ele><time>2026-04-02T10:47:27.831Z</time></trkpt><trkpt lat="41.94731" lon="13.11424"><ele>823.0</ele><time>2026-04-02T10:47:28.831Z</time></trkpt><trkpt lat="41.947175" lon="13.11419"><ele>818.25</ele><time>2026-04-02T10:47:29.834Z</time></trkpt><trkpt lat="41.9470567" lon="13.1141"><ele>813.5</ele><time>2026-04-02T10:47:30.834Z</time></trkpt><trkpt lat="41.9469617" lon="13.1139867"><ele>808.75</ele><time>2026-04-02T10:47:31.834Z</time></trkpt><trkpt lat="41.9468717" lon="13.1138783"><ele>804.0</ele><time>2026-04-02T10:47:32.834Z</time></trkpt><trkpt lat="41.9467817" lon="13.1137983"><ele>800.25</ele><time>2026-04-02T10:47:33.834Z</time></trkpt><trkpt lat="41.9466783" lon="13.113755"><ele>796.5</ele><time>2026-04-02T10:47:34.83Z</time></trkpt><trkpt lat="41.94656" lon="13.1137283"><ele>792.75</ele><time>2026-04-02T10:47:35.833Z</time></trkpt><trkpt lat="41.94644" lon="13.1136767"><ele>789.0</ele><time>2026-04-02T10:47:36.833Z</time></trkpt><trkpt lat="41.9463117" lon="13.1135783"><ele>789.0</ele><time>2026-04-02T10:47:37.832Z</time></trkpt><trkpt lat="41.9461867" lon="13.11344"><ele>789.0</ele><time>2026-04-02T10:47:38.834Z</time></trkpt><trkpt lat="41.9460633" lon="13.11329"><ele>789.0</ele><time>2026-04-02T10:47:39.834Z</time></trkpt><trkpt lat="41.9459433" lon="13.1131417"><ele>786.25</ele><time>2026-04-02T10:47:40.834Z</time></trkpt><trkpt lat="41.9458283" lon="13.113"><ele>783.5</ele><time>2026-04-02T10:47:41.832Z</time></trkpt><trkpt lat="41.945725" lon="13.1128667"><ele>780.75</ele><time>2026-04-02T10:47:42.832Z</time></trkpt><trkpt lat="41.9456317" lon="13.1127367"><ele>778.0</ele><time>2026-04-02T10:47:43.834Z</time></trkpt><trkpt lat="41.94554" lon="13.1126083"><ele>778.0</ele><time>2026-04-02T10:47:44.834Z</time></trkpt><trkpt lat="41.94545" lon="13.1124783"><ele>778.0</ele><time>2026-04-02T10:47:45.834Z</time></trkpt><trkpt lat="41.945355" lon="13.1123583"><ele>778.0</ele><time>2026-04-02T10:47:46.834Z</time></trkpt><trkpt lat="41.9452567" lon="13.1122417"><ele>778.0</ele><time>2026-04-02T10:47:47.831Z</time></trkpt><trkpt lat="41.94517" lon="13.1121183"><ele>777.25</ele><time>2026-04-02T10:47:48.831Z</time></trkpt><trkpt lat="41.9451067" lon="13.111975"><ele>776.5</ele><time>2026-04-02T10:47:49.832Z</time></trkpt><trkpt lat="41.9450683" lon="13.1118067"><ele>775.75</ele><time>2026-04-02T10:47:50.83Z</time></trkpt><trkpt lat="41.9450367" lon="13.1116283"><ele>775.0</ele><time>2026-04-02T10:47:51.833Z</time></trkpt><trkpt lat="41.9450067" lon="13.1114483"><ele>771.5</ele><time>2026-04-02T10:47:52.832Z</time></trkpt><trkpt lat="41.9449783" lon="13.11126"><ele>768.0</ele><time>2026-04-02T10:47:53.832Z</time></trkpt><trkpt lat="41.9449533" lon="13.1110733"><ele>764.5</ele><time>2026-04-02T10:47:54.834Z</time></trkpt><trkpt lat="41.944925" lon="13.1108933"><ele>761.0</ele><time>2026-04-02T10:47:55.834Z</time></trkpt><trkpt lat="41.9449" lon="13.1107167"><ele>759.0</ele><time>2026-04-02T10:47:56.832Z</time></trkpt><trkpt lat="41.944875" lon="13.1105583"><ele>757.0</ele><time>2026-04-02T10:47:57.831Z</time></trkpt><trkpt lat="41.944855" lon="13.1104217"><ele>755.0</ele><time>2026-04-02T10:47:58.835Z</time></trkpt><trkpt lat="41.944835" lon="13.1103"><ele>753.0</ele><time>2026-04-02T10:47:59.83Z</time></trkpt><trkpt lat="41.9448067" lon="13.110205"><ele>751.0</ele><time>2026-04-02T10:48:00.832Z</time></trkpt><trkpt lat="41.9447567" lon="13.1101433"><ele>751.0</ele><time>2026-04-02T10:48:01.833Z</time></trkpt><trkpt lat="41.9446933" lon="13.1101117"><ele>751.0</ele><time>2026-04-02T10:48:02.834Z</time></trkpt><trkpt lat="41.94461" lon="13.1101233"><ele>751.0</ele><time>2026-04-02T10:48:03.831Z</time></trkpt><trkpt lat="41.9445067" lon="13.1101783"><ele>751.0</ele><time>2026-04-02T10:48:04.832Z</time></trkpt><trkpt lat="41.9443967" lon="13.1102733"><ele>751.0</ele><time>2026-04-02T10:48:05.833Z</time></trkpt><trkpt lat="41.9442967" lon="13.1103683"><ele>751.0</ele><time>2026-04-02T10:48:06.834Z</time></trkpt><trkpt lat="41.9442017" lon="13.110455"><ele>751.0</ele><time>2026-04-02T10:48:07.832Z</time></trkpt><trkpt lat="41.9441183" lon="13.1105367"><ele>751.0</ele><time>2026-04-02T10:48:08.834Z</time></trkpt><trkpt lat="41.9440367" lon="13.1106067"><ele>751.0</ele><time>2026-04-02T10:48:09.834Z</time></trkpt><trkpt lat="41.9439567" lon="13.1106533"><ele>751.0</ele><time>2026-04-02T10:48:10.833Z</time></trkpt><trkpt lat="41.9438783" lon="13.11067"><ele>751.0</ele><time>2026-04-02T10:48:11.834Z</time></trkpt><trkpt lat="41.9437967" lon="13.110625"><ele>751.0</ele><time>2026-04-02T10:48:12.831Z</time></trkpt><trkpt lat="41.943715" lon="13.1105383"><ele>751.0</ele><time>2026-04-02T10:48:13.834Z</time></trkpt><trkpt lat="41.9436333" lon="13.1104417"><ele>751.0</ele><time>2026-04-02T10:48:14.833Z</time></trkpt><trkpt lat="41.943545" lon="13.1103417"><ele>751.0</ele><time>2026-04-02T10:48:15.834Z</time></trkpt><trkpt lat="41.9434517" lon="13.1102433"><ele>748.8</ele><time>2026-04-02T10:48:16.833Z</time></trkpt><trkpt lat="41.94336" lon="13.1101467"><ele>746.5999999999999</ele><time>2026-04-02T10:48:17.833Z</time></trkpt><trkpt lat="41.9432683" lon="13.11006"><ele>744.4</ele><time>2026-04-02T10:48:18.832Z</time></trkpt><trkpt lat="41.9431717" lon="13.1099967"><ele>742.2</ele><time>2026-04-02T10:48:19.832Z</time></trkpt><trkpt lat="41.943065" lon="13.1099683"><ele>740.0</ele><time>2026-04-02T10:48:20.831Z</time></trkpt><trkpt lat="41.9429517" lon="13.1099633"><ele>740.0</ele><time>2026-04-02T10:48:21.831Z</time></trkpt><trkpt lat="41.942845" lon="13.1099483"><ele>740.0</ele><time>2026-04-02T10:48:22.831Z</time></trkpt><trkpt lat="41.9427467" lon="13.1099017"><ele>740.0</ele><time>2026-04-02T10:48:23.832Z</time></trkpt><trkpt lat="41.942665" lon="13.109825"><ele>740.0</ele><time>2026-04-02T10:48:24.834Z</time></trkpt><trkpt lat="41.9425983" lon="13.10972"><ele>740.0</ele><time>2026-04-02T10:48:25.833Z</time></trkpt><trkpt lat="41.9425383" lon="13.1095917"><ele>735.75</ele><time>2026-04-02T10:48:26.835Z</time></trkpt><trkpt lat="41.94248" lon="13.109445"><ele>731.5</ele><time>2026-04-02T10:48:27.833Z</time></trkpt><trkpt lat="41.94242" lon="13.109285"><ele>727.25</ele><time>2026-04-02T10:48:28.834Z</time></trkpt><trkpt lat="41.942355" lon="13.109125"><ele>723.0</ele><time>2026-04-02T10:48:29.832Z</time></trkpt><trkpt lat="41.9422867" lon="13.1089683"><ele>721.75</ele><time>2026-04-02T10:48:30.833Z</time></trkpt><trkpt lat="41.94222" lon="13.1088117"><ele>720.5</ele><time>2026-04-02T10:48:31.833Z</time></trkpt><trkpt lat="41.9421517" lon="13.1086583"><ele>719.25</ele><time>2026-04-02T10:48:32.834Z</time></trkpt><trkpt lat="41.942085" lon="13.1085067"><ele>718.0</ele><time>2026-04-02T10:48:33.834Z</time></trkpt><trkpt lat="41.9420233" lon="13.1083583"><ele>716.2</ele><time>2026-04-02T10:48:34.832Z</time></trkpt><trkpt lat="41.94197" lon="13.1082233"><ele>714.4</ele><time>2026-04-02T10:48:35.832Z</time></trkpt><trkpt lat="41.94193" lon="13.108095"><ele>712.6</ele><time>2026-04-02T10:48:36.832Z</time></trkpt><trkpt lat="41.94191" lon="13.1079767"><ele>710.8000000000001</ele><time>2026-04-02T10:48:37.832Z</time></trkpt><trkpt lat="41.9419067" lon="13.107865"><ele>709.0</ele><time>2026-04-02T10:48:38.833Z</time></trkpt><trkpt lat="41.9418983" lon="13.1077583"><ele>709.0</ele><time>2026-04-02T10:48:39.832Z</time></trkpt><trkpt lat="41.941875" lon="13.1076583"><ele>709.0</ele><time>2026-04-02T10:48:40.832Z</time></trkpt><trkpt lat="41.9418117" lon="13.107565"><ele>709.0</ele><time>2026-04-02T10:48:41.832Z</time></trkpt><trkpt lat="41.941705" lon="13.1074883"><ele>709.0</ele><time>2026-04-02T10:48:42.832Z</time></trkpt><trkpt lat="41.9415883" lon="13.1074267"><ele>709.0</ele><time>2026-04-02T10:48:43.831Z</time></trkpt><trkpt lat="41.9414767" lon="13.1073717"><ele>705.6</ele><time>2026-04-02T10:48:44.833Z</time></trkpt><trkpt lat="41.94137" lon="13.10731"><ele>702.2</ele><time>2026-04-02T10:48:45.832Z</time></trkpt><trkpt lat="41.9412767" lon="13.1072267"><ele>698.8000000000001</ele><time>2026-04-02T10:48:46.832Z</time></trkpt><trkpt lat="41.9412033" lon="13.107125"><ele>695.4000000000001</ele><time>2026-04-02T10:48:47.83Z</time></trkpt><trkpt lat="41.941145" lon="13.1070083"><ele>692.0</ele><time>2026-04-02T10:48:48.83Z</time></trkpt><trkpt lat="41.9411117" lon="13.106875"><ele>692.0</ele><time>2026-04-02T10:48:49.831Z</time></trkpt><trkpt lat="41.9411017" lon="13.10673"><ele>692.0</ele><time>2026-04-02T10:48:50.831Z</time></trkpt><trkpt lat="41.9411117" lon="13.1065833"><ele>692.0</ele><time>2026-04-02T10:48:51.83Z</time></trkpt><trkpt lat="41.9411367" lon="13.1064517"><ele>692.0</ele><time>2026-04-02T10:48:52.832Z</time></trkpt><trkpt lat="41.941175" lon="13.1063367"><ele>692.0</ele><time>2026-04-02T10:48:53.831Z</time></trkpt><trkpt lat="41.9412233" lon="13.1062433"><ele>690.3333333333333</ele><time>2026-04-02T10:48:54.837Z</time></trkpt><trkpt lat="41.94127" lon="13.1061717"><ele>688.6666666666666</ele><time>2026-04-02T10:48:55.833Z</time></trkpt><trkpt lat="41.9413183" lon="13.1060333"><ele>687.0</ele><time>2026-04-02T10:48:57.833Z</time></trkpt><trkpt lat="41.94126" lon="13.1059167"><ele>685.3333333333334</ele><time>2026-04-02T10:48:59.835Z</time></trkpt><trkpt lat="41.941195" lon="13.10592"><ele>683.6666666666667</ele><time>2026-04-02T10:49:00.834Z</time></trkpt><trkpt lat="41.94113" lon="13.1059617"><ele>682.0</ele><time>2026-04-02T10:49:01.835Z</time></trkpt><trkpt lat="41.9410617" lon="13.1060467"><ele>682.0</ele><time>2026-04-02T10:49:02.834Z</time></trkpt><trkpt lat="41.9409967" lon="13.106155"><ele>682.0</ele><time>2026-04-02T10:49:03.835Z</time></trkpt><trkpt lat="41.9409333" lon="13.1062583"><ele>682.0</ele><time>2026-04-02T10:49:04.834Z</time></trkpt><trkpt lat="41.940875" lon="13.1063567"><ele>682.0</ele><time>2026-04-02T10:49:05.834Z</time></trkpt><trkpt lat="41.9408233" lon="13.1064467"><ele>682.0</ele><time>2026-04-02T10:49:06.835Z</time></trkpt><trkpt lat="41.9407817" lon="13.1065283"><ele>682.0</ele><time>2026-04-02T10:49:07.834Z</time></trkpt><trkpt lat="41.94073" lon="13.1066533"><ele>682.0</ele><time>2026-04-02T10:49:09.833Z</time></trkpt><trkpt lat="41.9406567" lon="13.10668"><ele>682.0</ele><time>2026-04-02T10:49:11.834Z</time></trkpt><trkpt lat="41.94063" lon="13.10655"><ele>682.0</ele><time>2026-04-02T10:49:13.835Z</time></trkpt><trkpt lat="41.9406467" lon="13.1064383"><ele>682.0</ele><time>2026-04-02T10:49:14.835Z</time></trkpt><trkpt lat="41.940685" lon="13.1062983"><ele>680.2</ele><time>2026-04-02T10:49:15.835Z</time></trkpt><trkpt lat="41.9407183" lon="13.106165"><ele>678.4000000000001</ele><time>2026-04-02T10:49:16.834Z</time></trkpt><trkpt lat="41.9407533" lon="13.1060367"><ele>676.5999999999999</ele><time>2026-04-02T10:49:17.833Z</time></trkpt><trkpt lat="41.9407833" lon="13.1059117"><ele>674.8</ele><time>2026-04-02T10:49:18.833Z</time></trkpt><trkpt lat="41.9408017" lon="13.1057933"><ele>673.0</ele><time>2026-04-02T10:49:19.833Z</time></trkpt><trkpt lat="41.9408033" lon="13.10567"><ele>670.75</ele><time>2026-04-02T10:49:20.833Z</time></trkpt><trkpt lat="41.94078" lon="13.1055433"><ele>668.5</ele><time>2026-04-02T10:49:21.831Z</time></trkpt><trkpt lat="41.940725" lon="13.1054167"><ele>666.25</ele><time>2026-04-02T10:49:22.831Z</time></trkpt><trkpt lat="41.9406333" lon="13.1052867"><ele>664.0</ele><time>2026-04-02T10:49:23.833Z</time></trkpt><trkpt lat="41.9405283" lon="13.10515"><ele>664.0</ele><time>2026-04-02T10:49:24.833Z</time></trkpt><trkpt lat="41.9404233" lon="13.10501"><ele>664.0</ele><time>2026-04-02T10:49:25.835Z</time></trkpt><trkpt lat="41.940325" lon="13.1048667"><ele>664.0</ele><time>2026-04-02T10:49:26.835Z</time></trkpt><trkpt lat="41.9402183" lon="13.104715"><ele>664.0</ele><time>2026-04-02T10:49:27.832Z</time></trkpt><trkpt lat="41.9401017" lon="13.1045433"><ele>660.0</ele><time>2026-04-02T10:49:28.835Z</time></trkpt><trkpt lat="41.9399933" lon="13.10435"><ele>656.0</ele><time>2026-04-02T10:49:29.835Z</time></trkpt><trkpt lat="41.9398917" lon="13.10416"><ele>652.0</ele><time>2026-04-02T10:49:30.835Z</time></trkpt><trkpt lat="41.93978" lon="13.103985"><ele>649.6666666666667</ele><time>2026-04-02T10:49:31.834Z</time></trkpt><trkpt lat="41.939655" lon="13.1038167"><ele>647.3333333333334</ele><time>2026-04-02T10:49:32.835Z</time></trkpt><trkpt lat="41.93953" lon="13.1036433"><ele>645.0</ele><time>2026-04-02T10:49:33.835Z</time></trkpt><trkpt lat="41.939405" lon="13.1034717"><ele>645.0</ele><time>2026-04-02T10:49:34.834Z</time></trkpt><trkpt lat="41.93928" lon="13.1033017"><ele>645.0</ele><time>2026-04-02T10:49:35.833Z</time></trkpt><trkpt lat="41.9391567" lon="13.10313"><ele>645.0</ele><time>2026-04-02T10:49:36.834Z</time></trkpt><trkpt lat="41.93903" lon="13.1029617"><ele>640.6666666666666</ele><time>2026-04-02T10:49:37.835Z</time></trkpt><trkpt lat="41.938905" lon="13.1027933"><ele>636.3333333333333</ele><time>2026-04-02T10:49:38.836Z</time></trkpt><trkpt lat="41.9387767" lon="13.1026333"><ele>632.0</ele><time>2026-04-02T10:49:39.833Z</time></trkpt><trkpt lat="41.9386567" lon="13.1024667"><ele>631.0</ele><time>2026-04-02T10:49:40.834Z</time></trkpt><trkpt lat="41.9385283" lon="13.1023167"><ele>630.0</ele><time>2026-04-02T10:49:41.833Z</time></trkpt><trkpt lat="41.9383967" lon="13.1021833"><ele>629.0</ele><time>2026-04-02T10:49:42.835Z</time></trkpt><trkpt lat="41.9382567" lon="13.1020683"><ele>626.0</ele><time>2026-04-02T10:49:43.835Z</time></trkpt><trkpt lat="41.9381117" lon="13.1019733"><ele>623.0</ele><time>2026-04-02T10:49:44.835Z</time></trkpt><trkpt lat="41.9379617" lon="13.1018933"><ele>620.0</ele><time>2026-04-02T10:49:45.834Z</time></trkpt><trkpt lat="41.937795" lon="13.1018217"><ele>620.0</ele><time>2026-04-02T10:49:46.832Z</time></trkpt><trkpt lat="41.9376217" lon="13.1017483"><ele>620.0</ele><time>2026-04-02T10:49:47.833Z</time></trkpt><trkpt lat="41.9374467" lon="13.1016767"><ele>620.0</ele><time>2026-04-02T10:49:48.834Z</time></trkpt><trkpt lat="41.93728" lon="13.1016033"><ele>617.0</ele><time>2026-04-02T10:49:49.834Z</time></trkpt><trkpt lat="41.9371283" lon="13.1015467"><ele>614.0</ele><time>2026-04-02T10:49:50.835Z</time></trkpt><trkpt lat="41.9369867" lon="13.1015017"><ele>611.0</ele><time>2026-04-02T10:49:51.834Z</time></trkpt><trkpt lat="41.93685" lon="13.1014583"><ele>608.0</ele><time>2026-04-02T10:49:52.835Z</time></trkpt><trkpt lat="41.9367133" lon="13.1014283"><ele>605.5</ele><time>2026-04-02T10:49:53.835Z</time></trkpt><trkpt lat="41.93657" lon="13.1014017"><ele>603.0</ele><time>2026-04-02T10:49:54.834Z</time></trkpt><trkpt lat="41.9364283" lon="13.1013667"><ele>600.5</ele><time>2026-04-02T10:49:55.835Z</time></trkpt><trkpt lat="41.9362883" lon="13.1013033"><ele>598.0</ele><time>2026-04-02T10:49:56.835Z</time></trkpt><trkpt lat="41.9361617" lon="13.1012017"><ele>598.0</ele><time>2026-04-02T10:49:57.835Z</time></trkpt><trkpt lat="41.9360483" lon="13.1010683"><ele>598.0</ele><time>2026-04-02T10:49:58.835Z</time></trkpt><trkpt lat="41.9359433" lon="13.100915"><ele>598.0</ele><time>2026-04-02T10:49:59.834Z</time></trkpt><trkpt lat="41.935835" lon="13.1007717"><ele>595.0</ele><time>2026-04-02T10:50:00.834Z</time></trkpt><trkpt lat="41.9357317" lon="13.10065"><ele>592.0</ele><time>2026-04-02T10:50:01.835Z</time></trkpt><trkpt lat="41.9356367" lon="13.1005467"><ele>589.0</ele><time>2026-04-02T10:50:02.836Z</time></trkpt><trkpt lat="41.9355617" lon="13.10044"><ele>586.0</ele><time>2026-04-02T10:50:03.832Z</time></trkpt><trkpt lat="41.9355067" lon="13.1003217"><ele>586.0</ele><time>2026-04-02T10:50:04.834Z</time></trkpt><trkpt lat="41.9354867" lon="13.10019"><ele>586.0</ele><time>2026-04-02T10:50:05.835Z</time></trkpt><trkpt lat="41.9355033" lon="13.1000583"><ele>586.0</ele><time>2026-04-02T10:50:06.835Z</time></trkpt><trkpt lat="41.9355567" lon="13.0999283"><ele>586.0</ele><time>2026-04-02T10:50:07.833Z</time></trkpt><trkpt lat="41.935635" lon="13.0997883"><ele>586.0</ele><time>2026-04-02T10:50:08.834Z</time></trkpt><trkpt lat="41.9357233" lon="13.09963"><ele>585.0</ele><time>2026-04-02T10:50:09.834Z</time></trkpt><trkpt lat="41.9358183" lon="13.099455"><ele>584.0</ele><time>2026-04-02T10:50:10.833Z</time></trkpt><trkpt lat="41.9359217" lon="13.09927"><ele>583.0</ele><time>2026-04-02T10:50:11.834Z</time></trkpt><trkpt lat="41.9360317" lon="13.0990783"><ele>583.0</ele><time>2026-04-02T10:50:12.834Z</time></trkpt><trkpt lat="41.9361433" lon="13.098885"><ele>583.0</ele><time>2026-04-02T10:50:13.834Z</time></trkpt><trkpt lat="41.936255" lon="13.098685"><ele>583.0</ele><time>2026-04-02T10:50:14.833Z</time></trkpt><trkpt lat="41.93637" lon="13.098475"><ele>583.0</ele><time>2026-04-02T10:50:15.832Z</time></trkpt><trkpt lat="41.9364817" lon="13.0982567"><ele>583.0</ele><time>2026-04-02T10:50:16.833Z</time></trkpt><trkpt lat="41.9365967" lon="13.0980367"><ele>583.0</ele><time>2026-04-02T10:50:17.834Z</time></trkpt><trkpt lat="41.9367067" lon="13.0978067"><ele>583.6666666666667</ele><time>2026-04-02T10:50:18.833Z</time></trkpt><trkpt lat="41.9368167" lon="13.0975867"><ele>584.3333333333334</ele><time>2026-04-02T10:50:19.833Z</time></trkpt><trkpt lat="41.9369233" lon="13.0973767"><ele>585.0</ele><time>2026-04-02T10:50:20.834Z</time></trkpt><trkpt lat="41.937025" lon="13.09718"><ele>585.0</ele><time>2026-04-02T10:50:21.835Z</time></trkpt><trkpt lat="41.93713" lon="13.0969967"><ele>585.0</ele><time>2026-04-02T10:50:22.833Z</time></trkpt><trkpt lat="41.937245" lon="13.09682"><ele>585.0</ele><time>2026-04-02T10:50:23.834Z</time></trkpt><trkpt lat="41.9373717" lon="13.0966567"><ele>581.6666666666666</ele><time>2026-04-02T10:50:24.834Z</time></trkpt><trkpt lat="41.9375117" lon="13.0965167"><ele>578.3333333333333</ele><time>2026-04-02T10:50:25.835Z</time></trkpt><trkpt lat="41.9376667" lon="13.0964217"><ele>575.0</ele><time>2026-04-02T10:50:26.835Z</time></trkpt><trkpt lat="41.9378133" lon="13.09636"><ele>575.0</ele><time>2026-04-02T10:50:27.832Z</time></trkpt><trkpt lat="41.93795" lon="13.0963367"><ele>575.0</ele><time>2026-04-02T10:50:28.834Z</time></trkpt><trkpt lat="41.938075" lon="13.09636"><ele>575.0</ele><time>2026-04-02T10:50:29.833Z</time></trkpt><trkpt lat="41.93819" lon="13.096445"><ele>575.0</ele><time>2026-04-02T10:50:30.832Z</time></trkpt><trkpt lat="41.9382967" lon="13.0965733"><ele>577.6666666666666</ele><time>2026-04-02T10:50:31.834Z</time></trkpt><trkpt lat="41.938405" lon="13.0967267"><ele>580.3333333333334</ele><time>2026-04-02T10:50:32.835Z</time></trkpt><trkpt lat="41.9385083" lon="13.09689"><ele>583.0</ele><time>2026-04-02T10:50:33.835Z</time></trkpt><trkpt lat="41.9386033" lon="13.0970483"><ele>583.0</ele><time>2026-04-02T10:50:34.833Z</time></trkpt><trkpt lat="41.938695" lon="13.0971967"><ele>583.0</ele><time>2026-04-02T10:50:35.834Z</time></trkpt><trkpt lat="41.938785" lon="13.097325"><ele>583.0</ele><time>2026-04-02T10:50:36.832Z</time></trkpt><trkpt lat="41.9388917" lon="13.0974067"><ele>583.0</ele><time>2026-04-02T10:50:37.831Z</time></trkpt><trkpt lat="41.938995" lon="13.0974417"><ele>583.0</ele><time>2026-04-02T10:50:38.833Z</time></trkpt><trkpt lat="41.9390933" lon="13.0974317"><ele>583.0</ele><time>2026-04-02T10:50:39.832Z</time></trkpt><trkpt lat="41.9391733" lon="13.09736"><ele>583.0</ele><time>2026-04-02T10:50:40.835Z</time></trkpt><trkpt lat="41.9392217" lon="13.0972283"><ele>583.0</ele><time>2026-04-02T10:50:41.834Z</time></trkpt><trkpt lat="41.9392383" lon="13.0970833"><ele>583.0</ele><time>2026-04-02T10:50:42.833Z</time></trkpt><trkpt lat="41.939205" lon="13.0969183"><ele>583.0</ele><time>2026-04-02T10:50:43.833Z</time></trkpt><trkpt lat="41.9391583" lon="13.0967433"><ele>583.0</ele><time>2026-04-02T10:50:44.833Z</time></trkpt><trkpt lat="41.9391167" lon="13.0965517"><ele>583.0</ele><time>2026-04-02T10:50:45.835Z</time></trkpt><trkpt lat="41.9391033" lon="13.0963483"><ele>583.0</ele><time>2026-04-02T10:50:46.833Z</time></trkpt><trkpt lat="41.9391033" lon="13.0961367"><ele>583.0</ele><time>2026-04-02T10:50:47.831Z</time></trkpt><trkpt lat="41.9391033" lon="13.0959283"><ele>583.0</ele><time>2026-04-02T10:50:48.833Z</time></trkpt><trkpt lat="41.9391067" lon="13.0957383"><ele>583.0</ele><time>2026-04-02T10:50:49.835Z</time></trkpt><trkpt lat="41.93911" lon="13.0955633"><ele>583.0</ele><time>2026-04-02T10:50:50.835Z</time></trkpt><trkpt lat="41.9391117" lon="13.09541"><ele>583.0</ele><time>2026-04-02T10:50:51.83Z</time></trkpt><trkpt lat="41.939115" lon="13.0952767"><ele>583.0</ele><time>2026-04-02T10:50:52.83Z</time></trkpt><trkpt lat="41.9391167" lon="13.0951567"><ele>583.0</ele><time>2026-04-02T10:50:53.834Z</time></trkpt><trkpt lat="41.9391183" lon="13.0950517"><ele>583.0</ele><time>2026-04-02T10:50:54.834Z</time></trkpt><trkpt lat="41.9391117" lon="13.0949033"><ele>583.0</ele><time>2026-04-02T10:50:56.83Z</time></trkpt><trkpt lat="41.9391133" lon="13.09481"><ele>583.0</ele><time>2026-04-02T10:50:58.831Z</time></trkpt><trkpt lat="41.9390717" lon="13.094745"><ele>582.0</ele><time>2026-04-02T10:51:09.835Z</time></trkpt><trkpt lat="41.9390083" lon="13.094715"><ele>581.0</ele><time>2026-04-02T10:51:11.831Z</time></trkpt><trkpt lat="41.938945" lon="13.0946917"><ele>580.0</ele><time>2026-04-02T10:51:13.833Z</time></trkpt><trkpt lat="41.938875" lon="13.09465"><ele>579.0</ele><time>2026-04-02T10:51:16.831Z</time></trkpt><trkpt lat="41.9388017" lon="13.0946167"><ele>578.0</ele><time>2026-04-02T10:51:19.832Z</time></trkpt><trkpt lat="41.9387067" lon="13.094565"><ele>577.0</ele><time>2026-04-02T10:51:22.83Z</time></trkpt><trkpt lat="41.9386117" lon="13.0944867"><ele>577.0</ele><time>2026-04-02T10:51:24.833Z</time></trkpt><trkpt lat="41.9385517" lon="13.0944283"><ele>577.0</ele><time>2026-04-02T10:51:25.833Z</time></trkpt><trkpt lat="41.938485" lon="13.0943467"><ele>577.0</ele><time>2026-04-02T10:51:26.831Z</time></trkpt><trkpt lat="41.9384217" lon="13.09424"><ele>577.0</ele><time>2026-04-02T10:51:27.83Z</time></trkpt><trkpt lat="41.9383667" lon="13.094125"><ele>577.0</ele><time>2026-04-02T10:51:28.831Z</time></trkpt><trkpt lat="41.9383067" lon="13.0940183"><ele>575.0</ele><time>2026-04-02T10:51:29.833Z</time></trkpt><trkpt lat="41.9382333" lon="13.093935"><ele>573.0</ele><time>2026-04-02T10:51:30.836Z</time></trkpt><trkpt lat="41.938145" lon="13.0938867"><ele>571.0</ele><time>2026-04-02T10:51:31.831Z</time></trkpt><trkpt lat="41.9380517" lon="13.0938867"><ele>569.0</ele><time>2026-04-02T10:51:32.836Z</time></trkpt><trkpt lat="41.93796" lon="13.0939233"><ele>567.0</ele><time>2026-04-02T10:51:33.833Z</time></trkpt><trkpt lat="41.93787" lon="13.094035"><ele>569.0</ele><time>2026-04-02T10:51:34.834Z</time></trkpt><trkpt lat="41.9377967" lon="13.0941733"><ele>571.0</ele><time>2026-04-02T10:51:35.835Z</time></trkpt><trkpt lat="41.9377467" lon="13.0943383"><ele>573.0</ele><time>2026-04-02T10:51:36.83Z</time></trkpt><trkpt lat="41.9377183" lon="13.0945083"><ele>575.0</ele><time>2026-04-02T10:51:37.834Z</time></trkpt><trkpt lat="41.937725" lon="13.094675"><ele>575.0</ele><time>2026-04-02T10:51:38.833Z</time></trkpt><trkpt lat="41.937745" lon="13.094825"><ele>575.0</ele><time>2026-04-02T10:51:39.834Z</time></trkpt><trkpt lat="41.9377533" lon="13.094955"><ele>575.0</ele><time>2026-04-02T10:51:40.83Z</time></trkpt><trkpt lat="41.937735" lon="13.095075"><ele>575.0</ele><time>2026-04-02T10:51:41.834Z</time></trkpt><trkpt lat="41.9377" lon="13.0951817"><ele>575.0</ele><time>2026-04-02T10:51:42.834Z</time></trkpt><trkpt lat="41.9376417" lon="13.095255"><ele>573.2</ele><time>2026-04-02T10:51:43.832Z</time></trkpt><trkpt lat="41.937545" lon="13.0952567"><ele>571.4</ele><time>2026-04-02T10:51:44.833Z</time></trkpt><trkpt lat="41.937445" lon="13.0952083"><ele>569.6</ele><time>2026-04-02T10:51:45.833Z</time></trkpt><trkpt lat="41.9373667" lon="13.0951"><ele>567.8</ele><time>2026-04-02T10:51:46.833Z</time></trkpt><trkpt lat="41.9372917" lon="13.0949633"><ele>566.0</ele><time>2026-04-02T10:51:47.833Z</time></trkpt><trkpt lat="41.9372033" lon="13.094805"><ele>563.6666666666666</ele><time>2026-04-02T10:51:48.831Z</time></trkpt><trkpt lat="41.9370917" lon="13.0946433"><ele>561.3333333333334</ele><time>2026-04-02T10:51:49.833Z</time></trkpt><trkpt lat="41.9369633" lon="13.0944867"><ele>559.0</ele><time>2026-04-02T10:51:50.832Z</time></trkpt><trkpt lat="41.9368217" lon="13.09433"><ele>557.3333333333334</ele><time>2026-04-02T10:51:51.833Z</time></trkpt><trkpt lat="41.9366767" lon="13.09417"><ele>555.6666666666666</ele><time>2026-04-02T10:51:52.831Z</time></trkpt><trkpt lat="41.93653" lon="13.0940167"><ele>554.0</ele><time>2026-04-02T10:51:53.833Z</time></trkpt><trkpt lat="41.9363933" lon="13.0938667"><ele>551.6666666666666</ele><time>2026-04-02T10:51:54.832Z</time></trkpt><trkpt lat="41.9362667" lon="13.0937217"><ele>549.3333333333334</ele><time>2026-04-02T10:51:55.832Z</time></trkpt><trkpt lat="41.9361483" lon="13.09359"><ele>547.0</ele><time>2026-04-02T10:51:56.831Z</time></trkpt><trkpt lat="41.9360383" lon="13.0934683"><ele>547.0</ele><time>2026-04-02T10:51:57.833Z</time></trkpt><trkpt lat="41.9359333" lon="13.09335"><ele>547.0</ele><time>2026-04-02T10:51:58.83Z</time></trkpt><trkpt lat="41.9358367" lon="13.09322"><ele>547.0</ele><time>2026-04-02T10:51:59.83Z</time></trkpt><trkpt lat="41.9357517" lon="13.0930667"><ele>547.0</ele><time>2026-04-02T10:52:00.83Z</time></trkpt><trkpt lat="41.9356767" lon="13.0928817"><ele>546.0</ele><time>2026-04-02T10:52:01.832Z</time></trkpt><trkpt lat="41.9356033" lon="13.092675"><ele>545.0</ele><time>2026-04-02T10:52:02.832Z</time></trkpt><trkpt lat="41.9355267" lon="13.092455"><ele>544.0</ele><time>2026-04-02T10:52:03.83Z</time></trkpt><trkpt lat="41.9354517" lon="13.09222"><ele>541.3333333333334</ele><time>2026-04-02T10:52:04.832Z</time></trkpt><trkpt lat="41.9353783" lon="13.0919867"><ele>538.6666666666666</ele><time>2026-04-02T10:52:05.833Z</time></trkpt><trkpt lat="41.9353083" lon="13.0917617"><ele>536.0</ele><time>2026-04-02T10:52:06.832Z</time></trkpt><trkpt lat="41.9352433" lon="13.091555"><ele>534.25</ele><time>2026-04-02T10:52:07.833Z</time></trkpt><trkpt lat="41.9351967" lon="13.0913633"><ele>532.5</ele><time>2026-04-02T10:52:08.832Z</time></trkpt><trkpt lat="41.93516" lon="13.091185"><ele>530.75</ele><time>2026-04-02T10:52:09.831Z</time></trkpt><trkpt lat="41.935135" lon="13.0910067"><ele>529.0</ele><time>2026-04-02T10:52:10.831Z</time></trkpt><trkpt lat="41.9351117" lon="13.0908317"><ele>530.0</ele><time>2026-04-02T10:52:11.831Z</time></trkpt><trkpt lat="41.9350867" lon="13.0906533"><ele>531.0</ele><time>2026-04-02T10:52:12.832Z</time></trkpt><trkpt lat="41.9350633" lon="13.09047"><ele>532.0</ele><time>2026-04-02T10:52:13.833Z</time></trkpt><trkpt lat="41.9350367" lon="13.09028"><ele>533.0</ele><time>2026-04-02T10:52:14.832Z</time></trkpt><trkpt lat="41.9350117" lon="13.0900783"><ele>532.5</ele><time>2026-04-02T10:52:15.831Z</time></trkpt><trkpt lat="41.934985" lon="13.089875"><ele>532.0</ele><time>2026-04-02T10:52:16.832Z</time></trkpt><trkpt lat="41.9349567" lon="13.08968"><ele>531.5</ele><time>2026-04-02T10:52:17.833Z</time></trkpt><trkpt lat="41.934925" lon="13.0894967"><ele>531.0</ele><time>2026-04-02T10:52:18.833Z</time></trkpt><trkpt lat="41.9348733" lon="13.0893283"><ele>531.0</ele><time>2026-04-02T10:52:19.831Z</time></trkpt><trkpt lat="41.9347933" lon="13.0891783"><ele>531.0</ele><time>2026-04-02T10:52:20.832Z</time></trkpt><trkpt lat="41.9346833" lon="13.089045"><ele>531.0</ele><time>2026-04-02T10:52:21.832Z</time></trkpt><trkpt lat="41.934555" lon="13.088915"><ele>531.0</ele><time>2026-04-02T10:52:22.833Z</time></trkpt><trkpt lat="41.9344233" lon="13.088785"><ele>529.0</ele><time>2026-04-02T10:52:23.832Z</time></trkpt><trkpt lat="41.93429" lon="13.088655"><ele>527.0</ele><time>2026-04-02T10:52:24.831Z</time></trkpt><trkpt lat="41.93416" lon="13.088525"><ele>525.0</ele><time>2026-04-02T10:52:25.832Z</time></trkpt><trkpt lat="41.9340367" lon="13.0883933"><ele>524.0</ele><time>2026-04-02T10:52:26.833Z</time></trkpt><trkpt lat="41.9339233" lon="13.08825"><ele>523.0</ele><time>2026-04-02T10:52:27.831Z</time></trkpt><trkpt lat="41.9338233" lon="13.0880867"><ele>522.0</ele><time>2026-04-02T10:52:28.831Z</time></trkpt><trkpt lat="41.933735" lon="13.0879017"><ele>522.0</ele><time>2026-04-02T10:52:29.832Z</time></trkpt><trkpt lat="41.9336483" lon="13.087705"><ele>522.0</ele><time>2026-04-02T10:52:30.832Z</time></trkpt><trkpt lat="41.933555" lon="13.0875"><ele>522.0</ele><time>2026-04-02T10:52:31.834Z</time></trkpt><trkpt lat="41.9334617" lon="13.0872967"><ele>519.6666666666666</ele><time>2026-04-02T10:52:32.833Z</time></trkpt><trkpt lat="41.93337" lon="13.087105"><ele>517.3333333333333</ele><time>2026-04-02T10:52:33.833Z</time></trkpt><trkpt lat="41.9332917" lon="13.08693"><ele>515.0</ele><time>2026-04-02T10:52:34.835Z</time></trkpt><trkpt lat="41.9332333" lon="13.08676"><ele>513.5</ele><time>2026-04-02T10:52:35.829Z</time></trkpt><trkpt lat="41.9332017" lon="13.0865783"><ele>512.0</ele><time>2026-04-02T10:52:36.83Z</time></trkpt><trkpt lat="41.93321" lon="13.0863883"><ele>510.5</ele><time>2026-04-02T10:52:37.83Z</time></trkpt><trkpt lat="41.9332483" lon="13.0862067"><ele>509.0</ele><time>2026-04-02T10:52:38.834Z</time></trkpt><trkpt lat="41.933305" lon="13.0860367"><ele>509.0</ele><time>2026-04-02T10:52:39.83Z</time></trkpt><trkpt lat="41.9333517" lon="13.085875"><ele>509.0</ele><time>2026-04-02T10:52:40.833Z</time></trkpt><trkpt lat="41.933375" lon="13.085715"><ele>509.0</ele><time>2026-04-02T10:52:41.834Z</time></trkpt><trkpt lat="41.9333733" lon="13.0855583"><ele>509.0</ele><time>2026-04-02T10:52:42.833Z</time></trkpt><trkpt lat="41.9333383" lon="13.0854133"><ele>504.75</ele><time>2026-04-02T10:52:43.833Z</time></trkpt><trkpt lat="41.93327" lon="13.0852917"><ele>500.5</ele><time>2026-04-02T10:52:44.834Z</time></trkpt><trkpt lat="41.9331683" lon="13.0852217"><ele>496.25</ele><time>2026-04-02T10:52:45.833Z</time></trkpt><trkpt lat="41.9330567" lon="13.0852"><ele>492.0</ele><time>2026-04-02T10:52:46.834Z</time></trkpt><trkpt lat="41.932935" lon="13.0852383"><ele>492.0</ele><time>2026-04-02T10:52:47.833Z</time></trkpt><trkpt lat="41.9328117" lon="13.0853383"><ele>492.0</ele><time>2026-04-02T10:52:48.832Z</time></trkpt><trkpt lat="41.932705" lon="13.0854333"><ele>492.0</ele><time>2026-04-02T10:52:49.832Z</time></trkpt><trkpt lat="41.932615" lon="13.0855067"><ele>492.0</ele><time>2026-04-02T10:52:50.832Z</time></trkpt><trkpt lat="41.9325217" lon="13.0855717"><ele>491.6</ele><time>2026-04-02T10:52:51.832Z</time></trkpt><trkpt lat="41.9324283" lon="13.0856"><ele>491.20000000000005</ele><time>2026-04-02T10:52:52.831Z</time></trkpt><trkpt lat="41.9323367" lon="13.0855917"><ele>490.8</ele><time>2026-04-02T10:52:53.832Z</time></trkpt><trkpt lat="41.9322467" lon="13.0855433"><ele>490.4</ele><time>2026-04-02T10:52:54.833Z</time></trkpt><trkpt lat="41.9321583" lon="13.0854533"><ele>490.0</ele><time>2026-04-02T10:52:55.831Z</time></trkpt><trkpt lat="41.9320783" lon="13.085325"><ele>490.0</ele><time>2026-04-02T10:52:56.831Z</time></trkpt><trkpt lat="41.9319983" lon="13.0851667"><ele>490.0</ele><time>2026-04-02T10:52:57.833Z</time></trkpt><trkpt lat="41.9319133" lon="13.0849967"><ele>490.0</ele><time>2026-04-02T10:52:58.832Z</time></trkpt><trkpt lat="41.931825" lon="13.0848383"><ele>490.0</ele><time>2026-04-02T10:52:59.831Z</time></trkpt><trkpt lat="41.9317233" lon="13.08471"><ele>489.0</ele><time>2026-04-02T10:53:00.832Z</time></trkpt><trkpt lat="41.9316083" lon="13.0846183"><ele>488.0</ele><time>2026-04-02T10:53:01.832Z</time></trkpt><trkpt lat="41.93148" lon="13.0845633"><ele>487.0</ele><time>2026-04-02T10:53:02.831Z</time></trkpt><trkpt lat="41.931365" lon="13.0844933"><ele>486.0</ele><time>2026-04-02T10:53:03.832Z</time></trkpt><trkpt lat="41.9312733" lon="13.0843833"><ele>486.0</ele><time>2026-04-02T10:53:04.831Z</time></trkpt><trkpt lat="41.9312033" lon="13.08425"><ele>486.0</ele><time>2026-04-02T10:53:05.833Z</time></trkpt><trkpt lat="41.9311617" lon="13.08409"><ele>486.0</ele><time>2026-04-02T10:53:06.834Z</time></trkpt><trkpt lat="41.9311567" lon="13.0838983"><ele>486.0</ele><time>2026-04-02T10:53:07.834Z</time></trkpt><trkpt lat="41.9311667" lon="13.0836883"><ele>482.0</ele><time>2026-04-02T10:53:08.833Z</time></trkpt><trkpt lat="41.9311767" lon="13.0834817"><ele>478.0</ele><time>2026-04-02T10:53:09.835Z</time></trkpt><trkpt lat="41.93118" lon="13.0832967"><ele>474.0</ele><time>2026-04-02T10:53:10.835Z</time></trkpt><trkpt lat="41.9311633" lon="13.0831283"><ele>470.0</ele><time>2026-04-02T10:53:11.833Z</time></trkpt><trkpt lat="41.9311183" lon="13.0829583"><ele>469.0</ele><time>2026-04-02T10:53:12.833Z</time></trkpt><trkpt lat="41.9310567" lon="13.0827883"><ele>468.0</ele><time>2026-04-02T10:53:13.834Z</time></trkpt><trkpt lat="41.9309917" lon="13.08264"><ele>467.0</ele><time>2026-04-02T10:53:14.832Z</time></trkpt><trkpt lat="41.9309317" lon="13.08252"><ele>466.0</ele><time>2026-04-02T10:53:15.833Z</time></trkpt><trkpt lat="41.930875" lon="13.082415"><ele>466.00000000000006</ele><time>2026-04-02T10:53:16.835Z</time></trkpt><trkpt lat="41.9308267" lon="13.0823183"><ele>466.0</ele><time>2026-04-02T10:53:17.833Z</time></trkpt><trkpt lat="41.9307867" lon="13.08224"><ele>466.0</ele><time>2026-04-02T10:53:18.834Z</time></trkpt><trkpt lat="41.93073" lon="13.0821283"><ele>466.0</ele><time>2026-04-02T10:53:20.833Z</time></trkpt><trkpt lat="41.930685" lon="13.0820633"><ele>466.00000000000006</ele><time>2026-04-02T10:53:22.831Z</time></trkpt><trkpt lat="41.9306067" lon="13.0820533"><ele>466.0</ele><time>2026-04-02T10:53:25.835Z</time></trkpt><trkpt lat="41.9305067" lon="13.0820983"><ele>466.00000000000006</ele><time>2026-04-02T10:53:27.834Z</time></trkpt><trkpt lat="41.9304383" lon="13.08212"><ele>466.0</ele><time>2026-04-02T10:53:28.834Z</time></trkpt><trkpt lat="41.9303667" lon="13.0821467"><ele>466.0</ele><time>2026-04-02T10:53:29.831Z</time></trkpt><trkpt lat="41.9302983" lon="13.08219"><ele>466.0</ele><time>2026-04-02T10:53:30.829Z</time></trkpt><trkpt lat="41.9302233" lon="13.0822383"><ele>466.00000000000006</ele><time>2026-04-02T10:53:31.832Z</time></trkpt><trkpt lat="41.9301517" lon="13.082285"><ele>466.0</ele><time>2026-04-02T10:53:32.833Z</time></trkpt><trkpt lat="41.9300883" lon="13.08241"><ele>467.25</ele><time>2026-04-02T10:53:33.833Z</time></trkpt><trkpt lat="41.9300383" lon="13.0825567"><ele>468.5</ele><time>2026-04-02T10:53:34.833Z</time></trkpt><trkpt lat="41.9299867" lon="13.082715"><ele>469.75</ele><time>2026-04-02T10:53:35.833Z</time></trkpt><trkpt lat="41.9299383" lon="13.0828733"><ele>471.0</ele><time>2026-04-02T10:53:36.832Z</time></trkpt><trkpt lat="41.9299017" lon="13.0830433"><ele>471.0</ele><time>2026-04-02T10:53:37.833Z</time></trkpt><trkpt lat="41.9298733" lon="13.0832183"><ele>471.0</ele><time>2026-04-02T10:53:38.832Z</time></trkpt><trkpt lat="41.92986" lon="13.0833967"><ele>471.0</ele><time>2026-04-02T10:53:39.833Z</time></trkpt><trkpt lat="41.9298617" lon="13.0835717"><ele>471.0</ele><time>2026-04-02T10:53:40.833Z</time></trkpt><trkpt lat="41.9298717" lon="13.0837467"><ele>470.75</ele><time>2026-04-02T10:53:41.833Z</time></trkpt><trkpt lat="41.9298833" lon="13.0839183"><ele>470.5</ele><time>2026-04-02T10:53:42.834Z</time></trkpt><trkpt lat="41.9299" lon="13.0840833"><ele>470.25</ele><time>2026-04-02T10:53:43.833Z</time></trkpt><trkpt lat="41.9299" lon="13.084245"><ele>470.0</ele><time>2026-04-02T10:53:44.833Z</time></trkpt><trkpt lat="41.9298767" lon="13.0844083"><ele>470.0</ele><time>2026-04-02T10:53:45.835Z</time></trkpt><trkpt lat="41.929815" lon="13.084565"><ele>470.0</ele><time>2026-04-02T10:53:46.833Z</time></trkpt><trkpt lat="41.92973" lon="13.0847183"><ele>470.0</ele><time>2026-04-02T10:53:47.833Z</time></trkpt><trkpt lat="41.9296417" lon="13.0848733"><ele>470.0</ele><time>2026-04-02T10:53:48.831Z</time></trkpt><trkpt lat="41.9295517" lon="13.0850267"><ele>471.5</ele><time>2026-04-02T10:53:49.832Z</time></trkpt><trkpt lat="41.9294633" lon="13.0851767"><ele>473.0</ele><time>2026-04-02T10:53:50.831Z</time></trkpt><trkpt lat="41.92937" lon="13.0853183"><ele>474.5</ele><time>2026-04-02T10:53:51.833Z</time></trkpt><trkpt lat="41.9292683" lon="13.0854517"><ele>476.0</ele><time>2026-04-02T10:53:52.835Z</time></trkpt><trkpt lat="41.9291567" lon="13.0855883"><ele>470.66666666666663</ele><time>2026-04-02T10:53:53.835Z</time></trkpt><trkpt lat="41.929035" lon="13.0857233"><ele>465.33333333333337</ele><time>2026-04-02T10:53:54.834Z</time></trkpt><trkpt lat="41.92892" lon="13.0858617"><ele>460.0</ele><time>2026-04-02T10:53:55.833Z</time></trkpt><trkpt lat="41.9288117" lon="13.0859933"><ele>460.0</ele><time>2026-04-02T10:53:56.835Z</time></trkpt><trkpt lat="41.9287183" lon="13.0861133"><ele>460.0</ele><time>2026-04-02T10:53:57.834Z</time></trkpt><trkpt lat="41.9286517" lon="13.0862417"><ele>460.0</ele><time>2026-04-02T10:53:58.834Z</time></trkpt><trkpt lat="41.9286183" lon="13.086385"><ele>460.0</ele><time>2026-04-02T10:53:59.831Z</time></trkpt><trkpt lat="41.9286083" lon="13.0865267"><ele>458.75</ele><time>2026-04-02T10:54:00.833Z</time></trkpt><trkpt lat="41.9286383" lon="13.0866617"><ele>457.5</ele><time>2026-04-02T10:54:01.835Z</time></trkpt><trkpt lat="41.9287067" lon="13.08677"><ele>456.25</ele><time>2026-04-02T10:54:02.833Z</time></trkpt><trkpt lat="41.9288183" lon="13.086855"><ele>455.0</ele><time>2026-04-02T10:54:03.833Z</time></trkpt><trkpt lat="41.928935" lon="13.0869383"><ele>455.0</ele><time>2026-04-02T10:54:04.836Z</time></trkpt><trkpt lat="41.9290433" lon="13.0870233"><ele>455.0</ele><time>2026-04-02T10:54:05.832Z</time></trkpt><trkpt lat="41.9291167" lon="13.0871233"><ele>455.0</ele><time>2026-04-02T10:54:06.835Z</time></trkpt><trkpt lat="41.92915" lon="13.0872383"><ele>455.0</ele><time>2026-04-02T10:54:07.834Z</time></trkpt><trkpt lat="41.9291367" lon="13.0873617"><ele>455.0</ele><time>2026-04-02T10:54:08.834Z</time></trkpt><trkpt lat="41.92908" lon="13.0874867"><ele>453.25</ele><time>2026-04-02T10:54:09.833Z</time></trkpt><trkpt lat="41.9289867" lon="13.0875917"><ele>451.5</ele><time>2026-04-02T10:54:10.833Z</time></trkpt><trkpt lat="41.9288617" lon="13.0876883"><ele>449.75</ele><time>2026-04-02T10:54:11.833Z</time></trkpt><trkpt lat="41.9287317" lon="13.08779"><ele>448.0</ele><time>2026-04-02T10:54:12.834Z</time></trkpt><trkpt lat="41.92861" lon="13.0879017"><ele>448.0</ele><time>2026-04-02T10:54:13.833Z</time></trkpt><trkpt lat="41.928505" lon="13.088025"><ele>448.0</ele><time>2026-04-02T10:54:14.837Z</time></trkpt><trkpt lat="41.9284117" lon="13.08816"><ele>448.0</ele><time>2026-04-02T10:54:15.831Z</time></trkpt><trkpt lat="41.928335" lon="13.0883"><ele>448.0</ele><time>2026-04-02T10:54:16.835Z</time></trkpt><trkpt lat="41.9282833" lon="13.0884583"><ele>445.25</ele><time>2026-04-02T10:54:17.834Z</time></trkpt><trkpt lat="41.9282517" lon="13.088625"><ele>442.5</ele><time>2026-04-02T10:54:18.831Z</time></trkpt><trkpt lat="41.9282267" lon="13.08879"><ele>439.75</ele><time>2026-04-02T10:54:19.834Z</time></trkpt><trkpt lat="41.9281783" lon="13.0889417"><ele>437.0</ele><time>2026-04-02T10:54:20.835Z</time></trkpt><trkpt lat="41.9281033" lon="13.089065"><ele>440.0</ele><time>2026-04-02T10:54:21.834Z</time></trkpt><trkpt lat="41.92801" lon="13.089145"><ele>443.0</ele><time>2026-04-02T10:54:22.835Z</time></trkpt><trkpt lat="41.92791" lon="13.0891933"><ele>446.0</ele><time>2026-04-02T10:54:23.833Z</time></trkpt><trkpt lat="41.927795" lon="13.089205"><ele>449.0</ele><time>2026-04-02T10:54:24.835Z</time></trkpt><trkpt lat="41.9276767" lon="13.089155"><ele>439.5</ele><time>2026-04-02T10:54:25.833Z</time></trkpt><trkpt lat="41.9275567" lon="13.089085"><ele>430.0</ele><time>2026-04-02T10:54:26.836Z</time></trkpt><trkpt lat="41.9274383" lon="13.0890267"><ele>420.5</ele><time>2026-04-02T10:54:27.832Z</time></trkpt><trkpt lat="41.9273217" lon="13.088995"><ele>411.0</ele><time>2026-04-02T10:54:28.835Z</time></trkpt><trkpt lat="41.9272067" lon="13.0889933"><ele>411.0</ele><time>2026-04-02T10:54:29.83Z</time></trkpt><trkpt lat="41.9270933" lon="13.0890167"><ele>411.0</ele><time>2026-04-02T10:54:30.832Z</time></trkpt><trkpt lat="41.9269917" lon="13.089085"><ele>411.0</ele><time>2026-04-02T10:54:31.832Z</time></trkpt><trkpt lat="41.9269167" lon="13.08918"><ele>411.0</ele><time>2026-04-02T10:54:32.833Z</time></trkpt><trkpt lat="41.9268583" lon="13.0892983"><ele>411.0</ele><time>2026-04-02T10:54:33.834Z</time></trkpt><trkpt lat="41.9268217" lon="13.0894433"><ele>415.5</ele><time>2026-04-02T10:54:34.833Z</time></trkpt><trkpt lat="41.9268133" lon="13.08961"><ele>420.0</ele><time>2026-04-02T10:54:35.835Z</time></trkpt><trkpt lat="41.9268067" lon="13.0897683"><ele>424.5</ele><time>2026-04-02T10:54:36.831Z</time></trkpt><trkpt lat="41.9267833" lon="13.0899117"><ele>429.0</ele><time>2026-04-02T10:54:37.833Z</time></trkpt><trkpt lat="41.9267317" lon="13.09003"><ele>427.6</ele><time>2026-04-02T10:54:38.832Z</time></trkpt><trkpt lat="41.9266433" lon="13.0901267"><ele>426.2</ele><time>2026-04-02T10:54:39.833Z</time></trkpt><trkpt lat="41.9265383" lon="13.09021"><ele>424.8</ele><time>2026-04-02T10:54:40.833Z</time></trkpt><trkpt lat="41.92644" lon="13.090295"><ele>423.40000000000003</ele><time>2026-04-02T10:54:41.832Z</time></trkpt><trkpt lat="41.9263683" lon="13.0903783"><ele>422.0</ele><time>2026-04-02T10:54:42.838Z</time></trkpt><trkpt lat="41.9263133" lon="13.0904383"><ele>421.99999999999994</ele><time>2026-04-02T10:54:43.835Z</time></trkpt><trkpt lat="41.92626" lon="13.0905033"><ele>422.0</ele><time>2026-04-02T10:54:44.836Z</time></trkpt><trkpt lat="41.92622" lon="13.0905783"><ele>422.0</ele><time>2026-04-02T10:54:45.831Z</time></trkpt><trkpt lat="41.9261733" lon="13.0906717"><ele>422.0</ele><time>2026-04-02T10:54:46.83Z</time></trkpt><trkpt lat="41.9261067" lon="13.0907767"><ele>421.99999999999994</ele><time>2026-04-02T10:54:47.832Z</time></trkpt><trkpt lat="41.9260317" lon="13.09087"><ele>422.0</ele><time>2026-04-02T10:54:48.833Z</time></trkpt><trkpt lat="41.9259617" lon="13.090945"><ele>420.8333333333333</ele><time>2026-04-02T10:54:49.833Z</time></trkpt><trkpt lat="41.9258983" lon="13.09101"><ele>419.66666666666663</ele><time>2026-04-02T10:54:50.833Z</time></trkpt><trkpt lat="41.9258467" lon="13.0910733"><ele>418.5</ele><time>2026-04-02T10:54:51.833Z</time></trkpt><trkpt lat="41.92579" lon="13.0912217"><ele>417.33333333333337</ele><time>2026-04-02T10:54:53.832Z</time></trkpt><trkpt lat="41.925775" lon="13.091315"><ele>416.1666666666667</ele><time>2026-04-02T10:54:54.835Z</time></trkpt><trkpt lat="41.9257683" lon="13.0914067"><ele>415.0</ele><time>2026-04-02T10:54:55.833Z</time></trkpt><trkpt lat="41.92577" lon="13.0914933"><ele>415.2</ele><time>2026-04-02T10:54:56.834Z</time></trkpt><trkpt lat="41.9257717" lon="13.091645"><ele>415.4</ele><time>2026-04-02T10:54:58.831Z</time></trkpt><trkpt lat="41.92577" lon="13.091785"><ele>415.6</ele><time>2026-04-02T10:55:00.835Z</time></trkpt><trkpt lat="41.9257667" lon="13.0919567"><ele>415.8</ele><time>2026-04-02T10:55:02.832Z</time></trkpt><trkpt lat="41.9257583" lon="13.0920517"><ele>416.0</ele><time>2026-04-02T10:55:03.832Z</time></trkpt><trkpt lat="41.9257433" lon="13.0921367"><ele>415.99999999999994</ele><time>2026-04-02T10:55:04.832Z</time></trkpt><trkpt lat="41.925715" lon="13.092215"><ele>416.0</ele><time>2026-04-02T10:55:05.833Z</time></trkpt><trkpt lat="41.9256717" lon="13.09229"><ele>416.0</ele><time>2026-04-02T10:55:06.832Z</time></trkpt><trkpt lat="41.92562" lon="13.092365"><ele>416.0</ele><time>2026-04-02T10:55:07.833Z</time></trkpt><trkpt lat="41.92556" lon="13.0924417"><ele>415.99999999999994</ele><time>2026-04-02T10:55:08.835Z</time></trkpt><trkpt lat="41.92549" lon="13.0925283"><ele>416.0</ele><time>2026-04-02T10:55:09.834Z</time></trkpt><trkpt lat="41.92542" lon="13.0926167"><ele>415.66666666666663</ele><time>2026-04-02T10:55:10.834Z</time></trkpt><trkpt lat="41.9253467" lon="13.0927"><ele>415.3333333333333</ele><time>2026-04-02T10:55:11.834Z</time></trkpt><trkpt lat="41.9252783" lon="13.0927867"><ele>415.0</ele><time>2026-04-02T10:55:12.83Z</time></trkpt><trkpt lat="41.9252083" lon="13.0928633"><ele>414.66666666666663</ele><time>2026-04-02T10:55:13.833Z</time></trkpt><trkpt lat="41.9251467" lon="13.09294"><ele>414.3333333333333</ele><time>2026-04-02T10:55:14.832Z</time></trkpt><trkpt lat="41.9250917" lon="13.0930083"><ele>414.0</ele><time>2026-04-02T10:55:15.831Z</time></trkpt><trkpt lat="41.92504" lon="13.0930817"><ele>414.0</ele><time>2026-04-02T10:55:16.832Z</time></trkpt><trkpt lat="41.924985" lon="13.0931583"><ele>414.0</ele><time>2026-04-02T10:55:17.831Z</time></trkpt><trkpt lat="41.92493" lon="13.0932383"><ele>414.0</ele><time>2026-04-02T10:55:18.832Z</time></trkpt><trkpt lat="41.9248783" lon="13.093315"><ele>414.0</ele><time>2026-04-02T10:55:19.832Z</time></trkpt><trkpt lat="41.9248233" lon="13.09338"><ele>414.0</ele><time>2026-04-02T10:55:20.832Z</time></trkpt><trkpt lat="41.92478" lon="13.09345"><ele>414.0</ele><time>2026-04-02T10:55:21.832Z</time></trkpt><trkpt lat="41.924705" lon="13.0935683"><ele>416.0</ele><time>2026-04-02T10:55:23.832Z</time></trkpt><trkpt lat="41.9246183" lon="13.093665"><ele>418.0</ele><time>2026-04-02T10:55:25.835Z</time></trkpt><trkpt lat="41.92453" lon="13.093805"><ele>420.0</ele><time>2026-04-02T10:55:27.833Z</time></trkpt><trkpt lat="41.92448" lon="13.0938933"><ele>422.0</ele><time>2026-04-02T10:55:28.832Z</time></trkpt><trkpt lat="41.9244317" lon="13.093985"><ele>424.0</ele><time>2026-04-02T10:55:29.832Z</time></trkpt><trkpt lat="41.924385" lon="13.0940617"><ele>425.6666666666667</ele><time>2026-04-02T10:55:30.835Z</time></trkpt><trkpt lat="41.92433" lon="13.094155"><ele>427.33333333333337</ele><time>2026-04-02T10:55:32.834Z</time></trkpt><trkpt lat="41.924245" lon="13.0941517"><ele>429.0</ele><time>2026-04-02T10:55:36.835Z</time></trkpt><trkpt lat="41.9241583" lon="13.0941633"><ele>430.66666666666663</ele><time>2026-04-02T10:55:38.835Z</time></trkpt><trkpt lat="41.9240683" lon="13.09418"><ele>432.3333333333333</ele><time>2026-04-02T10:55:40.832Z</time></trkpt><trkpt lat="41.923975" lon="13.0941667"><ele>434.0</ele><time>2026-04-02T10:55:43.831Z</time></trkpt><trkpt lat="41.92392" lon="13.0942367"><ele>429.79999999999995</ele><time>2026-04-02T10:55:52.832Z</time></trkpt><trkpt lat="41.9239217" lon="13.094345"><ele>425.59999999999997</ele><time>2026-04-02T10:55:54.831Z</time></trkpt><trkpt lat="41.9239367" lon="13.094505"><ele>421.4</ele><time>2026-04-02T10:55:56.833Z</time></trkpt><trkpt lat="41.92395" lon="13.0946567"><ele>417.2</ele><time>2026-04-02T10:55:58.831Z</time></trkpt><trkpt lat="41.9239433" lon="13.09477"><ele>413.0</ele><time>2026-04-02T10:56:05.833Z</time></trkpt><trkpt lat="41.9239483" lon="13.09488"><ele>414.2</ele><time>2026-04-02T10:56:07.831Z</time></trkpt><trkpt lat="41.9239467" lon="13.0950383"><ele>415.4</ele><time>2026-04-02T10:56:09.833Z</time></trkpt><trkpt lat="41.923935" lon="13.095195"><ele>416.59999999999997</ele><time>2026-04-02T10:56:11.832Z</time></trkpt><trkpt lat="41.923945" lon="13.0953233"><ele>417.79999999999995</ele><time>2026-04-02T10:56:13.832Z</time></trkpt><trkpt lat="41.9239617" lon="13.0954133"><ele>419.0</ele><time>2026-04-02T10:56:15.832Z</time></trkpt><trkpt lat="41.9239733" lon="13.0955017"><ele>419.0</ele><time>2026-04-02T10:56:23.834Z</time></trkpt><trkpt lat="41.9239617" lon="13.0956017"><ele>419.0</ele><time>2026-04-02T10:56:25.832Z</time></trkpt><trkpt lat="41.923975" lon="13.0957517"><ele>419.0</ele><time>2026-04-02T10:56:27.833Z</time></trkpt><trkpt lat="41.9240183" lon="13.0959"><ele>419.0</ele><time>2026-04-02T10:56:29.833Z</time></trkpt><trkpt lat="41.9240383" lon="13.0959983"><ele>419.0</ele><time>2026-04-02T10:56:30.834Z</time></trkpt><trkpt lat="41.9240533" lon="13.0961067"><ele>419.3333333333333</ele><time>2026-04-02T10:56:31.834Z</time></trkpt><trkpt lat="41.92407" lon="13.0962067"><ele>419.66666666666663</ele><time>2026-04-02T10:56:32.829Z</time></trkpt><trkpt lat="41.9240967" lon="13.0963"><ele>420.0</ele><time>2026-04-02T10:56:33.83Z</time></trkpt><trkpt lat="41.9241117" lon="13.09639"><ele>420.33333333333337</ele><time>2026-04-02T10:56:34.83Z</time></trkpt><trkpt lat="41.924145" lon="13.0964783"><ele>420.6666666666667</ele><time>2026-04-02T10:56:35.832Z</time></trkpt><trkpt lat="41.9241833" lon="13.0965583"><ele>421.0</ele><time>2026-04-02T10:56:36.833Z</time></trkpt><trkpt lat="41.924255" lon="13.096675"><ele>421.4</ele><time>2026-04-02T10:56:38.832Z</time></trkpt><trkpt lat="41.9243667" lon="13.0967417"><ele>421.8</ele><time>2026-04-02T10:56:40.833Z</time></trkpt><trkpt lat="41.9244867" lon="13.0967867"><ele>422.2</ele><time>2026-04-02T10:56:42.833Z</time></trkpt><trkpt lat="41.9245467" lon="13.0968367"><ele>422.59999999999997</ele><time>2026-04-02T10:56:43.831Z</time></trkpt><trkpt lat="41.9246183" lon="13.0968933"><ele>423.0</ele><time>2026-04-02T10:56:44.835Z</time></trkpt><trkpt lat="41.9246833" lon="13.0969583"><ele>423.0</ele><time>2026-04-02T10:56:45.833Z</time></trkpt><trkpt lat="41.9247383" lon="13.09703"><ele>423.0</ele><time>2026-04-02T10:56:46.831Z</time></trkpt><trkpt lat="41.9247717" lon="13.0971033"><ele>423.0</ele><time>2026-04-02T10:56:47.831Z</time></trkpt><trkpt lat="41.92483" lon="13.097225"><ele>423.0</ele><time>2026-04-02T10:56:49.833Z</time></trkpt><trkpt lat="41.92488" lon="13.0973367"><ele>423.0</ele><time>2026-04-02T10:56:51.832Z</time></trkpt><trkpt lat="41.9249467" lon="13.0974033"><ele>423.0</ele><time>2026-04-02T10:57:00.833Z</time></trkpt><trkpt lat="41.9250117" lon="13.0974833"><ele>420.0</ele><time>2026-04-02T10:57:02.831Z</time></trkpt><trkpt lat="41.925105" lon="13.097545"><ele>417.0</ele><time>2026-04-02T10:57:04.833Z</time></trkpt><trkpt lat="41.9252" lon="13.0975733"><ele>414.0</ele><time>2026-04-02T10:57:06.832Z</time></trkpt><trkpt lat="41.92529" lon="13.0975983"><ele>411.0</ele><time>2026-04-02T10:57:08.832Z</time></trkpt><trkpt lat="41.925405" lon="13.0976267"><ele>408.0</ele><time>2026-04-02T10:57:10.832Z</time></trkpt><trkpt lat="41.9255217" lon="13.0976783"><ele>408.0</ele><time>2026-04-02T10:57:12.833Z</time></trkpt><trkpt lat="41.9255783" lon="13.0977317"><ele>408.0</ele><time>2026-04-02T10:57:13.832Z</time></trkpt><trkpt lat="41.9256267" lon="13.0978083"><ele>408.0</ele><time>2026-04-02T10:57:14.832Z</time></trkpt><trkpt lat="41.925675" lon="13.0978733"><ele>408.0</ele><time>2026-04-02T10:57:15.832Z</time></trkpt><trkpt lat="41.9257233" lon="13.097945"><ele>408.0</ele><time>2026-04-02T10:57:16.832Z</time></trkpt><trkpt lat="41.92576" lon="13.098035"><ele>408.0</ele><time>2026-04-02T10:57:17.832Z</time></trkpt><trkpt lat="41.9257917" lon="13.0981217"><ele>408.0</ele><time>2026-04-02T10:57:18.833Z</time></trkpt><trkpt lat="41.9258" lon="13.0982683"><ele>406.4</ele><time>2026-04-02T10:57:20.833Z</time></trkpt><trkpt lat="41.9257833" lon="13.0983817"><ele>404.79999999999995</ele><time>2026-04-02T10:57:22.832Z</time></trkpt><trkpt lat="41.92576" lon="13.0985233"><ele>403.2</ele><time>2026-04-02T10:57:24.831Z</time></trkpt><trkpt lat="41.9257567" lon="13.0986933"><ele>401.6</ele><time>2026-04-02T10:57:26.832Z</time></trkpt><trkpt lat="41.925755" lon="13.0987817"><ele>400.0</ele><time>2026-04-02T10:57:27.832Z</time></trkpt><trkpt lat="41.9257517" lon="13.09887"><ele>400.0</ele><time>2026-04-02T10:57:28.833Z</time></trkpt><trkpt lat="41.92574" lon="13.0990233"><ele>400.0</ele><time>2026-04-02T10:57:30.83Z</time></trkpt><trkpt lat="41.9257267" lon="13.09916"><ele>400.0</ele><time>2026-04-02T10:57:32.833Z</time></trkpt><trkpt lat="41.9257117" lon="13.099305"><ele>400.0</ele><time>2026-04-02T10:57:34.832Z</time></trkpt><trkpt lat="41.9257033" lon="13.0994683"><ele>400.0</ele><time>2026-04-02T10:57:36.831Z</time></trkpt><trkpt lat="41.9257033" lon="13.0995533"><ele>400.1666666666667</ele><time>2026-04-02T10:57:37.832Z</time></trkpt><trkpt lat="41.925695" lon="13.0997017"><ele>400.33333333333337</ele><time>2026-04-02T10:57:39.829Z</time></trkpt><trkpt lat="41.9256883" lon="13.099825"><ele>400.5</ele><time>2026-04-02T10:57:41.832Z</time></trkpt><trkpt lat="41.9256883" lon="13.099935"><ele>400.66666666666663</ele><time>2026-04-02T10:57:43.832Z</time></trkpt><trkpt lat="41.9256783" lon="13.1000433"><ele>400.8333333333333</ele><time>2026-04-02T10:57:46.833Z</time></trkpt><trkpt lat="41.9256633" lon="13.1001283"><ele>401.0</ele><time>2026-04-02T10:57:49.831Z</time></trkpt><trkpt lat="41.92566" lon="13.1002383"><ele>401.16666666666663</ele><time>2026-04-02T10:57:51.83Z</time></trkpt><trkpt lat="41.9256567" lon="13.1003833"><ele>401.3333333333333</ele><time>2026-04-02T10:57:53.833Z</time></trkpt><trkpt lat="41.9256533" lon="13.1004733"><ele>401.5</ele><time>2026-04-02T10:57:54.834Z</time></trkpt><trkpt lat="41.9256483" lon="13.1005683"><ele>401.66666666666663</ele><time>2026-04-02T10:57:55.833Z</time></trkpt><trkpt lat="41.9256433" lon="13.1006733"><ele>401.8333333333333</ele><time>2026-04-02T10:57:56.833Z</time></trkpt><trkpt lat="41.9256283" lon="13.100795"><ele>402.0</ele><time>2026-04-02T10:57:57.835Z</time></trkpt><trkpt lat="41.925615" lon="13.1009217"><ele>403.0</ele><time>2026-04-02T10:57:58.835Z</time></trkpt><trkpt lat="41.9256" lon="13.10104"><ele>404.0</ele><time>2026-04-02T10:57:59.832Z</time></trkpt><trkpt lat="41.925585" lon="13.1011583"><ele>405.0</ele><time>2026-04-02T10:58:00.832Z</time></trkpt><trkpt lat="41.925585" lon="13.1012733"><ele>406.0</ele><time>2026-04-02T10:58:01.832Z</time></trkpt><trkpt lat="41.9255933" lon="13.1013883"><ele>407.0</ele><time>2026-04-02T10:58:02.832Z</time></trkpt><trkpt lat="41.9256083" lon="13.101505"><ele>408.0</ele><time>2026-04-02T10:58:03.833Z</time></trkpt><trkpt lat="41.9256367" lon="13.1016167"><ele>408.0</ele><time>2026-04-02T10:58:04.833Z</time></trkpt><trkpt lat="41.9256683" lon="13.1017233"><ele>408.0</ele><time>2026-04-02T10:58:05.831Z</time></trkpt><trkpt lat="41.9257083" lon="13.10182"><ele>408.0</ele><time>2026-04-02T10:58:06.83Z</time></trkpt><trkpt lat="41.9257667" lon="13.1019017"><ele>408.0</ele><time>2026-04-02T10:58:07.832Z</time></trkpt><trkpt lat="41.92582" lon="13.101995"><ele>408.0</ele><time>2026-04-02T10:58:08.833Z</time></trkpt><trkpt lat="41.9258867" lon="13.102075"><ele>408.0</ele><time>2026-04-02T10:58:09.833Z</time></trkpt><trkpt lat="41.9259517" lon="13.10216"><ele>410.2</ele><time>2026-04-02T10:58:10.833Z</time></trkpt><trkpt lat="41.926" lon="13.102265"><ele>412.4</ele><time>2026-04-02T10:58:11.83Z</time></trkpt><trkpt lat="41.926035" lon="13.10238"><ele>414.59999999999997</ele><time>2026-04-02T10:58:12.83Z</time></trkpt><trkpt lat="41.9260533" lon="13.1025133"><ele>416.79999999999995</ele><time>2026-04-02T10:58:13.833Z</time></trkpt><trkpt lat="41.926055" lon="13.10266"><ele>419.0</ele><time>2026-04-02T10:58:14.832Z</time></trkpt><trkpt lat="41.9260533" lon="13.1028067"><ele>419.0</ele><time>2026-04-02T10:58:15.833Z</time></trkpt><trkpt lat="41.9260483" lon="13.1029617"><ele>419.0</ele><time>2026-04-02T10:58:16.833Z</time></trkpt><trkpt lat="41.9260417" lon="13.103125"><ele>419.0</ele><time>2026-04-02T10:58:17.831Z</time></trkpt><trkpt lat="41.926035" lon="13.1032967"><ele>419.0</ele><time>2026-04-02T10:58:18.832Z</time></trkpt><trkpt lat="41.9260067" lon="13.1034883"><ele>417.0</ele><time>2026-04-02T10:58:19.832Z</time></trkpt><trkpt lat="41.9259667" lon="13.1036867"><ele>415.0</ele><time>2026-04-02T10:58:20.833Z</time></trkpt><trkpt lat="41.9259183" lon="13.10387"><ele>413.0</ele><time>2026-04-02T10:58:21.832Z</time></trkpt><trkpt lat="41.925865" lon="13.104035"><ele>411.0</ele><time>2026-04-02T10:58:22.832Z</time></trkpt><trkpt lat="41.9258133" lon="13.10419"><ele>415.0</ele><time>2026-04-02T10:58:23.834Z</time></trkpt><trkpt lat="41.92576" lon="13.10433"><ele>419.0</ele><time>2026-04-02T10:58:24.833Z</time></trkpt><trkpt lat="41.92571" lon="13.10447"><ele>423.0</ele><time>2026-04-02T10:58:25.832Z</time></trkpt><trkpt lat="41.925655" lon="13.104605"><ele>427.0</ele><time>2026-04-02T10:58:26.833Z</time></trkpt><trkpt lat="41.9255933" lon="13.10473"><ele>427.0</ele><time>2026-04-02T10:58:27.833Z</time></trkpt><trkpt lat="41.92552" lon="13.1048367"><ele>427.0</ele><time>2026-04-02T10:58:28.835Z</time></trkpt><trkpt lat="41.9254317" lon="13.1049317"><ele>427.0</ele><time>2026-04-02T10:58:29.834Z</time></trkpt><trkpt lat="41.9253317" lon="13.105015"><ele>427.0</ele><time>2026-04-02T10:58:30.831Z</time></trkpt><trkpt lat="41.9252233" lon="13.1050817"><ele>426.5</ele><time>2026-04-02T10:58:31.833Z</time></trkpt><trkpt lat="41.9251067" lon="13.1051283"><ele>426.0</ele><time>2026-04-02T10:58:32.831Z</time></trkpt><trkpt lat="41.9249883" lon="13.1051683"><ele>425.5</ele><time>2026-04-02T10:58:33.833Z</time></trkpt><trkpt lat="41.924865" lon="13.1051967"><ele>425.0</ele><time>2026-04-02T10:58:34.83Z</time></trkpt><trkpt lat="41.92474" lon="13.1052183"><ele>425.0</ele><time>2026-04-02T10:58:35.835Z</time></trkpt><trkpt lat="41.9246183" lon="13.105225"><ele>425.0</ele><time>2026-04-02T10:58:36.835Z</time></trkpt><trkpt lat="41.9245083" lon="13.105225"><ele>425.0</ele><time>2026-04-02T10:58:37.833Z</time></trkpt><trkpt lat="41.9244033" lon="13.105235"><ele>425.0</ele><time>2026-04-02T10:58:38.833Z</time></trkpt><trkpt lat="41.924295" lon="13.1052683"><ele>425.0</ele><time>2026-04-02T10:58:39.832Z</time></trkpt><trkpt lat="41.92418" lon="13.1053183"><ele>424.0</ele><time>2026-04-02T10:58:40.831Z</time></trkpt><trkpt lat="41.924075" lon="13.1053917"><ele>423.0</ele><time>2026-04-02T10:58:41.833Z</time></trkpt><trkpt lat="41.9239667" lon="13.10546"><ele>422.0</ele><time>2026-04-02T10:58:42.833Z</time></trkpt><trkpt lat="41.9238617" lon="13.1055167"><ele>421.0</ele><time>2026-04-02T10:58:43.832Z</time></trkpt><trkpt lat="41.923765" lon="13.1055683"><ele>421.0</ele><time>2026-04-02T10:58:44.837Z</time></trkpt><trkpt lat="41.9236733" lon="13.10562"><ele>421.0</ele><time>2026-04-02T10:58:45.832Z</time></trkpt><trkpt lat="41.9235833" lon="13.10568"><ele>421.0</ele><time>2026-04-02T10:58:46.832Z</time></trkpt><trkpt lat="41.9234917" lon="13.1057433"><ele>421.0</ele><time>2026-04-02T10:58:47.832Z</time></trkpt><trkpt lat="41.9234033" lon="13.1058083"><ele>421.0</ele><time>2026-04-02T10:58:48.832Z</time></trkpt><trkpt lat="41.9233233" lon="13.1058617"><ele>423.1666666666667</ele><time>2026-04-02T10:58:49.833Z</time></trkpt><trkpt lat="41.923255" lon="13.105905"><ele>425.33333333333337</ele><time>2026-04-02T10:58:50.833Z</time></trkpt><trkpt lat="41.9231617" lon="13.1059533"><ele>427.5</ele><time>2026-04-02T10:58:52.832Z</time></trkpt><trkpt lat="41.9230817" lon="13.1060167"><ele>429.66666666666663</ele><time>2026-04-02T11:00:48.83Z</time></trkpt><trkpt lat="41.9230283" lon="13.1060717"><ele>431.8333333333333</ele><time>2026-04-02T11:00:49.829Z</time></trkpt><trkpt lat="41.92296" lon="13.106125"><ele>434.0</ele><time>2026-04-02T11:00:50.832Z</time></trkpt><trkpt lat="41.922875" lon="13.10617"><ele>434.0</ele><time>2026-04-02T11:00:51.832Z</time></trkpt><trkpt lat="41.9227817" lon="13.1062133"><ele>434.0</ele><time>2026-04-02T11:00:52.831Z</time></trkpt><trkpt lat="41.9226783" lon="13.1062567"><ele>434.0</ele><time>2026-04-02T11:00:53.831Z</time></trkpt><trkpt lat="41.922575" lon="13.1062933"><ele>434.0</ele><time>2026-04-02T11:00:54.833Z</time></trkpt><trkpt lat="41.9224717" lon="13.1063267"><ele>434.0</ele><time>2026-04-02T11:00:55.832Z</time></trkpt><trkpt lat="41.922365" lon="13.10636"><ele>432.5</ele><time>2026-04-02T11:00:56.832Z</time></trkpt><trkpt lat="41.9222517" lon="13.1064"><ele>431.0</ele><time>2026-04-02T11:00:57.831Z</time></trkpt><trkpt lat="41.92213" lon="13.10644"><ele>429.5</ele><time>2026-04-02T11:00:58.833Z</time></trkpt><trkpt lat="41.922" lon="13.106485"><ele>428.0</ele><time>2026-04-02T11:00:59.833Z</time></trkpt><trkpt lat="41.9218617" lon="13.1065283"><ele>432.25</ele><time>2026-04-02T11:01:00.832Z</time></trkpt><trkpt lat="41.9217267" lon="13.1065817"><ele>436.5</ele><time>2026-04-02T11:01:01.831Z</time></trkpt><trkpt lat="41.9215917" lon="13.106635"><ele>440.75</ele><time>2026-04-02T11:01:02.833Z</time></trkpt><trkpt lat="41.9214567" lon="13.10669"><ele>445.0</ele><time>2026-04-02T11:01:03.831Z</time></trkpt><trkpt lat="41.9213217" lon="13.1067617"><ele>445.0</ele><time>2026-04-02T11:01:04.833Z</time></trkpt><trkpt lat="41.921185" lon="13.1068433"><ele>445.0</ele><time>2026-04-02T11:01:05.831Z</time></trkpt><trkpt lat="41.9210517" lon="13.1069417"><ele>445.0</ele><time>2026-04-02T11:01:06.833Z</time></trkpt><trkpt lat="41.9209317" lon="13.1070533"><ele>445.0</ele><time>2026-04-02T11:01:07.834Z</time></trkpt><trkpt lat="41.920805" lon="13.107165"><ele>438.33333333333337</ele><time>2026-04-02T11:01:08.834Z</time></trkpt><trkpt lat="41.92067" lon="13.10723"><ele>431.66666666666663</ele><time>2026-04-02T11:01:09.834Z</time></trkpt><trkpt lat="41.9205183" lon="13.107275"><ele>425.0</ele><time>2026-04-02T11:01:10.834Z</time></trkpt><trkpt lat="41.9203483" lon="13.1072967"><ele>425.0</ele><time>2026-04-02T11:01:11.833Z</time></trkpt><trkpt lat="41.92018" lon="13.1073167"><ele>425.0</ele><time>2026-04-02T11:01:12.832Z</time></trkpt><trkpt lat="41.9200217" lon="13.1073267"><ele>425.0</ele><time>2026-04-02T11:01:13.835Z</time></trkpt><trkpt lat="41.9198717" lon="13.1073267"><ele>427.0</ele><time>2026-04-02T11:01:14.835Z</time></trkpt><trkpt lat="41.91972" lon="13.10733"><ele>429.0</ele><time>2026-04-02T11:01:15.833Z</time></trkpt><trkpt lat="41.9195667" lon="13.1073367"><ele>431.0</ele><time>2026-04-02T11:01:16.834Z</time></trkpt><trkpt lat="41.9194167" lon="13.1073433"><ele>431.0</ele><time>2026-04-02T11:01:17.832Z</time></trkpt><trkpt lat="41.91928" lon="13.107325"><ele>431.0</ele><time>2026-04-02T11:01:18.833Z</time></trkpt><trkpt lat="41.9191633" lon="13.1072683"><ele>431.0</ele><time>2026-04-02T11:01:19.833Z</time></trkpt><trkpt lat="41.9190733" lon="13.1071817"><ele>431.0</ele><time>2026-04-02T11:01:20.833Z</time></trkpt><trkpt lat="41.9190233" lon="13.1070483"><ele>436.75</ele><time>2026-04-02T11:01:21.833Z</time></trkpt><trkpt lat="41.9190217" lon="13.10687"><ele>442.5</ele><time>2026-04-02T11:01:22.832Z</time></trkpt><trkpt lat="41.9190283" lon="13.1066783"><ele>448.25</ele><time>2026-04-02T11:01:23.833Z</time></trkpt><trkpt lat="41.9190317" lon="13.1064767"><ele>454.0</ele><time>2026-04-02T11:01:24.835Z</time></trkpt><trkpt lat="41.91904" lon="13.106265"><ele>456.6666666666667</ele><time>2026-04-02T11:01:25.835Z</time></trkpt><trkpt lat="41.91907" lon="13.1060467"><ele>459.33333333333337</ele><time>2026-04-02T11:01:26.833Z</time></trkpt><trkpt lat="41.9191233" lon="13.1058183"><ele>462.0</ele><time>2026-04-02T11:01:27.834Z</time></trkpt><trkpt lat="41.9191883" lon="13.1055817"><ele>463.0</ele><time>2026-04-02T11:01:28.835Z</time></trkpt><trkpt lat="41.91925" lon="13.1053183"><ele>464.0</ele><time>2026-04-02T11:01:29.832Z</time></trkpt><trkpt lat="41.9193033" lon="13.1050483"><ele>465.0</ele><time>2026-04-02T11:01:30.833Z</time></trkpt><trkpt lat="41.919355" lon="13.1047617"><ele>472.66666666666663</ele><time>2026-04-02T11:01:31.832Z</time></trkpt><trkpt lat="41.9194067" lon="13.1044717"><ele>480.3333333333333</ele><time>2026-04-02T11:01:32.833Z</time></trkpt><trkpt lat="41.9194617" lon="13.1041867"><ele>488.0</ele><time>2026-04-02T11:01:33.833Z</time></trkpt><trkpt lat="41.91952" lon="13.103915"><ele>488.3333333333333</ele><time>2026-04-02T11:01:34.832Z</time></trkpt><trkpt lat="41.9195717" lon="13.1036433"><ele>488.66666666666663</ele><time>2026-04-02T11:01:35.832Z</time></trkpt><trkpt lat="41.9196233" lon="13.1033783"><ele>489.0</ele><time>2026-04-02T11:01:36.834Z</time></trkpt><trkpt lat="41.9196933" lon="13.1032167"><ele>484.66666666666663</ele><time>2026-04-02T11:01:37.833Z</time></trkpt><trkpt lat="41.9197067" lon="13.1030083"><ele>480.3333333333333</ele><time>2026-04-02T11:01:38.832Z</time></trkpt><trkpt lat="41.9197133" lon="13.1027983"><ele>476.0</ele><time>2026-04-02T11:01:39.833Z</time></trkpt><trkpt lat="41.9196667" lon="13.1026083"><ele>476.0</ele><time>2026-04-02T11:01:40.829Z</time></trkpt><trkpt lat="41.9195917" lon="13.1024333"><ele>476.0</ele><time>2026-04-02T11:01:41.832Z</time></trkpt><trkpt lat="41.9194867" lon="13.1023"><ele>476.0</ele><time>2026-04-02T11:01:42.835Z</time></trkpt><trkpt lat="41.9193633" lon="13.1021833"><ele>476.0</ele><time>2026-04-02T11:01:43.834Z</time></trkpt><trkpt lat="41.91923" lon="13.1021033"><ele>474.3333333333333</ele><time>2026-04-02T11:01:44.835Z</time></trkpt><trkpt lat="41.9190683" lon="13.1021"><ele>472.66666666666663</ele><time>2026-04-02T11:01:45.832Z</time></trkpt><trkpt lat="41.9188967" lon="13.1021317"><ele>471.0</ele><time>2026-04-02T11:01:46.834Z</time></trkpt><trkpt lat="41.9187267" lon="13.102205"><ele>471.0</ele><time>2026-04-02T11:01:47.832Z</time></trkpt><trkpt lat="41.918545" lon="13.1023217"><ele>471.0</ele><time>2026-04-02T11:01:48.834Z</time></trkpt><trkpt lat="41.9183567" lon="13.10244"><ele>471.0</ele><time>2026-04-02T11:01:49.833Z</time></trkpt><trkpt lat="41.91817" lon="13.102565"><ele>475.66666666666663</ele><time>2026-04-02T11:01:50.834Z</time></trkpt><trkpt lat="41.9180117" lon="13.1026717"><ele>480.3333333333333</ele><time>2026-04-02T11:01:51.833Z</time></trkpt><trkpt lat="41.917865" lon="13.10275"><ele>485.0</ele><time>2026-04-02T11:01:52.834Z</time></trkpt><trkpt lat="41.9177217" lon="13.1027983"><ele>485.0</ele><time>2026-04-02T11:01:53.833Z</time></trkpt><trkpt lat="41.9175733" lon="13.1027917"><ele>485.0</ele><time>2026-04-02T11:01:54.831Z</time></trkpt><trkpt lat="41.9174233" lon="13.1027333"><ele>485.0</ele><time>2026-04-02T11:01:55.832Z</time></trkpt><trkpt lat="41.917275" lon="13.1026267"><ele>488.66666666666663</ele><time>2026-04-02T11:01:56.833Z</time></trkpt><trkpt lat="41.917125" lon="13.1024967"><ele>492.33333333333337</ele><time>2026-04-02T11:01:57.832Z</time></trkpt><trkpt lat="41.9169783" lon="13.1023567"><ele>496.0</ele><time>2026-04-02T11:01:58.832Z</time></trkpt><trkpt lat="41.9168433" lon="13.1022033"><ele>496.0</ele><time>2026-04-02T11:01:59.832Z</time></trkpt><trkpt lat="41.9167367" lon="13.1020267"><ele>496.0</ele><time>2026-04-02T11:02:00.832Z</time></trkpt><trkpt lat="41.91666" lon="13.1018217"><ele>496.0</ele><time>2026-04-02T11:02:01.832Z</time></trkpt><trkpt lat="41.916605" lon="13.1016067"><ele>499.0</ele><time>2026-04-02T11:02:02.833Z</time></trkpt><trkpt lat="41.9165517" lon="13.1014217"><ele>502.0</ele><time>2026-04-02T11:02:03.832Z</time></trkpt><trkpt lat="41.9164867" lon="13.1012933"><ele>505.0</ele><time>2026-04-02T11:02:04.831Z</time></trkpt><trkpt lat="41.9164" lon="13.1012133"><ele>508.0</ele><time>2026-04-02T11:02:05.832Z</time></trkpt><trkpt lat="41.9162933" lon="13.101165"><ele>508.0</ele><time>2026-04-02T11:02:06.833Z</time></trkpt><trkpt lat="41.9161717" lon="13.10116"><ele>508.0</ele><time>2026-04-02T11:02:07.831Z</time></trkpt><trkpt lat="41.9160283" lon="13.1012283"><ele>508.0</ele><time>2026-04-02T11:02:08.833Z</time></trkpt><trkpt lat="41.9158833" lon="13.1013567"><ele>508.0</ele><time>2026-04-02T11:02:09.833Z</time></trkpt><trkpt lat="41.9157333" lon="13.1014883"><ele>508.6666666666667</ele><time>2026-04-02T11:02:10.832Z</time></trkpt><trkpt lat="41.9155867" lon="13.1015667"><ele>509.33333333333337</ele><time>2026-04-02T11:02:11.831Z</time></trkpt><trkpt lat="41.9154417" lon="13.1015867"><ele>510.0</ele><time>2026-04-02T11:02:12.831Z</time></trkpt><trkpt lat="41.9152917" lon="13.1015317"><ele>510.0</ele><time>2026-04-02T11:02:13.834Z</time></trkpt><trkpt lat="41.91514" lon="13.1014367"><ele>510.0</ele><time>2026-04-02T11:02:14.832Z</time></trkpt><trkpt lat="41.9149967" lon="13.101325"><ele>510.0</ele><time>2026-04-02T11:02:15.833Z</time></trkpt><trkpt lat="41.914865" lon="13.1012483"><ele>509.25</ele><time>2026-04-02T11:02:16.834Z</time></trkpt><trkpt lat="41.9147417" lon="13.1012183"><ele>508.5</ele><time>2026-04-02T11:02:17.833Z</time></trkpt><trkpt lat="41.9146067" lon="13.1012617"><ele>507.75</ele><time>2026-04-02T11:02:18.833Z</time></trkpt><trkpt lat="41.9144633" lon="13.10135"><ele>507.0</ele><time>2026-04-02T11:02:19.831Z</time></trkpt><trkpt lat="41.914305" lon="13.1014583"><ele>505.66666666666663</ele><time>2026-04-02T11:02:20.835Z</time></trkpt><trkpt lat="41.9141317" lon="13.1015633"><ele>504.3333333333333</ele><time>2026-04-02T11:02:21.832Z</time></trkpt><trkpt lat="41.9139417" lon="13.1016583"><ele>503.0</ele><time>2026-04-02T11:02:22.833Z</time></trkpt><trkpt lat="41.9137367" lon="13.10174"><ele>508.0</ele><time>2026-04-02T11:02:23.833Z</time></trkpt><trkpt lat="41.9135133" lon="13.101805"><ele>513.0</ele><time>2026-04-02T11:02:24.834Z</time></trkpt><trkpt lat="41.9132783" lon="13.1018633"><ele>513.0</ele><time>2026-04-02T11:02:25.833Z</time></trkpt><trkpt lat="41.9130417" lon="13.1019133"><ele>513.0</ele><time>2026-04-02T11:02:26.836Z</time></trkpt><trkpt lat="41.9128083" lon="13.10195"><ele>512.0</ele><time>2026-04-02T11:02:27.833Z</time></trkpt><trkpt lat="41.9125717" lon="13.1019633"><ele>511.0</ele><time>2026-04-02T11:02:28.832Z</time></trkpt><trkpt lat="41.9123317" lon="13.1019533"><ele>511.0</ele><time>2026-04-02T11:02:29.833Z</time></trkpt><trkpt lat="41.91211" lon="13.1019317"><ele>511.0</ele><time>2026-04-02T11:02:30.833Z</time></trkpt><trkpt lat="41.9119067" lon="13.10192"><ele>511.0</ele><time>2026-04-02T11:02:31.832Z</time></trkpt><trkpt lat="41.9117233" lon="13.1019167"><ele>511.5</ele><time>2026-04-02T11:02:32.834Z</time></trkpt><trkpt lat="41.91156" lon="13.101925"><ele>512.0</ele><time>2026-04-02T11:02:33.834Z</time></trkpt><trkpt lat="41.9114183" lon="13.1019567"><ele>512.5</ele><time>2026-04-02T11:02:34.832Z</time></trkpt><trkpt lat="41.9112933" lon="13.1020267"><ele>513.0</ele><time>2026-04-02T11:02:35.831Z</time></trkpt><trkpt lat="41.9111783" lon="13.1021417"><ele>513.0</ele><time>2026-04-02T11:02:36.833Z</time></trkpt><trkpt lat="41.911065" lon="13.1022967"><ele>513.0</ele><time>2026-04-02T11:02:37.831Z</time></trkpt><trkpt lat="41.9109383" lon="13.10246"><ele>513.0</ele><time>2026-04-02T11:02:38.832Z</time></trkpt><trkpt lat="41.9107983" lon="13.1026233"><ele>515.0</ele><time>2026-04-02T11:02:39.832Z</time></trkpt><trkpt lat="41.9106467" lon="13.1027833"><ele>517.0</ele><time>2026-04-02T11:02:40.833Z</time></trkpt><trkpt lat="41.91048" lon="13.1029433"><ele>519.0</ele><time>2026-04-02T11:02:41.832Z</time></trkpt><trkpt lat="41.9102983" lon="13.103105"><ele>520.0</ele><time>2026-04-02T11:02:42.835Z</time></trkpt><trkpt lat="41.9101217" lon="13.10327"><ele>521.0</ele><time>2026-04-02T11:02:43.833Z</time></trkpt><trkpt lat="41.9099467" lon="13.1034383"><ele>522.0</ele><time>2026-04-02T11:02:44.833Z</time></trkpt><trkpt lat="41.9097833" lon="13.1036217"><ele>522.0</ele><time>2026-04-02T11:02:45.834Z</time></trkpt><trkpt lat="41.9096317" lon="13.1037967"><ele>522.0</ele><time>2026-04-02T11:02:46.835Z</time></trkpt><trkpt lat="41.9094983" lon="13.1039583"><ele>522.0</ele><time>2026-04-02T11:02:47.834Z</time></trkpt><trkpt lat="41.9093667" lon="13.10408"><ele>525.0</ele><time>2026-04-02T11:02:48.834Z</time></trkpt><trkpt lat="41.9092267" lon="13.10416"><ele>528.0</ele><time>2026-04-02T11:02:49.833Z</time></trkpt><trkpt lat="41.9090633" lon="13.1041883"><ele>531.0</ele><time>2026-04-02T11:02:50.837Z</time></trkpt><trkpt lat="41.9088867" lon="13.1042017"><ele>531.0</ele><time>2026-04-02T11:02:51.833Z</time></trkpt><trkpt lat="41.9087083" lon="13.1042433"><ele>531.0</ele><time>2026-04-02T11:02:52.834Z</time></trkpt><trkpt lat="41.90855" lon="13.1042933"><ele>531.0</ele><time>2026-04-02T11:02:53.835Z</time></trkpt><trkpt lat="41.90841" lon="13.1043233"><ele>530.8</ele><time>2026-04-02T11:02:54.833Z</time></trkpt><trkpt lat="41.9082883" lon="13.1043133"><ele>530.6</ele><time>2026-04-02T11:02:55.834Z</time></trkpt><trkpt lat="41.9081933" lon="13.1042567"><ele>530.4</ele><time>2026-04-02T11:02:56.834Z</time></trkpt><trkpt lat="41.9081367" lon="13.104155"><ele>530.2</ele><time>2026-04-02T11:02:57.832Z</time></trkpt><trkpt lat="41.908095" lon="13.10401"><ele>530.0</ele><time>2026-04-02T11:02:58.832Z</time></trkpt><trkpt lat="41.9080633" lon="13.1038267"><ele>529.75</ele><time>2026-04-02T11:02:59.833Z</time></trkpt><trkpt lat="41.9080183" lon="13.1036333"><ele>529.5</ele><time>2026-04-02T11:03:00.832Z</time></trkpt><trkpt lat="41.9079567" lon="13.103455"><ele>529.25</ele><time>2026-04-02T11:03:01.834Z</time></trkpt><trkpt lat="41.9078767" lon="13.10332"><ele>529.0</ele><time>2026-04-02T11:03:02.833Z</time></trkpt><trkpt lat="41.9077783" lon="13.1032367"><ele>529.0</ele><time>2026-04-02T11:03:03.833Z</time></trkpt><trkpt lat="41.907665" lon="13.103205"><ele>529.0</ele><time>2026-04-02T11:03:04.832Z</time></trkpt><trkpt lat="41.9075283" lon="13.1032433"><ele>529.0</ele><time>2026-04-02T11:03:05.832Z</time></trkpt><trkpt lat="41.9073917" lon="13.1032533"><ele>529.0</ele><time>2026-04-02T11:03:06.833Z</time></trkpt><trkpt lat="41.907255" lon="13.1031983"><ele>526.6666666666667</ele><time>2026-04-02T11:03:07.832Z</time></trkpt><trkpt lat="41.9071167" lon="13.103085"><ele>524.3333333333334</ele><time>2026-04-02T11:03:08.834Z</time></trkpt><trkpt lat="41.906975" lon="13.1029567"><ele>522.0</ele><time>2026-04-02T11:03:09.832Z</time></trkpt><trkpt lat="41.9068417" lon="13.1028417"><ele>524.0</ele><time>2026-04-02T11:03:10.833Z</time></trkpt><trkpt lat="41.906735" lon="13.10273"><ele>526.0</ele><time>2026-04-02T11:03:11.833Z</time></trkpt><trkpt lat="41.906675" lon="13.1026"><ele>528.0</ele><time>2026-04-02T11:03:12.833Z</time></trkpt><trkpt lat="41.9066667" lon="13.102435"><ele>530.0</ele><time>2026-04-02T11:03:13.833Z</time></trkpt><trkpt lat="41.9066983" lon="13.102235"><ele>526.6666666666666</ele><time>2026-04-02T11:03:14.834Z</time></trkpt><trkpt lat="41.9067467" lon="13.102015"><ele>523.3333333333334</ele><time>2026-04-02T11:03:15.835Z</time></trkpt><trkpt lat="41.906795" lon="13.101775"><ele>520.0</ele><time>2026-04-02T11:03:16.833Z</time></trkpt><trkpt lat="41.906855" lon="13.1015283"><ele>519.3333333333334</ele><time>2026-04-02T11:03:17.833Z</time></trkpt><trkpt lat="41.9069267" lon="13.1012917"><ele>518.6666666666666</ele><time>2026-04-02T11:03:18.831Z</time></trkpt><trkpt lat="41.9070083" lon="13.101085"><ele>518.0</ele><time>2026-04-02T11:03:19.832Z</time></trkpt><trkpt lat="41.9070767" lon="13.1008967"><ele>517.0</ele><time>2026-04-02T11:03:20.833Z</time></trkpt><trkpt lat="41.9071167" lon="13.100725"><ele>516.0</ele><time>2026-04-02T11:03:21.833Z</time></trkpt><trkpt lat="41.9071267" lon="13.100565"><ele>515.0</ele><time>2026-04-02T11:03:22.833Z</time></trkpt><trkpt lat="41.9070983" lon="13.10041"><ele>514.0</ele><time>2026-04-02T11:03:23.832Z</time></trkpt><trkpt lat="41.90704" lon="13.1002717"><ele>514.0</ele><time>2026-04-02T11:03:24.833Z</time></trkpt><trkpt lat="41.9069267" lon="13.100145"><ele>514.0</ele><time>2026-04-02T11:03:25.833Z</time></trkpt><trkpt lat="41.9068067" lon="13.0999983"><ele>514.0</ele><time>2026-04-02T11:03:26.83Z</time></trkpt><trkpt lat="41.90671" lon="13.0998167"><ele>518.3333333333334</ele><time>2026-04-02T11:03:27.833Z</time></trkpt><trkpt lat="41.906665" lon="13.09958"><ele>522.6666666666666</ele><time>2026-04-02T11:03:28.831Z</time></trkpt><trkpt lat="41.9066617" lon="13.0993067"><ele>527.0</ele><time>2026-04-02T11:03:29.832Z</time></trkpt><trkpt lat="41.9066867" lon="13.0990033"><ele>527.0</ele><time>2026-04-02T11:03:30.832Z</time></trkpt><trkpt lat="41.9067117" lon="13.0986867"><ele>527.0</ele><time>2026-04-02T11:03:31.833Z</time></trkpt><trkpt lat="41.9067117" lon="13.09835"><ele>525.5</ele><time>2026-04-02T11:03:32.833Z</time></trkpt><trkpt lat="41.9067" lon="13.0979833"><ele>524.0</ele><time>2026-04-02T11:03:33.832Z</time></trkpt><trkpt lat="41.9066883" lon="13.0976217"><ele>521.5</ele><time>2026-04-02T11:03:34.83Z</time></trkpt><trkpt lat="41.906695" lon="13.0972767"><ele>519.0</ele><time>2026-04-02T11:03:35.831Z</time></trkpt><trkpt lat="41.90672" lon="13.0969383"><ele>505.0</ele><time>2026-04-02T11:03:36.834Z</time></trkpt><trkpt lat="41.90675" lon="13.0966083"><ele>491.0</ele><time>2026-04-02T11:03:37.833Z</time></trkpt><trkpt lat="41.906765" lon="13.0962833"><ele>491.0</ele><time>2026-04-02T11:03:38.832Z</time></trkpt><trkpt lat="41.9067567" lon="13.0959467"><ele>491.0</ele><time>2026-04-02T11:03:39.833Z</time></trkpt><trkpt lat="41.9067367" lon="13.0956233"><ele>505.0</ele><time>2026-04-02T11:03:40.832Z</time></trkpt><trkpt lat="41.9067183" lon="13.095325"><ele>519.0</ele><time>2026-04-02T11:03:41.833Z</time></trkpt><trkpt lat="41.906735" lon="13.0950167"><ele>505.5</ele><time>2026-04-02T11:03:42.833Z</time></trkpt><trkpt lat="41.90678" lon="13.0946833"><ele>492.0</ele><time>2026-04-02T11:03:43.832Z</time></trkpt><trkpt lat="41.90685" lon="13.0943267"><ele>493.5</ele><time>2026-04-02T11:03:44.832Z</time></trkpt><trkpt lat="41.9069267" lon="13.0939767"><ele>495.0</ele><time>2026-04-02T11:03:45.833Z</time></trkpt><trkpt lat="41.90699" lon="13.09367"><ele>495.0</ele><time>2026-04-02T11:03:46.833Z</time></trkpt><trkpt lat="41.9070317" lon="13.0933917"><ele>495.0</ele><time>2026-04-02T11:03:47.835Z</time></trkpt><trkpt lat="41.9070533" lon="13.0931217"><ele>495.0</ele><time>2026-04-02T11:03:48.833Z</time></trkpt><trkpt lat="41.9070467" lon="13.0928367"><ele>496.5</ele><time>2026-04-02T11:03:49.832Z</time></trkpt><trkpt lat="41.90701" lon="13.0925383"><ele>498.0</ele><time>2026-04-02T11:03:50.831Z</time></trkpt><trkpt lat="41.9069833" lon="13.0922317"><ele>498.66666666666663</ele><time>2026-04-02T11:03:51.832Z</time></trkpt><trkpt lat="41.906975" lon="13.0919317"><ele>499.3333333333333</ele><time>2026-04-02T11:03:52.832Z</time></trkpt><trkpt lat="41.9069683" lon="13.0916533"><ele>500.0</ele><time>2026-04-02T11:03:53.831Z</time></trkpt><trkpt lat="41.906965" lon="13.0914117"><ele>501.0</ele><time>2026-04-02T11:03:54.833Z</time></trkpt><trkpt lat="41.9069833" lon="13.0912067"><ele>502.0</ele><time>2026-04-02T11:03:55.832Z</time></trkpt><trkpt lat="41.90703" lon="13.091005"><ele>503.0</ele><time>2026-04-02T11:03:56.833Z</time></trkpt><trkpt lat="41.9070967" lon="13.0908117"><ele>504.25</ele><time>2026-04-02T11:03:57.833Z</time></trkpt><trkpt lat="41.9071533" lon="13.0906317"><ele>505.5</ele><time>2026-04-02T11:03:58.831Z</time></trkpt><trkpt lat="41.9071817" lon="13.090455"><ele>506.75</ele><time>2026-04-02T11:03:59.833Z</time></trkpt><trkpt lat="41.9071817" lon="13.0902617"><ele>508.0</ele><time>2026-04-02T11:04:00.833Z</time></trkpt><trkpt lat="41.9071767" lon="13.090045"><ele>510.33333333333337</ele><time>2026-04-02T11:04:01.833Z</time></trkpt><trkpt lat="41.9071933" lon="13.089825"><ele>512.6666666666666</ele><time>2026-04-02T11:04:02.833Z</time></trkpt><trkpt lat="41.907235" lon="13.0896233"><ele>515.0</ele><time>2026-04-02T11:04:03.833Z</time></trkpt><trkpt lat="41.907305" lon="13.0894533"><ele>515.0</ele><time>2026-04-02T11:04:04.831Z</time></trkpt><trkpt lat="41.9074067" lon="13.0893167"><ele>515.0</ele><time>2026-04-02T11:04:05.833Z</time></trkpt><trkpt lat="41.9075417" lon="13.089205"><ele>515.0</ele><time>2026-04-02T11:04:06.833Z</time></trkpt><trkpt lat="41.9076967" lon="13.0890917"><ele>512.3333333333333</ele><time>2026-04-02T11:04:07.833Z</time></trkpt><trkpt lat="41.90785" lon="13.0889683"><ele>509.66666666666663</ele><time>2026-04-02T11:04:08.835Z</time></trkpt><trkpt lat="41.90798" lon="13.0888433"><ele>507.0</ele><time>2026-04-02T11:04:09.833Z</time></trkpt><trkpt lat="41.9080867" lon="13.088715"><ele>507.0</ele><time>2026-04-02T11:04:10.832Z</time></trkpt><trkpt lat="41.9081683" lon="13.088565"><ele>507.0</ele><time>2026-04-02T11:04:11.835Z</time></trkpt><trkpt lat="41.908205" lon="13.08837"><ele>507.0</ele><time>2026-04-02T11:04:12.83Z</time></trkpt><trkpt lat="41.9082233" lon="13.088145"><ele>506.0</ele><time>2026-04-02T11:04:13.834Z</time></trkpt><trkpt lat="41.908225" lon="13.08789"><ele>505.0</ele><time>2026-04-02T11:04:14.837Z</time></trkpt><trkpt lat="41.9082267" lon="13.0876183"><ele>504.0</ele><time>2026-04-02T11:04:15.832Z</time></trkpt><trkpt lat="41.9082317" lon="13.0873617"><ele>503.25</ele><time>2026-04-02T11:04:16.831Z</time></trkpt><trkpt lat="41.9082367" lon="13.0871333"><ele>502.5</ele><time>2026-04-02T11:04:17.835Z</time></trkpt><trkpt lat="41.9082317" lon="13.0869433"><ele>501.75</ele><time>2026-04-02T11:04:18.831Z</time></trkpt><trkpt lat="41.90821" lon="13.0867867"><ele>501.0</ele><time>2026-04-02T11:04:19.833Z</time></trkpt><trkpt lat="41.9081517" lon="13.0866633"><ele>501.0</ele><time>2026-04-02T11:04:20.832Z</time></trkpt><trkpt lat="41.90806" lon="13.0865717"><ele>501.0</ele><time>2026-04-02T11:04:21.833Z</time></trkpt><trkpt lat="41.9079417" lon="13.0865433"><ele>501.0</ele><time>2026-04-02T11:04:22.832Z</time></trkpt><trkpt lat="41.90779" lon="13.0865967"><ele>501.0</ele><time>2026-04-02T11:04:23.831Z</time></trkpt><trkpt lat="41.907635" lon="13.0866717"><ele>499.33333333333337</ele><time>2026-04-02T11:04:24.833Z</time></trkpt><trkpt lat="41.9074517" lon="13.0867633"><ele>497.6666666666667</ele><time>2026-04-02T11:04:25.833Z</time></trkpt><trkpt lat="41.9072417" lon="13.086855"><ele>496.0</ele><time>2026-04-02T11:04:26.833Z</time></trkpt><trkpt lat="41.90702" lon="13.086955"><ele>496.0</ele><time>2026-04-02T11:04:27.833Z</time></trkpt><trkpt lat="41.9067833" lon="13.0870617"><ele>496.0</ele><time>2026-04-02T11:04:28.832Z</time></trkpt><trkpt lat="41.90654" lon="13.0871733"><ele>497.0</ele><time>2026-04-02T11:04:29.833Z</time></trkpt><trkpt lat="41.9063183" lon="13.0872733"><ele>498.0</ele><time>2026-04-02T11:04:30.833Z</time></trkpt><trkpt lat="41.906125" lon="13.0873717"><ele>499.0</ele><time>2026-04-02T11:04:31.833Z</time></trkpt><trkpt lat="41.9059583" lon="13.0874767"><ele>497.25</ele><time>2026-04-02T11:04:32.831Z</time></trkpt><trkpt lat="41.905825" lon="13.0875817"><ele>495.5</ele><time>2026-04-02T11:04:33.831Z</time></trkpt><trkpt lat="41.9057183" lon="13.0876583"><ele>493.75</ele><time>2026-04-02T11:04:34.832Z</time></trkpt><trkpt lat="41.9056283" lon="13.087685"><ele>492.0</ele><time>2026-04-02T11:04:35.833Z</time></trkpt><trkpt lat="41.9055433" lon="13.0876617"><ele>492.0</ele><time>2026-04-02T11:04:36.831Z</time></trkpt><trkpt lat="41.9054683" lon="13.0875833"><ele>492.0</ele><time>2026-04-02T11:04:37.831Z</time></trkpt><trkpt lat="41.9054283" lon="13.08744"><ele>492.0</ele><time>2026-04-02T11:04:38.832Z</time></trkpt><trkpt lat="41.905375" lon="13.0872867"><ele>492.0</ele><time>2026-04-02T11:04:39.833Z</time></trkpt><trkpt lat="41.9052983" lon="13.0871433"><ele>488.0</ele><time>2026-04-02T11:04:40.833Z</time></trkpt><trkpt lat="41.905205" lon="13.0870317"><ele>484.0</ele><time>2026-04-02T11:04:41.831Z</time></trkpt><trkpt lat="41.9051033" lon="13.0869717"><ele>480.0</ele><time>2026-04-02T11:04:42.833Z</time></trkpt><trkpt lat="41.9049817" lon="13.0869533"><ele>476.0</ele><time>2026-04-02T11:04:43.832Z</time></trkpt><trkpt lat="41.9048367" lon="13.086965"><ele>474.66666666666663</ele><time>2026-04-02T11:04:44.833Z</time></trkpt><trkpt lat="41.9046733" lon="13.0869967"><ele>473.33333333333337</ele><time>2026-04-02T11:04:45.833Z</time></trkpt><trkpt lat="41.90449" lon="13.0870667"><ele>472.0</ele><time>2026-04-02T11:04:46.835Z</time></trkpt><trkpt lat="41.904295" lon="13.0871683"><ele>466.0</ele><time>2026-04-02T11:04:47.833Z</time></trkpt><trkpt lat="41.9040933" lon="13.08728"><ele>460.0</ele><time>2026-04-02T11:04:48.834Z</time></trkpt><trkpt lat="41.9038717" lon="13.0873767"><ele>467.0</ele><time>2026-04-02T11:04:49.832Z</time></trkpt><trkpt lat="41.903635" lon="13.08745"><ele>474.0</ele><time>2026-04-02T11:04:50.832Z</time></trkpt><trkpt lat="41.9033933" lon="13.0875083"><ele>474.0</ele><time>2026-04-02T11:04:51.833Z</time></trkpt><trkpt lat="41.90315" lon="13.087575"><ele>474.0</ele><time>2026-04-02T11:04:52.833Z</time></trkpt><trkpt lat="41.9029017" lon="13.0876717"><ele>474.0</ele><time>2026-04-02T11:04:53.832Z</time></trkpt><trkpt lat="41.9026567" lon="13.08779"><ele>474.0</ele><time>2026-04-02T11:04:54.833Z</time></trkpt><trkpt lat="41.9024283" lon="13.0879083"><ele>469.0</ele><time>2026-04-02T11:04:55.831Z</time></trkpt><trkpt lat="41.902215" lon="13.0880133"><ele>464.0</ele><time>2026-04-02T11:04:56.833Z</time></trkpt><trkpt lat="41.902015" lon="13.08812"><ele>459.0</ele><time>2026-04-02T11:04:57.831Z</time></trkpt><trkpt lat="41.9018267" lon="13.088255"><ele>462.66666666666663</ele><time>2026-04-02T11:04:58.833Z</time></trkpt><trkpt lat="41.9016583" lon="13.08842"><ele>466.3333333333333</ele><time>2026-04-02T11:04:59.833Z</time></trkpt><trkpt lat="41.901495" lon="13.088575"><ele>470.0</ele><time>2026-04-02T11:05:00.831Z</time></trkpt><trkpt lat="41.9013267" lon="13.0886883"><ele>470.0</ele><time>2026-04-02T11:05:01.834Z</time></trkpt><trkpt lat="41.9011467" lon="13.0887567"><ele>470.0</ele><time>2026-04-02T11:05:02.836Z</time></trkpt><trkpt lat="41.9009633" lon="13.0887867"><ele>470.0</ele><time>2026-04-02T11:05:03.833Z</time></trkpt><trkpt lat="41.9007833" lon="13.0888317"><ele>467.3333333333333</ele><time>2026-04-02T11:05:04.832Z</time></trkpt><trkpt lat="41.900605" lon="13.0889217"><ele>464.66666666666663</ele><time>2026-04-02T11:05:05.834Z</time></trkpt><trkpt lat="41.900425" lon="13.08905"><ele>462.0</ele><time>2026-04-02T11:05:06.833Z</time></trkpt><trkpt lat="41.9002467" lon="13.0891867"><ele>464.66666666666663</ele><time>2026-04-02T11:05:07.835Z</time></trkpt><trkpt lat="41.9000733" lon="13.0893083"><ele>467.3333333333333</ele><time>2026-04-02T11:05:08.835Z</time></trkpt><trkpt lat="41.8999183" lon="13.0894117"><ele>470.0</ele><time>2026-04-02T11:05:09.835Z</time></trkpt><trkpt lat="41.89978" lon="13.0895167"><ele>470.0</ele><time>2026-04-02T11:05:10.83Z</time></trkpt><trkpt lat="41.8996567" lon="13.0896367"><ele>470.0</ele><time>2026-04-02T11:05:11.832Z</time></trkpt><trkpt lat="41.8995467" lon="13.0897383"><ele>470.0</ele><time>2026-04-02T11:05:12.836Z</time></trkpt><trkpt lat="41.8994467" lon="13.0897883"><ele>470.0</ele><time>2026-04-02T11:05:13.834Z</time></trkpt><trkpt lat="41.8993517" lon="13.0897783"><ele>470.0</ele><time>2026-04-02T11:05:14.834Z</time></trkpt><trkpt lat="41.8992717" lon="13.0897183"><ele>470.0</ele><time>2026-04-02T11:05:15.834Z</time></trkpt><trkpt lat="41.8992083" lon="13.0896183"><ele>470.0</ele><time>2026-04-02T11:05:16.834Z</time></trkpt><trkpt lat="41.89914" lon="13.0895117"><ele>470.0</ele><time>2026-04-02T11:05:17.832Z</time></trkpt><trkpt lat="41.899045" lon="13.089425"><ele>470.0</ele><time>2026-04-02T11:05:18.833Z</time></trkpt><trkpt lat="41.8989283" lon="13.0893667"><ele>470.5</ele><time>2026-04-02T11:05:19.831Z</time></trkpt><trkpt lat="41.8987883" lon="13.08935"><ele>471.0</ele><time>2026-04-02T11:05:20.833Z</time></trkpt><trkpt lat="41.8986433" lon="13.0893667"><ele>471.5</ele><time>2026-04-02T11:05:21.832Z</time></trkpt><trkpt lat="41.8985083" lon="13.0894083"><ele>472.0</ele><time>2026-04-02T11:05:22.831Z</time></trkpt><trkpt lat="41.8983783" lon="13.0894817"><ele>472.6666666666667</ele><time>2026-04-02T11:05:23.833Z</time></trkpt><trkpt lat="41.8982417" lon="13.0895533"><ele>473.33333333333337</ele><time>2026-04-02T11:05:24.834Z</time></trkpt><trkpt lat="41.8980983" lon="13.0896283"><ele>474.0</ele><time>2026-04-02T11:05:25.831Z</time></trkpt><trkpt lat="41.89795" lon="13.089685"><ele>474.0</ele><time>2026-04-02T11:05:26.833Z</time></trkpt><trkpt lat="41.897805" lon="13.089735"><ele>474.0</ele><time>2026-04-02T11:05:27.831Z</time></trkpt><trkpt lat="41.8976583" lon="13.089795"><ele>474.0</ele><time>2026-04-02T11:05:28.832Z</time></trkpt><trkpt lat="41.89751" lon="13.0898483"><ele>475.0</ele><time>2026-04-02T11:05:29.833Z</time></trkpt><trkpt lat="41.8973617" lon="13.0899"><ele>476.0</ele><time>2026-04-02T11:05:30.832Z</time></trkpt><trkpt lat="41.8972183" lon="13.089955"><ele>477.0</ele><time>2026-04-02T11:05:31.832Z</time></trkpt><trkpt lat="41.8970833" lon="13.090025"><ele>478.0</ele><time>2026-04-02T11:05:32.833Z</time></trkpt><trkpt lat="41.89696" lon="13.0901133"><ele>480.25</ele><time>2026-04-02T11:05:33.831Z</time></trkpt><trkpt lat="41.8968483" lon="13.0902167"><ele>482.5</ele><time>2026-04-02T11:05:34.832Z</time></trkpt><trkpt lat="41.8967367" lon="13.090325"><ele>484.75</ele><time>2026-04-02T11:05:35.834Z</time></trkpt><trkpt lat="41.8966083" lon="13.0903917"><ele>487.0</ele><time>2026-04-02T11:05:36.835Z</time></trkpt><trkpt lat="41.89646" lon="13.0904167"><ele>488.0</ele><time>2026-04-02T11:05:37.834Z</time></trkpt><trkpt lat="41.8963033" lon="13.0904267"><ele>489.0</ele><time>2026-04-02T11:05:38.831Z</time></trkpt><trkpt lat="41.8961433" lon="13.0904417"><ele>490.0</ele><time>2026-04-02T11:05:39.833Z</time></trkpt><trkpt lat="41.89598" lon="13.09046"><ele>490.0</ele><time>2026-04-02T11:05:40.829Z</time></trkpt><trkpt lat="41.8957967" lon="13.09049"><ele>490.0</ele><time>2026-04-02T11:05:41.832Z</time></trkpt><trkpt lat="41.8955833" lon="13.0905233"><ele>490.0</ele><time>2026-04-02T11:05:42.831Z</time></trkpt><trkpt lat="41.89536" lon="13.0905617"><ele>490.0</ele><time>2026-04-02T11:05:43.831Z</time></trkpt><trkpt lat="41.8951317" lon="13.0906067"><ele>490.0</ele><time>2026-04-02T11:05:44.833Z</time></trkpt><trkpt lat="41.8949083" lon="13.090655"><ele>494.0</ele><time>2026-04-02T11:05:45.832Z</time></trkpt><trkpt lat="41.8947083" lon="13.0907017"><ele>498.0</ele><time>2026-04-02T11:05:46.832Z</time></trkpt><trkpt lat="41.8945333" lon="13.090735"><ele>502.0</ele><time>2026-04-02T11:05:47.831Z</time></trkpt><trkpt lat="41.8943867" lon="13.0907467"><ele>502.0</ele><time>2026-04-02T11:05:48.832Z</time></trkpt><trkpt lat="41.8942617" lon="13.0907233"><ele>502.0</ele><time>2026-04-02T11:05:49.831Z</time></trkpt><trkpt lat="41.8941533" lon="13.0906517"><ele>502.0</ele><time>2026-04-02T11:05:50.831Z</time></trkpt><trkpt lat="41.894045" lon="13.0905333"><ele>502.0</ele><time>2026-04-02T11:05:51.832Z</time></trkpt><trkpt lat="41.8939283" lon="13.09038"><ele>503.33333333333337</ele><time>2026-04-02T11:05:52.831Z</time></trkpt><trkpt lat="41.8937983" lon="13.0902167"><ele>504.66666666666663</ele><time>2026-04-02T11:05:53.83Z</time></trkpt><trkpt lat="41.89366" lon="13.0900417"><ele>506.0</ele><time>2026-04-02T11:05:54.836Z</time></trkpt><trkpt lat="41.893515" lon="13.089865"><ele>508.0</ele><time>2026-04-02T11:05:55.83Z</time></trkpt><trkpt lat="41.8933667" lon="13.0897033"><ele>510.0</ele><time>2026-04-02T11:05:56.832Z</time></trkpt><trkpt lat="41.8932217" lon="13.0895683"><ele>512.0</ele><time>2026-04-02T11:05:57.831Z</time></trkpt><trkpt lat="41.8930617" lon="13.0894683"><ele>512.0</ele><time>2026-04-02T11:05:58.831Z</time></trkpt><trkpt lat="41.89288" lon="13.0894117"><ele>512.0</ele><time>2026-04-02T11:05:59.832Z</time></trkpt><trkpt lat="41.8926817" lon="13.0893967"><ele>512.0</ele><time>2026-04-02T11:06:00.832Z</time></trkpt><trkpt lat="41.892475" lon="13.0893967"><ele>513.3333333333333</ele><time>2026-04-02T11:06:01.831Z</time></trkpt><trkpt lat="41.89226" lon="13.0894"><ele>514.6666666666666</ele><time>2026-04-02T11:06:02.833Z</time></trkpt><trkpt lat="41.8920433" lon="13.0894"><ele>516.0</ele><time>2026-04-02T11:06:03.832Z</time></trkpt><trkpt lat="41.891835" lon="13.0893817"><ele>516.6666666666666</ele><time>2026-04-02T11:06:04.831Z</time></trkpt><trkpt lat="41.8916417" lon="13.0893467"><ele>517.3333333333333</ele><time>2026-04-02T11:06:05.832Z</time></trkpt><trkpt lat="41.891465" lon="13.089295"><ele>518.0</ele><time>2026-04-02T11:06:06.832Z</time></trkpt><trkpt lat="41.89131" lon="13.089215"><ele>518.0</ele><time>2026-04-02T11:06:07.831Z</time></trkpt><trkpt lat="41.8911733" lon="13.0890983"><ele>518.0</ele><time>2026-04-02T11:06:08.833Z</time></trkpt><trkpt lat="41.8910417" lon="13.0889717"><ele>518.0</ele><time>2026-04-02T11:06:09.829Z</time></trkpt><trkpt lat="41.8908967" lon="13.08887"><ele>515.6666666666666</ele><time>2026-04-02T11:06:10.829Z</time></trkpt><trkpt lat="41.890745" lon="13.088785"><ele>513.3333333333334</ele><time>2026-04-02T11:06:11.832Z</time></trkpt><trkpt lat="41.8906083" lon="13.08869"><ele>511.0</ele><time>2026-04-02T11:06:12.832Z</time></trkpt><trkpt lat="41.8905" lon="13.088575"><ele>511.0</ele><time>2026-04-02T11:06:13.832Z</time></trkpt><trkpt lat="41.8904267" lon="13.0884133"><ele>511.0</ele><time>2026-04-02T11:06:14.832Z</time></trkpt><trkpt lat="41.8903783" lon="13.0882117"><ele>511.0</ele><time>2026-04-02T11:06:15.834Z</time></trkpt><trkpt lat="41.8903517" lon="13.0879717"><ele>509.33333333333337</ele><time>2026-04-02T11:06:16.833Z</time></trkpt><trkpt lat="41.890345" lon="13.0877117"><ele>507.66666666666663</ele><time>2026-04-02T11:06:17.834Z</time></trkpt><trkpt lat="41.89036" lon="13.087425"><ele>506.0</ele><time>2026-04-02T11:06:18.834Z</time></trkpt><trkpt lat="41.890395" lon="13.0871217"><ele>505.5</ele><time>2026-04-02T11:06:19.831Z</time></trkpt><trkpt lat="41.890435" lon="13.086815"><ele>505.0</ele><time>2026-04-02T11:06:20.835Z</time></trkpt><trkpt lat="41.8904567" lon="13.0865033"><ele>503.5</ele><time>2026-04-02T11:06:21.832Z</time></trkpt><trkpt lat="41.890465" lon="13.0861767"><ele>502.0</ele><time>2026-04-02T11:06:22.833Z</time></trkpt><trkpt lat="41.890455" lon="13.0858383"><ele>500.5</ele><time>2026-04-02T11:06:23.831Z</time></trkpt><trkpt lat="41.890445" lon="13.08549"><ele>499.0</ele><time>2026-04-02T11:06:24.831Z</time></trkpt><trkpt lat="41.89042" lon="13.0851517"><ele>497.0</ele><time>2026-04-02T11:06:25.831Z</time></trkpt><trkpt lat="41.8903883" lon="13.084835"><ele>495.0</ele><time>2026-04-02T11:06:26.832Z</time></trkpt><trkpt lat="41.890365" lon="13.0845317"><ele>495.0</ele><time>2026-04-02T11:06:27.832Z</time></trkpt><trkpt lat="41.8903567" lon="13.0842233"><ele>495.0</ele><time>2026-04-02T11:06:28.831Z</time></trkpt><trkpt lat="41.8903733" lon="13.08389"><ele>494.5</ele><time>2026-04-02T11:06:29.831Z</time></trkpt><trkpt lat="41.8904033" lon="13.08354"><ele>494.0</ele><time>2026-04-02T11:06:30.832Z</time></trkpt><trkpt lat="41.8904367" lon="13.083175"><ele>495.5</ele><time>2026-04-02T11:06:31.832Z</time></trkpt><trkpt lat="41.8904733" lon="13.0827933"><ele>497.0</ele><time>2026-04-02T11:06:32.833Z</time></trkpt><trkpt lat="41.8905183" lon="13.0823883"><ele>499.5</ele><time>2026-04-02T11:06:33.834Z</time></trkpt><trkpt lat="41.8905617" lon="13.08197"><ele>502.0</ele><time>2026-04-02T11:06:34.832Z</time></trkpt><trkpt lat="41.8906017" lon="13.0815567"><ele>503.0</ele><time>2026-04-02T11:06:35.832Z</time></trkpt><trkpt lat="41.8906417" lon="13.0811383"><ele>504.0</ele><time>2026-04-02T11:06:36.832Z</time></trkpt><trkpt lat="41.8906783" lon="13.0807267"><ele>505.5</ele><time>2026-04-02T11:06:37.831Z</time></trkpt><trkpt lat="41.8907167" lon="13.0803317"><ele>507.0</ele><time>2026-04-02T11:06:38.831Z</time></trkpt><trkpt lat="41.8907433" lon="13.0799683"><ele>508.5</ele><time>2026-04-02T11:06:39.833Z</time></trkpt><trkpt lat="41.890745" lon="13.0796483"><ele>510.0</ele><time>2026-04-02T11:06:40.832Z</time></trkpt><trkpt lat="41.8907467" lon="13.0793617"><ele>512.0</ele><time>2026-04-02T11:06:41.832Z</time></trkpt><trkpt lat="41.89076" lon="13.079075"><ele>514.0</ele><time>2026-04-02T11:06:42.832Z</time></trkpt><trkpt lat="41.8907917" lon="13.0787767"><ele>516.0</ele><time>2026-04-02T11:06:43.832Z</time></trkpt><trkpt lat="41.8908383" lon="13.078455"><ele>518.0</ele><time>2026-04-02T11:06:44.832Z</time></trkpt><trkpt lat="41.8908883" lon="13.0781267"><ele>520.0</ele><time>2026-04-02T11:06:45.835Z</time></trkpt><trkpt lat="41.8909417" lon="13.0778017"><ele>506.0</ele><time>2026-04-02T11:06:46.831Z</time></trkpt><trkpt lat="41.8909983" lon="13.0774883"><ele>492.0</ele><time>2026-04-02T11:06:47.83Z</time></trkpt><trkpt lat="41.891055" lon="13.0772067"><ele>492.0</ele><time>2026-04-02T11:06:48.832Z</time></trkpt><trkpt lat="41.8911017" lon="13.07696"><ele>492.0</ele><time>2026-04-02T11:06:49.832Z</time></trkpt><trkpt lat="41.8911317" lon="13.076725"><ele>492.0</ele><time>2026-04-02T11:06:50.832Z</time></trkpt><trkpt lat="41.8911333" lon="13.07649"><ele>493.66666666666663</ele><time>2026-04-02T11:06:51.832Z</time></trkpt><trkpt lat="41.891115" lon="13.0762417"><ele>495.3333333333333</ele><time>2026-04-02T11:06:52.832Z</time></trkpt><trkpt lat="41.8911083" lon="13.0759783"><ele>497.0</ele><time>2026-04-02T11:06:53.833Z</time></trkpt><trkpt lat="41.8911267" lon="13.0757067"><ele>500.66666666666663</ele><time>2026-04-02T11:06:54.831Z</time></trkpt><trkpt lat="41.8911667" lon="13.0754483"><ele>504.33333333333337</ele><time>2026-04-02T11:06:55.83Z</time></trkpt><trkpt lat="41.8912233" lon="13.0752083"><ele>508.0</ele><time>2026-04-02T11:06:56.832Z</time></trkpt><trkpt lat="41.89131" lon="13.07499"><ele>513.0</ele><time>2026-04-02T11:06:57.832Z</time></trkpt><trkpt lat="41.89141" lon="13.0747833"><ele>518.0</ele><time>2026-04-02T11:06:58.832Z</time></trkpt><trkpt lat="41.8915017" lon="13.0745833"><ele>523.0</ele><time>2026-04-02T11:06:59.831Z</time></trkpt><trkpt lat="41.8915717" lon="13.074365"><ele>523.0</ele><time>2026-04-02T11:07:00.831Z</time></trkpt><trkpt lat="41.8916333" lon="13.0741217"><ele>523.0</ele><time>2026-04-02T11:07:01.831Z</time></trkpt><trkpt lat="41.8917" lon="13.0738517"><ele>523.0</ele><time>2026-04-02T11:07:02.832Z</time></trkpt><trkpt lat="41.89178" lon="13.0735867"><ele>521.6666666666667</ele><time>2026-04-02T11:07:03.831Z</time></trkpt><trkpt lat="41.89186" lon="13.0733483"><ele>520.3333333333334</ele><time>2026-04-02T11:07:04.832Z</time></trkpt><trkpt lat="41.89192" lon="13.07314"><ele>519.0</ele><time>2026-04-02T11:07:05.831Z</time></trkpt><trkpt lat="41.8919583" lon="13.072965"><ele>521.4</ele><time>2026-04-02T11:07:06.832Z</time></trkpt><trkpt lat="41.8919733" lon="13.0728233"><ele>523.8</ele><time>2026-04-02T11:07:07.833Z</time></trkpt><trkpt lat="41.8919717" lon="13.07272"><ele>526.2</ele><time>2026-04-02T11:07:08.833Z</time></trkpt><trkpt lat="41.8919417" lon="13.072615"><ele>528.6</ele><time>2026-04-02T11:07:10.832Z</time></trkpt><trkpt lat="41.8918617" lon="13.0726633"><ele>531.0</ele><time>2026-04-02T11:08:04.833Z</time></trkpt><trkpt lat="41.8917467" lon="13.0727517"><ele>531.2</ele><time>2026-04-02T11:08:06.836Z</time></trkpt><trkpt lat="41.891685" lon="13.0728283"><ele>531.4000000000001</ele><time>2026-04-02T11:08:07.832Z</time></trkpt><trkpt lat="41.8916217" lon="13.0729267"><ele>531.6</ele><time>2026-04-02T11:08:08.834Z</time></trkpt><trkpt lat="41.8915583" lon="13.0730483"><ele>531.8000000000001</ele><time>2026-04-02T11:08:09.832Z</time></trkpt><trkpt lat="41.89149" lon="13.0731783"><ele>532.0</ele><time>2026-04-02T11:08:10.833Z</time></trkpt><trkpt lat="41.8914233" lon="13.0733133"><ele>532.0</ele><time>2026-04-02T11:08:11.833Z</time></trkpt><trkpt lat="41.8913517" lon="13.0734483"><ele>532.0</ele><time>2026-04-02T11:08:12.835Z</time></trkpt><trkpt lat="41.891275" lon="13.0735633"><ele>532.0</ele><time>2026-04-02T11:08:13.835Z</time></trkpt><trkpt lat="41.89119" lon="13.0736417"><ele>532.0</ele><time>2026-04-02T11:08:14.832Z</time></trkpt><trkpt lat="41.8910983" lon="13.07368"><ele>532.0</ele><time>2026-04-02T11:08:15.834Z</time></trkpt><trkpt lat="41.891" lon="13.0736567"><ele>534.0</ele><time>2026-04-02T11:08:16.834Z</time></trkpt><trkpt lat="41.8908983" lon="13.0735933"><ele>536.0</ele><time>2026-04-02T11:08:17.835Z</time></trkpt><trkpt lat="41.8907917" lon="13.0735083"><ele>538.0</ele><time>2026-04-02T11:08:18.834Z</time></trkpt><trkpt lat="41.8906883" lon="13.07341"><ele>540.0</ele><time>2026-04-02T11:08:19.832Z</time></trkpt><trkpt lat="41.89059" lon="13.0732983"><ele>539.5</ele><time>2026-04-02T11:08:20.832Z</time></trkpt><trkpt lat="41.8905017" lon="13.0731567"><ele>539.0</ele><time>2026-04-02T11:08:21.835Z</time></trkpt><trkpt lat="41.8904333" lon="13.0729883"><ele>538.5</ele><time>2026-04-02T11:08:22.834Z</time></trkpt><trkpt lat="41.8903917" lon="13.0727917"><ele>538.0</ele><time>2026-04-02T11:08:23.834Z</time></trkpt><trkpt lat="41.890355" lon="13.07258"><ele>539.6666666666667</ele><time>2026-04-02T11:08:24.832Z</time></trkpt><trkpt lat="41.8903067" lon="13.072365"><ele>541.3333333333334</ele><time>2026-04-02T11:08:25.833Z</time></trkpt><trkpt lat="41.8902267" lon="13.0721383"><ele>543.0</ele><time>2026-04-02T11:08:26.833Z</time></trkpt><trkpt lat="41.8901283" lon="13.0719133"><ele>540.6666666666666</ele><time>2026-04-02T11:08:27.833Z</time></trkpt><trkpt lat="41.890035" lon="13.0716983"><ele>538.3333333333333</ele><time>2026-04-02T11:08:28.832Z</time></trkpt><trkpt lat="41.88996" lon="13.071495"><ele>536.0</ele><time>2026-04-02T11:08:29.833Z</time></trkpt><trkpt lat="41.8898933" lon="13.071315"><ele>536.0</ele><time>2026-04-02T11:08:30.832Z</time></trkpt><trkpt lat="41.8898283" lon="13.0711633"><ele>536.0</ele><time>2026-04-02T11:08:31.831Z</time></trkpt><trkpt lat="41.8897533" lon="13.0710383"><ele>536.0</ele><time>2026-04-02T11:08:32.834Z</time></trkpt><trkpt lat="41.88966" lon="13.070945"><ele>536.0</ele><time>2026-04-02T11:08:33.833Z</time></trkpt><trkpt lat="41.8895467" lon="13.0708967"><ele>536.0</ele><time>2026-04-02T11:08:34.831Z</time></trkpt><trkpt lat="41.889425" lon="13.0708883"><ele>536.0</ele><time>2026-04-02T11:08:35.833Z</time></trkpt><trkpt lat="41.8892983" lon="13.070945"><ele>536.0</ele><time>2026-04-02T11:08:36.831Z</time></trkpt><trkpt lat="41.8891883" lon="13.0709867"><ele>536.0</ele><time>2026-04-02T11:08:37.834Z</time></trkpt><trkpt lat="41.8891" lon="13.0709867"><ele>535.0</ele><time>2026-04-02T11:08:38.832Z</time></trkpt><trkpt lat="41.8890167" lon="13.07095"><ele>534.0</ele><time>2026-04-02T11:08:39.835Z</time></trkpt><trkpt lat="41.888945" lon="13.07085"><ele>533.0</ele><time>2026-04-02T11:08:40.832Z</time></trkpt><trkpt lat="41.888895" lon="13.0706867"><ele>532.0</ele><time>2026-04-02T11:08:41.833Z</time></trkpt><trkpt lat="41.8888617" lon="13.0704967"><ele>532.0</ele><time>2026-04-02T11:08:42.835Z</time></trkpt><trkpt lat="41.88885" lon="13.0702617"><ele>532.0</ele><time>2026-04-02T11:08:43.833Z</time></trkpt><trkpt lat="41.8888617" lon="13.0699933"><ele>532.0</ele><time>2026-04-02T11:08:44.835Z</time></trkpt><trkpt lat="41.8888717" lon="13.06975"><ele>529.6666666666667</ele><time>2026-04-02T11:08:45.832Z</time></trkpt><trkpt lat="41.8888967" lon="13.0695183"><ele>527.3333333333334</ele><time>2026-04-02T11:08:46.831Z</time></trkpt><trkpt lat="41.8889367" lon="13.0692933"><ele>525.0</ele><time>2026-04-02T11:08:47.833Z</time></trkpt><trkpt lat="41.8890033" lon="13.069075"><ele>521.3333333333334</ele><time>2026-04-02T11:08:48.831Z</time></trkpt><trkpt lat="41.88908" lon="13.0688783"><ele>517.6666666666667</ele><time>2026-04-02T11:08:49.833Z</time></trkpt><trkpt lat="41.8891683" lon="13.0687017"><ele>514.0</ele><time>2026-04-02T11:08:50.834Z</time></trkpt><trkpt lat="41.88923" lon="13.0685517"><ele>517.0</ele><time>2026-04-02T11:08:51.833Z</time></trkpt><trkpt lat="41.8892667" lon="13.06841"><ele>520.0</ele><time>2026-04-02T11:08:52.832Z</time></trkpt><trkpt lat="41.88925" lon="13.0682633"><ele>523.0</ele><time>2026-04-02T11:08:53.832Z</time></trkpt><trkpt lat="41.8892" lon="13.0681233"><ele>526.0</ele><time>2026-04-02T11:08:54.834Z</time></trkpt><trkpt lat="41.8890917" lon="13.0680083"><ele>526.0</ele><time>2026-04-02T11:08:55.833Z</time></trkpt><trkpt lat="41.8889467" lon="13.0679133"><ele>526.0</ele><time>2026-04-02T11:08:56.834Z</time></trkpt><trkpt lat="41.8887983" lon="13.0678183"><ele>526.0</ele><time>2026-04-02T11:08:57.833Z</time></trkpt><trkpt lat="41.8886633" lon="13.067715"><ele>526.0</ele><time>2026-04-02T11:08:58.834Z</time></trkpt><trkpt lat="41.88854" lon="13.0675883"><ele>526.0</ele><time>2026-04-02T11:08:59.833Z</time></trkpt><trkpt lat="41.888425" lon="13.06744"><ele>526.0</ele><time>2026-04-02T11:09:00.832Z</time></trkpt><trkpt lat="41.88832" lon="13.0672567"><ele>524.6666666666667</ele><time>2026-04-02T11:09:01.832Z</time></trkpt><trkpt lat="41.8882183" lon="13.067045"><ele>523.3333333333334</ele><time>2026-04-02T11:09:02.833Z</time></trkpt><trkpt lat="41.888115" lon="13.0668283"><ele>522.0</ele><time>2026-04-02T11:09:03.832Z</time></trkpt><trkpt lat="41.88801" lon="13.0666233"><ele>527.3333333333334</ele><time>2026-04-02T11:09:04.832Z</time></trkpt><trkpt lat="41.8879117" lon="13.0664283"><ele>532.6666666666667</ele><time>2026-04-02T11:09:05.833Z</time></trkpt><trkpt lat="41.887835" lon="13.0662367"><ele>538.0</ele><time>2026-04-02T11:09:06.831Z</time></trkpt><trkpt lat="41.8877817" lon="13.0660383"><ele>538.0</ele><time>2026-04-02T11:09:07.832Z</time></trkpt><trkpt lat="41.88774" lon="13.0658283"><ele>538.0</ele><time>2026-04-02T11:09:08.833Z</time></trkpt><trkpt lat="41.88771" lon="13.0656017"><ele>538.0</ele><time>2026-04-02T11:09:09.832Z</time></trkpt><trkpt lat="41.88769" lon="13.06537"><ele>536.6666666666667</ele><time>2026-04-02T11:09:10.832Z</time></trkpt><trkpt lat="41.8876817" lon="13.0651433"><ele>535.3333333333334</ele><time>2026-04-02T11:09:11.832Z</time></trkpt><trkpt lat="41.8876767" lon="13.06492"><ele>534.0</ele><time>2026-04-02T11:09:12.835Z</time></trkpt><trkpt lat="41.8876867" lon="13.064695"><ele>534.0</ele><time>2026-04-02T11:09:13.832Z</time></trkpt><trkpt lat="41.887715" lon="13.0644683"><ele>534.0</ele><time>2026-04-02T11:09:14.834Z</time></trkpt><trkpt lat="41.8877583" lon="13.0642417"><ele>534.0</ele><time>2026-04-02T11:09:15.831Z</time></trkpt><trkpt lat="41.8878233" lon="13.0640167"><ele>526.3333333333334</ele><time>2026-04-02T11:09:16.831Z</time></trkpt><trkpt lat="41.8879067" lon="13.0638"><ele>518.6666666666667</ele><time>2026-04-02T11:09:17.829Z</time></trkpt><trkpt lat="41.8879983" lon="13.0635967"><ele>511.0</ele><time>2026-04-02T11:09:18.831Z</time></trkpt><trkpt lat="41.8880883" lon="13.063405"><ele>508.5</ele><time>2026-04-02T11:09:19.832Z</time></trkpt><trkpt lat="41.8881683" lon="13.0632283"><ele>506.0</ele><time>2026-04-02T11:09:20.832Z</time></trkpt><trkpt lat="41.8882333" lon="13.063075"><ele>503.5</ele><time>2026-04-02T11:09:21.833Z</time></trkpt><trkpt lat="41.8882533" lon="13.06291"><ele>501.0</ele><time>2026-04-02T11:09:22.83Z</time></trkpt><trkpt lat="41.8882233" lon="13.0627333"><ele>501.0</ele><time>2026-04-02T11:09:23.833Z</time></trkpt><trkpt lat="41.8881933" lon="13.062555"><ele>501.0</ele><time>2026-04-02T11:09:24.833Z</time></trkpt><trkpt lat="41.8882017" lon="13.0623717"><ele>501.0</ele><time>2026-04-02T11:09:25.833Z</time></trkpt><trkpt lat="41.888255" lon="13.0621867"><ele>501.0</ele><time>2026-04-02T11:09:26.833Z</time></trkpt><trkpt lat="41.8883367" lon="13.0619917"><ele>498.33333333333337</ele><time>2026-04-02T11:09:27.834Z</time></trkpt><trkpt lat="41.888435" lon="13.06178"><ele>495.6666666666667</ele><time>2026-04-02T11:09:28.834Z</time></trkpt><trkpt lat="41.8885367" lon="13.0615433"><ele>493.0</ele><time>2026-04-02T11:09:29.833Z</time></trkpt><trkpt lat="41.88864" lon="13.0612783"><ele>493.0</ele><time>2026-04-02T11:09:30.833Z</time></trkpt><trkpt lat="41.8887317" lon="13.0610033"><ele>493.0</ele><time>2026-04-02T11:09:31.831Z</time></trkpt><trkpt lat="41.8888167" lon="13.0607267"><ele>493.0</ele><time>2026-04-02T11:09:32.833Z</time></trkpt><trkpt lat="41.8889017" lon="13.0604417"><ele>493.33333333333337</ele><time>2026-04-02T11:09:33.832Z</time></trkpt><trkpt lat="41.8889833" lon="13.0601567"><ele>493.66666666666663</ele><time>2026-04-02T11:09:34.831Z</time></trkpt><trkpt lat="41.88905" lon="13.0598833"><ele>494.0</ele><time>2026-04-02T11:09:35.83Z</time></trkpt><trkpt lat="41.8890967" lon="13.0596167"><ele>496.66666666666663</ele><time>2026-04-02T11:09:36.834Z</time></trkpt><trkpt lat="41.8891133" lon="13.0593533"><ele>499.33333333333337</ele><time>2026-04-02T11:09:37.833Z</time></trkpt><trkpt lat="41.8890983" lon="13.0591017"><ele>502.0</ele><time>2026-04-02T11:09:38.832Z</time></trkpt><trkpt lat="41.8890517" lon="13.058855"><ele>504.6666666666667</ele><time>2026-04-02T11:09:39.831Z</time></trkpt><trkpt lat="41.888985" lon="13.0586"><ele>507.33333333333337</ele><time>2026-04-02T11:09:40.831Z</time></trkpt><trkpt lat="41.888915" lon="13.058335"><ele>510.0</ele><time>2026-04-02T11:09:41.831Z</time></trkpt><trkpt lat="41.88884" lon="13.0580633"><ele>507.66666666666663</ele><time>2026-04-02T11:09:42.833Z</time></trkpt><trkpt lat="41.88877" lon="13.05779"><ele>505.3333333333333</ele><time>2026-04-02T11:09:43.832Z</time></trkpt><trkpt lat="41.8887" lon="13.0575317"><ele>503.0</ele><time>2026-04-02T11:09:44.832Z</time></trkpt><trkpt lat="41.888625" lon="13.0572867"><ele>503.0</ele><time>2026-04-02T11:09:45.833Z</time></trkpt><trkpt lat="41.888555" lon="13.057055"><ele>503.0</ele><time>2026-04-02T11:09:46.833Z</time></trkpt><trkpt lat="41.888505" lon="13.0568417"><ele>503.0</ele><time>2026-04-02T11:09:47.83Z</time></trkpt><trkpt lat="41.8884833" lon="13.0566333"><ele>497.3333333333333</ele><time>2026-04-02T11:09:48.83Z</time></trkpt><trkpt lat="41.8884933" lon="13.0564167"><ele>491.66666666666663</ele><time>2026-04-02T11:09:49.833Z</time></trkpt><trkpt lat="41.8885367" lon="13.0561983"><ele>486.0</ele><time>2026-04-02T11:09:50.832Z</time></trkpt><trkpt lat="41.8886117" lon="13.05599"><ele>488.66666666666663</ele><time>2026-04-02T11:09:51.832Z</time></trkpt><trkpt lat="41.8887083" lon="13.0557867"><ele>491.3333333333333</ele><time>2026-04-02T11:09:52.832Z</time></trkpt><trkpt lat="41.8888267" lon="13.055595"><ele>494.0</ele><time>2026-04-02T11:09:53.832Z</time></trkpt><trkpt lat="41.8889583" lon="13.0554183"><ele>494.0</ele><time>2026-04-02T11:09:54.832Z</time></trkpt><trkpt lat="41.889085" lon="13.05525"><ele>494.0</ele><time>2026-04-02T11:09:55.832Z</time></trkpt><trkpt lat="41.88918" lon="13.05507"><ele>494.0</ele><time>2026-04-02T11:09:56.832Z</time></trkpt><trkpt lat="41.88923" lon="13.05486"><ele>492.0</ele><time>2026-04-02T11:09:57.831Z</time></trkpt><trkpt lat="41.8892467" lon="13.0546433"><ele>490.0</ele><time>2026-04-02T11:09:58.83Z</time></trkpt><trkpt lat="41.8892317" lon="13.05444"><ele>488.0</ele><time>2026-04-02T11:09:59.832Z</time></trkpt><trkpt lat="41.8891967" lon="13.0542717"><ele>486.0</ele><time>2026-04-02T11:10:00.831Z</time></trkpt><trkpt lat="41.8891433" lon="13.054145"><ele>480.25</ele><time>2026-04-02T11:10:01.835Z</time></trkpt><trkpt lat="41.8890633" lon="13.0540517"><ele>474.5</ele><time>2026-04-02T11:10:02.832Z</time></trkpt><trkpt lat="41.8889567" lon="13.0539867"><ele>468.75</ele><time>2026-04-02T11:10:03.833Z</time></trkpt><trkpt lat="41.8888083" lon="13.0539767"><ele>463.0</ele><time>2026-04-02T11:10:04.832Z</time></trkpt><trkpt lat="41.8886383" lon="13.0540017"><ele>463.0</ele><time>2026-04-02T11:10:05.833Z</time></trkpt><trkpt lat="41.8884633" lon="13.0540533"><ele>463.0</ele><time>2026-04-02T11:10:06.834Z</time></trkpt><trkpt lat="41.8882933" lon="13.0541133"><ele>463.0</ele><time>2026-04-02T11:10:07.835Z</time></trkpt><trkpt lat="41.88814" lon="13.0541567"><ele>467.0</ele><time>2026-04-02T11:10:08.834Z</time></trkpt><trkpt lat="41.8879967" lon="13.05417"><ele>471.0</ele><time>2026-04-02T11:10:09.832Z</time></trkpt><trkpt lat="41.8878533" lon="13.0541467"><ele>475.0</ele><time>2026-04-02T11:10:10.832Z</time></trkpt><trkpt lat="41.8877183" lon="13.0540917"><ele>479.0</ele><time>2026-04-02T11:10:11.834Z</time></trkpt><trkpt lat="41.8875933" lon="13.0540267"><ele>482.0</ele><time>2026-04-02T11:10:12.833Z</time></trkpt><trkpt lat="41.8874817" lon="13.053965"><ele>485.0</ele><time>2026-04-02T11:10:13.831Z</time></trkpt><trkpt lat="41.8873783" lon="13.053915"><ele>488.0</ele><time>2026-04-02T11:10:14.835Z</time></trkpt><trkpt lat="41.8872833" lon="13.0538717"><ele>491.0</ele><time>2026-04-02T11:10:15.833Z</time></trkpt><trkpt lat="41.88719" lon="13.05382"><ele>494.0</ele><time>2026-04-02T11:10:16.833Z</time></trkpt><trkpt lat="41.8871" lon="13.0537467"><ele>494.0</ele><time>2026-04-02T11:10:17.829Z</time></trkpt><trkpt lat="41.88701" lon="13.0536583"><ele>494.0</ele><time>2026-04-02T11:10:18.833Z</time></trkpt><trkpt lat="41.8869217" lon="13.0535533"><ele>494.0</ele><time>2026-04-02T11:10:19.832Z</time></trkpt><trkpt lat="41.8868317" lon="13.05343"><ele>494.0</ele><time>2026-04-02T11:10:20.832Z</time></trkpt><trkpt lat="41.886735" lon="13.0532983"><ele>498.3333333333333</ele><time>2026-04-02T11:10:21.831Z</time></trkpt><trkpt lat="41.8866333" lon="13.0531517"><ele>502.66666666666663</ele><time>2026-04-02T11:10:22.83Z</time></trkpt><trkpt lat="41.8865317" lon="13.0529817"><ele>507.0</ele><time>2026-04-02T11:10:23.832Z</time></trkpt><trkpt lat="41.8864333" lon="13.0527783"><ele>507.0</ele><time>2026-04-02T11:10:24.833Z</time></trkpt><trkpt lat="41.8863267" lon="13.0525667"><ele>507.0</ele><time>2026-04-02T11:10:25.833Z</time></trkpt><trkpt lat="41.8862083" lon="13.05236"><ele>507.0</ele><time>2026-04-02T11:10:26.833Z</time></trkpt><trkpt lat="41.8860883" lon="13.0521617"><ele>504.33333333333337</ele><time>2026-04-02T11:10:27.831Z</time></trkpt><trkpt lat="41.8859867" lon="13.0519567"><ele>501.6666666666667</ele><time>2026-04-02T11:10:28.834Z</time></trkpt><trkpt lat="41.8859083" lon="13.0517567"><ele>499.0</ele><time>2026-04-02T11:10:29.83Z</time></trkpt><trkpt lat="41.8858633" lon="13.05157"><ele>498.75</ele><time>2026-04-02T11:10:30.833Z</time></trkpt><trkpt lat="41.88585" lon="13.05139"><ele>498.5</ele><time>2026-04-02T11:10:31.83Z</time></trkpt><trkpt lat="41.8858817" lon="13.05121"><ele>498.25</ele><time>2026-04-02T11:10:32.833Z</time></trkpt><trkpt lat="41.885945" lon="13.05104"><ele>498.0</ele><time>2026-04-02T11:10:33.832Z</time></trkpt><trkpt lat="41.8860367" lon="13.050865"><ele>500.75</ele><time>2026-04-02T11:10:34.834Z</time></trkpt><trkpt lat="41.886135" lon="13.0506933"><ele>503.5</ele><time>2026-04-02T11:10:35.833Z</time></trkpt><trkpt lat="41.886215" lon="13.050535"><ele>506.25</ele><time>2026-04-02T11:10:36.834Z</time></trkpt><trkpt lat="41.8862667" lon="13.05039"><ele>509.0</ele><time>2026-04-02T11:10:37.833Z</time></trkpt><trkpt lat="41.8862833" lon="13.05025"><ele>509.0</ele><time>2026-04-02T11:10:38.833Z</time></trkpt><trkpt lat="41.8862633" lon="13.0501083"><ele>509.0</ele><time>2026-04-02T11:10:39.833Z</time></trkpt><trkpt lat="41.8862017" lon="13.04998"><ele>509.0</ele><time>2026-04-02T11:10:40.834Z</time></trkpt><trkpt lat="41.8861017" lon="13.0498683"><ele>509.0</ele><time>2026-04-02T11:10:41.831Z</time></trkpt><trkpt lat="41.8859767" lon="13.0497667"><ele>507.0</ele><time>2026-04-02T11:10:42.832Z</time></trkpt><trkpt lat="41.88583" lon="13.0496667"><ele>505.0</ele><time>2026-04-02T11:10:43.833Z</time></trkpt><trkpt lat="41.885675" lon="13.0495617"><ele>503.0</ele><time>2026-04-02T11:10:44.833Z</time></trkpt><trkpt lat="41.8855133" lon="13.04945"><ele>503.0</ele><time>2026-04-02T11:10:45.832Z</time></trkpt><trkpt lat="41.8853517" lon="13.0493317"><ele>503.0</ele><time>2026-04-02T11:10:46.834Z</time></trkpt><trkpt lat="41.885195" lon="13.0492167"><ele>503.0</ele><time>2026-04-02T11:10:47.83Z</time></trkpt><trkpt lat="41.8850617" lon="13.049095"><ele>507.3333333333333</ele><time>2026-04-02T11:10:48.833Z</time></trkpt><trkpt lat="41.88496" lon="13.04895"><ele>511.66666666666663</ele><time>2026-04-02T11:10:49.832Z</time></trkpt><trkpt lat="41.884875" lon="13.0487767"><ele>516.0</ele><time>2026-04-02T11:10:50.832Z</time></trkpt><trkpt lat="41.8848067" lon="13.04859"><ele>516.0</ele><time>2026-04-02T11:10:51.831Z</time></trkpt><trkpt lat="41.88477" lon="13.04839"><ele>516.0</ele><time>2026-04-02T11:10:52.832Z</time></trkpt><trkpt lat="41.8847683" lon="13.04816"><ele>516.0</ele><time>2026-04-02T11:10:53.832Z</time></trkpt><trkpt lat="41.8847917" lon="13.0479217"><ele>520.6666666666666</ele><time>2026-04-02T11:10:54.831Z</time></trkpt><trkpt lat="41.88484" lon="13.04769"><ele>525.3333333333333</ele><time>2026-04-02T11:10:55.83Z</time></trkpt><trkpt lat="41.88491" lon="13.0474783"><ele>530.0</ele><time>2026-04-02T11:10:56.83Z</time></trkpt><trkpt lat="41.8849833" lon="13.0473067"><ele>532.75</ele><time>2026-04-02T11:10:57.832Z</time></trkpt><trkpt lat="41.88504" lon="13.04715"><ele>535.5</ele><time>2026-04-02T11:10:58.835Z</time></trkpt><trkpt lat="41.88506" lon="13.04699"><ele>538.25</ele><time>2026-04-02T11:10:59.829Z</time></trkpt><trkpt lat="41.8850433" lon="13.0468217"><ele>541.0</ele><time>2026-04-02T11:11:00.831Z</time></trkpt><trkpt lat="41.884995" lon="13.0466383"><ele>545.0</ele><time>2026-04-02T11:11:01.829Z</time></trkpt><trkpt lat="41.8849483" lon="13.0464583"><ele>549.0</ele><time>2026-04-02T11:11:02.832Z</time></trkpt><trkpt lat="41.8849283" lon="13.0463033"><ele>553.0</ele><time>2026-04-02T11:11:03.834Z</time></trkpt><trkpt lat="41.8849567" lon="13.0461633"><ele>557.0</ele><time>2026-04-02T11:11:04.83Z</time></trkpt><trkpt lat="41.88501" lon="13.0460217"><ele>557.0</ele><time>2026-04-02T11:11:05.832Z</time></trkpt><trkpt lat="41.88508" lon="13.045875"><ele>557.0</ele><time>2026-04-02T11:11:06.833Z</time></trkpt><trkpt lat="41.8851383" lon="13.0457117"><ele>557.0</ele><time>2026-04-02T11:11:07.832Z</time></trkpt><trkpt lat="41.8851917" lon="13.045555"><ele>557.0</ele><time>2026-04-02T11:11:08.832Z</time></trkpt><trkpt lat="41.8852483" lon="13.045415"><ele>554.2</ele><time>2026-04-02T11:11:09.832Z</time></trkpt><trkpt lat="41.8853183" lon="13.0452933"><ele>551.4000000000001</ele><time>2026-04-02T11:11:10.831Z</time></trkpt><trkpt lat="41.8853933" lon="13.0451883"><ele>548.5999999999999</ele><time>2026-04-02T11:11:11.831Z</time></trkpt><trkpt lat="41.8854717" lon="13.0450883"><ele>545.8</ele><time>2026-04-02T11:11:12.833Z</time></trkpt><trkpt lat="41.8855633" lon="13.04501"><ele>543.0</ele><time>2026-04-02T11:11:13.831Z</time></trkpt><trkpt lat="41.885665" lon="13.044945"><ele>543.0</ele><time>2026-04-02T11:11:14.834Z</time></trkpt><trkpt lat="41.8857633" lon="13.0448783"><ele>543.0</ele><time>2026-04-02T11:11:15.831Z</time></trkpt><trkpt lat="41.885855" lon="13.0447983"><ele>543.0</ele><time>2026-04-02T11:11:16.832Z</time></trkpt><trkpt lat="41.885935" lon="13.0447033"><ele>543.0</ele><time>2026-04-02T11:11:17.831Z</time></trkpt><trkpt lat="41.8859933" lon="13.0445933"><ele>543.0</ele><time>2026-04-02T11:11:18.831Z</time></trkpt><trkpt lat="41.8860317" lon="13.0444817"><ele>543.0</ele><time>2026-04-02T11:11:19.831Z</time></trkpt><trkpt lat="41.88605" lon="13.0443717"><ele>543.0</ele><time>2026-04-02T11:11:20.831Z</time></trkpt><trkpt lat="41.8860433" lon="13.04427"><ele>543.0</ele><time>2026-04-02T11:11:21.832Z</time></trkpt><trkpt lat="41.886" lon="13.0442"><ele>543.0</ele><time>2026-04-02T11:11:22.829Z</time></trkpt><trkpt lat="41.885925" lon="13.0441717"><ele>543.0</ele><time>2026-04-02T11:11:23.832Z</time></trkpt><trkpt lat="41.88582" lon="13.0441767"><ele>543.0</ele><time>2026-04-02T11:11:24.834Z</time></trkpt><trkpt lat="41.8857233" lon="13.0441533"><ele>538.8</ele><time>2026-04-02T11:11:25.833Z</time></trkpt><trkpt lat="41.8856367" lon="13.044105"><ele>534.5999999999999</ele><time>2026-04-02T11:11:26.831Z</time></trkpt><trkpt lat="41.8855383" lon="13.04406"><ele>530.4000000000001</ele><time>2026-04-02T11:11:27.832Z</time></trkpt><trkpt lat="41.8854417" lon="13.0440067"><ele>526.2</ele><time>2026-04-02T11:11:28.83Z</time></trkpt><trkpt lat="41.8853333" lon="13.0439633"><ele>522.0</ele><time>2026-04-02T11:11:29.832Z</time></trkpt><trkpt lat="41.8852233" lon="13.0439283"><ele>522.0</ele><time>2026-04-02T11:11:30.832Z</time></trkpt><trkpt lat="41.88511" lon="13.0439033"><ele>522.0</ele><time>2026-04-02T11:11:31.832Z</time></trkpt><trkpt lat="41.884995" lon="13.0438917"><ele>522.0</ele><time>2026-04-02T11:11:32.833Z</time></trkpt><trkpt lat="41.8848783" lon="13.0439083"><ele>522.0</ele><time>2026-04-02T11:11:33.832Z</time></trkpt><trkpt lat="41.8847633" lon="13.0439333"><ele>526.0</ele><time>2026-04-02T11:11:34.833Z</time></trkpt><trkpt lat="41.8846517" lon="13.0439667"><ele>530.0</ele><time>2026-04-02T11:11:35.833Z</time></trkpt><trkpt lat="41.88454" lon="13.043985"><ele>534.0</ele><time>2026-04-02T11:11:36.83Z</time></trkpt><trkpt lat="41.8844367" lon="13.043985"><ele>538.0</ele><time>2026-04-02T11:11:37.833Z</time></trkpt><trkpt lat="41.88434" lon="13.043955"><ele>542.0</ele><time>2026-04-02T11:11:38.834Z</time></trkpt><trkpt lat="41.8842533" lon="13.0439"><ele>547.5</ele><time>2026-04-02T11:11:39.832Z</time></trkpt><trkpt lat="41.8841983" lon="13.0438233"><ele>553.0</ele><time>2026-04-02T11:11:40.832Z</time></trkpt><trkpt lat="41.8841533" lon="13.0437483"><ele>558.5</ele><time>2026-04-02T11:11:41.832Z</time></trkpt><trkpt lat="41.884105" lon="13.0436917"><ele>564.0</ele><time>2026-04-02T11:11:42.833Z</time></trkpt><trkpt lat="41.8840083" lon="13.0436967"><ele>569.5</ele><time>2026-04-02T11:11:44.832Z</time></trkpt><trkpt lat="41.8840017" lon="13.0438483"><ele>575.0</ele><time>2026-04-02T11:11:46.832Z</time></trkpt><trkpt lat="41.8840267" lon="13.0439317"><ele>575.0</ele><time>2026-04-02T11:11:47.832Z</time></trkpt><trkpt lat="41.8840867" lon="13.044055"><ele>575.0</ele><time>2026-04-02T11:11:48.832Z</time></trkpt><trkpt lat="41.8842017" lon="13.0442117"><ele>575.0</ele><time>2026-04-02T11:11:49.832Z</time></trkpt><trkpt lat="41.88432" lon="13.04435"><ele>575.0</ele><time>2026-04-02T11:11:50.834Z</time></trkpt><trkpt lat="41.8844867" lon="13.04447"><ele>572.6</ele><time>2026-04-02T11:11:51.831Z</time></trkpt><trkpt lat="41.8846483" lon="13.044545"><ele>570.2</ele><time>2026-04-02T11:11:52.833Z</time></trkpt><trkpt lat="41.8847567" lon="13.044605"><ele>567.8</ele><time>2026-04-02T11:11:53.832Z</time></trkpt><trkpt lat="41.8848333" lon="13.04466"><ele>565.4</ele><time>2026-04-02T11:11:54.833Z</time></trkpt><trkpt lat="41.8848817" lon="13.0447183"><ele>563.0</ele><time>2026-04-02T11:11:55.833Z</time></trkpt><trkpt lat="41.88485" lon="13.0448"><ele>563.0</ele><time>2026-04-02T11:11:58.834Z</time></trkpt><trkpt lat="41.88477" lon="13.0447667"><ele>563.0</ele><time>2026-04-02T11:11:59.834Z</time></trkpt><trkpt lat="41.8846733" lon="13.0447183"><ele>563.0</ele><time>2026-04-02T11:12:00.833Z</time></trkpt><trkpt lat="41.8845333" lon="13.0446917"><ele>563.0</ele><time>2026-04-02T11:12:01.83Z</time></trkpt><trkpt lat="41.88436" lon="13.0446967"><ele>567.0</ele><time>2026-04-02T11:12:02.834Z</time></trkpt><trkpt lat="41.8842067" lon="13.0447117"><ele>571.0</ele><time>2026-04-02T11:12:03.833Z</time></trkpt><trkpt lat="41.8840483" lon="13.04472"><ele>575.0</ele><time>2026-04-02T11:12:04.834Z</time></trkpt><trkpt lat="41.8838767" lon="13.0447067"><ele>575.0</ele><time>2026-04-02T11:12:05.831Z</time></trkpt><trkpt lat="41.8836967" lon="13.0446717"><ele>575.0</ele><time>2026-04-02T11:12:06.833Z</time></trkpt><trkpt lat="41.8835167" lon="13.0446167"><ele>575.0</ele><time>2026-04-02T11:12:07.832Z</time></trkpt><trkpt lat="41.8833467" lon="13.0445467"><ele>582.3333333333333</ele><time>2026-04-02T11:12:08.832Z</time></trkpt><trkpt lat="41.883185" lon="13.0444683"><ele>589.6666666666666</ele><time>2026-04-02T11:12:09.835Z</time></trkpt><trkpt lat="41.8830383" lon="13.04442"><ele>597.0</ele><time>2026-04-02T11:12:10.834Z</time></trkpt><trkpt lat="41.8829033" lon="13.0444167"><ele>597.0</ele><time>2026-04-02T11:12:11.832Z</time></trkpt><trkpt lat="41.8827683" lon="13.0444783"><ele>597.0</ele><time>2026-04-02T11:12:12.835Z</time></trkpt><trkpt lat="41.8826283" lon="13.044555"><ele>597.0</ele><time>2026-04-02T11:12:13.835Z</time></trkpt><trkpt lat="41.8824817" lon="13.04462"><ele>597.0</ele><time>2026-04-02T11:12:14.832Z</time></trkpt><trkpt lat="41.88234" lon="13.0446583"><ele>599.6</ele><time>2026-04-02T11:12:15.835Z</time></trkpt><trkpt lat="41.8822217" lon="13.0446567"><ele>602.2</ele><time>2026-04-02T11:12:16.834Z</time></trkpt><trkpt lat="41.8821217" lon="13.0446067"><ele>604.8</ele><time>2026-04-02T11:12:17.831Z</time></trkpt><trkpt lat="41.8820483" lon="13.0445067"><ele>607.4</ele><time>2026-04-02T11:12:18.834Z</time></trkpt><trkpt lat="41.88201" lon="13.04436"><ele>610.0</ele><time>2026-04-02T11:12:19.831Z</time></trkpt><trkpt lat="41.8819683" lon="13.0442"><ele>611.5</ele><time>2026-04-02T11:12:20.833Z</time></trkpt><trkpt lat="41.8819117" lon="13.0440417"><ele>613.0</ele><time>2026-04-02T11:12:21.833Z</time></trkpt><trkpt lat="41.8818283" lon="13.0439083"><ele>614.5</ele><time>2026-04-02T11:12:22.832Z</time></trkpt><trkpt lat="41.8817217" lon="13.04381"><ele>616.0</ele><time>2026-04-02T11:12:23.832Z</time></trkpt><trkpt lat="41.8816133" lon="13.0437467"><ele>616.0</ele><time>2026-04-02T11:12:24.833Z</time></trkpt><trkpt lat="41.88152" lon="13.0436717"><ele>616.0</ele><time>2026-04-02T11:12:25.833Z</time></trkpt><trkpt lat="41.8814467" lon="13.0435533"><ele>616.0</ele><time>2026-04-02T11:12:26.832Z</time></trkpt><trkpt lat="41.8813983" lon="13.0433883"><ele>616.0</ele><time>2026-04-02T11:12:27.833Z</time></trkpt><trkpt lat="41.8813567" lon="13.0431933"><ele>615.3333333333334</ele><time>2026-04-02T11:12:28.833Z</time></trkpt><trkpt lat="41.8813117" lon="13.0430017"><ele>614.6666666666666</ele><time>2026-04-02T11:12:29.833Z</time></trkpt><trkpt lat="41.88129" lon="13.0428017"><ele>614.0</ele><time>2026-04-02T11:12:30.832Z</time></trkpt><trkpt lat="41.881285" lon="13.0425833"><ele>609.0</ele><time>2026-04-02T11:12:31.833Z</time></trkpt><trkpt lat="41.8812767" lon="13.0423717"><ele>604.0</ele><time>2026-04-02T11:12:32.835Z</time></trkpt><trkpt lat="41.8812517" lon="13.0421717"><ele>599.0</ele><time>2026-04-02T11:12:33.833Z</time></trkpt><trkpt lat="41.8812" lon="13.0419817"><ele>599.0</ele><time>2026-04-02T11:12:34.831Z</time></trkpt><trkpt lat="41.88111" lon="13.0418083"><ele>599.0</ele><time>2026-04-02T11:12:35.83Z</time></trkpt><trkpt lat="41.8809883" lon="13.0416717"><ele>599.0</ele><time>2026-04-02T11:12:36.832Z</time></trkpt><trkpt lat="41.880875" lon="13.041555"><ele>600.5</ele><time>2026-04-02T11:12:37.833Z</time></trkpt><trkpt lat="41.8807967" lon="13.0414183"><ele>602.0</ele><time>2026-04-02T11:12:38.832Z</time></trkpt><trkpt lat="41.880745" lon="13.0412483"><ele>603.5</ele><time>2026-04-02T11:12:39.832Z</time></trkpt><trkpt lat="41.880705" lon="13.041035"><ele>605.0</ele><time>2026-04-02T11:12:40.833Z</time></trkpt><trkpt lat="41.8806567" lon="13.0407917"><ele>605.0</ele><time>2026-04-02T11:12:41.833Z</time></trkpt><trkpt lat="41.8806" lon="13.04055"><ele>605.0</ele><time>2026-04-02T11:12:42.833Z</time></trkpt><trkpt lat="41.88054" lon="13.0403367"><ele>605.0</ele><time>2026-04-02T11:12:43.833Z</time></trkpt><trkpt lat="41.8804633" lon="13.0401483"><ele>605.0</ele><time>2026-04-02T11:12:44.834Z</time></trkpt><trkpt lat="41.8803633" lon="13.03998"><ele>605.0</ele><time>2026-04-02T11:12:45.835Z</time></trkpt><trkpt lat="41.8802433" lon="13.0398133"><ele>605.0</ele><time>2026-04-02T11:12:46.834Z</time></trkpt><trkpt lat="41.8801267" lon="13.0396333"><ele>611.3333333333333</ele><time>2026-04-02T11:12:47.832Z</time></trkpt><trkpt lat="41.8800217" lon="13.0394333"><ele>617.6666666666666</ele><time>2026-04-02T11:12:48.832Z</time></trkpt><trkpt lat="41.8799283" lon="13.0392067"><ele>624.0</ele><time>2026-04-02T11:12:49.832Z</time></trkpt><trkpt lat="41.87984" lon="13.038975"><ele>626.6666666666666</ele><time>2026-04-02T11:12:50.834Z</time></trkpt><trkpt lat="41.8797583" lon="13.0387333"><ele>629.3333333333333</ele><time>2026-04-02T11:12:51.833Z</time></trkpt><trkpt lat="41.8796883" lon="13.0384983"><ele>632.0</ele><time>2026-04-02T11:12:52.832Z</time></trkpt><trkpt lat="41.8796217" lon="13.0382783"><ele>632.6666666666666</ele><time>2026-04-02T11:12:53.832Z</time></trkpt><trkpt lat="41.8795483" lon="13.0380733"><ele>633.3333333333334</ele><time>2026-04-02T11:12:54.833Z</time></trkpt><trkpt lat="41.8794567" lon="13.037885"><ele>634.0</ele><time>2026-04-02T11:12:55.831Z</time></trkpt><trkpt lat="41.8793417" lon="13.0377233"><ele>635.5</ele><time>2026-04-02T11:12:56.833Z</time></trkpt><trkpt lat="41.87922" lon="13.03759"><ele>637.0</ele><time>2026-04-02T11:12:57.831Z</time></trkpt><trkpt lat="41.8790983" lon="13.0375"><ele>638.5</ele><time>2026-04-02T11:12:58.831Z</time></trkpt><trkpt lat="41.8789783" lon="13.0374683"><ele>640.0</ele><time>2026-04-02T11:12:59.832Z</time></trkpt><trkpt lat="41.87886" lon="13.0374967"><ele>640.0</ele><time>2026-04-02T11:13:00.832Z</time></trkpt><trkpt lat="41.8787583" lon="13.0375317"><ele>640.0</ele><time>2026-04-02T11:13:01.832Z</time></trkpt><trkpt lat="41.8786633" lon="13.0375233"><ele>640.0</ele><time>2026-04-02T11:13:02.832Z</time></trkpt><trkpt lat="41.87857" lon="13.0374683"><ele>640.0</ele><time>2026-04-02T11:13:03.832Z</time></trkpt><trkpt lat="41.8784833" lon="13.03737"><ele>640.0</ele><time>2026-04-02T11:13:04.833Z</time></trkpt><trkpt lat="41.8783883" lon="13.0372467"><ele>647.5</ele><time>2026-04-02T11:13:05.833Z</time></trkpt><trkpt lat="41.8782733" lon="13.037135"><ele>655.0</ele><time>2026-04-02T11:13:06.833Z</time></trkpt><trkpt lat="41.87815" lon="13.0370483"><ele>662.5</ele><time>2026-04-02T11:13:07.832Z</time></trkpt><trkpt lat="41.87803" lon="13.0370083"><ele>670.0</ele><time>2026-04-02T11:13:08.833Z</time></trkpt><trkpt lat="41.87792" lon="13.0370233"><ele>670.0</ele><time>2026-04-02T11:13:09.833Z</time></trkpt><trkpt lat="41.8778133" lon="13.0370967"><ele>670.0</ele><time>2026-04-02T11:13:10.832Z</time></trkpt><trkpt lat="41.8777267" lon="13.0372167"><ele>670.0</ele><time>2026-04-02T11:13:11.833Z</time></trkpt><trkpt lat="41.87767" lon="13.0373867"><ele>670.0</ele><time>2026-04-02T11:13:12.831Z</time></trkpt><trkpt lat="41.87761" lon="13.0375767"><ele>671.3333333333334</ele><time>2026-04-02T11:13:13.832Z</time></trkpt><trkpt lat="41.8775367" lon="13.0377683"><ele>672.6666666666666</ele><time>2026-04-02T11:13:14.833Z</time></trkpt><trkpt lat="41.8774583" lon="13.0379483"><ele>674.0</ele><time>2026-04-02T11:13:15.832Z</time></trkpt><trkpt lat="41.8774033" lon="13.0381333"><ele>669.6666666666666</ele><time>2026-04-02T11:13:16.832Z</time></trkpt><trkpt lat="41.8773733" lon="13.0383317"><ele>665.3333333333334</ele><time>2026-04-02T11:13:17.833Z</time></trkpt><trkpt lat="41.8773383" lon="13.0385367"><ele>661.0</ele><time>2026-04-02T11:13:18.832Z</time></trkpt><trkpt lat="41.8772883" lon="13.0387383"><ele>661.0</ele><time>2026-04-02T11:13:19.833Z</time></trkpt><trkpt lat="41.8772367" lon="13.038945"><ele>661.0</ele><time>2026-04-02T11:13:20.833Z</time></trkpt><trkpt lat="41.8772083" lon="13.0391417"><ele>661.0</ele><time>2026-04-02T11:13:21.832Z</time></trkpt><trkpt lat="41.8771983" lon="13.0393067"><ele>661.0</ele><time>2026-04-02T11:13:22.831Z</time></trkpt><trkpt lat="41.8771867" lon="13.0394167"><ele>661.0</ele><time>2026-04-02T11:13:23.832Z</time></trkpt><trkpt lat="41.8771283" lon="13.0394817"><ele>661.0</ele><time>2026-04-02T11:13:25.833Z</time></trkpt><trkpt lat="41.877055" lon="13.0393733"><ele>661.0</ele><time>2026-04-02T11:13:27.833Z</time></trkpt><trkpt lat="41.8770383" lon="13.03927"><ele>661.0</ele><time>2026-04-02T11:13:28.829Z</time></trkpt><trkpt lat="41.8770367" lon="13.0391433"><ele>661.0</ele><time>2026-04-02T11:13:29.835Z</time></trkpt><trkpt lat="41.8770567" lon="13.0389583"><ele>661.0</ele><time>2026-04-02T11:13:30.834Z</time></trkpt><trkpt lat="41.877075" lon="13.0387717"><ele>661.0</ele><time>2026-04-02T11:13:31.834Z</time></trkpt><trkpt lat="41.8770833" lon="13.038595"><ele>661.0</ele><time>2026-04-02T11:13:32.836Z</time></trkpt><trkpt lat="41.877075" lon="13.0384117"><ele>661.0</ele><time>2026-04-02T11:13:33.834Z</time></trkpt><trkpt lat="41.8770717" lon="13.0382333"><ele>664.25</ele><time>2026-04-02T11:13:34.833Z</time></trkpt><trkpt lat="41.8770967" lon="13.0380583"><ele>667.5</ele><time>2026-04-02T11:13:35.835Z</time></trkpt><trkpt lat="41.8771417" lon="13.0378767"><ele>670.75</ele><time>2026-04-02T11:13:36.83Z</time></trkpt><trkpt lat="41.877215" lon="13.0376917"><ele>674.0</ele><time>2026-04-02T11:13:37.832Z</time></trkpt><trkpt lat="41.8772917" lon="13.03749"><ele>679.6666666666666</ele><time>2026-04-02T11:13:38.836Z</time></trkpt><trkpt lat="41.8773567" lon="13.037275"><ele>685.3333333333334</ele><time>2026-04-02T11:13:39.832Z</time></trkpt><trkpt lat="41.8774067" lon="13.03706"><ele>691.0</ele><time>2026-04-02T11:13:40.835Z</time></trkpt><trkpt lat="41.877455" lon="13.0368667"><ele>691.0</ele><time>2026-04-02T11:13:41.835Z</time></trkpt><trkpt lat="41.8775083" lon="13.036705"><ele>691.0</ele><time>2026-04-02T11:13:42.833Z</time></trkpt><trkpt lat="41.8775933" lon="13.0365667"><ele>691.0</ele><time>2026-04-02T11:13:43.834Z</time></trkpt><trkpt lat="41.87769" lon="13.03643"><ele>691.0</ele><time>2026-04-02T11:13:44.837Z</time></trkpt><trkpt lat="41.8777967" lon="13.0362867"><ele>691.0</ele><time>2026-04-02T11:13:45.832Z</time></trkpt><trkpt lat="41.8779" lon="13.0361367"><ele>691.0</ele><time>2026-04-02T11:13:46.833Z</time></trkpt><trkpt lat="41.878" lon="13.0359817"><ele>691.0</ele><time>2026-04-02T11:13:47.833Z</time></trkpt><trkpt lat="41.8780867" lon="13.03583"><ele>691.0</ele><time>2026-04-02T11:13:48.832Z</time></trkpt><trkpt lat="41.87815" lon="13.0356783"><ele>690.8333333333334</ele><time>2026-04-02T11:13:49.832Z</time></trkpt><trkpt lat="41.878185" lon="13.0355383"><ele>690.6666666666667</ele><time>2026-04-02T11:13:50.835Z</time></trkpt><trkpt lat="41.8782" lon="13.0354167"><ele>690.5</ele><time>2026-04-02T11:13:51.831Z</time></trkpt><trkpt lat="41.8782033" lon="13.0353217"><ele>690.3333333333334</ele><time>2026-04-02T11:13:52.831Z</time></trkpt><trkpt lat="41.8781933" lon="13.03523"><ele>690.1666666666666</ele><time>2026-04-02T11:13:54.831Z</time></trkpt><trkpt lat="41.8781433" lon="13.03513"><ele>690.0</ele><time>2026-04-02T11:13:58.832Z</time></trkpt><trkpt lat="41.8780417" lon="13.035115"><ele>690.0</ele><time>2026-04-02T11:14:00.833Z</time></trkpt><trkpt lat="41.8779617" lon="13.0351317"><ele>690.0</ele><time>2026-04-02T11:14:01.832Z</time></trkpt><trkpt lat="41.877865" lon="13.0351533"><ele>690.0</ele><time>2026-04-02T11:14:02.833Z</time></trkpt><trkpt lat="41.8777517" lon="13.035195"><ele>690.0</ele><time>2026-04-02T11:14:03.833Z</time></trkpt><trkpt lat="41.87764" lon="13.03526"><ele>690.0</ele><time>2026-04-02T11:14:04.832Z</time></trkpt><trkpt lat="41.877535" lon="13.03536"><ele>684.0</ele><time>2026-04-02T11:14:05.831Z</time></trkpt><trkpt lat="41.87742" lon="13.035485"><ele>678.0</ele><time>2026-04-02T11:14:06.833Z</time></trkpt><trkpt lat="41.8772917" lon="13.0356067"><ele>672.0</ele><time>2026-04-02T11:14:07.833Z</time></trkpt><trkpt lat="41.8771533" lon="13.0357117"><ele>672.0</ele><time>2026-04-02T11:14:08.832Z</time></trkpt><trkpt lat="41.877005" lon="13.0357867"><ele>672.0</ele><time>2026-04-02T11:14:09.833Z</time></trkpt><trkpt lat="41.8768433" lon="13.0358367"><ele>672.0</ele><time>2026-04-02T11:14:10.834Z</time></trkpt><trkpt lat="41.8766717" lon="13.03586"><ele>676.0</ele><time>2026-04-02T11:14:11.833Z</time></trkpt><trkpt lat="41.876505" lon="13.0358583"><ele>680.0</ele><time>2026-04-02T11:14:12.833Z</time></trkpt><trkpt lat="41.8763417" lon="13.0358267"><ele>684.0</ele><time>2026-04-02T11:14:13.835Z</time></trkpt><trkpt lat="41.8761967" lon="13.0357717"><ele>676.6666666666666</ele><time>2026-04-02T11:14:14.833Z</time></trkpt><trkpt lat="41.8760683" lon="13.03569"><ele>669.3333333333333</ele><time>2026-04-02T11:14:15.833Z</time></trkpt><trkpt lat="41.87595" lon="13.03557"><ele>662.0</ele><time>2026-04-02T11:14:16.833Z</time></trkpt><trkpt lat="41.8758417" lon="13.0354117"><ele>662.0</ele><time>2026-04-02T11:14:17.834Z</time></trkpt><trkpt lat="41.8757283" lon="13.0352533"><ele>662.0</ele><time>2026-04-02T11:14:18.832Z</time></trkpt><trkpt lat="41.87561" lon="13.03512"><ele>662.0</ele><time>2026-04-02T11:14:19.834Z</time></trkpt><trkpt lat="41.8754983" lon="13.035025"><ele>662.0</ele><time>2026-04-02T11:14:20.835Z</time></trkpt><trkpt lat="41.8753883" lon="13.0349767"><ele>662.0</ele><time>2026-04-02T11:14:21.834Z</time></trkpt><trkpt lat="41.8752917" lon="13.03497"><ele>662.0</ele><time>2026-04-02T11:14:22.832Z</time></trkpt><trkpt lat="41.8752067" lon="13.03502"><ele>662.0</ele><time>2026-04-02T11:14:23.834Z</time></trkpt><trkpt lat="41.875135" lon="13.035135"><ele>662.0</ele><time>2026-04-02T11:14:24.831Z</time></trkpt><trkpt lat="41.8750833" lon="13.0352933"><ele>663.25</ele><time>2026-04-02T11:14:25.833Z</time></trkpt><trkpt lat="41.8750433" lon="13.03547"><ele>664.5</ele><time>2026-04-02T11:14:26.835Z</time></trkpt><trkpt lat="41.8750117" lon="13.0356433"><ele>665.75</ele><time>2026-04-02T11:14:27.833Z</time></trkpt><trkpt lat="41.8749767" lon="13.0357917"><ele>667.0</ele><time>2026-04-02T11:14:28.834Z</time></trkpt><trkpt lat="41.8749183" lon="13.0358933"><ele>667.0</ele><time>2026-04-02T11:14:29.832Z</time></trkpt><trkpt lat="41.8748383" lon="13.03594"><ele>667.0</ele><time>2026-04-02T11:14:30.834Z</time></trkpt><trkpt lat="41.874745" lon="13.0359417"><ele>667.0</ele><time>2026-04-02T11:14:31.834Z</time></trkpt><trkpt lat="41.8746483" lon="13.0358767"><ele>667.0</ele><time>2026-04-02T11:14:32.832Z</time></trkpt><trkpt lat="41.8745567" lon="13.0357733"><ele>667.0</ele><time>2026-04-02T11:14:33.834Z</time></trkpt><trkpt lat="41.874455" lon="13.0356633"><ele>663.25</ele><time>2026-04-02T11:14:34.831Z</time></trkpt><trkpt lat="41.874345" lon="13.035555"><ele>659.5</ele><time>2026-04-02T11:14:35.835Z</time></trkpt><trkpt lat="41.8742367" lon="13.0354567"><ele>655.75</ele><time>2026-04-02T11:14:36.834Z</time></trkpt><trkpt lat="41.87414" lon="13.035355"><ele>652.0</ele><time>2026-04-02T11:14:37.834Z</time></trkpt><trkpt lat="41.8740517" lon="13.03526"><ele>651.4000000000001</ele><time>2026-04-02T11:14:38.833Z</time></trkpt><trkpt lat="41.8739667" lon="13.03519"><ele>650.8000000000001</ele><time>2026-04-02T11:14:39.834Z</time></trkpt><trkpt lat="41.8738817" lon="13.0351567"><ele>650.2</ele><time>2026-04-02T11:14:40.831Z</time></trkpt><trkpt lat="41.8737883" lon="13.0351633"><ele>649.6</ele><time>2026-04-02T11:14:41.833Z</time></trkpt><trkpt lat="41.8737017" lon="13.03524"><ele>649.0</ele><time>2026-04-02T11:14:42.833Z</time></trkpt><trkpt lat="41.8736033" lon="13.0353"><ele>649.0</ele><time>2026-04-02T11:14:43.834Z</time></trkpt><trkpt lat="41.8734933" lon="13.0353367"><ele>649.0</ele><time>2026-04-02T11:14:44.835Z</time></trkpt><trkpt lat="41.8733817" lon="13.0353517"><ele>649.0</ele><time>2026-04-02T11:14:45.834Z</time></trkpt><trkpt lat="41.8732733" lon="13.0353717"><ele>649.0</ele><time>2026-04-02T11:14:46.833Z</time></trkpt><trkpt lat="41.8731683" lon="13.0354217"><ele>649.0</ele><time>2026-04-02T11:14:47.833Z</time></trkpt><trkpt lat="41.87307" lon="13.035505"><ele>647.0</ele><time>2026-04-02T11:14:48.832Z</time></trkpt><trkpt lat="41.87298" lon="13.0356117"><ele>645.0</ele><time>2026-04-02T11:14:49.832Z</time></trkpt><trkpt lat="41.8728967" lon="13.0357217"><ele>643.0</ele><time>2026-04-02T11:14:50.835Z</time></trkpt><trkpt lat="41.8728183" lon="13.03583"><ele>641.0</ele><time>2026-04-02T11:14:51.834Z</time></trkpt><trkpt lat="41.87273" lon="13.0359133"><ele>641.5</ele><time>2026-04-02T11:14:52.834Z</time></trkpt><trkpt lat="41.8726283" lon="13.03596"><ele>642.0</ele><time>2026-04-02T11:14:53.834Z</time></trkpt><trkpt lat="41.87252" lon="13.0359967"><ele>642.5</ele><time>2026-04-02T11:14:54.831Z</time></trkpt><trkpt lat="41.8724117" lon="13.0360517"><ele>643.0</ele><time>2026-04-02T11:14:55.831Z</time></trkpt><trkpt lat="41.87231" lon="13.0361417"><ele>643.0</ele><time>2026-04-02T11:14:56.834Z</time></trkpt><trkpt lat="41.8722233" lon="13.0362567"><ele>643.0</ele><time>2026-04-02T11:14:57.834Z</time></trkpt><trkpt lat="41.87216" lon="13.036385"><ele>643.0</ele><time>2026-04-02T11:14:58.833Z</time></trkpt><trkpt lat="41.8721333" lon="13.03653"><ele>643.0</ele><time>2026-04-02T11:14:59.834Z</time></trkpt><trkpt lat="41.8721267" lon="13.0366783"><ele>645.5999999999999</ele><time>2026-04-02T11:15:00.833Z</time></trkpt><trkpt lat="41.8721317" lon="13.03682"><ele>648.1999999999999</ele><time>2026-04-02T11:15:01.831Z</time></trkpt><trkpt lat="41.8721583" lon="13.0369567"><ele>650.8</ele><time>2026-04-02T11:15:02.833Z</time></trkpt><trkpt lat="41.872185" lon="13.037095"><ele>653.4</ele><time>2026-04-02T11:15:03.834Z</time></trkpt><trkpt lat="41.87219" lon="13.0372317"><ele>656.0</ele><time>2026-04-02T11:15:04.83Z</time></trkpt><trkpt lat="41.87217" lon="13.037355"><ele>656.0</ele><time>2026-04-02T11:15:05.833Z</time></trkpt><trkpt lat="41.8721367" lon="13.0374617"><ele>656.0</ele><time>2026-04-02T11:15:06.832Z</time></trkpt><trkpt lat="41.8721033" lon="13.03754"><ele>656.0</ele><time>2026-04-02T11:15:07.83Z</time></trkpt><trkpt lat="41.8720417" lon="13.0375783"><ele>656.0</ele><time>2026-04-02T11:15:08.832Z</time></trkpt><trkpt lat="41.8718833" lon="13.0374733"><ele>656.0</ele><time>2026-04-02T11:15:10.834Z</time></trkpt><trkpt lat="41.871775" lon="13.0373617"><ele>649.6666666666666</ele><time>2026-04-02T11:15:11.831Z</time></trkpt><trkpt lat="41.87166" lon="13.0371467"><ele>643.3333333333334</ele><time>2026-04-02T11:15:12.831Z</time></trkpt><trkpt lat="41.8715817" lon="13.0369833"><ele>637.0</ele><time>2026-04-02T11:15:13.83Z</time></trkpt><trkpt lat="41.8715167" lon="13.036825"><ele>637.0</ele><time>2026-04-02T11:15:14.832Z</time></trkpt><trkpt lat="41.8714433" lon="13.0366817"><ele>637.0</ele><time>2026-04-02T11:15:15.833Z</time></trkpt><trkpt lat="41.8713833" lon="13.0365367"><ele>637.0</ele><time>2026-04-02T11:15:16.83Z</time></trkpt><trkpt lat="41.87133" lon="13.036405"><ele>637.0</ele><time>2026-04-02T11:15:17.832Z</time></trkpt><trkpt lat="41.871275" lon="13.0362767"><ele>633.2</ele><time>2026-04-02T11:15:18.831Z</time></trkpt><trkpt lat="41.8712133" lon="13.03616"><ele>629.4000000000001</ele><time>2026-04-02T11:15:19.833Z</time></trkpt><trkpt lat="41.8711517" lon="13.0360517"><ele>625.5999999999999</ele><time>2026-04-02T11:15:20.83Z</time></trkpt><trkpt lat="41.871075" lon="13.0359633"><ele>621.8</ele><time>2026-04-02T11:15:21.831Z</time></trkpt><trkpt lat="41.8709883" lon="13.0358917"><ele>618.0</ele><time>2026-04-02T11:15:22.829Z</time></trkpt><trkpt lat="41.87089" lon="13.0358217"><ele>605.0</ele><time>2026-04-02T11:15:23.829Z</time></trkpt><trkpt lat="41.8707367" lon="13.0357467"><ele>592.0</ele><time>2026-04-02T11:15:25.298Z</time></trkpt><trkpt lat="41.8704367" lon="13.035725"><ele>598.5</ele><time>2026-04-02T11:15:26.25Z</time></trkpt><trkpt lat="41.8703467" lon="13.03581"><ele>605.0</ele><time>2026-04-02T11:15:27.33Z</time></trkpt><trkpt lat="41.8701733" lon="13.0359167"><ele>611.5</ele><time>2026-04-02T11:15:28.829Z</time></trkpt><trkpt lat="41.8700667" lon="13.0359417"><ele>618.0</ele><time>2026-04-02T11:15:29.83Z</time></trkpt><trkpt lat="41.8699767" lon="13.0359383"><ele>618.0</ele><time>2026-04-02T11:15:30.829Z</time></trkpt><trkpt lat="41.8698833" lon="13.035875"><ele>618.0</ele><time>2026-04-02T11:15:31.828Z</time></trkpt><trkpt lat="41.869835" lon="13.0357467"><ele>618.0</ele><time>2026-04-02T11:15:32.83Z</time></trkpt><trkpt lat="41.8698" lon="13.035605"><ele>618.0</ele><time>2026-04-02T11:15:33.831Z</time></trkpt><trkpt lat="41.8697733" lon="13.0354333"><ele>615.0</ele><time>2026-04-02T11:15:34.832Z</time></trkpt><trkpt lat="41.86974" lon="13.0352533"><ele>612.0</ele><time>2026-04-02T11:15:35.83Z</time></trkpt><trkpt lat="41.8697033" lon="13.0350683"><ele>609.0</ele><time>2026-04-02T11:15:36.829Z</time></trkpt><trkpt lat="41.86967" lon="13.0348833"><ele>606.0</ele><time>2026-04-02T11:15:37.833Z</time></trkpt><trkpt lat="41.869635" lon="13.0346967"><ele>605.25</ele><time>2026-04-02T11:15:38.832Z</time></trkpt><trkpt lat="41.869605" lon="13.0345117"><ele>604.5</ele><time>2026-04-02T11:15:39.829Z</time></trkpt><trkpt lat="41.869575" lon="13.0343317"><ele>603.75</ele><time>2026-04-02T11:15:40.83Z</time></trkpt><trkpt lat="41.8695433" lon="13.034165"><ele>603.0</ele><time>2026-04-02T11:15:41.832Z</time></trkpt><trkpt lat="41.8694967" lon="13.0340167"><ele>604.0</ele><time>2026-04-02T11:15:42.831Z</time></trkpt><trkpt lat="41.8694267" lon="13.0338983"><ele>605.0</ele><time>2026-04-02T11:15:43.831Z</time></trkpt><trkpt lat="41.8693283" lon="13.0338117"><ele>606.0</ele><time>2026-04-02T11:15:44.832Z</time></trkpt><trkpt lat="41.8692133" lon="13.0337433"><ele>607.0</ele><time>2026-04-02T11:15:45.832Z</time></trkpt><trkpt lat="41.869095" lon="13.033675"><ele>607.0</ele><time>2026-04-02T11:15:46.833Z</time></trkpt><trkpt lat="41.8689783" lon="13.03361"><ele>607.0</ele><time>2026-04-02T11:15:47.832Z</time></trkpt><trkpt lat="41.868865" lon="13.0335483"><ele>607.0</ele><time>2026-04-02T11:15:48.832Z</time></trkpt><trkpt lat="41.8687617" lon="13.033485"><ele>607.0</ele><time>2026-04-02T11:15:49.831Z</time></trkpt><trkpt lat="41.8686767" lon="13.0334033"><ele>606.0</ele><time>2026-04-02T11:15:50.832Z</time></trkpt><trkpt lat="41.8686133" lon="13.0332983"><ele>605.0</ele><time>2026-04-02T11:15:51.833Z</time></trkpt><trkpt lat="41.86856" lon="13.0331833"><ele>604.0</ele><time>2026-04-02T11:15:52.829Z</time></trkpt><trkpt lat="41.8685033" lon="13.0330617"><ele>603.0</ele><time>2026-04-02T11:15:53.832Z</time></trkpt><trkpt lat="41.8684333" lon="13.032945"><ele>602.0</ele><time>2026-04-02T11:15:54.83Z</time></trkpt><trkpt lat="41.8683467" lon="13.0328483"><ele>602.0</ele><time>2026-04-02T11:15:55.832Z</time></trkpt><trkpt lat="41.8682433" lon="13.0327867"><ele>602.0</ele><time>2026-04-02T11:15:56.833Z</time></trkpt><trkpt lat="41.86813" lon="13.0327533"><ele>602.0</ele><time>2026-04-02T11:15:57.833Z</time></trkpt><trkpt lat="41.8680067" lon="13.032735"><ele>602.0</ele><time>2026-04-02T11:15:58.832Z</time></trkpt><trkpt lat="41.867875" lon="13.0327267"><ele>602.0</ele><time>2026-04-02T11:15:59.832Z</time></trkpt><trkpt lat="41.8677383" lon="13.0327217"><ele>602.0</ele><time>2026-04-02T11:16:00.833Z</time></trkpt><trkpt lat="41.8675983" lon="13.0327283"><ele>602.0</ele><time>2026-04-02T11:16:01.831Z</time></trkpt><trkpt lat="41.8674633" lon="13.032745"><ele>602.0</ele><time>2026-04-02T11:16:02.832Z</time></trkpt><trkpt lat="41.8673317" lon="13.03277"><ele>601.75</ele><time>2026-04-02T11:16:03.833Z</time></trkpt><trkpt lat="41.8672033" lon="13.0327917"><ele>601.5</ele><time>2026-04-02T11:16:04.83Z</time></trkpt><trkpt lat="41.867075" lon="13.0328"><ele>601.25</ele><time>2026-04-02T11:16:05.832Z</time></trkpt><trkpt lat="41.8669467" lon="13.03279"><ele>601.0</ele><time>2026-04-02T11:16:06.833Z</time></trkpt><trkpt lat="41.866815" lon="13.0327583"><ele>598.0</ele><time>2026-04-02T11:16:07.832Z</time></trkpt><trkpt lat="41.86668" lon="13.032715"><ele>595.0</ele><time>2026-04-02T11:16:08.833Z</time></trkpt><trkpt lat="41.8665467" lon="13.03267"><ele>592.0</ele><time>2026-04-02T11:16:09.832Z</time></trkpt><trkpt lat="41.8664117" lon="13.0326317"><ele>589.0</ele><time>2026-04-02T11:16:10.832Z</time></trkpt><trkpt lat="41.8662767" lon="13.0326167"><ele>589.0</ele><time>2026-04-02T11:16:11.83Z</time></trkpt><trkpt lat="41.8661383" lon="13.0326283"><ele>589.0</ele><time>2026-04-02T11:16:12.832Z</time></trkpt><trkpt lat="41.8660033" lon="13.032645"><ele>589.0</ele><time>2026-04-02T11:16:13.831Z</time></trkpt><trkpt lat="41.8658717" lon="13.0326517"><ele>589.0</ele><time>2026-04-02T11:16:14.831Z</time></trkpt><trkpt lat="41.8657467" lon="13.0326433"><ele>585.75</ele><time>2026-04-02T11:16:15.831Z</time></trkpt><trkpt lat="41.8656283" lon="13.0325967"><ele>582.5</ele><time>2026-04-02T11:16:16.829Z</time></trkpt><trkpt lat="41.8655167" lon="13.0325217"><ele>579.25</ele><time>2026-04-02T11:16:17.832Z</time></trkpt><trkpt lat="41.8654117" lon="13.032415"><ele>576.0</ele><time>2026-04-02T11:16:18.83Z</time></trkpt><trkpt lat="41.8653117" lon="13.0323117"><ele>575.6</ele><time>2026-04-02T11:16:19.833Z</time></trkpt><trkpt lat="41.8652233" lon="13.032225"><ele>575.2</ele><time>2026-04-02T11:16:20.833Z</time></trkpt><trkpt lat="41.865135" lon="13.03216"><ele>574.8</ele><time>2026-04-02T11:16:21.829Z</time></trkpt><trkpt lat="41.8650383" lon="13.0321317"><ele>574.4</ele><time>2026-04-02T11:16:22.83Z</time></trkpt><trkpt lat="41.8649433" lon="13.03214"><ele>574.0</ele><time>2026-04-02T11:16:23.831Z</time></trkpt><trkpt lat="41.8648733" lon="13.0321967"><ele>571.4</ele><time>2026-04-02T11:16:24.832Z</time></trkpt><trkpt lat="41.86483" lon="13.0322933"><ele>568.8</ele><time>2026-04-02T11:16:25.831Z</time></trkpt><trkpt lat="41.864845" lon="13.0324"><ele>566.2</ele><time>2026-04-02T11:16:26.833Z</time></trkpt><trkpt lat="41.8648633" lon="13.0324967"><ele>563.6</ele><time>2026-04-02T11:16:27.832Z</time></trkpt><trkpt lat="41.8649583" lon="13.0326417"><ele>561.0</ele><time>2026-04-02T11:16:28.832Z</time></trkpt><trkpt lat="41.8650917" lon="13.0327583"><ele>564.75</ele><time>2026-04-02T11:16:29.833Z</time></trkpt><trkpt lat="41.8651917" lon="13.0328817"><ele>568.5</ele><time>2026-04-02T11:16:30.831Z</time></trkpt><trkpt lat="41.8652733" lon="13.0330017"><ele>572.25</ele><time>2026-04-02T11:16:31.832Z</time></trkpt><trkpt lat="41.8653583" lon="13.03311"><ele>576.0</ele><time>2026-04-02T11:16:32.83Z</time></trkpt><trkpt lat="41.8654417" lon="13.0332117"><ele>576.0</ele><time>2026-04-02T11:16:33.832Z</time></trkpt><trkpt lat="41.8655317" lon="13.0332983"><ele>576.0</ele><time>2026-04-02T11:16:34.832Z</time></trkpt><trkpt lat="41.8656283" lon="13.033365"><ele>576.0</ele><time>2026-04-02T11:16:35.833Z</time></trkpt><trkpt lat="41.8657283" lon="13.0334167"><ele>576.0</ele><time>2026-04-02T11:16:36.832Z</time></trkpt><trkpt lat="41.8658333" lon="13.033465"><ele>576.0</ele><time>2026-04-02T11:16:37.83Z</time></trkpt><trkpt lat="41.8659417" lon="13.0335183"><ele>573.75</ele><time>2026-04-02T11:16:38.834Z</time></trkpt><trkpt lat="41.8660533" lon="13.0335883"><ele>571.5</ele><time>2026-04-02T11:16:39.835Z</time></trkpt><trkpt lat="41.8661717" lon="13.0336633"><ele>569.25</ele><time>2026-04-02T11:16:40.831Z</time></trkpt><trkpt lat="41.86628" lon="13.0337467"><ele>567.0</ele><time>2026-04-02T11:16:41.83Z</time></trkpt><trkpt lat="41.8663833" lon="13.033835"><ele>567.0</ele><time>2026-04-02T11:16:42.832Z</time></trkpt><trkpt lat="41.86648" lon="13.0339217"><ele>567.0</ele><time>2026-04-02T11:16:43.831Z</time></trkpt><trkpt lat="41.8665733" lon="13.0340067"><ele>567.0</ele><time>2026-04-02T11:16:44.831Z</time></trkpt><trkpt lat="41.8666617" lon="13.0340933"><ele>567.0</ele><time>2026-04-02T11:16:45.832Z</time></trkpt><trkpt lat="41.8667417" lon="13.0341833"><ele>567.0</ele><time>2026-04-02T11:16:46.833Z</time></trkpt><trkpt lat="41.8668133" lon="13.034275"><ele>566.5</ele><time>2026-04-02T11:16:47.833Z</time></trkpt><trkpt lat="41.8668783" lon="13.0343617"><ele>566.0</ele><time>2026-04-02T11:16:48.832Z</time></trkpt><trkpt lat="41.86692" lon="13.0344517"><ele>565.5</ele><time>2026-04-02T11:16:49.832Z</time></trkpt><trkpt lat="41.8669383" lon="13.0345417"><ele>565.0</ele><time>2026-04-02T11:16:50.834Z</time></trkpt><trkpt lat="41.86693" lon="13.0346883"><ele>564.5</ele><time>2026-04-02T11:16:52.832Z</time></trkpt><trkpt lat="41.8668717" lon="13.0347383"><ele>564.0</ele><time>2026-04-02T11:16:53.832Z</time></trkpt><trkpt lat="41.8667717" lon="13.0347733"><ele>561.5</ele><time>2026-04-02T11:16:54.833Z</time></trkpt><trkpt lat="41.86665" lon="13.0348017"><ele>559.0</ele><time>2026-04-02T11:16:55.833Z</time></trkpt><trkpt lat="41.8665233" lon="13.0348367"><ele>556.5</ele><time>2026-04-02T11:16:56.831Z</time></trkpt><trkpt lat="41.8663883" lon="13.0348767"><ele>554.0</ele><time>2026-04-02T11:16:57.831Z</time></trkpt><trkpt lat="41.8662533" lon="13.034925"><ele>555.0</ele><time>2026-04-02T11:16:58.833Z</time></trkpt><trkpt lat="41.8661317" lon="13.0349833"><ele>556.0</ele><time>2026-04-02T11:16:59.832Z</time></trkpt><trkpt lat="41.866025" lon="13.0350583"><ele>557.0</ele><time>2026-04-02T11:17:00.832Z</time></trkpt><trkpt lat="41.86593" lon="13.0351483"><ele>558.0</ele><time>2026-04-02T11:17:01.832Z</time></trkpt><trkpt lat="41.8658483" lon="13.0352567"><ele>554.0</ele><time>2026-04-02T11:17:02.832Z</time></trkpt><trkpt lat="41.86579" lon="13.035375"><ele>550.0</ele><time>2026-04-02T11:17:03.83Z</time></trkpt><trkpt lat="41.8657367" lon="13.0354883"><ele>546.0</ele><time>2026-04-02T11:17:04.833Z</time></trkpt><trkpt lat="41.86567" lon="13.03558"><ele>542.0</ele><time>2026-04-02T11:17:05.833Z</time></trkpt><trkpt lat="41.865585" lon="13.0356283"><ele>538.0</ele><time>2026-04-02T11:17:06.832Z</time></trkpt><trkpt lat="41.8654983" lon="13.0356383"><ele>538.0</ele><time>2026-04-02T11:17:07.833Z</time></trkpt><trkpt lat="41.8654067" lon="13.0356233"><ele>538.0</ele><time>2026-04-02T11:17:08.833Z</time></trkpt><trkpt lat="41.8653083" lon="13.0355533"><ele>538.0</ele><time>2026-04-02T11:17:09.832Z</time></trkpt><trkpt lat="41.86521" lon="13.0355"><ele>538.0</ele><time>2026-04-02T11:17:10.833Z</time></trkpt><trkpt lat="41.8651067" lon="13.0354617"><ele>538.0</ele><time>2026-04-02T11:17:11.833Z</time></trkpt><trkpt lat="41.8649983" lon="13.0354483"><ele>536.8</ele><time>2026-04-02T11:17:12.833Z</time></trkpt><trkpt lat="41.8648917" lon="13.0354383"><ele>535.5999999999999</ele><time>2026-04-02T11:17:13.833Z</time></trkpt><trkpt lat="41.8647933" lon="13.035435"><ele>534.4000000000001</ele><time>2026-04-02T11:17:14.831Z</time></trkpt><trkpt lat="41.8647" lon="13.03543"><ele>533.2</ele><time>2026-04-02T11:17:15.835Z</time></trkpt><trkpt lat="41.8646067" lon="13.035425"><ele>532.0</ele><time>2026-04-02T11:17:16.834Z</time></trkpt><trkpt lat="41.8645167" lon="13.03542"><ele>532.0</ele><time>2026-04-02T11:17:17.832Z</time></trkpt><trkpt lat="41.8644317" lon="13.035415"><ele>532.0</ele><time>2026-04-02T11:17:18.833Z</time></trkpt><trkpt lat="41.8643533" lon="13.035415"><ele>532.0</ele><time>2026-04-02T11:17:19.832Z</time></trkpt><trkpt lat="41.8642817" lon="13.0354267"><ele>532.0</ele><time>2026-04-02T11:17:20.833Z</time></trkpt><trkpt lat="41.8642167" lon="13.0354433"><ele>532.0</ele><time>2026-04-02T11:17:21.832Z</time></trkpt><trkpt lat="41.8641167" lon="13.035485"><ele>532.0</ele><time>2026-04-02T11:17:23.832Z</time></trkpt><trkpt lat="41.8640517" lon="13.035485"><ele>530.8571428571429</ele><time>2026-04-02T11:17:25.832Z</time></trkpt><trkpt lat="41.8639767" lon="13.03549"><ele>529.7142857142858</ele><time>2026-04-02T11:17:29.832Z</time></trkpt><trkpt lat="41.8639967" lon="13.0353717"><ele>528.5714285714286</ele><time>2026-04-02T11:20:16.832Z</time></trkpt><trkpt lat="41.86401" lon="13.0352867"><ele>527.4285714285714</ele><time>2026-04-02T11:20:36.831Z</time></trkpt><trkpt lat="41.8640117" lon="13.0352"><ele>526.2857142857143</ele><time>2026-04-02T11:20:39.833Z</time></trkpt><trkpt lat="41.8639783" lon="13.0351267"><ele>525.1428571428571</ele><time>2026-04-02T11:20:42.832Z</time></trkpt><trkpt lat="41.8639583" lon="13.035045"><ele>524.0</ele><time>2026-04-02T11:20:45.83Z</time></trkpt><trkpt lat="41.8639233" lon="13.03494"><ele>524.0</ele><time>2026-04-02T11:20:48.83Z</time></trkpt><trkpt lat="41.864005" lon="13.034925"><ele>524.0</ele><time>2026-04-02T11:20:53.832Z</time></trkpt><trkpt lat="41.8641533" lon="13.0350683"><ele>524.0</ele><time>2026-04-02T11:20:57.834Z</time></trkpt><trkpt lat="41.8642517" lon="13.0350883"><ele>524.0</ele><time>2026-04-02T11:21:03.832Z</time></trkpt><trkpt lat="41.8643183" lon="13.0350583"><ele>524.0</ele><time>2026-04-02T11:21:05.83Z</time></trkpt><trkpt lat="41.8642533" lon="13.0351783"><ele>523.75</ele><time>2026-04-02T11:21:07.83Z</time></trkpt><trkpt lat="41.8641733" lon="13.0352467"><ele>523.5</ele><time>2026-04-02T11:21:10.831Z</time></trkpt><trkpt lat="41.86407" lon="13.0353233"><ele>523.25</ele><time>2026-04-02T11:21:16.832Z</time></trkpt><trkpt lat="41.86405" lon="13.03514"><ele>523.0</ele><time>2026-04-02T11:22:13.831Z</time></trkpt><trkpt lat="41.8641841" lon="13.0353631"><ele>523.0</ele><time>2026-04-02T11:22:14.83Z</time></trkpt><trkpt lat="41.8642361" lon="13.0352444"><ele>523.0</ele><time>2026-04-02T11:22:15.832Z</time></trkpt><trkpt lat="41.8642647" lon="13.0351602"><ele>523.0</ele><time>2026-04-02T11:22:16.83Z</time></trkpt><trkpt lat="41.8642469" lon="13.0350514"><ele>523.0</ele><time>2026-04-02T11:22:17.831Z</time></trkpt><trkpt lat="41.8641893" lon="13.034952"><ele>523.0</ele><time>2026-04-02T11:22:18.83Z</time></trkpt><trkpt lat="41.8641124" lon="13.0348685"><ele>523.0</ele><time>2026-04-02T11:22:19.832Z</time></trkpt><trkpt lat="41.8640185" lon="13.0348364"><ele>523.0</ele><time>2026-04-02T11:22:21.829Z</time></trkpt><trkpt lat="41.8639881" lon="13.0349135"><ele>523.0</ele><time>2026-04-02T11:22:31.829Z</time></trkpt><trkpt lat="41.8639941" lon="13.0350541"><ele>523.0</ele><time>2026-04-02T11:22:34.829Z</time></trkpt><trkpt lat="41.8639879" lon="13.0351431"><ele>523.0</ele><time>2026-04-02T11:22:35.829Z</time></trkpt><trkpt lat="41.8640135" lon="13.0352342"><ele>523.0</ele><time>2026-04-02T11:22:37.83Z</time></trkpt><trkpt lat="41.8639014" lon="13.0353802"><ele>523.0</ele><time>2026-04-02T11:22:45.83Z</time></trkpt><trkpt lat="41.863912" lon="13.0355628"><ele>523.0</ele><time>2026-04-02T11:23:03.828Z</time></trkpt><trkpt lat="41.8638934" lon="13.035646"><ele>523.0</ele><time>2026-04-02T11:23:17.83Z</time></trkpt><trkpt lat="41.8638967" lon="13.0357906"><ele>523.0</ele><time>2026-04-02T11:24:37.829Z</time></trkpt><trkpt lat="41.8638856" lon="13.0358928"><ele>523.0</ele><time>2026-04-02T11:25:09.83Z</time></trkpt><trkpt lat="41.8638224" lon="13.0358969"><ele>523.0</ele><time>2026-04-02T11:25:22.831Z</time></trkpt><trkpt lat="41.8638574" lon="13.0358179"><ele>522.9999999999999</ele><time>2026-04-02T11:25:30.832Z</time></trkpt><trkpt lat="41.8638678" lon="13.0357092"><ele>523.0</ele><time>2026-04-02T11:25:42.829Z</time></trkpt><trkpt lat="41.8638048" lon="13.0357494"><ele>523.0</ele><time>2026-04-02T11:25:46.831Z</time></trkpt><trkpt lat="41.8638648" lon="13.0357213"><ele>523.0</ele><time>2026-04-02T11:26:49.83Z</time></trkpt><trkpt lat="41.8638949" lon="13.0356374"><ele>523.0</ele><time>2026-04-02T11:26:53.832Z</time></trkpt><trkpt lat="41.8639366" lon="13.0355738"><ele>522.9999999999999</ele><time>2026-04-02T11:29:08.834Z</time></trkpt><trkpt lat="41.8639927" lon="13.0354956"><ele>523.0</ele><time>2026-04-02T11:29:12.834Z</time></trkpt><trkpt lat="41.8639902" lon="13.0354098"><ele>522.9999999999999</ele><time>2026-04-02T11:31:15.828Z</time></trkpt><trkpt lat="41.8639654" lon="13.0355157"><ele>523.0</ele><time>2026-04-02T11:31:23.832Z</time></trkpt><trkpt lat="41.8640189" lon="13.0355832"><ele>523.0</ele><time>2026-04-02T11:31:36.834Z</time></trkpt><trkpt lat="41.8640101" lon="13.0356802"><ele>523.0</ele><time>2026-04-02T11:31:41.829Z</time></trkpt><trkpt lat="41.8639598" lon="13.0355994"><ele>523.0</ele><time>2026-04-02T11:31:57.829Z</time></trkpt><trkpt lat="41.8639073" lon="13.0355367"><ele>522.9999999999999</ele><time>2026-04-02T11:33:37.83Z</time></trkpt><trkpt lat="41.8639717" lon="13.0355553"><ele>523.0</ele><time>2026-04-02T11:43:40.828Z</time></trkpt><trkpt lat="41.8640311" lon="13.0354962"><ele>523.0</ele><time>2026-04-02T12:00:13.832Z</time></trkpt><trkpt lat="41.8640908" lon="13.0354526"><ele>523.0</ele><time>2026-04-02T12:00:17.833Z</time></trkpt><trkpt lat="41.8640731" lon="13.0355714"><ele>523.0</ele><time>2026-04-02T12:00:21.835Z</time></trkpt><trkpt lat="41.8639937" lon="13.0356522"><ele>523.0</ele><time>2026-04-02T12:00:23.833Z</time></trkpt><trkpt lat="41.8638852" lon="13.0357486"><ele>523.0</ele><time>2026-04-02T12:00:25.833Z</time></trkpt><trkpt lat="41.8638237" lon="13.0357722"><ele>523.0</ele><time>2026-04-02T12:00:26.835Z</time></trkpt><trkpt lat="41.8637529" lon="13.0357706"><ele>523.0</ele><time>2026-04-02T12:00:27.833Z</time></trkpt><trkpt lat="41.8636711" lon="13.0357476"><ele>523.0</ele><time>2026-04-02T12:00:28.831Z</time></trkpt><trkpt lat="41.8635883" lon="13.0357028"><ele>523.0</ele><time>2026-04-02T12:00:29.83Z</time></trkpt><trkpt lat="41.8635007" lon="13.0356444"><ele>523.0</ele><time>2026-04-02T12:00:30.831Z</time></trkpt><trkpt lat="41.8634073" lon="13.035579"><ele>523.0</ele><time>2026-04-02T12:00:31.832Z</time></trkpt><trkpt lat="41.863317" lon="13.0355163"><ele>523.6</ele><time>2026-04-02T12:00:32.832Z</time></trkpt><trkpt lat="41.8632268" lon="13.0354531"><ele>524.1999999999999</ele><time>2026-04-02T12:00:33.833Z</time></trkpt><trkpt lat="41.8631354" lon="13.0353943"><ele>524.8</ele><time>2026-04-02T12:00:34.831Z</time></trkpt><trkpt lat="41.8630377" lon="13.0353372"><ele>525.4</ele><time>2026-04-02T12:00:35.833Z</time></trkpt><trkpt lat="41.8629364" lon="13.0352952"><ele>526.0</ele><time>2026-04-02T12:00:36.833Z</time></trkpt><trkpt lat="41.8628312" lon="13.035274"><ele>526.0</ele><time>2026-04-02T12:00:37.833Z</time></trkpt><trkpt lat="41.8627182" lon="13.0352715"><ele>526.0</ele><time>2026-04-02T12:00:38.833Z</time></trkpt><trkpt lat="41.8625933" lon="13.0352945"><ele>526.0</ele><time>2026-04-02T12:00:39.832Z</time></trkpt><trkpt lat="41.862464" lon="13.0353249"><ele>526.0</ele><time>2026-04-02T12:00:40.834Z</time></trkpt><trkpt lat="41.8623324" lon="13.0353624"><ele>528.25</ele><time>2026-04-02T12:00:41.831Z</time></trkpt><trkpt lat="41.8622033" lon="13.0353923"><ele>530.5</ele><time>2026-04-02T12:00:42.833Z</time></trkpt><trkpt lat="41.8620722" lon="13.0354233"><ele>532.75</ele><time>2026-04-02T12:00:43.833Z</time></trkpt><trkpt lat="41.8619432" lon="13.0354552"><ele>535.0</ele><time>2026-04-02T12:00:44.833Z</time></trkpt><trkpt lat="41.8618164" lon="13.0354855"><ele>529.5</ele><time>2026-04-02T12:00:45.831Z</time></trkpt><trkpt lat="41.8616928" lon="13.0355169"><ele>524.0</ele><time>2026-04-02T12:00:46.832Z</time></trkpt><trkpt lat="41.8599333" lon="13.0355283"><ele>524.0</ele><time>2026-04-02T12:00:59.828Z</time></trkpt><trkpt lat="41.85986" lon="13.0354917"><ele>524.0</ele><time>2026-04-02T12:01:00.832Z</time></trkpt><trkpt lat="41.8597983" lon="13.0354617"><ele>524.0</ele><time>2026-04-02T12:01:02.833Z</time></trkpt><trkpt lat="41.85973" lon="13.0354417"><ele>524.0</ele><time>2026-04-02T12:01:05.832Z</time></trkpt><trkpt lat="41.8596033" lon="13.03551"><ele>524.0</ele><time>2026-04-02T12:01:07.831Z</time></trkpt><trkpt lat="41.8595217" lon="13.0355833"><ele>524.0</ele><time>2026-04-02T12:01:08.831Z</time></trkpt><trkpt lat="41.8594433" lon="13.0356617"><ele>524.0</ele><time>2026-04-02T12:01:09.832Z</time></trkpt><trkpt lat="41.859365" lon="13.0357517"><ele>524.0</ele><time>2026-04-02T12:01:10.832Z</time></trkpt><trkpt lat="41.859285" lon="13.0358433"><ele>524.0</ele><time>2026-04-02T12:01:11.832Z</time></trkpt><trkpt lat="41.8591983" lon="13.0359317"><ele>524.0</ele><time>2026-04-02T12:01:12.833Z</time></trkpt><trkpt lat="41.8591167" lon="13.0360383"><ele>524.0</ele><time>2026-04-02T12:01:13.833Z</time></trkpt><trkpt lat="41.859045" lon="13.03616"><ele>521.75</ele><time>2026-04-02T12:01:14.831Z</time></trkpt><trkpt lat="41.8589817" lon="13.0362933"><ele>519.5</ele><time>2026-04-02T12:01:15.833Z</time></trkpt><trkpt lat="41.858945" lon="13.0364533"><ele>517.25</ele><time>2026-04-02T12:01:16.834Z</time></trkpt><trkpt lat="41.8589233" lon="13.0366133"><ele>515.0</ele><time>2026-04-02T12:01:17.832Z</time></trkpt><trkpt lat="41.8588967" lon="13.0367617"><ele>515.0</ele><time>2026-04-02T12:01:18.832Z</time></trkpt><trkpt lat="41.8588517" lon="13.0369017"><ele>515.0</ele><time>2026-04-02T12:01:19.832Z</time></trkpt><trkpt lat="41.858805" lon="13.0370367"><ele>515.0</ele><time>2026-04-02T12:01:20.832Z</time></trkpt><trkpt lat="41.85875" lon="13.03717"><ele>515.0</ele><time>2026-04-02T12:01:21.831Z</time></trkpt><trkpt lat="41.858695" lon="13.0373067"><ele>515.0</ele><time>2026-04-02T12:01:22.833Z</time></trkpt><trkpt lat="41.858635" lon="13.037435"><ele>515.0</ele><time>2026-04-02T12:01:23.832Z</time></trkpt><trkpt lat="41.8585817" lon="13.037555"><ele>515.0</ele><time>2026-04-02T12:01:24.833Z</time></trkpt><trkpt lat="41.858525" lon="13.037675"><ele>515.0</ele><time>2026-04-02T12:01:25.834Z</time></trkpt><trkpt lat="41.85846" lon="13.0377683"><ele>515.0</ele><time>2026-04-02T12:01:26.833Z</time></trkpt><trkpt lat="41.8584" lon="13.03785"><ele>513.0</ele><time>2026-04-02T12:01:27.833Z</time></trkpt><trkpt lat="41.8583217" lon="13.0379133"><ele>511.0</ele><time>2026-04-02T12:01:28.831Z</time></trkpt><trkpt lat="41.8582267" lon="13.0379617"><ele>509.0</ele><time>2026-04-02T12:01:29.832Z</time></trkpt><trkpt lat="41.8581183" lon="13.037995"><ele>507.0</ele><time>2026-04-02T12:01:30.832Z</time></trkpt><trkpt lat="41.8580133" lon="13.0380283"><ele>505.0</ele><time>2026-04-02T12:01:31.832Z</time></trkpt><trkpt lat="41.85791" lon="13.03806"><ele>505.0</ele><time>2026-04-02T12:01:32.833Z</time></trkpt><trkpt lat="41.8578117" lon="13.0380933"><ele>505.0</ele><time>2026-04-02T12:01:33.833Z</time></trkpt><trkpt lat="41.8577117" lon="13.0381283"><ele>505.0</ele><time>2026-04-02T12:01:34.832Z</time></trkpt><trkpt lat="41.85761" lon="13.03816"><ele>505.0</ele><time>2026-04-02T12:01:35.832Z</time></trkpt><trkpt lat="41.8575" lon="13.03821"><ele>505.0</ele><time>2026-04-02T12:01:36.833Z</time></trkpt><trkpt lat="41.8573883" lon="13.0382417"><ele>505.0</ele><time>2026-04-02T12:01:37.833Z</time></trkpt><trkpt lat="41.8572783" lon="13.03827"><ele>505.0</ele><time>2026-04-02T12:01:38.832Z</time></trkpt><trkpt lat="41.85717" lon="13.038295"><ele>505.0</ele><time>2026-04-02T12:01:39.833Z</time></trkpt><trkpt lat="41.8570633" lon="13.0383283"><ele>505.0</ele><time>2026-04-02T12:01:40.833Z</time></trkpt><trkpt lat="41.85696" lon="13.0383633"><ele>505.0</ele><time>2026-04-02T12:01:41.832Z</time></trkpt><trkpt lat="41.856865" lon="13.0384117"><ele>502.0</ele><time>2026-04-02T12:01:42.835Z</time></trkpt><trkpt lat="41.856775" lon="13.0384783"><ele>499.0</ele><time>2026-04-02T12:01:43.834Z</time></trkpt><trkpt lat="41.8566883" lon="13.038565"><ele>496.0</ele><time>2026-04-02T12:01:44.835Z</time></trkpt><trkpt lat="41.85661" lon="13.03868"><ele>493.0</ele><time>2026-04-02T12:01:45.834Z</time></trkpt><trkpt lat="41.8565383" lon="13.0387867"><ele>490.0</ele><time>2026-04-02T12:01:46.835Z</time></trkpt><trkpt lat="41.8564717" lon="13.0389033"><ele>490.0</ele><time>2026-04-02T12:01:47.834Z</time></trkpt><trkpt lat="41.8563933" lon="13.03901"><ele>490.0</ele><time>2026-04-02T12:01:48.833Z</time></trkpt><trkpt lat="41.8563033" lon="13.0390933"><ele>490.0</ele><time>2026-04-02T12:01:49.835Z</time></trkpt><trkpt lat="41.8562067" lon="13.039165"><ele>490.0</ele><time>2026-04-02T12:01:50.836Z</time></trkpt><trkpt lat="41.8561117" lon="13.0392283"><ele>490.0</ele><time>2026-04-02T12:01:51.833Z</time></trkpt><trkpt lat="41.8560183" lon="13.039285"><ele>489.0</ele><time>2026-04-02T12:01:52.834Z</time></trkpt><trkpt lat="41.855925" lon="13.0393383"><ele>488.0</ele><time>2026-04-02T12:01:53.835Z</time></trkpt><trkpt lat="41.855835" lon="13.0393933"><ele>487.0</ele><time>2026-04-02T12:01:54.834Z</time></trkpt><trkpt lat="41.8557417" lon="13.039455"><ele>486.0</ele><time>2026-04-02T12:01:55.833Z</time></trkpt><trkpt lat="41.855655" lon="13.0395317"><ele>485.0</ele><time>2026-04-02T12:01:56.834Z</time></trkpt><trkpt lat="41.8555733" lon="13.0396183"><ele>485.0</ele><time>2026-04-02T12:01:57.834Z</time></trkpt><trkpt lat="41.855495" lon="13.039715"><ele>485.0</ele><time>2026-04-02T12:01:58.833Z</time></trkpt><trkpt lat="41.85542" lon="13.03982"><ele>485.0</ele><time>2026-04-02T12:01:59.832Z</time></trkpt><trkpt lat="41.8553417" lon="13.0399267"><ele>485.0</ele><time>2026-04-02T12:02:00.832Z</time></trkpt><trkpt lat="41.85526" lon="13.04003"><ele>485.0</ele><time>2026-04-02T12:02:01.834Z</time></trkpt><trkpt lat="41.85517" lon="13.04012"><ele>483.5</ele><time>2026-04-02T12:02:02.832Z</time></trkpt><trkpt lat="41.8550717" lon="13.0401983"><ele>482.0</ele><time>2026-04-02T12:02:03.832Z</time></trkpt><trkpt lat="41.8549717" lon="13.0402733"><ele>480.5</ele><time>2026-04-02T12:02:04.833Z</time></trkpt><trkpt lat="41.8548733" lon="13.0403583"><ele>479.0</ele><time>2026-04-02T12:02:05.833Z</time></trkpt><trkpt lat="41.8547733" lon="13.0404517"><ele>479.0</ele><time>2026-04-02T12:02:06.831Z</time></trkpt><trkpt lat="41.8546733" lon="13.0405517"><ele>479.0</ele><time>2026-04-02T12:02:07.832Z</time></trkpt><trkpt lat="41.854565" lon="13.040655"><ele>479.0</ele><time>2026-04-02T12:02:08.831Z</time></trkpt><trkpt lat="41.8544617" lon="13.04077"><ele>479.0</ele><time>2026-04-02T12:02:09.833Z</time></trkpt><trkpt lat="41.854355" lon="13.0408833"><ele>477.25</ele><time>2026-04-02T12:02:10.833Z</time></trkpt><trkpt lat="41.85425" lon="13.0409967"><ele>475.5</ele><time>2026-04-02T12:02:11.832Z</time></trkpt><trkpt lat="41.8541433" lon="13.0411033"><ele>473.75</ele><time>2026-04-02T12:02:12.837Z</time></trkpt><trkpt lat="41.85404" lon="13.0412083"><ele>472.0</ele><time>2026-04-02T12:02:13.834Z</time></trkpt><trkpt lat="41.853935" lon="13.0413033"><ele>472.0</ele><time>2026-04-02T12:02:14.833Z</time></trkpt><trkpt lat="41.853835" lon="13.041395"><ele>472.0</ele><time>2026-04-02T12:02:15.837Z</time></trkpt><trkpt lat="41.8537317" lon="13.041475"><ele>472.0</ele><time>2026-04-02T12:02:16.835Z</time></trkpt><trkpt lat="41.8536283" lon="13.0415367"><ele>472.0</ele><time>2026-04-02T12:02:17.833Z</time></trkpt><trkpt lat="41.8535267" lon="13.0415783"><ele>469.40000000000003</ele><time>2026-04-02T12:02:18.832Z</time></trkpt><trkpt lat="41.85342" lon="13.0415917"><ele>466.80000000000007</ele><time>2026-04-02T12:02:19.834Z</time></trkpt><trkpt lat="41.85332" lon="13.0415467"><ele>464.2</ele><time>2026-04-02T12:02:20.838Z</time></trkpt><trkpt lat="41.8532217" lon="13.0414767"><ele>461.6</ele><time>2026-04-02T12:02:21.833Z</time></trkpt><trkpt lat="41.8531283" lon="13.041395"><ele>459.0</ele><time>2026-04-02T12:02:22.837Z</time></trkpt><trkpt lat="41.8530433" lon="13.0413017"><ele>459.0</ele><time>2026-04-02T12:02:23.837Z</time></trkpt><trkpt lat="41.8529667" lon="13.0412167"><ele>459.0</ele><time>2026-04-02T12:02:24.835Z</time></trkpt><trkpt lat="41.8528933" lon="13.0411467"><ele>459.0</ele><time>2026-04-02T12:02:25.837Z</time></trkpt><trkpt lat="41.8528167" lon="13.04109"><ele>459.0</ele><time>2026-04-02T12:02:26.835Z</time></trkpt><trkpt lat="41.8527383" lon="13.0410467"><ele>459.0</ele><time>2026-04-02T12:02:27.834Z</time></trkpt><trkpt lat="41.8526583" lon="13.0410267"><ele>459.0</ele><time>2026-04-02T12:02:28.833Z</time></trkpt><trkpt lat="41.85258" lon="13.0410167"><ele>459.6</ele><time>2026-04-02T12:02:29.833Z</time></trkpt><trkpt lat="41.8525" lon="13.0410267"><ele>460.2</ele><time>2026-04-02T12:02:30.833Z</time></trkpt><trkpt lat="41.8524167" lon="13.0410567"><ele>460.80000000000007</ele><time>2026-04-02T12:02:31.837Z</time></trkpt><trkpt lat="41.8523333" lon="13.0410917"><ele>461.40000000000003</ele><time>2026-04-02T12:02:32.835Z</time></trkpt><trkpt lat="41.852245" lon="13.0411467"><ele>462.0</ele><time>2026-04-02T12:02:33.834Z</time></trkpt><trkpt lat="41.8521533" lon="13.0412283"><ele>462.0</ele><time>2026-04-02T12:02:34.831Z</time></trkpt><trkpt lat="41.8520533" lon="13.0413233"><ele>462.0</ele><time>2026-04-02T12:02:35.831Z</time></trkpt><trkpt lat="41.851975" lon="13.0414567"><ele>462.0</ele><time>2026-04-02T12:02:36.833Z</time></trkpt><trkpt lat="41.8518967" lon="13.0415617"><ele>462.0</ele><time>2026-04-02T12:02:37.832Z</time></trkpt><trkpt lat="41.851805" lon="13.0416483"><ele>461.40000000000003</ele><time>2026-04-02T12:02:38.832Z</time></trkpt><trkpt lat="41.8517133" lon="13.0417117"><ele>460.80000000000007</ele><time>2026-04-02T12:02:39.832Z</time></trkpt><trkpt lat="41.851625" lon="13.0417367"><ele>460.2</ele><time>2026-04-02T12:02:40.831Z</time></trkpt><trkpt lat="41.8515383" lon="13.0417217"><ele>459.6</ele><time>2026-04-02T12:02:41.836Z</time></trkpt><trkpt lat="41.85147" lon="13.0416333"><ele>459.0</ele><time>2026-04-02T12:02:42.834Z</time></trkpt><trkpt lat="41.8514083" lon="13.0415067"><ele>459.0</ele><time>2026-04-02T12:02:43.834Z</time></trkpt><trkpt lat="41.8513433" lon="13.0413683"><ele>459.0</ele><time>2026-04-02T12:02:44.836Z</time></trkpt><trkpt lat="41.8512733" lon="13.0412283"><ele>459.0</ele><time>2026-04-02T12:02:45.832Z</time></trkpt><trkpt lat="41.8512017" lon="13.041095"><ele>459.0</ele><time>2026-04-02T12:02:46.835Z</time></trkpt><trkpt lat="41.851125" lon="13.040975"><ele>459.0</ele><time>2026-04-02T12:02:47.835Z</time></trkpt><trkpt lat="41.8510467" lon="13.04086"><ele>459.0</ele><time>2026-04-02T12:02:48.835Z</time></trkpt><trkpt lat="41.8509583" lon="13.040765"><ele>459.0</ele><time>2026-04-02T12:02:49.835Z</time></trkpt><trkpt lat="41.8508633" lon="13.040685"><ele>459.0</ele><time>2026-04-02T12:02:50.835Z</time></trkpt><trkpt lat="41.8507633" lon="13.04062"><ele>452.25</ele><time>2026-04-02T12:02:51.834Z</time></trkpt><trkpt lat="41.8506533" lon="13.04057"><ele>445.5</ele><time>2026-04-02T12:02:52.835Z</time></trkpt><trkpt lat="41.85054" lon="13.04052"><ele>438.75</ele><time>2026-04-02T12:02:53.834Z</time></trkpt><trkpt lat="41.8504167" lon="13.0404683"><ele>432.0</ele><time>2026-04-02T12:02:54.833Z</time></trkpt><trkpt lat="41.85029" lon="13.0404133"><ele>432.0</ele><time>2026-04-02T12:02:55.835Z</time></trkpt><trkpt lat="41.8501617" lon="13.0403533"><ele>432.0</ele><time>2026-04-02T12:02:56.837Z</time></trkpt><trkpt lat="41.8500367" lon="13.0402767"><ele>432.0</ele><time>2026-04-02T12:02:57.833Z</time></trkpt><trkpt lat="41.8499183" lon="13.0401767"><ele>432.0</ele><time>2026-04-02T12:02:58.833Z</time></trkpt><trkpt lat="41.849805" lon="13.040075"><ele>432.6</ele><time>2026-04-02T12:02:59.833Z</time></trkpt><trkpt lat="41.8497017" lon="13.0399867"><ele>433.20000000000005</ele><time>2026-04-02T12:03:00.833Z</time></trkpt><trkpt lat="41.8496133" lon="13.0399233"><ele>433.8</ele><time>2026-04-02T12:03:01.833Z</time></trkpt><trkpt lat="41.8495367" lon="13.0398767"><ele>434.4</ele><time>2026-04-02T12:03:02.832Z</time></trkpt><trkpt lat="41.8494617" lon="13.0398317"><ele>435.0</ele><time>2026-04-02T12:03:03.832Z</time></trkpt><trkpt lat="41.84939" lon="13.0398"><ele>433.5</ele><time>2026-04-02T12:03:04.833Z</time></trkpt><trkpt lat="41.8493167" lon="13.03977"><ele>432.0</ele><time>2026-04-02T12:03:05.834Z</time></trkpt><trkpt lat="41.8492517" lon="13.0397417"><ele>430.5</ele><time>2026-04-02T12:03:06.834Z</time></trkpt><trkpt lat="41.8491833" lon="13.0397083"><ele>429.0</ele><time>2026-04-02T12:03:07.832Z</time></trkpt><trkpt lat="41.8491083" lon="13.039675"><ele>427.5</ele><time>2026-04-02T12:03:08.833Z</time></trkpt><trkpt lat="41.8490217" lon="13.0396317"><ele>426.0</ele><time>2026-04-02T12:03:09.836Z</time></trkpt><trkpt lat="41.84894" lon="13.0396133"><ele>426.0</ele><time>2026-04-02T12:03:10.834Z</time></trkpt><trkpt lat="41.8488333" lon="13.0396233"><ele>426.0</ele><time>2026-04-02T12:03:11.834Z</time></trkpt><trkpt lat="41.8487133" lon="13.039645"><ele>426.0</ele><time>2026-04-02T12:03:12.833Z</time></trkpt><trkpt lat="41.84858" lon="13.0396633"><ele>426.0</ele><time>2026-04-02T12:03:13.834Z</time></trkpt><trkpt lat="41.8484367" lon="13.0396883"><ele>423.0</ele><time>2026-04-02T12:03:14.835Z</time></trkpt><trkpt lat="41.8482967" lon="13.039715"><ele>420.0</ele><time>2026-04-02T12:03:15.834Z</time></trkpt><trkpt lat="41.8481583" lon="13.03974"><ele>417.0</ele><time>2026-04-02T12:03:16.834Z</time></trkpt><trkpt lat="41.8480367" lon="13.0397633"><ele>414.0</ele><time>2026-04-02T12:03:17.835Z</time></trkpt><trkpt lat="41.8479233" lon="13.039735"><ele>414.0</ele><time>2026-04-02T12:03:18.832Z</time></trkpt><trkpt lat="41.8478183" lon="13.0396433"><ele>414.0</ele><time>2026-04-02T12:03:19.833Z</time></trkpt><trkpt lat="41.8477" lon="13.039535"><ele>414.0</ele><time>2026-04-02T12:03:20.832Z</time></trkpt><trkpt lat="41.84756" lon="13.03944"><ele>414.0</ele><time>2026-04-02T12:03:21.833Z</time></trkpt><trkpt lat="41.8474133" lon="13.039355"><ele>416.0</ele><time>2026-04-02T12:03:22.833Z</time></trkpt><trkpt lat="41.847275" lon="13.0392617"><ele>418.0</ele><time>2026-04-02T12:03:23.833Z</time></trkpt><trkpt lat="41.84716" lon="13.0391367"><ele>420.0</ele><time>2026-04-02T12:03:24.833Z</time></trkpt><trkpt lat="41.84706" lon="13.03899"><ele>411.33333333333337</ele><time>2026-04-02T12:03:25.831Z</time></trkpt><trkpt lat="41.8469733" lon="13.038815"><ele>402.6666666666667</ele><time>2026-04-02T12:03:26.834Z</time></trkpt><trkpt lat="41.8469067" lon="13.0386117"><ele>394.0</ele><time>2026-04-02T12:03:27.833Z</time></trkpt><trkpt lat="41.846845" lon="13.0384067"><ele>399.33333333333337</ele><time>2026-04-02T12:03:28.832Z</time></trkpt><trkpt lat="41.84678" lon="13.038205"><ele>404.66666666666663</ele><time>2026-04-02T12:03:29.834Z</time></trkpt><trkpt lat="41.8467217" lon="13.0379983"><ele>410.0</ele><time>2026-04-02T12:03:30.833Z</time></trkpt><trkpt lat="41.8466833" lon="13.037775"><ele>410.0</ele><time>2026-04-02T12:03:31.833Z</time></trkpt><trkpt lat="41.846635" lon="13.0375583"><ele>410.0</ele><time>2026-04-02T12:03:32.832Z</time></trkpt><trkpt lat="41.8465733" lon="13.0373583"><ele>410.0</ele><time>2026-04-02T12:03:33.832Z</time></trkpt><trkpt lat="41.846505" lon="13.0371733"><ele>407.66666666666663</ele><time>2026-04-02T12:03:34.833Z</time></trkpt><trkpt lat="41.8464483" lon="13.036985"><ele>405.33333333333337</ele><time>2026-04-02T12:03:35.833Z</time></trkpt><trkpt lat="41.8464217" lon="13.0367883"><ele>403.0</ele><time>2026-04-02T12:03:36.832Z</time></trkpt><trkpt lat="41.8464167" lon="13.03658"><ele>401.33333333333337</ele><time>2026-04-02T12:03:37.832Z</time></trkpt><trkpt lat="41.8464167" lon="13.0363667"><ele>399.66666666666663</ele><time>2026-04-02T12:03:38.832Z</time></trkpt><trkpt lat="41.8464133" lon="13.0361583"><ele>398.0</ele><time>2026-04-02T12:03:39.833Z</time></trkpt><trkpt lat="41.846405" lon="13.0359667"><ele>397.25</ele><time>2026-04-02T12:03:40.832Z</time></trkpt><trkpt lat="41.8463717" lon="13.0357917"><ele>396.5</ele><time>2026-04-02T12:03:41.836Z</time></trkpt><trkpt lat="41.8463167" lon="13.0356367"><ele>395.75</ele><time>2026-04-02T12:03:42.834Z</time></trkpt><trkpt lat="41.846255" lon="13.035495"><ele>395.0</ele><time>2026-04-02T12:03:43.835Z</time></trkpt><trkpt lat="41.8461883" lon="13.0353467"><ele>395.0</ele><time>2026-04-02T12:03:44.836Z</time></trkpt><trkpt lat="41.8461333" lon="13.03518"><ele>395.0</ele><time>2026-04-02T12:03:45.835Z</time></trkpt><trkpt lat="41.846095" lon="13.0350117"><ele>395.0</ele><time>2026-04-02T12:03:46.835Z</time></trkpt><trkpt lat="41.8460467" lon="13.0348283"><ele>395.0</ele><time>2026-04-02T12:03:47.836Z</time></trkpt><trkpt lat="41.8459933" lon="13.03465"><ele>397.0</ele><time>2026-04-02T12:03:48.83Z</time></trkpt><trkpt lat="41.8459167" lon="13.0344767"><ele>399.0</ele><time>2026-04-02T12:03:49.831Z</time></trkpt><trkpt lat="41.84582" lon="13.0343183"><ele>401.0</ele><time>2026-04-02T12:03:50.832Z</time></trkpt><trkpt lat="41.84572" lon="13.0341617"><ele>400.0</ele><time>2026-04-02T12:03:51.831Z</time></trkpt><trkpt lat="41.8456183" lon="13.0340133"><ele>399.0</ele><time>2026-04-02T12:03:52.832Z</time></trkpt><trkpt lat="41.8454983" lon="13.0338833"><ele>398.0</ele><time>2026-04-02T12:03:53.832Z</time></trkpt><trkpt lat="41.84537" lon="13.0337733"><ele>398.0</ele><time>2026-04-02T12:03:54.833Z</time></trkpt><trkpt lat="41.8452617" lon="13.0336633"><ele>398.0</ele><time>2026-04-02T12:03:55.831Z</time></trkpt><trkpt lat="41.8451467" lon="13.033545"><ele>398.0</ele><time>2026-04-02T12:03:56.83Z</time></trkpt><trkpt lat="41.8450383" lon="13.0334033"><ele>398.0</ele><time>2026-04-02T12:03:57.833Z</time></trkpt><trkpt lat="41.8449533" lon="13.0332667"><ele>397.4</ele><time>2026-04-02T12:03:58.833Z</time></trkpt><trkpt lat="41.8448883" lon="13.03314"><ele>396.79999999999995</ele><time>2026-04-02T12:03:59.832Z</time></trkpt><trkpt lat="41.8448583" lon="13.0330133"><ele>396.2</ele><time>2026-04-02T12:04:00.832Z</time></trkpt><trkpt lat="41.84486" lon="13.0328833"><ele>395.6</ele><time>2026-04-02T12:04:01.832Z</time></trkpt><trkpt lat="41.84489" lon="13.03274"><ele>395.0</ele><time>2026-04-02T12:04:02.833Z</time></trkpt><trkpt lat="41.84493" lon="13.03257"><ele>394.25</ele><time>2026-04-02T12:04:03.835Z</time></trkpt><trkpt lat="41.8449633" lon="13.032385"><ele>393.5</ele><time>2026-04-02T12:04:04.834Z</time></trkpt><trkpt lat="41.8449733" lon="13.0321917"><ele>392.75</ele><time>2026-04-02T12:04:05.831Z</time></trkpt><trkpt lat="41.8449683" lon="13.03199"><ele>392.0</ele><time>2026-04-02T12:04:06.835Z</time></trkpt><trkpt lat="41.8449367" lon="13.031785"><ele>393.5</ele><time>2026-04-02T12:04:07.832Z</time></trkpt><trkpt lat="41.8448767" lon="13.0316"><ele>395.0</ele><time>2026-04-02T12:04:08.833Z</time></trkpt><trkpt lat="41.8447917" lon="13.0314467"><ele>396.5</ele><time>2026-04-02T12:04:09.833Z</time></trkpt><trkpt lat="41.8446767" lon="13.0313183"><ele>398.0</ele><time>2026-04-02T12:04:10.833Z</time></trkpt><trkpt lat="41.8445483" lon="13.0311967"><ele>398.0</ele><time>2026-04-02T12:04:11.834Z</time></trkpt><trkpt lat="41.844435" lon="13.031055"><ele>398.0</ele><time>2026-04-02T12:04:12.835Z</time></trkpt><trkpt lat="41.844325" lon="13.030885"><ele>398.0</ele><time>2026-04-02T12:04:13.834Z</time></trkpt><trkpt lat="41.8442383" lon="13.0307367"><ele>391.25</ele><time>2026-04-02T12:04:14.835Z</time></trkpt><trkpt lat="41.8441617" lon="13.0305933"><ele>384.5</ele><time>2026-04-02T12:04:15.835Z</time></trkpt><trkpt lat="41.8440983" lon="13.0304483"><ele>377.75</ele><time>2026-04-02T12:04:16.834Z</time></trkpt><trkpt lat="41.8440367" lon="13.0303"><ele>371.0</ele><time>2026-04-02T12:04:17.835Z</time></trkpt><trkpt lat="41.8440483" lon="13.0301767"><ele>371.0</ele><time>2026-04-02T12:04:18.831Z</time></trkpt><trkpt lat="41.8441333" lon="13.0300683"><ele>371.0</ele><time>2026-04-02T12:04:19.832Z</time></trkpt><trkpt lat="41.84424" lon="13.0299483"><ele>371.0</ele><time>2026-04-02T12:04:20.833Z</time></trkpt><trkpt lat="41.8443533" lon="13.0298217"><ele>371.0</ele><time>2026-04-02T12:04:21.832Z</time></trkpt><trkpt lat="41.8444583" lon="13.02969"><ele>368.75</ele><time>2026-04-02T12:04:22.833Z</time></trkpt><trkpt lat="41.844535" lon="13.02953"><ele>366.5</ele><time>2026-04-02T12:04:23.833Z</time></trkpt><trkpt lat="41.8445733" lon="13.02934"><ele>364.25</ele><time>2026-04-02T12:04:24.833Z</time></trkpt><trkpt lat="41.8445783" lon="13.0291267"><ele>362.0</ele><time>2026-04-02T12:04:25.833Z</time></trkpt><trkpt lat="41.8445683" lon="13.028905"><ele>358.0</ele><time>2026-04-02T12:04:26.833Z</time></trkpt><trkpt lat="41.8445483" lon="13.0286867"><ele>354.0</ele><time>2026-04-02T12:04:27.832Z</time></trkpt><trkpt lat="41.844525" lon="13.028475"><ele>350.0</ele><time>2026-04-02T12:04:28.833Z</time></trkpt><trkpt lat="41.8444867" lon="13.02826"><ele>349.33333333333337</ele><time>2026-04-02T12:04:29.833Z</time></trkpt><trkpt lat="41.8444267" lon="13.02805"><ele>348.6666666666667</ele><time>2026-04-02T12:04:30.833Z</time></trkpt><trkpt lat="41.844355" lon="13.0278483"><ele>348.0</ele><time>2026-04-02T12:04:31.833Z</time></trkpt><trkpt lat="41.8442817" lon="13.0276517"><ele>348.3333333333333</ele><time>2026-04-02T12:04:32.837Z</time></trkpt><trkpt lat="41.8442117" lon="13.0274583"><ele>348.66666666666663</ele><time>2026-04-02T12:04:33.835Z</time></trkpt><trkpt lat="41.84414" lon="13.027275"><ele>349.0</ele><time>2026-04-02T12:04:34.835Z</time></trkpt><trkpt lat="41.8440517" lon="13.0271117"><ele>349.0</ele><time>2026-04-02T12:04:35.834Z</time></trkpt><trkpt lat="41.8439383" lon="13.0269817"><ele>349.0</ele><time>2026-04-02T12:04:36.83Z</time></trkpt><trkpt lat="41.84381" lon="13.0268783"><ele>349.0</ele><time>2026-04-02T12:04:37.83Z</time></trkpt><trkpt lat="41.8436833" lon="13.0267817"><ele>349.0</ele><time>2026-04-02T12:04:38.832Z</time></trkpt><trkpt lat="41.8435633" lon="13.026685"><ele>350.0</ele><time>2026-04-02T12:04:39.832Z</time></trkpt><trkpt lat="41.8434517" lon="13.0265783"><ele>351.0</ele><time>2026-04-02T12:04:40.83Z</time></trkpt><trkpt lat="41.84334" lon="13.0264733"><ele>352.0</ele><time>2026-04-02T12:04:41.835Z</time></trkpt><trkpt lat="41.8432417" lon="13.0263533"><ele>353.0</ele><time>2026-04-02T12:04:42.836Z</time></trkpt><trkpt lat="41.843145" lon="13.0262233"><ele>353.0</ele><time>2026-04-02T12:04:43.835Z</time></trkpt><trkpt lat="41.8430517" lon="13.0260883"><ele>353.0</ele><time>2026-04-02T12:04:44.837Z</time></trkpt><trkpt lat="41.8429517" lon="13.025945"><ele>353.0</ele><time>2026-04-02T12:04:45.835Z</time></trkpt><trkpt lat="41.8428583" lon="13.0258083"><ele>353.0</ele><time>2026-04-02T12:04:46.834Z</time></trkpt><trkpt lat="41.8427817" lon="13.0256767"><ele>352.25</ele><time>2026-04-02T12:04:47.833Z</time></trkpt><trkpt lat="41.8427283" lon="13.025545"><ele>351.5</ele><time>2026-04-02T12:04:48.834Z</time></trkpt><trkpt lat="41.8427067" lon="13.0254067"><ele>350.75</ele><time>2026-04-02T12:04:49.833Z</time></trkpt><trkpt lat="41.8427133" lon="13.0252583"><ele>350.0</ele><time>2026-04-02T12:04:50.831Z</time></trkpt><trkpt lat="41.8427433" lon="13.0250933"><ele>346.0</ele><time>2026-04-02T12:04:51.832Z</time></trkpt><trkpt lat="41.8427817" lon="13.0249167"><ele>342.0</ele><time>2026-04-02T12:04:52.832Z</time></trkpt><trkpt lat="41.8428183" lon="13.0247417"><ele>338.0</ele><time>2026-04-02T12:04:53.833Z</time></trkpt><trkpt lat="41.842855" lon="13.0245733"><ele>334.0</ele><time>2026-04-02T12:04:54.832Z</time></trkpt><trkpt lat="41.8428967" lon="13.024415"><ele>334.0</ele><time>2026-04-02T12:04:55.833Z</time></trkpt><trkpt lat="41.8429467" lon="13.0242667"><ele>334.0</ele><time>2026-04-02T12:04:56.833Z</time></trkpt><trkpt lat="41.8430017" lon="13.0241167"><ele>334.0</ele><time>2026-04-02T12:04:57.832Z</time></trkpt><trkpt lat="41.8430733" lon="13.0239683"><ele>334.0</ele><time>2026-04-02T12:04:58.832Z</time></trkpt><trkpt lat="41.843125" lon="13.0238333"><ele>330.2</ele><time>2026-04-02T12:04:59.833Z</time></trkpt><trkpt lat="41.8431683" lon="13.0237"><ele>326.4</ele><time>2026-04-02T12:05:00.833Z</time></trkpt><trkpt lat="41.8431817" lon="13.0235633"><ele>322.6</ele><time>2026-04-02T12:05:01.833Z</time></trkpt><trkpt lat="41.843155" lon="13.0234267"><ele>318.8</ele><time>2026-04-02T12:05:02.835Z</time></trkpt><trkpt lat="41.843095" lon="13.0233117"><ele>315.0</ele><time>2026-04-02T12:05:03.83Z</time></trkpt><trkpt lat="41.843025" lon="13.023205"><ele>313.0</ele><time>2026-04-02T12:05:04.83Z</time></trkpt><trkpt lat="41.842945" lon="13.023045"><ele>311.0</ele><time>2026-04-02T12:05:05.836Z</time></trkpt><trkpt lat="41.8428567" lon="13.022905"><ele>309.0</ele><time>2026-04-02T12:05:06.83Z</time></trkpt><trkpt lat="41.8427367" lon="13.0227883"><ele>307.0</ele><time>2026-04-02T12:05:07.83Z</time></trkpt><trkpt lat="41.8425867" lon="13.0232467"><ele>307.0</ele><time>2026-04-02T12:05:08.83Z</time></trkpt><trkpt lat="41.8425267" lon="13.0231833"><ele>307.0</ele><time>2026-04-02T12:05:09.829Z</time></trkpt><trkpt lat="41.8423183" lon="13.02333"><ele>307.0</ele><time>2026-04-02T12:05:10.828Z</time></trkpt><trkpt lat="41.84219" lon="13.0233833"><ele>307.0</ele><time>2026-04-02T12:05:11.83Z</time></trkpt><trkpt lat="41.84204" lon="13.0234617"><ele>307.25</ele><time>2026-04-02T12:05:12.828Z</time></trkpt><trkpt lat="41.8419183" lon="13.023415"><ele>307.5</ele><time>2026-04-02T12:05:13.83Z</time></trkpt><trkpt lat="41.8417867" lon="13.023355"><ele>307.75</ele><time>2026-04-02T12:05:14.832Z</time></trkpt><trkpt lat="41.84165" lon="13.0232583"><ele>308.0</ele><time>2026-04-02T12:05:15.832Z</time></trkpt><trkpt lat="41.8415117" lon="13.0231667"><ele>309.0</ele><time>2026-04-02T12:05:16.832Z</time></trkpt><trkpt lat="41.8413633" lon="13.0230667"><ele>310.0</ele><time>2026-04-02T12:05:17.829Z</time></trkpt><trkpt lat="41.8412183" lon="13.0229567"><ele>311.0</ele><time>2026-04-02T12:05:18.829Z</time></trkpt><trkpt lat="41.8410733" lon="13.02286"><ele>308.33333333333337</ele><time>2026-04-02T12:05:19.829Z</time></trkpt><trkpt lat="41.8409367" lon="13.0227583"><ele>305.6666666666667</ele><time>2026-04-02T12:05:20.831Z</time></trkpt><trkpt lat="41.8408033" lon="13.0226567"><ele>303.0</ele><time>2026-04-02T12:05:21.829Z</time></trkpt><trkpt lat="41.8406733" lon="13.022555"><ele>304.6666666666667</ele><time>2026-04-02T12:05:22.829Z</time></trkpt><trkpt lat="41.8405483" lon="13.02245"><ele>306.33333333333337</ele><time>2026-04-02T12:05:23.829Z</time></trkpt><trkpt lat="41.84029" lon="13.022245"><ele>308.0</ele><time>2026-04-02T12:05:25.832Z</time></trkpt><trkpt lat="41.8401633" lon="13.0221417"><ele>305.0</ele><time>2026-04-02T12:05:26.833Z</time></trkpt><trkpt lat="41.8400333" lon="13.0220383"><ele>302.0</ele><time>2026-04-02T12:05:27.834Z</time></trkpt><trkpt lat="41.839905" lon="13.0219333"><ele>299.0</ele><time>2026-04-02T12:05:28.83Z</time></trkpt><trkpt lat="41.8397733" lon="13.0218283"><ele>299.0</ele><time>2026-04-02T12:05:29.829Z</time></trkpt><trkpt lat="41.83964" lon="13.021725"><ele>299.0</ele><time>2026-04-02T12:05:30.829Z</time></trkpt><trkpt lat="41.8395017" lon="13.02162"><ele>299.0</ele><time>2026-04-02T12:05:31.829Z</time></trkpt><trkpt lat="41.8393633" lon="13.021515"><ele>296.6666666666667</ele><time>2026-04-02T12:05:32.83Z</time></trkpt><trkpt lat="41.839225" lon="13.02141"><ele>294.3333333333333</ele><time>2026-04-02T12:05:33.829Z</time></trkpt><trkpt lat="41.83909" lon="13.0213"><ele>292.0</ele><time>2026-04-02T12:05:34.83Z</time></trkpt><trkpt lat="41.8389383" lon="13.0212083"><ele>292.0</ele><time>2026-04-02T12:05:35.833Z</time></trkpt><trkpt lat="41.8388" lon="13.0211017"><ele>292.0</ele><time>2026-04-02T12:05:36.832Z</time></trkpt><trkpt lat="41.8386633" lon="13.02099"><ele>292.0</ele><time>2026-04-02T12:05:37.832Z</time></trkpt><trkpt lat="41.8385167" lon="13.0208783"><ele>289.66666666666663</ele><time>2026-04-02T12:05:38.832Z</time></trkpt><trkpt lat="41.83837" lon="13.020765"><ele>287.3333333333333</ele><time>2026-04-02T12:05:39.832Z</time></trkpt><trkpt lat="41.8382217" lon="13.0206483"><ele>285.0</ele><time>2026-04-02T12:05:40.832Z</time></trkpt><trkpt lat="41.83807" lon="13.0205217"><ele>285.0</ele><time>2026-04-02T12:05:41.833Z</time></trkpt><trkpt lat="41.8379067" lon="13.02039"><ele>285.0</ele><time>2026-04-02T12:05:42.835Z</time></trkpt><trkpt lat="41.8377433" lon="13.02026"><ele>285.0</ele><time>2026-04-02T12:05:43.834Z</time></trkpt><trkpt lat="41.8375733" lon="13.0201283"><ele>283.6666666666667</ele><time>2026-04-02T12:05:44.833Z</time></trkpt><trkpt lat="41.837405" lon="13.0200033"><ele>282.33333333333337</ele><time>2026-04-02T12:05:45.834Z</time></trkpt><trkpt lat="41.837245" lon="13.01988"><ele>281.0</ele><time>2026-04-02T12:05:46.835Z</time></trkpt><trkpt lat="41.8370833" lon="13.0197517"><ele>280.6666666666667</ele><time>2026-04-02T12:05:47.832Z</time></trkpt><trkpt lat="41.8369183" lon="13.01962"><ele>280.3333333333333</ele><time>2026-04-02T12:05:48.832Z</time></trkpt><trkpt lat="41.8367517" lon="13.0194883"><ele>280.0</ele><time>2026-04-02T12:05:49.831Z</time></trkpt><trkpt lat="41.8365833" lon="13.019355"><ele>280.0</ele><time>2026-04-02T12:05:50.834Z</time></trkpt><trkpt lat="41.836415" lon="13.0192217"><ele>280.0</ele><time>2026-04-02T12:05:51.831Z</time></trkpt><trkpt lat="41.8362483" lon="13.0190833"><ele>280.0</ele><time>2026-04-02T12:05:52.831Z</time></trkpt><trkpt lat="41.8360817" lon="13.0189483"><ele>279.0</ele><time>2026-04-02T12:05:53.831Z</time></trkpt><trkpt lat="41.8359117" lon="13.018815"><ele>278.0</ele><time>2026-04-02T12:05:54.834Z</time></trkpt><trkpt lat="41.835745" lon="13.0186783"><ele>277.0</ele><time>2026-04-02T12:05:55.834Z</time></trkpt><trkpt lat="41.8355833" lon="13.0185483"><ele>277.0</ele><time>2026-04-02T12:05:56.835Z</time></trkpt><trkpt lat="41.8354217" lon="13.01842"><ele>277.0</ele><time>2026-04-02T12:05:57.833Z</time></trkpt><trkpt lat="41.8352617" lon="13.018295"><ele>277.0</ele><time>2026-04-02T12:05:58.835Z</time></trkpt><trkpt lat="41.8351067" lon="13.01817"><ele>277.0</ele><time>2026-04-02T12:05:59.835Z</time></trkpt><trkpt lat="41.8349533" lon="13.01805"><ele>277.0</ele><time>2026-04-02T12:06:00.835Z</time></trkpt><trkpt lat="41.8348017" lon="13.0179317"><ele>277.0</ele><time>2026-04-02T12:06:01.835Z</time></trkpt><trkpt lat="41.8346533" lon="13.017815"><ele>277.0</ele><time>2026-04-02T12:06:02.836Z</time></trkpt><trkpt lat="41.834505" lon="13.01769"><ele>277.0</ele><time>2026-04-02T12:06:03.835Z</time></trkpt><trkpt lat="41.8343533" lon="13.0175717"><ele>277.0</ele><time>2026-04-02T12:06:04.832Z</time></trkpt><trkpt lat="41.8342017" lon="13.017455"><ele>276.0</ele><time>2026-04-02T12:06:05.833Z</time></trkpt><trkpt lat="41.83405" lon="13.0173317"><ele>275.0</ele><time>2026-04-02T12:06:06.833Z</time></trkpt><trkpt lat="41.8338983" lon="13.0172067"><ele>274.0</ele><time>2026-04-02T12:06:07.832Z</time></trkpt><trkpt lat="41.8337433" lon="13.0170817"><ele>274.0</ele><time>2026-04-02T12:06:08.833Z</time></trkpt><trkpt lat="41.8335883" lon="13.0169567"><ele>274.0</ele><time>2026-04-02T12:06:09.829Z</time></trkpt><trkpt lat="41.8334333" lon="13.0168267"><ele>274.0</ele><time>2026-04-02T12:06:10.832Z</time></trkpt><trkpt lat="41.8332783" lon="13.0166983"><ele>274.66666666666663</ele><time>2026-04-02T12:06:11.834Z</time></trkpt><trkpt lat="41.8331217" lon="13.0165683"><ele>275.3333333333333</ele><time>2026-04-02T12:06:12.833Z</time></trkpt><trkpt lat="41.8329617" lon="13.016445"><ele>276.0</ele><time>2026-04-02T12:06:13.835Z</time></trkpt><trkpt lat="41.8328" lon="13.0163233"><ele>276.0</ele><time>2026-04-02T12:06:14.836Z</time></trkpt><trkpt lat="41.83264" lon="13.0161967"><ele>276.0</ele><time>2026-04-02T12:06:15.835Z</time></trkpt><trkpt lat="41.8324833" lon="13.0160767"><ele>276.0</ele><time>2026-04-02T12:06:16.834Z</time></trkpt><trkpt lat="41.8323333" lon="13.0159683"><ele>276.0</ele><time>2026-04-02T12:06:17.834Z</time></trkpt><trkpt lat="41.83219" lon="13.0158567"><ele>276.0</ele><time>2026-04-02T12:06:18.834Z</time></trkpt><trkpt lat="41.8320467" lon="13.015745"><ele>276.0</ele><time>2026-04-02T12:06:19.833Z</time></trkpt><trkpt lat="41.8319017" lon="13.0156367"><ele>275.6666666666667</ele><time>2026-04-02T12:06:20.837Z</time></trkpt><trkpt lat="41.831755" lon="13.015525"><ele>275.33333333333337</ele><time>2026-04-02T12:06:21.835Z</time></trkpt><trkpt lat="41.8316033" lon="13.015415"><ele>275.0</ele><time>2026-04-02T12:06:22.834Z</time></trkpt><trkpt lat="41.8314533" lon="13.015295"><ele>275.0</ele><time>2026-04-02T12:06:23.834Z</time></trkpt><trkpt lat="41.831305" lon="13.0151717"><ele>275.0</ele><time>2026-04-02T12:06:24.833Z</time></trkpt><trkpt lat="41.8311533" lon="13.0150433"><ele>275.0</ele><time>2026-04-02T12:06:25.834Z</time></trkpt><trkpt lat="41.8310017" lon="13.0149167"><ele>274.6666666666667</ele><time>2026-04-02T12:06:26.836Z</time></trkpt><trkpt lat="41.8308533" lon="13.0147967"><ele>274.3333333333333</ele><time>2026-04-02T12:06:27.835Z</time></trkpt><trkpt lat="41.8307067" lon="13.0146817"><ele>274.0</ele><time>2026-04-02T12:06:28.832Z</time></trkpt><trkpt lat="41.8305533" lon="13.0145767"><ele>274.0</ele><time>2026-04-02T12:06:29.831Z</time></trkpt><trkpt lat="41.83039" lon="13.0145033"><ele>274.0</ele><time>2026-04-02T12:06:30.831Z</time></trkpt><trkpt lat="41.8302167" lon="13.0144667"><ele>274.0</ele><time>2026-04-02T12:06:31.83Z</time></trkpt><trkpt lat="41.83004" lon="13.0144567"><ele>274.0</ele><time>2026-04-02T12:06:32.833Z</time></trkpt><trkpt lat="41.8298633" lon="13.01446"><ele>274.0</ele><time>2026-04-02T12:06:33.833Z</time></trkpt><trkpt lat="41.8296917" lon="13.014465"><ele>274.0</ele><time>2026-04-02T12:06:34.832Z</time></trkpt><trkpt lat="41.8295317" lon="13.0144667"><ele>274.0</ele><time>2026-04-02T12:06:35.833Z</time></trkpt><trkpt lat="41.8293867" lon="13.0144633"><ele>274.0</ele><time>2026-04-02T12:06:36.832Z</time></trkpt><trkpt lat="41.82926" lon="13.014455"><ele>274.0</ele><time>2026-04-02T12:06:37.832Z</time></trkpt><trkpt lat="41.8291483" lon="13.01445"><ele>274.0</ele><time>2026-04-02T12:06:38.832Z</time></trkpt><trkpt lat="41.8290417" lon="13.0144417"><ele>273.4</ele><time>2026-04-02T12:06:39.832Z</time></trkpt><trkpt lat="41.82894" lon="13.014425"><ele>272.79999999999995</ele><time>2026-04-02T12:06:40.831Z</time></trkpt><trkpt lat="41.8288383" lon="13.014395"><ele>272.20000000000005</ele><time>2026-04-02T12:06:41.831Z</time></trkpt><trkpt lat="41.8287417" lon="13.0143567"><ele>271.6</ele><time>2026-04-02T12:06:42.836Z</time></trkpt><trkpt lat="41.8286417" lon="13.0143083"><ele>271.0</ele><time>2026-04-02T12:06:43.835Z</time></trkpt><trkpt lat="41.8285417" lon="13.0142517"><ele>270.75</ele><time>2026-04-02T12:06:44.836Z</time></trkpt><trkpt lat="41.8284383" lon="13.0141767"><ele>270.5</ele><time>2026-04-02T12:06:45.834Z</time></trkpt><trkpt lat="41.828335" lon="13.0140833"><ele>270.25</ele><time>2026-04-02T12:06:46.836Z</time></trkpt><trkpt lat="41.8282383" lon="13.0139683"><ele>270.0</ele><time>2026-04-02T12:06:47.833Z</time></trkpt><trkpt lat="41.8281433" lon="13.013835"><ele>270.0</ele><time>2026-04-02T12:06:48.833Z</time></trkpt><trkpt lat="41.8280467" lon="13.0136883"><ele>270.0</ele><time>2026-04-02T12:06:49.832Z</time></trkpt><trkpt lat="41.8279517" lon="13.01352"><ele>270.0</ele><time>2026-04-02T12:06:50.832Z</time></trkpt><trkpt lat="41.827855" lon="13.01335"><ele>270.0</ele><time>2026-04-02T12:06:51.833Z</time></trkpt><trkpt lat="41.8277567" lon="13.01317"><ele>270.0</ele><time>2026-04-02T12:06:52.832Z</time></trkpt><trkpt lat="41.8276633" lon="13.0129783"><ele>270.0</ele><time>2026-04-02T12:06:53.833Z</time></trkpt><trkpt lat="41.8275733" lon="13.0128"><ele>267.0</ele><time>2026-04-02T12:06:54.835Z</time></trkpt><trkpt lat="41.82749" lon="13.012645"><ele>264.0</ele><time>2026-04-02T12:06:55.834Z</time></trkpt><trkpt lat="41.8274067" lon="13.0125167"><ele>261.0</ele><time>2026-04-02T12:06:56.834Z</time></trkpt><trkpt lat="41.827305" lon="13.0124267"><ele>258.0</ele><time>2026-04-02T12:06:57.835Z</time></trkpt><trkpt lat="41.82718" lon="13.0123767"><ele>257.5</ele><time>2026-04-02T12:06:58.831Z</time></trkpt><trkpt lat="41.8270433" lon="13.012375"><ele>257.0</ele><time>2026-04-02T12:06:59.831Z</time></trkpt><trkpt lat="41.8269083" lon="13.01242"><ele>256.5</ele><time>2026-04-02T12:07:00.833Z</time></trkpt><trkpt lat="41.826765" lon="13.0125133"><ele>256.0</ele><time>2026-04-02T12:07:01.832Z</time></trkpt><trkpt lat="41.82661" lon="13.01259"><ele>254.33333333333331</ele><time>2026-04-02T12:07:02.833Z</time></trkpt><trkpt lat="41.8264583" lon="13.0126533"><ele>252.66666666666669</ele><time>2026-04-02T12:07:03.832Z</time></trkpt><trkpt lat="41.82631" lon="13.012655"><ele>251.0</ele><time>2026-04-02T12:07:04.833Z</time></trkpt><trkpt lat="41.8261683" lon="13.0126067"><ele>251.0</ele><time>2026-04-02T12:07:05.831Z</time></trkpt><trkpt lat="41.8260267" lon="13.012515"><ele>251.0</ele><time>2026-04-02T12:07:06.831Z</time></trkpt><trkpt lat="41.825885" lon="13.0124067"><ele>251.0</ele><time>2026-04-02T12:07:07.833Z</time></trkpt><trkpt lat="41.8257417" lon="13.0122883"><ele>249.66666666666669</ele><time>2026-04-02T12:07:08.832Z</time></trkpt><trkpt lat="41.8255983" lon="13.0121617"><ele>248.33333333333331</ele><time>2026-04-02T12:07:09.833Z</time></trkpt><trkpt lat="41.8254583" lon="13.0120267"><ele>247.0</ele><time>2026-04-02T12:07:10.832Z</time></trkpt><trkpt lat="41.82532" lon="13.0118983"><ele>247.0</ele><time>2026-04-02T12:07:11.832Z</time></trkpt><trkpt lat="41.8251767" lon="13.0117767"><ele>247.0</ele><time>2026-04-02T12:07:12.832Z</time></trkpt><trkpt lat="41.8250333" lon="13.0116517"><ele>247.0</ele><time>2026-04-02T12:07:13.832Z</time></trkpt><trkpt lat="41.8248867" lon="13.0115267"><ele>247.0</ele><time>2026-04-02T12:07:14.832Z</time></trkpt><trkpt lat="41.824745" lon="13.0113983"><ele>247.0</ele><time>2026-04-02T12:07:15.833Z</time></trkpt><trkpt lat="41.8246017" lon="13.011275"><ele>247.0</ele><time>2026-04-02T12:07:16.834Z</time></trkpt><trkpt lat="41.8244567" lon="13.0111483"><ele>246.66666666666666</ele><time>2026-04-02T12:07:17.832Z</time></trkpt><trkpt lat="41.8243117" lon="13.0110267"><ele>246.33333333333331</ele><time>2026-04-02T12:07:18.833Z</time></trkpt><trkpt lat="41.82417" lon="13.0109017"><ele>246.0</ele><time>2026-04-02T12:07:19.832Z</time></trkpt><trkpt lat="41.8240317" lon="13.0107733"><ele>246.0</ele><time>2026-04-02T12:07:20.832Z</time></trkpt><trkpt lat="41.8238917" lon="13.0106567"><ele>246.0</ele><time>2026-04-02T12:07:21.832Z</time></trkpt><trkpt lat="41.8237567" lon="13.010535"><ele>246.0</ele><time>2026-04-02T12:07:22.832Z</time></trkpt><trkpt lat="41.82362" lon="13.01041"><ele>246.0</ele><time>2026-04-02T12:07:23.831Z</time></trkpt><trkpt lat="41.8234833" lon="13.0102967"><ele>246.0</ele><time>2026-04-02T12:07:24.833Z</time></trkpt><trkpt lat="41.8233533" lon="13.010185"><ele>246.0</ele><time>2026-04-02T12:07:25.831Z</time></trkpt><trkpt lat="41.823225" lon="13.0100783"><ele>246.5</ele><time>2026-04-02T12:07:26.834Z</time></trkpt><trkpt lat="41.8231017" lon="13.009975"><ele>247.0</ele><time>2026-04-02T12:07:27.833Z</time></trkpt><trkpt lat="41.8229867" lon="13.0098783"><ele>247.5</ele><time>2026-04-02T12:07:28.833Z</time></trkpt><trkpt lat="41.8228883" lon="13.00978"><ele>248.0</ele><time>2026-04-02T12:07:29.833Z</time></trkpt><trkpt lat="41.822815" lon="13.0096683"><ele>248.0</ele><time>2026-04-02T12:07:30.834Z</time></trkpt><trkpt lat="41.8227583" lon="13.0095467"><ele>248.0</ele><time>2026-04-02T12:07:31.832Z</time></trkpt><trkpt lat="41.8227217" lon="13.00941"><ele>248.0</ele><time>2026-04-02T12:07:32.835Z</time></trkpt><trkpt lat="41.8227" lon="13.0092567"><ele>248.0</ele><time>2026-04-02T12:07:33.831Z</time></trkpt><trkpt lat="41.8226983" lon="13.00909"><ele>248.25</ele><time>2026-04-02T12:07:34.83Z</time></trkpt><trkpt lat="41.8227017" lon="13.0089067"><ele>248.5</ele><time>2026-04-02T12:07:35.831Z</time></trkpt><trkpt lat="41.8227117" lon="13.008715"><ele>248.75</ele><time>2026-04-02T12:07:36.834Z</time></trkpt><trkpt lat="41.8227133" lon="13.008525"><ele>249.0</ele><time>2026-04-02T12:07:37.834Z</time></trkpt><trkpt lat="41.8227167" lon="13.0083333"><ele>247.75</ele><time>2026-04-02T12:07:38.834Z</time></trkpt><trkpt lat="41.8226983" lon="13.0081633"><ele>246.5</ele><time>2026-04-02T12:07:39.834Z</time></trkpt><trkpt lat="41.8226767" lon="13.008"><ele>245.25</ele><time>2026-04-02T12:07:40.832Z</time></trkpt><trkpt lat="41.82266" lon="13.0078333"><ele>244.0</ele><time>2026-04-02T12:07:41.833Z</time></trkpt><trkpt lat="41.82265" lon="13.0076483"><ele>244.33333333333331</ele><time>2026-04-02T12:07:42.834Z</time></trkpt><trkpt lat="41.8226433" lon="13.0074517"><ele>244.66666666666669</ele><time>2026-04-02T12:07:43.835Z</time></trkpt><trkpt lat="41.8226383" lon="13.0072467"><ele>245.0</ele><time>2026-04-02T12:07:44.837Z</time></trkpt><trkpt lat="41.8226267" lon="13.0070267"><ele>245.0</ele><time>2026-04-02T12:07:45.834Z</time></trkpt><trkpt lat="41.8226117" lon="13.00679"><ele>245.0</ele><time>2026-04-02T12:07:46.835Z</time></trkpt><trkpt lat="41.82259" lon="13.0065417"><ele>245.0</ele><time>2026-04-02T12:07:47.833Z</time></trkpt><trkpt lat="41.8225633" lon="13.0062767"><ele>245.66666666666669</ele><time>2026-04-02T12:07:48.836Z</time></trkpt><trkpt lat="41.8225283" lon="13.0059917"><ele>246.33333333333331</ele><time>2026-04-02T12:07:49.834Z</time></trkpt><trkpt lat="41.8224883" lon="13.00569"><ele>247.0</ele><time>2026-04-02T12:07:50.834Z</time></trkpt><trkpt lat="41.8224533" lon="13.00538"><ele>248.0</ele><time>2026-04-02T12:07:51.834Z</time></trkpt><trkpt lat="41.8224233" lon="13.0050783"><ele>249.0</ele><time>2026-04-02T12:07:52.835Z</time></trkpt><trkpt lat="41.8223917" lon="13.0047817"><ele>250.33333333333331</ele><time>2026-04-02T12:07:53.834Z</time></trkpt><trkpt lat="41.8223567" lon="13.0044967"><ele>251.66666666666666</ele><time>2026-04-02T12:07:54.835Z</time></trkpt><trkpt lat="41.8223133" lon="13.0042267"><ele>253.0</ele><time>2026-04-02T12:07:55.835Z</time></trkpt><trkpt lat="41.8222583" lon="13.0039633"><ele>254.0</ele><time>2026-04-02T12:07:56.834Z</time></trkpt><trkpt lat="41.8221833" lon="13.0037033"><ele>255.0</ele><time>2026-04-02T12:07:57.835Z</time></trkpt><trkpt lat="41.8220867" lon="13.00345"><ele>256.0</ele><time>2026-04-02T12:07:58.835Z</time></trkpt><trkpt lat="41.821975" lon="13.0032"><ele>256.0</ele><time>2026-04-02T12:07:59.835Z</time></trkpt><trkpt lat="41.8218567" lon="13.0029533"><ele>256.0</ele><time>2026-04-02T12:08:00.833Z</time></trkpt><trkpt lat="41.8217383" lon="13.0027017"><ele>256.0</ele><time>2026-04-02T12:08:01.833Z</time></trkpt><trkpt lat="41.8216183" lon="13.0024467"><ele>256.0</ele><time>2026-04-02T12:08:02.836Z</time></trkpt><trkpt lat="41.8215033" lon="13.00219"><ele>256.0</ele><time>2026-04-02T12:08:03.835Z</time></trkpt><trkpt lat="41.8213917" lon="13.0019383"><ele>256.0</ele><time>2026-04-02T12:08:04.835Z</time></trkpt><trkpt lat="41.82128" lon="13.0016917"><ele>256.3333333333333</ele><time>2026-04-02T12:08:05.833Z</time></trkpt><trkpt lat="41.8211717" lon="13.0014433"><ele>256.6666666666667</ele><time>2026-04-02T12:08:06.832Z</time></trkpt><trkpt lat="41.8210583" lon="13.0012"><ele>257.0</ele><time>2026-04-02T12:08:07.833Z</time></trkpt><trkpt lat="41.8209467" lon="13.0009517"><ele>257.33333333333337</ele><time>2026-04-02T12:08:08.833Z</time></trkpt><trkpt lat="41.8208367" lon="13.0007067"><ele>257.6666666666667</ele><time>2026-04-02T12:08:09.833Z</time></trkpt><trkpt lat="41.8207217" lon="13.00046"><ele>258.0</ele><time>2026-04-02T12:08:10.834Z</time></trkpt><trkpt lat="41.8206067" lon="13.0002167"><ele>258.0</ele><time>2026-04-02T12:08:11.834Z</time></trkpt><trkpt lat="41.82049" lon="12.999985"><ele>258.0</ele><time>2026-04-02T12:08:12.834Z</time></trkpt><trkpt lat="41.8203783" lon="12.9997633"><ele>258.0</ele><time>2026-04-02T12:08:13.835Z</time></trkpt><trkpt lat="41.820275" lon="12.9995583"><ele>258.0</ele><time>2026-04-02T12:08:14.836Z</time></trkpt><trkpt lat="41.8201783" lon="12.9993667"><ele>258.0</ele><time>2026-04-02T12:08:15.835Z</time></trkpt><trkpt lat="41.8200917" lon="12.9991917"><ele>258.0</ele><time>2026-04-02T12:08:16.834Z</time></trkpt><trkpt lat="41.82001" lon="12.999025"><ele>257.5</ele><time>2026-04-02T12:08:17.835Z</time></trkpt><trkpt lat="41.819935" lon="12.99885"><ele>257.0</ele><time>2026-04-02T12:08:18.835Z</time></trkpt><trkpt lat="41.8198767" lon="12.9986633"><ele>256.5</ele><time>2026-04-02T12:08:19.835Z</time></trkpt><trkpt lat="41.8198317" lon="12.9984883"><ele>256.0</ele><time>2026-04-02T12:08:20.835Z</time></trkpt><trkpt lat="41.81981" lon="12.9983367"><ele>256.16666666666663</ele><time>2026-04-02T12:08:21.835Z</time></trkpt><trkpt lat="41.819795" lon="12.99819"><ele>256.3333333333333</ele><time>2026-04-02T12:08:22.835Z</time></trkpt><trkpt lat="41.8197783" lon="12.99806"><ele>256.5</ele><time>2026-04-02T12:08:23.834Z</time></trkpt><trkpt lat="41.8197467" lon="12.9979533"><ele>256.6666666666667</ele><time>2026-04-02T12:08:24.835Z</time></trkpt><trkpt lat="41.8197033" lon="12.9978733"><ele>256.83333333333337</ele><time>2026-04-02T12:08:25.834Z</time></trkpt><trkpt lat="41.8196483" lon="12.99782"><ele>257.0</ele><time>2026-04-02T12:08:26.837Z</time></trkpt><trkpt lat="41.8195883" lon="12.997785"><ele>257.0</ele><time>2026-04-02T12:08:27.835Z</time></trkpt><trkpt lat="41.819475" lon="12.9977433"><ele>257.0</ele><time>2026-04-02T12:08:29.833Z</time></trkpt><trkpt lat="41.8194167" lon="12.9976817"><ele>257.0</ele><time>2026-04-02T12:08:31.832Z</time></trkpt><trkpt lat="41.81942" lon="12.99759"><ele>257.0</ele><time>2026-04-02T12:08:33.833Z</time></trkpt><trkpt lat="41.8194283" lon="12.9974917"><ele>257.0</ele><time>2026-04-02T12:08:36.834Z</time></trkpt><trkpt lat="41.8193333" lon="12.9973917"><ele>256.5</ele><time>2026-04-02T12:13:28.833Z</time></trkpt><trkpt lat="41.8192567" lon="12.9974133"><ele>256.0</ele><time>2026-04-02T12:13:31.835Z</time></trkpt><trkpt lat="41.8192" lon="12.9974733"><ele>255.5</ele><time>2026-04-02T12:13:33.835Z</time></trkpt><trkpt lat="41.81918" lon="12.9975567"><ele>255.0</ele><time>2026-04-02T12:13:35.835Z</time></trkpt><trkpt lat="41.8192017" lon="12.9976617"><ele>254.50000000000003</ele><time>2026-04-02T12:13:37.835Z</time></trkpt><trkpt lat="41.81924" lon="12.9977917"><ele>254.0</ele><time>2026-04-02T12:13:39.835Z</time></trkpt><trkpt lat="41.8192933" lon="12.99793"><ele>254.6</ele><time>2026-04-02T12:13:41.835Z</time></trkpt><trkpt lat="41.81939" lon="12.997975"><ele>255.2</ele><time>2026-04-02T12:13:43.835Z</time></trkpt><trkpt lat="41.8195017" lon="12.9978983"><ele>255.79999999999998</ele><time>2026-04-02T12:13:45.834Z</time></trkpt><trkpt lat="41.8195933" lon="12.9978183"><ele>256.4</ele><time>2026-04-02T12:13:47.835Z</time></trkpt><trkpt lat="41.81966" lon="12.9977767"><ele>257.0</ele><time>2026-04-02T12:13:49.833Z</time></trkpt><trkpt lat="41.8197083" lon="12.9976933"><ele>257.0</ele><time>2026-04-02T12:13:54.834Z</time></trkpt><trkpt lat="41.8197483" lon="12.9975767"><ele>257.0</ele><time>2026-04-02T12:13:56.835Z</time></trkpt><trkpt lat="41.8197583" lon="12.9974717"><ele>257.0</ele><time>2026-04-02T12:13:57.835Z</time></trkpt><trkpt lat="41.81976" lon="12.9973517"><ele>257.0</ele><time>2026-04-02T12:13:58.834Z</time></trkpt><trkpt lat="41.8197517" lon="12.9972133"><ele>257.0</ele><time>2026-04-02T12:13:59.834Z</time></trkpt><trkpt lat="41.81975" lon="12.9970583"><ele>257.0</ele><time>2026-04-02T12:14:00.833Z</time></trkpt><trkpt lat="41.819745" lon="12.9969017"><ele>257.0</ele><time>2026-04-02T12:14:01.835Z</time></trkpt><trkpt lat="41.8197417" lon="12.9967417"><ele>257.0</ele><time>2026-04-02T12:14:02.837Z</time></trkpt><trkpt lat="41.8197383" lon="12.9965767"><ele>257.0</ele><time>2026-04-02T12:14:03.834Z</time></trkpt><trkpt lat="41.8197367" lon="12.99639"><ele>257.0</ele><time>2026-04-02T12:14:04.834Z</time></trkpt><trkpt lat="41.819735" lon="12.996195"><ele>257.0</ele><time>2026-04-02T12:14:05.834Z</time></trkpt><trkpt lat="41.81973" lon="12.9960033"><ele>257.0</ele><time>2026-04-02T12:14:06.835Z</time></trkpt><trkpt lat="41.81972" lon="12.9958067"><ele>257.0</ele><time>2026-04-02T12:14:07.835Z</time></trkpt><trkpt lat="41.819715" lon="12.9956017"><ele>256.6666666666667</ele><time>2026-04-02T12:14:08.837Z</time></trkpt><trkpt lat="41.8197083" lon="12.995385"><ele>256.3333333333333</ele><time>2026-04-02T12:14:09.833Z</time></trkpt><trkpt lat="41.8197" lon="12.9951617"><ele>256.0</ele><time>2026-04-02T12:14:10.835Z</time></trkpt><trkpt lat="41.8196933" lon="12.99493"><ele>256.0</ele><time>2026-04-02T12:14:11.835Z</time></trkpt><trkpt lat="41.8196867" lon="12.9946967"><ele>256.0</ele><time>2026-04-02T12:14:12.835Z</time></trkpt><trkpt lat="41.81968" lon="12.9944617"><ele>256.0</ele><time>2026-04-02T12:14:13.833Z</time></trkpt><trkpt lat="41.819675" lon="12.9942217"><ele>257.3333333333333</ele><time>2026-04-02T12:14:14.836Z</time></trkpt><trkpt lat="41.8196683" lon="12.9939917"><ele>258.6666666666667</ele><time>2026-04-02T12:14:15.835Z</time></trkpt><trkpt lat="41.8196617" lon="12.9937683"><ele>260.0</ele><time>2026-04-02T12:14:16.831Z</time></trkpt><trkpt lat="41.819655" lon="12.9935517"><ele>260.6666666666667</ele><time>2026-04-02T12:14:17.834Z</time></trkpt><trkpt lat="41.8196467" lon="12.993335"><ele>261.3333333333333</ele><time>2026-04-02T12:14:18.835Z</time></trkpt><trkpt lat="41.81964" lon="12.99312"><ele>262.0</ele><time>2026-04-02T12:14:19.835Z</time></trkpt><trkpt lat="41.8196317" lon="12.992905"><ele>262.0</ele><time>2026-04-02T12:14:20.835Z</time></trkpt><trkpt lat="41.8196267" lon="12.9926917"><ele>262.0</ele><time>2026-04-02T12:14:21.834Z</time></trkpt><trkpt lat="41.8196233" lon="12.9924767"><ele>262.0</ele><time>2026-04-02T12:14:22.835Z</time></trkpt><trkpt lat="41.8196217" lon="12.9922617"><ele>263.0</ele><time>2026-04-02T12:14:23.835Z</time></trkpt><trkpt lat="41.819615" lon="12.9920533"><ele>264.0</ele><time>2026-04-02T12:14:24.835Z</time></trkpt><trkpt lat="41.819605" lon="12.991845"><ele>265.0</ele><time>2026-04-02T12:14:25.835Z</time></trkpt><trkpt lat="41.8195967" lon="12.9916367"><ele>266.0</ele><time>2026-04-02T12:14:26.836Z</time></trkpt><trkpt lat="41.81959" lon="12.9914283"><ele>267.0</ele><time>2026-04-02T12:14:27.834Z</time></trkpt><trkpt lat="41.8195883" lon="12.9912183"><ele>268.0</ele><time>2026-04-02T12:14:28.832Z</time></trkpt><trkpt lat="41.819585" lon="12.9910033"><ele>268.3333333333333</ele><time>2026-04-02T12:14:29.83Z</time></trkpt><trkpt lat="41.8195817" lon="12.9907817"><ele>268.6666666666667</ele><time>2026-04-02T12:14:30.835Z</time></trkpt><trkpt lat="41.8195717" lon="12.9905583"><ele>269.0</ele><time>2026-04-02T12:14:31.835Z</time></trkpt><trkpt lat="41.8195583" lon="12.9903333"><ele>269.0</ele><time>2026-04-02T12:14:32.836Z</time></trkpt><trkpt lat="41.8195483" lon="12.9901017"><ele>269.0</ele><time>2026-04-02T12:14:33.834Z</time></trkpt><trkpt lat="41.819535" lon="12.989865"><ele>269.0</ele><time>2026-04-02T12:14:34.833Z</time></trkpt><trkpt lat="41.81952" lon="12.9896233"><ele>269.33333333333337</ele><time>2026-04-02T12:14:35.835Z</time></trkpt><trkpt lat="41.8194983" lon="12.98938"><ele>269.6666666666667</ele><time>2026-04-02T12:14:36.835Z</time></trkpt><trkpt lat="41.8194733" lon="12.9891333"><ele>270.0</ele><time>2026-04-02T12:14:37.835Z</time></trkpt><trkpt lat="41.8194467" lon="12.98888"><ele>270.0</ele><time>2026-04-02T12:14:38.838Z</time></trkpt><trkpt lat="41.8194133" lon="12.9886367"><ele>270.0</ele><time>2026-04-02T12:14:39.833Z</time></trkpt><trkpt lat="41.8193767" lon="12.988395"><ele>270.0</ele><time>2026-04-02T12:14:40.831Z</time></trkpt><trkpt lat="41.81934" lon="12.9881517"><ele>271.6666666666667</ele><time>2026-04-02T12:14:41.835Z</time></trkpt><trkpt lat="41.819305" lon="12.9879033"><ele>273.33333333333337</ele><time>2026-04-02T12:14:42.833Z</time></trkpt><trkpt lat="41.8192717" lon="12.987655"><ele>275.0</ele><time>2026-04-02T12:14:43.833Z</time></trkpt><trkpt lat="41.819235" lon="12.987405"><ele>275.0</ele><time>2026-04-02T12:14:44.835Z</time></trkpt><trkpt lat="41.819195" lon="12.987155"><ele>275.0</ele><time>2026-04-02T12:14:45.834Z</time></trkpt><trkpt lat="41.819155" lon="12.9869067"><ele>275.0</ele><time>2026-04-02T12:14:46.834Z</time></trkpt><trkpt lat="41.81911" lon="12.986655"><ele>275.33333333333337</ele><time>2026-04-02T12:14:47.835Z</time></trkpt><trkpt lat="41.819065" lon="12.9864033"><ele>275.6666666666667</ele><time>2026-04-02T12:14:48.833Z</time></trkpt><trkpt lat="41.81902" lon="12.98615"><ele>276.0</ele><time>2026-04-02T12:14:49.836Z</time></trkpt><trkpt lat="41.8189767" lon="12.985895"><ele>277.0</ele><time>2026-04-02T12:14:50.834Z</time></trkpt><trkpt lat="41.81893" lon="12.9856417"><ele>278.0</ele><time>2026-04-02T12:14:51.835Z</time></trkpt><trkpt lat="41.8188717" lon="12.98539"><ele>279.0</ele><time>2026-04-02T12:14:52.834Z</time></trkpt><trkpt lat="41.8188033" lon="12.9851433"><ele>279.0</ele><time>2026-04-02T12:14:53.834Z</time></trkpt><trkpt lat="41.8187333" lon="12.9849033"><ele>279.0</ele><time>2026-04-02T12:14:54.835Z</time></trkpt><trkpt lat="41.818665" lon="12.9846617"><ele>279.0</ele><time>2026-04-02T12:14:55.833Z</time></trkpt><trkpt lat="41.818605" lon="12.9844167"><ele>278.3333333333333</ele><time>2026-04-02T12:14:56.836Z</time></trkpt><trkpt lat="41.8185617" lon="12.9841633"><ele>277.66666666666663</ele><time>2026-04-02T12:14:57.834Z</time></trkpt><trkpt lat="41.81853" lon="12.9839017"><ele>277.0</ele><time>2026-04-02T12:14:58.834Z</time></trkpt><trkpt lat="41.8185033" lon="12.983635"><ele>278.0</ele><time>2026-04-02T12:14:59.833Z</time></trkpt><trkpt lat="41.8184783" lon="12.9833617"><ele>279.0</ele><time>2026-04-02T12:15:00.834Z</time></trkpt><trkpt lat="41.8184517" lon="12.9830917"><ele>280.0</ele><time>2026-04-02T12:15:01.835Z</time></trkpt><trkpt lat="41.8184233" lon="12.9828167"><ele>280.66666666666663</ele><time>2026-04-02T12:15:02.834Z</time></trkpt><trkpt lat="41.8183967" lon="12.9825367"><ele>281.3333333333333</ele><time>2026-04-02T12:15:03.835Z</time></trkpt><trkpt lat="41.8183733" lon="12.9822583"><ele>282.0</ele><time>2026-04-02T12:15:04.834Z</time></trkpt><trkpt lat="41.81835" lon="12.98198"><ele>282.3333333333333</ele><time>2026-04-02T12:15:05.835Z</time></trkpt><trkpt lat="41.8183233" lon="12.981705"><ele>282.66666666666663</ele><time>2026-04-02T12:15:06.831Z</time></trkpt><trkpt lat="41.8182967" lon="12.9814333"><ele>283.0</ele><time>2026-04-02T12:15:07.833Z</time></trkpt><trkpt lat="41.81827" lon="12.9811617"><ele>283.0</ele><time>2026-04-02T12:15:08.836Z</time></trkpt><trkpt lat="41.8182467" lon="12.98089"><ele>283.0</ele><time>2026-04-02T12:15:09.835Z</time></trkpt><trkpt lat="41.81822" lon="12.9806217"><ele>283.0</ele><time>2026-04-02T12:15:10.831Z</time></trkpt><trkpt lat="41.8181933" lon="12.9803567"><ele>284.3333333333333</ele><time>2026-04-02T12:15:11.834Z</time></trkpt><trkpt lat="41.8181717" lon="12.98009"><ele>285.6666666666667</ele><time>2026-04-02T12:15:12.828Z</time></trkpt><trkpt lat="41.81815" lon="12.9798233"><ele>287.0</ele><time>2026-04-02T12:15:13.835Z</time></trkpt><trkpt lat="41.8181317" lon="12.9795533"><ele>287.6666666666667</ele><time>2026-04-02T12:15:14.835Z</time></trkpt><trkpt lat="41.8181217" lon="12.9792833"><ele>288.3333333333333</ele><time>2026-04-02T12:15:15.835Z</time></trkpt><trkpt lat="41.818115" lon="12.9790067"><ele>289.0</ele><time>2026-04-02T12:15:16.833Z</time></trkpt><trkpt lat="41.81812" lon="12.9787283"><ele>289.0</ele><time>2026-04-02T12:15:17.835Z</time></trkpt><trkpt lat="41.8181183" lon="12.97845"><ele>289.0</ele><time>2026-04-02T12:15:18.831Z</time></trkpt><trkpt lat="41.8181133" lon="12.97818"><ele>289.0</ele><time>2026-04-02T12:15:19.832Z</time></trkpt><trkpt lat="41.8181067" lon="12.977915"><ele>289.66666666666663</ele><time>2026-04-02T12:15:20.831Z</time></trkpt><trkpt lat="41.818105" lon="12.9776483"><ele>290.3333333333333</ele><time>2026-04-02T12:15:21.833Z</time></trkpt><trkpt lat="41.81811" lon="12.9773783"><ele>291.0</ele><time>2026-04-02T12:15:22.832Z</time></trkpt><trkpt lat="41.8181167" lon="12.9771067"><ele>291.6666666666667</ele><time>2026-04-02T12:15:23.833Z</time></trkpt><trkpt lat="41.8181217" lon="12.9768367"><ele>292.33333333333337</ele><time>2026-04-02T12:15:24.833Z</time></trkpt><trkpt lat="41.8181283" lon="12.976565"><ele>293.0</ele><time>2026-04-02T12:15:25.831Z</time></trkpt><trkpt lat="41.818135" lon="12.9762917"><ele>293.33333333333337</ele><time>2026-04-02T12:15:26.834Z</time></trkpt><trkpt lat="41.81814" lon="12.9760183"><ele>293.6666666666667</ele><time>2026-04-02T12:15:27.833Z</time></trkpt><trkpt lat="41.8181417" lon="12.9757467"><ele>294.0</ele><time>2026-04-02T12:15:28.832Z</time></trkpt><trkpt lat="41.8181433" lon="12.9754783"><ele>294.0</ele><time>2026-04-02T12:15:29.832Z</time></trkpt><trkpt lat="41.81815" lon="12.975215"><ele>294.0</ele><time>2026-04-02T12:15:30.835Z</time></trkpt><trkpt lat="41.8181683" lon="12.9749517"><ele>294.0</ele><time>2026-04-02T12:15:31.835Z</time></trkpt><trkpt lat="41.8181933" lon="12.9747017"><ele>294.6666666666667</ele><time>2026-04-02T12:15:32.835Z</time></trkpt><trkpt lat="41.8182267" lon="12.97447"><ele>295.33333333333337</ele><time>2026-04-02T12:15:33.835Z</time></trkpt><trkpt lat="41.8182683" lon="12.9742567"><ele>296.0</ele><time>2026-04-02T12:15:34.833Z</time></trkpt><trkpt lat="41.8183217" lon="12.9740633"><ele>296.0</ele><time>2026-04-02T12:15:35.834Z</time></trkpt><trkpt lat="41.8183967" lon="12.973895"><ele>296.0</ele><time>2026-04-02T12:15:36.835Z</time></trkpt><trkpt lat="41.8184883" lon="12.973755"><ele>296.0</ele><time>2026-04-02T12:15:37.835Z</time></trkpt><trkpt lat="41.8185967" lon="12.9736317"><ele>296.0</ele><time>2026-04-02T12:15:38.835Z</time></trkpt><trkpt lat="41.818715" lon="12.9735167"><ele>296.0</ele><time>2026-04-02T12:15:39.835Z</time></trkpt><trkpt lat="41.8188433" lon="12.9734067"><ele>296.0</ele><time>2026-04-02T12:15:40.835Z</time></trkpt><trkpt lat="41.81898" lon="12.9733"><ele>296.0</ele><time>2026-04-02T12:15:41.835Z</time></trkpt><trkpt lat="41.8191217" lon="12.97319"><ele>297.0</ele><time>2026-04-02T12:15:42.833Z</time></trkpt><trkpt lat="41.8192683" lon="12.9730817"><ele>298.0</ele><time>2026-04-02T12:15:43.834Z</time></trkpt><trkpt lat="41.8194067" lon="12.9729683"><ele>299.0</ele><time>2026-04-02T12:15:44.836Z</time></trkpt><trkpt lat="41.8195467" lon="12.9728567"><ele>299.0</ele><time>2026-04-02T12:15:45.833Z</time></trkpt><trkpt lat="41.81969" lon="12.9727583"><ele>299.0</ele><time>2026-04-02T12:15:46.834Z</time></trkpt><trkpt lat="41.8198383" lon="12.9726633"><ele>299.0</ele><time>2026-04-02T12:15:47.835Z</time></trkpt><trkpt lat="41.81999" lon="12.9725633"><ele>299.0</ele><time>2026-04-02T12:15:48.832Z</time></trkpt><trkpt lat="41.8201433" lon="12.9724567"><ele>299.0</ele><time>2026-04-02T12:15:49.833Z</time></trkpt><trkpt lat="41.8202983" lon="12.972345"><ele>299.0</ele><time>2026-04-02T12:15:50.833Z</time></trkpt><trkpt lat="41.8204533" lon="12.9722267"><ele>299.0</ele><time>2026-04-02T12:15:51.833Z</time></trkpt><trkpt lat="41.82061" lon="12.9721117"><ele>299.0</ele><time>2026-04-02T12:15:52.83Z</time></trkpt><trkpt lat="41.820765" lon="12.9719917"><ele>299.0</ele><time>2026-04-02T12:15:53.832Z</time></trkpt><trkpt lat="41.8209217" lon="12.9718733"><ele>299.0</ele><time>2026-04-02T12:15:54.832Z</time></trkpt><trkpt lat="41.82108" lon="12.971755"><ele>299.0</ele><time>2026-04-02T12:15:55.833Z</time></trkpt><trkpt lat="41.82124" lon="12.9716367"><ele>299.0</ele><time>2026-04-02T12:15:56.833Z</time></trkpt><trkpt lat="41.8214017" lon="12.9715183"><ele>299.6666666666667</ele><time>2026-04-02T12:15:57.832Z</time></trkpt><trkpt lat="41.8215633" lon="12.9714"><ele>300.3333333333333</ele><time>2026-04-02T12:15:58.831Z</time></trkpt><trkpt lat="41.8217283" lon="12.9712817"><ele>301.0</ele><time>2026-04-02T12:15:59.835Z</time></trkpt><trkpt lat="41.8218917" lon="12.9711633"><ele>301.0</ele><time>2026-04-02T12:16:00.835Z</time></trkpt><trkpt lat="41.8220583" lon="12.97105"><ele>301.0</ele><time>2026-04-02T12:16:01.834Z</time></trkpt><trkpt lat="41.822225" lon="12.97094"><ele>301.0</ele><time>2026-04-02T12:16:02.836Z</time></trkpt><trkpt lat="41.8223917" lon="12.9708283"><ele>302.3333333333333</ele><time>2026-04-02T12:16:03.834Z</time></trkpt><trkpt lat="41.8225583" lon="12.9707167"><ele>303.6666666666667</ele><time>2026-04-02T12:16:04.834Z</time></trkpt><trkpt lat="41.8227283" lon="12.9706083"><ele>305.0</ele><time>2026-04-02T12:16:05.834Z</time></trkpt><trkpt lat="41.822895" lon="12.9704983"><ele>305.0</ele><time>2026-04-02T12:16:06.835Z</time></trkpt><trkpt lat="41.823065" lon="12.9703883"><ele>305.0</ele><time>2026-04-02T12:16:07.834Z</time></trkpt><trkpt lat="41.823245" lon="12.9702883"><ele>305.0</ele><time>2026-04-02T12:16:08.836Z</time></trkpt><trkpt lat="41.8234183" lon="12.9701833"><ele>305.33333333333337</ele><time>2026-04-02T12:16:09.834Z</time></trkpt><trkpt lat="41.8235967" lon="12.9700783"><ele>305.6666666666667</ele><time>2026-04-02T12:16:10.834Z</time></trkpt><trkpt lat="41.8237717" lon="12.9699817"><ele>306.0</ele><time>2026-04-02T12:16:11.831Z</time></trkpt><trkpt lat="41.8239333" lon="12.969885"><ele>307.0</ele><time>2026-04-02T12:16:12.835Z</time></trkpt><trkpt lat="41.8240883" lon="12.9697967"><ele>308.0</ele><time>2026-04-02T12:16:13.834Z</time></trkpt><trkpt lat="41.824235" lon="12.96973"><ele>309.0</ele><time>2026-04-02T12:16:14.835Z</time></trkpt><trkpt lat="41.8243767" lon="12.96969"><ele>309.5</ele><time>2026-04-02T12:16:15.834Z</time></trkpt><trkpt lat="41.824515" lon="12.9696817"><ele>310.0</ele><time>2026-04-02T12:16:16.834Z</time></trkpt><trkpt lat="41.8246517" lon="12.9696817"><ele>310.5</ele><time>2026-04-02T12:16:17.833Z</time></trkpt><trkpt lat="41.8247617" lon="12.9696967"><ele>311.0</ele><time>2026-04-02T12:16:18.831Z</time></trkpt><trkpt lat="41.82486" lon="12.9697067"><ele>311.0</ele><time>2026-04-02T12:16:19.832Z</time></trkpt><trkpt lat="41.824945" lon="12.9697033"><ele>311.0</ele><time>2026-04-02T12:16:20.831Z</time></trkpt><trkpt lat="41.8250217" lon="12.9696833"><ele>311.0</ele><time>2026-04-02T12:16:21.829Z</time></trkpt><trkpt lat="41.8250833" lon="12.96957"><ele>311.0</ele><time>2026-04-02T12:16:23.833Z</time></trkpt><trkpt lat="41.8250233" lon="12.9694067"><ele>311.0</ele><time>2026-04-02T12:16:25.831Z</time></trkpt><trkpt lat="41.82496" lon="12.9693433"><ele>311.0</ele><time>2026-04-02T12:16:26.83Z</time></trkpt><trkpt lat="41.8248517" lon="12.96932"><ele>311.0</ele><time>2026-04-02T12:16:27.831Z</time></trkpt><trkpt lat="41.82471" lon="12.9693133"><ele>311.0</ele><time>2026-04-02T12:16:28.832Z</time></trkpt><trkpt lat="41.824585" lon="12.9692967"><ele>311.0</ele><time>2026-04-02T12:16:29.834Z</time></trkpt><trkpt lat="41.8244433" lon="12.96929"><ele>310.33333333333337</ele><time>2026-04-02T12:16:30.832Z</time></trkpt><trkpt lat="41.8242917" lon="12.9692867"><ele>309.6666666666667</ele><time>2026-04-02T12:16:31.835Z</time></trkpt><trkpt lat="41.824135" lon="12.969275"><ele>309.0</ele><time>2026-04-02T12:16:32.837Z</time></trkpt><trkpt lat="41.8239683" lon="12.96926"><ele>309.0</ele><time>2026-04-02T12:16:33.835Z</time></trkpt><trkpt lat="41.8237933" lon="12.96926"><ele>309.0</ele><time>2026-04-02T12:16:34.835Z</time></trkpt><trkpt lat="41.8236183" lon="12.9692867"><ele>309.0</ele><time>2026-04-02T12:16:35.834Z</time></trkpt><trkpt lat="41.8234533" lon="12.9693217"><ele>309.6666666666667</ele><time>2026-04-02T12:16:36.834Z</time></trkpt><trkpt lat="41.8232817" lon="12.9693633"><ele>310.33333333333337</ele><time>2026-04-02T12:16:37.833Z</time></trkpt><trkpt lat="41.8231033" lon="12.969385"><ele>311.0</ele><time>2026-04-02T12:16:38.834Z</time></trkpt><trkpt lat="41.8229183" lon="12.9693817"><ele>311.0</ele><time>2026-04-02T12:16:39.833Z</time></trkpt><trkpt lat="41.8227283" lon="12.96935"><ele>311.0</ele><time>2026-04-02T12:16:40.834Z</time></trkpt><trkpt lat="41.8225467" lon="12.9693"><ele>311.0</ele><time>2026-04-02T12:16:41.835Z</time></trkpt><trkpt lat="41.8223883" lon="12.9692367"><ele>318.33333333333337</ele><time>2026-04-02T12:16:42.833Z</time></trkpt><trkpt lat="41.82225" lon="12.969145"><ele>325.6666666666667</ele><time>2026-04-02T12:16:43.835Z</time></trkpt><trkpt lat="41.822135" lon="12.9690083"><ele>333.0</ele><time>2026-04-02T12:16:44.835Z</time></trkpt><trkpt lat="41.8220417" lon="12.96883"><ele>333.0</ele><time>2026-04-02T12:16:45.835Z</time></trkpt><trkpt lat="41.8219717" lon="12.9686117"><ele>333.0</ele><time>2026-04-02T12:16:46.834Z</time></trkpt><trkpt lat="41.8219117" lon="12.9683717"><ele>333.0</ele><time>2026-04-02T12:16:47.833Z</time></trkpt><trkpt lat="41.8218483" lon="12.9681283"><ele>333.3333333333333</ele><time>2026-04-02T12:16:48.832Z</time></trkpt><trkpt lat="41.8217783" lon="12.9678883"><ele>333.66666666666663</ele><time>2026-04-02T12:16:49.832Z</time></trkpt><trkpt lat="41.8216967" lon="12.96766"><ele>334.0</ele><time>2026-04-02T12:16:50.833Z</time></trkpt><trkpt lat="41.821595" lon="12.9674533"><ele>337.3333333333333</ele><time>2026-04-02T12:16:51.833Z</time></trkpt><trkpt lat="41.82149" lon="12.967255"><ele>340.6666666666667</ele><time>2026-04-02T12:16:52.833Z</time></trkpt><trkpt lat="41.821385" lon="12.96707"><ele>344.0</ele><time>2026-04-02T12:16:53.833Z</time></trkpt><trkpt lat="41.8212717" lon="12.9668967"><ele>344.0</ele><time>2026-04-02T12:16:54.833Z</time></trkpt><trkpt lat="41.8211567" lon="12.966725"><ele>344.0</ele><time>2026-04-02T12:16:55.833Z</time></trkpt><trkpt lat="41.8210433" lon="12.9665483"><ele>344.0</ele><time>2026-04-02T12:16:56.832Z</time></trkpt><trkpt lat="41.82093" lon="12.9663767"><ele>345.33333333333337</ele><time>2026-04-02T12:16:57.833Z</time></trkpt><trkpt lat="41.8208233" lon="12.9662117"><ele>346.6666666666667</ele><time>2026-04-02T12:16:58.832Z</time></trkpt><trkpt lat="41.8207317" lon="12.9660467"><ele>348.0</ele><time>2026-04-02T12:16:59.835Z</time></trkpt><trkpt lat="41.820655" lon="12.965885"><ele>349.2</ele><time>2026-04-02T12:17:00.834Z</time></trkpt><trkpt lat="41.8206083" lon="12.9657317"><ele>350.4</ele><time>2026-04-02T12:17:01.833Z</time></trkpt><trkpt lat="41.8205883" lon="12.9655933"><ele>351.59999999999997</ele><time>2026-04-02T12:17:02.836Z</time></trkpt><trkpt lat="41.8205783" lon="12.96546"><ele>352.79999999999995</ele><time>2026-04-02T12:17:03.831Z</time></trkpt><trkpt lat="41.8205733" lon="12.96532"><ele>354.0</ele><time>2026-04-02T12:17:04.834Z</time></trkpt><trkpt lat="41.820575" lon="12.96517"><ele>355.25</ele><time>2026-04-02T12:17:05.834Z</time></trkpt><trkpt lat="41.820585" lon="12.965015"><ele>356.5</ele><time>2026-04-02T12:17:06.835Z</time></trkpt><trkpt lat="41.820595" lon="12.9648467"><ele>357.75</ele><time>2026-04-02T12:17:07.834Z</time></trkpt><trkpt lat="41.8206017" lon="12.9646617"><ele>359.0</ele><time>2026-04-02T12:17:08.835Z</time></trkpt><trkpt lat="41.82061" lon="12.9644583"><ele>359.0</ele><time>2026-04-02T12:17:09.832Z</time></trkpt><trkpt lat="41.8206233" lon="12.964245"><ele>359.0</ele><time>2026-04-02T12:17:10.83Z</time></trkpt><trkpt lat="41.82064" lon="12.96403"><ele>359.0</ele><time>2026-04-02T12:17:11.833Z</time></trkpt><trkpt lat="41.82066" lon="12.9638117"><ele>359.33333333333337</ele><time>2026-04-02T12:17:12.834Z</time></trkpt><trkpt lat="41.8206783" lon="12.9635883"><ele>359.6666666666667</ele><time>2026-04-02T12:17:13.834Z</time></trkpt><trkpt lat="41.8206917" lon="12.96336"><ele>360.0</ele><time>2026-04-02T12:17:14.835Z</time></trkpt><trkpt lat="41.8206917" lon="12.963125"><ele>360.0</ele><time>2026-04-02T12:17:15.831Z</time></trkpt><trkpt lat="41.82068" lon="12.9628833"><ele>360.0</ele><time>2026-04-02T12:17:16.833Z</time></trkpt><trkpt lat="41.8206533" lon="12.9626367"><ele>360.0</ele><time>2026-04-02T12:17:17.832Z</time></trkpt><trkpt lat="41.8206217" lon="12.9623833"><ele>360.3333333333333</ele><time>2026-04-02T12:17:18.832Z</time></trkpt><trkpt lat="41.8205933" lon="12.9621267"><ele>360.66666666666663</ele><time>2026-04-02T12:17:19.831Z</time></trkpt><trkpt lat="41.820565" lon="12.9618717"><ele>361.0</ele><time>2026-04-02T12:17:20.831Z</time></trkpt><trkpt lat="41.8205383" lon="12.9616183"><ele>362.3333333333333</ele><time>2026-04-02T12:17:21.832Z</time></trkpt><trkpt lat="41.8205133" lon="12.9613617"><ele>363.6666666666667</ele><time>2026-04-02T12:17:22.831Z</time></trkpt><trkpt lat="41.8204917" lon="12.9611017"><ele>365.0</ele><time>2026-04-02T12:17:23.832Z</time></trkpt><trkpt lat="41.8204783" lon="12.9608367"><ele>365.6666666666667</ele><time>2026-04-02T12:17:24.836Z</time></trkpt><trkpt lat="41.8204817" lon="12.9605683"><ele>366.3333333333333</ele><time>2026-04-02T12:17:25.833Z</time></trkpt><trkpt lat="41.820485" lon="12.9603017"><ele>367.0</ele><time>2026-04-02T12:17:26.833Z</time></trkpt><trkpt lat="41.820475" lon="12.9600333"><ele>368.3333333333333</ele><time>2026-04-02T12:17:27.833Z</time></trkpt><trkpt lat="41.820445" lon="12.959765"><ele>369.6666666666667</ele><time>2026-04-02T12:17:28.833Z</time></trkpt><trkpt lat="41.8203917" lon="12.959505"><ele>371.0</ele><time>2026-04-02T12:17:29.833Z</time></trkpt><trkpt lat="41.8203267" lon="12.9592483"><ele>371.33333333333337</ele><time>2026-04-02T12:17:30.835Z</time></trkpt><trkpt lat="41.8202483" lon="12.95899"><ele>371.6666666666667</ele><time>2026-04-02T12:17:31.834Z</time></trkpt><trkpt lat="41.8201683" lon="12.9587317"><ele>372.0</ele><time>2026-04-02T12:17:32.834Z</time></trkpt><trkpt lat="41.82009" lon="12.9584767"><ele>371.6666666666667</ele><time>2026-04-02T12:17:33.834Z</time></trkpt><trkpt lat="41.8200183" lon="12.95822"><ele>371.33333333333337</ele><time>2026-04-02T12:17:34.832Z</time></trkpt><trkpt lat="41.8199583" lon="12.9579583"><ele>371.0</ele><time>2026-04-02T12:17:35.832Z</time></trkpt><trkpt lat="41.8199133" lon="12.9576933"><ele>371.6666666666667</ele><time>2026-04-02T12:17:36.831Z</time></trkpt><trkpt lat="41.8198833" lon="12.957425"><ele>372.3333333333333</ele><time>2026-04-02T12:17:37.832Z</time></trkpt><trkpt lat="41.8198683" lon="12.9571533"><ele>373.0</ele><time>2026-04-02T12:17:38.835Z</time></trkpt><trkpt lat="41.819855" lon="12.9568833"><ele>373.3333333333333</ele><time>2026-04-02T12:17:39.831Z</time></trkpt><trkpt lat="41.81984" lon="12.9566167"><ele>373.6666666666667</ele><time>2026-04-02T12:17:40.834Z</time></trkpt><trkpt lat="41.819825" lon="12.956345"><ele>374.0</ele><time>2026-04-02T12:17:41.832Z</time></trkpt><trkpt lat="41.8198067" lon="12.95607"><ele>374.6666666666667</ele><time>2026-04-02T12:17:42.832Z</time></trkpt><trkpt lat="41.8197933" lon="12.9557933"><ele>375.3333333333333</ele><time>2026-04-02T12:17:43.835Z</time></trkpt><trkpt lat="41.8197833" lon="12.95551"><ele>376.0</ele><time>2026-04-02T12:17:44.834Z</time></trkpt><trkpt lat="41.8197717" lon="12.95522"><ele>376.3333333333333</ele><time>2026-04-02T12:17:45.833Z</time></trkpt><trkpt lat="41.8197617" lon="12.954925"><ele>376.6666666666667</ele><time>2026-04-02T12:17:46.834Z</time></trkpt><trkpt lat="41.81975" lon="12.9546267"><ele>377.0</ele><time>2026-04-02T12:17:47.832Z</time></trkpt><trkpt lat="41.819735" lon="12.9543283"><ele>377.6666666666667</ele><time>2026-04-02T12:17:48.831Z</time></trkpt><trkpt lat="41.8197233" lon="12.9540383"><ele>378.3333333333333</ele><time>2026-04-02T12:17:49.833Z</time></trkpt><trkpt lat="41.8197133" lon="12.9537517"><ele>379.0</ele><time>2026-04-02T12:17:50.833Z</time></trkpt><trkpt lat="41.8197017" lon="12.953465"><ele>379.66666666666663</ele><time>2026-04-02T12:17:51.832Z</time></trkpt><trkpt lat="41.8196867" lon="12.9531767"><ele>380.3333333333333</ele><time>2026-04-02T12:17:52.832Z</time></trkpt><trkpt lat="41.819675" lon="12.952885"><ele>381.0</ele><time>2026-04-02T12:17:53.832Z</time></trkpt><trkpt lat="41.819665" lon="12.9525933"><ele>381.6666666666667</ele><time>2026-04-02T12:17:54.834Z</time></trkpt><trkpt lat="41.819655" lon="12.952305"><ele>382.33333333333337</ele><time>2026-04-02T12:17:55.831Z</time></trkpt><trkpt lat="41.8196433" lon="12.9520133"><ele>383.0</ele><time>2026-04-02T12:17:56.834Z</time></trkpt><trkpt lat="41.8196333" lon="12.9517217"><ele>383.0</ele><time>2026-04-02T12:17:57.833Z</time></trkpt><trkpt lat="41.81962" lon="12.95143"><ele>383.0</ele><time>2026-04-02T12:17:58.833Z</time></trkpt><trkpt lat="41.8196067" lon="12.9511383"><ele>383.0</ele><time>2026-04-02T12:17:59.834Z</time></trkpt><trkpt lat="41.8195917" lon="12.9508483"><ele>383.0</ele><time>2026-04-02T12:18:00.834Z</time></trkpt><trkpt lat="41.8195767" lon="12.9505567"><ele>383.0</ele><time>2026-04-02T12:18:01.834Z</time></trkpt><trkpt lat="41.8195633" lon="12.9502683"><ele>383.0</ele><time>2026-04-02T12:18:02.835Z</time></trkpt><trkpt lat="41.8195517" lon="12.9499833"><ele>383.0</ele><time>2026-04-02T12:18:03.834Z</time></trkpt><trkpt lat="41.8195433" lon="12.9497"><ele>383.0</ele><time>2026-04-02T12:18:04.834Z</time></trkpt><trkpt lat="41.819535" lon="12.94942"><ele>383.0</ele><time>2026-04-02T12:18:05.834Z</time></trkpt><trkpt lat="41.819525" lon="12.94914"><ele>383.33333333333337</ele><time>2026-04-02T12:18:06.834Z</time></trkpt><trkpt lat="41.8195133" lon="12.9488583"><ele>383.6666666666667</ele><time>2026-04-02T12:18:07.833Z</time></trkpt><trkpt lat="41.819505" lon="12.9485767"><ele>384.0</ele><time>2026-04-02T12:18:08.835Z</time></trkpt><trkpt lat="41.819495" lon="12.948295"><ele>384.0</ele><time>2026-04-02T12:18:09.833Z</time></trkpt><trkpt lat="41.8194867" lon="12.9480117"><ele>384.0</ele><time>2026-04-02T12:18:10.833Z</time></trkpt><trkpt lat="41.8194767" lon="12.9477283"><ele>384.0</ele><time>2026-04-02T12:18:11.835Z</time></trkpt><trkpt lat="41.8194717" lon="12.9474433"><ele>384.33333333333337</ele><time>2026-04-02T12:18:12.833Z</time></trkpt><trkpt lat="41.8194667" lon="12.9471583"><ele>384.6666666666667</ele><time>2026-04-02T12:18:13.834Z</time></trkpt><trkpt lat="41.819465" lon="12.9468717"><ele>385.0</ele><time>2026-04-02T12:18:14.833Z</time></trkpt><trkpt lat="41.819455" lon="12.9465833"><ele>385.0</ele><time>2026-04-02T12:18:15.831Z</time></trkpt><trkpt lat="41.8194433" lon="12.9462933"><ele>385.0</ele><time>2026-04-02T12:18:16.832Z</time></trkpt><trkpt lat="41.81943" lon="12.9460067"><ele>385.0</ele><time>2026-04-02T12:18:17.831Z</time></trkpt><trkpt lat="41.8194133" lon="12.9457233"><ele>385.0</ele><time>2026-04-02T12:18:18.832Z</time></trkpt><trkpt lat="41.8193967" lon="12.9454433"><ele>385.0</ele><time>2026-04-02T12:18:19.832Z</time></trkpt><trkpt lat="41.8193817" lon="12.945175"><ele>385.0</ele><time>2026-04-02T12:18:20.833Z</time></trkpt><trkpt lat="41.8193733" lon="12.9449083"><ele>385.0</ele><time>2026-04-02T12:18:21.835Z</time></trkpt><trkpt lat="41.8193767" lon="12.94464"><ele>385.0</ele><time>2026-04-02T12:18:22.836Z</time></trkpt><trkpt lat="41.81939" lon="12.9443667"><ele>385.0</ele><time>2026-04-02T12:18:23.833Z</time></trkpt><trkpt lat="41.81941" lon="12.9440867"><ele>384.6666666666667</ele><time>2026-04-02T12:18:24.835Z</time></trkpt><trkpt lat="41.8194317" lon="12.9438067"><ele>384.33333333333337</ele><time>2026-04-02T12:18:25.835Z</time></trkpt><trkpt lat="41.8194483" lon="12.9435333"><ele>384.0</ele><time>2026-04-02T12:18:26.833Z</time></trkpt><trkpt lat="41.8194667" lon="12.9432667"><ele>383.3333333333333</ele><time>2026-04-02T12:18:27.834Z</time></trkpt><trkpt lat="41.819485" lon="12.943005"><ele>382.66666666666663</ele><time>2026-04-02T12:18:28.834Z</time></trkpt><trkpt lat="41.819495" lon="12.9427467"><ele>382.0</ele><time>2026-04-02T12:18:29.835Z</time></trkpt><trkpt lat="41.819505" lon="12.94249"><ele>381.3333333333333</ele><time>2026-04-02T12:18:30.835Z</time></trkpt><trkpt lat="41.8195217" lon="12.9422367"><ele>380.6666666666667</ele><time>2026-04-02T12:18:31.835Z</time></trkpt><trkpt lat="41.819545" lon="12.9419883"><ele>380.0</ele><time>2026-04-02T12:18:32.837Z</time></trkpt><trkpt lat="41.8195783" lon="12.9417467"><ele>379.0</ele><time>2026-04-02T12:18:33.833Z</time></trkpt><trkpt lat="41.8196267" lon="12.9415033"><ele>378.0</ele><time>2026-04-02T12:18:34.834Z</time></trkpt><trkpt lat="41.8196967" lon="12.9412683"><ele>377.0</ele><time>2026-04-02T12:18:35.834Z</time></trkpt><trkpt lat="41.819785" lon="12.9410483"><ele>374.0</ele><time>2026-04-02T12:18:36.834Z</time></trkpt><trkpt lat="41.8198783" lon="12.9408367"><ele>371.0</ele><time>2026-04-02T12:18:37.835Z</time></trkpt><trkpt lat="41.8199683" lon="12.94063"><ele>368.0</ele><time>2026-04-02T12:18:38.837Z</time></trkpt><trkpt lat="41.8200617" lon="12.9404317"><ele>368.33333333333337</ele><time>2026-04-02T12:18:39.836Z</time></trkpt><trkpt lat="41.82016" lon="12.9402517"><ele>368.6666666666667</ele><time>2026-04-02T12:18:40.833Z</time></trkpt><trkpt lat="41.8202717" lon="12.94009"><ele>369.0</ele><time>2026-04-02T12:18:41.834Z</time></trkpt><trkpt lat="41.8203967" lon="12.9399533"><ele>369.0</ele><time>2026-04-02T12:18:42.833Z</time></trkpt><trkpt lat="41.8205217" lon="12.9398283"><ele>369.0</ele><time>2026-04-02T12:18:43.831Z</time></trkpt><trkpt lat="41.8206333" lon="12.9396983"><ele>369.0</ele><time>2026-04-02T12:18:44.833Z</time></trkpt><trkpt lat="41.820725" lon="12.939545"><ele>369.0</ele><time>2026-04-02T12:18:45.834Z</time></trkpt><trkpt lat="41.8207867" lon="12.9393617"><ele>369.0</ele><time>2026-04-02T12:18:46.834Z</time></trkpt><trkpt lat="41.8208167" lon="12.939155"><ele>369.0</ele><time>2026-04-02T12:18:47.832Z</time></trkpt><trkpt lat="41.8208433" lon="12.93894"><ele>368.6666666666667</ele><time>2026-04-02T12:18:48.834Z</time></trkpt><trkpt lat="41.8208683" lon="12.9387133"><ele>368.33333333333337</ele><time>2026-04-02T12:18:49.833Z</time></trkpt><trkpt lat="41.82089" lon="12.9384817"><ele>368.0</ele><time>2026-04-02T12:18:50.833Z</time></trkpt><trkpt lat="41.820905" lon="12.9382467"><ele>366.6666666666667</ele><time>2026-04-02T12:18:51.832Z</time></trkpt><trkpt lat="41.820905" lon="12.9380133"><ele>365.3333333333333</ele><time>2026-04-02T12:18:52.832Z</time></trkpt><trkpt lat="41.8208817" lon="12.937785"><ele>364.0</ele><time>2026-04-02T12:18:53.833Z</time></trkpt><trkpt lat="41.8208367" lon="12.9375583"><ele>365.66666666666663</ele><time>2026-04-02T12:18:54.833Z</time></trkpt><trkpt lat="41.82077" lon="12.9373417"><ele>367.3333333333333</ele><time>2026-04-02T12:18:55.835Z</time></trkpt><trkpt lat="41.8206833" lon="12.9371383"><ele>369.0</ele><time>2026-04-02T12:18:56.837Z</time></trkpt><trkpt lat="41.8205817" lon="12.9369533"><ele>369.0</ele><time>2026-04-02T12:18:57.835Z</time></trkpt><trkpt lat="41.8204617" lon="12.93679"><ele>369.0</ele><time>2026-04-02T12:18:58.831Z</time></trkpt><trkpt lat="41.82033" lon="12.936655"><ele>369.0</ele><time>2026-04-02T12:18:59.835Z</time></trkpt><trkpt lat="41.8201883" lon="12.9365617"><ele>371.3333333333333</ele><time>2026-04-02T12:19:00.833Z</time></trkpt><trkpt lat="41.8200333" lon="12.9365"><ele>373.66666666666663</ele><time>2026-04-02T12:19:01.834Z</time></trkpt><trkpt lat="41.8198833" lon="12.9364383"><ele>376.0</ele><time>2026-04-02T12:19:02.834Z</time></trkpt><trkpt lat="41.81975" lon="12.93636"><ele>376.0</ele><time>2026-04-02T12:19:03.834Z</time></trkpt><trkpt lat="41.81963" lon="12.93626"><ele>376.0</ele><time>2026-04-02T12:19:04.834Z</time></trkpt><trkpt lat="41.81953" lon="12.93613"><ele>376.0</ele><time>2026-04-02T12:19:05.835Z</time></trkpt><trkpt lat="41.8194567" lon="12.935965"><ele>376.0</ele><time>2026-04-02T12:19:06.834Z</time></trkpt><trkpt lat="41.819405" lon="12.9357767"><ele>378.3333333333333</ele><time>2026-04-02T12:19:07.836Z</time></trkpt><trkpt lat="41.8193633" lon="12.935575"><ele>380.6666666666667</ele><time>2026-04-02T12:19:08.833Z</time></trkpt><trkpt lat="41.8193333" lon="12.9353667"><ele>383.0</ele><time>2026-04-02T12:19:09.833Z</time></trkpt><trkpt lat="41.819305" lon="12.93516"><ele>384.0</ele><time>2026-04-02T12:19:10.832Z</time></trkpt><trkpt lat="41.81928" lon="12.93496"><ele>385.0</ele><time>2026-04-02T12:19:11.833Z</time></trkpt><trkpt lat="41.8192617" lon="12.934765"><ele>386.0</ele><time>2026-04-02T12:19:12.832Z</time></trkpt><trkpt lat="41.8192467" lon="12.9345817"><ele>387.0</ele><time>2026-04-02T12:19:13.832Z</time></trkpt><trkpt lat="41.81923" lon="12.9344183"><ele>387.0</ele><time>2026-04-02T12:19:14.832Z</time></trkpt><trkpt lat="41.8192117" lon="12.93427"><ele>387.0</ele><time>2026-04-02T12:19:15.833Z</time></trkpt><trkpt lat="41.8191917" lon="12.9341367"><ele>387.0</ele><time>2026-04-02T12:19:16.832Z</time></trkpt><trkpt lat="41.81917" lon="12.9340367"><ele>387.0</ele><time>2026-04-02T12:19:17.833Z</time></trkpt><trkpt lat="41.8191467" lon="12.933925"><ele>387.0</ele><time>2026-04-02T12:19:19.833Z</time></trkpt><trkpt lat="41.819115" lon="12.93384"><ele>387.0</ele><time>2026-04-02T12:19:22.832Z</time></trkpt><trkpt lat="41.8190583" lon="12.933725"><ele>387.5</ele><time>2026-04-02T12:19:24.833Z</time></trkpt><trkpt lat="41.8190017" lon="12.9336817"><ele>388.0</ele><time>2026-04-02T12:19:25.834Z</time></trkpt><trkpt lat="41.8189367" lon="12.9336517"><ele>388.5</ele><time>2026-04-02T12:19:26.834Z</time></trkpt><trkpt lat="41.8188533" lon="12.93366"><ele>389.0</ele><time>2026-04-02T12:19:27.837Z</time></trkpt><trkpt lat="41.8187533" lon="12.933685"><ele>389.5</ele><time>2026-04-02T12:19:28.832Z</time></trkpt><trkpt lat="41.818655" lon="12.9336983"><ele>390.0</ele><time>2026-04-02T12:19:29.833Z</time></trkpt><trkpt lat="41.8185483" lon="12.933715"><ele>389.6</ele><time>2026-04-02T12:19:30.833Z</time></trkpt><trkpt lat="41.8184383" lon="12.9337267"><ele>389.2</ele><time>2026-04-02T12:19:31.833Z</time></trkpt><trkpt lat="41.81833" lon="12.93374"><ele>388.79999999999995</ele><time>2026-04-02T12:19:32.833Z</time></trkpt><trkpt lat="41.8182233" lon="12.9337483"><ele>388.4</ele><time>2026-04-02T12:19:33.833Z</time></trkpt><trkpt lat="41.818115" lon="12.9337483"><ele>388.0</ele><time>2026-04-02T12:19:34.831Z</time></trkpt><trkpt lat="41.8180017" lon="12.9337417"><ele>388.0</ele><time>2026-04-02T12:19:35.833Z</time></trkpt><trkpt lat="41.8178883" lon="12.93373"><ele>388.0</ele><time>2026-04-02T12:19:36.833Z</time></trkpt><trkpt lat="41.8177733" lon="12.9337067"><ele>388.0</ele><time>2026-04-02T12:19:37.831Z</time></trkpt><trkpt lat="41.8176617" lon="12.9336767"><ele>388.0</ele><time>2026-04-02T12:19:38.833Z</time></trkpt><trkpt lat="41.81755" lon="12.9336367"><ele>387.25</ele><time>2026-04-02T12:19:39.832Z</time></trkpt><trkpt lat="41.81744" lon="12.9335833"><ele>386.5</ele><time>2026-04-02T12:19:40.83Z</time></trkpt><trkpt lat="41.81733" lon="12.9335217"><ele>385.75</ele><time>2026-04-02T12:19:41.832Z</time></trkpt><trkpt lat="41.8172217" lon="12.93346"><ele>385.0</ele><time>2026-04-02T12:19:42.833Z</time></trkpt><trkpt lat="41.81712" lon="12.9333967"><ele>385.2</ele><time>2026-04-02T12:19:43.833Z</time></trkpt><trkpt lat="41.8170183" lon="12.9333317"><ele>385.4</ele><time>2026-04-02T12:19:44.833Z</time></trkpt><trkpt lat="41.8169267" lon="12.93327"><ele>385.6</ele><time>2026-04-02T12:19:45.831Z</time></trkpt><trkpt lat="41.816845" lon="12.933205"><ele>385.8</ele><time>2026-04-02T12:19:46.835Z</time></trkpt><trkpt lat="41.8167733" lon="12.9331317"><ele>386.0</ele><time>2026-04-02T12:19:47.835Z</time></trkpt><trkpt lat="41.8167117" lon="12.933045"><ele>386.0</ele><time>2026-04-02T12:19:48.835Z</time></trkpt><trkpt lat="41.8166717" lon="12.9329283"><ele>386.0</ele><time>2026-04-02T12:19:49.835Z</time></trkpt><trkpt lat="41.816635" lon="12.9328017"><ele>386.0</ele><time>2026-04-02T12:19:50.833Z</time></trkpt><trkpt lat="41.8166033" lon="12.932665"><ele>386.0</ele><time>2026-04-02T12:19:51.832Z</time></trkpt><trkpt lat="41.8165667" lon="12.9325217"><ele>386.0</ele><time>2026-04-02T12:19:52.833Z</time></trkpt><trkpt lat="41.816535" lon="12.9323683"><ele>386.20000000000005</ele><time>2026-04-02T12:19:53.833Z</time></trkpt><trkpt lat="41.8165067" lon="12.9322183"><ele>386.40000000000003</ele><time>2026-04-02T12:19:54.833Z</time></trkpt><trkpt lat="41.816485" lon="12.93207"><ele>386.6</ele><time>2026-04-02T12:19:55.833Z</time></trkpt><trkpt lat="41.81646" lon="12.9319333"><ele>386.8</ele><time>2026-04-02T12:19:56.833Z</time></trkpt><trkpt lat="41.8164383" lon="12.9318033"><ele>387.0</ele><time>2026-04-02T12:19:57.833Z</time></trkpt><trkpt lat="41.8164283" lon="12.9316733"><ele>387.0</ele><time>2026-04-02T12:19:58.832Z</time></trkpt><trkpt lat="41.8164367" lon="12.93154"><ele>387.0</ele><time>2026-04-02T12:19:59.834Z</time></trkpt><trkpt lat="41.81646" lon="12.9314067"><ele>387.0</ele><time>2026-04-02T12:20:00.833Z</time></trkpt><trkpt lat="41.8165017" lon="12.9312717"><ele>387.0</ele><time>2026-04-02T12:20:01.831Z</time></trkpt><trkpt lat="41.8165533" lon="12.9311467"><ele>387.0</ele><time>2026-04-02T12:20:02.836Z</time></trkpt><trkpt lat="41.81661" lon="12.9310233"><ele>387.0</ele><time>2026-04-02T12:20:03.832Z</time></trkpt><trkpt lat="41.816675" lon="12.9308983"><ele>387.0</ele><time>2026-04-02T12:20:04.831Z</time></trkpt><trkpt lat="41.81675" lon="12.9307733"><ele>387.0</ele><time>2026-04-02T12:20:05.834Z</time></trkpt><trkpt lat="41.8168233" lon="12.9306533"><ele>387.0</ele><time>2026-04-02T12:20:06.835Z</time></trkpt><trkpt lat="41.81689" lon="12.9305383"><ele>387.6</ele><time>2026-04-02T12:20:07.832Z</time></trkpt><trkpt lat="41.8169533" lon="12.9304183"><ele>388.20000000000005</ele><time>2026-04-02T12:20:08.836Z</time></trkpt><trkpt lat="41.8170233" lon="12.9303083"><ele>388.8</ele><time>2026-04-02T12:20:09.835Z</time></trkpt><trkpt lat="41.8170867" lon="12.930195"><ele>389.4</ele><time>2026-04-02T12:20:10.829Z</time></trkpt><trkpt lat="41.8171617" lon="12.9300867"><ele>390.0</ele><time>2026-04-02T12:20:11.835Z</time></trkpt><trkpt lat="41.81724" lon="12.929985"><ele>389.4</ele><time>2026-04-02T12:20:12.833Z</time></trkpt><trkpt lat="41.817325" lon="12.929895"><ele>388.8</ele><time>2026-04-02T12:20:13.835Z</time></trkpt><trkpt lat="41.8174233" lon="12.9298133"><ele>388.20000000000005</ele><time>2026-04-02T12:20:14.835Z</time></trkpt><trkpt lat="41.8175267" lon="12.9297483"><ele>387.6</ele><time>2026-04-02T12:20:15.834Z</time></trkpt><trkpt lat="41.817625" lon="12.9296883"><ele>387.0</ele><time>2026-04-02T12:20:16.834Z</time></trkpt><trkpt lat="41.81772" lon="12.9296383"><ele>387.0</ele><time>2026-04-02T12:20:17.833Z</time></trkpt><trkpt lat="41.8178083" lon="12.9295867"><ele>387.0</ele><time>2026-04-02T12:20:18.834Z</time></trkpt><trkpt lat="41.8178833" lon="12.9295267"><ele>387.0</ele><time>2026-04-02T12:20:19.832Z</time></trkpt><trkpt lat="41.81795" lon="12.92947"><ele>387.0</ele><time>2026-04-02T12:20:20.834Z</time></trkpt><trkpt lat="41.8180083" lon="12.9294017"><ele>387.0</ele><time>2026-04-02T12:20:21.833Z</time></trkpt><trkpt lat="41.8180533" lon="12.92933"><ele>387.0</ele><time>2026-04-02T12:20:22.833Z</time></trkpt><trkpt lat="41.8181183" lon="12.9291983"><ele>387.40000000000003</ele><time>2026-04-02T12:20:24.833Z</time></trkpt><trkpt lat="41.818205" lon="12.92907"><ele>387.8</ele><time>2026-04-02T12:20:26.833Z</time></trkpt><trkpt lat="41.8182683" lon="12.9290117"><ele>388.2</ele><time>2026-04-02T12:20:27.832Z</time></trkpt><trkpt lat="41.818345" lon="12.9289567"><ele>388.6</ele><time>2026-04-02T12:20:28.83Z</time></trkpt><trkpt lat="41.8184317" lon="12.92891"><ele>389.0</ele><time>2026-04-02T12:20:29.832Z</time></trkpt><trkpt lat="41.818515" lon="12.92887"><ele>388.99999999999994</ele><time>2026-04-02T12:20:30.834Z</time></trkpt><trkpt lat="41.8186" lon="12.9288333"><ele>389.0</ele><time>2026-04-02T12:20:31.833Z</time></trkpt><trkpt lat="41.8186833" lon="12.9287983"><ele>389.0</ele><time>2026-04-02T12:20:32.833Z</time></trkpt><trkpt lat="41.818765" lon="12.928755"><ele>389.0</ele><time>2026-04-02T12:20:33.835Z</time></trkpt><trkpt lat="41.8188417" lon="12.928695"><ele>388.99999999999994</ele><time>2026-04-02T12:20:34.834Z</time></trkpt><trkpt lat="41.8189117" lon="12.928615"><ele>389.0</ele><time>2026-04-02T12:20:35.834Z</time></trkpt><trkpt lat="41.8189633" lon="12.9285133"><ele>389.0</ele><time>2026-04-02T12:20:36.831Z</time></trkpt><trkpt lat="41.8189917" lon="12.9283967"><ele>389.0</ele><time>2026-04-02T12:20:37.832Z</time></trkpt><trkpt lat="41.8190033" lon="12.9282767"><ele>389.0</ele><time>2026-04-02T12:20:38.832Z</time></trkpt><trkpt lat="41.8190033" lon="12.9281517"><ele>389.0</ele><time>2026-04-02T12:20:39.833Z</time></trkpt><trkpt lat="41.8190017" lon="12.9280267"><ele>389.0</ele><time>2026-04-02T12:20:40.831Z</time></trkpt><trkpt lat="41.81901" lon="12.92791"><ele>388.2</ele><time>2026-04-02T12:20:41.834Z</time></trkpt><trkpt lat="41.819025" lon="12.92779"><ele>387.4</ele><time>2026-04-02T12:20:42.831Z</time></trkpt><trkpt lat="41.8190467" lon="12.9276667"><ele>386.6</ele><time>2026-04-02T12:20:43.833Z</time></trkpt><trkpt lat="41.81909" lon="12.9275383"><ele>385.8</ele><time>2026-04-02T12:20:44.835Z</time></trkpt><trkpt lat="41.81915" lon="12.9274267"><ele>385.0</ele><time>2026-04-02T12:20:45.834Z</time></trkpt><trkpt lat="41.8192333" lon="12.927325"><ele>387.25</ele><time>2026-04-02T12:20:46.831Z</time></trkpt><trkpt lat="41.8193183" lon="12.927225"><ele>389.5</ele><time>2026-04-02T12:20:47.832Z</time></trkpt><trkpt lat="41.8194083" lon="12.9271317"><ele>391.75</ele><time>2026-04-02T12:20:48.835Z</time></trkpt><trkpt lat="41.819505" lon="12.9270467"><ele>394.0</ele><time>2026-04-02T12:20:49.835Z</time></trkpt><trkpt lat="41.8196083" lon="12.92697"><ele>394.0</ele><time>2026-04-02T12:20:50.834Z</time></trkpt><trkpt lat="41.8197217" lon="12.9269017"><ele>394.0</ele><time>2026-04-02T12:20:51.834Z</time></trkpt><trkpt lat="41.819845" lon="12.926845"><ele>394.0</ele><time>2026-04-02T12:20:52.835Z</time></trkpt><trkpt lat="41.8199733" lon="12.9267917"><ele>394.0</ele><time>2026-04-02T12:20:53.831Z</time></trkpt><trkpt lat="41.820095" lon="12.9267417"><ele>389.75</ele><time>2026-04-02T12:20:54.835Z</time></trkpt><trkpt lat="41.820215" lon="12.9266917"><ele>385.5</ele><time>2026-04-02T12:20:55.835Z</time></trkpt><trkpt lat="41.8203317" lon="12.9266383"><ele>381.25</ele><time>2026-04-02T12:20:56.833Z</time></trkpt><trkpt lat="41.820445" lon="12.9265867"><ele>377.0</ele><time>2026-04-02T12:20:57.833Z</time></trkpt><trkpt lat="41.8205533" lon="12.9265267"><ele>377.0</ele><time>2026-04-02T12:20:58.833Z</time></trkpt><trkpt lat="41.8206567" lon="12.9264567"><ele>377.0</ele><time>2026-04-02T12:20:59.834Z</time></trkpt><trkpt lat="41.8207567" lon="12.9263767"><ele>377.0</ele><time>2026-04-02T12:21:00.834Z</time></trkpt><trkpt lat="41.8208567" lon="12.9262967"><ele>377.0</ele><time>2026-04-02T12:21:01.834Z</time></trkpt><trkpt lat="41.8209633" lon="12.926235"><ele>377.40000000000003</ele><time>2026-04-02T12:21:02.832Z</time></trkpt><trkpt lat="41.8210717" lon="12.92619"><ele>377.8</ele><time>2026-04-02T12:21:03.834Z</time></trkpt><trkpt lat="41.8211783" lon="12.9261733"><ele>378.2</ele><time>2026-04-02T12:21:04.833Z</time></trkpt><trkpt lat="41.8212833" lon="12.9261817"><ele>378.6</ele><time>2026-04-02T12:21:05.832Z</time></trkpt><trkpt lat="41.8213917" lon="12.926185"><ele>379.0</ele><time>2026-04-02T12:21:06.832Z</time></trkpt><trkpt lat="41.8215" lon="12.9261633"><ele>379.0</ele><time>2026-04-02T12:21:07.832Z</time></trkpt><trkpt lat="41.82161" lon="12.92611"><ele>379.0</ele><time>2026-04-02T12:21:08.831Z</time></trkpt><trkpt lat="41.8217183" lon="12.9260367"><ele>379.0</ele><time>2026-04-02T12:21:09.832Z</time></trkpt><trkpt lat="41.8218283" lon="12.925965"><ele>379.0</ele><time>2026-04-02T12:21:10.831Z</time></trkpt><trkpt lat="41.8219433" lon="12.9259083"><ele>380.0</ele><time>2026-04-02T12:21:11.832Z</time></trkpt><trkpt lat="41.8220633" lon="12.9258833"><ele>381.0</ele><time>2026-04-02T12:21:12.833Z</time></trkpt><trkpt lat="41.8221883" lon="12.9258867"><ele>382.0</ele><time>2026-04-02T12:21:13.831Z</time></trkpt><trkpt lat="41.8223183" lon="12.925915"><ele>383.0</ele><time>2026-04-02T12:21:14.836Z</time></trkpt><trkpt lat="41.822445" lon="12.925945"><ele>383.0</ele><time>2026-04-02T12:21:15.833Z</time></trkpt><trkpt lat="41.822575" lon="12.9259833"><ele>383.0</ele><time>2026-04-02T12:21:16.835Z</time></trkpt><trkpt lat="41.8226983" lon="12.9260067"><ele>383.0</ele><time>2026-04-02T12:21:17.832Z</time></trkpt><trkpt lat="41.8228283" lon="12.9260383"><ele>383.0</ele><time>2026-04-02T12:21:18.835Z</time></trkpt><trkpt lat="41.8229583" lon="12.9260733"><ele>382.5</ele><time>2026-04-02T12:21:19.832Z</time></trkpt><trkpt lat="41.82309" lon="12.9261083"><ele>382.0</ele><time>2026-04-02T12:21:20.832Z</time></trkpt><trkpt lat="41.8232217" lon="12.9261467"><ele>381.5</ele><time>2026-04-02T12:21:21.835Z</time></trkpt><trkpt lat="41.8233517" lon="12.926195"><ele>381.0</ele><time>2026-04-02T12:21:22.833Z</time></trkpt><trkpt lat="41.8234833" lon="12.9262533"><ele>378.0</ele><time>2026-04-02T12:21:23.834Z</time></trkpt><trkpt lat="41.8236117" lon="12.926325"><ele>375.0</ele><time>2026-04-02T12:21:24.835Z</time></trkpt><trkpt lat="41.8237383" lon="12.9263983"><ele>372.0</ele><time>2026-04-02T12:21:25.833Z</time></trkpt><trkpt lat="41.823865" lon="12.9264583"><ele>369.0</ele><time>2026-04-02T12:21:26.834Z</time></trkpt><trkpt lat="41.8239967" lon="12.9264983"><ele>369.0</ele><time>2026-04-02T12:21:27.834Z</time></trkpt><trkpt lat="41.8241367" lon="12.9265267"><ele>369.0</ele><time>2026-04-02T12:21:28.834Z</time></trkpt><trkpt lat="41.82428" lon="12.9265567"><ele>369.0</ele><time>2026-04-02T12:21:29.832Z</time></trkpt><trkpt lat="41.82442" lon="12.9265967"><ele>369.0</ele><time>2026-04-02T12:21:30.832Z</time></trkpt><trkpt lat="41.8245533" lon="12.926645"><ele>364.75</ele><time>2026-04-02T12:21:31.83Z</time></trkpt><trkpt lat="41.82469" lon="12.9267067"><ele>360.5</ele><time>2026-04-02T12:21:32.832Z</time></trkpt><trkpt lat="41.824825" lon="12.926765"><ele>356.25</ele><time>2026-04-02T12:21:33.831Z</time></trkpt><trkpt lat="41.8249533" lon="12.926815"><ele>352.0</ele><time>2026-04-02T12:21:34.832Z</time></trkpt><trkpt lat="41.8250767" lon="12.92686"><ele>360.75</ele><time>2026-04-02T12:21:35.831Z</time></trkpt><trkpt lat="41.8251983" lon="12.9268833"><ele>369.5</ele><time>2026-04-02T12:21:36.832Z</time></trkpt><trkpt lat="41.8253183" lon="12.9268817"><ele>378.25</ele><time>2026-04-02T12:21:37.833Z</time></trkpt><trkpt lat="41.8254367" lon="12.9268533"><ele>387.0</ele><time>2026-04-02T12:21:38.833Z</time></trkpt><trkpt lat="41.8255417" lon="12.9267883"><ele>379.75</ele><time>2026-04-02T12:21:39.831Z</time></trkpt><trkpt lat="41.8256317" lon="12.9266967"><ele>372.5</ele><time>2026-04-02T12:21:40.833Z</time></trkpt><trkpt lat="41.8257" lon="12.92657"><ele>365.25</ele><time>2026-04-02T12:21:41.832Z</time></trkpt><trkpt lat="41.8257317" lon="12.9264033"><ele>358.0</ele><time>2026-04-02T12:21:42.832Z</time></trkpt><trkpt lat="41.8257133" lon="12.926195"><ele>358.0</ele><time>2026-04-02T12:21:43.832Z</time></trkpt><trkpt lat="41.8256867" lon="12.9259883"><ele>358.0</ele><time>2026-04-02T12:21:44.832Z</time></trkpt><trkpt lat="41.825655" lon="12.9257667"><ele>358.0</ele><time>2026-04-02T12:21:45.834Z</time></trkpt><trkpt lat="41.825635" lon="12.925525"><ele>350.3333333333333</ele><time>2026-04-02T12:21:46.834Z</time></trkpt><trkpt lat="41.8256117" lon="12.92527"><ele>342.6666666666667</ele><time>2026-04-02T12:21:47.832Z</time></trkpt><trkpt lat="41.8255867" lon="12.92502"><ele>335.0</ele><time>2026-04-02T12:21:48.833Z</time></trkpt><trkpt lat="41.8255617" lon="12.9247867"><ele>332.33333333333337</ele><time>2026-04-02T12:21:49.831Z</time></trkpt><trkpt lat="41.8255317" lon="12.9245717"><ele>329.6666666666667</ele><time>2026-04-02T12:21:50.832Z</time></trkpt><trkpt lat="41.8254933" lon="12.9243733"><ele>327.0</ele><time>2026-04-02T12:21:51.832Z</time></trkpt><trkpt lat="41.8254417" lon="12.9241933"><ele>331.0</ele><time>2026-04-02T12:21:52.832Z</time></trkpt><trkpt lat="41.8253633" lon="12.9240317"><ele>335.0</ele><time>2026-04-02T12:21:53.831Z</time></trkpt><trkpt lat="41.825255" lon="12.9238933"><ele>339.0</ele><time>2026-04-02T12:21:54.834Z</time></trkpt><trkpt lat="41.8251283" lon="12.92379"><ele>343.0</ele><time>2026-04-02T12:21:55.833Z</time></trkpt><trkpt lat="41.8249967" lon="12.923725"><ele>344.25</ele><time>2026-04-02T12:21:56.835Z</time></trkpt><trkpt lat="41.82486" lon="12.92371"><ele>345.5</ele><time>2026-04-02T12:21:57.834Z</time></trkpt><trkpt lat="41.82473" lon="12.923745"><ele>346.75</ele><time>2026-04-02T12:21:58.834Z</time></trkpt><trkpt lat="41.8246117" lon="12.92382"><ele>348.0</ele><time>2026-04-02T12:21:59.834Z</time></trkpt><trkpt lat="41.8244983" lon="12.9239033"><ele>348.0</ele><time>2026-04-02T12:22:00.832Z</time></trkpt><trkpt lat="41.824385" lon="12.92395"><ele>348.0</ele><time>2026-04-02T12:22:01.832Z</time></trkpt><trkpt lat="41.8242733" lon="12.9239517"><ele>348.0</ele><time>2026-04-02T12:22:02.834Z</time></trkpt><trkpt lat="41.8241783" lon="12.92391"><ele>348.0</ele><time>2026-04-02T12:22:03.833Z</time></trkpt><trkpt lat="41.8240933" lon="12.9238417"><ele>348.0</ele><time>2026-04-02T12:22:04.833Z</time></trkpt><trkpt lat="41.8240067" lon="12.923755"><ele>347.25</ele><time>2026-04-02T12:22:05.832Z</time></trkpt><trkpt lat="41.823915" lon="12.923655"><ele>346.5</ele><time>2026-04-02T12:22:06.834Z</time></trkpt><trkpt lat="41.823805" lon="12.9235717"><ele>345.75</ele><time>2026-04-02T12:22:07.834Z</time></trkpt><trkpt lat="41.8236767" lon="12.92352"><ele>345.0</ele><time>2026-04-02T12:22:08.833Z</time></trkpt><trkpt lat="41.823535" lon="12.9234933"><ele>342.25</ele><time>2026-04-02T12:22:09.833Z</time></trkpt><trkpt lat="41.8233883" lon="12.923485"><ele>339.5</ele><time>2026-04-02T12:22:10.832Z</time></trkpt><trkpt lat="41.8232433" lon="12.92346"><ele>336.75</ele><time>2026-04-02T12:22:11.833Z</time></trkpt><trkpt lat="41.823105" lon="12.9234083"><ele>334.0</ele><time>2026-04-02T12:22:12.834Z</time></trkpt><trkpt lat="41.8229717" lon="12.923335"><ele>342.5</ele><time>2026-04-02T12:22:13.834Z</time></trkpt><trkpt lat="41.82286" lon="12.923245"><ele>351.0</ele><time>2026-04-02T12:22:14.835Z</time></trkpt><trkpt lat="41.82278" lon="12.92313"><ele>359.5</ele><time>2026-04-02T12:22:15.833Z</time></trkpt><trkpt lat="41.8227267" lon="12.922995"><ele>368.0</ele><time>2026-04-02T12:22:16.833Z</time></trkpt><trkpt lat="41.8226967" lon="12.92284"><ele>368.0</ele><time>2026-04-02T12:22:17.831Z</time></trkpt><trkpt lat="41.82269" lon="12.92267"><ele>368.0</ele><time>2026-04-02T12:22:18.832Z</time></trkpt><trkpt lat="41.8226967" lon="12.9224833"><ele>368.0</ele><time>2026-04-02T12:22:19.832Z</time></trkpt><trkpt lat="41.8227067" lon="12.922285"><ele>368.0</ele><time>2026-04-02T12:22:20.831Z</time></trkpt><trkpt lat="41.8227233" lon="12.922085"><ele>375.0</ele><time>2026-04-02T12:22:21.832Z</time></trkpt><trkpt lat="41.8227617" lon="12.9218883"><ele>382.0</ele><time>2026-04-02T12:22:22.832Z</time></trkpt><trkpt lat="41.8228267" lon="12.9216883"><ele>389.0</ele><time>2026-04-02T12:22:23.831Z</time></trkpt><trkpt lat="41.8229033" lon="12.9214767"><ele>389.0</ele><time>2026-04-02T12:22:24.835Z</time></trkpt><trkpt lat="41.8229817" lon="12.9212467"><ele>389.0</ele><time>2026-04-02T12:22:25.833Z</time></trkpt><trkpt lat="41.8230633" lon="12.9210067"><ele>389.0</ele><time>2026-04-02T12:22:26.834Z</time></trkpt><trkpt lat="41.8231467" lon="12.9207683"><ele>385.66666666666663</ele><time>2026-04-02T12:22:27.833Z</time></trkpt><trkpt lat="41.82322" lon="12.9205333"><ele>382.3333333333333</ele><time>2026-04-02T12:22:28.833Z</time></trkpt><trkpt lat="41.8232967" lon="12.9202967"><ele>379.0</ele><time>2026-04-02T12:22:29.833Z</time></trkpt><trkpt lat="41.8233783" lon="12.92007"><ele>374.3333333333333</ele><time>2026-04-02T12:22:30.833Z</time></trkpt><trkpt lat="41.823475" lon="12.91986"><ele>369.6666666666667</ele><time>2026-04-02T12:22:31.834Z</time></trkpt><trkpt lat="41.8235917" lon="12.919665"><ele>365.0</ele><time>2026-04-02T12:22:32.834Z</time></trkpt><trkpt lat="41.8237233" lon="12.9194783"><ele>372.6666666666667</ele><time>2026-04-02T12:22:33.834Z</time></trkpt><trkpt lat="41.8238517" lon="12.9192833"><ele>380.33333333333337</ele><time>2026-04-02T12:22:34.834Z</time></trkpt><trkpt lat="41.8239717" lon="12.919085"><ele>388.0</ele><time>2026-04-02T12:22:35.83Z</time></trkpt><trkpt lat="41.82409" lon="12.9189033"><ele>388.0</ele><time>2026-04-02T12:22:36.833Z</time></trkpt><trkpt lat="41.82421" lon="12.9187433"><ele>388.0</ele><time>2026-04-02T12:22:37.834Z</time></trkpt><trkpt lat="41.8243317" lon="12.918605"><ele>388.0</ele><time>2026-04-02T12:22:38.833Z</time></trkpt><trkpt lat="41.8244733" lon="12.9185083"><ele>394.75</ele><time>2026-04-02T12:22:39.834Z</time></trkpt><trkpt lat="41.8246233" lon="12.9184483"><ele>401.5</ele><time>2026-04-02T12:22:40.834Z</time></trkpt><trkpt lat="41.8247717" lon="12.9184217"><ele>408.25</ele><time>2026-04-02T12:22:41.83Z</time></trkpt><trkpt lat="41.82491" lon="12.9184133"><ele>415.0</ele><time>2026-04-02T12:22:42.832Z</time></trkpt><trkpt lat="41.8250383" lon="12.9184083"><ele>410.6</ele><time>2026-04-02T12:22:43.834Z</time></trkpt><trkpt lat="41.8251517" lon="12.9183767"><ele>406.2</ele><time>2026-04-02T12:22:44.829Z</time></trkpt><trkpt lat="41.8252483" lon="12.9183183"><ele>401.79999999999995</ele><time>2026-04-02T12:22:45.834Z</time></trkpt><trkpt lat="41.8253383" lon="12.9182483"><ele>397.4</ele><time>2026-04-02T12:22:46.831Z</time></trkpt><trkpt lat="41.8253983" lon="12.9181417"><ele>393.0</ele><time>2026-04-02T12:22:47.831Z</time></trkpt><trkpt lat="41.82543" lon="12.918025"><ele>393.0</ele><time>2026-04-02T12:22:48.832Z</time></trkpt><trkpt lat="41.8254433" lon="12.9179117"><ele>393.0</ele><time>2026-04-02T12:22:49.832Z</time></trkpt><trkpt lat="41.8254433" lon="12.9178"><ele>393.0</ele><time>2026-04-02T12:22:50.832Z</time></trkpt><trkpt lat="41.8254283" lon="12.9176883"><ele>393.0</ele><time>2026-04-02T12:22:51.831Z</time></trkpt><trkpt lat="41.825385" lon="12.91757"><ele>393.0</ele><time>2026-04-02T12:22:52.831Z</time></trkpt><trkpt lat="41.8253133" lon="12.9174583"><ele>393.59999999999997</ele><time>2026-04-02T12:22:53.833Z</time></trkpt><trkpt lat="41.8252433" lon="12.9173467"><ele>394.2</ele><time>2026-04-02T12:22:54.835Z</time></trkpt><trkpt lat="41.825185" lon="12.9172267"><ele>394.8</ele><time>2026-04-02T12:22:55.834Z</time></trkpt><trkpt lat="41.8251317" lon="12.917105"><ele>395.4</ele><time>2026-04-02T12:22:56.835Z</time></trkpt><trkpt lat="41.8251017" lon="12.916965"><ele>396.0</ele><time>2026-04-02T12:22:57.832Z</time></trkpt><trkpt lat="41.8250883" lon="12.9168217"><ele>393.25</ele><time>2026-04-02T12:22:58.831Z</time></trkpt><trkpt lat="41.8250967" lon="12.9166733"><ele>390.5</ele><time>2026-04-02T12:22:59.833Z</time></trkpt><trkpt lat="41.8251167" lon="12.916525"><ele>387.75</ele><time>2026-04-02T12:23:00.832Z</time></trkpt><trkpt lat="41.825145" lon="12.9163717"><ele>385.0</ele><time>2026-04-02T12:23:01.835Z</time></trkpt><trkpt lat="41.825175" lon="12.91621"><ele>390.75</ele><time>2026-04-02T12:23:02.834Z</time></trkpt><trkpt lat="41.8252133" lon="12.9160367"><ele>396.5</ele><time>2026-04-02T12:23:03.834Z</time></trkpt><trkpt lat="41.8252617" lon="12.9158583"><ele>402.25</ele><time>2026-04-02T12:23:04.833Z</time></trkpt><trkpt lat="41.8253117" lon="12.915675"><ele>408.0</ele><time>2026-04-02T12:23:05.833Z</time></trkpt><trkpt lat="41.8253667" lon="12.9154967"><ele>408.75</ele><time>2026-04-02T12:23:06.834Z</time></trkpt><trkpt lat="41.8254167" lon="12.9153217"><ele>409.5</ele><time>2026-04-02T12:23:07.835Z</time></trkpt><trkpt lat="41.8254667" lon="12.9151633"><ele>410.25</ele><time>2026-04-02T12:23:08.834Z</time></trkpt><trkpt lat="41.8255083" lon="12.9150133"><ele>411.0</ele><time>2026-04-02T12:23:09.834Z</time></trkpt><trkpt lat="41.82555" lon="12.9148683"><ele>409.5</ele><time>2026-04-02T12:23:10.833Z</time></trkpt><trkpt lat="41.825595" lon="12.9147183"><ele>408.0</ele><time>2026-04-02T12:23:11.834Z</time></trkpt><trkpt lat="41.8256567" lon="12.9145733"><ele>406.5</ele><time>2026-04-02T12:23:12.83Z</time></trkpt><trkpt lat="41.8257267" lon="12.9144267"><ele>405.0</ele><time>2026-04-02T12:23:13.834Z</time></trkpt><trkpt lat="41.8258133" lon="12.9142817"><ele>403.5</ele><time>2026-04-02T12:23:14.833Z</time></trkpt><trkpt lat="41.825905" lon="12.9141417"><ele>402.0</ele><time>2026-04-02T12:23:15.83Z</time></trkpt><trkpt lat="41.82599" lon="12.9140133"><ele>400.5</ele><time>2026-04-02T12:23:16.832Z</time></trkpt><trkpt lat="41.82607" lon="12.9139"><ele>399.0</ele><time>2026-04-02T12:23:17.832Z</time></trkpt><trkpt lat="41.82615" lon="12.913805"><ele>402.25</ele><time>2026-04-02T12:23:18.833Z</time></trkpt><trkpt lat="41.8262367" lon="12.913725"><ele>405.5</ele><time>2026-04-02T12:23:19.831Z</time></trkpt><trkpt lat="41.8263317" lon="12.9136517"><ele>408.75</ele><time>2026-04-02T12:23:20.832Z</time></trkpt><trkpt lat="41.8264417" lon="12.913595"><ele>412.0</ele><time>2026-04-02T12:23:21.832Z</time></trkpt><trkpt lat="41.82656" lon="12.9135517"><ele>412.0</ele><time>2026-04-02T12:23:22.83Z</time></trkpt><trkpt lat="41.8266833" lon="12.91353"><ele>412.0</ele><time>2026-04-02T12:23:23.83Z</time></trkpt><trkpt lat="41.8267983" lon="12.9135317"><ele>412.0</ele><time>2026-04-02T12:23:24.836Z</time></trkpt><trkpt lat="41.8269033" lon="12.91355"><ele>412.0</ele><time>2026-04-02T12:23:25.835Z</time></trkpt><trkpt lat="41.827005" lon="12.9135633"><ele>412.0</ele><time>2026-04-02T12:23:26.833Z</time></trkpt><trkpt lat="41.8271083" lon="12.91357"><ele>412.0</ele><time>2026-04-02T12:23:27.833Z</time></trkpt><trkpt lat="41.82721" lon="12.9135617"><ele>412.0</ele><time>2026-04-02T12:23:28.835Z</time></trkpt><trkpt lat="41.8273117" lon="12.9135317"><ele>412.0</ele><time>2026-04-02T12:23:29.833Z</time></trkpt><trkpt lat="41.827395" lon="12.91347"><ele>412.0</ele><time>2026-04-02T12:23:30.834Z</time></trkpt><trkpt lat="41.8274633" lon="12.9133817"><ele>412.0</ele><time>2026-04-02T12:23:31.835Z</time></trkpt><trkpt lat="41.82751" lon="12.913265"><ele>410.20000000000005</ele><time>2026-04-02T12:23:32.835Z</time></trkpt><trkpt lat="41.8275267" lon="12.9131317"><ele>408.4</ele><time>2026-04-02T12:23:33.835Z</time></trkpt><trkpt lat="41.8275167" lon="12.91299"><ele>406.6</ele><time>2026-04-02T12:23:34.834Z</time></trkpt><trkpt lat="41.8274817" lon="12.9128533"><ele>404.79999999999995</ele><time>2026-04-02T12:23:35.835Z</time></trkpt><trkpt lat="41.8274317" lon="12.9127383"><ele>403.0</ele><time>2026-04-02T12:23:36.834Z</time></trkpt><trkpt lat="41.82737" lon="12.91265"><ele>403.00000000000006</ele><time>2026-04-02T12:23:37.835Z</time></trkpt><trkpt lat="41.8273083" lon="12.9125733"><ele>403.0</ele><time>2026-04-02T12:23:38.838Z</time></trkpt><trkpt lat="41.8272483" lon="12.9124983"><ele>403.0</ele><time>2026-04-02T12:23:39.834Z</time></trkpt><trkpt lat="41.82719" lon="12.9124167"><ele>403.0</ele><time>2026-04-02T12:23:40.835Z</time></trkpt><trkpt lat="41.8271383" lon="12.9123283"><ele>403.00000000000006</ele><time>2026-04-02T12:23:41.835Z</time></trkpt><trkpt lat="41.8271017" lon="12.912215"><ele>403.0</ele><time>2026-04-02T12:23:42.834Z</time></trkpt><trkpt lat="41.8270833" lon="12.9120767"><ele>405.75</ele><time>2026-04-02T12:23:43.835Z</time></trkpt><trkpt lat="41.8270833" lon="12.911925"><ele>408.5</ele><time>2026-04-02T12:23:44.835Z</time></trkpt><trkpt lat="41.8271017" lon="12.9117683"><ele>411.25</ele><time>2026-04-02T12:23:45.835Z</time></trkpt><trkpt lat="41.8271333" lon="12.9116167"><ele>414.0</ele><time>2026-04-02T12:23:46.835Z</time></trkpt><trkpt lat="41.827175" lon="12.9114667"><ele>414.75</ele><time>2026-04-02T12:23:47.834Z</time></trkpt><trkpt lat="41.82722" lon="12.91131"><ele>415.5</ele><time>2026-04-02T12:23:48.835Z</time></trkpt><trkpt lat="41.82726" lon="12.911145"><ele>416.25</ele><time>2026-04-02T12:23:49.834Z</time></trkpt><trkpt lat="41.8273017" lon="12.9109717"><ele>417.0</ele><time>2026-04-02T12:23:50.834Z</time></trkpt><trkpt lat="41.827335" lon="12.9107833"><ele>417.0</ele><time>2026-04-02T12:23:51.835Z</time></trkpt><trkpt lat="41.82736" lon="12.9105833"><ele>417.0</ele><time>2026-04-02T12:23:52.835Z</time></trkpt><trkpt lat="41.8273783" lon="12.9103767"><ele>417.0</ele><time>2026-04-02T12:23:53.833Z</time></trkpt><trkpt lat="41.82739" lon="12.910175"><ele>417.0</ele><time>2026-04-02T12:23:54.835Z</time></trkpt><trkpt lat="41.8274" lon="12.9099867"><ele>417.0</ele><time>2026-04-02T12:23:55.833Z</time></trkpt><trkpt lat="41.82741" lon="12.9098167"><ele>417.0</ele><time>2026-04-02T12:23:56.833Z</time></trkpt><trkpt lat="41.8274217" lon="12.9096667"><ele>417.0</ele><time>2026-04-02T12:23:57.833Z</time></trkpt><trkpt lat="41.8274333" lon="12.90953"><ele>417.0</ele><time>2026-04-02T12:23:58.832Z</time></trkpt><trkpt lat="41.827445" lon="12.9094067"><ele>417.0</ele><time>2026-04-02T12:23:59.835Z</time></trkpt><trkpt lat="41.8274583" lon="12.90929"><ele>417.0</ele><time>2026-04-02T12:24:00.832Z</time></trkpt><trkpt lat="41.8274767" lon="12.9091683"><ele>417.0</ele><time>2026-04-02T12:24:01.832Z</time></trkpt><trkpt lat="41.8275067" lon="12.909055"><ele>417.0</ele><time>2026-04-02T12:24:02.835Z</time></trkpt><trkpt lat="41.8275667" lon="12.9089467"><ele>418.0</ele><time>2026-04-02T12:24:03.833Z</time></trkpt><trkpt lat="41.8276633" lon="12.908845"><ele>419.0</ele><time>2026-04-02T12:24:04.835Z</time></trkpt><trkpt lat="41.8277683" lon="12.90874"><ele>420.0</ele><time>2026-04-02T12:24:05.833Z</time></trkpt><trkpt lat="41.82788" lon="12.9086383"><ele>421.0</ele><time>2026-04-02T12:24:06.833Z</time></trkpt><trkpt lat="41.827995" lon="12.9085367"><ele>421.0</ele><time>2026-04-02T12:24:07.833Z</time></trkpt><trkpt lat="41.8281067" lon="12.908435"><ele>421.0</ele><time>2026-04-02T12:24:08.832Z</time></trkpt><trkpt lat="41.8282167" lon="12.9083433"><ele>421.0</ele><time>2026-04-02T12:24:09.834Z</time></trkpt><trkpt lat="41.8283167" lon="12.9082533"><ele>421.0</ele><time>2026-04-02T12:24:10.834Z</time></trkpt><trkpt lat="41.8284167" lon="12.90817"><ele>421.5</ele><time>2026-04-02T12:24:11.833Z</time></trkpt><trkpt lat="41.828515" lon="12.90809"><ele>422.0</ele><time>2026-04-02T12:24:12.835Z</time></trkpt><trkpt lat="41.8286183" lon="12.908015"><ele>422.5</ele><time>2026-04-02T12:24:13.835Z</time></trkpt><trkpt lat="41.82873" lon="12.90794"><ele>423.0</ele><time>2026-04-02T12:24:14.834Z</time></trkpt><trkpt lat="41.82885" lon="12.9078667"><ele>423.0</ele><time>2026-04-02T12:24:15.83Z</time></trkpt><trkpt lat="41.82898" lon="12.90779"><ele>423.0</ele><time>2026-04-02T12:24:16.833Z</time></trkpt><trkpt lat="41.8291167" lon="12.907695"><ele>423.0</ele><time>2026-04-02T12:24:17.834Z</time></trkpt><trkpt lat="41.829265" lon="12.9075883"><ele>416.33333333333337</ele><time>2026-04-02T12:24:18.834Z</time></trkpt><trkpt lat="41.8294217" lon="12.907465"><ele>409.6666666666667</ele><time>2026-04-02T12:24:19.834Z</time></trkpt><trkpt lat="41.8295917" lon="12.907335"><ele>403.0</ele><time>2026-04-02T12:24:20.835Z</time></trkpt><trkpt lat="41.8297633" lon="12.9071967"><ele>403.0</ele><time>2026-04-02T12:24:21.832Z</time></trkpt><trkpt lat="41.8299283" lon="12.9070617"><ele>403.0</ele><time>2026-04-02T12:24:22.832Z</time></trkpt><trkpt lat="41.8300767" lon="12.9069217"><ele>403.0</ele><time>2026-04-02T12:24:23.833Z</time></trkpt><trkpt lat="41.8302083" lon="12.9067717"><ele>408.0</ele><time>2026-04-02T12:24:24.837Z</time></trkpt><trkpt lat="41.8303167" lon="12.9066017"><ele>413.0</ele><time>2026-04-02T12:24:25.834Z</time></trkpt><trkpt lat="41.8304" lon="12.9064067"><ele>418.0</ele><time>2026-04-02T12:24:26.832Z</time></trkpt><trkpt lat="41.8304517" lon="12.9061917"><ele>418.0</ele><time>2026-04-02T12:24:27.834Z</time></trkpt><trkpt lat="41.8304783" lon="12.905965"><ele>418.0</ele><time>2026-04-02T12:24:28.834Z</time></trkpt><trkpt lat="41.8304817" lon="12.905735"><ele>418.0</ele><time>2026-04-02T12:24:29.835Z</time></trkpt><trkpt lat="41.83046" lon="12.9055117"><ele>418.33333333333337</ele><time>2026-04-02T12:24:30.834Z</time></trkpt><trkpt lat="41.8304117" lon="12.905305"><ele>418.66666666666663</ele><time>2026-04-02T12:24:31.833Z</time></trkpt><trkpt lat="41.83033" lon="12.905115"><ele>419.0</ele><time>2026-04-02T12:24:32.835Z</time></trkpt><trkpt lat="41.8302183" lon="12.9049483"><ele>415.3333333333333</ele><time>2026-04-02T12:24:33.834Z</time></trkpt><trkpt lat="41.8300867" lon="12.9048"><ele>411.66666666666663</ele><time>2026-04-02T12:24:34.835Z</time></trkpt><trkpt lat="41.829965" lon="12.9046533"><ele>408.0</ele><time>2026-04-02T12:24:35.834Z</time></trkpt><trkpt lat="41.82988" lon="12.90449"><ele>408.0</ele><time>2026-04-02T12:24:36.834Z</time></trkpt><trkpt lat="41.8298317" lon="12.904315"><ele>408.0</ele><time>2026-04-02T12:24:37.834Z</time></trkpt><trkpt lat="41.8298183" lon="12.904125"><ele>408.0</ele><time>2026-04-02T12:24:38.835Z</time></trkpt><trkpt lat="41.82984" lon="12.9039233"><ele>408.0</ele><time>2026-04-02T12:24:39.83Z</time></trkpt><trkpt lat="41.8298733" lon="12.90371"><ele>411.33333333333337</ele><time>2026-04-02T12:24:40.835Z</time></trkpt><trkpt lat="41.829905" lon="12.9034883"><ele>414.6666666666667</ele><time>2026-04-02T12:24:41.834Z</time></trkpt><trkpt lat="41.8299333" lon="12.9032567"><ele>418.0</ele><time>2026-04-02T12:24:42.834Z</time></trkpt><trkpt lat="41.8299667" lon="12.9030317"><ele>419.0</ele><time>2026-04-02T12:24:43.835Z</time></trkpt><trkpt lat="41.830005" lon="12.902825"><ele>420.0</ele><time>2026-04-02T12:24:44.836Z</time></trkpt><trkpt lat="41.8300367" lon="12.9026383"><ele>421.0</ele><time>2026-04-02T12:24:45.835Z</time></trkpt><trkpt lat="41.8300767" lon="12.9024633"><ele>422.0</ele><time>2026-04-02T12:24:46.836Z</time></trkpt><trkpt lat="41.83012" lon="12.9022917"><ele>424.0</ele><time>2026-04-02T12:24:47.833Z</time></trkpt><trkpt lat="41.8301767" lon="12.9021333"><ele>426.0</ele><time>2026-04-02T12:24:48.831Z</time></trkpt><trkpt lat="41.8302417" lon="12.9019833"><ele>428.0</ele><time>2026-04-02T12:24:49.835Z</time></trkpt><trkpt lat="41.8303133" lon="12.9018533"><ele>430.0</ele><time>2026-04-02T12:24:50.836Z</time></trkpt><trkpt lat="41.830385" lon="12.9017367"><ele>430.0</ele><time>2026-04-02T12:24:51.832Z</time></trkpt><trkpt lat="41.8304483" lon="12.901615"><ele>430.0</ele><time>2026-04-02T12:24:52.833Z</time></trkpt><trkpt lat="41.8305133" lon="12.901495"><ele>430.0</ele><time>2026-04-02T12:24:53.834Z</time></trkpt><trkpt lat="41.830575" lon="12.90137"><ele>430.0</ele><time>2026-04-02T12:24:54.833Z</time></trkpt><trkpt lat="41.830635" lon="12.9012467"><ele>430.0</ele><time>2026-04-02T12:24:55.831Z</time></trkpt><trkpt lat="41.8306917" lon="12.901135"><ele>430.00000000000006</ele><time>2026-04-02T12:24:56.833Z</time></trkpt><trkpt lat="41.8307417" lon="12.9010417"><ele>430.0</ele><time>2026-04-02T12:24:57.833Z</time></trkpt><trkpt lat="41.830795" lon="12.90096"><ele>430.0</ele><time>2026-04-02T12:24:58.832Z</time></trkpt><trkpt lat="41.8308433" lon="12.9008833"><ele>430.0</ele><time>2026-04-02T12:24:59.83Z</time></trkpt><trkpt lat="41.830905" lon="12.9007867"><ele>430.00000000000006</ele><time>2026-04-02T12:25:01.833Z</time></trkpt><trkpt lat="41.8309433" lon="12.900685"><ele>430.0</ele><time>2026-04-02T12:25:06.833Z</time></trkpt><trkpt lat="41.8309933" lon="12.90058"><ele>430.1666666666667</ele><time>2026-04-02T12:25:08.833Z</time></trkpt><trkpt lat="41.8310417" lon="12.9004883"><ele>430.33333333333337</ele><time>2026-04-02T12:25:10.835Z</time></trkpt><trkpt lat="41.8310983" lon="12.900415"><ele>430.5</ele><time>2026-04-02T12:25:12.833Z</time></trkpt><trkpt lat="41.8311767" lon="12.9003283"><ele>430.66666666666663</ele><time>2026-04-02T12:25:14.835Z</time></trkpt><trkpt lat="41.831245" lon="12.9002467"><ele>430.8333333333333</ele><time>2026-04-02T12:25:16.833Z</time></trkpt><trkpt lat="41.831305" lon="12.9001783"><ele>431.0</ele><time>2026-04-02T12:25:18.83Z</time></trkpt><trkpt lat="41.8313933" lon="12.9000867"><ele>429.8333333333333</ele><time>2026-04-02T12:25:20.832Z</time></trkpt><trkpt lat="41.8314483" lon="12.9000233"><ele>428.66666666666663</ele><time>2026-04-02T12:25:21.832Z</time></trkpt><trkpt lat="41.8315067" lon="12.8999617"><ele>427.5</ele><time>2026-04-02T12:25:22.831Z</time></trkpt><trkpt lat="41.8315683" lon="12.8998933"><ele>426.33333333333337</ele><time>2026-04-02T12:25:23.832Z</time></trkpt><trkpt lat="41.831635" lon="12.8998217"><ele>425.1666666666667</ele><time>2026-04-02T12:25:24.836Z</time></trkpt><trkpt lat="41.8317017" lon="12.8997467"><ele>424.0</ele><time>2026-04-02T12:25:25.834Z</time></trkpt><trkpt lat="41.83177" lon="12.8996733"><ele>424.4</ele><time>2026-04-02T12:25:26.835Z</time></trkpt><trkpt lat="41.83184" lon="12.8995933"><ele>424.79999999999995</ele><time>2026-04-02T12:25:27.835Z</time></trkpt><trkpt lat="41.831915" lon="12.899505"><ele>425.20000000000005</ele><time>2026-04-02T12:25:28.835Z</time></trkpt><trkpt lat="41.83199" lon="12.89941"><ele>425.6</ele><time>2026-04-02T12:25:29.834Z</time></trkpt><trkpt lat="41.8320567" lon="12.89931"><ele>426.0</ele><time>2026-04-02T12:25:30.831Z</time></trkpt><trkpt lat="41.83212" lon="12.8992083"><ele>426.0</ele><time>2026-04-02T12:25:31.833Z</time></trkpt><trkpt lat="41.8321867" lon="12.8991067"><ele>426.0</ele><time>2026-04-02T12:25:32.836Z</time></trkpt><trkpt lat="41.8322617" lon="12.8989983"><ele>426.0</ele><time>2026-04-02T12:25:33.835Z</time></trkpt><trkpt lat="41.83234" lon="12.8988883"><ele>426.0</ele><time>2026-04-02T12:25:34.834Z</time></trkpt><trkpt lat="41.83242" lon="12.8987767"><ele>426.0</ele><time>2026-04-02T12:25:35.834Z</time></trkpt><trkpt lat="41.8324917" lon="12.8986683"><ele>426.0</ele><time>2026-04-02T12:25:36.834Z</time></trkpt><trkpt lat="41.8325583" lon="12.8985633"><ele>426.0</ele><time>2026-04-02T12:25:37.831Z</time></trkpt><trkpt lat="41.8326267" lon="12.8984583"><ele>426.0</ele><time>2026-04-02T12:25:38.833Z</time></trkpt><trkpt lat="41.8326983" lon="12.8983567"><ele>426.0</ele><time>2026-04-02T12:25:39.835Z</time></trkpt><trkpt lat="41.8327783" lon="12.8982633"><ele>426.0</ele><time>2026-04-02T12:25:40.835Z</time></trkpt><trkpt lat="41.8328517" lon="12.8981683"><ele>425.20000000000005</ele><time>2026-04-02T12:25:41.835Z</time></trkpt><trkpt lat="41.83293" lon="12.898075"><ele>424.40000000000003</ele><time>2026-04-02T12:25:42.831Z</time></trkpt><trkpt lat="41.8330133" lon="12.897995"><ele>423.6</ele><time>2026-04-02T12:25:43.832Z</time></trkpt><trkpt lat="41.8331033" lon="12.8979233"><ele>422.8</ele><time>2026-04-02T12:25:44.836Z</time></trkpt><trkpt lat="41.8332017" lon="12.8978517"><ele>422.0</ele><time>2026-04-02T12:25:45.833Z</time></trkpt><trkpt lat="41.8333083" lon="12.89779"><ele>422.0</ele><time>2026-04-02T12:25:46.832Z</time></trkpt><trkpt lat="41.8334233" lon="12.89774"><ele>422.0</ele><time>2026-04-02T12:25:47.833Z</time></trkpt><trkpt lat="41.833535" lon="12.897695"><ele>422.0</ele><time>2026-04-02T12:25:48.836Z</time></trkpt><trkpt lat="41.8336483" lon="12.8976467"><ele>422.0</ele><time>2026-04-02T12:25:49.832Z</time></trkpt><trkpt lat="41.8337583" lon="12.8975917"><ele>419.5</ele><time>2026-04-02T12:25:50.834Z</time></trkpt><trkpt lat="41.8338683" lon="12.897535"><ele>417.0</ele><time>2026-04-02T12:25:51.835Z</time></trkpt><trkpt lat="41.8339767" lon="12.8974717"><ele>414.5</ele><time>2026-04-02T12:25:52.832Z</time></trkpt><trkpt lat="41.8340783" lon="12.8973967"><ele>412.0</ele><time>2026-04-02T12:25:53.835Z</time></trkpt><trkpt lat="41.8341767" lon="12.8973033"><ele>412.0</ele><time>2026-04-02T12:25:54.834Z</time></trkpt><trkpt lat="41.8342583" lon="12.897185"><ele>412.0</ele><time>2026-04-02T12:25:55.834Z</time></trkpt><trkpt lat="41.8343267" lon="12.8970483"><ele>412.0</ele><time>2026-04-02T12:25:56.832Z</time></trkpt><trkpt lat="41.83438" lon="12.8969017"><ele>412.0</ele><time>2026-04-02T12:25:57.834Z</time></trkpt><trkpt lat="41.834415" lon="12.896745"><ele>415.25</ele><time>2026-04-02T12:25:58.834Z</time></trkpt><trkpt lat="41.8344283" lon="12.8965833"><ele>418.5</ele><time>2026-04-02T12:25:59.833Z</time></trkpt><trkpt lat="41.8344183" lon="12.8964217"><ele>421.75</ele><time>2026-04-02T12:26:00.835Z</time></trkpt><trkpt lat="41.83439" lon="12.8962667"><ele>425.0</ele><time>2026-04-02T12:26:01.835Z</time></trkpt><trkpt lat="41.834345" lon="12.896125"><ele>423.4</ele><time>2026-04-02T12:26:02.836Z</time></trkpt><trkpt lat="41.8342917" lon="12.8959917"><ele>421.8</ele><time>2026-04-02T12:26:03.832Z</time></trkpt><trkpt lat="41.8342383" lon="12.8958667"><ele>420.20000000000005</ele><time>2026-04-02T12:26:04.834Z</time></trkpt><trkpt lat="41.8341883" lon="12.89575"><ele>418.6</ele><time>2026-04-02T12:26:05.834Z</time></trkpt><trkpt lat="41.8341383" lon="12.895625"><ele>417.0</ele><time>2026-04-02T12:26:06.831Z</time></trkpt><trkpt lat="41.8340883" lon="12.8955017"><ele>417.0</ele><time>2026-04-02T12:26:07.832Z</time></trkpt><trkpt lat="41.8340383" lon="12.8953833"><ele>417.0</ele><time>2026-04-02T12:26:08.832Z</time></trkpt><trkpt lat="41.8339883" lon="12.895265"><ele>417.0</ele><time>2026-04-02T12:26:09.833Z</time></trkpt><trkpt lat="41.833935" lon="12.89515"><ele>417.0</ele><time>2026-04-02T12:26:10.83Z</time></trkpt><trkpt lat="41.833885" lon="12.8950317"><ele>417.0</ele><time>2026-04-02T12:26:11.833Z</time></trkpt><trkpt lat="41.833835" lon="12.8949183"><ele>418.8</ele><time>2026-04-02T12:26:12.833Z</time></trkpt><trkpt lat="41.8337917" lon="12.8948"><ele>420.6</ele><time>2026-04-02T12:26:13.833Z</time></trkpt><trkpt lat="41.8337533" lon="12.894675"><ele>422.40000000000003</ele><time>2026-04-02T12:26:14.832Z</time></trkpt><trkpt lat="41.8337217" lon="12.8945433"><ele>424.20000000000005</ele><time>2026-04-02T12:26:15.835Z</time></trkpt><trkpt lat="41.8336967" lon="12.894405"><ele>426.0</ele><time>2026-04-02T12:26:16.833Z</time></trkpt><trkpt lat="41.8336717" lon="12.8942633"><ele>426.6</ele><time>2026-04-02T12:26:17.834Z</time></trkpt><trkpt lat="41.8336533" lon="12.8941217"><ele>427.20000000000005</ele><time>2026-04-02T12:26:18.834Z</time></trkpt><trkpt lat="41.8336433" lon="12.8939783"><ele>427.79999999999995</ele><time>2026-04-02T12:26:19.834Z</time></trkpt><trkpt lat="41.83364" lon="12.8938317"><ele>428.4</ele><time>2026-04-02T12:26:20.835Z</time></trkpt><trkpt lat="41.83364" lon="12.89368"><ele>429.0</ele><time>2026-04-02T12:26:21.834Z</time></trkpt><trkpt lat="41.8336383" lon="12.8935283"><ele>429.0</ele><time>2026-04-02T12:26:22.833Z</time></trkpt><trkpt lat="41.83364" lon="12.8933783"><ele>429.0</ele><time>2026-04-02T12:26:23.835Z</time></trkpt><trkpt lat="41.8336467" lon="12.8932317"><ele>429.0</ele><time>2026-04-02T12:26:24.833Z</time></trkpt><trkpt lat="41.8336583" lon="12.893085"><ele>429.0</ele><time>2026-04-02T12:26:25.831Z</time></trkpt><trkpt lat="41.833685" lon="12.892935"><ele>429.0</ele><time>2026-04-02T12:26:26.833Z</time></trkpt><trkpt lat="41.833725" lon="12.8927867"><ele>429.0</ele><time>2026-04-02T12:26:27.832Z</time></trkpt><trkpt lat="41.8337733" lon="12.892635"><ele>429.0</ele><time>2026-04-02T12:26:28.833Z</time></trkpt><trkpt lat="41.8338167" lon="12.8924817"><ele>429.0</ele><time>2026-04-02T12:26:29.833Z</time></trkpt><trkpt lat="41.833865" lon="12.8923333"><ele>429.0</ele><time>2026-04-02T12:26:30.835Z</time></trkpt><trkpt lat="41.8339" lon="12.8921883"><ele>428.0</ele><time>2026-04-02T12:26:31.831Z</time></trkpt><trkpt lat="41.8339317" lon="12.8920483"><ele>427.0</ele><time>2026-04-02T12:26:32.831Z</time></trkpt><trkpt lat="41.833955" lon="12.89191"><ele>426.0</ele><time>2026-04-02T12:26:33.83Z</time></trkpt><trkpt lat="41.8339783" lon="12.8917733"><ele>425.0</ele><time>2026-04-02T12:26:34.834Z</time></trkpt><trkpt lat="41.8339967" lon="12.8916333"><ele>424.0</ele><time>2026-04-02T12:26:35.832Z</time></trkpt><trkpt lat="41.834015" lon="12.89149"><ele>423.2</ele><time>2026-04-02T12:26:36.832Z</time></trkpt><trkpt lat="41.8340317" lon="12.8913433"><ele>422.4</ele><time>2026-04-02T12:26:37.832Z</time></trkpt><trkpt lat="41.83404" lon="12.891195"><ele>421.6</ele><time>2026-04-02T12:26:38.831Z</time></trkpt><trkpt lat="41.8340433" lon="12.8910433"><ele>420.8</ele><time>2026-04-02T12:26:39.833Z</time></trkpt><trkpt lat="41.8340433" lon="12.89089"><ele>420.0</ele><time>2026-04-02T12:26:40.83Z</time></trkpt><trkpt lat="41.83404" lon="12.8907433"><ele>420.0</ele><time>2026-04-02T12:26:41.833Z</time></trkpt><trkpt lat="41.834035" lon="12.8906017"><ele>420.0</ele><time>2026-04-02T12:26:42.833Z</time></trkpt><trkpt lat="41.8340333" lon="12.8904683"><ele>420.0</ele><time>2026-04-02T12:26:43.832Z</time></trkpt><trkpt lat="41.8340283" lon="12.8903383"><ele>420.0</ele><time>2026-04-02T12:26:44.833Z</time></trkpt><trkpt lat="41.834025" lon="12.8902017"><ele>420.0</ele><time>2026-04-02T12:26:45.835Z</time></trkpt><trkpt lat="41.834025" lon="12.89006"><ele>419.8</ele><time>2026-04-02T12:26:46.834Z</time></trkpt><trkpt lat="41.8340233" lon="12.889915"><ele>419.6</ele><time>2026-04-02T12:26:47.831Z</time></trkpt><trkpt lat="41.8340167" lon="12.8897717"><ele>419.4</ele><time>2026-04-02T12:26:48.832Z</time></trkpt><trkpt lat="41.834005" lon="12.8896267"><ele>419.2</ele><time>2026-04-02T12:26:49.833Z</time></trkpt><trkpt lat="41.833985" lon="12.8894833"><ele>419.0</ele><time>2026-04-02T12:26:50.831Z</time></trkpt><trkpt lat="41.833965" lon="12.8893383"><ele>419.4</ele><time>2026-04-02T12:26:51.833Z</time></trkpt><trkpt lat="41.8339483" lon="12.8892017"><ele>419.79999999999995</ele><time>2026-04-02T12:26:52.832Z</time></trkpt><trkpt lat="41.833935" lon="12.889075"><ele>420.20000000000005</ele><time>2026-04-02T12:26:53.833Z</time></trkpt><trkpt lat="41.8339183" lon="12.888955"><ele>420.6</ele><time>2026-04-02T12:26:54.832Z</time></trkpt><trkpt lat="41.8338983" lon="12.8888367"><ele>421.0</ele><time>2026-04-02T12:26:55.831Z</time></trkpt><trkpt lat="41.83388" lon="12.888715"><ele>421.00000000000006</ele><time>2026-04-02T12:26:56.833Z</time></trkpt><trkpt lat="41.833865" lon="12.8885983"><ele>421.0</ele><time>2026-04-02T12:26:57.835Z</time></trkpt><trkpt lat="41.83385" lon="12.8884917"><ele>421.0</ele><time>2026-04-02T12:26:58.83Z</time></trkpt><trkpt lat="41.8338367" lon="12.88838"><ele>421.0</ele><time>2026-04-02T12:26:59.832Z</time></trkpt><trkpt lat="41.8338217" lon="12.888265"><ele>421.00000000000006</ele><time>2026-04-02T12:27:00.833Z</time></trkpt><trkpt lat="41.8338067" lon="12.8881567"><ele>421.0</ele><time>2026-04-02T12:27:01.833Z</time></trkpt><trkpt lat="41.8337883" lon="12.8880583"><ele>421.1666666666667</ele><time>2026-04-02T12:27:02.835Z</time></trkpt><trkpt lat="41.8337767" lon="12.8879633"><ele>421.33333333333337</ele><time>2026-04-02T12:27:03.833Z</time></trkpt><trkpt lat="41.8337583" lon="12.88785"><ele>421.5</ele><time>2026-04-02T12:27:05.832Z</time></trkpt><trkpt lat="41.8337317" lon="12.8877083"><ele>421.66666666666663</ele><time>2026-04-02T12:27:08.832Z</time></trkpt><trkpt lat="41.8337" lon="12.887625"><ele>421.8333333333333</ele><time>2026-04-02T12:27:09.832Z</time></trkpt><trkpt lat="41.83366" lon="12.887545"><ele>422.0</ele><time>2026-04-02T12:27:10.831Z</time></trkpt><trkpt lat="41.8336133" lon="12.88747"><ele>421.99999999999994</ele><time>2026-04-02T12:27:11.831Z</time></trkpt><trkpt lat="41.8335667" lon="12.8873883"><ele>422.0</ele><time>2026-04-02T12:27:12.837Z</time></trkpt><trkpt lat="41.8335283" lon="12.887305"><ele>422.0</ele><time>2026-04-02T12:27:13.832Z</time></trkpt><trkpt lat="41.8334933" lon="12.8872217"><ele>422.0</ele><time>2026-04-02T12:27:14.832Z</time></trkpt><trkpt lat="41.8334567" lon="12.8871333"><ele>421.99999999999994</ele><time>2026-04-02T12:27:15.832Z</time></trkpt><trkpt lat="41.8334233" lon="12.8870317"><ele>422.0</ele><time>2026-04-02T12:27:16.833Z</time></trkpt><trkpt lat="41.83339" lon="12.8869167"><ele>421.20000000000005</ele><time>2026-04-02T12:27:17.83Z</time></trkpt><trkpt lat="41.8333633" lon="12.8867917"><ele>420.4</ele><time>2026-04-02T12:27:18.833Z</time></trkpt><trkpt lat="41.8333417" lon="12.8866667"><ele>419.6</ele><time>2026-04-02T12:27:19.83Z</time></trkpt><trkpt lat="41.833325" lon="12.8865433"><ele>418.79999999999995</ele><time>2026-04-02T12:27:20.832Z</time></trkpt><trkpt lat="41.8333117" lon="12.886415"><ele>418.0</ele><time>2026-04-02T12:27:21.832Z</time></trkpt><trkpt lat="41.8332967" lon="12.8862783"><ele>417.59999999999997</ele><time>2026-04-02T12:27:22.831Z</time></trkpt><trkpt lat="41.83328" lon="12.8861383"><ele>417.2</ele><time>2026-04-02T12:27:23.832Z</time></trkpt><trkpt lat="41.8332567" lon="12.8859933"><ele>416.8</ele><time>2026-04-02T12:27:24.832Z</time></trkpt><trkpt lat="41.833225" lon="12.8858517"><ele>416.4</ele><time>2026-04-02T12:27:25.832Z</time></trkpt><trkpt lat="41.8331867" lon="12.885715"><ele>416.0</ele><time>2026-04-02T12:27:26.832Z</time></trkpt><trkpt lat="41.8331483" lon="12.885585"><ele>415.8333333333333</ele><time>2026-04-02T12:27:27.832Z</time></trkpt><trkpt lat="41.8331117" lon="12.8854617"><ele>415.66666666666663</ele><time>2026-04-02T12:27:28.831Z</time></trkpt><trkpt lat="41.8330767" lon="12.8853467"><ele>415.5</ele><time>2026-04-02T12:27:29.831Z</time></trkpt><trkpt lat="41.8330433" lon="12.8852383"><ele>415.33333333333337</ele><time>2026-04-02T12:27:30.833Z</time></trkpt><trkpt lat="41.8330067" lon="12.885135"><ele>415.1666666666667</ele><time>2026-04-02T12:27:31.834Z</time></trkpt><trkpt lat="41.8329667" lon="12.8850367"><ele>415.0</ele><time>2026-04-02T12:27:32.833Z</time></trkpt><trkpt lat="41.832925" lon="12.8849417"><ele>415.0</ele><time>2026-04-02T12:27:33.832Z</time></trkpt><trkpt lat="41.8328833" lon="12.8848417"><ele>415.0</ele><time>2026-04-02T12:27:34.83Z</time></trkpt><trkpt lat="41.8328417" lon="12.88474"><ele>415.0</ele><time>2026-04-02T12:27:35.83Z</time></trkpt><trkpt lat="41.8327967" lon="12.8846217"><ele>415.0</ele><time>2026-04-02T12:27:36.834Z</time></trkpt><trkpt lat="41.8327483" lon="12.8844917"><ele>415.0</ele><time>2026-04-02T12:27:37.831Z</time></trkpt><trkpt lat="41.8327" lon="12.884355"><ele>414.8</ele><time>2026-04-02T12:27:38.832Z</time></trkpt><trkpt lat="41.8326583" lon="12.8842233"><ele>414.6</ele><time>2026-04-02T12:27:39.832Z</time></trkpt><trkpt lat="41.8326217" lon="12.8841"><ele>414.4</ele><time>2026-04-02T12:27:40.831Z</time></trkpt><trkpt lat="41.832585" lon="12.8839783"><ele>414.2</ele><time>2026-04-02T12:27:41.832Z</time></trkpt><trkpt lat="41.8325433" lon="12.8838633"><ele>414.0</ele><time>2026-04-02T12:27:42.832Z</time></trkpt><trkpt lat="41.8325017" lon="12.883745"><ele>413.79999999999995</ele><time>2026-04-02T12:27:43.832Z</time></trkpt><trkpt lat="41.8324633" lon="12.8836233"><ele>413.59999999999997</ele><time>2026-04-02T12:27:44.833Z</time></trkpt><trkpt lat="41.8324217" lon="12.8835"><ele>413.4</ele><time>2026-04-02T12:27:45.831Z</time></trkpt><trkpt lat="41.8323783" lon="12.8833767"><ele>413.2</ele><time>2026-04-02T12:27:46.832Z</time></trkpt><trkpt lat="41.832335" lon="12.8832617"><ele>413.0</ele><time>2026-04-02T12:27:47.833Z</time></trkpt><trkpt lat="41.8322917" lon="12.883145"><ele>412.59999999999997</ele><time>2026-04-02T12:27:48.832Z</time></trkpt><trkpt lat="41.8322417" lon="12.8830217"><ele>412.2</ele><time>2026-04-02T12:27:49.833Z</time></trkpt><trkpt lat="41.8321867" lon="12.8828983"><ele>411.8</ele><time>2026-04-02T12:27:50.833Z</time></trkpt><trkpt lat="41.8321317" lon="12.8827667"><ele>411.4</ele><time>2026-04-02T12:27:51.832Z</time></trkpt><trkpt lat="41.8320783" lon="12.88263"><ele>411.0</ele><time>2026-04-02T12:27:52.832Z</time></trkpt><trkpt lat="41.8320233" lon="12.8824933"><ele>410.8</ele><time>2026-04-02T12:27:53.832Z</time></trkpt><trkpt lat="41.8319683" lon="12.8823583"><ele>410.6</ele><time>2026-04-02T12:27:54.833Z</time></trkpt><trkpt lat="41.8319117" lon="12.882225"><ele>410.4</ele><time>2026-04-02T12:27:55.832Z</time></trkpt><trkpt lat="41.8318583" lon="12.8820983"><ele>410.2</ele><time>2026-04-02T12:27:56.833Z</time></trkpt><trkpt lat="41.83181" lon="12.8819717"><ele>410.0</ele><time>2026-04-02T12:27:57.832Z</time></trkpt><trkpt lat="41.8317617" lon="12.8818467"><ele>409.16666666666663</ele><time>2026-04-02T12:27:58.831Z</time></trkpt><trkpt lat="41.8317133" lon="12.88173"><ele>408.3333333333333</ele><time>2026-04-02T12:27:59.834Z</time></trkpt><trkpt lat="41.8316667" lon="12.8816283"><ele>407.5</ele><time>2026-04-02T12:28:00.834Z</time></trkpt><trkpt lat="41.8316267" lon="12.8815283"><ele>406.66666666666663</ele><time>2026-04-02T12:28:01.832Z</time></trkpt><trkpt lat="41.8315867" lon="12.881435"><ele>405.8333333333333</ele><time>2026-04-02T12:28:02.832Z</time></trkpt><trkpt lat="41.8315417" lon="12.8813367"><ele>405.0</ele><time>2026-04-02T12:28:03.832Z</time></trkpt><trkpt lat="41.8314983" lon="12.881235"><ele>405.0</ele><time>2026-04-02T12:28:04.835Z</time></trkpt><trkpt lat="41.831455" lon="12.881115"><ele>405.0</ele><time>2026-04-02T12:28:05.834Z</time></trkpt><trkpt lat="41.831405" lon="12.8809733"><ele>405.0</ele><time>2026-04-02T12:28:06.834Z</time></trkpt><trkpt lat="41.8313467" lon="12.8808167"><ele>405.0</ele><time>2026-04-02T12:28:07.833Z</time></trkpt><trkpt lat="41.831285" lon="12.8806467"><ele>404.25</ele><time>2026-04-02T12:28:08.834Z</time></trkpt><trkpt lat="41.83122" lon="12.8804683"><ele>403.5</ele><time>2026-04-02T12:28:09.833Z</time></trkpt><trkpt lat="41.8311567" lon="12.880295"><ele>402.75</ele><time>2026-04-02T12:28:10.832Z</time></trkpt><trkpt lat="41.8310933" lon="12.8801217"><ele>402.0</ele><time>2026-04-02T12:28:11.835Z</time></trkpt><trkpt lat="41.8310283" lon="12.8799467"><ele>401.5</ele><time>2026-04-02T12:28:12.834Z</time></trkpt><trkpt lat="41.8309633" lon="12.8797683"><ele>401.0</ele><time>2026-04-02T12:28:13.831Z</time></trkpt><trkpt lat="41.8308967" lon="12.8795883"><ele>400.5</ele><time>2026-04-02T12:28:14.833Z</time></trkpt><trkpt lat="41.8308267" lon="12.8794083"><ele>400.0</ele><time>2026-04-02T12:28:15.833Z</time></trkpt><trkpt lat="41.8307583" lon="12.8792317"><ele>399.75</ele><time>2026-04-02T12:28:16.832Z</time></trkpt><trkpt lat="41.8306883" lon="12.8790567"><ele>399.5</ele><time>2026-04-02T12:28:17.831Z</time></trkpt><trkpt lat="41.8306133" lon="12.8788833"><ele>399.25</ele><time>2026-04-02T12:28:18.833Z</time></trkpt><trkpt lat="41.8305317" lon="12.8787117"><ele>399.0</ele><time>2026-04-02T12:28:19.833Z</time></trkpt><trkpt lat="41.830445" lon="12.8785517"><ele>398.5</ele><time>2026-04-02T12:28:20.833Z</time></trkpt><trkpt lat="41.8303583" lon="12.8784033"><ele>398.0</ele><time>2026-04-02T12:28:21.833Z</time></trkpt><trkpt lat="41.8302733" lon="12.8782583"><ele>397.5</ele><time>2026-04-02T12:28:22.831Z</time></trkpt><trkpt lat="41.8301867" lon="12.8781217"><ele>397.0</ele><time>2026-04-02T12:28:23.831Z</time></trkpt><trkpt lat="41.8300933" lon="12.8779933"><ele>397.0</ele><time>2026-04-02T12:28:24.831Z</time></trkpt><trkpt lat="41.8299933" lon="12.8778783"><ele>397.0</ele><time>2026-04-02T12:28:25.834Z</time></trkpt><trkpt lat="41.82989" lon="12.8777817"><ele>397.0</ele><time>2026-04-02T12:28:26.832Z</time></trkpt><trkpt lat="41.8297917" lon="12.8776967"><ele>397.0</ele><time>2026-04-02T12:28:27.832Z</time></trkpt><trkpt lat="41.8297" lon="12.8776217"><ele>397.0</ele><time>2026-04-02T12:28:28.832Z</time></trkpt><trkpt lat="41.8296167" lon="12.8775517"><ele>397.0</ele><time>2026-04-02T12:28:29.834Z</time></trkpt><trkpt lat="41.8295383" lon="12.8774867"><ele>397.0</ele><time>2026-04-02T12:28:30.833Z</time></trkpt><trkpt lat="41.8294567" lon="12.8774183"><ele>397.0</ele><time>2026-04-02T12:28:31.832Z</time></trkpt><trkpt lat="41.829365" lon="12.8773467"><ele>397.0</ele><time>2026-04-02T12:28:32.834Z</time></trkpt><trkpt lat="41.829265" lon="12.8772717"><ele>397.0</ele><time>2026-04-02T12:28:33.835Z</time></trkpt><trkpt lat="41.8291517" lon="12.87719"><ele>397.0</ele><time>2026-04-02T12:28:34.833Z</time></trkpt><trkpt lat="41.8290283" lon="12.877105"><ele>397.0</ele><time>2026-04-02T12:28:35.833Z</time></trkpt><trkpt lat="41.8288983" lon="12.8770067"><ele>397.0</ele><time>2026-04-02T12:28:36.836Z</time></trkpt><trkpt lat="41.8287683" lon="12.8769017"><ele>397.0</ele><time>2026-04-02T12:28:37.835Z</time></trkpt><trkpt lat="41.82864" lon="12.8768017"><ele>397.0</ele><time>2026-04-02T12:28:38.836Z</time></trkpt><trkpt lat="41.8285083" lon="12.8766983"><ele>397.0</ele><time>2026-04-02T12:28:39.835Z</time></trkpt><trkpt lat="41.8283733" lon="12.8765917"><ele>396.0</ele><time>2026-04-02T12:28:40.835Z</time></trkpt><trkpt lat="41.8282283" lon="12.87649"><ele>395.0</ele><time>2026-04-02T12:28:41.834Z</time></trkpt><trkpt lat="41.8280817" lon="12.8763783"><ele>394.0</ele><time>2026-04-02T12:28:42.835Z</time></trkpt><trkpt lat="41.82793" lon="12.8762633"><ele>394.0</ele><time>2026-04-02T12:28:43.835Z</time></trkpt><trkpt lat="41.8277783" lon="12.8761483"><ele>394.0</ele><time>2026-04-02T12:28:44.835Z</time></trkpt><trkpt lat="41.82763" lon="12.8760317"><ele>394.0</ele><time>2026-04-02T12:28:45.835Z</time></trkpt><trkpt lat="41.8274833" lon="12.8759133"><ele>392.6666666666667</ele><time>2026-04-02T12:28:46.835Z</time></trkpt><trkpt lat="41.8273383" lon="12.8758"><ele>391.33333333333337</ele><time>2026-04-02T12:28:47.833Z</time></trkpt><trkpt lat="41.82719" lon="12.8756867"><ele>390.0</ele><time>2026-04-02T12:28:48.833Z</time></trkpt><trkpt lat="41.82704" lon="12.875565"><ele>390.0</ele><time>2026-04-02T12:28:49.833Z</time></trkpt><trkpt lat="41.8268883" lon="12.875435"><ele>390.0</ele><time>2026-04-02T12:28:50.833Z</time></trkpt><trkpt lat="41.8267333" lon="12.875305"><ele>390.0</ele><time>2026-04-02T12:28:51.832Z</time></trkpt><trkpt lat="41.8265783" lon="12.8751733"><ele>388.0</ele><time>2026-04-02T12:28:52.831Z</time></trkpt><trkpt lat="41.826435" lon="12.8750467"><ele>386.0</ele><time>2026-04-02T12:28:53.834Z</time></trkpt><trkpt lat="41.8262967" lon="12.874925"><ele>384.0</ele><time>2026-04-02T12:28:54.832Z</time></trkpt><trkpt lat="41.8261633" lon="12.8748083"><ele>384.0</ele><time>2026-04-02T12:28:55.833Z</time></trkpt><trkpt lat="41.826035" lon="12.874695"><ele>384.0</ele><time>2026-04-02T12:28:56.833Z</time></trkpt><trkpt lat="41.8259117" lon="12.874585"><ele>384.0</ele><time>2026-04-02T12:28:57.833Z</time></trkpt><trkpt lat="41.8258017" lon="12.8744783"><ele>384.0</ele><time>2026-04-02T12:28:58.831Z</time></trkpt><trkpt lat="41.8257017" lon="12.8743717"><ele>383.79999999999995</ele><time>2026-04-02T12:28:59.835Z</time></trkpt><trkpt lat="41.825615" lon="12.8742617"><ele>383.59999999999997</ele><time>2026-04-02T12:29:00.834Z</time></trkpt><trkpt lat="41.82554" lon="12.874145"><ele>383.4</ele><time>2026-04-02T12:29:01.835Z</time></trkpt><trkpt lat="41.8254767" lon="12.8740267"><ele>383.2</ele><time>2026-04-02T12:29:02.835Z</time></trkpt><trkpt lat="41.8254183" lon="12.8739117"><ele>383.0</ele><time>2026-04-02T12:29:03.832Z</time></trkpt><trkpt lat="41.8253617" lon="12.8737867"><ele>383.0</ele><time>2026-04-02T12:29:04.834Z</time></trkpt><trkpt lat="41.8253033" lon="12.8736567"><ele>383.0</ele><time>2026-04-02T12:29:05.834Z</time></trkpt><trkpt lat="41.8252517" lon="12.873515"><ele>383.0</ele><time>2026-04-02T12:29:06.833Z</time></trkpt><trkpt lat="41.8252017" lon="12.8733683"><ele>383.0</ele><time>2026-04-02T12:29:07.835Z</time></trkpt><trkpt lat="41.825155" lon="12.87321"><ele>383.5</ele><time>2026-04-02T12:29:08.836Z</time></trkpt><trkpt lat="41.8251133" lon="12.8730433"><ele>384.0</ele><time>2026-04-02T12:29:09.835Z</time></trkpt><trkpt lat="41.8250783" lon="12.8728633"><ele>384.5</ele><time>2026-04-02T12:29:10.834Z</time></trkpt><trkpt lat="41.8250483" lon="12.8726733"><ele>385.0</ele><time>2026-04-02T12:29:11.834Z</time></trkpt><trkpt lat="41.82502" lon="12.8724833"><ele>385.0</ele><time>2026-04-02T12:29:12.835Z</time></trkpt><trkpt lat="41.824995" lon="12.8723"><ele>385.0</ele><time>2026-04-02T12:29:13.831Z</time></trkpt><trkpt lat="41.8249667" lon="12.8721167"><ele>385.0</ele><time>2026-04-02T12:29:14.831Z</time></trkpt><trkpt lat="41.8249417" lon="12.8719267"><ele>385.0</ele><time>2026-04-02T12:29:15.836Z</time></trkpt><trkpt lat="41.8249183" lon="12.8717333"><ele>385.0</ele><time>2026-04-02T12:29:16.835Z</time></trkpt><trkpt lat="41.8248967" lon="12.8715383"><ele>385.0</ele><time>2026-04-02T12:29:17.833Z</time></trkpt><trkpt lat="41.8248767" lon="12.8713467"><ele>385.0</ele><time>2026-04-02T12:29:18.833Z</time></trkpt><trkpt lat="41.8248583" lon="12.871165"><ele>385.0</ele><time>2026-04-02T12:29:19.833Z</time></trkpt><trkpt lat="41.8248383" lon="12.8709883"><ele>384.75</ele><time>2026-04-02T12:29:20.833Z</time></trkpt><trkpt lat="41.8248183" lon="12.870815"><ele>384.5</ele><time>2026-04-02T12:29:21.833Z</time></trkpt><trkpt lat="41.8247983" lon="12.870645"><ele>384.25</ele><time>2026-04-02T12:29:22.832Z</time></trkpt><trkpt lat="41.8247783" lon="12.8704733"><ele>384.0</ele><time>2026-04-02T12:29:23.832Z</time></trkpt><trkpt lat="41.8247567" lon="12.8703017"><ele>384.0</ele><time>2026-04-02T12:29:24.836Z</time></trkpt><trkpt lat="41.8247333" lon="12.87013"><ele>384.0</ele><time>2026-04-02T12:29:25.835Z</time></trkpt><trkpt lat="41.82471" lon="12.8699567"><ele>384.0</ele><time>2026-04-02T12:29:26.837Z</time></trkpt><trkpt lat="41.8246867" lon="12.86978"><ele>384.0</ele><time>2026-04-02T12:29:27.834Z</time></trkpt><trkpt lat="41.8246633" lon="12.8696"><ele>384.0</ele><time>2026-04-02T12:29:28.835Z</time></trkpt><trkpt lat="41.8246383" lon="12.8694167"><ele>384.0</ele><time>2026-04-02T12:29:29.834Z</time></trkpt><trkpt lat="41.8246167" lon="12.86923"><ele>384.0</ele><time>2026-04-02T12:29:30.834Z</time></trkpt><trkpt lat="41.8246" lon="12.8690417"><ele>384.0</ele><time>2026-04-02T12:29:31.836Z</time></trkpt><trkpt lat="41.8245883" lon="12.8688533"><ele>384.0</ele><time>2026-04-02T12:29:32.835Z</time></trkpt><trkpt lat="41.8245783" lon="12.8686633"><ele>384.0</ele><time>2026-04-02T12:29:33.835Z</time></trkpt><trkpt lat="41.8245733" lon="12.8684717"><ele>384.0</ele><time>2026-04-02T12:29:34.835Z</time></trkpt><trkpt lat="41.8245717" lon="12.86828"><ele>384.0</ele><time>2026-04-02T12:29:35.835Z</time></trkpt><trkpt lat="41.8245733" lon="12.8680867"><ele>383.25</ele><time>2026-04-02T12:29:36.835Z</time></trkpt><trkpt lat="41.8245767" lon="12.8678967"><ele>382.5</ele><time>2026-04-02T12:29:37.834Z</time></trkpt><trkpt lat="41.824585" lon="12.867715"><ele>381.75</ele><time>2026-04-02T12:29:38.837Z</time></trkpt><trkpt lat="41.8245967" lon="12.8675383"><ele>381.0</ele><time>2026-04-02T12:29:39.834Z</time></trkpt><trkpt lat="41.8246133" lon="12.8673617"><ele>381.0</ele><time>2026-04-02T12:29:40.834Z</time></trkpt><trkpt lat="41.8246317" lon="12.8671867"><ele>381.0</ele><time>2026-04-02T12:29:41.835Z</time></trkpt><trkpt lat="41.8246483" lon="12.8670117"><ele>381.0</ele><time>2026-04-02T12:29:42.835Z</time></trkpt><trkpt lat="41.824665" lon="12.8668367"><ele>381.0</ele><time>2026-04-02T12:29:43.835Z</time></trkpt><trkpt lat="41.82468" lon="12.8666567"><ele>381.0</ele><time>2026-04-02T12:29:44.835Z</time></trkpt><trkpt lat="41.8246933" lon="12.8664767"><ele>381.0</ele><time>2026-04-02T12:29:45.835Z</time></trkpt><trkpt lat="41.8247067" lon="12.8662983"><ele>381.0</ele><time>2026-04-02T12:29:46.835Z</time></trkpt><trkpt lat="41.8247183" lon="12.8661283"><ele>381.0</ele><time>2026-04-02T12:29:47.832Z</time></trkpt><trkpt lat="41.82473" lon="12.8659667"><ele>380.75</ele><time>2026-04-02T12:29:48.833Z</time></trkpt><trkpt lat="41.82474" lon="12.8658083"><ele>380.5</ele><time>2026-04-02T12:29:49.834Z</time></trkpt><trkpt lat="41.8247533" lon="12.8656583"><ele>380.25</ele><time>2026-04-02T12:29:50.833Z</time></trkpt><trkpt lat="41.824765" lon="12.86551"><ele>380.0</ele><time>2026-04-02T12:29:51.833Z</time></trkpt><trkpt lat="41.82478" lon="12.8653583"><ele>380.0</ele><time>2026-04-02T12:29:52.831Z</time></trkpt><trkpt lat="41.824795" lon="12.8652"><ele>380.0</ele><time>2026-04-02T12:29:53.833Z</time></trkpt><trkpt lat="41.82481" lon="12.8650317"><ele>380.0</ele><time>2026-04-02T12:29:54.833Z</time></trkpt><trkpt lat="41.824825" lon="12.8648483"><ele>380.0</ele><time>2026-04-02T12:29:55.835Z</time></trkpt><trkpt lat="41.82484" lon="12.8646583"><ele>379.5</ele><time>2026-04-02T12:29:56.835Z</time></trkpt><trkpt lat="41.8248533" lon="12.86447"><ele>379.0</ele><time>2026-04-02T12:29:57.835Z</time></trkpt><trkpt lat="41.8248683" lon="12.8642867"><ele>378.5</ele><time>2026-04-02T12:29:58.832Z</time></trkpt><trkpt lat="41.8248833" lon="12.8641"><ele>378.0</ele><time>2026-04-02T12:29:59.833Z</time></trkpt><trkpt lat="41.8248983" lon="12.8639083"><ele>376.75</ele><time>2026-04-02T12:30:00.834Z</time></trkpt><trkpt lat="41.8249167" lon="12.8637117"><ele>375.5</ele><time>2026-04-02T12:30:01.833Z</time></trkpt><trkpt lat="41.824935" lon="12.8635133"><ele>374.25</ele><time>2026-04-02T12:30:02.832Z</time></trkpt><trkpt lat="41.8249533" lon="12.8633167"><ele>373.0</ele><time>2026-04-02T12:30:03.832Z</time></trkpt><trkpt lat="41.82497" lon="12.86313"><ele>372.5</ele><time>2026-04-02T12:30:04.83Z</time></trkpt><trkpt lat="41.824985" lon="12.86295"><ele>372.0</ele><time>2026-04-02T12:30:05.833Z</time></trkpt><trkpt lat="41.8249983" lon="12.862775"><ele>371.5</ele><time>2026-04-02T12:30:06.831Z</time></trkpt><trkpt lat="41.8250133" lon="12.8625983"><ele>371.0</ele><time>2026-04-02T12:30:07.833Z</time></trkpt><trkpt lat="41.825025" lon="12.86242"><ele>370.75</ele><time>2026-04-02T12:30:08.831Z</time></trkpt><trkpt lat="41.8250383" lon="12.8622433"><ele>370.5</ele><time>2026-04-02T12:30:09.832Z</time></trkpt><trkpt lat="41.825055" lon="12.86207"><ele>370.25</ele><time>2026-04-02T12:30:10.833Z</time></trkpt><trkpt lat="41.8250717" lon="12.8619017"><ele>370.0</ele><time>2026-04-02T12:30:11.834Z</time></trkpt><trkpt lat="41.8250867" lon="12.86174"><ele>369.8</ele><time>2026-04-02T12:30:12.834Z</time></trkpt><trkpt lat="41.8251033" lon="12.861585"><ele>369.6</ele><time>2026-04-02T12:30:13.834Z</time></trkpt><trkpt lat="41.8251183" lon="12.8614333"><ele>369.4</ele><time>2026-04-02T12:30:14.837Z</time></trkpt><trkpt lat="41.8251317" lon="12.8612933"><ele>369.2</ele><time>2026-04-02T12:30:15.833Z</time></trkpt><trkpt lat="41.8251433" lon="12.861155"><ele>369.0</ele><time>2026-04-02T12:30:16.835Z</time></trkpt><trkpt lat="41.825155" lon="12.8610233"><ele>368.8333333333333</ele><time>2026-04-02T12:30:17.836Z</time></trkpt><trkpt lat="41.825165" lon="12.8609"><ele>368.6666666666667</ele><time>2026-04-02T12:30:18.834Z</time></trkpt><trkpt lat="41.8251767" lon="12.8607833"><ele>368.5</ele><time>2026-04-02T12:30:19.835Z</time></trkpt><trkpt lat="41.82519" lon="12.8606817"><ele>368.33333333333337</ele><time>2026-04-02T12:30:20.835Z</time></trkpt><trkpt lat="41.825215" lon="12.86058"><ele>368.1666666666667</ele><time>2026-04-02T12:30:22.836Z</time></trkpt><trkpt lat="41.8252567" lon="12.86048"><ele>368.0</ele><time>2026-04-02T12:30:27.835Z</time></trkpt><trkpt lat="41.8253067" lon="12.8603833"><ele>368.0</ele><time>2026-04-02T12:30:29.832Z</time></trkpt><trkpt lat="41.82537" lon="12.8602433"><ele>368.0</ele><time>2026-04-02T12:30:31.831Z</time></trkpt><trkpt lat="41.8253833" lon="12.860155"><ele>368.0</ele><time>2026-04-02T12:30:32.832Z</time></trkpt><trkpt lat="41.82534" lon="12.86"><ele>368.0</ele><time>2026-04-02T12:30:34.833Z</time></trkpt><trkpt lat="41.8253167" lon="12.85992"><ele>368.0</ele><time>2026-04-02T12:30:35.833Z</time></trkpt><trkpt lat="41.825305" lon="12.8598217"><ele>368.0</ele><time>2026-04-02T12:30:36.833Z</time></trkpt><trkpt lat="41.8252983" lon="12.8597133"><ele>368.0</ele><time>2026-04-02T12:30:37.831Z</time></trkpt><trkpt lat="41.8252967" lon="12.8596017"><ele>368.0</ele><time>2026-04-02T12:30:38.833Z</time></trkpt><trkpt lat="41.8252983" lon="12.85949"><ele>368.0</ele><time>2026-04-02T12:30:39.833Z</time></trkpt><trkpt lat="41.8253" lon="12.8593767"><ele>368.0</ele><time>2026-04-02T12:30:40.833Z</time></trkpt><trkpt lat="41.8253067" lon="12.8592617"><ele>368.0</ele><time>2026-04-02T12:30:41.835Z</time></trkpt><trkpt lat="41.8253083" lon="12.8591317"><ele>368.0</ele><time>2026-04-02T12:30:42.833Z</time></trkpt><trkpt lat="41.8253083" lon="12.8589933"><ele>368.0</ele><time>2026-04-02T12:30:43.834Z</time></trkpt><trkpt lat="41.8253083" lon="12.858855"><ele>368.0</ele><time>2026-04-02T12:30:44.835Z</time></trkpt><trkpt lat="41.825315" lon="12.85872"><ele>368.0</ele><time>2026-04-02T12:30:45.835Z</time></trkpt><trkpt lat="41.8253167" lon="12.8585867"><ele>368.0</ele><time>2026-04-02T12:30:46.832Z</time></trkpt><trkpt lat="41.8253217" lon="12.8584483"><ele>368.0</ele><time>2026-04-02T12:30:47.832Z</time></trkpt><trkpt lat="41.8253267" lon="12.8583033"><ele>368.0</ele><time>2026-04-02T12:30:48.833Z</time></trkpt><trkpt lat="41.8253333" lon="12.8581567"><ele>368.0</ele><time>2026-04-02T12:30:49.833Z</time></trkpt><trkpt lat="41.82534" lon="12.8580067"><ele>368.0</ele><time>2026-04-02T12:30:50.833Z</time></trkpt><trkpt lat="41.8253417" lon="12.8578517"><ele>368.0</ele><time>2026-04-02T12:30:51.833Z</time></trkpt><trkpt lat="41.825345" lon="12.857695"><ele>367.25</ele><time>2026-04-02T12:30:52.833Z</time></trkpt><trkpt lat="41.8253483" lon="12.8575383"><ele>366.5</ele><time>2026-04-02T12:30:53.831Z</time></trkpt><trkpt lat="41.825355" lon="12.8573817"><ele>365.75</ele><time>2026-04-02T12:30:54.835Z</time></trkpt><trkpt lat="41.82536" lon="12.857225"><ele>365.0</ele><time>2026-04-02T12:30:55.832Z</time></trkpt><trkpt lat="41.8253667" lon="12.857065"><ele>365.0</ele><time>2026-04-02T12:30:56.833Z</time></trkpt><trkpt lat="41.82537" lon="12.8569"><ele>365.0</ele><time>2026-04-02T12:30:57.834Z</time></trkpt><trkpt lat="41.8253733" lon="12.8567283"><ele>365.0</ele><time>2026-04-02T12:30:58.833Z</time></trkpt><trkpt lat="41.8253783" lon="12.8565517"><ele>365.0</ele><time>2026-04-02T12:30:59.83Z</time></trkpt><trkpt lat="41.8253817" lon="12.8563683"><ele>364.5</ele><time>2026-04-02T12:31:00.833Z</time></trkpt><trkpt lat="41.8253883" lon="12.85618"><ele>364.0</ele><time>2026-04-02T12:31:01.833Z</time></trkpt><trkpt lat="41.825395" lon="12.856"><ele>363.5</ele><time>2026-04-02T12:31:02.832Z</time></trkpt><trkpt lat="41.825405" lon="12.8558233"><ele>363.0</ele><time>2026-04-02T12:31:03.832Z</time></trkpt><trkpt lat="41.825415" lon="12.85565"><ele>363.0</ele><time>2026-04-02T12:31:04.833Z</time></trkpt><trkpt lat="41.825425" lon="12.8554767"><ele>363.0</ele><time>2026-04-02T12:31:05.83Z</time></trkpt><trkpt lat="41.8254367" lon="12.8553"><ele>363.0</ele><time>2026-04-02T12:31:06.832Z</time></trkpt><trkpt lat="41.82545" lon="12.8551267"><ele>363.0</ele><time>2026-04-02T12:31:07.833Z</time></trkpt><trkpt lat="41.8254633" lon="12.85496"><ele>362.5</ele><time>2026-04-02T12:31:08.833Z</time></trkpt><trkpt lat="41.8254767" lon="12.8547967"><ele>362.0</ele><time>2026-04-02T12:31:09.834Z</time></trkpt><trkpt lat="41.8254917" lon="12.8546333"><ele>361.5</ele><time>2026-04-02T12:31:10.834Z</time></trkpt><trkpt lat="41.8255067" lon="12.854475"><ele>361.0</ele><time>2026-04-02T12:31:11.835Z</time></trkpt><trkpt lat="41.8255217" lon="12.8543167"><ele>360.5</ele><time>2026-04-02T12:31:12.835Z</time></trkpt><trkpt lat="41.82554" lon="12.8541567"><ele>360.0</ele><time>2026-04-02T12:31:13.833Z</time></trkpt><trkpt lat="41.8255617" lon="12.853995"><ele>359.5</ele><time>2026-04-02T12:31:14.835Z</time></trkpt><trkpt lat="41.825585" lon="12.853835"><ele>359.0</ele><time>2026-04-02T12:31:15.835Z</time></trkpt><trkpt lat="41.82561" lon="12.8536867"><ele>359.0</ele><time>2026-04-02T12:31:16.834Z</time></trkpt><trkpt lat="41.8256367" lon="12.8535517"><ele>359.0</ele><time>2026-04-02T12:31:17.831Z</time></trkpt><trkpt lat="41.8256617" lon="12.8534217"><ele>359.0</ele><time>2026-04-02T12:31:18.833Z</time></trkpt><trkpt lat="41.825685" lon="12.8532883"><ele>359.0</ele><time>2026-04-02T12:31:19.831Z</time></trkpt><trkpt lat="41.8257033" lon="12.8531467"><ele>359.0</ele><time>2026-04-02T12:31:20.833Z</time></trkpt><trkpt lat="41.8257183" lon="12.8529983"><ele>359.5</ele><time>2026-04-02T12:31:21.832Z</time></trkpt><trkpt lat="41.8257333" lon="12.8528467"><ele>360.0</ele><time>2026-04-02T12:31:22.833Z</time></trkpt><trkpt lat="41.8257483" lon="12.8526867"><ele>360.5</ele><time>2026-04-02T12:31:23.833Z</time></trkpt><trkpt lat="41.8257617" lon="12.8525233"><ele>361.0</ele><time>2026-04-02T12:31:24.837Z</time></trkpt><trkpt lat="41.82577" lon="12.8523567"><ele>361.0</ele><time>2026-04-02T12:31:25.835Z</time></trkpt><trkpt lat="41.8257767" lon="12.8521883"><ele>361.0</ele><time>2026-04-02T12:31:26.835Z</time></trkpt><trkpt lat="41.82578" lon="12.8520183"><ele>361.0</ele><time>2026-04-02T12:31:27.834Z</time></trkpt><trkpt lat="41.825785" lon="12.8518483"><ele>361.0</ele><time>2026-04-02T12:31:28.832Z</time></trkpt><trkpt lat="41.82579" lon="12.8516833"><ele>360.5</ele><time>2026-04-02T12:31:29.832Z</time></trkpt><trkpt lat="41.8257933" lon="12.851525"><ele>360.0</ele><time>2026-04-02T12:31:30.832Z</time></trkpt><trkpt lat="41.8257967" lon="12.85137"><ele>359.5</ele><time>2026-04-02T12:31:31.83Z</time></trkpt><trkpt lat="41.8258017" lon="12.8512183"><ele>359.0</ele><time>2026-04-02T12:31:32.833Z</time></trkpt><trkpt lat="41.825805" lon="12.8510717"><ele>359.0</ele><time>2026-04-02T12:31:33.833Z</time></trkpt><trkpt lat="41.82581" lon="12.8509333"><ele>359.0</ele><time>2026-04-02T12:31:34.833Z</time></trkpt><trkpt lat="41.8258117" lon="12.8508017"><ele>359.0</ele><time>2026-04-02T12:31:35.833Z</time></trkpt><trkpt lat="41.825815" lon="12.850675"><ele>359.0</ele><time>2026-04-02T12:31:36.833Z</time></trkpt><trkpt lat="41.82582" lon="12.8505517"><ele>359.0</ele><time>2026-04-02T12:31:37.832Z</time></trkpt><trkpt lat="41.8258267" lon="12.85043"><ele>359.0</ele><time>2026-04-02T12:31:38.831Z</time></trkpt><trkpt lat="41.8258333" lon="12.850305"><ele>359.0</ele><time>2026-04-02T12:31:39.832Z</time></trkpt><trkpt lat="41.8258417" lon="12.8501733"><ele>359.0</ele><time>2026-04-02T12:31:40.833Z</time></trkpt><trkpt lat="41.82585" lon="12.850035"><ele>359.0</ele><time>2026-04-02T12:31:41.835Z</time></trkpt><trkpt lat="41.8258567" lon="12.8498883"><ele>359.0</ele><time>2026-04-02T12:31:42.835Z</time></trkpt><trkpt lat="41.825865" lon="12.8497333"><ele>359.5</ele><time>2026-04-02T12:31:43.833Z</time></trkpt><trkpt lat="41.825875" lon="12.8495683"><ele>360.0</ele><time>2026-04-02T12:31:44.835Z</time></trkpt><trkpt lat="41.8258817" lon="12.8493983"><ele>360.5</ele><time>2026-04-02T12:31:45.833Z</time></trkpt><trkpt lat="41.8258883" lon="12.8492333"><ele>361.0</ele><time>2026-04-02T12:31:46.834Z</time></trkpt><trkpt lat="41.825895" lon="12.8490733"><ele>361.0</ele><time>2026-04-02T12:31:47.834Z</time></trkpt><trkpt lat="41.8259" lon="12.8489117"><ele>361.0</ele><time>2026-04-02T12:31:48.834Z</time></trkpt><trkpt lat="41.8259067" lon="12.848755"><ele>361.0</ele><time>2026-04-02T12:31:49.834Z</time></trkpt><trkpt lat="41.825915" lon="12.8486067"><ele>361.0</ele><time>2026-04-02T12:31:50.835Z</time></trkpt><trkpt lat="41.8259183" lon="12.8484683"><ele>360.4</ele><time>2026-04-02T12:31:51.834Z</time></trkpt><trkpt lat="41.82592" lon="12.8483367"><ele>359.8</ele><time>2026-04-02T12:31:52.834Z</time></trkpt><trkpt lat="41.8259217" lon="12.84821"><ele>359.2</ele><time>2026-04-02T12:31:53.834Z</time></trkpt><trkpt lat="41.8259233" lon="12.8480833"><ele>358.59999999999997</ele><time>2026-04-02T12:31:54.834Z</time></trkpt><trkpt lat="41.8259283" lon="12.84795"><ele>358.0</ele><time>2026-04-02T12:31:55.833Z</time></trkpt><trkpt lat="41.825935" lon="12.8478167"><ele>358.0</ele><time>2026-04-02T12:31:56.835Z</time></trkpt><trkpt lat="41.8259383" lon="12.8476817"><ele>358.0</ele><time>2026-04-02T12:31:57.834Z</time></trkpt><trkpt lat="41.8259433" lon="12.847545"><ele>358.0</ele><time>2026-04-02T12:31:58.834Z</time></trkpt><trkpt lat="41.8259483" lon="12.8474067"><ele>358.0</ele><time>2026-04-02T12:31:59.833Z</time></trkpt><trkpt lat="41.82595" lon="12.8472667"><ele>358.0</ele><time>2026-04-02T12:32:00.833Z</time></trkpt><trkpt lat="41.825955" lon="12.8471267"><ele>357.59999999999997</ele><time>2026-04-02T12:32:01.833Z</time></trkpt><trkpt lat="41.82596" lon="12.8469817"><ele>357.2</ele><time>2026-04-02T12:32:02.831Z</time></trkpt><trkpt lat="41.825965" lon="12.8468333"><ele>356.8</ele><time>2026-04-02T12:32:03.832Z</time></trkpt><trkpt lat="41.82597" lon="12.84668"><ele>356.4</ele><time>2026-04-02T12:32:04.831Z</time></trkpt><trkpt lat="41.825975" lon="12.8465267"><ele>356.0</ele><time>2026-04-02T12:32:05.833Z</time></trkpt><trkpt lat="41.8259783" lon="12.8463767"><ele>355.25</ele><time>2026-04-02T12:32:06.833Z</time></trkpt><trkpt lat="41.8259817" lon="12.846225"><ele>354.5</ele><time>2026-04-02T12:32:07.832Z</time></trkpt><trkpt lat="41.825985" lon="12.8460733"><ele>353.75</ele><time>2026-04-02T12:32:08.833Z</time></trkpt><trkpt lat="41.825985" lon="12.84592"><ele>353.0</ele><time>2026-04-02T12:32:09.832Z</time></trkpt><trkpt lat="41.8259867" lon="12.845765"><ele>352.79999999999995</ele><time>2026-04-02T12:32:10.829Z</time></trkpt><trkpt lat="41.8259867" lon="12.8456117"><ele>352.6</ele><time>2026-04-02T12:32:11.832Z</time></trkpt><trkpt lat="41.8259883" lon="12.8454633"><ele>352.4</ele><time>2026-04-02T12:32:12.833Z</time></trkpt><trkpt lat="41.8259883" lon="12.8453233"><ele>352.20000000000005</ele><time>2026-04-02T12:32:13.832Z</time></trkpt><trkpt lat="41.8259883" lon="12.8451917"><ele>352.0</ele><time>2026-04-02T12:32:14.831Z</time></trkpt><trkpt lat="41.8259883" lon="12.8450617"><ele>352.0</ele><time>2026-04-02T12:32:15.834Z</time></trkpt><trkpt lat="41.8259883" lon="12.8449333"><ele>352.0</ele><time>2026-04-02T12:32:16.834Z</time></trkpt><trkpt lat="41.8259883" lon="12.8447983"><ele>352.0</ele><time>2026-04-02T12:32:17.832Z</time></trkpt><trkpt lat="41.82599" lon="12.844655"><ele>352.0</ele><time>2026-04-02T12:32:18.834Z</time></trkpt><trkpt lat="41.8259917" lon="12.8445033"><ele>352.0</ele><time>2026-04-02T12:32:19.832Z</time></trkpt><trkpt lat="41.8259933" lon="12.84434"><ele>351.5</ele><time>2026-04-02T12:32:20.835Z</time></trkpt><trkpt lat="41.8260033" lon="12.844175"><ele>351.0</ele><time>2026-04-02T12:32:21.835Z</time></trkpt><trkpt lat="41.82602" lon="12.8440117"><ele>350.5</ele><time>2026-04-02T12:32:22.833Z</time></trkpt><trkpt lat="41.8260517" lon="12.843845"><ele>350.0</ele><time>2026-04-02T12:32:23.833Z</time></trkpt><trkpt lat="41.8260867" lon="12.84367"><ele>350.0</ele><time>2026-04-02T12:32:24.832Z</time></trkpt><trkpt lat="41.8261283" lon="12.8434967"><ele>350.0</ele><time>2026-04-02T12:32:25.833Z</time></trkpt><trkpt lat="41.826175" lon="12.8433267"><ele>350.0</ele><time>2026-04-02T12:32:26.834Z</time></trkpt><trkpt lat="41.8262233" lon="12.843165"><ele>350.0</ele><time>2026-04-02T12:32:27.833Z</time></trkpt><trkpt lat="41.8262667" lon="12.84301"><ele>348.75</ele><time>2026-04-02T12:32:28.835Z</time></trkpt><trkpt lat="41.8263117" lon="12.84286"><ele>347.5</ele><time>2026-04-02T12:32:29.834Z</time></trkpt><trkpt lat="41.8263533" lon="12.84271"><ele>346.25</ele><time>2026-04-02T12:32:30.831Z</time></trkpt><trkpt lat="41.8263967" lon="12.8425617"><ele>345.0</ele><time>2026-04-02T12:32:31.83Z</time></trkpt><trkpt lat="41.8264383" lon="12.8424217"><ele>343.6</ele><time>2026-04-02T12:32:32.832Z</time></trkpt><trkpt lat="41.8264767" lon="12.8422883"><ele>342.2</ele><time>2026-04-02T12:32:33.833Z</time></trkpt><trkpt lat="41.82651" lon="12.8421617"><ele>340.79999999999995</ele><time>2026-04-02T12:32:34.831Z</time></trkpt><trkpt lat="41.826545" lon="12.8420383"><ele>339.4</ele><time>2026-04-02T12:32:35.832Z</time></trkpt><trkpt lat="41.8265733" lon="12.8419233"><ele>338.0</ele><time>2026-04-02T12:32:36.832Z</time></trkpt><trkpt lat="41.8266017" lon="12.841805"><ele>336.79999999999995</ele><time>2026-04-02T12:32:37.833Z</time></trkpt><trkpt lat="41.8266267" lon="12.841685"><ele>335.6</ele><time>2026-04-02T12:32:38.834Z</time></trkpt><trkpt lat="41.8266517" lon="12.8415567"><ele>334.4</ele><time>2026-04-02T12:32:39.834Z</time></trkpt><trkpt lat="41.82667" lon="12.8414283"><ele>333.20000000000005</ele><time>2026-04-02T12:32:40.833Z</time></trkpt><trkpt lat="41.82669" lon="12.8412983"><ele>332.0</ele><time>2026-04-02T12:32:41.834Z</time></trkpt><trkpt lat="41.82671" lon="12.84117"><ele>332.0</ele><time>2026-04-02T12:32:42.833Z</time></trkpt><trkpt lat="41.8267317" lon="12.8410417"><ele>332.0</ele><time>2026-04-02T12:32:43.834Z</time></trkpt><trkpt lat="41.8267533" lon="12.84091"><ele>332.0</ele><time>2026-04-02T12:32:44.835Z</time></trkpt><trkpt lat="41.8267767" lon="12.840775"><ele>332.0</ele><time>2026-04-02T12:32:45.834Z</time></trkpt><trkpt lat="41.8268017" lon="12.8406483"><ele>332.0</ele><time>2026-04-02T12:32:46.834Z</time></trkpt><trkpt lat="41.8268317" lon="12.8405267"><ele>332.5</ele><time>2026-04-02T12:32:47.834Z</time></trkpt><trkpt lat="41.826865" lon="12.84041"><ele>333.0</ele><time>2026-04-02T12:32:48.833Z</time></trkpt><trkpt lat="41.8269067" lon="12.840305"><ele>333.5</ele><time>2026-04-02T12:32:49.834Z</time></trkpt><trkpt lat="41.8269567" lon="12.8402083"><ele>334.0</ele><time>2026-04-02T12:32:50.834Z</time></trkpt><trkpt lat="41.8270067" lon="12.8401183"><ele>334.5</ele><time>2026-04-02T12:32:51.832Z</time></trkpt><trkpt lat="41.8270533" lon="12.8400367"><ele>335.0</ele><time>2026-04-02T12:32:52.83Z</time></trkpt><trkpt lat="41.8270917" lon="12.839965"><ele>332.8</ele><time>2026-04-02T12:32:53.831Z</time></trkpt><trkpt lat="41.82714" lon="12.8398617"><ele>330.6</ele><time>2026-04-02T12:32:55.835Z</time></trkpt><trkpt lat="41.8271533" lon="12.839775"><ele>328.4</ele><time>2026-04-02T12:32:58.043Z</time></trkpt><trkpt lat="41.8272067" lon="12.8396133"><ele>326.2</ele><time>2026-04-02T12:33:00.329Z</time></trkpt><trkpt lat="41.8272267" lon="12.8394533"><ele>324.0</ele><time>2026-04-02T12:33:01.831Z</time></trkpt><trkpt lat="41.827235" lon="12.8393267"><ele>323.5</ele><time>2026-04-02T12:33:02.831Z</time></trkpt><trkpt lat="41.8272483" lon="12.839195"><ele>323.0</ele><time>2026-04-02T12:33:03.832Z</time></trkpt><trkpt lat="41.82726" lon="12.8390833"><ele>322.5</ele><time>2026-04-02T12:33:04.832Z</time></trkpt><trkpt lat="41.827275" lon="12.8389867"><ele>322.0</ele><time>2026-04-02T12:33:05.832Z</time></trkpt><trkpt lat="41.8272967" lon="12.8389067"><ele>321.5</ele><time>2026-04-02T12:33:06.832Z</time></trkpt><trkpt lat="41.8273417" lon="12.8387817"><ele>321.0</ele><time>2026-04-02T12:33:08.831Z</time></trkpt><trkpt lat="41.827355" lon="12.838675"><ele>321.0</ele><time>2026-04-02T12:33:10.832Z</time></trkpt><trkpt lat="41.8272683" lon="12.8385717"><ele>321.0</ele><time>2026-04-02T12:33:12.833Z</time></trkpt><trkpt lat="41.8272117" lon="12.838495"><ele>321.0</ele><time>2026-04-02T12:33:13.832Z</time></trkpt><trkpt lat="41.8271567" lon="12.8383983"><ele>321.0</ele><time>2026-04-02T12:33:14.832Z</time></trkpt><trkpt lat="41.8271033" lon="12.83828"><ele>321.0</ele><time>2026-04-02T12:33:15.832Z</time></trkpt><trkpt lat="41.827055" lon="12.8381583"><ele>321.20000000000005</ele><time>2026-04-02T12:33:16.832Z</time></trkpt><trkpt lat="41.8270117" lon="12.838035"><ele>321.40000000000003</ele><time>2026-04-02T12:33:17.832Z</time></trkpt><trkpt lat="41.82697" lon="12.8379083"><ele>321.6</ele><time>2026-04-02T12:33:18.833Z</time></trkpt><trkpt lat="41.8269267" lon="12.8377733"><ele>321.8</ele><time>2026-04-02T12:33:19.831Z</time></trkpt><trkpt lat="41.826875" lon="12.8376283"><ele>322.0</ele><time>2026-04-02T12:33:20.831Z</time></trkpt><trkpt lat="41.8268233" lon="12.8374867"><ele>323.25</ele><time>2026-04-02T12:33:21.833Z</time></trkpt><trkpt lat="41.8267717" lon="12.837345"><ele>324.5</ele><time>2026-04-02T12:33:22.832Z</time></trkpt><trkpt lat="41.8267217" lon="12.83721"><ele>325.75</ele><time>2026-04-02T12:33:23.831Z</time></trkpt><trkpt lat="41.8266683" lon="12.837065"><ele>327.0</ele><time>2026-04-02T12:33:24.832Z</time></trkpt><trkpt lat="41.82661" lon="12.8369183"><ele>324.75</ele><time>2026-04-02T12:33:25.832Z</time></trkpt><trkpt lat="41.8265533" lon="12.83677"><ele>322.5</ele><time>2026-04-02T12:33:26.832Z</time></trkpt><trkpt lat="41.826495" lon="12.83661"><ele>320.25</ele><time>2026-04-02T12:33:27.831Z</time></trkpt><trkpt lat="41.8264283" lon="12.8364383"><ele>318.0</ele><time>2026-04-02T12:33:28.832Z</time></trkpt><trkpt lat="41.826355" lon="12.83624"><ele>318.0</ele><time>2026-04-02T12:33:29.831Z</time></trkpt><trkpt lat="41.8262867" lon="12.8360267"><ele>318.0</ele><time>2026-04-02T12:33:30.832Z</time></trkpt><trkpt lat="41.82622" lon="12.8358117"><ele>318.0</ele><time>2026-04-02T12:33:31.832Z</time></trkpt><trkpt lat="41.8261583" lon="12.83559"><ele>313.0</ele><time>2026-04-02T12:33:32.834Z</time></trkpt><trkpt lat="41.8261083" lon="12.8353617"><ele>308.0</ele><time>2026-04-02T12:33:33.834Z</time></trkpt><trkpt lat="41.8260767" lon="12.8351317"><ele>303.0</ele><time>2026-04-02T12:33:34.831Z</time></trkpt><trkpt lat="41.8260767" lon="12.83488"><ele>302.3333333333333</ele><time>2026-04-02T12:33:35.832Z</time></trkpt><trkpt lat="41.8261217" lon="12.8346233"><ele>301.66666666666663</ele><time>2026-04-02T12:33:36.832Z</time></trkpt><trkpt lat="41.8261783" lon="12.834365"><ele>301.0</ele><time>2026-04-02T12:33:37.833Z</time></trkpt><trkpt lat="41.8262417" lon="12.8341"><ele>304.3333333333333</ele><time>2026-04-02T12:33:38.834Z</time></trkpt><trkpt lat="41.8263033" lon="12.8338433"><ele>307.6666666666667</ele><time>2026-04-02T12:33:39.832Z</time></trkpt><trkpt lat="41.82636" lon="12.8335883"><ele>311.0</ele><time>2026-04-02T12:33:40.832Z</time></trkpt><trkpt lat="41.8264183" lon="12.8333383"><ele>314.6666666666667</ele><time>2026-04-02T12:33:41.831Z</time></trkpt><trkpt lat="41.8264683" lon="12.8331033"><ele>318.3333333333333</ele><time>2026-04-02T12:33:42.832Z</time></trkpt><trkpt lat="41.8265117" lon="12.83288"><ele>322.0</ele><time>2026-04-02T12:33:43.832Z</time></trkpt><trkpt lat="41.82656" lon="12.8326583"><ele>324.3333333333333</ele><time>2026-04-02T12:33:44.833Z</time></trkpt><trkpt lat="41.8266133" lon="12.832435"><ele>326.6666666666667</ele><time>2026-04-02T12:33:45.832Z</time></trkpt><trkpt lat="41.826655" lon="12.8322"><ele>329.0</ele><time>2026-04-02T12:33:46.833Z</time></trkpt><trkpt lat="41.826675" lon="12.8319533"><ele>328.33333333333337</ele><time>2026-04-02T12:33:47.833Z</time></trkpt><trkpt lat="41.8266767" lon="12.8316917"><ele>327.6666666666667</ele><time>2026-04-02T12:33:48.832Z</time></trkpt><trkpt lat="41.82667" lon="12.8314183"><ele>327.0</ele><time>2026-04-02T12:33:49.833Z</time></trkpt><trkpt lat="41.8266633" lon="12.8311517"><ele>325.6666666666667</ele><time>2026-04-02T12:33:50.832Z</time></trkpt><trkpt lat="41.8266533" lon="12.8309"><ele>324.33333333333337</ele><time>2026-04-02T12:33:51.833Z</time></trkpt><trkpt lat="41.8266433" lon="12.83066"><ele>323.0</ele><time>2026-04-02T12:33:52.832Z</time></trkpt><trkpt lat="41.82663" lon="12.8304283"><ele>323.0</ele><time>2026-04-02T12:33:53.833Z</time></trkpt><trkpt lat="41.8266083" lon="12.8302117"><ele>323.0</ele><time>2026-04-02T12:33:54.833Z</time></trkpt><trkpt lat="41.826585" lon="12.8300017"><ele>323.0</ele><time>2026-04-02T12:33:55.833Z</time></trkpt><trkpt lat="41.82656" lon="12.8298017"><ele>323.0</ele><time>2026-04-02T12:33:56.833Z</time></trkpt><trkpt lat="41.8265283" lon="12.8296083"><ele>323.0</ele><time>2026-04-02T12:33:57.832Z</time></trkpt><trkpt lat="41.826485" lon="12.8294083"><ele>323.0</ele><time>2026-04-02T12:33:58.833Z</time></trkpt><trkpt lat="41.82643" lon="12.829205"><ele>323.0</ele><time>2026-04-02T12:33:59.832Z</time></trkpt><trkpt lat="41.8263717" lon="12.82901"><ele>323.0</ele><time>2026-04-02T12:34:00.832Z</time></trkpt><trkpt lat="41.8263167" lon="12.8288217"><ele>323.0</ele><time>2026-04-02T12:34:01.832Z</time></trkpt><trkpt lat="41.8262633" lon="12.8286433"><ele>323.0</ele><time>2026-04-02T12:34:02.83Z</time></trkpt><trkpt lat="41.8262133" lon="12.8284783"><ele>323.0</ele><time>2026-04-02T12:34:03.833Z</time></trkpt><trkpt lat="41.826165" lon="12.8283217"><ele>323.0</ele><time>2026-04-02T12:34:04.833Z</time></trkpt><trkpt lat="41.8261183" lon="12.82817"><ele>323.0</ele><time>2026-04-02T12:34:05.833Z</time></trkpt><trkpt lat="41.8260733" lon="12.8280267"><ele>323.0</ele><time>2026-04-02T12:34:06.832Z</time></trkpt><trkpt lat="41.82603" lon="12.827895"><ele>323.0</ele><time>2026-04-02T12:34:07.833Z</time></trkpt><trkpt lat="41.8259883" lon="12.8277733"><ele>323.0</ele><time>2026-04-02T12:34:08.832Z</time></trkpt><trkpt lat="41.8259517" lon="12.8276633"><ele>323.0</ele><time>2026-04-02T12:34:09.833Z</time></trkpt><trkpt lat="41.82592" lon="12.827565"><ele>323.0</ele><time>2026-04-02T12:34:10.832Z</time></trkpt><trkpt lat="41.8258883" lon="12.8274767"><ele>321.59999999999997</ele><time>2026-04-02T12:34:11.833Z</time></trkpt><trkpt lat="41.8258483" lon="12.8274067"><ele>320.2</ele><time>2026-04-02T12:34:12.835Z</time></trkpt><trkpt lat="41.8257917" lon="12.827355"><ele>318.8</ele><time>2026-04-02T12:34:13.835Z</time></trkpt><trkpt lat="41.8257067" lon="12.8273417"><ele>317.4</ele><time>2026-04-02T12:34:14.833Z</time></trkpt><trkpt lat="41.8255967" lon="12.8273467"><ele>316.0</ele><time>2026-04-02T12:34:15.835Z</time></trkpt><trkpt lat="41.8254767" lon="12.8273483"><ele>316.0</ele><time>2026-04-02T12:34:16.835Z</time></trkpt><trkpt lat="41.82536" lon="12.827345"><ele>316.0</ele><time>2026-04-02T12:34:17.833Z</time></trkpt><trkpt lat="41.8252433" lon="12.827345"><ele>316.0</ele><time>2026-04-02T12:34:18.832Z</time></trkpt><trkpt lat="41.8251183" lon="12.8273517"><ele>316.0</ele><time>2026-04-02T12:34:19.833Z</time></trkpt><trkpt lat="41.8249883" lon="12.8273567"><ele>316.25</ele><time>2026-04-02T12:34:20.832Z</time></trkpt><trkpt lat="41.8248483" lon="12.8273633"><ele>316.5</ele><time>2026-04-02T12:34:21.832Z</time></trkpt><trkpt lat="41.824705" lon="12.8273667"><ele>316.75</ele><time>2026-04-02T12:34:22.832Z</time></trkpt><trkpt lat="41.824555" lon="12.8273733"><ele>317.0</ele><time>2026-04-02T12:34:23.831Z</time></trkpt><trkpt lat="41.8244033" lon="12.8273817"><ele>316.75</ele><time>2026-04-02T12:34:24.835Z</time></trkpt><trkpt lat="41.8242567" lon="12.82739"><ele>316.5</ele><time>2026-04-02T12:34:25.835Z</time></trkpt><trkpt lat="41.824115" lon="12.8274033"><ele>316.25</ele><time>2026-04-02T12:34:26.837Z</time></trkpt><trkpt lat="41.8239833" lon="12.8274133"><ele>316.0</ele><time>2026-04-02T12:34:27.834Z</time></trkpt><trkpt lat="41.823865" lon="12.82742"><ele>316.0</ele><time>2026-04-02T12:34:28.833Z</time></trkpt><trkpt lat="41.823765" lon="12.8274233"><ele>316.0</ele><time>2026-04-02T12:34:29.831Z</time></trkpt><trkpt lat="41.823675" lon="12.8274233"><ele>316.0</ele><time>2026-04-02T12:34:30.833Z</time></trkpt><trkpt lat="41.823595" lon="12.8274267"><ele>316.0</ele><time>2026-04-02T12:34:31.833Z</time></trkpt><trkpt lat="41.82352" lon="12.8274283"><ele>316.0</ele><time>2026-04-02T12:34:32.832Z</time></trkpt><trkpt lat="41.8234517" lon="12.82743"><ele>316.0</ele><time>2026-04-02T12:34:33.833Z</time></trkpt><trkpt lat="41.8233817" lon="12.8274283"><ele>316.0</ele><time>2026-04-02T12:34:34.832Z</time></trkpt><trkpt lat="41.823305" lon="12.8274267"><ele>316.0</ele><time>2026-04-02T12:34:35.833Z</time></trkpt><trkpt lat="41.8232233" lon="12.827425"><ele>316.0</ele><time>2026-04-02T12:34:36.832Z</time></trkpt><trkpt lat="41.8231383" lon="12.8274233"><ele>316.0</ele><time>2026-04-02T12:34:37.83Z</time></trkpt><trkpt lat="41.8230483" lon="12.8274267"><ele>316.0</ele><time>2026-04-02T12:34:38.833Z</time></trkpt><trkpt lat="41.82296" lon="12.8274283"><ele>316.0</ele><time>2026-04-02T12:34:39.83Z</time></trkpt><trkpt lat="41.8228717" lon="12.8274317"><ele>316.0</ele><time>2026-04-02T12:34:40.833Z</time></trkpt><trkpt lat="41.8227883" lon="12.8274383"><ele>316.0</ele><time>2026-04-02T12:34:41.833Z</time></trkpt><trkpt lat="41.8227083" lon="12.827445"><ele>316.0</ele><time>2026-04-02T12:34:42.833Z</time></trkpt><trkpt lat="41.8226283" lon="12.8274533"><ele>316.0</ele><time>2026-04-02T12:34:43.83Z</time></trkpt><trkpt lat="41.8225517" lon="12.8274717"><ele>316.0</ele><time>2026-04-02T12:34:44.833Z</time></trkpt><trkpt lat="41.8224767" lon="12.8274917"><ele>316.0</ele><time>2026-04-02T12:34:45.835Z</time></trkpt><trkpt lat="41.8224067" lon="12.8275167"><ele>316.14285714285717</ele><time>2026-04-02T12:34:46.834Z</time></trkpt><trkpt lat="41.8223583" lon="12.82758"><ele>316.2857142857143</ele><time>2026-04-02T12:34:47.832Z</time></trkpt><trkpt lat="41.8223417" lon="12.8276733"><ele>316.42857142857144</ele><time>2026-04-02T12:34:48.833Z</time></trkpt><trkpt lat="41.8223417" lon="12.8277717"><ele>316.57142857142856</ele><time>2026-04-02T12:34:49.833Z</time></trkpt><trkpt lat="41.8223283" lon="12.8278667"><ele>316.7142857142857</ele><time>2026-04-02T12:34:50.832Z</time></trkpt><trkpt lat="41.8222983" lon="12.8279567"><ele>316.8571428571429</ele><time>2026-04-02T12:34:51.833Z</time></trkpt><trkpt lat="41.8222483" lon="12.82803"><ele>317.0</ele><time>2026-04-02T12:34:52.833Z</time></trkpt><trkpt lat="41.8221783" lon="12.8280883"><ele>319.0</ele><time>2026-04-02T12:34:53.833Z</time></trkpt><trkpt lat="41.8220967" lon="12.8281433"><ele>319.0</ele><time>2026-04-02T12:34:54.831Z</time></trkpt><trkpt lat="41.822025" lon="12.828185"><ele>319.0</ele><time>2026-04-02T12:34:55.832Z</time></trkpt><trkpt lat="41.821925" lon="12.82824"><ele>319.0</ele><time>2026-04-02T12:34:57.833Z</time></trkpt></trkseg></trk></gpx>